<?xml version="1.0" encoding="UTF-8" standalone="no" ?>
<gpx xmlns="http://www.topografix.com/GPX/1/1" xmlns:xsi="http://www.w3.org/2001/XMLSchema-instance" xsi:schemaLocation="http://www.topografix.com/GPX/1/1 http://www.topografix.com/GPX/1/1/gpx.xsd" version="1.1" creator="VisuGPX - https://www.visugpx.com">
  <metadata>
    <name>hangbrucke</name>
  </metadata>
  <trk>
    <name><![CDATA[hangbrucke_2]]></name>
    <extensions>
      <line xmlns="http://www.topografix.com/GPX/gpx_style/0/2">
        <color>ff2600</color>
        <width>4</width>
      </line>
    </extensions>
    <trkseg>
      <trkpt lat="46.38246" lon="8.04858">
        <ele>1912</ele>
        <time>2021-07-10T10:31:35.445Z</time>
      </trkpt>
      <trkpt lat="46.38246" lon="8.04858">
        <ele>1912</ele>
        <time>2021-07-10T10:31:35.445Z</time>
      </trkpt>
      <trkpt lat="46.38246" lon="8.04858">
        <ele>1912</ele>
        <time>2021-07-10T10:31:35.445Z</time>
      </trkpt>
      <trkpt lat="46.38246" lon="8.04858">
        <ele>1912</ele>
        <time>2021-07-10T10:31:36.445Z</time>
      </trkpt>
      <trkpt lat="46.38245" lon="8.04856">
        <ele>1912</ele>
        <time>2021-07-10T10:31:37.446Z</time>
      </trkpt>
      <trkpt lat="46.38245" lon="8.04855">
        <ele>1912</ele>
        <time>2021-07-10T10:31:38.446Z</time>
      </trkpt>
      <trkpt lat="46.38245" lon="8.04853">
        <ele>1911</ele>
        <time>2021-07-10T10:31:39.445Z</time>
      </trkpt>
      <trkpt lat="46.38244" lon="8.04852">
        <ele>1911</ele>
        <time>2021-07-10T10:31:40.446Z</time>
      </trkpt>
      <trkpt lat="46.38244" lon="8.04851">
        <ele>1911</ele>
        <time>2021-07-10T10:31:41.446Z</time>
      </trkpt>
      <trkpt lat="46.38243" lon="8.04849">
        <ele>1911</ele>
        <time>2021-07-10T10:31:42.445Z</time>
      </trkpt>
      <trkpt lat="46.38243" lon="8.04848">
        <ele>1911</ele>
        <time>2021-07-10T10:31:43.445Z</time>
      </trkpt>
      <trkpt lat="46.38242" lon="8.04846">
        <ele>1911</ele>
        <time>2021-07-10T10:31:44.446Z</time>
      </trkpt>
      <trkpt lat="46.38242" lon="8.04845">
        <ele>1911</ele>
        <time>2021-07-10T10:31:45.446Z</time>
      </trkpt>
      <trkpt lat="46.38241" lon="8.04844">
        <ele>1911</ele>
        <time>2021-07-10T10:31:46.446Z</time>
      </trkpt>
      <trkpt lat="46.38241" lon="8.04842">
        <ele>1911</ele>
        <time>2021-07-10T10:31:47.446Z</time>
      </trkpt>
      <trkpt lat="46.3824" lon="8.0484">
        <ele>1911</ele>
        <time>2021-07-10T10:31:48.446Z</time>
      </trkpt>
      <trkpt lat="46.3824" lon="8.04839">
        <ele>1910</ele>
        <time>2021-07-10T10:31:49.446Z</time>
      </trkpt>
      <trkpt lat="46.38239" lon="8.04837">
        <ele>1910</ele>
        <time>2021-07-10T10:31:50.446Z</time>
      </trkpt>
      <trkpt lat="46.38239" lon="8.04835">
        <ele>1910</ele>
        <time>2021-07-10T10:31:51.446Z</time>
      </trkpt>
      <trkpt lat="46.38239" lon="8.04834">
        <ele>1909</ele>
        <time>2021-07-10T10:31:52.446Z</time>
      </trkpt>
      <trkpt lat="46.38239" lon="8.04833">
        <ele>1909</ele>
        <time>2021-07-10T10:31:53.446Z</time>
      </trkpt>
      <trkpt lat="46.38239" lon="8.04831">
        <ele>1909</ele>
        <time>2021-07-10T10:31:54.445Z</time>
      </trkpt>
      <trkpt lat="46.38238" lon="8.0483">
        <ele>1909</ele>
        <time>2021-07-10T10:31:55.446Z</time>
      </trkpt>
      <trkpt lat="46.38238" lon="8.04829">
        <ele>1909</ele>
        <time>2021-07-10T10:31:56.446Z</time>
      </trkpt>
      <trkpt lat="46.38238" lon="8.04828">
        <ele>1909</ele>
        <time>2021-07-10T10:31:57.446Z</time>
      </trkpt>
      <trkpt lat="46.38237" lon="8.04826">
        <ele>1910</ele>
        <time>2021-07-10T10:31:58.446Z</time>
      </trkpt>
      <trkpt lat="46.38237" lon="8.04825">
        <ele>1910</ele>
        <time>2021-07-10T10:31:59.446Z</time>
      </trkpt>
      <trkpt lat="46.38238" lon="8.04823">
        <ele>1911</ele>
        <time>2021-07-10T10:32:00.446Z</time>
      </trkpt>
      <trkpt lat="46.38237" lon="8.04822">
        <ele>1911</ele>
        <time>2021-07-10T10:32:01.445Z</time>
      </trkpt>
      <trkpt lat="46.38237" lon="8.04821">
        <ele>1912</ele>
        <time>2021-07-10T10:32:02.446Z</time>
      </trkpt>
      <trkpt lat="46.38237" lon="8.04819">
        <ele>1912</ele>
        <time>2021-07-10T10:32:03.446Z</time>
      </trkpt>
      <trkpt lat="46.38237" lon="8.04817">
        <ele>1913</ele>
        <time>2021-07-10T10:32:04.446Z</time>
      </trkpt>
      <trkpt lat="46.38238" lon="8.04816">
        <ele>1913</ele>
        <time>2021-07-10T10:32:05.445Z</time>
      </trkpt>
      <trkpt lat="46.38238" lon="8.04814">
        <ele>1914</ele>
        <time>2021-07-10T10:32:06.445Z</time>
      </trkpt>
      <trkpt lat="46.38237" lon="8.04813">
        <ele>1914</ele>
        <time>2021-07-10T10:32:07.446Z</time>
      </trkpt>
      <trkpt lat="46.38236" lon="8.04812">
        <ele>1914</ele>
        <time>2021-07-10T10:32:08.445Z</time>
      </trkpt>
      <trkpt lat="46.38236" lon="8.0481">
        <ele>1915</ele>
        <time>2021-07-10T10:32:09.445Z</time>
      </trkpt>
      <trkpt lat="46.38236" lon="8.04809">
        <ele>1915</ele>
        <time>2021-07-10T10:32:10.446Z</time>
      </trkpt>
      <trkpt lat="46.38235" lon="8.04807">
        <ele>1915</ele>
        <time>2021-07-10T10:32:11.445Z</time>
      </trkpt>
      <trkpt lat="46.38235" lon="8.04807">
        <ele>1915</ele>
        <time>2021-07-10T10:32:12.446Z</time>
      </trkpt>
      <trkpt lat="46.38235" lon="8.04806">
        <ele>1916</ele>
        <time>2021-07-10T10:32:13.446Z</time>
      </trkpt>
      <trkpt lat="46.38234" lon="8.04805">
        <ele>1916</ele>
        <time>2021-07-10T10:32:14.446Z</time>
      </trkpt>
      <trkpt lat="46.38234" lon="8.04804">
        <ele>1917</ele>
        <time>2021-07-10T10:32:15.445Z</time>
      </trkpt>
      <trkpt lat="46.38234" lon="8.04803">
        <ele>1918</ele>
        <time>2021-07-10T10:32:16.446Z</time>
      </trkpt>
      <trkpt lat="46.38233" lon="8.04801">
        <ele>1919</ele>
        <time>2021-07-10T10:32:17.446Z</time>
      </trkpt>
      <trkpt lat="46.38233" lon="8.048">
        <ele>1919</ele>
        <time>2021-07-10T10:32:18.446Z</time>
      </trkpt>
      <trkpt lat="46.38233" lon="8.04798">
        <ele>1920</ele>
        <time>2021-07-10T10:32:19.445Z</time>
      </trkpt>
      <trkpt lat="46.38233" lon="8.04797">
        <ele>1921</ele>
        <time>2021-07-10T10:32:20.446Z</time>
      </trkpt>
      <trkpt lat="46.38232" lon="8.04796">
        <ele>1921</ele>
        <time>2021-07-10T10:32:21.446Z</time>
      </trkpt>
      <trkpt lat="46.38232" lon="8.04794">
        <ele>1922</ele>
        <time>2021-07-10T10:32:22.445Z</time>
      </trkpt>
      <trkpt lat="46.38231" lon="8.04793">
        <ele>1923</ele>
        <time>2021-07-10T10:32:23.446Z</time>
      </trkpt>
      <trkpt lat="46.38231" lon="8.04791">
        <ele>1923</ele>
        <time>2021-07-10T10:32:24.446Z</time>
      </trkpt>
      <trkpt lat="46.38231" lon="8.0479">
        <ele>1923</ele>
        <time>2021-07-10T10:32:25.446Z</time>
      </trkpt>
      <trkpt lat="46.38231" lon="8.04788">
        <ele>1924</ele>
        <time>2021-07-10T10:32:26.446Z</time>
      </trkpt>
      <trkpt lat="46.3823" lon="8.04787">
        <ele>1924</ele>
        <time>2021-07-10T10:32:27.446Z</time>
      </trkpt>
      <trkpt lat="46.38229" lon="8.04785">
        <ele>1924</ele>
        <time>2021-07-10T10:32:28.446Z</time>
      </trkpt>
      <trkpt lat="46.38228" lon="8.04784">
        <ele>1924</ele>
        <time>2021-07-10T10:32:29.445Z</time>
      </trkpt>
      <trkpt lat="46.38227" lon="8.04782">
        <ele>1925</ele>
        <time>2021-07-10T10:32:30.445Z</time>
      </trkpt>
      <trkpt lat="46.38227" lon="8.04781">
        <ele>1925</ele>
        <time>2021-07-10T10:32:31.446Z</time>
      </trkpt>
      <trkpt lat="46.38227" lon="8.04779">
        <ele>1924</ele>
        <time>2021-07-10T10:32:32.445Z</time>
      </trkpt>
      <trkpt lat="46.38227" lon="8.04778">
        <ele>1924</ele>
        <time>2021-07-10T10:32:33.445Z</time>
      </trkpt>
      <trkpt lat="46.38226" lon="8.04777">
        <ele>1923</ele>
        <time>2021-07-10T10:32:34.446Z</time>
      </trkpt>
      <trkpt lat="46.38226" lon="8.04775">
        <ele>1923</ele>
        <time>2021-07-10T10:32:35.445Z</time>
      </trkpt>
      <trkpt lat="46.38225" lon="8.04774">
        <ele>1923</ele>
        <time>2021-07-10T10:32:36.446Z</time>
      </trkpt>
      <trkpt lat="46.38223" lon="8.04771">
        <ele>1922</ele>
        <time>2021-07-10T10:32:37.446Z</time>
      </trkpt>
      <trkpt lat="46.38222" lon="8.04769">
        <ele>1922</ele>
        <time>2021-07-10T10:32:38.446Z</time>
      </trkpt>
      <trkpt lat="46.38221" lon="8.04768">
        <ele>1921</ele>
        <time>2021-07-10T10:32:39.445Z</time>
      </trkpt>
      <trkpt lat="46.3822" lon="8.04766">
        <ele>1920</ele>
        <time>2021-07-10T10:32:40.446Z</time>
      </trkpt>
      <trkpt lat="46.3822" lon="8.04761">
        <ele>1917</ele>
        <time>2021-07-10T10:32:41.445Z</time>
      </trkpt>
      <trkpt lat="46.3822" lon="8.0476">
        <ele>1917</ele>
        <time>2021-07-10T10:32:42.446Z</time>
      </trkpt>
      <trkpt lat="46.38219" lon="8.04759">
        <ele>1917</ele>
        <time>2021-07-10T10:32:43.445Z</time>
      </trkpt>
      <trkpt lat="46.38219" lon="8.04757">
        <ele>1917</ele>
        <time>2021-07-10T10:32:44.446Z</time>
      </trkpt>
      <trkpt lat="46.38219" lon="8.04756">
        <ele>1917</ele>
        <time>2021-07-10T10:32:45.446Z</time>
      </trkpt>
      <trkpt lat="46.38218" lon="8.04755">
        <ele>1918</ele>
        <time>2021-07-10T10:32:46.446Z</time>
      </trkpt>
      <trkpt lat="46.38218" lon="8.04754">
        <ele>1918</ele>
        <time>2021-07-10T10:32:47.446Z</time>
      </trkpt>
      <trkpt lat="46.38218" lon="8.04753">
        <ele>1918</ele>
        <time>2021-07-10T10:32:48.445Z</time>
      </trkpt>
      <trkpt lat="46.38217" lon="8.04753">
        <ele>1918</ele>
        <time>2021-07-10T10:32:49.446Z</time>
      </trkpt>
      <trkpt lat="46.38217" lon="8.04752">
        <ele>1918</ele>
        <time>2021-07-10T10:32:50.446Z</time>
      </trkpt>
      <trkpt lat="46.38217" lon="8.04751">
        <ele>1918</ele>
        <time>2021-07-10T10:32:51.446Z</time>
      </trkpt>
      <trkpt lat="46.38217" lon="8.0475">
        <ele>1918</ele>
        <time>2021-07-10T10:32:52.446Z</time>
      </trkpt>
      <trkpt lat="46.38217" lon="8.04749">
        <ele>1918</ele>
        <time>2021-07-10T10:32:53.445Z</time>
      </trkpt>
      <trkpt lat="46.38216" lon="8.04747">
        <ele>1918</ele>
        <time>2021-07-10T10:32:54.446Z</time>
      </trkpt>
      <trkpt lat="46.38216" lon="8.04746">
        <ele>1917</ele>
        <time>2021-07-10T10:32:55.445Z</time>
      </trkpt>
      <trkpt lat="46.38215" lon="8.04745">
        <ele>1918</ele>
        <time>2021-07-10T10:32:56.445Z</time>
      </trkpt>
      <trkpt lat="46.38215" lon="8.04745">
        <ele>1918</ele>
        <time>2021-07-10T10:32:57.446Z</time>
      </trkpt>
      <trkpt lat="46.38214" lon="8.04744">
        <ele>1918</ele>
        <time>2021-07-10T10:32:58.446Z</time>
      </trkpt>
      <trkpt lat="46.38214" lon="8.04744">
        <ele>1918</ele>
        <time>2021-07-10T10:32:59.446Z</time>
      </trkpt>
      <trkpt lat="46.38213" lon="8.04743">
        <ele>1918</ele>
        <time>2021-07-10T10:33:00.446Z</time>
      </trkpt>
      <trkpt lat="46.38213" lon="8.04743">
        <ele>1918</ele>
        <time>2021-07-10T10:33:01.445Z</time>
      </trkpt>
      <trkpt lat="46.38212" lon="8.04742">
        <ele>1918</ele>
        <time>2021-07-10T10:33:02.446Z</time>
      </trkpt>
      <trkpt lat="46.38211" lon="8.04741">
        <ele>1918</ele>
        <time>2021-07-10T10:33:03.446Z</time>
      </trkpt>
      <trkpt lat="46.38211" lon="8.0474">
        <ele>1918</ele>
        <time>2021-07-10T10:33:04.446Z</time>
      </trkpt>
      <trkpt lat="46.3821" lon="8.04739">
        <ele>1918</ele>
        <time>2021-07-10T10:33:05.445Z</time>
      </trkpt>
      <trkpt lat="46.3821" lon="8.04738">
        <ele>1918</ele>
        <time>2021-07-10T10:33:06.446Z</time>
      </trkpt>
      <trkpt lat="46.3821" lon="8.04737">
        <ele>1918</ele>
        <time>2021-07-10T10:33:07.445Z</time>
      </trkpt>
      <trkpt lat="46.3821" lon="8.04736">
        <ele>1918</ele>
        <time>2021-07-10T10:33:08.445Z</time>
      </trkpt>
      <trkpt lat="46.38209" lon="8.04735">
        <ele>1919</ele>
        <time>2021-07-10T10:33:09.446Z</time>
      </trkpt>
      <trkpt lat="46.38209" lon="8.04733">
        <ele>1919</ele>
        <time>2021-07-10T10:33:10.446Z</time>
      </trkpt>
      <trkpt lat="46.38209" lon="8.04732">
        <ele>1919</ele>
        <time>2021-07-10T10:33:11.446Z</time>
      </trkpt>
      <trkpt lat="46.38208" lon="8.0473">
        <ele>1919</ele>
        <time>2021-07-10T10:33:12.446Z</time>
      </trkpt>
      <trkpt lat="46.38207" lon="8.04729">
        <ele>1919</ele>
        <time>2021-07-10T10:33:13.446Z</time>
      </trkpt>
      <trkpt lat="46.38207" lon="8.04729">
        <ele>1920</ele>
        <time>2021-07-10T10:33:14.446Z</time>
      </trkpt>
      <trkpt lat="46.38207" lon="8.04728">
        <ele>1920</ele>
        <time>2021-07-10T10:33:15.445Z</time>
      </trkpt>
      <trkpt lat="46.38206" lon="8.04728">
        <ele>1920</ele>
        <time>2021-07-10T10:33:16.446Z</time>
      </trkpt>
      <trkpt lat="46.38206" lon="8.04727">
        <ele>1920</ele>
        <time>2021-07-10T10:33:17.446Z</time>
      </trkpt>
      <trkpt lat="46.38205" lon="8.04726">
        <ele>1921</ele>
        <time>2021-07-10T10:33:18.446Z</time>
      </trkpt>
      <trkpt lat="46.38204" lon="8.04725">
        <ele>1922</ele>
        <time>2021-07-10T10:33:19.446Z</time>
      </trkpt>
      <trkpt lat="46.38203" lon="8.04724">
        <ele>1922</ele>
        <time>2021-07-10T10:33:20.446Z</time>
      </trkpt>
      <trkpt lat="46.38203" lon="8.04723">
        <ele>1923</ele>
        <time>2021-07-10T10:33:21.446Z</time>
      </trkpt>
      <trkpt lat="46.38202" lon="8.04723">
        <ele>1923</ele>
        <time>2021-07-10T10:33:22.445Z</time>
      </trkpt>
      <trkpt lat="46.38202" lon="8.04723">
        <ele>1923</ele>
        <time>2021-07-10T10:33:23.446Z</time>
      </trkpt>
      <trkpt lat="46.38201" lon="8.04722">
        <ele>1923</ele>
        <time>2021-07-10T10:33:24.446Z</time>
      </trkpt>
      <trkpt lat="46.38201" lon="8.04722">
        <ele>1923</ele>
        <time>2021-07-10T10:33:25.446Z</time>
      </trkpt>
      <trkpt lat="46.38201" lon="8.04721">
        <ele>1924</ele>
        <time>2021-07-10T10:33:26.446Z</time>
      </trkpt>
      <trkpt lat="46.38201" lon="8.0472">
        <ele>1924</ele>
        <time>2021-07-10T10:33:27.446Z</time>
      </trkpt>
      <trkpt lat="46.382" lon="8.04719">
        <ele>1924</ele>
        <time>2021-07-10T10:33:28.446Z</time>
      </trkpt>
      <trkpt lat="46.382" lon="8.04717">
        <ele>1924</ele>
        <time>2021-07-10T10:33:29.445Z</time>
      </trkpt>
      <trkpt lat="46.38199" lon="8.04715">
        <ele>1923</ele>
        <time>2021-07-10T10:33:30.446Z</time>
      </trkpt>
      <trkpt lat="46.38199" lon="8.04714">
        <ele>1922</ele>
        <time>2021-07-10T10:33:31.446Z</time>
      </trkpt>
      <trkpt lat="46.38199" lon="8.04712">
        <ele>1922</ele>
        <time>2021-07-10T10:33:32.446Z</time>
      </trkpt>
      <trkpt lat="46.38198" lon="8.04712">
        <ele>1921</ele>
        <time>2021-07-10T10:33:33.445Z</time>
      </trkpt>
      <trkpt lat="46.38198" lon="8.04711">
        <ele>1920</ele>
        <time>2021-07-10T10:33:34.445Z</time>
      </trkpt>
      <trkpt lat="46.38197" lon="8.0471">
        <ele>1919</ele>
        <time>2021-07-10T10:33:35.445Z</time>
      </trkpt>
      <trkpt lat="46.38197" lon="8.04708">
        <ele>1919</ele>
        <time>2021-07-10T10:33:36.445Z</time>
      </trkpt>
      <trkpt lat="46.38197" lon="8.04707">
        <ele>1919</ele>
        <time>2021-07-10T10:33:37.446Z</time>
      </trkpt>
      <trkpt lat="46.38196" lon="8.04705">
        <ele>1919</ele>
        <time>2021-07-10T10:33:38.445Z</time>
      </trkpt>
      <trkpt lat="46.38195" lon="8.04704">
        <ele>1919</ele>
        <time>2021-07-10T10:33:39.445Z</time>
      </trkpt>
      <trkpt lat="46.38194" lon="8.04702">
        <ele>1919</ele>
        <time>2021-07-10T10:33:40.445Z</time>
      </trkpt>
      <trkpt lat="46.38194" lon="8.04701">
        <ele>1919</ele>
        <time>2021-07-10T10:33:41.445Z</time>
      </trkpt>
      <trkpt lat="46.38193" lon="8.04699">
        <ele>1918</ele>
        <time>2021-07-10T10:33:42.446Z</time>
      </trkpt>
      <trkpt lat="46.38192" lon="8.04698">
        <ele>1918</ele>
        <time>2021-07-10T10:33:43.446Z</time>
      </trkpt>
      <trkpt lat="46.38192" lon="8.04697">
        <ele>1918</ele>
        <time>2021-07-10T10:33:44.446Z</time>
      </trkpt>
      <trkpt lat="46.38191" lon="8.04696">
        <ele>1919</ele>
        <time>2021-07-10T10:33:45.446Z</time>
      </trkpt>
      <trkpt lat="46.38191" lon="8.04696">
        <ele>1919</ele>
        <time>2021-07-10T10:33:46.445Z</time>
      </trkpt>
      <trkpt lat="46.38188" lon="8.04688">
        <ele>1924</ele>
        <time>2021-07-10T10:33:47.446Z</time>
      </trkpt>
      <trkpt lat="46.38186" lon="8.04685">
        <ele>1921</ele>
        <time>2021-07-10T10:33:48.447Z</time>
      </trkpt>
      <trkpt lat="46.38187" lon="8.04685">
        <ele>1921</ele>
        <time>2021-07-10T10:33:49.447Z</time>
      </trkpt>
      <trkpt lat="46.38187" lon="8.04685">
        <ele>1921</ele>
        <time>2021-07-10T10:33:50.446Z</time>
      </trkpt>
      <trkpt lat="46.38189" lon="8.04689">
        <ele>1933</ele>
        <time>2021-07-10T10:33:51.447Z</time>
      </trkpt>
      <trkpt lat="46.3819" lon="8.04689">
        <ele>1933</ele>
        <time>2021-07-10T10:33:52.447Z</time>
      </trkpt>
      <trkpt lat="46.38191" lon="8.04689">
        <ele>1933</ele>
        <time>2021-07-10T10:33:53.446Z</time>
      </trkpt>
      <trkpt lat="46.38191" lon="8.04689">
        <ele>1933</ele>
        <time>2021-07-10T10:33:54.447Z</time>
      </trkpt>
      <trkpt lat="46.38192" lon="8.04688">
        <ele>1932</ele>
        <time>2021-07-10T10:33:55.446Z</time>
      </trkpt>
      <trkpt lat="46.38193" lon="8.04688">
        <ele>1931</ele>
        <time>2021-07-10T10:33:56.447Z</time>
      </trkpt>
      <trkpt lat="46.38193" lon="8.04687">
        <ele>1931</ele>
        <time>2021-07-10T10:33:57.446Z</time>
      </trkpt>
      <trkpt lat="46.38194" lon="8.04686">
        <ele>1930</ele>
        <time>2021-07-10T10:33:58.447Z</time>
      </trkpt>
      <trkpt lat="46.38194" lon="8.04684">
        <ele>1930</ele>
        <time>2021-07-10T10:33:59.447Z</time>
      </trkpt>
      <trkpt lat="46.38194" lon="8.04683">
        <ele>1929</ele>
        <time>2021-07-10T10:34:00.447Z</time>
      </trkpt>
      <trkpt lat="46.38194" lon="8.04682">
        <ele>1929</ele>
        <time>2021-07-10T10:34:01.447Z</time>
      </trkpt>
      <trkpt lat="46.38194" lon="8.04681">
        <ele>1928</ele>
        <time>2021-07-10T10:34:02.447Z</time>
      </trkpt>
      <trkpt lat="46.38193" lon="8.0468">
        <ele>1927</ele>
        <time>2021-07-10T10:34:03.447Z</time>
      </trkpt>
      <trkpt lat="46.38192" lon="8.04679">
        <ele>1927</ele>
        <time>2021-07-10T10:34:04.447Z</time>
      </trkpt>
      <trkpt lat="46.38192" lon="8.04678">
        <ele>1926</ele>
        <time>2021-07-10T10:34:05.447Z</time>
      </trkpt>
      <trkpt lat="46.38192" lon="8.04677">
        <ele>1926</ele>
        <time>2021-07-10T10:34:06.446Z</time>
      </trkpt>
      <trkpt lat="46.38192" lon="8.04676">
        <ele>1925</ele>
        <time>2021-07-10T10:34:07.447Z</time>
      </trkpt>
      <trkpt lat="46.38193" lon="8.04675">
        <ele>1924</ele>
        <time>2021-07-10T10:34:08.446Z</time>
      </trkpt>
      <trkpt lat="46.38193" lon="8.04675">
        <ele>1924</ele>
        <time>2021-07-10T10:34:09.447Z</time>
      </trkpt>
      <trkpt lat="46.38194" lon="8.04674">
        <ele>1923</ele>
        <time>2021-07-10T10:34:10.447Z</time>
      </trkpt>
      <trkpt lat="46.38194" lon="8.04674">
        <ele>1922</ele>
        <time>2021-07-10T10:34:11.446Z</time>
      </trkpt>
      <trkpt lat="46.38193" lon="8.04672">
        <ele>1922</ele>
        <time>2021-07-10T10:34:12.447Z</time>
      </trkpt>
      <trkpt lat="46.38193" lon="8.04671">
        <ele>1921</ele>
        <time>2021-07-10T10:34:13.447Z</time>
      </trkpt>
      <trkpt lat="46.38192" lon="8.0467">
        <ele>1921</ele>
        <time>2021-07-10T10:34:14.447Z</time>
      </trkpt>
      <trkpt lat="46.38192" lon="8.04669">
        <ele>1920</ele>
        <time>2021-07-10T10:34:15.446Z</time>
      </trkpt>
      <trkpt lat="46.38192" lon="8.04669">
        <ele>1920</ele>
        <time>2021-07-10T10:34:16.446Z</time>
      </trkpt>
      <trkpt lat="46.38192" lon="8.04668">
        <ele>1920</ele>
        <time>2021-07-10T10:34:17.446Z</time>
      </trkpt>
      <trkpt lat="46.38192" lon="8.04668">
        <ele>1920</ele>
        <time>2021-07-10T10:34:18.447Z</time>
      </trkpt>
      <trkpt lat="46.38192" lon="8.04667">
        <ele>1920</ele>
        <time>2021-07-10T10:34:19.447Z</time>
      </trkpt>
      <trkpt lat="46.38192" lon="8.04666">
        <ele>1921</ele>
        <time>2021-07-10T10:34:20.446Z</time>
      </trkpt>
      <trkpt lat="46.38192" lon="8.04665">
        <ele>1921</ele>
        <time>2021-07-10T10:34:21.447Z</time>
      </trkpt>
      <trkpt lat="46.38191" lon="8.04664">
        <ele>1921</ele>
        <time>2021-07-10T10:34:22.447Z</time>
      </trkpt>
      <trkpt lat="46.38191" lon="8.04663">
        <ele>1921</ele>
        <time>2021-07-10T10:34:23.447Z</time>
      </trkpt>
      <trkpt lat="46.38191" lon="8.04662">
        <ele>1921</ele>
        <time>2021-07-10T10:34:24.447Z</time>
      </trkpt>
      <trkpt lat="46.38192" lon="8.04661">
        <ele>1921</ele>
        <time>2021-07-10T10:34:25.447Z</time>
      </trkpt>
      <trkpt lat="46.38192" lon="8.0466">
        <ele>1921</ele>
        <time>2021-07-10T10:34:26.447Z</time>
      </trkpt>
      <trkpt lat="46.38192" lon="8.04659">
        <ele>1921</ele>
        <time>2021-07-10T10:34:27.447Z</time>
      </trkpt>
      <trkpt lat="46.38192" lon="8.04657">
        <ele>1921</ele>
        <time>2021-07-10T10:34:28.446Z</time>
      </trkpt>
      <trkpt lat="46.38192" lon="8.04656">
        <ele>1920</ele>
        <time>2021-07-10T10:34:29.446Z</time>
      </trkpt>
      <trkpt lat="46.38192" lon="8.04655">
        <ele>1920</ele>
        <time>2021-07-10T10:34:30.447Z</time>
      </trkpt>
      <trkpt lat="46.38192" lon="8.04653">
        <ele>1920</ele>
        <time>2021-07-10T10:34:31.447Z</time>
      </trkpt>
      <trkpt lat="46.38192" lon="8.04652">
        <ele>1920</ele>
        <time>2021-07-10T10:34:32.447Z</time>
      </trkpt>
      <trkpt lat="46.38191" lon="8.0465">
        <ele>1919</ele>
        <time>2021-07-10T10:34:33.447Z</time>
      </trkpt>
      <trkpt lat="46.38191" lon="8.04649">
        <ele>1919</ele>
        <time>2021-07-10T10:34:34.446Z</time>
      </trkpt>
      <trkpt lat="46.3819" lon="8.04648">
        <ele>1918</ele>
        <time>2021-07-10T10:34:35.447Z</time>
      </trkpt>
      <trkpt lat="46.38189" lon="8.04646">
        <ele>1918</ele>
        <time>2021-07-10T10:34:36.447Z</time>
      </trkpt>
      <trkpt lat="46.38188" lon="8.04645">
        <ele>1917</ele>
        <time>2021-07-10T10:34:37.447Z</time>
      </trkpt>
      <trkpt lat="46.38188" lon="8.04643">
        <ele>1917</ele>
        <time>2021-07-10T10:34:38.447Z</time>
      </trkpt>
      <trkpt lat="46.38187" lon="8.04642">
        <ele>1917</ele>
        <time>2021-07-10T10:34:39.447Z</time>
      </trkpt>
      <trkpt lat="46.38186" lon="8.04641">
        <ele>1916</ele>
        <time>2021-07-10T10:34:40.447Z</time>
      </trkpt>
      <trkpt lat="46.38186" lon="8.0464">
        <ele>1916</ele>
        <time>2021-07-10T10:34:41.447Z</time>
      </trkpt>
      <trkpt lat="46.38186" lon="8.04638">
        <ele>1916</ele>
        <time>2021-07-10T10:34:42.446Z</time>
      </trkpt>
      <trkpt lat="46.38187" lon="8.04636">
        <ele>1916</ele>
        <time>2021-07-10T10:34:43.446Z</time>
      </trkpt>
      <trkpt lat="46.38187" lon="8.04635">
        <ele>1916</ele>
        <time>2021-07-10T10:34:44.446Z</time>
      </trkpt>
      <trkpt lat="46.38187" lon="8.04634">
        <ele>1917</ele>
        <time>2021-07-10T10:34:45.447Z</time>
      </trkpt>
      <trkpt lat="46.38186" lon="8.04634">
        <ele>1917</ele>
        <time>2021-07-10T10:34:46.446Z</time>
      </trkpt>
      <trkpt lat="46.38186" lon="8.04633">
        <ele>1917</ele>
        <time>2021-07-10T10:34:47.446Z</time>
      </trkpt>
      <trkpt lat="46.38186" lon="8.04632">
        <ele>1916</ele>
        <time>2021-07-10T10:34:48.447Z</time>
      </trkpt>
      <trkpt lat="46.38185" lon="8.04631">
        <ele>1916</ele>
        <time>2021-07-10T10:34:49.447Z</time>
      </trkpt>
      <trkpt lat="46.38185" lon="8.0463">
        <ele>1916</ele>
        <time>2021-07-10T10:34:50.447Z</time>
      </trkpt>
      <trkpt lat="46.38185" lon="8.04629">
        <ele>1916</ele>
        <time>2021-07-10T10:34:51.446Z</time>
      </trkpt>
      <trkpt lat="46.38185" lon="8.04628">
        <ele>1916</ele>
        <time>2021-07-10T10:34:52.447Z</time>
      </trkpt>
      <trkpt lat="46.38184" lon="8.04626">
        <ele>1917</ele>
        <time>2021-07-10T10:34:53.446Z</time>
      </trkpt>
      <trkpt lat="46.38184" lon="8.04625">
        <ele>1917</ele>
        <time>2021-07-10T10:34:54.447Z</time>
      </trkpt>
      <trkpt lat="46.38184" lon="8.04624">
        <ele>1918</ele>
        <time>2021-07-10T10:34:55.446Z</time>
      </trkpt>
      <trkpt lat="46.38183" lon="8.04623">
        <ele>1918</ele>
        <time>2021-07-10T10:34:56.447Z</time>
      </trkpt>
      <trkpt lat="46.38183" lon="8.04622">
        <ele>1918</ele>
        <time>2021-07-10T10:34:57.447Z</time>
      </trkpt>
      <trkpt lat="46.38183" lon="8.0462">
        <ele>1918</ele>
        <time>2021-07-10T10:34:58.447Z</time>
      </trkpt>
      <trkpt lat="46.38182" lon="8.04619">
        <ele>1918</ele>
        <time>2021-07-10T10:34:59.447Z</time>
      </trkpt>
      <trkpt lat="46.38182" lon="8.04619">
        <ele>1918</ele>
        <time>2021-07-10T10:35:00.446Z</time>
      </trkpt>
      <trkpt lat="46.38182" lon="8.04618">
        <ele>1919</ele>
        <time>2021-07-10T10:35:01.446Z</time>
      </trkpt>
      <trkpt lat="46.38182" lon="8.04617">
        <ele>1919</ele>
        <time>2021-07-10T10:35:02.447Z</time>
      </trkpt>
      <trkpt lat="46.38182" lon="8.04616">
        <ele>1919</ele>
        <time>2021-07-10T10:35:03.446Z</time>
      </trkpt>
      <trkpt lat="46.38182" lon="8.04615">
        <ele>1919</ele>
        <time>2021-07-10T10:35:04.447Z</time>
      </trkpt>
      <trkpt lat="46.38182" lon="8.04614">
        <ele>1919</ele>
        <time>2021-07-10T10:35:05.446Z</time>
      </trkpt>
      <trkpt lat="46.38181" lon="8.04613">
        <ele>1919</ele>
        <time>2021-07-10T10:35:06.446Z</time>
      </trkpt>
      <trkpt lat="46.38181" lon="8.04612">
        <ele>1919</ele>
        <time>2021-07-10T10:35:07.446Z</time>
      </trkpt>
      <trkpt lat="46.3818" lon="8.04611">
        <ele>1919</ele>
        <time>2021-07-10T10:35:08.446Z</time>
      </trkpt>
      <trkpt lat="46.3818" lon="8.0461">
        <ele>1919</ele>
        <time>2021-07-10T10:35:09.447Z</time>
      </trkpt>
      <trkpt lat="46.3818" lon="8.04608">
        <ele>1919</ele>
        <time>2021-07-10T10:35:10.446Z</time>
      </trkpt>
      <trkpt lat="46.38179" lon="8.04607">
        <ele>1919</ele>
        <time>2021-07-10T10:35:11.447Z</time>
      </trkpt>
      <trkpt lat="46.38179" lon="8.04606">
        <ele>1919</ele>
        <time>2021-07-10T10:35:12.447Z</time>
      </trkpt>
      <trkpt lat="46.38179" lon="8.04606">
        <ele>1919</ele>
        <time>2021-07-10T10:35:13.447Z</time>
      </trkpt>
      <trkpt lat="46.38179" lon="8.04605">
        <ele>1920</ele>
        <time>2021-07-10T10:35:14.446Z</time>
      </trkpt>
      <trkpt lat="46.38178" lon="8.04603">
        <ele>1920</ele>
        <time>2021-07-10T10:35:15.446Z</time>
      </trkpt>
      <trkpt lat="46.38177" lon="8.04602">
        <ele>1921</ele>
        <time>2021-07-10T10:35:16.447Z</time>
      </trkpt>
      <trkpt lat="46.38177" lon="8.04601">
        <ele>1921</ele>
        <time>2021-07-10T10:35:17.446Z</time>
      </trkpt>
      <trkpt lat="46.38176" lon="8.04599">
        <ele>1921</ele>
        <time>2021-07-10T10:35:18.446Z</time>
      </trkpt>
      <trkpt lat="46.38175" lon="8.04598">
        <ele>1922</ele>
        <time>2021-07-10T10:35:19.447Z</time>
      </trkpt>
      <trkpt lat="46.38174" lon="8.04598">
        <ele>1922</ele>
        <time>2021-07-10T10:35:20.447Z</time>
      </trkpt>
      <trkpt lat="46.38173" lon="8.04597">
        <ele>1922</ele>
        <time>2021-07-10T10:35:21.447Z</time>
      </trkpt>
      <trkpt lat="46.38172" lon="8.04596">
        <ele>1922</ele>
        <time>2021-07-10T10:35:22.447Z</time>
      </trkpt>
      <trkpt lat="46.38171" lon="8.04595">
        <ele>1921</ele>
        <time>2021-07-10T10:35:23.447Z</time>
      </trkpt>
      <trkpt lat="46.3817" lon="8.04594">
        <ele>1921</ele>
        <time>2021-07-10T10:35:24.447Z</time>
      </trkpt>
      <trkpt lat="46.38169" lon="8.04592">
        <ele>1921</ele>
        <time>2021-07-10T10:35:25.447Z</time>
      </trkpt>
      <trkpt lat="46.38169" lon="8.04591">
        <ele>1921</ele>
        <time>2021-07-10T10:35:26.446Z</time>
      </trkpt>
      <trkpt lat="46.38167" lon="8.0459">
        <ele>1921</ele>
        <time>2021-07-10T10:35:27.447Z</time>
      </trkpt>
      <trkpt lat="46.38167" lon="8.04588">
        <ele>1921</ele>
        <time>2021-07-10T10:35:28.447Z</time>
      </trkpt>
      <trkpt lat="46.38166" lon="8.04587">
        <ele>1921</ele>
        <time>2021-07-10T10:35:29.446Z</time>
      </trkpt>
      <trkpt lat="46.38165" lon="8.04586">
        <ele>1921</ele>
        <time>2021-07-10T10:35:30.447Z</time>
      </trkpt>
      <trkpt lat="46.38164" lon="8.04585">
        <ele>1921</ele>
        <time>2021-07-10T10:35:31.447Z</time>
      </trkpt>
      <trkpt lat="46.38163" lon="8.04585">
        <ele>1921</ele>
        <time>2021-07-10T10:35:32.447Z</time>
      </trkpt>
      <trkpt lat="46.38163" lon="8.04584">
        <ele>1920</ele>
        <time>2021-07-10T10:35:33.447Z</time>
      </trkpt>
      <trkpt lat="46.38162" lon="8.04582">
        <ele>1920</ele>
        <time>2021-07-10T10:35:34.447Z</time>
      </trkpt>
      <trkpt lat="46.38161" lon="8.04581">
        <ele>1919</ele>
        <time>2021-07-10T10:35:35.447Z</time>
      </trkpt>
      <trkpt lat="46.38161" lon="8.04579">
        <ele>1919</ele>
        <time>2021-07-10T10:35:36.447Z</time>
      </trkpt>
      <trkpt lat="46.3816" lon="8.04578">
        <ele>1919</ele>
        <time>2021-07-10T10:35:37.447Z</time>
      </trkpt>
      <trkpt lat="46.3816" lon="8.04576">
        <ele>1919</ele>
        <time>2021-07-10T10:35:38.446Z</time>
      </trkpt>
      <trkpt lat="46.38159" lon="8.04575">
        <ele>1919</ele>
        <time>2021-07-10T10:35:39.446Z</time>
      </trkpt>
      <trkpt lat="46.38158" lon="8.04574">
        <ele>1919</ele>
        <time>2021-07-10T10:35:40.446Z</time>
      </trkpt>
      <trkpt lat="46.38158" lon="8.04573">
        <ele>1919</ele>
        <time>2021-07-10T10:35:41.447Z</time>
      </trkpt>
      <trkpt lat="46.38157" lon="8.04571">
        <ele>1919</ele>
        <time>2021-07-10T10:35:42.447Z</time>
      </trkpt>
      <trkpt lat="46.38157" lon="8.0457">
        <ele>1919</ele>
        <time>2021-07-10T10:35:43.446Z</time>
      </trkpt>
      <trkpt lat="46.38156" lon="8.04569">
        <ele>1918</ele>
        <time>2021-07-10T10:35:44.447Z</time>
      </trkpt>
      <trkpt lat="46.38155" lon="8.04567">
        <ele>1918</ele>
        <time>2021-07-10T10:35:45.446Z</time>
      </trkpt>
      <trkpt lat="46.38155" lon="8.04566">
        <ele>1918</ele>
        <time>2021-07-10T10:35:46.446Z</time>
      </trkpt>
      <trkpt lat="46.38154" lon="8.04565">
        <ele>1918</ele>
        <time>2021-07-10T10:35:47.447Z</time>
      </trkpt>
      <trkpt lat="46.38153" lon="8.04564">
        <ele>1918</ele>
        <time>2021-07-10T10:35:48.447Z</time>
      </trkpt>
      <trkpt lat="46.38153" lon="8.04562">
        <ele>1919</ele>
        <time>2021-07-10T10:35:49.446Z</time>
      </trkpt>
      <trkpt lat="46.38152" lon="8.04561">
        <ele>1919</ele>
        <time>2021-07-10T10:35:50.447Z</time>
      </trkpt>
      <trkpt lat="46.38151" lon="8.0456">
        <ele>1919</ele>
        <time>2021-07-10T10:35:51.447Z</time>
      </trkpt>
      <trkpt lat="46.3815" lon="8.04559">
        <ele>1918</ele>
        <time>2021-07-10T10:35:52.447Z</time>
      </trkpt>
      <trkpt lat="46.38149" lon="8.04558">
        <ele>1918</ele>
        <time>2021-07-10T10:35:53.446Z</time>
      </trkpt>
      <trkpt lat="46.38148" lon="8.04557">
        <ele>1917</ele>
        <time>2021-07-10T10:35:54.446Z</time>
      </trkpt>
      <trkpt lat="46.38147" lon="8.04556">
        <ele>1917</ele>
        <time>2021-07-10T10:35:55.447Z</time>
      </trkpt>
      <trkpt lat="46.38146" lon="8.04555">
        <ele>1917</ele>
        <time>2021-07-10T10:35:56.447Z</time>
      </trkpt>
      <trkpt lat="46.38145" lon="8.04554">
        <ele>1917</ele>
        <time>2021-07-10T10:35:57.447Z</time>
      </trkpt>
      <trkpt lat="46.38144" lon="8.04553">
        <ele>1917</ele>
        <time>2021-07-10T10:35:58.447Z</time>
      </trkpt>
      <trkpt lat="46.38142" lon="8.04552">
        <ele>1917</ele>
        <time>2021-07-10T10:35:59.447Z</time>
      </trkpt>
      <trkpt lat="46.38141" lon="8.04551">
        <ele>1916</ele>
        <time>2021-07-10T10:36:00.447Z</time>
      </trkpt>
      <trkpt lat="46.3814" lon="8.04551">
        <ele>1916</ele>
        <time>2021-07-10T10:36:01.447Z</time>
      </trkpt>
      <trkpt lat="46.38139" lon="8.04551">
        <ele>1916</ele>
        <time>2021-07-10T10:36:02.447Z</time>
      </trkpt>
      <trkpt lat="46.38138" lon="8.0455">
        <ele>1916</ele>
        <time>2021-07-10T10:36:03.447Z</time>
      </trkpt>
      <trkpt lat="46.38137" lon="8.0455">
        <ele>1916</ele>
        <time>2021-07-10T10:36:04.447Z</time>
      </trkpt>
      <trkpt lat="46.38136" lon="8.0455">
        <ele>1916</ele>
        <time>2021-07-10T10:36:05.446Z</time>
      </trkpt>
      <trkpt lat="46.38136" lon="8.0455">
        <ele>1916</ele>
        <time>2021-07-10T10:36:06.446Z</time>
      </trkpt>
      <trkpt lat="46.38135" lon="8.04549">
        <ele>1916</ele>
        <time>2021-07-10T10:36:07.447Z</time>
      </trkpt>
      <trkpt lat="46.38134" lon="8.04549">
        <ele>1916</ele>
        <time>2021-07-10T10:36:08.446Z</time>
      </trkpt>
      <trkpt lat="46.38133" lon="8.04548">
        <ele>1917</ele>
        <time>2021-07-10T10:36:09.447Z</time>
      </trkpt>
      <trkpt lat="46.38132" lon="8.04547">
        <ele>1917</ele>
        <time>2021-07-10T10:36:10.447Z</time>
      </trkpt>
      <trkpt lat="46.38131" lon="8.04547">
        <ele>1917</ele>
        <time>2021-07-10T10:36:11.446Z</time>
      </trkpt>
      <trkpt lat="46.3813" lon="8.04546">
        <ele>1917</ele>
        <time>2021-07-10T10:36:12.446Z</time>
      </trkpt>
      <trkpt lat="46.3813" lon="8.04545">
        <ele>1917</ele>
        <time>2021-07-10T10:36:13.447Z</time>
      </trkpt>
      <trkpt lat="46.38129" lon="8.04544">
        <ele>1916</ele>
        <time>2021-07-10T10:36:14.447Z</time>
      </trkpt>
      <trkpt lat="46.38129" lon="8.04544">
        <ele>1916</ele>
        <time>2021-07-10T10:36:15.446Z</time>
      </trkpt>
      <trkpt lat="46.38128" lon="8.04544">
        <ele>1915</ele>
        <time>2021-07-10T10:36:16.447Z</time>
      </trkpt>
      <trkpt lat="46.38128" lon="8.04544">
        <ele>1915</ele>
        <time>2021-07-10T10:36:17.447Z</time>
      </trkpt>
      <trkpt lat="46.38127" lon="8.04544">
        <ele>1914</ele>
        <time>2021-07-10T10:36:18.447Z</time>
      </trkpt>
      <trkpt lat="46.38127" lon="8.04544">
        <ele>1914</ele>
        <time>2021-07-10T10:36:19.446Z</time>
      </trkpt>
      <trkpt lat="46.38127" lon="8.04543">
        <ele>1914</ele>
        <time>2021-07-10T10:36:20.447Z</time>
      </trkpt>
      <trkpt lat="46.38127" lon="8.04543">
        <ele>1914</ele>
        <time>2021-07-10T10:36:21.447Z</time>
      </trkpt>
      <trkpt lat="46.38127" lon="8.04542">
        <ele>1914</ele>
        <time>2021-07-10T10:36:22.447Z</time>
      </trkpt>
      <trkpt lat="46.38127" lon="8.04541">
        <ele>1914</ele>
        <time>2021-07-10T10:36:23.447Z</time>
      </trkpt>
      <trkpt lat="46.38127" lon="8.0454">
        <ele>1914</ele>
        <time>2021-07-10T10:36:24.446Z</time>
      </trkpt>
      <trkpt lat="46.38126" lon="8.0454">
        <ele>1914</ele>
        <time>2021-07-10T10:36:25.446Z</time>
      </trkpt>
      <trkpt lat="46.38126" lon="8.04539">
        <ele>1915</ele>
        <time>2021-07-10T10:36:26.446Z</time>
      </trkpt>
      <trkpt lat="46.38126" lon="8.04539">
        <ele>1914</ele>
        <time>2021-07-10T10:36:27.446Z</time>
      </trkpt>
      <trkpt lat="46.38126" lon="8.04539">
        <ele>1914</ele>
        <time>2021-07-10T10:36:28.446Z</time>
      </trkpt>
      <trkpt lat="46.38126" lon="8.04538">
        <ele>1914</ele>
        <time>2021-07-10T10:36:29.446Z</time>
      </trkpt>
      <trkpt lat="46.38125" lon="8.04539">
        <ele>1913</ele>
        <time>2021-07-10T10:36:30.446Z</time>
      </trkpt>
      <trkpt lat="46.38125" lon="8.0454">
        <ele>1913</ele>
        <time>2021-07-10T10:36:31.447Z</time>
      </trkpt>
      <trkpt lat="46.38124" lon="8.04542">
        <ele>1913</ele>
        <time>2021-07-10T10:36:32.447Z</time>
      </trkpt>
      <trkpt lat="46.38123" lon="8.04545">
        <ele>1912</ele>
        <time>2021-07-10T10:36:33.446Z</time>
      </trkpt>
      <trkpt lat="46.38122" lon="8.04548">
        <ele>1912</ele>
        <time>2021-07-10T10:36:34.447Z</time>
      </trkpt>
      <trkpt lat="46.38121" lon="8.0455">
        <ele>1912</ele>
        <time>2021-07-10T10:36:35.446Z</time>
      </trkpt>
      <trkpt lat="46.38121" lon="8.04551">
        <ele>1912</ele>
        <time>2021-07-10T10:36:36.447Z</time>
      </trkpt>
      <trkpt lat="46.38121" lon="8.04551">
        <ele>1913</ele>
        <time>2021-07-10T10:36:37.446Z</time>
      </trkpt>
      <trkpt lat="46.38121" lon="8.04551">
        <ele>1913</ele>
        <time>2021-07-10T10:36:38.447Z</time>
      </trkpt>
      <trkpt lat="46.38121" lon="8.04552">
        <ele>1913</ele>
        <time>2021-07-10T10:36:39.447Z</time>
      </trkpt>
      <trkpt lat="46.38122" lon="8.04551">
        <ele>1913</ele>
        <time>2021-07-10T10:36:40.447Z</time>
      </trkpt>
      <trkpt lat="46.38121" lon="8.04549">
        <ele>1910</ele>
        <time>2021-07-10T10:36:41.446Z</time>
      </trkpt>
      <trkpt lat="46.38121" lon="8.04548">
        <ele>1910</ele>
        <time>2021-07-10T10:36:42.447Z</time>
      </trkpt>
      <trkpt lat="46.38121" lon="8.04547">
        <ele>1909</ele>
        <time>2021-07-10T10:36:43.447Z</time>
      </trkpt>
      <trkpt lat="46.38122" lon="8.04546">
        <ele>1909</ele>
        <time>2021-07-10T10:36:44.447Z</time>
      </trkpt>
      <trkpt lat="46.38122" lon="8.04545">
        <ele>1908</ele>
        <time>2021-07-10T10:36:45.447Z</time>
      </trkpt>
      <trkpt lat="46.38122" lon="8.04544">
        <ele>1908</ele>
        <time>2021-07-10T10:36:46.447Z</time>
      </trkpt>
      <trkpt lat="46.38122" lon="8.04543">
        <ele>1908</ele>
        <time>2021-07-10T10:36:47.446Z</time>
      </trkpt>
      <trkpt lat="46.38123" lon="8.04543">
        <ele>1908</ele>
        <time>2021-07-10T10:36:48.446Z</time>
      </trkpt>
      <trkpt lat="46.38124" lon="8.04538">
        <ele>1907</ele>
        <time>2021-07-10T10:36:49.448Z</time>
      </trkpt>
      <trkpt lat="46.38124" lon="8.04539">
        <ele>1907</ele>
        <time>2021-07-10T10:36:50.447Z</time>
      </trkpt>
      <trkpt lat="46.38124" lon="8.0454">
        <ele>1907</ele>
        <time>2021-07-10T10:36:51.448Z</time>
      </trkpt>
      <trkpt lat="46.38127" lon="8.04537">
        <ele>1905</ele>
        <time>2021-07-10T10:36:52.448Z</time>
      </trkpt>
      <trkpt lat="46.38127" lon="8.04537">
        <ele>1904</ele>
        <time>2021-07-10T10:36:53.448Z</time>
      </trkpt>
      <trkpt lat="46.38126" lon="8.04534">
        <ele>1903</ele>
        <time>2021-07-10T10:36:54.449Z</time>
      </trkpt>
      <trkpt lat="46.38126" lon="8.04534">
        <ele>1904</ele>
        <time>2021-07-10T10:36:55.449Z</time>
      </trkpt>
      <trkpt lat="46.38126" lon="8.04534">
        <ele>1905</ele>
        <time>2021-07-10T10:36:56.449Z</time>
      </trkpt>
      <trkpt lat="46.38125" lon="8.0453">
        <ele>1908</ele>
        <time>2021-07-10T10:36:57.450Z</time>
      </trkpt>
      <trkpt lat="46.38125" lon="8.04529">
        <ele>1908</ele>
        <time>2021-07-10T10:36:58.450Z</time>
      </trkpt>
      <trkpt lat="46.38125" lon="8.04528">
        <ele>1909</ele>
        <time>2021-07-10T10:36:59.450Z</time>
      </trkpt>
      <trkpt lat="46.38124" lon="8.04526">
        <ele>1910</ele>
        <time>2021-07-10T10:37:00.450Z</time>
      </trkpt>
      <trkpt lat="46.38123" lon="8.04525">
        <ele>1911</ele>
        <time>2021-07-10T10:37:01.449Z</time>
      </trkpt>
      <trkpt lat="46.38123" lon="8.04523">
        <ele>1911</ele>
        <time>2021-07-10T10:37:02.450Z</time>
      </trkpt>
      <trkpt lat="46.38122" lon="8.04522">
        <ele>1912</ele>
        <time>2021-07-10T10:37:03.450Z</time>
      </trkpt>
      <trkpt lat="46.38122" lon="8.04521">
        <ele>1912</ele>
        <time>2021-07-10T10:37:04.449Z</time>
      </trkpt>
      <trkpt lat="46.38121" lon="8.0452">
        <ele>1912</ele>
        <time>2021-07-10T10:37:05.450Z</time>
      </trkpt>
      <trkpt lat="46.38122" lon="8.04519">
        <ele>1912</ele>
        <time>2021-07-10T10:37:06.449Z</time>
      </trkpt>
      <trkpt lat="46.38122" lon="8.04518">
        <ele>1913</ele>
        <time>2021-07-10T10:37:07.449Z</time>
      </trkpt>
      <trkpt lat="46.38123" lon="8.04517">
        <ele>1913</ele>
        <time>2021-07-10T10:37:08.450Z</time>
      </trkpt>
      <trkpt lat="46.38123" lon="8.04517">
        <ele>1913</ele>
        <time>2021-07-10T10:37:09.449Z</time>
      </trkpt>
      <trkpt lat="46.38123" lon="8.04516">
        <ele>1913</ele>
        <time>2021-07-10T10:37:10.449Z</time>
      </trkpt>
      <trkpt lat="46.38122" lon="8.04515">
        <ele>1913</ele>
        <time>2021-07-10T10:37:11.450Z</time>
      </trkpt>
      <trkpt lat="46.38122" lon="8.04514">
        <ele>1912</ele>
        <time>2021-07-10T10:37:12.449Z</time>
      </trkpt>
      <trkpt lat="46.38121" lon="8.04513">
        <ele>1912</ele>
        <time>2021-07-10T10:37:13.450Z</time>
      </trkpt>
      <trkpt lat="46.3812" lon="8.04511">
        <ele>1913</ele>
        <time>2021-07-10T10:37:14.449Z</time>
      </trkpt>
      <trkpt lat="46.3812" lon="8.04509">
        <ele>1913</ele>
        <time>2021-07-10T10:37:15.450Z</time>
      </trkpt>
      <trkpt lat="46.3812" lon="8.04507">
        <ele>1913</ele>
        <time>2021-07-10T10:37:16.450Z</time>
      </trkpt>
      <trkpt lat="46.38119" lon="8.04505">
        <ele>1913</ele>
        <time>2021-07-10T10:37:17.450Z</time>
      </trkpt>
      <trkpt lat="46.38119" lon="8.04504">
        <ele>1913</ele>
        <time>2021-07-10T10:37:18.450Z</time>
      </trkpt>
      <trkpt lat="46.38118" lon="8.04502">
        <ele>1914</ele>
        <time>2021-07-10T10:37:19.450Z</time>
      </trkpt>
      <trkpt lat="46.38118" lon="8.045">
        <ele>1914</ele>
        <time>2021-07-10T10:37:20.449Z</time>
      </trkpt>
      <trkpt lat="46.38118" lon="8.04498">
        <ele>1914</ele>
        <time>2021-07-10T10:37:21.450Z</time>
      </trkpt>
      <trkpt lat="46.38118" lon="8.04497">
        <ele>1914</ele>
        <time>2021-07-10T10:37:22.449Z</time>
      </trkpt>
      <trkpt lat="46.38118" lon="8.04496">
        <ele>1914</ele>
        <time>2021-07-10T10:37:23.450Z</time>
      </trkpt>
      <trkpt lat="46.38118" lon="8.04495">
        <ele>1915</ele>
        <time>2021-07-10T10:37:24.450Z</time>
      </trkpt>
      <trkpt lat="46.38117" lon="8.04494">
        <ele>1915</ele>
        <time>2021-07-10T10:37:25.450Z</time>
      </trkpt>
      <trkpt lat="46.38116" lon="8.04492">
        <ele>1915</ele>
        <time>2021-07-10T10:37:26.450Z</time>
      </trkpt>
      <trkpt lat="46.38115" lon="8.04491">
        <ele>1915</ele>
        <time>2021-07-10T10:37:27.450Z</time>
      </trkpt>
      <trkpt lat="46.38114" lon="8.0449">
        <ele>1916</ele>
        <time>2021-07-10T10:37:28.449Z</time>
      </trkpt>
      <trkpt lat="46.38114" lon="8.04489">
        <ele>1916</ele>
        <time>2021-07-10T10:37:29.450Z</time>
      </trkpt>
      <trkpt lat="46.38114" lon="8.04488">
        <ele>1916</ele>
        <time>2021-07-10T10:37:30.449Z</time>
      </trkpt>
      <trkpt lat="46.38115" lon="8.04485">
        <ele>1916</ele>
        <time>2021-07-10T10:37:31.449Z</time>
      </trkpt>
      <trkpt lat="46.38116" lon="8.04484">
        <ele>1916</ele>
        <time>2021-07-10T10:37:32.450Z</time>
      </trkpt>
      <trkpt lat="46.38117" lon="8.04483">
        <ele>1916</ele>
        <time>2021-07-10T10:37:33.449Z</time>
      </trkpt>
      <trkpt lat="46.38117" lon="8.04481">
        <ele>1916</ele>
        <time>2021-07-10T10:37:34.449Z</time>
      </trkpt>
      <trkpt lat="46.38117" lon="8.0448">
        <ele>1915</ele>
        <time>2021-07-10T10:37:35.450Z</time>
      </trkpt>
      <trkpt lat="46.38116" lon="8.04479">
        <ele>1915</ele>
        <time>2021-07-10T10:37:36.449Z</time>
      </trkpt>
      <trkpt lat="46.38115" lon="8.04478">
        <ele>1915</ele>
        <time>2021-07-10T10:37:37.450Z</time>
      </trkpt>
      <trkpt lat="46.38114" lon="8.04478">
        <ele>1915</ele>
        <time>2021-07-10T10:37:38.450Z</time>
      </trkpt>
      <trkpt lat="46.38114" lon="8.04476">
        <ele>1915</ele>
        <time>2021-07-10T10:37:39.450Z</time>
      </trkpt>
      <trkpt lat="46.38113" lon="8.04475">
        <ele>1915</ele>
        <time>2021-07-10T10:37:40.449Z</time>
      </trkpt>
      <trkpt lat="46.38112" lon="8.04474">
        <ele>1915</ele>
        <time>2021-07-10T10:37:41.450Z</time>
      </trkpt>
      <trkpt lat="46.38111" lon="8.04473">
        <ele>1915</ele>
        <time>2021-07-10T10:37:42.450Z</time>
      </trkpt>
      <trkpt lat="46.38111" lon="8.04472">
        <ele>1914</ele>
        <time>2021-07-10T10:37:43.450Z</time>
      </trkpt>
      <trkpt lat="46.38111" lon="8.04471">
        <ele>1914</ele>
        <time>2021-07-10T10:37:44.450Z</time>
      </trkpt>
      <trkpt lat="46.3811" lon="8.0447">
        <ele>1914</ele>
        <time>2021-07-10T10:37:45.450Z</time>
      </trkpt>
      <trkpt lat="46.3811" lon="8.04469">
        <ele>1914</ele>
        <time>2021-07-10T10:37:46.449Z</time>
      </trkpt>
      <trkpt lat="46.38111" lon="8.04468">
        <ele>1914</ele>
        <time>2021-07-10T10:37:47.450Z</time>
      </trkpt>
      <trkpt lat="46.3811" lon="8.04466">
        <ele>1913</ele>
        <time>2021-07-10T10:37:48.450Z</time>
      </trkpt>
      <trkpt lat="46.38111" lon="8.04464">
        <ele>1913</ele>
        <time>2021-07-10T10:37:49.450Z</time>
      </trkpt>
      <trkpt lat="46.38111" lon="8.04462">
        <ele>1913</ele>
        <time>2021-07-10T10:37:50.450Z</time>
      </trkpt>
      <trkpt lat="46.38111" lon="8.0446">
        <ele>1913</ele>
        <time>2021-07-10T10:37:51.449Z</time>
      </trkpt>
      <trkpt lat="46.3811" lon="8.04459">
        <ele>1913</ele>
        <time>2021-07-10T10:37:52.449Z</time>
      </trkpt>
      <trkpt lat="46.3811" lon="8.04457">
        <ele>1913</ele>
        <time>2021-07-10T10:37:53.450Z</time>
      </trkpt>
      <trkpt lat="46.38109" lon="8.04457">
        <ele>1914</ele>
        <time>2021-07-10T10:37:54.449Z</time>
      </trkpt>
      <trkpt lat="46.38109" lon="8.04456">
        <ele>1914</ele>
        <time>2021-07-10T10:37:55.449Z</time>
      </trkpt>
      <trkpt lat="46.38108" lon="8.04457">
        <ele>1915</ele>
        <time>2021-07-10T10:37:56.450Z</time>
      </trkpt>
      <trkpt lat="46.38107" lon="8.04457">
        <ele>1917</ele>
        <time>2021-07-10T10:37:57.449Z</time>
      </trkpt>
      <trkpt lat="46.38107" lon="8.04456">
        <ele>1918</ele>
        <time>2021-07-10T10:37:58.450Z</time>
      </trkpt>
      <trkpt lat="46.38106" lon="8.04455">
        <ele>1919</ele>
        <time>2021-07-10T10:37:59.449Z</time>
      </trkpt>
      <trkpt lat="46.38106" lon="8.04454">
        <ele>1920</ele>
        <time>2021-07-10T10:38:00.449Z</time>
      </trkpt>
      <trkpt lat="46.38105" lon="8.04453">
        <ele>1921</ele>
        <time>2021-07-10T10:38:01.450Z</time>
      </trkpt>
      <trkpt lat="46.38104" lon="8.04452">
        <ele>1922</ele>
        <time>2021-07-10T10:38:02.449Z</time>
      </trkpt>
      <trkpt lat="46.38102" lon="8.04451">
        <ele>1923</ele>
        <time>2021-07-10T10:38:03.449Z</time>
      </trkpt>
      <trkpt lat="46.38101" lon="8.0445">
        <ele>1923</ele>
        <time>2021-07-10T10:38:04.450Z</time>
      </trkpt>
      <trkpt lat="46.381" lon="8.04449">
        <ele>1923</ele>
        <time>2021-07-10T10:38:05.449Z</time>
      </trkpt>
      <trkpt lat="46.38099" lon="8.04447">
        <ele>1924</ele>
        <time>2021-07-10T10:38:06.450Z</time>
      </trkpt>
      <trkpt lat="46.38097" lon="8.04447">
        <ele>1924</ele>
        <time>2021-07-10T10:38:07.450Z</time>
      </trkpt>
      <trkpt lat="46.38096" lon="8.04446">
        <ele>1924</ele>
        <time>2021-07-10T10:38:08.450Z</time>
      </trkpt>
      <trkpt lat="46.38095" lon="8.04445">
        <ele>1923</ele>
        <time>2021-07-10T10:38:09.450Z</time>
      </trkpt>
      <trkpt lat="46.38094" lon="8.04445">
        <ele>1923</ele>
        <time>2021-07-10T10:38:10.450Z</time>
      </trkpt>
      <trkpt lat="46.38094" lon="8.04444">
        <ele>1923</ele>
        <time>2021-07-10T10:38:11.449Z</time>
      </trkpt>
      <trkpt lat="46.38093" lon="8.04443">
        <ele>1923</ele>
        <time>2021-07-10T10:38:12.449Z</time>
      </trkpt>
      <trkpt lat="46.38093" lon="8.04442">
        <ele>1922</ele>
        <time>2021-07-10T10:38:13.450Z</time>
      </trkpt>
      <trkpt lat="46.38092" lon="8.04441">
        <ele>1922</ele>
        <time>2021-07-10T10:38:14.449Z</time>
      </trkpt>
      <trkpt lat="46.38092" lon="8.0444">
        <ele>1921</ele>
        <time>2021-07-10T10:38:15.450Z</time>
      </trkpt>
      <trkpt lat="46.38092" lon="8.04439">
        <ele>1921</ele>
        <time>2021-07-10T10:38:16.449Z</time>
      </trkpt>
      <trkpt lat="46.38092" lon="8.04437">
        <ele>1921</ele>
        <time>2021-07-10T10:38:17.450Z</time>
      </trkpt>
      <trkpt lat="46.38091" lon="8.04436">
        <ele>1920</ele>
        <time>2021-07-10T10:38:18.449Z</time>
      </trkpt>
      <trkpt lat="46.3809" lon="8.04433">
        <ele>1920</ele>
        <time>2021-07-10T10:38:19.449Z</time>
      </trkpt>
      <trkpt lat="46.38089" lon="8.04431">
        <ele>1920</ele>
        <time>2021-07-10T10:38:20.450Z</time>
      </trkpt>
      <trkpt lat="46.38088" lon="8.0443">
        <ele>1920</ele>
        <time>2021-07-10T10:38:21.450Z</time>
      </trkpt>
      <trkpt lat="46.38088" lon="8.04428">
        <ele>1920</ele>
        <time>2021-07-10T10:38:22.450Z</time>
      </trkpt>
      <trkpt lat="46.38087" lon="8.04426">
        <ele>1920</ele>
        <time>2021-07-10T10:38:23.450Z</time>
      </trkpt>
      <trkpt lat="46.38086" lon="8.04425">
        <ele>1920</ele>
        <time>2021-07-10T10:38:24.449Z</time>
      </trkpt>
      <trkpt lat="46.38085" lon="8.04425">
        <ele>1920</ele>
        <time>2021-07-10T10:38:25.450Z</time>
      </trkpt>
      <trkpt lat="46.38084" lon="8.04423">
        <ele>1919</ele>
        <time>2021-07-10T10:38:26.450Z</time>
      </trkpt>
      <trkpt lat="46.38084" lon="8.04421">
        <ele>1919</ele>
        <time>2021-07-10T10:38:27.450Z</time>
      </trkpt>
      <trkpt lat="46.38083" lon="8.04419">
        <ele>1919</ele>
        <time>2021-07-10T10:38:28.449Z</time>
      </trkpt>
      <trkpt lat="46.38082" lon="8.04418">
        <ele>1919</ele>
        <time>2021-07-10T10:38:29.449Z</time>
      </trkpt>
      <trkpt lat="46.38082" lon="8.04417">
        <ele>1919</ele>
        <time>2021-07-10T10:38:30.450Z</time>
      </trkpt>
      <trkpt lat="46.38081" lon="8.04416">
        <ele>1919</ele>
        <time>2021-07-10T10:38:31.450Z</time>
      </trkpt>
      <trkpt lat="46.38081" lon="8.04414">
        <ele>1919</ele>
        <time>2021-07-10T10:38:32.450Z</time>
      </trkpt>
      <trkpt lat="46.3808" lon="8.04413">
        <ele>1919</ele>
        <time>2021-07-10T10:38:33.450Z</time>
      </trkpt>
      <trkpt lat="46.38079" lon="8.04412">
        <ele>1919</ele>
        <time>2021-07-10T10:38:34.450Z</time>
      </trkpt>
      <trkpt lat="46.38078" lon="8.04411">
        <ele>1918</ele>
        <time>2021-07-10T10:38:35.450Z</time>
      </trkpt>
      <trkpt lat="46.38078" lon="8.0441">
        <ele>1918</ele>
        <time>2021-07-10T10:38:36.450Z</time>
      </trkpt>
      <trkpt lat="46.38077" lon="8.04409">
        <ele>1918</ele>
        <time>2021-07-10T10:38:37.449Z</time>
      </trkpt>
      <trkpt lat="46.38076" lon="8.04407">
        <ele>1919</ele>
        <time>2021-07-10T10:38:38.450Z</time>
      </trkpt>
      <trkpt lat="46.38074" lon="8.04405">
        <ele>1919</ele>
        <time>2021-07-10T10:38:39.450Z</time>
      </trkpt>
      <trkpt lat="46.38073" lon="8.04403">
        <ele>1919</ele>
        <time>2021-07-10T10:38:40.449Z</time>
      </trkpt>
      <trkpt lat="46.38072" lon="8.04401">
        <ele>1918</ele>
        <time>2021-07-10T10:38:41.450Z</time>
      </trkpt>
      <trkpt lat="46.3807" lon="8.04399">
        <ele>1918</ele>
        <time>2021-07-10T10:38:42.450Z</time>
      </trkpt>
      <trkpt lat="46.3807" lon="8.04398">
        <ele>1918</ele>
        <time>2021-07-10T10:38:43.449Z</time>
      </trkpt>
      <trkpt lat="46.3807" lon="8.04397">
        <ele>1918</ele>
        <time>2021-07-10T10:38:44.449Z</time>
      </trkpt>
      <trkpt lat="46.3807" lon="8.04396">
        <ele>1917</ele>
        <time>2021-07-10T10:38:45.450Z</time>
      </trkpt>
      <trkpt lat="46.3807" lon="8.04395">
        <ele>1917</ele>
        <time>2021-07-10T10:38:46.450Z</time>
      </trkpt>
      <trkpt lat="46.38068" lon="8.04393">
        <ele>1916</ele>
        <time>2021-07-10T10:38:47.449Z</time>
      </trkpt>
      <trkpt lat="46.38068" lon="8.04392">
        <ele>1916</ele>
        <time>2021-07-10T10:38:48.449Z</time>
      </trkpt>
      <trkpt lat="46.38067" lon="8.0439">
        <ele>1916</ele>
        <time>2021-07-10T10:38:49.450Z</time>
      </trkpt>
      <trkpt lat="46.38066" lon="8.04389">
        <ele>1915</ele>
        <time>2021-07-10T10:38:50.450Z</time>
      </trkpt>
      <trkpt lat="46.38066" lon="8.04388">
        <ele>1915</ele>
        <time>2021-07-10T10:38:51.449Z</time>
      </trkpt>
      <trkpt lat="46.38066" lon="8.04387">
        <ele>1914</ele>
        <time>2021-07-10T10:38:52.449Z</time>
      </trkpt>
      <trkpt lat="46.38065" lon="8.04385">
        <ele>1914</ele>
        <time>2021-07-10T10:38:53.450Z</time>
      </trkpt>
      <trkpt lat="46.38064" lon="8.04383">
        <ele>1914</ele>
        <time>2021-07-10T10:38:54.450Z</time>
      </trkpt>
      <trkpt lat="46.38063" lon="8.04381">
        <ele>1913</ele>
        <time>2021-07-10T10:38:55.450Z</time>
      </trkpt>
      <trkpt lat="46.38063" lon="8.04379">
        <ele>1913</ele>
        <time>2021-07-10T10:38:56.449Z</time>
      </trkpt>
      <trkpt lat="46.38063" lon="8.04377">
        <ele>1913</ele>
        <time>2021-07-10T10:38:57.450Z</time>
      </trkpt>
      <trkpt lat="46.38062" lon="8.04376">
        <ele>1913</ele>
        <time>2021-07-10T10:38:58.450Z</time>
      </trkpt>
      <trkpt lat="46.38062" lon="8.04375">
        <ele>1912</ele>
        <time>2021-07-10T10:38:59.449Z</time>
      </trkpt>
      <trkpt lat="46.38061" lon="8.04374">
        <ele>1912</ele>
        <time>2021-07-10T10:39:00.450Z</time>
      </trkpt>
      <trkpt lat="46.3806" lon="8.04373">
        <ele>1913</ele>
        <time>2021-07-10T10:39:01.450Z</time>
      </trkpt>
      <trkpt lat="46.38059" lon="8.04372">
        <ele>1913</ele>
        <time>2021-07-10T10:39:02.450Z</time>
      </trkpt>
      <trkpt lat="46.38059" lon="8.0437">
        <ele>1913</ele>
        <time>2021-07-10T10:39:03.450Z</time>
      </trkpt>
      <trkpt lat="46.38058" lon="8.04369">
        <ele>1913</ele>
        <time>2021-07-10T10:39:04.449Z</time>
      </trkpt>
      <trkpt lat="46.38057" lon="8.04367">
        <ele>1913</ele>
        <time>2021-07-10T10:39:05.450Z</time>
      </trkpt>
      <trkpt lat="46.38056" lon="8.04366">
        <ele>1913</ele>
        <time>2021-07-10T10:39:06.450Z</time>
      </trkpt>
      <trkpt lat="46.38056" lon="8.04364">
        <ele>1912</ele>
        <time>2021-07-10T10:39:07.450Z</time>
      </trkpt>
      <trkpt lat="46.38055" lon="8.04363">
        <ele>1912</ele>
        <time>2021-07-10T10:39:08.450Z</time>
      </trkpt>
      <trkpt lat="46.38055" lon="8.04362">
        <ele>1912</ele>
        <time>2021-07-10T10:39:09.449Z</time>
      </trkpt>
      <trkpt lat="46.38054" lon="8.04361">
        <ele>1911</ele>
        <time>2021-07-10T10:39:10.450Z</time>
      </trkpt>
      <trkpt lat="46.38054" lon="8.04359">
        <ele>1910</ele>
        <time>2021-07-10T10:39:11.450Z</time>
      </trkpt>
      <trkpt lat="46.38054" lon="8.04358">
        <ele>1910</ele>
        <time>2021-07-10T10:39:12.449Z</time>
      </trkpt>
      <trkpt lat="46.38053" lon="8.04357">
        <ele>1909</ele>
        <time>2021-07-10T10:39:13.450Z</time>
      </trkpt>
      <trkpt lat="46.38053" lon="8.04356">
        <ele>1909</ele>
        <time>2021-07-10T10:39:14.450Z</time>
      </trkpt>
      <trkpt lat="46.38053" lon="8.04354">
        <ele>1909</ele>
        <time>2021-07-10T10:39:15.449Z</time>
      </trkpt>
      <trkpt lat="46.38053" lon="8.04353">
        <ele>1909</ele>
        <time>2021-07-10T10:39:16.450Z</time>
      </trkpt>
      <trkpt lat="46.38052" lon="8.04352">
        <ele>1909</ele>
        <time>2021-07-10T10:39:17.450Z</time>
      </trkpt>
      <trkpt lat="46.38051" lon="8.04351">
        <ele>1910</ele>
        <time>2021-07-10T10:39:18.449Z</time>
      </trkpt>
      <trkpt lat="46.3805" lon="8.0435">
        <ele>1910</ele>
        <time>2021-07-10T10:39:19.450Z</time>
      </trkpt>
      <trkpt lat="46.38049" lon="8.04349">
        <ele>1910</ele>
        <time>2021-07-10T10:39:20.449Z</time>
      </trkpt>
      <trkpt lat="46.38048" lon="8.04347">
        <ele>1910</ele>
        <time>2021-07-10T10:39:21.450Z</time>
      </trkpt>
      <trkpt lat="46.38048" lon="8.04346">
        <ele>1911</ele>
        <time>2021-07-10T10:39:22.450Z</time>
      </trkpt>
      <trkpt lat="46.38047" lon="8.04344">
        <ele>1911</ele>
        <time>2021-07-10T10:39:23.450Z</time>
      </trkpt>
      <trkpt lat="46.38046" lon="8.04343">
        <ele>1911</ele>
        <time>2021-07-10T10:39:24.450Z</time>
      </trkpt>
      <trkpt lat="46.38045" lon="8.04343">
        <ele>1911</ele>
        <time>2021-07-10T10:39:25.450Z</time>
      </trkpt>
      <trkpt lat="46.38044" lon="8.04342">
        <ele>1911</ele>
        <time>2021-07-10T10:39:26.450Z</time>
      </trkpt>
      <trkpt lat="46.38044" lon="8.0434">
        <ele>1911</ele>
        <time>2021-07-10T10:39:27.449Z</time>
      </trkpt>
      <trkpt lat="46.38043" lon="8.04339">
        <ele>1911</ele>
        <time>2021-07-10T10:39:28.450Z</time>
      </trkpt>
      <trkpt lat="46.38042" lon="8.04338">
        <ele>1911</ele>
        <time>2021-07-10T10:39:29.450Z</time>
      </trkpt>
      <trkpt lat="46.38041" lon="8.04336">
        <ele>1911</ele>
        <time>2021-07-10T10:39:30.449Z</time>
      </trkpt>
      <trkpt lat="46.38041" lon="8.04335">
        <ele>1911</ele>
        <time>2021-07-10T10:39:31.449Z</time>
      </trkpt>
      <trkpt lat="46.3804" lon="8.04333">
        <ele>1912</ele>
        <time>2021-07-10T10:39:32.450Z</time>
      </trkpt>
      <trkpt lat="46.3804" lon="8.04332">
        <ele>1912</ele>
        <time>2021-07-10T10:39:33.450Z</time>
      </trkpt>
      <trkpt lat="46.38039" lon="8.04331">
        <ele>1913</ele>
        <time>2021-07-10T10:39:34.450Z</time>
      </trkpt>
      <trkpt lat="46.38038" lon="8.0433">
        <ele>1913</ele>
        <time>2021-07-10T10:39:35.449Z</time>
      </trkpt>
      <trkpt lat="46.38037" lon="8.04328">
        <ele>1914</ele>
        <time>2021-07-10T10:39:36.450Z</time>
      </trkpt>
      <trkpt lat="46.38037" lon="8.04327">
        <ele>1914</ele>
        <time>2021-07-10T10:39:37.450Z</time>
      </trkpt>
      <trkpt lat="46.38036" lon="8.04326">
        <ele>1914</ele>
        <time>2021-07-10T10:39:38.450Z</time>
      </trkpt>
      <trkpt lat="46.38035" lon="8.04324">
        <ele>1913</ele>
        <time>2021-07-10T10:39:39.450Z</time>
      </trkpt>
      <trkpt lat="46.38034" lon="8.04323">
        <ele>1913</ele>
        <time>2021-07-10T10:39:40.450Z</time>
      </trkpt>
      <trkpt lat="46.38033" lon="8.04321">
        <ele>1913</ele>
        <time>2021-07-10T10:39:41.450Z</time>
      </trkpt>
      <trkpt lat="46.38033" lon="8.04319">
        <ele>1912</ele>
        <time>2021-07-10T10:39:42.450Z</time>
      </trkpt>
      <trkpt lat="46.38032" lon="8.04317">
        <ele>1912</ele>
        <time>2021-07-10T10:39:43.450Z</time>
      </trkpt>
      <trkpt lat="46.38032" lon="8.04316">
        <ele>1911</ele>
        <time>2021-07-10T10:39:44.449Z</time>
      </trkpt>
      <trkpt lat="46.38031" lon="8.04314">
        <ele>1910</ele>
        <time>2021-07-10T10:39:45.450Z</time>
      </trkpt>
      <trkpt lat="46.38031" lon="8.04313">
        <ele>1909</ele>
        <time>2021-07-10T10:39:46.450Z</time>
      </trkpt>
      <trkpt lat="46.3803" lon="8.04311">
        <ele>1909</ele>
        <time>2021-07-10T10:39:47.449Z</time>
      </trkpt>
      <trkpt lat="46.38031" lon="8.0431">
        <ele>1908</ele>
        <time>2021-07-10T10:39:48.450Z</time>
      </trkpt>
      <trkpt lat="46.38031" lon="8.04309">
        <ele>1908</ele>
        <time>2021-07-10T10:39:49.450Z</time>
      </trkpt>
      <trkpt lat="46.38031" lon="8.04307">
        <ele>1908</ele>
        <time>2021-07-10T10:39:50.450Z</time>
      </trkpt>
      <trkpt lat="46.3803" lon="8.04305">
        <ele>1908</ele>
        <time>2021-07-10T10:39:51.450Z</time>
      </trkpt>
      <trkpt lat="46.3803" lon="8.04303">
        <ele>1908</ele>
        <time>2021-07-10T10:39:52.450Z</time>
      </trkpt>
      <trkpt lat="46.3803" lon="8.04301">
        <ele>1908</ele>
        <time>2021-07-10T10:39:53.450Z</time>
      </trkpt>
      <trkpt lat="46.3803" lon="8.043">
        <ele>1908</ele>
        <time>2021-07-10T10:39:54.450Z</time>
      </trkpt>
      <trkpt lat="46.3803" lon="8.04298">
        <ele>1908</ele>
        <time>2021-07-10T10:39:55.449Z</time>
      </trkpt>
      <trkpt lat="46.3803" lon="8.04297">
        <ele>1908</ele>
        <time>2021-07-10T10:39:56.450Z</time>
      </trkpt>
      <trkpt lat="46.38029" lon="8.04296">
        <ele>1909</ele>
        <time>2021-07-10T10:39:57.449Z</time>
      </trkpt>
      <trkpt lat="46.38028" lon="8.04295">
        <ele>1909</ele>
        <time>2021-07-10T10:39:58.449Z</time>
      </trkpt>
      <trkpt lat="46.38027" lon="8.04294">
        <ele>1910</ele>
        <time>2021-07-10T10:39:59.449Z</time>
      </trkpt>
      <trkpt lat="46.38027" lon="8.04292">
        <ele>1910</ele>
        <time>2021-07-10T10:40:00.450Z</time>
      </trkpt>
      <trkpt lat="46.38027" lon="8.0429">
        <ele>1911</ele>
        <time>2021-07-10T10:40:01.450Z</time>
      </trkpt>
      <trkpt lat="46.38026" lon="8.04288">
        <ele>1911</ele>
        <time>2021-07-10T10:40:02.449Z</time>
      </trkpt>
      <trkpt lat="46.38025" lon="8.04287">
        <ele>1911</ele>
        <time>2021-07-10T10:40:03.449Z</time>
      </trkpt>
      <trkpt lat="46.38025" lon="8.04284">
        <ele>1912</ele>
        <time>2021-07-10T10:40:04.450Z</time>
      </trkpt>
      <trkpt lat="46.38025" lon="8.04282">
        <ele>1912</ele>
        <time>2021-07-10T10:40:05.449Z</time>
      </trkpt>
      <trkpt lat="46.38026" lon="8.0428">
        <ele>1912</ele>
        <time>2021-07-10T10:40:06.450Z</time>
      </trkpt>
      <trkpt lat="46.38026" lon="8.04279">
        <ele>1912</ele>
        <time>2021-07-10T10:40:07.449Z</time>
      </trkpt>
      <trkpt lat="46.38026" lon="8.04277">
        <ele>1912</ele>
        <time>2021-07-10T10:40:08.450Z</time>
      </trkpt>
      <trkpt lat="46.38026" lon="8.04275">
        <ele>1912</ele>
        <time>2021-07-10T10:40:09.449Z</time>
      </trkpt>
      <trkpt lat="46.38026" lon="8.04273">
        <ele>1912</ele>
        <time>2021-07-10T10:40:10.449Z</time>
      </trkpt>
      <trkpt lat="46.38026" lon="8.04272">
        <ele>1911</ele>
        <time>2021-07-10T10:40:11.450Z</time>
      </trkpt>
      <trkpt lat="46.38026" lon="8.0427">
        <ele>1911</ele>
        <time>2021-07-10T10:40:12.450Z</time>
      </trkpt>
      <trkpt lat="46.38026" lon="8.04267">
        <ele>1911</ele>
        <time>2021-07-10T10:40:13.450Z</time>
      </trkpt>
      <trkpt lat="46.38026" lon="8.04265">
        <ele>1911</ele>
        <time>2021-07-10T10:40:14.449Z</time>
      </trkpt>
      <trkpt lat="46.38025" lon="8.04263">
        <ele>1911</ele>
        <time>2021-07-10T10:40:15.449Z</time>
      </trkpt>
      <trkpt lat="46.38025" lon="8.04262">
        <ele>1911</ele>
        <time>2021-07-10T10:40:16.449Z</time>
      </trkpt>
      <trkpt lat="46.38025" lon="8.0426">
        <ele>1911</ele>
        <time>2021-07-10T10:40:17.449Z</time>
      </trkpt>
      <trkpt lat="46.38024" lon="8.04258">
        <ele>1911</ele>
        <time>2021-07-10T10:40:18.450Z</time>
      </trkpt>
      <trkpt lat="46.38022" lon="8.04257">
        <ele>1911</ele>
        <time>2021-07-10T10:40:19.449Z</time>
      </trkpt>
      <trkpt lat="46.38021" lon="8.04255">
        <ele>1911</ele>
        <time>2021-07-10T10:40:20.450Z</time>
      </trkpt>
      <trkpt lat="46.38019" lon="8.04252">
        <ele>1911</ele>
        <time>2021-07-10T10:40:21.450Z</time>
      </trkpt>
      <trkpt lat="46.38018" lon="8.0425">
        <ele>1911</ele>
        <time>2021-07-10T10:40:22.450Z</time>
      </trkpt>
      <trkpt lat="46.38016" lon="8.04247">
        <ele>1912</ele>
        <time>2021-07-10T10:40:23.449Z</time>
      </trkpt>
      <trkpt lat="46.38014" lon="8.04244">
        <ele>1912</ele>
        <time>2021-07-10T10:40:24.449Z</time>
      </trkpt>
      <trkpt lat="46.38012" lon="8.04242">
        <ele>1913</ele>
        <time>2021-07-10T10:40:25.450Z</time>
      </trkpt>
      <trkpt lat="46.3801" lon="8.0424">
        <ele>1913</ele>
        <time>2021-07-10T10:40:26.450Z</time>
      </trkpt>
      <trkpt lat="46.38009" lon="8.04237">
        <ele>1913</ele>
        <time>2021-07-10T10:40:27.449Z</time>
      </trkpt>
      <trkpt lat="46.38007" lon="8.04235">
        <ele>1913</ele>
        <time>2021-07-10T10:40:28.449Z</time>
      </trkpt>
      <trkpt lat="46.38005" lon="8.04233">
        <ele>1912</ele>
        <time>2021-07-10T10:40:29.450Z</time>
      </trkpt>
      <trkpt lat="46.38003" lon="8.04231">
        <ele>1912</ele>
        <time>2021-07-10T10:40:30.449Z</time>
      </trkpt>
      <trkpt lat="46.38002" lon="8.04229">
        <ele>1911</ele>
        <time>2021-07-10T10:40:31.449Z</time>
      </trkpt>
      <trkpt lat="46.38002" lon="8.04227">
        <ele>1911</ele>
        <time>2021-07-10T10:40:32.450Z</time>
      </trkpt>
      <trkpt lat="46.38002" lon="8.04227">
        <ele>1911</ele>
        <time>2021-07-10T10:40:33.450Z</time>
      </trkpt>
      <trkpt lat="46.38003" lon="8.04226">
        <ele>1911</ele>
        <time>2021-07-10T10:40:34.449Z</time>
      </trkpt>
      <trkpt lat="46.38004" lon="8.04225">
        <ele>1911</ele>
        <time>2021-07-10T10:40:35.449Z</time>
      </trkpt>
      <trkpt lat="46.38005" lon="8.04223">
        <ele>1911</ele>
        <time>2021-07-10T10:40:36.450Z</time>
      </trkpt>
      <trkpt lat="46.38009" lon="8.04223">
        <ele>1911</ele>
        <time>2021-07-10T10:40:37.450Z</time>
      </trkpt>
      <trkpt lat="46.38012" lon="8.04222">
        <ele>1911</ele>
        <time>2021-07-10T10:40:38.449Z</time>
      </trkpt>
      <trkpt lat="46.38013" lon="8.04221">
        <ele>1911</ele>
        <time>2021-07-10T10:40:39.449Z</time>
      </trkpt>
      <trkpt lat="46.38015" lon="8.04219">
        <ele>1911</ele>
        <time>2021-07-10T10:40:40.449Z</time>
      </trkpt>
      <trkpt lat="46.38016" lon="8.04217">
        <ele>1910</ele>
        <time>2021-07-10T10:40:41.450Z</time>
      </trkpt>
      <trkpt lat="46.38016" lon="8.04216">
        <ele>1910</ele>
        <time>2021-07-10T10:40:42.450Z</time>
      </trkpt>
      <trkpt lat="46.38015" lon="8.04215">
        <ele>1910</ele>
        <time>2021-07-10T10:40:43.450Z</time>
      </trkpt>
      <trkpt lat="46.38015" lon="8.04213">
        <ele>1910</ele>
        <time>2021-07-10T10:40:44.449Z</time>
      </trkpt>
      <trkpt lat="46.38015" lon="8.04212">
        <ele>1910</ele>
        <time>2021-07-10T10:40:45.450Z</time>
      </trkpt>
      <trkpt lat="46.38015" lon="8.04211">
        <ele>1910</ele>
        <time>2021-07-10T10:40:46.449Z</time>
      </trkpt>
      <trkpt lat="46.38015" lon="8.04209">
        <ele>1910</ele>
        <time>2021-07-10T10:40:47.450Z</time>
      </trkpt>
      <trkpt lat="46.38016" lon="8.04208">
        <ele>1910</ele>
        <time>2021-07-10T10:40:48.450Z</time>
      </trkpt>
      <trkpt lat="46.38017" lon="8.04206">
        <ele>1911</ele>
        <time>2021-07-10T10:40:49.449Z</time>
      </trkpt>
      <trkpt lat="46.38017" lon="8.04205">
        <ele>1911</ele>
        <time>2021-07-10T10:40:50.450Z</time>
      </trkpt>
      <trkpt lat="46.38017" lon="8.04204">
        <ele>1911</ele>
        <time>2021-07-10T10:40:51.450Z</time>
      </trkpt>
      <trkpt lat="46.38017" lon="8.04202">
        <ele>1911</ele>
        <time>2021-07-10T10:40:52.449Z</time>
      </trkpt>
      <trkpt lat="46.38017" lon="8.04201">
        <ele>1911</ele>
        <time>2021-07-10T10:40:53.450Z</time>
      </trkpt>
      <trkpt lat="46.38017" lon="8.04199">
        <ele>1911</ele>
        <time>2021-07-10T10:40:54.450Z</time>
      </trkpt>
      <trkpt lat="46.38018" lon="8.04198">
        <ele>1911</ele>
        <time>2021-07-10T10:40:55.449Z</time>
      </trkpt>
      <trkpt lat="46.38019" lon="8.04196">
        <ele>1911</ele>
        <time>2021-07-10T10:40:56.450Z</time>
      </trkpt>
      <trkpt lat="46.38019" lon="8.04193">
        <ele>1911</ele>
        <time>2021-07-10T10:40:57.450Z</time>
      </trkpt>
      <trkpt lat="46.3802" lon="8.04192">
        <ele>1912</ele>
        <time>2021-07-10T10:40:58.450Z</time>
      </trkpt>
      <trkpt lat="46.38021" lon="8.0419">
        <ele>1912</ele>
        <time>2021-07-10T10:40:59.450Z</time>
      </trkpt>
      <trkpt lat="46.38021" lon="8.04189">
        <ele>1912</ele>
        <time>2021-07-10T10:41:00.450Z</time>
      </trkpt>
      <trkpt lat="46.38022" lon="8.04187">
        <ele>1912</ele>
        <time>2021-07-10T10:41:01.449Z</time>
      </trkpt>
      <trkpt lat="46.38023" lon="8.04186">
        <ele>1912</ele>
        <time>2021-07-10T10:41:02.449Z</time>
      </trkpt>
      <trkpt lat="46.38025" lon="8.04184">
        <ele>1911</ele>
        <time>2021-07-10T10:41:03.450Z</time>
      </trkpt>
      <trkpt lat="46.38025" lon="8.04182">
        <ele>1911</ele>
        <time>2021-07-10T10:41:04.450Z</time>
      </trkpt>
      <trkpt lat="46.38025" lon="8.0418">
        <ele>1911</ele>
        <time>2021-07-10T10:41:05.450Z</time>
      </trkpt>
      <trkpt lat="46.38026" lon="8.04178">
        <ele>1911</ele>
        <time>2021-07-10T10:41:06.450Z</time>
      </trkpt>
      <trkpt lat="46.38026" lon="8.04176">
        <ele>1910</ele>
        <time>2021-07-10T10:41:07.450Z</time>
      </trkpt>
      <trkpt lat="46.38026" lon="8.04175">
        <ele>1910</ele>
        <time>2021-07-10T10:41:08.450Z</time>
      </trkpt>
      <trkpt lat="46.38026" lon="8.04173">
        <ele>1910</ele>
        <time>2021-07-10T10:41:09.450Z</time>
      </trkpt>
      <trkpt lat="46.38026" lon="8.04171">
        <ele>1910</ele>
        <time>2021-07-10T10:41:10.450Z</time>
      </trkpt>
      <trkpt lat="46.38026" lon="8.0417">
        <ele>1910</ele>
        <time>2021-07-10T10:41:11.449Z</time>
      </trkpt>
      <trkpt lat="46.38026" lon="8.04168">
        <ele>1910</ele>
        <time>2021-07-10T10:41:12.449Z</time>
      </trkpt>
      <trkpt lat="46.38026" lon="8.04166">
        <ele>1909</ele>
        <time>2021-07-10T10:41:13.450Z</time>
      </trkpt>
      <trkpt lat="46.38026" lon="8.04165">
        <ele>1909</ele>
        <time>2021-07-10T10:41:14.450Z</time>
      </trkpt>
      <trkpt lat="46.38026" lon="8.04163">
        <ele>1908</ele>
        <time>2021-07-10T10:41:15.450Z</time>
      </trkpt>
      <trkpt lat="46.38025" lon="8.04161">
        <ele>1907</ele>
        <time>2021-07-10T10:41:16.450Z</time>
      </trkpt>
      <trkpt lat="46.38025" lon="8.0416">
        <ele>1906</ele>
        <time>2021-07-10T10:41:17.449Z</time>
      </trkpt>
      <trkpt lat="46.38025" lon="8.04158">
        <ele>1906</ele>
        <time>2021-07-10T10:41:18.449Z</time>
      </trkpt>
      <trkpt lat="46.38024" lon="8.04157">
        <ele>1906</ele>
        <time>2021-07-10T10:41:19.450Z</time>
      </trkpt>
      <trkpt lat="46.38024" lon="8.04155">
        <ele>1906</ele>
        <time>2021-07-10T10:41:20.449Z</time>
      </trkpt>
      <trkpt lat="46.38024" lon="8.04153">
        <ele>1905</ele>
        <time>2021-07-10T10:41:21.450Z</time>
      </trkpt>
      <trkpt lat="46.38024" lon="8.04152">
        <ele>1905</ele>
        <time>2021-07-10T10:41:22.450Z</time>
      </trkpt>
      <trkpt lat="46.38023" lon="8.0415">
        <ele>1904</ele>
        <time>2021-07-10T10:41:23.450Z</time>
      </trkpt>
      <trkpt lat="46.38023" lon="8.04149">
        <ele>1904</ele>
        <time>2021-07-10T10:41:24.450Z</time>
      </trkpt>
      <trkpt lat="46.38022" lon="8.04147">
        <ele>1904</ele>
        <time>2021-07-10T10:41:25.450Z</time>
      </trkpt>
      <trkpt lat="46.38022" lon="8.04146">
        <ele>1905</ele>
        <time>2021-07-10T10:41:26.450Z</time>
      </trkpt>
      <trkpt lat="46.38021" lon="8.04145">
        <ele>1905</ele>
        <time>2021-07-10T10:41:27.450Z</time>
      </trkpt>
      <trkpt lat="46.3802" lon="8.04144">
        <ele>1905</ele>
        <time>2021-07-10T10:41:28.449Z</time>
      </trkpt>
      <trkpt lat="46.38019" lon="8.04142">
        <ele>1905</ele>
        <time>2021-07-10T10:41:29.450Z</time>
      </trkpt>
      <trkpt lat="46.38018" lon="8.04141">
        <ele>1905</ele>
        <time>2021-07-10T10:41:30.450Z</time>
      </trkpt>
      <trkpt lat="46.38018" lon="8.04139">
        <ele>1905</ele>
        <time>2021-07-10T10:41:31.450Z</time>
      </trkpt>
      <trkpt lat="46.38017" lon="8.04137">
        <ele>1905</ele>
        <time>2021-07-10T10:41:32.450Z</time>
      </trkpt>
      <trkpt lat="46.38016" lon="8.04135">
        <ele>1905</ele>
        <time>2021-07-10T10:41:33.449Z</time>
      </trkpt>
      <trkpt lat="46.38016" lon="8.04133">
        <ele>1905</ele>
        <time>2021-07-10T10:41:34.450Z</time>
      </trkpt>
      <trkpt lat="46.38016" lon="8.0413">
        <ele>1905</ele>
        <time>2021-07-10T10:41:35.450Z</time>
      </trkpt>
      <trkpt lat="46.38016" lon="8.04128">
        <ele>1906</ele>
        <time>2021-07-10T10:41:36.449Z</time>
      </trkpt>
      <trkpt lat="46.38016" lon="8.04126">
        <ele>1906</ele>
        <time>2021-07-10T10:41:37.450Z</time>
      </trkpt>
      <trkpt lat="46.38016" lon="8.04124">
        <ele>1906</ele>
        <time>2021-07-10T10:41:38.450Z</time>
      </trkpt>
      <trkpt lat="46.38015" lon="8.04123">
        <ele>1906</ele>
        <time>2021-07-10T10:41:39.450Z</time>
      </trkpt>
      <trkpt lat="46.38015" lon="8.04121">
        <ele>1906</ele>
        <time>2021-07-10T10:41:40.450Z</time>
      </trkpt>
      <trkpt lat="46.38015" lon="8.04119">
        <ele>1907</ele>
        <time>2021-07-10T10:41:41.450Z</time>
      </trkpt>
      <trkpt lat="46.38015" lon="8.04118">
        <ele>1907</ele>
        <time>2021-07-10T10:41:42.450Z</time>
      </trkpt>
      <trkpt lat="46.38015" lon="8.04117">
        <ele>1907</ele>
        <time>2021-07-10T10:41:43.449Z</time>
      </trkpt>
      <trkpt lat="46.38015" lon="8.04115">
        <ele>1907</ele>
        <time>2021-07-10T10:41:44.449Z</time>
      </trkpt>
      <trkpt lat="46.38015" lon="8.04114">
        <ele>1907</ele>
        <time>2021-07-10T10:41:45.449Z</time>
      </trkpt>
      <trkpt lat="46.38016" lon="8.04112">
        <ele>1907</ele>
        <time>2021-07-10T10:41:46.450Z</time>
      </trkpt>
      <trkpt lat="46.38016" lon="8.0411">
        <ele>1907</ele>
        <time>2021-07-10T10:41:47.450Z</time>
      </trkpt>
      <trkpt lat="46.38016" lon="8.04109">
        <ele>1907</ele>
        <time>2021-07-10T10:41:48.450Z</time>
      </trkpt>
      <trkpt lat="46.38016" lon="8.04108">
        <ele>1908</ele>
        <time>2021-07-10T10:41:49.449Z</time>
      </trkpt>
      <trkpt lat="46.38016" lon="8.04106">
        <ele>1908</ele>
        <time>2021-07-10T10:41:50.449Z</time>
      </trkpt>
      <trkpt lat="46.38017" lon="8.04105">
        <ele>1908</ele>
        <time>2021-07-10T10:41:51.450Z</time>
      </trkpt>
      <trkpt lat="46.38017" lon="8.04103">
        <ele>1908</ele>
        <time>2021-07-10T10:41:52.449Z</time>
      </trkpt>
      <trkpt lat="46.38017" lon="8.04102">
        <ele>1908</ele>
        <time>2021-07-10T10:41:53.450Z</time>
      </trkpt>
      <trkpt lat="46.38017" lon="8.041">
        <ele>1908</ele>
        <time>2021-07-10T10:41:54.450Z</time>
      </trkpt>
      <trkpt lat="46.38017" lon="8.04098">
        <ele>1908</ele>
        <time>2021-07-10T10:41:55.450Z</time>
      </trkpt>
      <trkpt lat="46.38017" lon="8.04097">
        <ele>1907</ele>
        <time>2021-07-10T10:41:56.449Z</time>
      </trkpt>
      <trkpt lat="46.38018" lon="8.04095">
        <ele>1906</ele>
        <time>2021-07-10T10:41:57.450Z</time>
      </trkpt>
      <trkpt lat="46.38019" lon="8.04094">
        <ele>1905</ele>
        <time>2021-07-10T10:41:58.450Z</time>
      </trkpt>
      <trkpt lat="46.38019" lon="8.04092">
        <ele>1904</ele>
        <time>2021-07-10T10:41:59.450Z</time>
      </trkpt>
      <trkpt lat="46.38019" lon="8.0409">
        <ele>1904</ele>
        <time>2021-07-10T10:42:00.450Z</time>
      </trkpt>
      <trkpt lat="46.3802" lon="8.04089">
        <ele>1903</ele>
        <time>2021-07-10T10:42:01.449Z</time>
      </trkpt>
      <trkpt lat="46.3802" lon="8.04087">
        <ele>1903</ele>
        <time>2021-07-10T10:42:02.450Z</time>
      </trkpt>
      <trkpt lat="46.38021" lon="8.04086">
        <ele>1903</ele>
        <time>2021-07-10T10:42:03.450Z</time>
      </trkpt>
      <trkpt lat="46.38021" lon="8.04084">
        <ele>1903</ele>
        <time>2021-07-10T10:42:04.449Z</time>
      </trkpt>
      <trkpt lat="46.38022" lon="8.04082">
        <ele>1903</ele>
        <time>2021-07-10T10:42:05.449Z</time>
      </trkpt>
      <trkpt lat="46.38022" lon="8.04081">
        <ele>1904</ele>
        <time>2021-07-10T10:42:06.449Z</time>
      </trkpt>
      <trkpt lat="46.38023" lon="8.04079">
        <ele>1904</ele>
        <time>2021-07-10T10:42:07.450Z</time>
      </trkpt>
      <trkpt lat="46.38023" lon="8.04077">
        <ele>1904</ele>
        <time>2021-07-10T10:42:08.450Z</time>
      </trkpt>
      <trkpt lat="46.38024" lon="8.04076">
        <ele>1903</ele>
        <time>2021-07-10T10:42:09.449Z</time>
      </trkpt>
      <trkpt lat="46.38024" lon="8.04075">
        <ele>1903</ele>
        <time>2021-07-10T10:42:10.449Z</time>
      </trkpt>
      <trkpt lat="46.38025" lon="8.04074">
        <ele>1903</ele>
        <time>2021-07-10T10:42:11.450Z</time>
      </trkpt>
      <trkpt lat="46.38026" lon="8.04073">
        <ele>1903</ele>
        <time>2021-07-10T10:42:12.450Z</time>
      </trkpt>
      <trkpt lat="46.38026" lon="8.04072">
        <ele>1903</ele>
        <time>2021-07-10T10:42:13.450Z</time>
      </trkpt>
      <trkpt lat="46.38027" lon="8.04071">
        <ele>1903</ele>
        <time>2021-07-10T10:42:14.450Z</time>
      </trkpt>
      <trkpt lat="46.38029" lon="8.0407">
        <ele>1903</ele>
        <time>2021-07-10T10:42:15.450Z</time>
      </trkpt>
      <trkpt lat="46.3803" lon="8.04069">
        <ele>1903</ele>
        <time>2021-07-10T10:42:16.450Z</time>
      </trkpt>
      <trkpt lat="46.38031" lon="8.04069">
        <ele>1902</ele>
        <time>2021-07-10T10:42:17.450Z</time>
      </trkpt>
      <trkpt lat="46.38032" lon="8.04068">
        <ele>1902</ele>
        <time>2021-07-10T10:42:18.449Z</time>
      </trkpt>
      <trkpt lat="46.38033" lon="8.04068">
        <ele>1902</ele>
        <time>2021-07-10T10:42:19.450Z</time>
      </trkpt>
      <trkpt lat="46.38033" lon="8.04067">
        <ele>1901</ele>
        <time>2021-07-10T10:42:20.450Z</time>
      </trkpt>
      <trkpt lat="46.38034" lon="8.04066">
        <ele>1901</ele>
        <time>2021-07-10T10:42:21.450Z</time>
      </trkpt>
      <trkpt lat="46.38035" lon="8.04066">
        <ele>1901</ele>
        <time>2021-07-10T10:42:22.450Z</time>
      </trkpt>
      <trkpt lat="46.38035" lon="8.04065">
        <ele>1901</ele>
        <time>2021-07-10T10:42:23.450Z</time>
      </trkpt>
      <trkpt lat="46.38036" lon="8.04063">
        <ele>1901</ele>
        <time>2021-07-10T10:42:24.450Z</time>
      </trkpt>
      <trkpt lat="46.38036" lon="8.04061">
        <ele>1901</ele>
        <time>2021-07-10T10:42:25.450Z</time>
      </trkpt>
      <trkpt lat="46.38037" lon="8.0406">
        <ele>1901</ele>
        <time>2021-07-10T10:42:26.449Z</time>
      </trkpt>
      <trkpt lat="46.38037" lon="8.04058">
        <ele>1900</ele>
        <time>2021-07-10T10:42:27.450Z</time>
      </trkpt>
      <trkpt lat="46.38038" lon="8.04057">
        <ele>1900</ele>
        <time>2021-07-10T10:42:28.450Z</time>
      </trkpt>
      <trkpt lat="46.38038" lon="8.04055">
        <ele>1900</ele>
        <time>2021-07-10T10:42:29.449Z</time>
      </trkpt>
      <trkpt lat="46.38038" lon="8.04053">
        <ele>1900</ele>
        <time>2021-07-10T10:42:30.450Z</time>
      </trkpt>
      <trkpt lat="46.38038" lon="8.04051">
        <ele>1899</ele>
        <time>2021-07-10T10:42:31.450Z</time>
      </trkpt>
      <trkpt lat="46.38037" lon="8.0405">
        <ele>1899</ele>
        <time>2021-07-10T10:42:32.449Z</time>
      </trkpt>
      <trkpt lat="46.38037" lon="8.04048">
        <ele>1900</ele>
        <time>2021-07-10T10:42:33.450Z</time>
      </trkpt>
      <trkpt lat="46.38036" lon="8.04047">
        <ele>1900</ele>
        <time>2021-07-10T10:42:34.450Z</time>
      </trkpt>
      <trkpt lat="46.38036" lon="8.04045">
        <ele>1900</ele>
        <time>2021-07-10T10:42:35.450Z</time>
      </trkpt>
      <trkpt lat="46.38036" lon="8.04044">
        <ele>1900</ele>
        <time>2021-07-10T10:42:36.450Z</time>
      </trkpt>
      <trkpt lat="46.38035" lon="8.04042">
        <ele>1901</ele>
        <time>2021-07-10T10:42:37.449Z</time>
      </trkpt>
      <trkpt lat="46.38036" lon="8.04041">
        <ele>1901</ele>
        <time>2021-07-10T10:42:38.450Z</time>
      </trkpt>
      <trkpt lat="46.38035" lon="8.04039">
        <ele>1900</ele>
        <time>2021-07-10T10:42:39.450Z</time>
      </trkpt>
      <trkpt lat="46.38035" lon="8.04037">
        <ele>1900</ele>
        <time>2021-07-10T10:42:40.450Z</time>
      </trkpt>
      <trkpt lat="46.38034" lon="8.04036">
        <ele>1900</ele>
        <time>2021-07-10T10:42:41.450Z</time>
      </trkpt>
      <trkpt lat="46.38034" lon="8.04036">
        <ele>1900</ele>
        <time>2021-07-10T10:42:42.449Z</time>
      </trkpt>
      <trkpt lat="46.38034" lon="8.04036">
        <ele>1900</ele>
        <time>2021-07-10T10:42:43.450Z</time>
      </trkpt>
      <trkpt lat="46.38034" lon="8.04037">
        <ele>1900</ele>
        <time>2021-07-10T10:42:44.450Z</time>
      </trkpt>
      <trkpt lat="46.38033" lon="8.04037">
        <ele>1900</ele>
        <time>2021-07-10T10:42:45.450Z</time>
      </trkpt>
      <trkpt lat="46.38033" lon="8.04038">
        <ele>1900</ele>
        <time>2021-07-10T10:42:46.450Z</time>
      </trkpt>
      <trkpt lat="46.38033" lon="8.04039">
        <ele>1899</ele>
        <time>2021-07-10T10:42:47.449Z</time>
      </trkpt>
      <trkpt lat="46.38033" lon="8.04039">
        <ele>1898</ele>
        <time>2021-07-10T10:42:48.450Z</time>
      </trkpt>
      <trkpt lat="46.38033" lon="8.04038">
        <ele>1895</ele>
        <time>2021-07-10T10:42:49.450Z</time>
      </trkpt>
      <trkpt lat="46.38033" lon="8.04038">
        <ele>1894</ele>
        <time>2021-07-10T10:42:50.450Z</time>
      </trkpt>
      <trkpt lat="46.38032" lon="8.04036">
        <ele>1895</ele>
        <time>2021-07-10T10:42:51.450Z</time>
      </trkpt>
      <trkpt lat="46.38031" lon="8.04034">
        <ele>1895</ele>
        <time>2021-07-10T10:42:52.450Z</time>
      </trkpt>
      <trkpt lat="46.3803" lon="8.04033">
        <ele>1895</ele>
        <time>2021-07-10T10:42:53.450Z</time>
      </trkpt>
      <trkpt lat="46.38029" lon="8.04031">
        <ele>1895</ele>
        <time>2021-07-10T10:42:54.450Z</time>
      </trkpt>
      <trkpt lat="46.38029" lon="8.0403">
        <ele>1895</ele>
        <time>2021-07-10T10:42:55.450Z</time>
      </trkpt>
      <trkpt lat="46.38028" lon="8.04029">
        <ele>1895</ele>
        <time>2021-07-10T10:42:56.450Z</time>
      </trkpt>
      <trkpt lat="46.38028" lon="8.04028">
        <ele>1895</ele>
        <time>2021-07-10T10:42:57.450Z</time>
      </trkpt>
      <trkpt lat="46.38027" lon="8.04027">
        <ele>1895</ele>
        <time>2021-07-10T10:42:58.450Z</time>
      </trkpt>
      <trkpt lat="46.38027" lon="8.04026">
        <ele>1895</ele>
        <time>2021-07-10T10:42:59.450Z</time>
      </trkpt>
      <trkpt lat="46.38026" lon="8.04024">
        <ele>1895</ele>
        <time>2021-07-10T10:43:00.450Z</time>
      </trkpt>
      <trkpt lat="46.38025" lon="8.04023">
        <ele>1896</ele>
        <time>2021-07-10T10:43:01.450Z</time>
      </trkpt>
      <trkpt lat="46.38025" lon="8.04022">
        <ele>1896</ele>
        <time>2021-07-10T10:43:02.450Z</time>
      </trkpt>
      <trkpt lat="46.38024" lon="8.0402">
        <ele>1896</ele>
        <time>2021-07-10T10:43:03.450Z</time>
      </trkpt>
      <trkpt lat="46.38023" lon="8.04018">
        <ele>1896</ele>
        <time>2021-07-10T10:43:04.450Z</time>
      </trkpt>
      <trkpt lat="46.38023" lon="8.04017">
        <ele>1896</ele>
        <time>2021-07-10T10:43:05.450Z</time>
      </trkpt>
      <trkpt lat="46.38022" lon="8.04015">
        <ele>1896</ele>
        <time>2021-07-10T10:43:06.450Z</time>
      </trkpt>
      <trkpt lat="46.38022" lon="8.04013">
        <ele>1896</ele>
        <time>2021-07-10T10:43:07.450Z</time>
      </trkpt>
      <trkpt lat="46.38021" lon="8.04011">
        <ele>1896</ele>
        <time>2021-07-10T10:43:08.450Z</time>
      </trkpt>
      <trkpt lat="46.38021" lon="8.04009">
        <ele>1896</ele>
        <time>2021-07-10T10:43:09.450Z</time>
      </trkpt>
      <trkpt lat="46.3802" lon="8.04008">
        <ele>1896</ele>
        <time>2021-07-10T10:43:10.450Z</time>
      </trkpt>
      <trkpt lat="46.3802" lon="8.04006">
        <ele>1896</ele>
        <time>2021-07-10T10:43:11.450Z</time>
      </trkpt>
      <trkpt lat="46.3802" lon="8.04005">
        <ele>1896</ele>
        <time>2021-07-10T10:43:12.450Z</time>
      </trkpt>
      <trkpt lat="46.3802" lon="8.04003">
        <ele>1896</ele>
        <time>2021-07-10T10:43:13.451Z</time>
      </trkpt>
      <trkpt lat="46.3802" lon="8.04002">
        <ele>1896</ele>
        <time>2021-07-10T10:43:14.450Z</time>
      </trkpt>
      <trkpt lat="46.3802" lon="8.04">
        <ele>1897</ele>
        <time>2021-07-10T10:43:15.450Z</time>
      </trkpt>
      <trkpt lat="46.3802" lon="8.03998">
        <ele>1897</ele>
        <time>2021-07-10T10:43:16.451Z</time>
      </trkpt>
      <trkpt lat="46.38021" lon="8.03997">
        <ele>1896</ele>
        <time>2021-07-10T10:43:17.450Z</time>
      </trkpt>
      <trkpt lat="46.38021" lon="8.03995">
        <ele>1896</ele>
        <time>2021-07-10T10:43:18.450Z</time>
      </trkpt>
      <trkpt lat="46.38022" lon="8.03993">
        <ele>1896</ele>
        <time>2021-07-10T10:43:19.450Z</time>
      </trkpt>
      <trkpt lat="46.38022" lon="8.03991">
        <ele>1896</ele>
        <time>2021-07-10T10:43:20.450Z</time>
      </trkpt>
      <trkpt lat="46.38022" lon="8.0399">
        <ele>1895</ele>
        <time>2021-07-10T10:43:21.450Z</time>
      </trkpt>
      <trkpt lat="46.38023" lon="8.03988">
        <ele>1895</ele>
        <time>2021-07-10T10:43:22.450Z</time>
      </trkpt>
      <trkpt lat="46.38023" lon="8.03987">
        <ele>1895</ele>
        <time>2021-07-10T10:43:23.450Z</time>
      </trkpt>
      <trkpt lat="46.38023" lon="8.03985">
        <ele>1895</ele>
        <time>2021-07-10T10:43:24.451Z</time>
      </trkpt>
      <trkpt lat="46.38024" lon="8.03984">
        <ele>1895</ele>
        <time>2021-07-10T10:43:25.451Z</time>
      </trkpt>
      <trkpt lat="46.38024" lon="8.03983">
        <ele>1895</ele>
        <time>2021-07-10T10:43:26.450Z</time>
      </trkpt>
      <trkpt lat="46.38024" lon="8.03981">
        <ele>1895</ele>
        <time>2021-07-10T10:43:27.450Z</time>
      </trkpt>
      <trkpt lat="46.38025" lon="8.0398">
        <ele>1895</ele>
        <time>2021-07-10T10:43:28.450Z</time>
      </trkpt>
      <trkpt lat="46.38025" lon="8.03978">
        <ele>1895</ele>
        <time>2021-07-10T10:43:29.450Z</time>
      </trkpt>
      <trkpt lat="46.38025" lon="8.03976">
        <ele>1894</ele>
        <time>2021-07-10T10:43:30.451Z</time>
      </trkpt>
      <trkpt lat="46.38026" lon="8.03975">
        <ele>1894</ele>
        <time>2021-07-10T10:43:31.450Z</time>
      </trkpt>
      <trkpt lat="46.38026" lon="8.03973">
        <ele>1894</ele>
        <time>2021-07-10T10:43:32.450Z</time>
      </trkpt>
      <trkpt lat="46.38027" lon="8.03971">
        <ele>1894</ele>
        <time>2021-07-10T10:43:33.451Z</time>
      </trkpt>
      <trkpt lat="46.38027" lon="8.03969">
        <ele>1894</ele>
        <time>2021-07-10T10:43:34.450Z</time>
      </trkpt>
      <trkpt lat="46.38028" lon="8.03967">
        <ele>1895</ele>
        <time>2021-07-10T10:43:35.450Z</time>
      </trkpt>
      <trkpt lat="46.38027" lon="8.03966">
        <ele>1895</ele>
        <time>2021-07-10T10:43:36.450Z</time>
      </trkpt>
      <trkpt lat="46.38028" lon="8.03964">
        <ele>1895</ele>
        <time>2021-07-10T10:43:37.450Z</time>
      </trkpt>
      <trkpt lat="46.38028" lon="8.03962">
        <ele>1895</ele>
        <time>2021-07-10T10:43:38.450Z</time>
      </trkpt>
      <trkpt lat="46.38029" lon="8.03961">
        <ele>1895</ele>
        <time>2021-07-10T10:43:39.450Z</time>
      </trkpt>
      <trkpt lat="46.38029" lon="8.0396">
        <ele>1895</ele>
        <time>2021-07-10T10:43:40.450Z</time>
      </trkpt>
      <trkpt lat="46.3803" lon="8.03959">
        <ele>1895</ele>
        <time>2021-07-10T10:43:41.450Z</time>
      </trkpt>
      <trkpt lat="46.38031" lon="8.03957">
        <ele>1895</ele>
        <time>2021-07-10T10:43:42.450Z</time>
      </trkpt>
      <trkpt lat="46.38031" lon="8.03956">
        <ele>1895</ele>
        <time>2021-07-10T10:43:43.451Z</time>
      </trkpt>
      <trkpt lat="46.38032" lon="8.03955">
        <ele>1894</ele>
        <time>2021-07-10T10:43:44.450Z</time>
      </trkpt>
      <trkpt lat="46.38033" lon="8.03954">
        <ele>1894</ele>
        <time>2021-07-10T10:43:45.450Z</time>
      </trkpt>
      <trkpt lat="46.38034" lon="8.03953">
        <ele>1893</ele>
        <time>2021-07-10T10:43:46.450Z</time>
      </trkpt>
      <trkpt lat="46.38034" lon="8.03952">
        <ele>1893</ele>
        <time>2021-07-10T10:43:47.450Z</time>
      </trkpt>
      <trkpt lat="46.38035" lon="8.03952">
        <ele>1893</ele>
        <time>2021-07-10T10:43:48.450Z</time>
      </trkpt>
      <trkpt lat="46.38036" lon="8.03952">
        <ele>1893</ele>
        <time>2021-07-10T10:43:49.450Z</time>
      </trkpt>
      <trkpt lat="46.38037" lon="8.03952">
        <ele>1893</ele>
        <time>2021-07-10T10:43:50.450Z</time>
      </trkpt>
      <trkpt lat="46.38039" lon="8.03951">
        <ele>1893</ele>
        <time>2021-07-10T10:43:51.451Z</time>
      </trkpt>
      <trkpt lat="46.3804" lon="8.03951">
        <ele>1893</ele>
        <time>2021-07-10T10:43:52.450Z</time>
      </trkpt>
      <trkpt lat="46.38041" lon="8.0395">
        <ele>1893</ele>
        <time>2021-07-10T10:43:53.451Z</time>
      </trkpt>
      <trkpt lat="46.38042" lon="8.0395">
        <ele>1892</ele>
        <time>2021-07-10T10:43:54.450Z</time>
      </trkpt>
      <trkpt lat="46.38043" lon="8.0395">
        <ele>1892</ele>
        <time>2021-07-10T10:43:55.450Z</time>
      </trkpt>
      <trkpt lat="46.38044" lon="8.0395">
        <ele>1891</ele>
        <time>2021-07-10T10:43:56.450Z</time>
      </trkpt>
      <trkpt lat="46.38045" lon="8.03951">
        <ele>1891</ele>
        <time>2021-07-10T10:43:57.450Z</time>
      </trkpt>
      <trkpt lat="46.38046" lon="8.03951">
        <ele>1891</ele>
        <time>2021-07-10T10:43:58.450Z</time>
      </trkpt>
      <trkpt lat="46.38048" lon="8.03951">
        <ele>1890</ele>
        <time>2021-07-10T10:43:59.451Z</time>
      </trkpt>
      <trkpt lat="46.38049" lon="8.03951">
        <ele>1890</ele>
        <time>2021-07-10T10:44:00.450Z</time>
      </trkpt>
      <trkpt lat="46.3805" lon="8.03951">
        <ele>1890</ele>
        <time>2021-07-10T10:44:01.450Z</time>
      </trkpt>
      <trkpt lat="46.38052" lon="8.03951">
        <ele>1891</ele>
        <time>2021-07-10T10:44:02.451Z</time>
      </trkpt>
      <trkpt lat="46.38053" lon="8.03951">
        <ele>1891</ele>
        <time>2021-07-10T10:44:03.450Z</time>
      </trkpt>
      <trkpt lat="46.38054" lon="8.03951">
        <ele>1891</ele>
        <time>2021-07-10T10:44:04.451Z</time>
      </trkpt>
      <trkpt lat="46.38055" lon="8.03951">
        <ele>1891</ele>
        <time>2021-07-10T10:44:05.451Z</time>
      </trkpt>
      <trkpt lat="46.38056" lon="8.03952">
        <ele>1890</ele>
        <time>2021-07-10T10:44:06.450Z</time>
      </trkpt>
      <trkpt lat="46.38057" lon="8.03952">
        <ele>1890</ele>
        <time>2021-07-10T10:44:07.450Z</time>
      </trkpt>
      <trkpt lat="46.38058" lon="8.03952">
        <ele>1890</ele>
        <time>2021-07-10T10:44:08.450Z</time>
      </trkpt>
      <trkpt lat="46.38059" lon="8.03952">
        <ele>1889</ele>
        <time>2021-07-10T10:44:09.450Z</time>
      </trkpt>
      <trkpt lat="46.3806" lon="8.03952">
        <ele>1889</ele>
        <time>2021-07-10T10:44:10.451Z</time>
      </trkpt>
      <trkpt lat="46.38061" lon="8.03952">
        <ele>1889</ele>
        <time>2021-07-10T10:44:11.450Z</time>
      </trkpt>
      <trkpt lat="46.38062" lon="8.03953">
        <ele>1889</ele>
        <time>2021-07-10T10:44:12.450Z</time>
      </trkpt>
      <trkpt lat="46.38063" lon="8.03954">
        <ele>1889</ele>
        <time>2021-07-10T10:44:13.450Z</time>
      </trkpt>
      <trkpt lat="46.38064" lon="8.03954">
        <ele>1888</ele>
        <time>2021-07-10T10:44:14.450Z</time>
      </trkpt>
      <trkpt lat="46.38065" lon="8.03955">
        <ele>1888</ele>
        <time>2021-07-10T10:44:15.451Z</time>
      </trkpt>
      <trkpt lat="46.38066" lon="8.03955">
        <ele>1887</ele>
        <time>2021-07-10T10:44:16.451Z</time>
      </trkpt>
      <trkpt lat="46.38067" lon="8.03956">
        <ele>1886</ele>
        <time>2021-07-10T10:44:17.451Z</time>
      </trkpt>
      <trkpt lat="46.38069" lon="8.03956">
        <ele>1886</ele>
        <time>2021-07-10T10:44:18.450Z</time>
      </trkpt>
      <trkpt lat="46.3807" lon="8.03957">
        <ele>1885</ele>
        <time>2021-07-10T10:44:19.450Z</time>
      </trkpt>
      <trkpt lat="46.38071" lon="8.03957">
        <ele>1885</ele>
        <time>2021-07-10T10:44:20.450Z</time>
      </trkpt>
      <trkpt lat="46.38072" lon="8.03957">
        <ele>1885</ele>
        <time>2021-07-10T10:44:21.450Z</time>
      </trkpt>
      <trkpt lat="46.38073" lon="8.03957">
        <ele>1885</ele>
        <time>2021-07-10T10:44:22.450Z</time>
      </trkpt>
      <trkpt lat="46.38074" lon="8.03957">
        <ele>1885</ele>
        <time>2021-07-10T10:44:23.451Z</time>
      </trkpt>
      <trkpt lat="46.38075" lon="8.03957">
        <ele>1885</ele>
        <time>2021-07-10T10:44:24.450Z</time>
      </trkpt>
      <trkpt lat="46.38076" lon="8.03957">
        <ele>1886</ele>
        <time>2021-07-10T10:44:25.450Z</time>
      </trkpt>
      <trkpt lat="46.38077" lon="8.03956">
        <ele>1886</ele>
        <time>2021-07-10T10:44:26.451Z</time>
      </trkpt>
      <trkpt lat="46.38078" lon="8.03956">
        <ele>1886</ele>
        <time>2021-07-10T10:44:27.450Z</time>
      </trkpt>
      <trkpt lat="46.38079" lon="8.03955">
        <ele>1886</ele>
        <time>2021-07-10T10:44:28.450Z</time>
      </trkpt>
      <trkpt lat="46.3808" lon="8.03955">
        <ele>1886</ele>
        <time>2021-07-10T10:44:29.451Z</time>
      </trkpt>
      <trkpt lat="46.3808" lon="8.03955">
        <ele>1886</ele>
        <time>2021-07-10T10:44:30.450Z</time>
      </trkpt>
      <trkpt lat="46.38081" lon="8.03954">
        <ele>1886</ele>
        <time>2021-07-10T10:44:31.450Z</time>
      </trkpt>
      <trkpt lat="46.38082" lon="8.03954">
        <ele>1887</ele>
        <time>2021-07-10T10:44:32.450Z</time>
      </trkpt>
      <trkpt lat="46.38083" lon="8.03955">
        <ele>1887</ele>
        <time>2021-07-10T10:44:33.450Z</time>
      </trkpt>
      <trkpt lat="46.38084" lon="8.03955">
        <ele>1887</ele>
        <time>2021-07-10T10:44:34.450Z</time>
      </trkpt>
      <trkpt lat="46.38084" lon="8.03957">
        <ele>1887</ele>
        <time>2021-07-10T10:44:35.450Z</time>
      </trkpt>
      <trkpt lat="46.38085" lon="8.03958">
        <ele>1887</ele>
        <time>2021-07-10T10:44:36.451Z</time>
      </trkpt>
      <trkpt lat="46.38086" lon="8.03959">
        <ele>1887</ele>
        <time>2021-07-10T10:44:37.451Z</time>
      </trkpt>
      <trkpt lat="46.38087" lon="8.03959">
        <ele>1887</ele>
        <time>2021-07-10T10:44:38.451Z</time>
      </trkpt>
      <trkpt lat="46.38086" lon="8.0396">
        <ele>1886</ele>
        <time>2021-07-10T10:44:39.450Z</time>
      </trkpt>
      <trkpt lat="46.38086" lon="8.0396">
        <ele>1886</ele>
        <time>2021-07-10T10:44:40.450Z</time>
      </trkpt>
      <trkpt lat="46.38087" lon="8.03961">
        <ele>1886</ele>
        <time>2021-07-10T10:44:41.450Z</time>
      </trkpt>
      <trkpt lat="46.38087" lon="8.03961">
        <ele>1886</ele>
        <time>2021-07-10T10:44:42.451Z</time>
      </trkpt>
      <trkpt lat="46.38087" lon="8.0396">
        <ele>1886</ele>
        <time>2021-07-10T10:44:43.450Z</time>
      </trkpt>
      <trkpt lat="46.38087" lon="8.0396">
        <ele>1887</ele>
        <time>2021-07-10T10:44:44.451Z</time>
      </trkpt>
      <trkpt lat="46.38087" lon="8.0396">
        <ele>1887</ele>
        <time>2021-07-10T10:44:45.451Z</time>
      </trkpt>
      <trkpt lat="46.38087" lon="8.03959">
        <ele>1887</ele>
        <time>2021-07-10T10:44:46.451Z</time>
      </trkpt>
      <trkpt lat="46.38088" lon="8.03957">
        <ele>1887</ele>
        <time>2021-07-10T10:44:47.451Z</time>
      </trkpt>
      <trkpt lat="46.38088" lon="8.03956">
        <ele>1888</ele>
        <time>2021-07-10T10:44:48.452Z</time>
      </trkpt>
      <trkpt lat="46.38088" lon="8.03956">
        <ele>1889</ele>
        <time>2021-07-10T10:44:49.451Z</time>
      </trkpt>
      <trkpt lat="46.38089" lon="8.03955">
        <ele>1889</ele>
        <time>2021-07-10T10:44:50.451Z</time>
      </trkpt>
      <trkpt lat="46.3809" lon="8.03955">
        <ele>1890</ele>
        <time>2021-07-10T10:44:51.452Z</time>
      </trkpt>
      <trkpt lat="46.38091" lon="8.03954">
        <ele>1891</ele>
        <time>2021-07-10T10:44:52.452Z</time>
      </trkpt>
      <trkpt lat="46.38092" lon="8.03952">
        <ele>1893</ele>
        <time>2021-07-10T10:44:53.452Z</time>
      </trkpt>
      <trkpt lat="46.38093" lon="8.03951">
        <ele>1894</ele>
        <time>2021-07-10T10:44:54.452Z</time>
      </trkpt>
      <trkpt lat="46.38093" lon="8.0395">
        <ele>1895</ele>
        <time>2021-07-10T10:44:55.452Z</time>
      </trkpt>
      <trkpt lat="46.38093" lon="8.0395">
        <ele>1896</ele>
        <time>2021-07-10T10:44:56.452Z</time>
      </trkpt>
      <trkpt lat="46.38093" lon="8.03949">
        <ele>1897</ele>
        <time>2021-07-10T10:44:57.452Z</time>
      </trkpt>
      <trkpt lat="46.38094" lon="8.03948">
        <ele>1898</ele>
        <time>2021-07-10T10:44:58.452Z</time>
      </trkpt>
      <trkpt lat="46.38095" lon="8.03947">
        <ele>1900</ele>
        <time>2021-07-10T10:44:59.452Z</time>
      </trkpt>
      <trkpt lat="46.38095" lon="8.03947">
        <ele>1901</ele>
        <time>2021-07-10T10:45:00.452Z</time>
      </trkpt>
      <trkpt lat="46.38095" lon="8.03947">
        <ele>1902</ele>
        <time>2021-07-10T10:45:01.452Z</time>
      </trkpt>
      <trkpt lat="46.38097" lon="8.03945">
        <ele>1908</ele>
        <time>2021-07-10T10:45:02.453Z</time>
      </trkpt>
      <trkpt lat="46.38097" lon="8.03945">
        <ele>1909</ele>
        <time>2021-07-10T10:45:03.452Z</time>
      </trkpt>
      <trkpt lat="46.38097" lon="8.03944">
        <ele>1911</ele>
        <time>2021-07-10T10:45:04.453Z</time>
      </trkpt>
      <trkpt lat="46.38097" lon="8.03943">
        <ele>1912</ele>
        <time>2021-07-10T10:45:05.452Z</time>
      </trkpt>
      <trkpt lat="46.38096" lon="8.03934">
        <ele>1925</ele>
        <time>2021-07-10T10:45:06.453Z</time>
      </trkpt>
      <trkpt lat="46.38096" lon="8.03933">
        <ele>1926</ele>
        <time>2021-07-10T10:45:07.452Z</time>
      </trkpt>
      <trkpt lat="46.38096" lon="8.03932">
        <ele>1927</ele>
        <time>2021-07-10T10:45:08.453Z</time>
      </trkpt>
      <trkpt lat="46.38103" lon="8.03932">
        <ele>1933</ele>
        <time>2021-07-10T10:45:09.454Z</time>
      </trkpt>
      <trkpt lat="46.38103" lon="8.03932">
        <ele>1934</ele>
        <time>2021-07-10T10:45:10.454Z</time>
      </trkpt>
      <trkpt lat="46.38103" lon="8.03931">
        <ele>1934</ele>
        <time>2021-07-10T10:45:11.453Z</time>
      </trkpt>
      <trkpt lat="46.38103" lon="8.03931">
        <ele>1934</ele>
        <time>2021-07-10T10:45:12.454Z</time>
      </trkpt>
      <trkpt lat="46.38103" lon="8.0393">
        <ele>1935</ele>
        <time>2021-07-10T10:45:13.453Z</time>
      </trkpt>
      <trkpt lat="46.38102" lon="8.0393">
        <ele>1936</ele>
        <time>2021-07-10T10:45:14.453Z</time>
      </trkpt>
      <trkpt lat="46.38102" lon="8.03929">
        <ele>1937</ele>
        <time>2021-07-10T10:45:15.454Z</time>
      </trkpt>
      <trkpt lat="46.38102" lon="8.03928">
        <ele>1938</ele>
        <time>2021-07-10T10:45:16.454Z</time>
      </trkpt>
      <trkpt lat="46.38102" lon="8.03927">
        <ele>1939</ele>
        <time>2021-07-10T10:45:17.453Z</time>
      </trkpt>
      <trkpt lat="46.38102" lon="8.03927">
        <ele>1940</ele>
        <time>2021-07-10T10:45:18.453Z</time>
      </trkpt>
      <trkpt lat="46.38108" lon="8.03927">
        <ele>1943</ele>
        <time>2021-07-10T10:45:19.456Z</time>
      </trkpt>
      <trkpt lat="46.3811" lon="8.03928">
        <ele>1943</ele>
        <time>2021-07-10T10:45:20.456Z</time>
      </trkpt>
      <trkpt lat="46.3811" lon="8.03927">
        <ele>1943</ele>
        <time>2021-07-10T10:45:21.455Z</time>
      </trkpt>
      <trkpt lat="46.38111" lon="8.03927">
        <ele>1944</ele>
        <time>2021-07-10T10:45:22.456Z</time>
      </trkpt>
      <trkpt lat="46.38111" lon="8.03927">
        <ele>1944</ele>
        <time>2021-07-10T10:45:23.455Z</time>
      </trkpt>
      <trkpt lat="46.38111" lon="8.03926">
        <ele>1944</ele>
        <time>2021-07-10T10:45:24.456Z</time>
      </trkpt>
      <trkpt lat="46.38111" lon="8.03924">
        <ele>1944</ele>
        <time>2021-07-10T10:45:25.456Z</time>
      </trkpt>
      <trkpt lat="46.3811" lon="8.03923">
        <ele>1944</ele>
        <time>2021-07-10T10:45:26.456Z</time>
      </trkpt>
      <trkpt lat="46.3811" lon="8.03922">
        <ele>1944</ele>
        <time>2021-07-10T10:45:27.456Z</time>
      </trkpt>
      <trkpt lat="46.3811" lon="8.03922">
        <ele>1943</ele>
        <time>2021-07-10T10:45:28.456Z</time>
      </trkpt>
      <trkpt lat="46.3811" lon="8.03922">
        <ele>1943</ele>
        <time>2021-07-10T10:45:29.456Z</time>
      </trkpt>
      <trkpt lat="46.3811" lon="8.03921">
        <ele>1942</ele>
        <time>2021-07-10T10:45:30.455Z</time>
      </trkpt>
      <trkpt lat="46.3811" lon="8.03921">
        <ele>1942</ele>
        <time>2021-07-10T10:45:31.455Z</time>
      </trkpt>
      <trkpt lat="46.38108" lon="8.03919">
        <ele>1941</ele>
        <time>2021-07-10T10:45:32.455Z</time>
      </trkpt>
      <trkpt lat="46.38107" lon="8.03916">
        <ele>1940</ele>
        <time>2021-07-10T10:45:33.456Z</time>
      </trkpt>
      <trkpt lat="46.38107" lon="8.03914">
        <ele>1940</ele>
        <time>2021-07-10T10:45:34.455Z</time>
      </trkpt>
      <trkpt lat="46.38106" lon="8.03912">
        <ele>1940</ele>
        <time>2021-07-10T10:45:35.455Z</time>
      </trkpt>
      <trkpt lat="46.38105" lon="8.03911">
        <ele>1939</ele>
        <time>2021-07-10T10:45:36.456Z</time>
      </trkpt>
      <trkpt lat="46.38105" lon="8.03911">
        <ele>1939</ele>
        <time>2021-07-10T10:45:37.455Z</time>
      </trkpt>
      <trkpt lat="46.38105" lon="8.0391">
        <ele>1939</ele>
        <time>2021-07-10T10:45:38.456Z</time>
      </trkpt>
      <trkpt lat="46.38104" lon="8.03909">
        <ele>1939</ele>
        <time>2021-07-10T10:45:39.455Z</time>
      </trkpt>
      <trkpt lat="46.38103" lon="8.03907">
        <ele>1939</ele>
        <time>2021-07-10T10:45:40.456Z</time>
      </trkpt>
      <trkpt lat="46.38102" lon="8.03905">
        <ele>1939</ele>
        <time>2021-07-10T10:45:41.456Z</time>
      </trkpt>
      <trkpt lat="46.381" lon="8.03904">
        <ele>1938</ele>
        <time>2021-07-10T10:45:42.456Z</time>
      </trkpt>
      <trkpt lat="46.38099" lon="8.03904">
        <ele>1937</ele>
        <time>2021-07-10T10:45:43.456Z</time>
      </trkpt>
      <trkpt lat="46.38097" lon="8.03904">
        <ele>1936</ele>
        <time>2021-07-10T10:45:44.455Z</time>
      </trkpt>
      <trkpt lat="46.38095" lon="8.03903">
        <ele>1935</ele>
        <time>2021-07-10T10:45:45.456Z</time>
      </trkpt>
      <trkpt lat="46.38094" lon="8.03904">
        <ele>1934</ele>
        <time>2021-07-10T10:45:46.456Z</time>
      </trkpt>
      <trkpt lat="46.38092" lon="8.03905">
        <ele>1933</ele>
        <time>2021-07-10T10:45:47.456Z</time>
      </trkpt>
      <trkpt lat="46.38091" lon="8.03906">
        <ele>1932</ele>
        <time>2021-07-10T10:45:48.456Z</time>
      </trkpt>
      <trkpt lat="46.3809" lon="8.03907">
        <ele>1930</ele>
        <time>2021-07-10T10:45:49.455Z</time>
      </trkpt>
      <trkpt lat="46.3809" lon="8.03908">
        <ele>1929</ele>
        <time>2021-07-10T10:45:50.456Z</time>
      </trkpt>
      <trkpt lat="46.38089" lon="8.03909">
        <ele>1927</ele>
        <time>2021-07-10T10:45:51.456Z</time>
      </trkpt>
      <trkpt lat="46.38088" lon="8.03909">
        <ele>1925</ele>
        <time>2021-07-10T10:45:52.456Z</time>
      </trkpt>
      <trkpt lat="46.38087" lon="8.0391">
        <ele>1923</ele>
        <time>2021-07-10T10:45:53.456Z</time>
      </trkpt>
      <trkpt lat="46.38087" lon="8.03911">
        <ele>1921</ele>
        <time>2021-07-10T10:45:54.455Z</time>
      </trkpt>
      <trkpt lat="46.38086" lon="8.03913">
        <ele>1920</ele>
        <time>2021-07-10T10:45:55.455Z</time>
      </trkpt>
      <trkpt lat="46.38086" lon="8.03915">
        <ele>1918</ele>
        <time>2021-07-10T10:45:56.456Z</time>
      </trkpt>
      <trkpt lat="46.38086" lon="8.03918">
        <ele>1916</ele>
        <time>2021-07-10T10:45:57.455Z</time>
      </trkpt>
      <trkpt lat="46.38086" lon="8.0392">
        <ele>1914</ele>
        <time>2021-07-10T10:45:58.455Z</time>
      </trkpt>
      <trkpt lat="46.38085" lon="8.03922">
        <ele>1912</ele>
        <time>2021-07-10T10:45:59.456Z</time>
      </trkpt>
      <trkpt lat="46.38084" lon="8.03922">
        <ele>1910</ele>
        <time>2021-07-10T10:46:00.456Z</time>
      </trkpt>
      <trkpt lat="46.38083" lon="8.03923">
        <ele>1908</ele>
        <time>2021-07-10T10:46:01.456Z</time>
      </trkpt>
      <trkpt lat="46.38083" lon="8.03924">
        <ele>1906</ele>
        <time>2021-07-10T10:46:02.456Z</time>
      </trkpt>
      <trkpt lat="46.38082" lon="8.03924">
        <ele>1905</ele>
        <time>2021-07-10T10:46:03.455Z</time>
      </trkpt>
      <trkpt lat="46.38082" lon="8.03924">
        <ele>1903</ele>
        <time>2021-07-10T10:46:04.456Z</time>
      </trkpt>
      <trkpt lat="46.38082" lon="8.03923">
        <ele>1902</ele>
        <time>2021-07-10T10:46:05.455Z</time>
      </trkpt>
      <trkpt lat="46.38081" lon="8.03922">
        <ele>1901</ele>
        <time>2021-07-10T10:46:06.456Z</time>
      </trkpt>
      <trkpt lat="46.38081" lon="8.03922">
        <ele>1899</ele>
        <time>2021-07-10T10:46:07.456Z</time>
      </trkpt>
      <trkpt lat="46.38081" lon="8.03922">
        <ele>1899</ele>
        <time>2021-07-10T10:46:08.456Z</time>
      </trkpt>
      <trkpt lat="46.3808" lon="8.03922">
        <ele>1898</ele>
        <time>2021-07-10T10:46:09.456Z</time>
      </trkpt>
      <trkpt lat="46.3808" lon="8.03922">
        <ele>1897</ele>
        <time>2021-07-10T10:46:10.455Z</time>
      </trkpt>
      <trkpt lat="46.3808" lon="8.03921">
        <ele>1896</ele>
        <time>2021-07-10T10:46:11.455Z</time>
      </trkpt>
      <trkpt lat="46.3808" lon="8.0392">
        <ele>1895</ele>
        <time>2021-07-10T10:46:12.456Z</time>
      </trkpt>
      <trkpt lat="46.3808" lon="8.03919">
        <ele>1894</ele>
        <time>2021-07-10T10:46:13.456Z</time>
      </trkpt>
      <trkpt lat="46.3808" lon="8.03919">
        <ele>1894</ele>
        <time>2021-07-10T10:46:14.456Z</time>
      </trkpt>
      <trkpt lat="46.38081" lon="8.03917">
        <ele>1893</ele>
        <time>2021-07-10T10:46:15.455Z</time>
      </trkpt>
      <trkpt lat="46.3808" lon="8.03916">
        <ele>1893</ele>
        <time>2021-07-10T10:46:16.456Z</time>
      </trkpt>
      <trkpt lat="46.38079" lon="8.03914">
        <ele>1892</ele>
        <time>2021-07-10T10:46:17.456Z</time>
      </trkpt>
      <trkpt lat="46.38079" lon="8.03913">
        <ele>1892</ele>
        <time>2021-07-10T10:46:18.455Z</time>
      </trkpt>
      <trkpt lat="46.38078" lon="8.03911">
        <ele>1891</ele>
        <time>2021-07-10T10:46:19.456Z</time>
      </trkpt>
      <trkpt lat="46.38078" lon="8.0391">
        <ele>1891</ele>
        <time>2021-07-10T10:46:20.455Z</time>
      </trkpt>
      <trkpt lat="46.38077" lon="8.03909">
        <ele>1890</ele>
        <time>2021-07-10T10:46:21.456Z</time>
      </trkpt>
      <trkpt lat="46.38077" lon="8.03907">
        <ele>1889</ele>
        <time>2021-07-10T10:46:22.456Z</time>
      </trkpt>
      <trkpt lat="46.38076" lon="8.03906">
        <ele>1889</ele>
        <time>2021-07-10T10:46:23.455Z</time>
      </trkpt>
      <trkpt lat="46.38076" lon="8.03905">
        <ele>1888</ele>
        <time>2021-07-10T10:46:24.455Z</time>
      </trkpt>
      <trkpt lat="46.38075" lon="8.03903">
        <ele>1888</ele>
        <time>2021-07-10T10:46:25.455Z</time>
      </trkpt>
      <trkpt lat="46.38075" lon="8.03902">
        <ele>1888</ele>
        <time>2021-07-10T10:46:26.455Z</time>
      </trkpt>
      <trkpt lat="46.38074" lon="8.03901">
        <ele>1888</ele>
        <time>2021-07-10T10:46:27.456Z</time>
      </trkpt>
      <trkpt lat="46.38074" lon="8.039">
        <ele>1887</ele>
        <time>2021-07-10T10:46:28.456Z</time>
      </trkpt>
      <trkpt lat="46.38073" lon="8.03898">
        <ele>1887</ele>
        <time>2021-07-10T10:46:29.456Z</time>
      </trkpt>
      <trkpt lat="46.38072" lon="8.03897">
        <ele>1886</ele>
        <time>2021-07-10T10:46:30.456Z</time>
      </trkpt>
      <trkpt lat="46.38072" lon="8.03897">
        <ele>1885</ele>
        <time>2021-07-10T10:46:31.455Z</time>
      </trkpt>
      <trkpt lat="46.38072" lon="8.03895">
        <ele>1885</ele>
        <time>2021-07-10T10:46:32.455Z</time>
      </trkpt>
      <trkpt lat="46.38071" lon="8.03894">
        <ele>1886</ele>
        <time>2021-07-10T10:46:33.456Z</time>
      </trkpt>
      <trkpt lat="46.38071" lon="8.03893">
        <ele>1885</ele>
        <time>2021-07-10T10:46:34.456Z</time>
      </trkpt>
      <trkpt lat="46.38071" lon="8.03891">
        <ele>1885</ele>
        <time>2021-07-10T10:46:35.456Z</time>
      </trkpt>
      <trkpt lat="46.3807" lon="8.0389">
        <ele>1885</ele>
        <time>2021-07-10T10:46:36.456Z</time>
      </trkpt>
      <trkpt lat="46.3807" lon="8.03889">
        <ele>1886</ele>
        <time>2021-07-10T10:46:37.456Z</time>
      </trkpt>
      <trkpt lat="46.3807" lon="8.03888">
        <ele>1885</ele>
        <time>2021-07-10T10:46:38.456Z</time>
      </trkpt>
      <trkpt lat="46.38069" lon="8.03886">
        <ele>1885</ele>
        <time>2021-07-10T10:46:39.456Z</time>
      </trkpt>
      <trkpt lat="46.38069" lon="8.03885">
        <ele>1885</ele>
        <time>2021-07-10T10:46:40.455Z</time>
      </trkpt>
      <trkpt lat="46.38069" lon="8.03883">
        <ele>1885</ele>
        <time>2021-07-10T10:46:41.455Z</time>
      </trkpt>
      <trkpt lat="46.38068" lon="8.03882">
        <ele>1885</ele>
        <time>2021-07-10T10:46:42.455Z</time>
      </trkpt>
      <trkpt lat="46.38067" lon="8.0388">
        <ele>1885</ele>
        <time>2021-07-10T10:46:43.455Z</time>
      </trkpt>
      <trkpt lat="46.38067" lon="8.03879">
        <ele>1885</ele>
        <time>2021-07-10T10:46:44.456Z</time>
      </trkpt>
      <trkpt lat="46.38066" lon="8.03877">
        <ele>1884</ele>
        <time>2021-07-10T10:46:45.456Z</time>
      </trkpt>
      <trkpt lat="46.38066" lon="8.03876">
        <ele>1884</ele>
        <time>2021-07-10T10:46:46.455Z</time>
      </trkpt>
      <trkpt lat="46.38065" lon="8.03874">
        <ele>1884</ele>
        <time>2021-07-10T10:46:47.455Z</time>
      </trkpt>
      <trkpt lat="46.38064" lon="8.03873">
        <ele>1884</ele>
        <time>2021-07-10T10:46:48.456Z</time>
      </trkpt>
      <trkpt lat="46.38063" lon="8.03872">
        <ele>1884</ele>
        <time>2021-07-10T10:46:49.456Z</time>
      </trkpt>
      <trkpt lat="46.38063" lon="8.0387">
        <ele>1884</ele>
        <time>2021-07-10T10:46:50.456Z</time>
      </trkpt>
      <trkpt lat="46.38062" lon="8.03869">
        <ele>1884</ele>
        <time>2021-07-10T10:46:51.455Z</time>
      </trkpt>
      <trkpt lat="46.38061" lon="8.03868">
        <ele>1884</ele>
        <time>2021-07-10T10:46:52.455Z</time>
      </trkpt>
      <trkpt lat="46.38061" lon="8.03867">
        <ele>1884</ele>
        <time>2021-07-10T10:46:53.456Z</time>
      </trkpt>
      <trkpt lat="46.38061" lon="8.03865">
        <ele>1884</ele>
        <time>2021-07-10T10:46:54.455Z</time>
      </trkpt>
      <trkpt lat="46.38061" lon="8.03864">
        <ele>1884</ele>
        <time>2021-07-10T10:46:55.455Z</time>
      </trkpt>
      <trkpt lat="46.3806" lon="8.03863">
        <ele>1884</ele>
        <time>2021-07-10T10:46:56.455Z</time>
      </trkpt>
      <trkpt lat="46.3806" lon="8.03862">
        <ele>1884</ele>
        <time>2021-07-10T10:46:57.456Z</time>
      </trkpt>
      <trkpt lat="46.3806" lon="8.03861">
        <ele>1884</ele>
        <time>2021-07-10T10:46:58.456Z</time>
      </trkpt>
      <trkpt lat="46.38059" lon="8.03859">
        <ele>1883</ele>
        <time>2021-07-10T10:46:59.456Z</time>
      </trkpt>
      <trkpt lat="46.38059" lon="8.03858">
        <ele>1883</ele>
        <time>2021-07-10T10:47:00.455Z</time>
      </trkpt>
      <trkpt lat="46.38059" lon="8.03857">
        <ele>1883</ele>
        <time>2021-07-10T10:47:01.456Z</time>
      </trkpt>
      <trkpt lat="46.38058" lon="8.03857">
        <ele>1883</ele>
        <time>2021-07-10T10:47:02.455Z</time>
      </trkpt>
      <trkpt lat="46.38058" lon="8.03856">
        <ele>1884</ele>
        <time>2021-07-10T10:47:03.456Z</time>
      </trkpt>
      <trkpt lat="46.38057" lon="8.03855">
        <ele>1884</ele>
        <time>2021-07-10T10:47:04.455Z</time>
      </trkpt>
      <trkpt lat="46.38057" lon="8.03854">
        <ele>1884</ele>
        <time>2021-07-10T10:47:05.455Z</time>
      </trkpt>
      <trkpt lat="46.38058" lon="8.03853">
        <ele>1885</ele>
        <time>2021-07-10T10:47:06.455Z</time>
      </trkpt>
      <trkpt lat="46.38059" lon="8.03853">
        <ele>1886</ele>
        <time>2021-07-10T10:47:07.456Z</time>
      </trkpt>
      <trkpt lat="46.38059" lon="8.03854">
        <ele>1886</ele>
        <time>2021-07-10T10:47:08.456Z</time>
      </trkpt>
      <trkpt lat="46.38059" lon="8.03853">
        <ele>1887</ele>
        <time>2021-07-10T10:47:09.455Z</time>
      </trkpt>
      <trkpt lat="46.38059" lon="8.03853">
        <ele>1887</ele>
        <time>2021-07-10T10:47:10.456Z</time>
      </trkpt>
      <trkpt lat="46.38059" lon="8.03853">
        <ele>1888</ele>
        <time>2021-07-10T10:47:11.456Z</time>
      </trkpt>
      <trkpt lat="46.3806" lon="8.03851">
        <ele>1893</ele>
        <time>2021-07-10T10:47:12.457Z</time>
      </trkpt>
      <trkpt lat="46.38058" lon="8.03849">
        <ele>1893</ele>
        <time>2021-07-10T10:47:13.456Z</time>
      </trkpt>
      <trkpt lat="46.38057" lon="8.03849">
        <ele>1892</ele>
        <time>2021-07-10T10:47:14.456Z</time>
      </trkpt>
      <trkpt lat="46.38056" lon="8.0385">
        <ele>1891</ele>
        <time>2021-07-10T10:47:15.457Z</time>
      </trkpt>
      <trkpt lat="46.38055" lon="8.0385">
        <ele>1891</ele>
        <time>2021-07-10T10:47:16.457Z</time>
      </trkpt>
      <trkpt lat="46.38055" lon="8.03849">
        <ele>1891</ele>
        <time>2021-07-10T10:47:17.456Z</time>
      </trkpt>
      <trkpt lat="46.38056" lon="8.03848">
        <ele>1891</ele>
        <time>2021-07-10T10:47:18.456Z</time>
      </trkpt>
      <trkpt lat="46.38056" lon="8.03847">
        <ele>1890</ele>
        <time>2021-07-10T10:47:19.457Z</time>
      </trkpt>
      <trkpt lat="46.38055" lon="8.03847">
        <ele>1890</ele>
        <time>2021-07-10T10:47:20.457Z</time>
      </trkpt>
      <trkpt lat="46.38056" lon="8.03846">
        <ele>1889</ele>
        <time>2021-07-10T10:47:21.457Z</time>
      </trkpt>
      <trkpt lat="46.38056" lon="8.03844">
        <ele>1894</ele>
        <time>2021-07-10T10:47:22.457Z</time>
      </trkpt>
      <trkpt lat="46.38056" lon="8.03844">
        <ele>1895</ele>
        <time>2021-07-10T10:47:23.458Z</time>
      </trkpt>
      <trkpt lat="46.38056" lon="8.03844">
        <ele>1895</ele>
        <time>2021-07-10T10:47:24.457Z</time>
      </trkpt>
      <trkpt lat="46.38056" lon="8.03844">
        <ele>1896</ele>
        <time>2021-07-10T10:47:25.458Z</time>
      </trkpt>
      <trkpt lat="46.38056" lon="8.03842">
        <ele>1896</ele>
        <time>2021-07-10T10:47:26.457Z</time>
      </trkpt>
      <trkpt lat="46.38056" lon="8.03841">
        <ele>1897</ele>
        <time>2021-07-10T10:47:27.457Z</time>
      </trkpt>
      <trkpt lat="46.38056" lon="8.0384">
        <ele>1897</ele>
        <time>2021-07-10T10:47:28.458Z</time>
      </trkpt>
      <trkpt lat="46.38056" lon="8.0384">
        <ele>1897</ele>
        <time>2021-07-10T10:47:29.457Z</time>
      </trkpt>
      <trkpt lat="46.38056" lon="8.0384">
        <ele>1897</ele>
        <time>2021-07-10T10:47:30.457Z</time>
      </trkpt>
      <trkpt lat="46.38055" lon="8.0384">
        <ele>1895</ele>
        <time>2021-07-10T10:47:31.459Z</time>
      </trkpt>
      <trkpt lat="46.38054" lon="8.03839">
        <ele>1895</ele>
        <time>2021-07-10T10:47:32.458Z</time>
      </trkpt>
      <trkpt lat="46.38054" lon="8.03839">
        <ele>1895</ele>
        <time>2021-07-10T10:47:33.458Z</time>
      </trkpt>
      <trkpt lat="46.38052" lon="8.03839">
        <ele>1895</ele>
        <time>2021-07-10T10:47:34.458Z</time>
      </trkpt>
      <trkpt lat="46.38051" lon="8.0384">
        <ele>1894</ele>
        <time>2021-07-10T10:47:35.458Z</time>
      </trkpt>
      <trkpt lat="46.3805" lon="8.0384">
        <ele>1894</ele>
        <time>2021-07-10T10:47:36.458Z</time>
      </trkpt>
      <trkpt lat="46.38049" lon="8.0384">
        <ele>1893</ele>
        <time>2021-07-10T10:47:37.458Z</time>
      </trkpt>
      <trkpt lat="46.38049" lon="8.03841">
        <ele>1892</ele>
        <time>2021-07-10T10:47:38.458Z</time>
      </trkpt>
      <trkpt lat="46.38049" lon="8.03841">
        <ele>1891</ele>
        <time>2021-07-10T10:47:39.458Z</time>
      </trkpt>
      <trkpt lat="46.38049" lon="8.03841">
        <ele>1891</ele>
        <time>2021-07-10T10:47:40.458Z</time>
      </trkpt>
      <trkpt lat="46.38049" lon="8.03842">
        <ele>1890</ele>
        <time>2021-07-10T10:47:41.458Z</time>
      </trkpt>
      <trkpt lat="46.3805" lon="8.03841">
        <ele>1890</ele>
        <time>2021-07-10T10:47:42.458Z</time>
      </trkpt>
      <trkpt lat="46.3805" lon="8.03841">
        <ele>1889</ele>
        <time>2021-07-10T10:47:43.458Z</time>
      </trkpt>
      <trkpt lat="46.3805" lon="8.03841">
        <ele>1888</ele>
        <time>2021-07-10T10:47:44.458Z</time>
      </trkpt>
      <trkpt lat="46.38049" lon="8.03841">
        <ele>1887</ele>
        <time>2021-07-10T10:47:45.459Z</time>
      </trkpt>
      <trkpt lat="46.38048" lon="8.0384">
        <ele>1886</ele>
        <time>2021-07-10T10:47:46.460Z</time>
      </trkpt>
      <trkpt lat="46.38046" lon="8.03841">
        <ele>1886</ele>
        <time>2021-07-10T10:47:47.459Z</time>
      </trkpt>
      <trkpt lat="46.38046" lon="8.0384">
        <ele>1885</ele>
        <time>2021-07-10T10:47:48.459Z</time>
      </trkpt>
      <trkpt lat="46.38045" lon="8.0384">
        <ele>1884</ele>
        <time>2021-07-10T10:47:49.459Z</time>
      </trkpt>
      <trkpt lat="46.38045" lon="8.0384">
        <ele>1884</ele>
        <time>2021-07-10T10:47:50.460Z</time>
      </trkpt>
      <trkpt lat="46.38045" lon="8.0384">
        <ele>1883</ele>
        <time>2021-07-10T10:47:51.460Z</time>
      </trkpt>
      <trkpt lat="46.38045" lon="8.03839">
        <ele>1882</ele>
        <time>2021-07-10T10:47:52.460Z</time>
      </trkpt>
      <trkpt lat="46.38045" lon="8.03838">
        <ele>1882</ele>
        <time>2021-07-10T10:47:53.460Z</time>
      </trkpt>
      <trkpt lat="46.38045" lon="8.03838">
        <ele>1882</ele>
        <time>2021-07-10T10:47:54.459Z</time>
      </trkpt>
      <trkpt lat="46.38045" lon="8.03837">
        <ele>1882</ele>
        <time>2021-07-10T10:47:55.459Z</time>
      </trkpt>
      <trkpt lat="46.38045" lon="8.03837">
        <ele>1882</ele>
        <time>2021-07-10T10:47:56.460Z</time>
      </trkpt>
      <trkpt lat="46.38045" lon="8.03837">
        <ele>1883</ele>
        <time>2021-07-10T10:47:57.460Z</time>
      </trkpt>
      <trkpt lat="46.38044" lon="8.03837">
        <ele>1884</ele>
        <time>2021-07-10T10:47:58.459Z</time>
      </trkpt>
      <trkpt lat="46.38044" lon="8.03837">
        <ele>1884</ele>
        <time>2021-07-10T10:47:59.460Z</time>
      </trkpt>
      <trkpt lat="46.38044" lon="8.03837">
        <ele>1885</ele>
        <time>2021-07-10T10:48:00.460Z</time>
      </trkpt>
      <trkpt lat="46.38045" lon="8.03837">
        <ele>1886</ele>
        <time>2021-07-10T10:48:01.460Z</time>
      </trkpt>
      <trkpt lat="46.38045" lon="8.03836">
        <ele>1887</ele>
        <time>2021-07-10T10:48:02.460Z</time>
      </trkpt>
      <trkpt lat="46.38047" lon="8.03836">
        <ele>1888</ele>
        <time>2021-07-10T10:48:03.461Z</time>
      </trkpt>
      <trkpt lat="46.38049" lon="8.03836">
        <ele>1888</ele>
        <time>2021-07-10T10:48:04.460Z</time>
      </trkpt>
      <trkpt lat="46.38051" lon="8.03836">
        <ele>1888</ele>
        <time>2021-07-10T10:48:05.461Z</time>
      </trkpt>
      <trkpt lat="46.38052" lon="8.03835">
        <ele>1889</ele>
        <time>2021-07-10T10:48:06.461Z</time>
      </trkpt>
      <trkpt lat="46.38053" lon="8.03834">
        <ele>1889</ele>
        <time>2021-07-10T10:48:07.460Z</time>
      </trkpt>
      <trkpt lat="46.38054" lon="8.03834">
        <ele>1889</ele>
        <time>2021-07-10T10:48:08.461Z</time>
      </trkpt>
      <trkpt lat="46.38054" lon="8.03834">
        <ele>1890</ele>
        <time>2021-07-10T10:48:09.461Z</time>
      </trkpt>
      <trkpt lat="46.38055" lon="8.03834">
        <ele>1890</ele>
        <time>2021-07-10T10:48:10.461Z</time>
      </trkpt>
      <trkpt lat="46.38056" lon="8.03833">
        <ele>1891</ele>
        <time>2021-07-10T10:48:11.461Z</time>
      </trkpt>
      <trkpt lat="46.38056" lon="8.03833">
        <ele>1891</ele>
        <time>2021-07-10T10:48:12.461Z</time>
      </trkpt>
      <trkpt lat="46.38056" lon="8.03833">
        <ele>1891</ele>
        <time>2021-07-10T10:48:13.461Z</time>
      </trkpt>
      <trkpt lat="46.38057" lon="8.03832">
        <ele>1892</ele>
        <time>2021-07-10T10:48:14.460Z</time>
      </trkpt>
      <trkpt lat="46.38058" lon="8.03832">
        <ele>1892</ele>
        <time>2021-07-10T10:48:15.461Z</time>
      </trkpt>
      <trkpt lat="46.38059" lon="8.03832">
        <ele>1892</ele>
        <time>2021-07-10T10:48:16.462Z</time>
      </trkpt>
      <trkpt lat="46.38059" lon="8.03832">
        <ele>1892</ele>
        <time>2021-07-10T10:48:17.461Z</time>
      </trkpt>
      <trkpt lat="46.38059" lon="8.03833">
        <ele>1893</ele>
        <time>2021-07-10T10:48:18.462Z</time>
      </trkpt>
      <trkpt lat="46.3806" lon="8.03834">
        <ele>1893</ele>
        <time>2021-07-10T10:48:19.462Z</time>
      </trkpt>
      <trkpt lat="46.38063" lon="8.03836">
        <ele>1893</ele>
        <time>2021-07-10T10:48:20.462Z</time>
      </trkpt>
      <trkpt lat="46.38065" lon="8.0384">
        <ele>1892</ele>
        <time>2021-07-10T10:48:21.461Z</time>
      </trkpt>
      <trkpt lat="46.38067" lon="8.03843">
        <ele>1892</ele>
        <time>2021-07-10T10:48:22.461Z</time>
      </trkpt>
      <trkpt lat="46.38067" lon="8.03845">
        <ele>1892</ele>
        <time>2021-07-10T10:48:23.461Z</time>
      </trkpt>
      <trkpt lat="46.38068" lon="8.03847">
        <ele>1891</ele>
        <time>2021-07-10T10:48:24.461Z</time>
      </trkpt>
      <trkpt lat="46.3808" lon="8.03853">
        <ele>1887</ele>
        <time>2021-07-10T10:48:25.461Z</time>
      </trkpt>
      <trkpt lat="46.38087" lon="8.03856">
        <ele>1887</ele>
        <time>2021-07-10T10:48:26.462Z</time>
      </trkpt>
      <trkpt lat="46.38091" lon="8.03856">
        <ele>1887</ele>
        <time>2021-07-10T10:48:27.461Z</time>
      </trkpt>
      <trkpt lat="46.38094" lon="8.03856">
        <ele>1887</ele>
        <time>2021-07-10T10:48:28.462Z</time>
      </trkpt>
      <trkpt lat="46.38096" lon="8.03856">
        <ele>1886</ele>
        <time>2021-07-10T10:48:29.461Z</time>
      </trkpt>
      <trkpt lat="46.38099" lon="8.03855">
        <ele>1886</ele>
        <time>2021-07-10T10:48:30.462Z</time>
      </trkpt>
      <trkpt lat="46.381" lon="8.03855">
        <ele>1886</ele>
        <time>2021-07-10T10:48:31.462Z</time>
      </trkpt>
      <trkpt lat="46.38101" lon="8.03854">
        <ele>1887</ele>
        <time>2021-07-10T10:48:32.462Z</time>
      </trkpt>
      <trkpt lat="46.38105" lon="8.03855">
        <ele>1887</ele>
        <time>2021-07-10T10:48:33.462Z</time>
      </trkpt>
      <trkpt lat="46.38107" lon="8.03855">
        <ele>1887</ele>
        <time>2021-07-10T10:48:34.462Z</time>
      </trkpt>
      <trkpt lat="46.38109" lon="8.03856">
        <ele>1888</ele>
        <time>2021-07-10T10:48:35.462Z</time>
      </trkpt>
      <trkpt lat="46.38109" lon="8.03856">
        <ele>1888</ele>
        <time>2021-07-10T10:48:36.461Z</time>
      </trkpt>
      <trkpt lat="46.38109" lon="8.03857">
        <ele>1889</ele>
        <time>2021-07-10T10:48:37.461Z</time>
      </trkpt>
      <trkpt lat="46.38109" lon="8.03857">
        <ele>1890</ele>
        <time>2021-07-10T10:48:38.462Z</time>
      </trkpt>
      <trkpt lat="46.38114" lon="8.03857">
        <ele>1893</ele>
        <time>2021-07-10T10:48:39.462Z</time>
      </trkpt>
      <trkpt lat="46.38115" lon="8.03858">
        <ele>1894</ele>
        <time>2021-07-10T10:48:40.463Z</time>
      </trkpt>
      <trkpt lat="46.38116" lon="8.03858">
        <ele>1895</ele>
        <time>2021-07-10T10:48:41.463Z</time>
      </trkpt>
      <trkpt lat="46.38116" lon="8.03858">
        <ele>1895</ele>
        <time>2021-07-10T10:48:42.463Z</time>
      </trkpt>
      <trkpt lat="46.38115" lon="8.03857">
        <ele>1896</ele>
        <time>2021-07-10T10:48:43.463Z</time>
      </trkpt>
      <trkpt lat="46.38115" lon="8.03856">
        <ele>1897</ele>
        <time>2021-07-10T10:48:44.463Z</time>
      </trkpt>
      <trkpt lat="46.38115" lon="8.03856">
        <ele>1897</ele>
        <time>2021-07-10T10:48:45.463Z</time>
      </trkpt>
      <trkpt lat="46.38113" lon="8.03856">
        <ele>1898</ele>
        <time>2021-07-10T10:48:46.462Z</time>
      </trkpt>
      <trkpt lat="46.38114" lon="8.03856">
        <ele>1899</ele>
        <time>2021-07-10T10:48:47.462Z</time>
      </trkpt>
      <trkpt lat="46.38115" lon="8.03856">
        <ele>1899</ele>
        <time>2021-07-10T10:48:48.463Z</time>
      </trkpt>
      <trkpt lat="46.38116" lon="8.03856">
        <ele>1900</ele>
        <time>2021-07-10T10:48:49.463Z</time>
      </trkpt>
      <trkpt lat="46.38118" lon="8.03855">
        <ele>1901</ele>
        <time>2021-07-10T10:48:50.462Z</time>
      </trkpt>
      <trkpt lat="46.38121" lon="8.03857">
        <ele>1901</ele>
        <time>2021-07-10T10:48:51.463Z</time>
      </trkpt>
      <trkpt lat="46.38125" lon="8.03857">
        <ele>1901</ele>
        <time>2021-07-10T10:48:52.463Z</time>
      </trkpt>
      <trkpt lat="46.38127" lon="8.03858">
        <ele>1902</ele>
        <time>2021-07-10T10:48:53.463Z</time>
      </trkpt>
      <trkpt lat="46.38127" lon="8.03858">
        <ele>1902</ele>
        <time>2021-07-10T10:48:54.462Z</time>
      </trkpt>
      <trkpt lat="46.38127" lon="8.03858">
        <ele>1902</ele>
        <time>2021-07-10T10:48:55.462Z</time>
      </trkpt>
      <trkpt lat="46.38127" lon="8.03858">
        <ele>1902</ele>
        <time>2021-07-10T10:48:56.463Z</time>
      </trkpt>
      <trkpt lat="46.38123" lon="8.03855">
        <ele>1903</ele>
        <time>2021-07-10T10:48:57.463Z</time>
      </trkpt>
      <trkpt lat="46.38121" lon="8.03854">
        <ele>1903</ele>
        <time>2021-07-10T10:48:58.463Z</time>
      </trkpt>
      <trkpt lat="46.38119" lon="8.03852">
        <ele>1903</ele>
        <time>2021-07-10T10:48:59.463Z</time>
      </trkpt>
      <trkpt lat="46.38118" lon="8.03851">
        <ele>1903</ele>
        <time>2021-07-10T10:49:00.463Z</time>
      </trkpt>
      <trkpt lat="46.38118" lon="8.03851">
        <ele>1904</ele>
        <time>2021-07-10T10:49:01.463Z</time>
      </trkpt>
      <trkpt lat="46.38117" lon="8.0385">
        <ele>1904</ele>
        <time>2021-07-10T10:49:02.463Z</time>
      </trkpt>
      <trkpt lat="46.38117" lon="8.0385">
        <ele>1904</ele>
        <time>2021-07-10T10:49:03.462Z</time>
      </trkpt>
      <trkpt lat="46.38116" lon="8.0385">
        <ele>1904</ele>
        <time>2021-07-10T10:49:04.462Z</time>
      </trkpt>
      <trkpt lat="46.38114" lon="8.0385">
        <ele>1904</ele>
        <time>2021-07-10T10:49:05.463Z</time>
      </trkpt>
      <trkpt lat="46.38113" lon="8.0385">
        <ele>1904</ele>
        <time>2021-07-10T10:49:06.463Z</time>
      </trkpt>
      <trkpt lat="46.38113" lon="8.03849">
        <ele>1904</ele>
        <time>2021-07-10T10:49:07.463Z</time>
      </trkpt>
      <trkpt lat="46.38114" lon="8.03849">
        <ele>1904</ele>
        <time>2021-07-10T10:49:08.463Z</time>
      </trkpt>
      <trkpt lat="46.38115" lon="8.0385">
        <ele>1903</ele>
        <time>2021-07-10T10:49:09.463Z</time>
      </trkpt>
      <trkpt lat="46.38115" lon="8.0385">
        <ele>1903</ele>
        <time>2021-07-10T10:49:10.462Z</time>
      </trkpt>
      <trkpt lat="46.38115" lon="8.03849">
        <ele>1903</ele>
        <time>2021-07-10T10:49:11.463Z</time>
      </trkpt>
      <trkpt lat="46.38112" lon="8.03851">
        <ele>1900</ele>
        <time>2021-07-10T10:49:12.464Z</time>
      </trkpt>
      <trkpt lat="46.3811" lon="8.03852">
        <ele>1900</ele>
        <time>2021-07-10T10:49:13.463Z</time>
      </trkpt>
      <trkpt lat="46.38108" lon="8.03853">
        <ele>1899</ele>
        <time>2021-07-10T10:49:14.464Z</time>
      </trkpt>
      <trkpt lat="46.38107" lon="8.03852">
        <ele>1899</ele>
        <time>2021-07-10T10:49:15.463Z</time>
      </trkpt>
      <trkpt lat="46.38106" lon="8.03852">
        <ele>1898</ele>
        <time>2021-07-10T10:49:16.464Z</time>
      </trkpt>
      <trkpt lat="46.38105" lon="8.03853">
        <ele>1897</ele>
        <time>2021-07-10T10:49:17.463Z</time>
      </trkpt>
      <trkpt lat="46.38104" lon="8.03856">
        <ele>1895</ele>
        <time>2021-07-10T10:49:18.465Z</time>
      </trkpt>
      <trkpt lat="46.38105" lon="8.03855">
        <ele>1895</ele>
        <time>2021-07-10T10:49:19.464Z</time>
      </trkpt>
      <trkpt lat="46.38104" lon="8.03855">
        <ele>1894</ele>
        <time>2021-07-10T10:49:20.466Z</time>
      </trkpt>
      <trkpt lat="46.38104" lon="8.03855">
        <ele>1894</ele>
        <time>2021-07-10T10:49:21.465Z</time>
      </trkpt>
      <trkpt lat="46.381" lon="8.03853">
        <ele>1893</ele>
        <time>2021-07-10T10:49:22.466Z</time>
      </trkpt>
      <trkpt lat="46.381" lon="8.03853">
        <ele>1893</ele>
        <time>2021-07-10T10:49:23.466Z</time>
      </trkpt>
      <trkpt lat="46.38099" lon="8.03853">
        <ele>1893</ele>
        <time>2021-07-10T10:49:24.467Z</time>
      </trkpt>
      <trkpt lat="46.38099" lon="8.03853">
        <ele>1893</ele>
        <time>2021-07-10T10:49:25.467Z</time>
      </trkpt>
      <trkpt lat="46.38098" lon="8.03853">
        <ele>1893</ele>
        <time>2021-07-10T10:49:26.467Z</time>
      </trkpt>
      <trkpt lat="46.38098" lon="8.03852">
        <ele>1893</ele>
        <time>2021-07-10T10:49:27.466Z</time>
      </trkpt>
      <trkpt lat="46.38097" lon="8.03852">
        <ele>1893</ele>
        <time>2021-07-10T10:49:28.466Z</time>
      </trkpt>
      <trkpt lat="46.3809" lon="8.0388">
        <ele>1893</ele>
        <time>2021-07-10T10:55:13.466Z</time>
      </trkpt>
      <trkpt lat="46.38129" lon="8.03882">
        <ele>1893</ele>
        <time>2021-07-10T10:55:14.466Z</time>
      </trkpt>
      <trkpt lat="46.38107" lon="8.0388">
        <ele>1893</ele>
        <time>2021-07-10T10:55:15.467Z</time>
      </trkpt>
      <trkpt lat="46.38073" lon="8.03877">
        <ele>1894</ele>
        <time>2021-07-10T10:55:16.466Z</time>
      </trkpt>
      <trkpt lat="46.38064" lon="8.03879">
        <ele>1895</ele>
        <time>2021-07-10T10:55:17.467Z</time>
      </trkpt>
      <trkpt lat="46.3806" lon="8.03881">
        <ele>1895</ele>
        <time>2021-07-10T10:55:18.466Z</time>
      </trkpt>
      <trkpt lat="46.38067" lon="8.03882">
        <ele>1894</ele>
        <time>2021-07-10T10:55:19.466Z</time>
      </trkpt>
      <trkpt lat="46.38071" lon="8.03882">
        <ele>1894</ele>
        <time>2021-07-10T10:55:20.467Z</time>
      </trkpt>
      <trkpt lat="46.3807" lon="8.03883">
        <ele>1893</ele>
        <time>2021-07-10T10:55:21.467Z</time>
      </trkpt>
      <trkpt lat="46.38069" lon="8.03884">
        <ele>1893</ele>
        <time>2021-07-10T10:55:22.466Z</time>
      </trkpt>
      <trkpt lat="46.38069" lon="8.03885">
        <ele>1892</ele>
        <time>2021-07-10T10:55:23.466Z</time>
      </trkpt>
      <trkpt lat="46.38071" lon="8.03887">
        <ele>1892</ele>
        <time>2021-07-10T10:55:24.467Z</time>
      </trkpt>
      <trkpt lat="46.38071" lon="8.03889">
        <ele>1892</ele>
        <time>2021-07-10T10:55:25.467Z</time>
      </trkpt>
      <trkpt lat="46.38071" lon="8.03891">
        <ele>1892</ele>
        <time>2021-07-10T10:55:26.466Z</time>
      </trkpt>
      <trkpt lat="46.3807" lon="8.03893">
        <ele>1892</ele>
        <time>2021-07-10T10:55:27.467Z</time>
      </trkpt>
      <trkpt lat="46.3807" lon="8.03895">
        <ele>1892</ele>
        <time>2021-07-10T10:55:28.467Z</time>
      </trkpt>
      <trkpt lat="46.3807" lon="8.03895">
        <ele>1892</ele>
        <time>2021-07-10T10:55:29.467Z</time>
      </trkpt>
      <trkpt lat="46.38069" lon="8.03895">
        <ele>1892</ele>
        <time>2021-07-10T10:55:30.467Z</time>
      </trkpt>
      <trkpt lat="46.38069" lon="8.03896">
        <ele>1891</ele>
        <time>2021-07-10T10:55:31.466Z</time>
      </trkpt>
      <trkpt lat="46.38069" lon="8.03899">
        <ele>1891</ele>
        <time>2021-07-10T10:55:32.467Z</time>
      </trkpt>
      <trkpt lat="46.38069" lon="8.03899">
        <ele>1891</ele>
        <time>2021-07-10T10:55:33.466Z</time>
      </trkpt>
      <trkpt lat="46.3807" lon="8.039">
        <ele>1891</ele>
        <time>2021-07-10T10:55:34.467Z</time>
      </trkpt>
      <trkpt lat="46.3807" lon="8.03902">
        <ele>1891</ele>
        <time>2021-07-10T10:55:35.467Z</time>
      </trkpt>
      <trkpt lat="46.38069" lon="8.03903">
        <ele>1891</ele>
        <time>2021-07-10T10:55:36.466Z</time>
      </trkpt>
      <trkpt lat="46.38069" lon="8.03905">
        <ele>1890</ele>
        <time>2021-07-10T10:55:37.466Z</time>
      </trkpt>
      <trkpt lat="46.3807" lon="8.03906">
        <ele>1890</ele>
        <time>2021-07-10T10:55:38.467Z</time>
      </trkpt>
      <trkpt lat="46.3807" lon="8.03907">
        <ele>1890</ele>
        <time>2021-07-10T10:55:39.466Z</time>
      </trkpt>
      <trkpt lat="46.3807" lon="8.03909">
        <ele>1890</ele>
        <time>2021-07-10T10:55:40.467Z</time>
      </trkpt>
      <trkpt lat="46.3807" lon="8.03911">
        <ele>1890</ele>
        <time>2021-07-10T10:55:41.467Z</time>
      </trkpt>
      <trkpt lat="46.3807" lon="8.03912">
        <ele>1890</ele>
        <time>2021-07-10T10:55:42.466Z</time>
      </trkpt>
      <trkpt lat="46.38071" lon="8.03914">
        <ele>1889</ele>
        <time>2021-07-10T10:55:43.466Z</time>
      </trkpt>
      <trkpt lat="46.38071" lon="8.03916">
        <ele>1889</ele>
        <time>2021-07-10T10:55:44.466Z</time>
      </trkpt>
      <trkpt lat="46.38072" lon="8.03917">
        <ele>1888</ele>
        <time>2021-07-10T10:55:45.466Z</time>
      </trkpt>
      <trkpt lat="46.38072" lon="8.03919">
        <ele>1888</ele>
        <time>2021-07-10T10:55:46.466Z</time>
      </trkpt>
      <trkpt lat="46.38072" lon="8.0392">
        <ele>1887</ele>
        <time>2021-07-10T10:55:47.466Z</time>
      </trkpt>
      <trkpt lat="46.38072" lon="8.03922">
        <ele>1887</ele>
        <time>2021-07-10T10:55:48.466Z</time>
      </trkpt>
      <trkpt lat="46.38073" lon="8.03923">
        <ele>1887</ele>
        <time>2021-07-10T10:55:49.466Z</time>
      </trkpt>
      <trkpt lat="46.38073" lon="8.03925">
        <ele>1887</ele>
        <time>2021-07-10T10:55:50.466Z</time>
      </trkpt>
      <trkpt lat="46.38074" lon="8.03926">
        <ele>1886</ele>
        <time>2021-07-10T10:55:51.467Z</time>
      </trkpt>
      <trkpt lat="46.38074" lon="8.03927">
        <ele>1886</ele>
        <time>2021-07-10T10:55:52.466Z</time>
      </trkpt>
      <trkpt lat="46.38074" lon="8.03928">
        <ele>1885</ele>
        <time>2021-07-10T10:55:53.466Z</time>
      </trkpt>
      <trkpt lat="46.38075" lon="8.03929">
        <ele>1885</ele>
        <time>2021-07-10T10:55:54.466Z</time>
      </trkpt>
      <trkpt lat="46.38075" lon="8.0393">
        <ele>1885</ele>
        <time>2021-07-10T10:55:55.466Z</time>
      </trkpt>
      <trkpt lat="46.38076" lon="8.03931">
        <ele>1886</ele>
        <time>2021-07-10T10:55:56.466Z</time>
      </trkpt>
      <trkpt lat="46.38076" lon="8.03932">
        <ele>1886</ele>
        <time>2021-07-10T10:55:57.467Z</time>
      </trkpt>
      <trkpt lat="46.38077" lon="8.03934">
        <ele>1887</ele>
        <time>2021-07-10T10:55:58.466Z</time>
      </trkpt>
      <trkpt lat="46.38077" lon="8.03935">
        <ele>1887</ele>
        <time>2021-07-10T10:55:59.466Z</time>
      </trkpt>
      <trkpt lat="46.38077" lon="8.03937">
        <ele>1888</ele>
        <time>2021-07-10T10:56:00.466Z</time>
      </trkpt>
      <trkpt lat="46.38078" lon="8.03938">
        <ele>1888</ele>
        <time>2021-07-10T10:56:01.466Z</time>
      </trkpt>
      <trkpt lat="46.38078" lon="8.0394">
        <ele>1889</ele>
        <time>2021-07-10T10:56:02.466Z</time>
      </trkpt>
      <trkpt lat="46.38079" lon="8.03941">
        <ele>1889</ele>
        <time>2021-07-10T10:56:03.466Z</time>
      </trkpt>
      <trkpt lat="46.38079" lon="8.03942">
        <ele>1889</ele>
        <time>2021-07-10T10:56:04.466Z</time>
      </trkpt>
      <trkpt lat="46.38079" lon="8.03943">
        <ele>1889</ele>
        <time>2021-07-10T10:56:05.466Z</time>
      </trkpt>
      <trkpt lat="46.38079" lon="8.03945">
        <ele>1890</ele>
        <time>2021-07-10T10:56:06.466Z</time>
      </trkpt>
      <trkpt lat="46.3808" lon="8.03946">
        <ele>1890</ele>
        <time>2021-07-10T10:56:07.466Z</time>
      </trkpt>
      <trkpt lat="46.3808" lon="8.03948">
        <ele>1889</ele>
        <time>2021-07-10T10:56:08.466Z</time>
      </trkpt>
      <trkpt lat="46.3808" lon="8.03949">
        <ele>1889</ele>
        <time>2021-07-10T10:56:09.467Z</time>
      </trkpt>
      <trkpt lat="46.3808" lon="8.0395">
        <ele>1888</ele>
        <time>2021-07-10T10:56:10.467Z</time>
      </trkpt>
      <trkpt lat="46.3808" lon="8.03951">
        <ele>1888</ele>
        <time>2021-07-10T10:56:11.466Z</time>
      </trkpt>
      <trkpt lat="46.38081" lon="8.03952">
        <ele>1888</ele>
        <time>2021-07-10T10:56:12.466Z</time>
      </trkpt>
      <trkpt lat="46.38081" lon="8.03953">
        <ele>1887</ele>
        <time>2021-07-10T10:56:13.466Z</time>
      </trkpt>
      <trkpt lat="46.38081" lon="8.03953">
        <ele>1887</ele>
        <time>2021-07-10T10:56:14.467Z</time>
      </trkpt>
      <trkpt lat="46.38082" lon="8.03954">
        <ele>1887</ele>
        <time>2021-07-10T10:56:15.466Z</time>
      </trkpt>
      <trkpt lat="46.38082" lon="8.03955">
        <ele>1887</ele>
        <time>2021-07-10T10:56:16.466Z</time>
      </trkpt>
      <trkpt lat="46.38083" lon="8.03955">
        <ele>1888</ele>
        <time>2021-07-10T10:56:17.466Z</time>
      </trkpt>
      <trkpt lat="46.38084" lon="8.03956">
        <ele>1888</ele>
        <time>2021-07-10T10:56:18.466Z</time>
      </trkpt>
      <trkpt lat="46.38084" lon="8.03956">
        <ele>1888</ele>
        <time>2021-07-10T10:56:19.466Z</time>
      </trkpt>
      <trkpt lat="46.38085" lon="8.03956">
        <ele>1888</ele>
        <time>2021-07-10T10:56:20.466Z</time>
      </trkpt>
      <trkpt lat="46.38086" lon="8.03957">
        <ele>1888</ele>
        <time>2021-07-10T10:56:21.466Z</time>
      </trkpt>
      <trkpt lat="46.38087" lon="8.03957">
        <ele>1888</ele>
        <time>2021-07-10T10:56:22.467Z</time>
      </trkpt>
      <trkpt lat="46.38087" lon="8.03957">
        <ele>1888</ele>
        <time>2021-07-10T10:56:23.466Z</time>
      </trkpt>
      <trkpt lat="46.38088" lon="8.03957">
        <ele>1889</ele>
        <time>2021-07-10T10:56:24.466Z</time>
      </trkpt>
      <trkpt lat="46.38088" lon="8.03957">
        <ele>1889</ele>
        <time>2021-07-10T10:56:25.467Z</time>
      </trkpt>
      <trkpt lat="46.38089" lon="8.03958">
        <ele>1890</ele>
        <time>2021-07-10T10:56:26.466Z</time>
      </trkpt>
      <trkpt lat="46.3809" lon="8.03958">
        <ele>1890</ele>
        <time>2021-07-10T10:56:27.466Z</time>
      </trkpt>
      <trkpt lat="46.3809" lon="8.03958">
        <ele>1891</ele>
        <time>2021-07-10T10:56:28.466Z</time>
      </trkpt>
      <trkpt lat="46.38091" lon="8.03958">
        <ele>1891</ele>
        <time>2021-07-10T10:56:29.466Z</time>
      </trkpt>
      <trkpt lat="46.38091" lon="8.03959">
        <ele>1891</ele>
        <time>2021-07-10T10:56:30.467Z</time>
      </trkpt>
      <trkpt lat="46.38092" lon="8.0396">
        <ele>1891</ele>
        <time>2021-07-10T10:56:31.467Z</time>
      </trkpt>
      <trkpt lat="46.38092" lon="8.0396">
        <ele>1892</ele>
        <time>2021-07-10T10:56:32.466Z</time>
      </trkpt>
      <trkpt lat="46.38093" lon="8.03961">
        <ele>1893</ele>
        <time>2021-07-10T10:56:33.467Z</time>
      </trkpt>
      <trkpt lat="46.38094" lon="8.03961">
        <ele>1894</ele>
        <time>2021-07-10T10:56:34.466Z</time>
      </trkpt>
      <trkpt lat="46.38095" lon="8.03961">
        <ele>1895</ele>
        <time>2021-07-10T10:56:35.466Z</time>
      </trkpt>
      <trkpt lat="46.38095" lon="8.0396">
        <ele>1895</ele>
        <time>2021-07-10T10:56:36.467Z</time>
      </trkpt>
      <trkpt lat="46.38096" lon="8.03959">
        <ele>1896</ele>
        <time>2021-07-10T10:56:37.467Z</time>
      </trkpt>
      <trkpt lat="46.38096" lon="8.03959">
        <ele>1897</ele>
        <time>2021-07-10T10:56:38.467Z</time>
      </trkpt>
      <trkpt lat="46.38096" lon="8.03958">
        <ele>1898</ele>
        <time>2021-07-10T10:56:39.466Z</time>
      </trkpt>
      <trkpt lat="46.38097" lon="8.03958">
        <ele>1900</ele>
        <time>2021-07-10T10:56:40.466Z</time>
      </trkpt>
      <trkpt lat="46.38097" lon="8.03958">
        <ele>1901</ele>
        <time>2021-07-10T10:56:41.466Z</time>
      </trkpt>
      <trkpt lat="46.38098" lon="8.03958">
        <ele>1902</ele>
        <time>2021-07-10T10:56:42.466Z</time>
      </trkpt>
      <trkpt lat="46.381" lon="8.03959">
        <ele>1902</ele>
        <time>2021-07-10T10:56:43.466Z</time>
      </trkpt>
      <trkpt lat="46.38102" lon="8.0396">
        <ele>1903</ele>
        <time>2021-07-10T10:56:44.466Z</time>
      </trkpt>
      <trkpt lat="46.38103" lon="8.0396">
        <ele>1903</ele>
        <time>2021-07-10T10:56:45.466Z</time>
      </trkpt>
      <trkpt lat="46.38104" lon="8.0396">
        <ele>1903</ele>
        <time>2021-07-10T10:56:46.467Z</time>
      </trkpt>
      <trkpt lat="46.38105" lon="8.0396">
        <ele>1903</ele>
        <time>2021-07-10T10:56:47.467Z</time>
      </trkpt>
      <trkpt lat="46.38105" lon="8.0396">
        <ele>1903</ele>
        <time>2021-07-10T10:56:48.467Z</time>
      </trkpt>
      <trkpt lat="46.38106" lon="8.0396">
        <ele>1903</ele>
        <time>2021-07-10T10:56:49.466Z</time>
      </trkpt>
      <trkpt lat="46.38107" lon="8.0396">
        <ele>1902</ele>
        <time>2021-07-10T10:56:50.466Z</time>
      </trkpt>
      <trkpt lat="46.38107" lon="8.0396">
        <ele>1902</ele>
        <time>2021-07-10T10:56:51.466Z</time>
      </trkpt>
      <trkpt lat="46.38108" lon="8.0396">
        <ele>1901</ele>
        <time>2021-07-10T10:56:52.466Z</time>
      </trkpt>
      <trkpt lat="46.38108" lon="8.0396">
        <ele>1901</ele>
        <time>2021-07-10T10:56:53.467Z</time>
      </trkpt>
      <trkpt lat="46.38109" lon="8.03968">
        <ele>1887</ele>
        <time>2021-07-10T10:56:54.466Z</time>
      </trkpt>
      <trkpt lat="46.3811" lon="8.03969">
        <ele>1887</ele>
        <time>2021-07-10T10:56:55.466Z</time>
      </trkpt>
      <trkpt lat="46.3811" lon="8.0397">
        <ele>1887</ele>
        <time>2021-07-10T10:56:56.466Z</time>
      </trkpt>
      <trkpt lat="46.38111" lon="8.0397">
        <ele>1888</ele>
        <time>2021-07-10T10:56:57.466Z</time>
      </trkpt>
      <trkpt lat="46.38112" lon="8.03971">
        <ele>1888</ele>
        <time>2021-07-10T10:56:58.466Z</time>
      </trkpt>
      <trkpt lat="46.38112" lon="8.03972">
        <ele>1888</ele>
        <time>2021-07-10T10:56:59.466Z</time>
      </trkpt>
      <trkpt lat="46.38112" lon="8.03972">
        <ele>1888</ele>
        <time>2021-07-10T10:57:00.466Z</time>
      </trkpt>
      <trkpt lat="46.38113" lon="8.03973">
        <ele>1886</ele>
        <time>2021-07-10T10:57:01.466Z</time>
      </trkpt>
      <trkpt lat="46.38113" lon="8.03973">
        <ele>1886</ele>
        <time>2021-07-10T10:57:02.466Z</time>
      </trkpt>
      <trkpt lat="46.38114" lon="8.03972">
        <ele>1887</ele>
        <time>2021-07-10T10:57:03.466Z</time>
      </trkpt>
      <trkpt lat="46.38114" lon="8.0397">
        <ele>1888</ele>
        <time>2021-07-10T10:57:04.466Z</time>
      </trkpt>
      <trkpt lat="46.38115" lon="8.03969">
        <ele>1888</ele>
        <time>2021-07-10T10:57:05.466Z</time>
      </trkpt>
      <trkpt lat="46.38115" lon="8.03967">
        <ele>1889</ele>
        <time>2021-07-10T10:57:06.466Z</time>
      </trkpt>
      <trkpt lat="46.38115" lon="8.03964">
        <ele>1890</ele>
        <time>2021-07-10T10:57:07.466Z</time>
      </trkpt>
      <trkpt lat="46.38115" lon="8.03961">
        <ele>1891</ele>
        <time>2021-07-10T10:57:08.466Z</time>
      </trkpt>
      <trkpt lat="46.38115" lon="8.03959">
        <ele>1892</ele>
        <time>2021-07-10T10:57:09.466Z</time>
      </trkpt>
      <trkpt lat="46.38114" lon="8.03958">
        <ele>1893</ele>
        <time>2021-07-10T10:57:10.466Z</time>
      </trkpt>
      <trkpt lat="46.38114" lon="8.03957">
        <ele>1894</ele>
        <time>2021-07-10T10:57:11.467Z</time>
      </trkpt>
      <trkpt lat="46.38114" lon="8.03956">
        <ele>1895</ele>
        <time>2021-07-10T10:57:12.466Z</time>
      </trkpt>
      <trkpt lat="46.38114" lon="8.03956">
        <ele>1896</ele>
        <time>2021-07-10T10:57:13.467Z</time>
      </trkpt>
      <trkpt lat="46.38114" lon="8.03954">
        <ele>1897</ele>
        <time>2021-07-10T10:57:14.466Z</time>
      </trkpt>
      <trkpt lat="46.38114" lon="8.03952">
        <ele>1897</ele>
        <time>2021-07-10T10:57:15.467Z</time>
      </trkpt>
      <trkpt lat="46.38114" lon="8.03951">
        <ele>1898</ele>
        <time>2021-07-10T10:57:16.466Z</time>
      </trkpt>
      <trkpt lat="46.38114" lon="8.03949">
        <ele>1898</ele>
        <time>2021-07-10T10:57:17.466Z</time>
      </trkpt>
      <trkpt lat="46.38114" lon="8.03948">
        <ele>1898</ele>
        <time>2021-07-10T10:57:18.466Z</time>
      </trkpt>
      <trkpt lat="46.38114" lon="8.03946">
        <ele>1898</ele>
        <time>2021-07-10T10:57:19.466Z</time>
      </trkpt>
      <trkpt lat="46.38115" lon="8.03945">
        <ele>1898</ele>
        <time>2021-07-10T10:57:20.467Z</time>
      </trkpt>
      <trkpt lat="46.38115" lon="8.03945">
        <ele>1898</ele>
        <time>2021-07-10T10:57:21.467Z</time>
      </trkpt>
      <trkpt lat="46.38115" lon="8.03945">
        <ele>1898</ele>
        <time>2021-07-10T10:57:22.466Z</time>
      </trkpt>
      <trkpt lat="46.38112" lon="8.03941">
        <ele>1896</ele>
        <time>2021-07-10T10:57:23.468Z</time>
      </trkpt>
      <trkpt lat="46.38112" lon="8.03941">
        <ele>1895</ele>
        <time>2021-07-10T10:57:24.467Z</time>
      </trkpt>
      <trkpt lat="46.38112" lon="8.03942">
        <ele>1895</ele>
        <time>2021-07-10T10:57:25.467Z</time>
      </trkpt>
      <trkpt lat="46.38113" lon="8.03942">
        <ele>1895</ele>
        <time>2021-07-10T10:57:26.467Z</time>
      </trkpt>
      <trkpt lat="46.38113" lon="8.03937">
        <ele>1887</ele>
        <time>2021-07-10T10:57:27.468Z</time>
      </trkpt>
      <trkpt lat="46.38113" lon="8.03936">
        <ele>1887</ele>
        <time>2021-07-10T10:57:28.468Z</time>
      </trkpt>
      <trkpt lat="46.38112" lon="8.03935">
        <ele>1887</ele>
        <time>2021-07-10T10:57:29.467Z</time>
      </trkpt>
      <trkpt lat="46.38113" lon="8.03934">
        <ele>1887</ele>
        <time>2021-07-10T10:57:30.468Z</time>
      </trkpt>
      <trkpt lat="46.38113" lon="8.03934">
        <ele>1887</ele>
        <time>2021-07-10T10:57:31.467Z</time>
      </trkpt>
      <trkpt lat="46.38114" lon="8.03935">
        <ele>1887</ele>
        <time>2021-07-10T10:57:32.468Z</time>
      </trkpt>
      <trkpt lat="46.38114" lon="8.03936">
        <ele>1888</ele>
        <time>2021-07-10T10:57:33.467Z</time>
      </trkpt>
      <trkpt lat="46.38114" lon="8.03936">
        <ele>1888</ele>
        <time>2021-07-10T10:57:34.468Z</time>
      </trkpt>
      <trkpt lat="46.38114" lon="8.03936">
        <ele>1889</ele>
        <time>2021-07-10T10:57:35.468Z</time>
      </trkpt>
      <trkpt lat="46.38113" lon="8.03936">
        <ele>1890</ele>
        <time>2021-07-10T10:57:36.467Z</time>
      </trkpt>
      <trkpt lat="46.38112" lon="8.03936">
        <ele>1891</ele>
        <time>2021-07-10T10:57:37.468Z</time>
      </trkpt>
      <trkpt lat="46.38111" lon="8.03936">
        <ele>1891</ele>
        <time>2021-07-10T10:57:38.467Z</time>
      </trkpt>
      <trkpt lat="46.38111" lon="8.03936">
        <ele>1891</ele>
        <time>2021-07-10T10:57:39.468Z</time>
      </trkpt>
      <trkpt lat="46.38111" lon="8.03936">
        <ele>1892</ele>
        <time>2021-07-10T10:57:40.468Z</time>
      </trkpt>
      <trkpt lat="46.38111" lon="8.03936">
        <ele>1892</ele>
        <time>2021-07-10T10:57:41.467Z</time>
      </trkpt>
      <trkpt lat="46.3811" lon="8.03935">
        <ele>1892</ele>
        <time>2021-07-10T10:57:42.467Z</time>
      </trkpt>
      <trkpt lat="46.3811" lon="8.03934">
        <ele>1891</ele>
        <time>2021-07-10T10:57:43.467Z</time>
      </trkpt>
      <trkpt lat="46.3811" lon="8.03934">
        <ele>1891</ele>
        <time>2021-07-10T10:57:44.468Z</time>
      </trkpt>
      <trkpt lat="46.3811" lon="8.03934">
        <ele>1891</ele>
        <time>2021-07-10T10:57:45.468Z</time>
      </trkpt>
      <trkpt lat="46.38109" lon="8.03934">
        <ele>1891</ele>
        <time>2021-07-10T10:57:46.468Z</time>
      </trkpt>
      <trkpt lat="46.38108" lon="8.03935">
        <ele>1891</ele>
        <time>2021-07-10T10:57:47.467Z</time>
      </trkpt>
      <trkpt lat="46.38107" lon="8.03937">
        <ele>1890</ele>
        <time>2021-07-10T10:57:48.468Z</time>
      </trkpt>
      <trkpt lat="46.38106" lon="8.03939">
        <ele>1890</ele>
        <time>2021-07-10T10:57:49.468Z</time>
      </trkpt>
      <trkpt lat="46.38105" lon="8.03941">
        <ele>1891</ele>
        <time>2021-07-10T10:57:50.467Z</time>
      </trkpt>
      <trkpt lat="46.38105" lon="8.03941">
        <ele>1891</ele>
        <time>2021-07-10T10:57:51.468Z</time>
      </trkpt>
      <trkpt lat="46.38106" lon="8.0394">
        <ele>1891</ele>
        <time>2021-07-10T10:57:52.468Z</time>
      </trkpt>
      <trkpt lat="46.38107" lon="8.0394">
        <ele>1891</ele>
        <time>2021-07-10T10:57:53.468Z</time>
      </trkpt>
      <trkpt lat="46.38108" lon="8.03938">
        <ele>1891</ele>
        <time>2021-07-10T10:57:54.467Z</time>
      </trkpt>
      <trkpt lat="46.38108" lon="8.03937">
        <ele>1891</ele>
        <time>2021-07-10T10:57:55.468Z</time>
      </trkpt>
      <trkpt lat="46.38109" lon="8.03935">
        <ele>1892</ele>
        <time>2021-07-10T10:57:56.468Z</time>
      </trkpt>
      <trkpt lat="46.38109" lon="8.03934">
        <ele>1892</ele>
        <time>2021-07-10T10:57:57.467Z</time>
      </trkpt>
      <trkpt lat="46.38109" lon="8.03933">
        <ele>1892</ele>
        <time>2021-07-10T10:57:58.467Z</time>
      </trkpt>
      <trkpt lat="46.38109" lon="8.03932">
        <ele>1893</ele>
        <time>2021-07-10T10:57:59.467Z</time>
      </trkpt>
      <trkpt lat="46.3811" lon="8.03929">
        <ele>1894</ele>
        <time>2021-07-10T10:58:00.468Z</time>
      </trkpt>
      <trkpt lat="46.3811" lon="8.03928">
        <ele>1895</ele>
        <time>2021-07-10T10:58:01.467Z</time>
      </trkpt>
      <trkpt lat="46.38109" lon="8.03927">
        <ele>1895</ele>
        <time>2021-07-10T10:58:02.467Z</time>
      </trkpt>
      <trkpt lat="46.38109" lon="8.03926">
        <ele>1895</ele>
        <time>2021-07-10T10:58:03.468Z</time>
      </trkpt>
      <trkpt lat="46.38109" lon="8.03925">
        <ele>1895</ele>
        <time>2021-07-10T10:58:04.467Z</time>
      </trkpt>
      <trkpt lat="46.38109" lon="8.03924">
        <ele>1894</ele>
        <time>2021-07-10T10:58:05.468Z</time>
      </trkpt>
      <trkpt lat="46.3811" lon="8.03924">
        <ele>1894</ele>
        <time>2021-07-10T10:58:06.468Z</time>
      </trkpt>
      <trkpt lat="46.38111" lon="8.03924">
        <ele>1894</ele>
        <time>2021-07-10T10:58:07.468Z</time>
      </trkpt>
      <trkpt lat="46.38114" lon="8.03924">
        <ele>1894</ele>
        <time>2021-07-10T10:58:08.468Z</time>
      </trkpt>
      <trkpt lat="46.38117" lon="8.03925">
        <ele>1894</ele>
        <time>2021-07-10T10:58:09.467Z</time>
      </trkpt>
      <trkpt lat="46.38119" lon="8.03925">
        <ele>1894</ele>
        <time>2021-07-10T10:58:10.468Z</time>
      </trkpt>
      <trkpt lat="46.38121" lon="8.03924">
        <ele>1894</ele>
        <time>2021-07-10T10:58:11.468Z</time>
      </trkpt>
      <trkpt lat="46.38123" lon="8.03924">
        <ele>1894</ele>
        <time>2021-07-10T10:58:12.467Z</time>
      </trkpt>
      <trkpt lat="46.38124" lon="8.03924">
        <ele>1894</ele>
        <time>2021-07-10T10:58:13.468Z</time>
      </trkpt>
      <trkpt lat="46.38124" lon="8.03924">
        <ele>1893</ele>
        <time>2021-07-10T10:58:14.468Z</time>
      </trkpt>
      <trkpt lat="46.38124" lon="8.03924">
        <ele>1893</ele>
        <time>2021-07-10T10:58:15.467Z</time>
      </trkpt>
      <trkpt lat="46.38124" lon="8.03926">
        <ele>1893</ele>
        <time>2021-07-10T10:58:16.468Z</time>
      </trkpt>
      <trkpt lat="46.38124" lon="8.03927">
        <ele>1893</ele>
        <time>2021-07-10T10:58:17.468Z</time>
      </trkpt>
      <trkpt lat="46.38124" lon="8.03928">
        <ele>1893</ele>
        <time>2021-07-10T10:58:18.468Z</time>
      </trkpt>
      <trkpt lat="46.38125" lon="8.0393">
        <ele>1894</ele>
        <time>2021-07-10T10:58:19.468Z</time>
      </trkpt>
      <trkpt lat="46.38125" lon="8.03931">
        <ele>1894</ele>
        <time>2021-07-10T10:58:20.468Z</time>
      </trkpt>
      <trkpt lat="46.38125" lon="8.03932">
        <ele>1894</ele>
        <time>2021-07-10T10:58:21.468Z</time>
      </trkpt>
      <trkpt lat="46.38126" lon="8.03931">
        <ele>1894</ele>
        <time>2021-07-10T10:58:22.468Z</time>
      </trkpt>
      <trkpt lat="46.3813" lon="8.03928">
        <ele>1895</ele>
        <time>2021-07-10T10:58:23.468Z</time>
      </trkpt>
      <trkpt lat="46.38132" lon="8.03927">
        <ele>1895</ele>
        <time>2021-07-10T10:58:24.468Z</time>
      </trkpt>
      <trkpt lat="46.38133" lon="8.03927">
        <ele>1895</ele>
        <time>2021-07-10T10:58:25.467Z</time>
      </trkpt>
      <trkpt lat="46.38134" lon="8.03926">
        <ele>1895</ele>
        <time>2021-07-10T10:58:26.468Z</time>
      </trkpt>
      <trkpt lat="46.38134" lon="8.03926">
        <ele>1895</ele>
        <time>2021-07-10T10:58:27.467Z</time>
      </trkpt>
      <trkpt lat="46.38134" lon="8.03927">
        <ele>1895</ele>
        <time>2021-07-10T10:58:28.467Z</time>
      </trkpt>
      <trkpt lat="46.38133" lon="8.03927">
        <ele>1895</ele>
        <time>2021-07-10T10:58:29.468Z</time>
      </trkpt>
      <trkpt lat="46.38133" lon="8.03927">
        <ele>1895</ele>
        <time>2021-07-10T10:58:30.468Z</time>
      </trkpt>
      <trkpt lat="46.38131" lon="8.03928">
        <ele>1896</ele>
        <time>2021-07-10T10:58:31.468Z</time>
      </trkpt>
      <trkpt lat="46.3813" lon="8.03929">
        <ele>1896</ele>
        <time>2021-07-10T10:58:32.468Z</time>
      </trkpt>
      <trkpt lat="46.38128" lon="8.03929">
        <ele>1897</ele>
        <time>2021-07-10T10:58:33.468Z</time>
      </trkpt>
      <trkpt lat="46.38126" lon="8.0393">
        <ele>1897</ele>
        <time>2021-07-10T10:58:34.468Z</time>
      </trkpt>
      <trkpt lat="46.38124" lon="8.03931">
        <ele>1897</ele>
        <time>2021-07-10T10:58:35.468Z</time>
      </trkpt>
      <trkpt lat="46.38123" lon="8.03932">
        <ele>1897</ele>
        <time>2021-07-10T10:58:36.468Z</time>
      </trkpt>
      <trkpt lat="46.38122" lon="8.03932">
        <ele>1896</ele>
        <time>2021-07-10T10:58:37.468Z</time>
      </trkpt>
      <trkpt lat="46.3812" lon="8.03932">
        <ele>1896</ele>
        <time>2021-07-10T10:58:38.467Z</time>
      </trkpt>
      <trkpt lat="46.38118" lon="8.03932">
        <ele>1896</ele>
        <time>2021-07-10T10:58:39.467Z</time>
      </trkpt>
      <trkpt lat="46.38115" lon="8.03933">
        <ele>1895</ele>
        <time>2021-07-10T10:58:40.468Z</time>
      </trkpt>
      <trkpt lat="46.38115" lon="8.03932">
        <ele>1894</ele>
        <time>2021-07-10T10:58:41.469Z</time>
      </trkpt>
      <trkpt lat="46.38114" lon="8.03932">
        <ele>1894</ele>
        <time>2021-07-10T10:58:42.468Z</time>
      </trkpt>
      <trkpt lat="46.38114" lon="8.03931">
        <ele>1894</ele>
        <time>2021-07-10T10:58:43.469Z</time>
      </trkpt>
      <trkpt lat="46.38113" lon="8.0393">
        <ele>1894</ele>
        <time>2021-07-10T10:58:44.469Z</time>
      </trkpt>
      <trkpt lat="46.38113" lon="8.03929">
        <ele>1894</ele>
        <time>2021-07-10T10:58:45.468Z</time>
      </trkpt>
      <trkpt lat="46.38112" lon="8.03928">
        <ele>1894</ele>
        <time>2021-07-10T10:58:46.469Z</time>
      </trkpt>
      <trkpt lat="46.38112" lon="8.03927">
        <ele>1894</ele>
        <time>2021-07-10T10:58:47.469Z</time>
      </trkpt>
      <trkpt lat="46.38112" lon="8.03926">
        <ele>1894</ele>
        <time>2021-07-10T10:58:48.469Z</time>
      </trkpt>
      <trkpt lat="46.38112" lon="8.03924">
        <ele>1895</ele>
        <time>2021-07-10T10:58:49.468Z</time>
      </trkpt>
      <trkpt lat="46.3811" lon="8.03922">
        <ele>1896</ele>
        <time>2021-07-10T10:58:50.469Z</time>
      </trkpt>
      <trkpt lat="46.3811" lon="8.03923">
        <ele>1897</ele>
        <time>2021-07-10T10:58:51.468Z</time>
      </trkpt>
      <trkpt lat="46.38109" lon="8.03924">
        <ele>1897</ele>
        <time>2021-07-10T10:58:52.469Z</time>
      </trkpt>
      <trkpt lat="46.38109" lon="8.03927">
        <ele>1898</ele>
        <time>2021-07-10T10:58:53.469Z</time>
      </trkpt>
      <trkpt lat="46.38109" lon="8.0393">
        <ele>1898</ele>
        <time>2021-07-10T10:58:54.469Z</time>
      </trkpt>
      <trkpt lat="46.38109" lon="8.03933">
        <ele>1897</ele>
        <time>2021-07-10T10:58:55.469Z</time>
      </trkpt>
      <trkpt lat="46.38108" lon="8.03935">
        <ele>1897</ele>
        <time>2021-07-10T10:58:56.469Z</time>
      </trkpt>
      <trkpt lat="46.38107" lon="8.03937">
        <ele>1896</ele>
        <time>2021-07-10T10:58:57.469Z</time>
      </trkpt>
      <trkpt lat="46.38107" lon="8.03938">
        <ele>1896</ele>
        <time>2021-07-10T10:58:58.468Z</time>
      </trkpt>
      <trkpt lat="46.38106" lon="8.03939">
        <ele>1896</ele>
        <time>2021-07-10T10:58:59.468Z</time>
      </trkpt>
      <trkpt lat="46.38106" lon="8.03942">
        <ele>1896</ele>
        <time>2021-07-10T10:59:00.469Z</time>
      </trkpt>
      <trkpt lat="46.38105" lon="8.03944">
        <ele>1896</ele>
        <time>2021-07-10T10:59:01.469Z</time>
      </trkpt>
      <trkpt lat="46.38104" lon="8.03945">
        <ele>1896</ele>
        <time>2021-07-10T10:59:02.468Z</time>
      </trkpt>
      <trkpt lat="46.38104" lon="8.03945">
        <ele>1896</ele>
        <time>2021-07-10T10:59:03.468Z</time>
      </trkpt>
      <trkpt lat="46.38103" lon="8.03946">
        <ele>1896</ele>
        <time>2021-07-10T10:59:04.469Z</time>
      </trkpt>
      <trkpt lat="46.38102" lon="8.03948">
        <ele>1896</ele>
        <time>2021-07-10T10:59:05.469Z</time>
      </trkpt>
      <trkpt lat="46.38103" lon="8.03949">
        <ele>1896</ele>
        <time>2021-07-10T10:59:06.469Z</time>
      </trkpt>
      <trkpt lat="46.38103" lon="8.03951">
        <ele>1896</ele>
        <time>2021-07-10T10:59:07.469Z</time>
      </trkpt>
      <trkpt lat="46.38103" lon="8.03953">
        <ele>1896</ele>
        <time>2021-07-10T10:59:08.468Z</time>
      </trkpt>
      <trkpt lat="46.38103" lon="8.03953">
        <ele>1897</ele>
        <time>2021-07-10T10:59:09.469Z</time>
      </trkpt>
      <trkpt lat="46.38103" lon="8.03952">
        <ele>1897</ele>
        <time>2021-07-10T10:59:10.469Z</time>
      </trkpt>
      <trkpt lat="46.38102" lon="8.03951">
        <ele>1898</ele>
        <time>2021-07-10T10:59:11.469Z</time>
      </trkpt>
      <trkpt lat="46.38101" lon="8.03949">
        <ele>1898</ele>
        <time>2021-07-10T10:59:12.469Z</time>
      </trkpt>
      <trkpt lat="46.381" lon="8.03947">
        <ele>1899</ele>
        <time>2021-07-10T10:59:13.469Z</time>
      </trkpt>
      <trkpt lat="46.38101" lon="8.03945">
        <ele>1900</ele>
        <time>2021-07-10T10:59:14.469Z</time>
      </trkpt>
      <trkpt lat="46.38101" lon="8.03942">
        <ele>1900</ele>
        <time>2021-07-10T10:59:15.468Z</time>
      </trkpt>
      <trkpt lat="46.38101" lon="8.03941">
        <ele>1901</ele>
        <time>2021-07-10T10:59:16.468Z</time>
      </trkpt>
      <trkpt lat="46.38101" lon="8.03941">
        <ele>1902</ele>
        <time>2021-07-10T10:59:17.469Z</time>
      </trkpt>
      <trkpt lat="46.38101" lon="8.03941">
        <ele>1903</ele>
        <time>2021-07-10T10:59:18.469Z</time>
      </trkpt>
      <trkpt lat="46.381" lon="8.03939">
        <ele>1905</ele>
        <time>2021-07-10T10:59:19.468Z</time>
      </trkpt>
      <trkpt lat="46.38121" lon="8.03964">
        <ele>1913</ele>
        <time>2021-07-10T11:00:59.469Z</time>
      </trkpt>
      <trkpt lat="46.38116" lon="8.0396">
        <ele>1916</ele>
        <time>2021-07-10T11:01:00.468Z</time>
      </trkpt>
      <trkpt lat="46.38116" lon="8.03961">
        <ele>1919</ele>
        <time>2021-07-10T11:01:01.469Z</time>
      </trkpt>
      <trkpt lat="46.38115" lon="8.03964">
        <ele>1921</ele>
        <time>2021-07-10T11:01:02.468Z</time>
      </trkpt>
      <trkpt lat="46.38112" lon="8.03963">
        <ele>1922</ele>
        <time>2021-07-10T11:01:03.468Z</time>
      </trkpt>
      <trkpt lat="46.38111" lon="8.03964">
        <ele>1922</ele>
        <time>2021-07-10T11:01:04.469Z</time>
      </trkpt>
      <trkpt lat="46.38111" lon="8.0396">
        <ele>1921</ele>
        <time>2021-07-10T11:01:05.470Z</time>
      </trkpt>
      <trkpt lat="46.38112" lon="8.03959">
        <ele>1919</ele>
        <time>2021-07-10T11:01:06.469Z</time>
      </trkpt>
      <trkpt lat="46.38112" lon="8.03958">
        <ele>1917</ele>
        <time>2021-07-10T11:01:07.469Z</time>
      </trkpt>
      <trkpt lat="46.38112" lon="8.03956">
        <ele>1916</ele>
        <time>2021-07-10T11:01:08.470Z</time>
      </trkpt>
      <trkpt lat="46.38112" lon="8.03955">
        <ele>1914</ele>
        <time>2021-07-10T11:01:09.470Z</time>
      </trkpt>
      <trkpt lat="46.38113" lon="8.03954">
        <ele>1913</ele>
        <time>2021-07-10T11:01:10.470Z</time>
      </trkpt>
      <trkpt lat="46.38114" lon="8.03953">
        <ele>1912</ele>
        <time>2021-07-10T11:01:11.470Z</time>
      </trkpt>
      <trkpt lat="46.38116" lon="8.03952">
        <ele>1911</ele>
        <time>2021-07-10T11:01:12.470Z</time>
      </trkpt>
      <trkpt lat="46.38117" lon="8.03952">
        <ele>1910</ele>
        <time>2021-07-10T11:01:13.470Z</time>
      </trkpt>
      <trkpt lat="46.38118" lon="8.03953">
        <ele>1909</ele>
        <time>2021-07-10T11:01:14.470Z</time>
      </trkpt>
      <trkpt lat="46.38117" lon="8.03953">
        <ele>1908</ele>
        <time>2021-07-10T11:01:15.470Z</time>
      </trkpt>
      <trkpt lat="46.38114" lon="8.03953">
        <ele>1906</ele>
        <time>2021-07-10T11:01:16.470Z</time>
      </trkpt>
      <trkpt lat="46.38114" lon="8.03953">
        <ele>1905</ele>
        <time>2021-07-10T11:01:17.471Z</time>
      </trkpt>
      <trkpt lat="46.38113" lon="8.03952">
        <ele>1904</ele>
        <time>2021-07-10T11:01:18.470Z</time>
      </trkpt>
      <trkpt lat="46.38113" lon="8.03951">
        <ele>1903</ele>
        <time>2021-07-10T11:01:19.470Z</time>
      </trkpt>
      <trkpt lat="46.38115" lon="8.03954">
        <ele>1900</ele>
        <time>2021-07-10T11:01:20.472Z</time>
      </trkpt>
      <trkpt lat="46.38115" lon="8.03954">
        <ele>1900</ele>
        <time>2021-07-10T11:01:21.471Z</time>
      </trkpt>
      <trkpt lat="46.38115" lon="8.03953">
        <ele>1899</ele>
        <time>2021-07-10T11:01:22.471Z</time>
      </trkpt>
      <trkpt lat="46.38114" lon="8.03953">
        <ele>1898</ele>
        <time>2021-07-10T11:01:23.472Z</time>
      </trkpt>
      <trkpt lat="46.38114" lon="8.03952">
        <ele>1898</ele>
        <time>2021-07-10T11:01:24.471Z</time>
      </trkpt>
      <trkpt lat="46.38114" lon="8.03952">
        <ele>1897</ele>
        <time>2021-07-10T11:01:25.472Z</time>
      </trkpt>
      <trkpt lat="46.38113" lon="8.03952">
        <ele>1896</ele>
        <time>2021-07-10T11:01:26.472Z</time>
      </trkpt>
      <trkpt lat="46.38113" lon="8.03952">
        <ele>1896</ele>
        <time>2021-07-10T11:01:27.472Z</time>
      </trkpt>
      <trkpt lat="46.3811" lon="8.03955">
        <ele>1895</ele>
        <time>2021-07-10T11:01:28.472Z</time>
      </trkpt>
      <trkpt lat="46.3811" lon="8.03956">
        <ele>1894</ele>
        <time>2021-07-10T11:01:29.473Z</time>
      </trkpt>
      <trkpt lat="46.3811" lon="8.03957">
        <ele>1894</ele>
        <time>2021-07-10T11:01:30.473Z</time>
      </trkpt>
      <trkpt lat="46.3811" lon="8.03957">
        <ele>1894</ele>
        <time>2021-07-10T11:01:31.473Z</time>
      </trkpt>
      <trkpt lat="46.3811" lon="8.03956">
        <ele>1892</ele>
        <time>2021-07-10T11:01:32.473Z</time>
      </trkpt>
      <trkpt lat="46.38109" lon="8.03956">
        <ele>1892</ele>
        <time>2021-07-10T11:01:33.473Z</time>
      </trkpt>
      <trkpt lat="46.38109" lon="8.03956">
        <ele>1892</ele>
        <time>2021-07-10T11:01:34.472Z</time>
      </trkpt>
      <trkpt lat="46.3811" lon="8.03959">
        <ele>1890</ele>
        <time>2021-07-10T11:01:35.472Z</time>
      </trkpt>
      <trkpt lat="46.3811" lon="8.03959">
        <ele>1890</ele>
        <time>2021-07-10T11:01:36.472Z</time>
      </trkpt>
      <trkpt lat="46.38111" lon="8.03961">
        <ele>1890</ele>
        <time>2021-07-10T11:01:37.473Z</time>
      </trkpt>
      <trkpt lat="46.38112" lon="8.03961">
        <ele>1889</ele>
        <time>2021-07-10T11:01:38.472Z</time>
      </trkpt>
      <trkpt lat="46.38113" lon="8.03961">
        <ele>1889</ele>
        <time>2021-07-10T11:01:39.472Z</time>
      </trkpt>
      <trkpt lat="46.38114" lon="8.03961">
        <ele>1888</ele>
        <time>2021-07-10T11:01:40.472Z</time>
      </trkpt>
      <trkpt lat="46.38114" lon="8.0396">
        <ele>1888</ele>
        <time>2021-07-10T11:01:41.473Z</time>
      </trkpt>
      <trkpt lat="46.38114" lon="8.0396">
        <ele>1888</ele>
        <time>2021-07-10T11:01:42.473Z</time>
      </trkpt>
      <trkpt lat="46.38113" lon="8.0396">
        <ele>1887</ele>
        <time>2021-07-10T11:01:43.473Z</time>
      </trkpt>
      <trkpt lat="46.38113" lon="8.03959">
        <ele>1887</ele>
        <time>2021-07-10T11:01:44.473Z</time>
      </trkpt>
      <trkpt lat="46.38112" lon="8.03959">
        <ele>1886</ele>
        <time>2021-07-10T11:01:45.473Z</time>
      </trkpt>
      <trkpt lat="46.38112" lon="8.03959">
        <ele>1886</ele>
        <time>2021-07-10T11:01:46.472Z</time>
      </trkpt>
      <trkpt lat="46.38113" lon="8.03959">
        <ele>1885</ele>
        <time>2021-07-10T11:01:47.473Z</time>
      </trkpt>
      <trkpt lat="46.38113" lon="8.03959">
        <ele>1885</ele>
        <time>2021-07-10T11:01:48.472Z</time>
      </trkpt>
      <trkpt lat="46.38114" lon="8.03958">
        <ele>1884</ele>
        <time>2021-07-10T11:01:49.472Z</time>
      </trkpt>
      <trkpt lat="46.38115" lon="8.03958">
        <ele>1884</ele>
        <time>2021-07-10T11:01:50.473Z</time>
      </trkpt>
      <trkpt lat="46.38115" lon="8.03959">
        <ele>1884</ele>
        <time>2021-07-10T11:01:51.472Z</time>
      </trkpt>
      <trkpt lat="46.38116" lon="8.0396">
        <ele>1883</ele>
        <time>2021-07-10T11:01:52.472Z</time>
      </trkpt>
      <trkpt lat="46.38116" lon="8.03962">
        <ele>1883</ele>
        <time>2021-07-10T11:01:53.473Z</time>
      </trkpt>
      <trkpt lat="46.38117" lon="8.03964">
        <ele>1883</ele>
        <time>2021-07-10T11:01:54.473Z</time>
      </trkpt>
      <trkpt lat="46.38117" lon="8.03965">
        <ele>1882</ele>
        <time>2021-07-10T11:01:55.473Z</time>
      </trkpt>
      <trkpt lat="46.38117" lon="8.03966">
        <ele>1882</ele>
        <time>2021-07-10T11:01:56.473Z</time>
      </trkpt>
      <trkpt lat="46.38116" lon="8.03966">
        <ele>1882</ele>
        <time>2021-07-10T11:01:57.472Z</time>
      </trkpt>
      <trkpt lat="46.38116" lon="8.03966">
        <ele>1881</ele>
        <time>2021-07-10T11:01:58.473Z</time>
      </trkpt>
      <trkpt lat="46.38115" lon="8.03967">
        <ele>1881</ele>
        <time>2021-07-10T11:01:59.473Z</time>
      </trkpt>
      <trkpt lat="46.38115" lon="8.03966">
        <ele>1881</ele>
        <time>2021-07-10T11:02:00.472Z</time>
      </trkpt>
      <trkpt lat="46.38115" lon="8.03966">
        <ele>1881</ele>
        <time>2021-07-10T11:02:01.472Z</time>
      </trkpt>
      <trkpt lat="46.38115" lon="8.03966">
        <ele>1880</ele>
        <time>2021-07-10T11:02:02.473Z</time>
      </trkpt>
      <trkpt lat="46.38116" lon="8.03967">
        <ele>1877</ele>
        <time>2021-07-10T11:02:03.473Z</time>
      </trkpt>
      <trkpt lat="46.38116" lon="8.03967">
        <ele>1877</ele>
        <time>2021-07-10T11:02:04.473Z</time>
      </trkpt>
      <trkpt lat="46.38116" lon="8.03968">
        <ele>1876</ele>
        <time>2021-07-10T11:02:05.473Z</time>
      </trkpt>
      <trkpt lat="46.38117" lon="8.03969">
        <ele>1875</ele>
        <time>2021-07-10T11:02:06.474Z</time>
      </trkpt>
      <trkpt lat="46.38117" lon="8.03969">
        <ele>1875</ele>
        <time>2021-07-10T11:02:07.474Z</time>
      </trkpt>
      <trkpt lat="46.38117" lon="8.0397">
        <ele>1874</ele>
        <time>2021-07-10T11:02:08.473Z</time>
      </trkpt>
      <trkpt lat="46.38117" lon="8.0397">
        <ele>1874</ele>
        <time>2021-07-10T11:02:09.474Z</time>
      </trkpt>
      <trkpt lat="46.38118" lon="8.03969">
        <ele>1873</ele>
        <time>2021-07-10T11:02:10.474Z</time>
      </trkpt>
      <trkpt lat="46.38118" lon="8.03969">
        <ele>1873</ele>
        <time>2021-07-10T11:02:11.474Z</time>
      </trkpt>
      <trkpt lat="46.38117" lon="8.03969">
        <ele>1873</ele>
        <time>2021-07-10T11:02:12.475Z</time>
      </trkpt>
      <trkpt lat="46.38117" lon="8.03968">
        <ele>1873</ele>
        <time>2021-07-10T11:02:13.474Z</time>
      </trkpt>
      <trkpt lat="46.38116" lon="8.03968">
        <ele>1872</ele>
        <time>2021-07-10T11:02:14.474Z</time>
      </trkpt>
      <trkpt lat="46.38116" lon="8.03967">
        <ele>1872</ele>
        <time>2021-07-10T11:02:15.475Z</time>
      </trkpt>
      <trkpt lat="46.38117" lon="8.03965">
        <ele>1872</ele>
        <time>2021-07-10T11:02:16.474Z</time>
      </trkpt>
      <trkpt lat="46.38118" lon="8.03964">
        <ele>1872</ele>
        <time>2021-07-10T11:02:17.474Z</time>
      </trkpt>
      <trkpt lat="46.38119" lon="8.03962">
        <ele>1872</ele>
        <time>2021-07-10T11:02:18.475Z</time>
      </trkpt>
      <trkpt lat="46.38119" lon="8.03962">
        <ele>1872</ele>
        <time>2021-07-10T11:02:19.475Z</time>
      </trkpt>
      <trkpt lat="46.38119" lon="8.03962">
        <ele>1872</ele>
        <time>2021-07-10T11:02:20.475Z</time>
      </trkpt>
      <trkpt lat="46.3812" lon="8.03963">
        <ele>1872</ele>
        <time>2021-07-10T11:02:21.475Z</time>
      </trkpt>
      <trkpt lat="46.38118" lon="8.03961">
        <ele>1872</ele>
        <time>2021-07-10T11:02:22.475Z</time>
      </trkpt>
      <trkpt lat="46.38118" lon="8.0396">
        <ele>1872</ele>
        <time>2021-07-10T11:02:23.474Z</time>
      </trkpt>
      <trkpt lat="46.38118" lon="8.03959">
        <ele>1872</ele>
        <time>2021-07-10T11:02:24.474Z</time>
      </trkpt>
      <trkpt lat="46.38119" lon="8.03958">
        <ele>1873</ele>
        <time>2021-07-10T11:02:25.474Z</time>
      </trkpt>
      <trkpt lat="46.38119" lon="8.03958">
        <ele>1873</ele>
        <time>2021-07-10T11:02:26.474Z</time>
      </trkpt>
      <trkpt lat="46.38119" lon="8.03959">
        <ele>1873</ele>
        <time>2021-07-10T11:02:27.474Z</time>
      </trkpt>
      <trkpt lat="46.3812" lon="8.0396">
        <ele>1874</ele>
        <time>2021-07-10T11:02:28.475Z</time>
      </trkpt>
      <trkpt lat="46.3812" lon="8.03961">
        <ele>1874</ele>
        <time>2021-07-10T11:02:29.475Z</time>
      </trkpt>
      <trkpt lat="46.3812" lon="8.03963">
        <ele>1874</ele>
        <time>2021-07-10T11:02:30.475Z</time>
      </trkpt>
      <trkpt lat="46.38121" lon="8.03965">
        <ele>1875</ele>
        <time>2021-07-10T11:02:31.475Z</time>
      </trkpt>
      <trkpt lat="46.38121" lon="8.03966">
        <ele>1875</ele>
        <time>2021-07-10T11:02:32.474Z</time>
      </trkpt>
      <trkpt lat="46.38122" lon="8.03967">
        <ele>1876</ele>
        <time>2021-07-10T11:02:33.475Z</time>
      </trkpt>
      <trkpt lat="46.38122" lon="8.03967">
        <ele>1876</ele>
        <time>2021-07-10T11:02:34.474Z</time>
      </trkpt>
      <trkpt lat="46.38123" lon="8.03967">
        <ele>1876</ele>
        <time>2021-07-10T11:02:35.475Z</time>
      </trkpt>
      <trkpt lat="46.38124" lon="8.03968">
        <ele>1877</ele>
        <time>2021-07-10T11:02:36.475Z</time>
      </trkpt>
      <trkpt lat="46.38123" lon="8.03967">
        <ele>1877</ele>
        <time>2021-07-10T11:02:37.474Z</time>
      </trkpt>
      <trkpt lat="46.38122" lon="8.03968">
        <ele>1878</ele>
        <time>2021-07-10T11:02:38.475Z</time>
      </trkpt>
      <trkpt lat="46.38123" lon="8.03968">
        <ele>1878</ele>
        <time>2021-07-10T11:02:39.474Z</time>
      </trkpt>
      <trkpt lat="46.38123" lon="8.03968">
        <ele>1878</ele>
        <time>2021-07-10T11:02:40.475Z</time>
      </trkpt>
      <trkpt lat="46.38124" lon="8.03968">
        <ele>1879</ele>
        <time>2021-07-10T11:02:41.475Z</time>
      </trkpt>
      <trkpt lat="46.38125" lon="8.03968">
        <ele>1879</ele>
        <time>2021-07-10T11:02:42.474Z</time>
      </trkpt>
      <trkpt lat="46.38125" lon="8.03966">
        <ele>1879</ele>
        <time>2021-07-10T11:02:43.475Z</time>
      </trkpt>
      <trkpt lat="46.38126" lon="8.03965">
        <ele>1879</ele>
        <time>2021-07-10T11:02:44.475Z</time>
      </trkpt>
      <trkpt lat="46.38127" lon="8.03966">
        <ele>1880</ele>
        <time>2021-07-10T11:02:45.474Z</time>
      </trkpt>
      <trkpt lat="46.38129" lon="8.03966">
        <ele>1879</ele>
        <time>2021-07-10T11:02:46.475Z</time>
      </trkpt>
      <trkpt lat="46.38132" lon="8.03967">
        <ele>1879</ele>
        <time>2021-07-10T11:02:47.475Z</time>
      </trkpt>
      <trkpt lat="46.38135" lon="8.0397">
        <ele>1878</ele>
        <time>2021-07-10T11:02:48.475Z</time>
      </trkpt>
      <trkpt lat="46.38138" lon="8.03972">
        <ele>1877</ele>
        <time>2021-07-10T11:02:49.475Z</time>
      </trkpt>
      <trkpt lat="46.38142" lon="8.03974">
        <ele>1876</ele>
        <time>2021-07-10T11:02:50.474Z</time>
      </trkpt>
      <trkpt lat="46.38146" lon="8.03976">
        <ele>1876</ele>
        <time>2021-07-10T11:02:51.475Z</time>
      </trkpt>
      <trkpt lat="46.3815" lon="8.03978">
        <ele>1875</ele>
        <time>2021-07-10T11:02:52.474Z</time>
      </trkpt>
      <trkpt lat="46.38153" lon="8.0398">
        <ele>1874</ele>
        <time>2021-07-10T11:02:53.475Z</time>
      </trkpt>
      <trkpt lat="46.38156" lon="8.03982">
        <ele>1873</ele>
        <time>2021-07-10T11:02:54.475Z</time>
      </trkpt>
      <trkpt lat="46.3816" lon="8.03984">
        <ele>1872</ele>
        <time>2021-07-10T11:02:55.475Z</time>
      </trkpt>
      <trkpt lat="46.38163" lon="8.03987">
        <ele>1871</ele>
        <time>2021-07-10T11:02:56.475Z</time>
      </trkpt>
      <trkpt lat="46.38166" lon="8.03989">
        <ele>1871</ele>
        <time>2021-07-10T11:02:57.475Z</time>
      </trkpt>
      <trkpt lat="46.38169" lon="8.03991">
        <ele>1870</ele>
        <time>2021-07-10T11:02:58.474Z</time>
      </trkpt>
      <trkpt lat="46.38172" lon="8.03993">
        <ele>1871</ele>
        <time>2021-07-10T11:02:59.474Z</time>
      </trkpt>
      <trkpt lat="46.38175" lon="8.03995">
        <ele>1871</ele>
        <time>2021-07-10T11:03:00.475Z</time>
      </trkpt>
      <trkpt lat="46.38178" lon="8.03997">
        <ele>1871</ele>
        <time>2021-07-10T11:03:01.475Z</time>
      </trkpt>
      <trkpt lat="46.38182" lon="8.04">
        <ele>1872</ele>
        <time>2021-07-10T11:03:02.474Z</time>
      </trkpt>
      <trkpt lat="46.38187" lon="8.04004">
        <ele>1872</ele>
        <time>2021-07-10T11:03:03.475Z</time>
      </trkpt>
      <trkpt lat="46.38192" lon="8.04007">
        <ele>1871</ele>
        <time>2021-07-10T11:03:04.474Z</time>
      </trkpt>
      <trkpt lat="46.38195" lon="8.0401">
        <ele>1871</ele>
        <time>2021-07-10T11:03:05.475Z</time>
      </trkpt>
      <trkpt lat="46.38198" lon="8.04012">
        <ele>1871</ele>
        <time>2021-07-10T11:03:06.475Z</time>
      </trkpt>
      <trkpt lat="46.38202" lon="8.04014">
        <ele>1870</ele>
        <time>2021-07-10T11:03:07.475Z</time>
      </trkpt>
      <trkpt lat="46.38205" lon="8.04017">
        <ele>1870</ele>
        <time>2021-07-10T11:03:08.474Z</time>
      </trkpt>
      <trkpt lat="46.38208" lon="8.04019">
        <ele>1870</ele>
        <time>2021-07-10T11:03:09.474Z</time>
      </trkpt>
      <trkpt lat="46.38211" lon="8.04021">
        <ele>1870</ele>
        <time>2021-07-10T11:03:10.475Z</time>
      </trkpt>
      <trkpt lat="46.38215" lon="8.04023">
        <ele>1869</ele>
        <time>2021-07-10T11:03:11.475Z</time>
      </trkpt>
      <trkpt lat="46.38218" lon="8.04024">
        <ele>1869</ele>
        <time>2021-07-10T11:03:12.474Z</time>
      </trkpt>
      <trkpt lat="46.38221" lon="8.04026">
        <ele>1869</ele>
        <time>2021-07-10T11:03:13.475Z</time>
      </trkpt>
      <trkpt lat="46.38225" lon="8.04028">
        <ele>1869</ele>
        <time>2021-07-10T11:03:14.475Z</time>
      </trkpt>
      <trkpt lat="46.38227" lon="8.0403">
        <ele>1869</ele>
        <time>2021-07-10T11:03:15.475Z</time>
      </trkpt>
      <trkpt lat="46.3823" lon="8.04032">
        <ele>1869</ele>
        <time>2021-07-10T11:03:16.475Z</time>
      </trkpt>
      <trkpt lat="46.38233" lon="8.04034">
        <ele>1869</ele>
        <time>2021-07-10T11:03:17.475Z</time>
      </trkpt>
      <trkpt lat="46.38236" lon="8.04036">
        <ele>1870</ele>
        <time>2021-07-10T11:03:18.475Z</time>
      </trkpt>
      <trkpt lat="46.3824" lon="8.04038">
        <ele>1870</ele>
        <time>2021-07-10T11:03:19.474Z</time>
      </trkpt>
      <trkpt lat="46.38242" lon="8.04038">
        <ele>1871</ele>
        <time>2021-07-10T11:03:20.475Z</time>
      </trkpt>
      <trkpt lat="46.38246" lon="8.0404">
        <ele>1871</ele>
        <time>2021-07-10T11:03:21.475Z</time>
      </trkpt>
      <trkpt lat="46.3825" lon="8.04042">
        <ele>1871</ele>
        <time>2021-07-10T11:03:22.474Z</time>
      </trkpt>
      <trkpt lat="46.38253" lon="8.04043">
        <ele>1872</ele>
        <time>2021-07-10T11:03:23.475Z</time>
      </trkpt>
      <trkpt lat="46.38256" lon="8.04045">
        <ele>1872</ele>
        <time>2021-07-10T11:03:24.475Z</time>
      </trkpt>
      <trkpt lat="46.38259" lon="8.04047">
        <ele>1872</ele>
        <time>2021-07-10T11:03:25.475Z</time>
      </trkpt>
      <trkpt lat="46.38262" lon="8.04048">
        <ele>1872</ele>
        <time>2021-07-10T11:03:26.475Z</time>
      </trkpt>
      <trkpt lat="46.38265" lon="8.0405">
        <ele>1873</ele>
        <time>2021-07-10T11:03:27.475Z</time>
      </trkpt>
      <trkpt lat="46.38268" lon="8.04052">
        <ele>1873</ele>
        <time>2021-07-10T11:03:28.474Z</time>
      </trkpt>
      <trkpt lat="46.38272" lon="8.04054">
        <ele>1874</ele>
        <time>2021-07-10T11:03:29.475Z</time>
      </trkpt>
      <trkpt lat="46.38275" lon="8.04055">
        <ele>1875</ele>
        <time>2021-07-10T11:03:30.475Z</time>
      </trkpt>
      <trkpt lat="46.38278" lon="8.04057">
        <ele>1876</ele>
        <time>2021-07-10T11:03:31.475Z</time>
      </trkpt>
      <trkpt lat="46.38281" lon="8.04059">
        <ele>1877</ele>
        <time>2021-07-10T11:03:32.474Z</time>
      </trkpt>
      <trkpt lat="46.38284" lon="8.04061">
        <ele>1878</ele>
        <time>2021-07-10T11:03:33.475Z</time>
      </trkpt>
      <trkpt lat="46.38287" lon="8.04063">
        <ele>1878</ele>
        <time>2021-07-10T11:03:34.475Z</time>
      </trkpt>
      <trkpt lat="46.3829" lon="8.04064">
        <ele>1879</ele>
        <time>2021-07-10T11:03:35.475Z</time>
      </trkpt>
      <trkpt lat="46.38293" lon="8.04066">
        <ele>1880</ele>
        <time>2021-07-10T11:03:36.474Z</time>
      </trkpt>
      <trkpt lat="46.38296" lon="8.04067">
        <ele>1880</ele>
        <time>2021-07-10T11:03:37.475Z</time>
      </trkpt>
      <trkpt lat="46.38299" lon="8.04069">
        <ele>1881</ele>
        <time>2021-07-10T11:03:38.474Z</time>
      </trkpt>
      <trkpt lat="46.38302" lon="8.0407">
        <ele>1882</ele>
        <time>2021-07-10T11:03:39.474Z</time>
      </trkpt>
      <trkpt lat="46.38305" lon="8.04072">
        <ele>1882</ele>
        <time>2021-07-10T11:03:40.474Z</time>
      </trkpt>
      <trkpt lat="46.38308" lon="8.04073">
        <ele>1883</ele>
        <time>2021-07-10T11:03:41.474Z</time>
      </trkpt>
      <trkpt lat="46.38311" lon="8.04075">
        <ele>1884</ele>
        <time>2021-07-10T11:03:42.475Z</time>
      </trkpt>
      <trkpt lat="46.38314" lon="8.04077">
        <ele>1885</ele>
        <time>2021-07-10T11:03:43.474Z</time>
      </trkpt>
      <trkpt lat="46.38318" lon="8.04081">
        <ele>1887</ele>
        <time>2021-07-10T11:03:44.474Z</time>
      </trkpt>
      <trkpt lat="46.38321" lon="8.04083">
        <ele>1889</ele>
        <time>2021-07-10T11:03:45.475Z</time>
      </trkpt>
      <trkpt lat="46.38324" lon="8.04084">
        <ele>1890</ele>
        <time>2021-07-10T11:03:46.475Z</time>
      </trkpt>
      <trkpt lat="46.38327" lon="8.04086">
        <ele>1892</ele>
        <time>2021-07-10T11:03:47.475Z</time>
      </trkpt>
      <trkpt lat="46.38329" lon="8.04088">
        <ele>1893</ele>
        <time>2021-07-10T11:03:48.475Z</time>
      </trkpt>
      <trkpt lat="46.38332" lon="8.0409">
        <ele>1895</ele>
        <time>2021-07-10T11:03:49.475Z</time>
      </trkpt>
      <trkpt lat="46.38335" lon="8.04092">
        <ele>1897</ele>
        <time>2021-07-10T11:03:50.475Z</time>
      </trkpt>
      <trkpt lat="46.38337" lon="8.04093">
        <ele>1899</ele>
        <time>2021-07-10T11:03:51.475Z</time>
      </trkpt>
      <trkpt lat="46.3834" lon="8.04095">
        <ele>1901</ele>
        <time>2021-07-10T11:03:52.474Z</time>
      </trkpt>
      <trkpt lat="46.38342" lon="8.04096">
        <ele>1903</ele>
        <time>2021-07-10T11:03:53.475Z</time>
      </trkpt>
      <trkpt lat="46.38343" lon="8.04097">
        <ele>1906</ele>
        <time>2021-07-10T11:03:54.474Z</time>
      </trkpt>
      <trkpt lat="46.38345" lon="8.04098">
        <ele>1908</ele>
        <time>2021-07-10T11:03:55.474Z</time>
      </trkpt>
      <trkpt lat="46.38346" lon="8.04099">
        <ele>1910</ele>
        <time>2021-07-10T11:03:56.475Z</time>
      </trkpt>
      <trkpt lat="46.38347" lon="8.04099">
        <ele>1913</ele>
        <time>2021-07-10T11:03:57.475Z</time>
      </trkpt>
      <trkpt lat="46.38348" lon="8.041">
        <ele>1914</ele>
        <time>2021-07-10T11:03:58.475Z</time>
      </trkpt>
      <trkpt lat="46.38349" lon="8.041">
        <ele>1916</ele>
        <time>2021-07-10T11:03:59.474Z</time>
      </trkpt>
      <trkpt lat="46.3835" lon="8.04099">
        <ele>1917</ele>
        <time>2021-07-10T11:04:00.475Z</time>
      </trkpt>
      <trkpt lat="46.3835" lon="8.041">
        <ele>1919</ele>
        <time>2021-07-10T11:04:01.475Z</time>
      </trkpt>
      <trkpt lat="46.3835" lon="8.041">
        <ele>1920</ele>
        <time>2021-07-10T11:04:02.475Z</time>
      </trkpt>
      <trkpt lat="46.38351" lon="8.041">
        <ele>1922</ele>
        <time>2021-07-10T11:04:03.475Z</time>
      </trkpt>
      <trkpt lat="46.38351" lon="8.04101">
        <ele>1923</ele>
        <time>2021-07-10T11:04:04.474Z</time>
      </trkpt>
      <trkpt lat="46.38352" lon="8.04101">
        <ele>1926</ele>
        <time>2021-07-10T11:04:05.475Z</time>
      </trkpt>
      <trkpt lat="46.38353" lon="8.04102">
        <ele>1929</ele>
        <time>2021-07-10T11:04:06.475Z</time>
      </trkpt>
      <trkpt lat="46.38353" lon="8.04103">
        <ele>1931</ele>
        <time>2021-07-10T11:04:07.475Z</time>
      </trkpt>
      <trkpt lat="46.38354" lon="8.04104">
        <ele>1934</ele>
        <time>2021-07-10T11:04:08.475Z</time>
      </trkpt>
      <trkpt lat="46.38355" lon="8.04105">
        <ele>1936</ele>
        <time>2021-07-10T11:04:09.475Z</time>
      </trkpt>
      <trkpt lat="46.38356" lon="8.04106">
        <ele>1939</ele>
        <time>2021-07-10T11:04:10.475Z</time>
      </trkpt>
      <trkpt lat="46.38358" lon="8.04107">
        <ele>1942</ele>
        <time>2021-07-10T11:04:11.475Z</time>
      </trkpt>
      <trkpt lat="46.38359" lon="8.04107">
        <ele>1944</ele>
        <time>2021-07-10T11:04:12.475Z</time>
      </trkpt>
      <trkpt lat="46.3836" lon="8.04108">
        <ele>1946</ele>
        <time>2021-07-10T11:04:13.475Z</time>
      </trkpt>
      <trkpt lat="46.38362" lon="8.04109">
        <ele>1948</ele>
        <time>2021-07-10T11:04:14.475Z</time>
      </trkpt>
      <trkpt lat="46.38364" lon="8.04111">
        <ele>1950</ele>
        <time>2021-07-10T11:04:15.474Z</time>
      </trkpt>
      <trkpt lat="46.38365" lon="8.04112">
        <ele>1952</ele>
        <time>2021-07-10T11:04:16.475Z</time>
      </trkpt>
      <trkpt lat="46.38367" lon="8.04113">
        <ele>1954</ele>
        <time>2021-07-10T11:04:17.474Z</time>
      </trkpt>
      <trkpt lat="46.38369" lon="8.04114">
        <ele>1955</ele>
        <time>2021-07-10T11:04:18.474Z</time>
      </trkpt>
      <trkpt lat="46.38371" lon="8.04115">
        <ele>1957</ele>
        <time>2021-07-10T11:04:19.475Z</time>
      </trkpt>
      <trkpt lat="46.38374" lon="8.04117">
        <ele>1958</ele>
        <time>2021-07-10T11:04:20.475Z</time>
      </trkpt>
      <trkpt lat="46.38376" lon="8.04118">
        <ele>1959</ele>
        <time>2021-07-10T11:04:21.475Z</time>
      </trkpt>
      <trkpt lat="46.38379" lon="8.0412">
        <ele>1959</ele>
        <time>2021-07-10T11:04:22.475Z</time>
      </trkpt>
      <trkpt lat="46.38382" lon="8.04121">
        <ele>1960</ele>
        <time>2021-07-10T11:04:23.475Z</time>
      </trkpt>
      <trkpt lat="46.38385" lon="8.04123">
        <ele>1960</ele>
        <time>2021-07-10T11:04:24.475Z</time>
      </trkpt>
      <trkpt lat="46.38388" lon="8.04125">
        <ele>1961</ele>
        <time>2021-07-10T11:04:25.475Z</time>
      </trkpt>
      <trkpt lat="46.38391" lon="8.04126">
        <ele>1961</ele>
        <time>2021-07-10T11:04:26.475Z</time>
      </trkpt>
      <trkpt lat="46.38394" lon="8.04128">
        <ele>1962</ele>
        <time>2021-07-10T11:04:27.474Z</time>
      </trkpt>
      <trkpt lat="46.38396" lon="8.0413">
        <ele>1963</ele>
        <time>2021-07-10T11:04:28.475Z</time>
      </trkpt>
      <trkpt lat="46.38399" lon="8.04132">
        <ele>1963</ele>
        <time>2021-07-10T11:04:29.475Z</time>
      </trkpt>
      <trkpt lat="46.38402" lon="8.04134">
        <ele>1964</ele>
        <time>2021-07-10T11:04:30.475Z</time>
      </trkpt>
      <trkpt lat="46.38405" lon="8.04135">
        <ele>1964</ele>
        <time>2021-07-10T11:04:31.475Z</time>
      </trkpt>
      <trkpt lat="46.38408" lon="8.04137">
        <ele>1964</ele>
        <time>2021-07-10T11:04:32.474Z</time>
      </trkpt>
      <trkpt lat="46.3841" lon="8.04138">
        <ele>1964</ele>
        <time>2021-07-10T11:04:33.475Z</time>
      </trkpt>
      <trkpt lat="46.38413" lon="8.0414">
        <ele>1966</ele>
        <time>2021-07-10T11:04:34.475Z</time>
      </trkpt>
      <trkpt lat="46.38416" lon="8.04142">
        <ele>1968</ele>
        <time>2021-07-10T11:04:35.474Z</time>
      </trkpt>
      <trkpt lat="46.38419" lon="8.04143">
        <ele>1971</ele>
        <time>2021-07-10T11:04:36.474Z</time>
      </trkpt>
      <trkpt lat="46.38422" lon="8.04145">
        <ele>1973</ele>
        <time>2021-07-10T11:04:37.475Z</time>
      </trkpt>
      <trkpt lat="46.38425" lon="8.04146">
        <ele>1974</ele>
        <time>2021-07-10T11:04:38.475Z</time>
      </trkpt>
      <trkpt lat="46.38428" lon="8.04148">
        <ele>1976</ele>
        <time>2021-07-10T11:04:39.475Z</time>
      </trkpt>
      <trkpt lat="46.38431" lon="8.04149">
        <ele>1978</ele>
        <time>2021-07-10T11:04:40.475Z</time>
      </trkpt>
      <trkpt lat="46.38433" lon="8.04151">
        <ele>1980</ele>
        <time>2021-07-10T11:04:41.474Z</time>
      </trkpt>
      <trkpt lat="46.38437" lon="8.04153">
        <ele>1982</ele>
        <time>2021-07-10T11:04:42.475Z</time>
      </trkpt>
      <trkpt lat="46.3844" lon="8.04156">
        <ele>1983</ele>
        <time>2021-07-10T11:04:43.475Z</time>
      </trkpt>
      <trkpt lat="46.38443" lon="8.04158">
        <ele>1984</ele>
        <time>2021-07-10T11:04:44.474Z</time>
      </trkpt>
      <trkpt lat="46.38445" lon="8.04161">
        <ele>1986</ele>
        <time>2021-07-10T11:04:45.474Z</time>
      </trkpt>
      <trkpt lat="46.38448" lon="8.04163">
        <ele>1987</ele>
        <time>2021-07-10T11:04:46.474Z</time>
      </trkpt>
      <trkpt lat="46.38451" lon="8.04164">
        <ele>1988</ele>
        <time>2021-07-10T11:04:47.474Z</time>
      </trkpt>
      <trkpt lat="46.38454" lon="8.04166">
        <ele>1989</ele>
        <time>2021-07-10T11:04:48.475Z</time>
      </trkpt>
      <trkpt lat="46.38457" lon="8.04168">
        <ele>1991</ele>
        <time>2021-07-10T11:04:49.475Z</time>
      </trkpt>
      <trkpt lat="46.3846" lon="8.0417">
        <ele>1992</ele>
        <time>2021-07-10T11:04:50.475Z</time>
      </trkpt>
      <trkpt lat="46.38464" lon="8.04172">
        <ele>1993</ele>
        <time>2021-07-10T11:04:51.475Z</time>
      </trkpt>
      <trkpt lat="46.38467" lon="8.04174">
        <ele>1995</ele>
        <time>2021-07-10T11:04:52.474Z</time>
      </trkpt>
      <trkpt lat="46.3847" lon="8.04175">
        <ele>1996</ele>
        <time>2021-07-10T11:04:53.474Z</time>
      </trkpt>
      <trkpt lat="46.38472" lon="8.04178">
        <ele>1998</ele>
        <time>2021-07-10T11:04:54.475Z</time>
      </trkpt>
      <trkpt lat="46.38475" lon="8.04179">
        <ele>1999</ele>
        <time>2021-07-10T11:04:55.474Z</time>
      </trkpt>
      <trkpt lat="46.38479" lon="8.04181">
        <ele>2001</ele>
        <time>2021-07-10T11:04:56.474Z</time>
      </trkpt>
      <trkpt lat="46.38482" lon="8.04183">
        <ele>2002</ele>
        <time>2021-07-10T11:04:57.475Z</time>
      </trkpt>
      <trkpt lat="46.38486" lon="8.04185">
        <ele>2003</ele>
        <time>2021-07-10T11:04:58.474Z</time>
      </trkpt>
      <trkpt lat="46.38489" lon="8.04187">
        <ele>2005</ele>
        <time>2021-07-10T11:04:59.474Z</time>
      </trkpt>
      <trkpt lat="46.38491" lon="8.04189">
        <ele>2006</ele>
        <time>2021-07-10T11:05:00.475Z</time>
      </trkpt>
      <trkpt lat="46.38494" lon="8.0419">
        <ele>2007</ele>
        <time>2021-07-10T11:05:01.475Z</time>
      </trkpt>
      <trkpt lat="46.38497" lon="8.04192">
        <ele>2007</ele>
        <time>2021-07-10T11:05:02.474Z</time>
      </trkpt>
      <trkpt lat="46.385" lon="8.04194">
        <ele>2008</ele>
        <time>2021-07-10T11:05:03.475Z</time>
      </trkpt>
      <trkpt lat="46.38503" lon="8.04196">
        <ele>2008</ele>
        <time>2021-07-10T11:05:04.475Z</time>
      </trkpt>
      <trkpt lat="46.38506" lon="8.04198">
        <ele>2009</ele>
        <time>2021-07-10T11:05:05.474Z</time>
      </trkpt>
      <trkpt lat="46.38509" lon="8.042">
        <ele>2010</ele>
        <time>2021-07-10T11:05:06.474Z</time>
      </trkpt>
      <trkpt lat="46.38512" lon="8.04201">
        <ele>2012</ele>
        <time>2021-07-10T11:05:07.474Z</time>
      </trkpt>
      <trkpt lat="46.38515" lon="8.04203">
        <ele>2013</ele>
        <time>2021-07-10T11:05:08.474Z</time>
      </trkpt>
      <trkpt lat="46.38518" lon="8.04204">
        <ele>2015</ele>
        <time>2021-07-10T11:05:09.474Z</time>
      </trkpt>
      <trkpt lat="46.38521" lon="8.04206">
        <ele>2016</ele>
        <time>2021-07-10T11:05:10.474Z</time>
      </trkpt>
      <trkpt lat="46.38523" lon="8.04208">
        <ele>2017</ele>
        <time>2021-07-10T11:05:11.475Z</time>
      </trkpt>
      <trkpt lat="46.38526" lon="8.0421">
        <ele>2019</ele>
        <time>2021-07-10T11:05:12.474Z</time>
      </trkpt>
      <trkpt lat="46.3853" lon="8.04212">
        <ele>2020</ele>
        <time>2021-07-10T11:05:13.475Z</time>
      </trkpt>
      <trkpt lat="46.38533" lon="8.04214">
        <ele>2021</ele>
        <time>2021-07-10T11:05:14.475Z</time>
      </trkpt>
      <trkpt lat="46.38536" lon="8.04216">
        <ele>2023</ele>
        <time>2021-07-10T11:05:15.475Z</time>
      </trkpt>
      <trkpt lat="46.38539" lon="8.04217">
        <ele>2024</ele>
        <time>2021-07-10T11:05:16.475Z</time>
      </trkpt>
      <trkpt lat="46.38542" lon="8.04219">
        <ele>2025</ele>
        <time>2021-07-10T11:05:17.475Z</time>
      </trkpt>
      <trkpt lat="46.38545" lon="8.04221">
        <ele>2026</ele>
        <time>2021-07-10T11:05:18.475Z</time>
      </trkpt>
      <trkpt lat="46.38548" lon="8.04222">
        <ele>2027</ele>
        <time>2021-07-10T11:05:19.475Z</time>
      </trkpt>
      <trkpt lat="46.38551" lon="8.04224">
        <ele>2028</ele>
        <time>2021-07-10T11:05:20.475Z</time>
      </trkpt>
      <trkpt lat="46.38554" lon="8.04226">
        <ele>2029</ele>
        <time>2021-07-10T11:05:21.475Z</time>
      </trkpt>
      <trkpt lat="46.38557" lon="8.04228">
        <ele>2030</ele>
        <time>2021-07-10T11:05:22.475Z</time>
      </trkpt>
      <trkpt lat="46.3856" lon="8.0423">
        <ele>2031</ele>
        <time>2021-07-10T11:05:23.474Z</time>
      </trkpt>
      <trkpt lat="46.38563" lon="8.04232">
        <ele>2032</ele>
        <time>2021-07-10T11:05:24.475Z</time>
      </trkpt>
      <trkpt lat="46.38566" lon="8.04234">
        <ele>2034</ele>
        <time>2021-07-10T11:05:25.475Z</time>
      </trkpt>
      <trkpt lat="46.38569" lon="8.04235">
        <ele>2035</ele>
        <time>2021-07-10T11:05:26.474Z</time>
      </trkpt>
      <trkpt lat="46.38571" lon="8.04237">
        <ele>2037</ele>
        <time>2021-07-10T11:05:27.475Z</time>
      </trkpt>
      <trkpt lat="46.38574" lon="8.04239">
        <ele>2038</ele>
        <time>2021-07-10T11:05:28.475Z</time>
      </trkpt>
      <trkpt lat="46.38577" lon="8.04241">
        <ele>2040</ele>
        <time>2021-07-10T11:05:29.474Z</time>
      </trkpt>
      <trkpt lat="46.3858" lon="8.04242">
        <ele>2041</ele>
        <time>2021-07-10T11:05:30.474Z</time>
      </trkpt>
      <trkpt lat="46.38583" lon="8.04244">
        <ele>2042</ele>
        <time>2021-07-10T11:05:31.475Z</time>
      </trkpt>
      <trkpt lat="46.38586" lon="8.04246">
        <ele>2043</ele>
        <time>2021-07-10T11:05:32.474Z</time>
      </trkpt>
      <trkpt lat="46.38589" lon="8.04247">
        <ele>2045</ele>
        <time>2021-07-10T11:05:33.475Z</time>
      </trkpt>
      <trkpt lat="46.38592" lon="8.04249">
        <ele>2046</ele>
        <time>2021-07-10T11:05:34.475Z</time>
      </trkpt>
      <trkpt lat="46.38595" lon="8.04251">
        <ele>2048</ele>
        <time>2021-07-10T11:05:35.475Z</time>
      </trkpt>
      <trkpt lat="46.38598" lon="8.04253">
        <ele>2049</ele>
        <time>2021-07-10T11:05:36.475Z</time>
      </trkpt>
      <trkpt lat="46.38601" lon="8.04255">
        <ele>2051</ele>
        <time>2021-07-10T11:05:37.474Z</time>
      </trkpt>
      <trkpt lat="46.38604" lon="8.04257">
        <ele>2052</ele>
        <time>2021-07-10T11:05:38.474Z</time>
      </trkpt>
      <trkpt lat="46.38607" lon="8.04258">
        <ele>2054</ele>
        <time>2021-07-10T11:05:39.474Z</time>
      </trkpt>
      <trkpt lat="46.38609" lon="8.0426">
        <ele>2056</ele>
        <time>2021-07-10T11:05:40.474Z</time>
      </trkpt>
      <trkpt lat="46.38612" lon="8.04262">
        <ele>2057</ele>
        <time>2021-07-10T11:05:41.475Z</time>
      </trkpt>
      <trkpt lat="46.38615" lon="8.04264">
        <ele>2059</ele>
        <time>2021-07-10T11:05:42.475Z</time>
      </trkpt>
      <trkpt lat="46.38618" lon="8.04265">
        <ele>2060</ele>
        <time>2021-07-10T11:05:43.474Z</time>
      </trkpt>
      <trkpt lat="46.38621" lon="8.04267">
        <ele>2062</ele>
        <time>2021-07-10T11:05:44.474Z</time>
      </trkpt>
      <trkpt lat="46.38623" lon="8.04269">
        <ele>2065</ele>
        <time>2021-07-10T11:05:45.475Z</time>
      </trkpt>
      <trkpt lat="46.38625" lon="8.0427">
        <ele>2067</ele>
        <time>2021-07-10T11:05:46.474Z</time>
      </trkpt>
      <trkpt lat="46.38628" lon="8.04271">
        <ele>2069</ele>
        <time>2021-07-10T11:05:47.475Z</time>
      </trkpt>
      <trkpt lat="46.38631" lon="8.04273">
        <ele>2071</ele>
        <time>2021-07-10T11:05:48.474Z</time>
      </trkpt>
      <trkpt lat="46.38633" lon="8.04274">
        <ele>2073</ele>
        <time>2021-07-10T11:05:49.474Z</time>
      </trkpt>
      <trkpt lat="46.38636" lon="8.04276">
        <ele>2074</ele>
        <time>2021-07-10T11:05:50.475Z</time>
      </trkpt>
      <trkpt lat="46.38639" lon="8.04278">
        <ele>2076</ele>
        <time>2021-07-10T11:05:51.475Z</time>
      </trkpt>
      <trkpt lat="46.38641" lon="8.04279">
        <ele>2077</ele>
        <time>2021-07-10T11:05:52.475Z</time>
      </trkpt>
      <trkpt lat="46.38644" lon="8.04281">
        <ele>2079</ele>
        <time>2021-07-10T11:05:53.475Z</time>
      </trkpt>
      <trkpt lat="46.38647" lon="8.04282">
        <ele>2081</ele>
        <time>2021-07-10T11:05:54.475Z</time>
      </trkpt>
      <trkpt lat="46.3865" lon="8.04284">
        <ele>2083</ele>
        <time>2021-07-10T11:05:55.475Z</time>
      </trkpt>
      <trkpt lat="46.38653" lon="8.04286">
        <ele>2085</ele>
        <time>2021-07-10T11:05:56.475Z</time>
      </trkpt>
      <trkpt lat="46.38656" lon="8.04287">
        <ele>2086</ele>
        <time>2021-07-10T11:05:57.475Z</time>
      </trkpt>
      <trkpt lat="46.38659" lon="8.04289">
        <ele>2088</ele>
        <time>2021-07-10T11:05:58.475Z</time>
      </trkpt>
      <trkpt lat="46.38662" lon="8.04291">
        <ele>2089</ele>
        <time>2021-07-10T11:05:59.474Z</time>
      </trkpt>
      <trkpt lat="46.38665" lon="8.04293">
        <ele>2091</ele>
        <time>2021-07-10T11:06:00.475Z</time>
      </trkpt>
      <trkpt lat="46.38668" lon="8.04295">
        <ele>2092</ele>
        <time>2021-07-10T11:06:01.475Z</time>
      </trkpt>
      <trkpt lat="46.38671" lon="8.04296">
        <ele>2094</ele>
        <time>2021-07-10T11:06:02.475Z</time>
      </trkpt>
      <trkpt lat="46.38674" lon="8.04298">
        <ele>2095</ele>
        <time>2021-07-10T11:06:03.475Z</time>
      </trkpt>
      <trkpt lat="46.38677" lon="8.043">
        <ele>2096</ele>
        <time>2021-07-10T11:06:04.474Z</time>
      </trkpt>
      <trkpt lat="46.3868" lon="8.04302">
        <ele>2097</ele>
        <time>2021-07-10T11:06:05.475Z</time>
      </trkpt>
      <trkpt lat="46.38683" lon="8.04304">
        <ele>2097</ele>
        <time>2021-07-10T11:06:06.475Z</time>
      </trkpt>
      <trkpt lat="46.38686" lon="8.04306">
        <ele>2098</ele>
        <time>2021-07-10T11:06:07.474Z</time>
      </trkpt>
      <trkpt lat="46.38689" lon="8.04307">
        <ele>2099</ele>
        <time>2021-07-10T11:06:08.475Z</time>
      </trkpt>
      <trkpt lat="46.38692" lon="8.04309">
        <ele>2100</ele>
        <time>2021-07-10T11:06:09.475Z</time>
      </trkpt>
      <trkpt lat="46.38695" lon="8.0431">
        <ele>2102</ele>
        <time>2021-07-10T11:06:10.475Z</time>
      </trkpt>
      <trkpt lat="46.38698" lon="8.04312">
        <ele>2103</ele>
        <time>2021-07-10T11:06:11.474Z</time>
      </trkpt>
      <trkpt lat="46.38701" lon="8.04314">
        <ele>2105</ele>
        <time>2021-07-10T11:06:12.474Z</time>
      </trkpt>
      <trkpt lat="46.38704" lon="8.04316">
        <ele>2106</ele>
        <time>2021-07-10T11:06:13.474Z</time>
      </trkpt>
      <trkpt lat="46.38707" lon="8.04318">
        <ele>2107</ele>
        <time>2021-07-10T11:06:14.474Z</time>
      </trkpt>
      <trkpt lat="46.3871" lon="8.0432">
        <ele>2108</ele>
        <time>2021-07-10T11:06:15.474Z</time>
      </trkpt>
      <trkpt lat="46.38713" lon="8.04322">
        <ele>2109</ele>
        <time>2021-07-10T11:06:16.474Z</time>
      </trkpt>
      <trkpt lat="46.38716" lon="8.04324">
        <ele>2110</ele>
        <time>2021-07-10T11:06:17.475Z</time>
      </trkpt>
      <trkpt lat="46.38719" lon="8.04325">
        <ele>2111</ele>
        <time>2021-07-10T11:06:18.475Z</time>
      </trkpt>
      <trkpt lat="46.38722" lon="8.04327">
        <ele>2112</ele>
        <time>2021-07-10T11:06:19.475Z</time>
      </trkpt>
      <trkpt lat="46.38725" lon="8.04329">
        <ele>2113</ele>
        <time>2021-07-10T11:06:20.475Z</time>
      </trkpt>
      <trkpt lat="46.38728" lon="8.04331">
        <ele>2115</ele>
        <time>2021-07-10T11:06:21.474Z</time>
      </trkpt>
      <trkpt lat="46.38731" lon="8.04332">
        <ele>2116</ele>
        <time>2021-07-10T11:06:22.475Z</time>
      </trkpt>
      <trkpt lat="46.38734" lon="8.04334">
        <ele>2118</ele>
        <time>2021-07-10T11:06:23.475Z</time>
      </trkpt>
      <trkpt lat="46.38737" lon="8.04336">
        <ele>2119</ele>
        <time>2021-07-10T11:06:24.475Z</time>
      </trkpt>
      <trkpt lat="46.38739" lon="8.04337">
        <ele>2121</ele>
        <time>2021-07-10T11:06:25.475Z</time>
      </trkpt>
      <trkpt lat="46.38743" lon="8.04339">
        <ele>2122</ele>
        <time>2021-07-10T11:06:26.475Z</time>
      </trkpt>
      <trkpt lat="46.38746" lon="8.04341">
        <ele>2123</ele>
        <time>2021-07-10T11:06:27.475Z</time>
      </trkpt>
      <trkpt lat="46.38748" lon="8.04343">
        <ele>2123</ele>
        <time>2021-07-10T11:06:28.475Z</time>
      </trkpt>
      <trkpt lat="46.38751" lon="8.04345">
        <ele>2124</ele>
        <time>2021-07-10T11:06:29.474Z</time>
      </trkpt>
      <trkpt lat="46.38754" lon="8.04346">
        <ele>2126</ele>
        <time>2021-07-10T11:06:30.475Z</time>
      </trkpt>
      <trkpt lat="46.38757" lon="8.04348">
        <ele>2127</ele>
        <time>2021-07-10T11:06:31.475Z</time>
      </trkpt>
      <trkpt lat="46.3876" lon="8.0435">
        <ele>2128</ele>
        <time>2021-07-10T11:06:32.475Z</time>
      </trkpt>
      <trkpt lat="46.38763" lon="8.04352">
        <ele>2129</ele>
        <time>2021-07-10T11:06:33.475Z</time>
      </trkpt>
      <trkpt lat="46.38767" lon="8.04354">
        <ele>2130</ele>
        <time>2021-07-10T11:06:34.474Z</time>
      </trkpt>
      <trkpt lat="46.3877" lon="8.04356">
        <ele>2130</ele>
        <time>2021-07-10T11:06:35.474Z</time>
      </trkpt>
      <trkpt lat="46.38773" lon="8.04357">
        <ele>2131</ele>
        <time>2021-07-10T11:06:36.475Z</time>
      </trkpt>
      <trkpt lat="46.38776" lon="8.04359">
        <ele>2132</ele>
        <time>2021-07-10T11:06:37.475Z</time>
      </trkpt>
      <trkpt lat="46.38779" lon="8.04361">
        <ele>2133</ele>
        <time>2021-07-10T11:06:38.475Z</time>
      </trkpt>
      <trkpt lat="46.38782" lon="8.04363">
        <ele>2134</ele>
        <time>2021-07-10T11:06:39.474Z</time>
      </trkpt>
      <trkpt lat="46.38785" lon="8.04365">
        <ele>2134</ele>
        <time>2021-07-10T11:06:40.475Z</time>
      </trkpt>
      <trkpt lat="46.38789" lon="8.04367">
        <ele>2135</ele>
        <time>2021-07-10T11:06:41.475Z</time>
      </trkpt>
      <trkpt lat="46.38792" lon="8.04368">
        <ele>2135</ele>
        <time>2021-07-10T11:06:42.475Z</time>
      </trkpt>
      <trkpt lat="46.38795" lon="8.0437">
        <ele>2136</ele>
        <time>2021-07-10T11:06:43.475Z</time>
      </trkpt>
      <trkpt lat="46.38799" lon="8.04372">
        <ele>2136</ele>
        <time>2021-07-10T11:06:44.475Z</time>
      </trkpt>
      <trkpt lat="46.38802" lon="8.04374">
        <ele>2137</ele>
        <time>2021-07-10T11:06:45.475Z</time>
      </trkpt>
      <trkpt lat="46.38804" lon="8.04375">
        <ele>2138</ele>
        <time>2021-07-10T11:06:46.475Z</time>
      </trkpt>
      <trkpt lat="46.38807" lon="8.04377">
        <ele>2138</ele>
        <time>2021-07-10T11:06:47.474Z</time>
      </trkpt>
      <trkpt lat="46.3881" lon="8.04379">
        <ele>2139</ele>
        <time>2021-07-10T11:06:48.475Z</time>
      </trkpt>
      <trkpt lat="46.38813" lon="8.04381">
        <ele>2139</ele>
        <time>2021-07-10T11:06:49.475Z</time>
      </trkpt>
      <trkpt lat="46.38816" lon="8.04383">
        <ele>2139</ele>
        <time>2021-07-10T11:06:50.474Z</time>
      </trkpt>
      <trkpt lat="46.3882" lon="8.04385">
        <ele>2140</ele>
        <time>2021-07-10T11:06:51.475Z</time>
      </trkpt>
      <trkpt lat="46.38823" lon="8.04386">
        <ele>2141</ele>
        <time>2021-07-10T11:06:52.475Z</time>
      </trkpt>
      <trkpt lat="46.38826" lon="8.04388">
        <ele>2142</ele>
        <time>2021-07-10T11:06:53.475Z</time>
      </trkpt>
      <trkpt lat="46.38829" lon="8.0439">
        <ele>2142</ele>
        <time>2021-07-10T11:06:54.475Z</time>
      </trkpt>
      <trkpt lat="46.38833" lon="8.04392">
        <ele>2143</ele>
        <time>2021-07-10T11:06:55.474Z</time>
      </trkpt>
      <trkpt lat="46.38836" lon="8.04393">
        <ele>2143</ele>
        <time>2021-07-10T11:06:56.475Z</time>
      </trkpt>
      <trkpt lat="46.38839" lon="8.04395">
        <ele>2143</ele>
        <time>2021-07-10T11:06:57.475Z</time>
      </trkpt>
      <trkpt lat="46.38842" lon="8.04398">
        <ele>2144</ele>
        <time>2021-07-10T11:06:58.475Z</time>
      </trkpt>
      <trkpt lat="46.38845" lon="8.044">
        <ele>2144</ele>
        <time>2021-07-10T11:06:59.475Z</time>
      </trkpt>
      <trkpt lat="46.38848" lon="8.04402">
        <ele>2145</ele>
        <time>2021-07-10T11:07:00.475Z</time>
      </trkpt>
      <trkpt lat="46.38851" lon="8.04404">
        <ele>2145</ele>
        <time>2021-07-10T11:07:01.475Z</time>
      </trkpt>
      <trkpt lat="46.38854" lon="8.04406">
        <ele>2146</ele>
        <time>2021-07-10T11:07:02.474Z</time>
      </trkpt>
      <trkpt lat="46.38858" lon="8.04407">
        <ele>2146</ele>
        <time>2021-07-10T11:07:03.475Z</time>
      </trkpt>
      <trkpt lat="46.3886" lon="8.04409">
        <ele>2147</ele>
        <time>2021-07-10T11:07:04.475Z</time>
      </trkpt>
      <trkpt lat="46.38863" lon="8.04411">
        <ele>2147</ele>
        <time>2021-07-10T11:07:05.475Z</time>
      </trkpt>
      <trkpt lat="46.38867" lon="8.04412">
        <ele>2147</ele>
        <time>2021-07-10T11:07:06.475Z</time>
      </trkpt>
      <trkpt lat="46.38869" lon="8.04414">
        <ele>2147</ele>
        <time>2021-07-10T11:07:07.474Z</time>
      </trkpt>
      <trkpt lat="46.38872" lon="8.04416">
        <ele>2148</ele>
        <time>2021-07-10T11:07:08.474Z</time>
      </trkpt>
      <trkpt lat="46.38875" lon="8.04417">
        <ele>2148</ele>
        <time>2021-07-10T11:07:09.474Z</time>
      </trkpt>
      <trkpt lat="46.38878" lon="8.04419">
        <ele>2148</ele>
        <time>2021-07-10T11:07:10.474Z</time>
      </trkpt>
      <trkpt lat="46.38881" lon="8.04421">
        <ele>2149</ele>
        <time>2021-07-10T11:07:11.474Z</time>
      </trkpt>
      <trkpt lat="46.38884" lon="8.04422">
        <ele>2149</ele>
        <time>2021-07-10T11:07:12.475Z</time>
      </trkpt>
      <trkpt lat="46.38887" lon="8.04424">
        <ele>2149</ele>
        <time>2021-07-10T11:07:13.475Z</time>
      </trkpt>
      <trkpt lat="46.3889" lon="8.04426">
        <ele>2150</ele>
        <time>2021-07-10T11:07:14.475Z</time>
      </trkpt>
      <trkpt lat="46.38893" lon="8.04428">
        <ele>2151</ele>
        <time>2021-07-10T11:07:15.474Z</time>
      </trkpt>
      <trkpt lat="46.38896" lon="8.04429">
        <ele>2152</ele>
        <time>2021-07-10T11:07:16.475Z</time>
      </trkpt>
      <trkpt lat="46.38899" lon="8.04431">
        <ele>2154</ele>
        <time>2021-07-10T11:07:17.475Z</time>
      </trkpt>
      <trkpt lat="46.38902" lon="8.04433">
        <ele>2155</ele>
        <time>2021-07-10T11:07:18.474Z</time>
      </trkpt>
      <trkpt lat="46.38905" lon="8.04434">
        <ele>2157</ele>
        <time>2021-07-10T11:07:19.475Z</time>
      </trkpt>
      <trkpt lat="46.38907" lon="8.04436">
        <ele>2159</ele>
        <time>2021-07-10T11:07:20.475Z</time>
      </trkpt>
      <trkpt lat="46.3891" lon="8.04438">
        <ele>2161</ele>
        <time>2021-07-10T11:07:21.475Z</time>
      </trkpt>
      <trkpt lat="46.38913" lon="8.04439">
        <ele>2162</ele>
        <time>2021-07-10T11:07:22.475Z</time>
      </trkpt>
      <trkpt lat="46.38916" lon="8.04441">
        <ele>2163</ele>
        <time>2021-07-10T11:07:23.474Z</time>
      </trkpt>
      <trkpt lat="46.38919" lon="8.04443">
        <ele>2164</ele>
        <time>2021-07-10T11:07:24.475Z</time>
      </trkpt>
      <trkpt lat="46.38922" lon="8.04444">
        <ele>2166</ele>
        <time>2021-07-10T11:07:25.475Z</time>
      </trkpt>
      <trkpt lat="46.38925" lon="8.04446">
        <ele>2167</ele>
        <time>2021-07-10T11:07:26.474Z</time>
      </trkpt>
      <trkpt lat="46.38928" lon="8.04448">
        <ele>2169</ele>
        <time>2021-07-10T11:07:27.475Z</time>
      </trkpt>
      <trkpt lat="46.38931" lon="8.04449">
        <ele>2170</ele>
        <time>2021-07-10T11:07:28.474Z</time>
      </trkpt>
      <trkpt lat="46.38934" lon="8.04451">
        <ele>2172</ele>
        <time>2021-07-10T11:07:29.474Z</time>
      </trkpt>
      <trkpt lat="46.38937" lon="8.04453">
        <ele>2174</ele>
        <time>2021-07-10T11:07:30.475Z</time>
      </trkpt>
      <trkpt lat="46.3894" lon="8.04454">
        <ele>2175</ele>
        <time>2021-07-10T11:07:31.474Z</time>
      </trkpt>
      <trkpt lat="46.38942" lon="8.04456">
        <ele>2177</ele>
        <time>2021-07-10T11:07:32.475Z</time>
      </trkpt>
      <trkpt lat="46.38945" lon="8.04458">
        <ele>2179</ele>
        <time>2021-07-10T11:07:33.474Z</time>
      </trkpt>
      <trkpt lat="46.38948" lon="8.0446">
        <ele>2180</ele>
        <time>2021-07-10T11:07:34.475Z</time>
      </trkpt>
      <trkpt lat="46.38951" lon="8.04461">
        <ele>2181</ele>
        <time>2021-07-10T11:07:35.475Z</time>
      </trkpt>
      <trkpt lat="46.38954" lon="8.04463">
        <ele>2182</ele>
        <time>2021-07-10T11:07:36.475Z</time>
      </trkpt>
      <trkpt lat="46.38957" lon="8.04464">
        <ele>2184</ele>
        <time>2021-07-10T11:07:37.475Z</time>
      </trkpt>
      <trkpt lat="46.3896" lon="8.04466">
        <ele>2185</ele>
        <time>2021-07-10T11:07:38.475Z</time>
      </trkpt>
      <trkpt lat="46.38963" lon="8.04468">
        <ele>2187</ele>
        <time>2021-07-10T11:07:39.475Z</time>
      </trkpt>
      <trkpt lat="46.38966" lon="8.0447">
        <ele>2188</ele>
        <time>2021-07-10T11:07:40.475Z</time>
      </trkpt>
      <trkpt lat="46.38969" lon="8.04471">
        <ele>2190</ele>
        <time>2021-07-10T11:07:41.474Z</time>
      </trkpt>
      <trkpt lat="46.38972" lon="8.04473">
        <ele>2191</ele>
        <time>2021-07-10T11:07:42.474Z</time>
      </trkpt>
      <trkpt lat="46.38975" lon="8.04475">
        <ele>2192</ele>
        <time>2021-07-10T11:07:43.474Z</time>
      </trkpt>
      <trkpt lat="46.38978" lon="8.04476">
        <ele>2193</ele>
        <time>2021-07-10T11:07:44.475Z</time>
      </trkpt>
      <trkpt lat="46.3898" lon="8.04478">
        <ele>2194</ele>
        <time>2021-07-10T11:07:45.474Z</time>
      </trkpt>
      <trkpt lat="46.38983" lon="8.0448">
        <ele>2195</ele>
        <time>2021-07-10T11:07:46.475Z</time>
      </trkpt>
      <trkpt lat="46.38986" lon="8.04482">
        <ele>2196</ele>
        <time>2021-07-10T11:07:47.475Z</time>
      </trkpt>
      <trkpt lat="46.38989" lon="8.04484">
        <ele>2197</ele>
        <time>2021-07-10T11:07:48.475Z</time>
      </trkpt>
      <trkpt lat="46.38992" lon="8.04486">
        <ele>2198</ele>
        <time>2021-07-10T11:07:49.474Z</time>
      </trkpt>
      <trkpt lat="46.38995" lon="8.04488">
        <ele>2199</ele>
        <time>2021-07-10T11:07:50.474Z</time>
      </trkpt>
      <trkpt lat="46.38998" lon="8.04489">
        <ele>2199</ele>
        <time>2021-07-10T11:07:51.474Z</time>
      </trkpt>
      <trkpt lat="46.39" lon="8.04491">
        <ele>2200</ele>
        <time>2021-07-10T11:07:52.474Z</time>
      </trkpt>
      <trkpt lat="46.39001" lon="8.04493">
        <ele>2200</ele>
        <time>2021-07-10T11:07:53.475Z</time>
      </trkpt>
      <trkpt lat="46.39003" lon="8.04495">
        <ele>2200</ele>
        <time>2021-07-10T11:07:54.475Z</time>
      </trkpt>
      <trkpt lat="46.39004" lon="8.04496">
        <ele>2200</ele>
        <time>2021-07-10T11:07:55.475Z</time>
      </trkpt>
      <trkpt lat="46.39005" lon="8.04496">
        <ele>2200</ele>
        <time>2021-07-10T11:07:56.474Z</time>
      </trkpt>
      <trkpt lat="46.39005" lon="8.04497">
        <ele>2201</ele>
        <time>2021-07-10T11:07:57.475Z</time>
      </trkpt>
      <trkpt lat="46.39006" lon="8.04496">
        <ele>2201</ele>
        <time>2021-07-10T11:07:58.475Z</time>
      </trkpt>
      <trkpt lat="46.39007" lon="8.04496">
        <ele>2201</ele>
        <time>2021-07-10T11:07:59.475Z</time>
      </trkpt>
      <trkpt lat="46.39007" lon="8.04496">
        <ele>2201</ele>
        <time>2021-07-10T11:08:00.474Z</time>
      </trkpt>
      <trkpt lat="46.39007" lon="8.04496">
        <ele>2201</ele>
        <time>2021-07-10T11:08:01.475Z</time>
      </trkpt>
      <trkpt lat="46.39011" lon="8.04501">
        <ele>2197</ele>
        <time>2021-07-10T11:08:02.475Z</time>
      </trkpt>
      <trkpt lat="46.39012" lon="8.04501">
        <ele>2196</ele>
        <time>2021-07-10T11:08:03.475Z</time>
      </trkpt>
      <trkpt lat="46.39012" lon="8.04501">
        <ele>2196</ele>
        <time>2021-07-10T11:08:04.474Z</time>
      </trkpt>
      <trkpt lat="46.39014" lon="8.04501">
        <ele>2194</ele>
        <time>2021-07-10T11:08:05.477Z</time>
      </trkpt>
      <trkpt lat="46.39014" lon="8.04502">
        <ele>2194</ele>
        <time>2021-07-10T11:08:06.476Z</time>
      </trkpt>
      <trkpt lat="46.39014" lon="8.04502">
        <ele>2194</ele>
        <time>2021-07-10T11:08:07.476Z</time>
      </trkpt>
      <trkpt lat="46.39013" lon="8.04503">
        <ele>2195</ele>
        <time>2021-07-10T11:08:08.476Z</time>
      </trkpt>
      <trkpt lat="46.39012" lon="8.04503">
        <ele>2195</ele>
        <time>2021-07-10T11:08:09.477Z</time>
      </trkpt>
      <trkpt lat="46.39013" lon="8.04503">
        <ele>2195</ele>
        <time>2021-07-10T11:08:10.478Z</time>
      </trkpt>
      <trkpt lat="46.39013" lon="8.04503">
        <ele>2195</ele>
        <time>2021-07-10T11:08:11.477Z</time>
      </trkpt>
      <trkpt lat="46.39014" lon="8.04504">
        <ele>2195</ele>
        <time>2021-07-10T11:08:12.477Z</time>
      </trkpt>
      <trkpt lat="46.39014" lon="8.04504">
        <ele>2195</ele>
        <time>2021-07-10T11:08:13.478Z</time>
      </trkpt>
      <trkpt lat="46.39015" lon="8.04505">
        <ele>2195</ele>
        <time>2021-07-10T11:08:14.478Z</time>
      </trkpt>
      <trkpt lat="46.39015" lon="8.04505">
        <ele>2194</ele>
        <time>2021-07-10T11:08:15.477Z</time>
      </trkpt>
      <trkpt lat="46.39016" lon="8.04505">
        <ele>2194</ele>
        <time>2021-07-10T11:08:16.478Z</time>
      </trkpt>
      <trkpt lat="46.39017" lon="8.04505">
        <ele>2193</ele>
        <time>2021-07-10T11:08:17.477Z</time>
      </trkpt>
      <trkpt lat="46.39017" lon="8.04506">
        <ele>2193</ele>
        <time>2021-07-10T11:08:18.478Z</time>
      </trkpt>
      <trkpt lat="46.39018" lon="8.04506">
        <ele>2193</ele>
        <time>2021-07-10T11:08:19.477Z</time>
      </trkpt>
      <trkpt lat="46.39019" lon="8.04507">
        <ele>2193</ele>
        <time>2021-07-10T11:08:20.478Z</time>
      </trkpt>
      <trkpt lat="46.3902" lon="8.04508">
        <ele>2193</ele>
        <time>2021-07-10T11:08:21.477Z</time>
      </trkpt>
      <trkpt lat="46.39022" lon="8.0451">
        <ele>2192</ele>
        <time>2021-07-10T11:08:22.478Z</time>
      </trkpt>
      <trkpt lat="46.39025" lon="8.04511">
        <ele>2192</ele>
        <time>2021-07-10T11:08:23.478Z</time>
      </trkpt>
      <trkpt lat="46.39029" lon="8.04513">
        <ele>2193</ele>
        <time>2021-07-10T11:08:24.478Z</time>
      </trkpt>
      <trkpt lat="46.39033" lon="8.04513">
        <ele>2193</ele>
        <time>2021-07-10T11:08:25.478Z</time>
      </trkpt>
      <trkpt lat="46.39036" lon="8.04515">
        <ele>2193</ele>
        <time>2021-07-10T11:08:26.478Z</time>
      </trkpt>
      <trkpt lat="46.39039" lon="8.04517">
        <ele>2194</ele>
        <time>2021-07-10T11:08:27.478Z</time>
      </trkpt>
      <trkpt lat="46.39042" lon="8.04518">
        <ele>2194</ele>
        <time>2021-07-10T11:08:28.477Z</time>
      </trkpt>
      <trkpt lat="46.39045" lon="8.0452">
        <ele>2195</ele>
        <time>2021-07-10T11:08:29.478Z</time>
      </trkpt>
      <trkpt lat="46.39049" lon="8.04521">
        <ele>2196</ele>
        <time>2021-07-10T11:08:30.478Z</time>
      </trkpt>
      <trkpt lat="46.39052" lon="8.04523">
        <ele>2197</ele>
        <time>2021-07-10T11:08:31.477Z</time>
      </trkpt>
      <trkpt lat="46.39055" lon="8.04525">
        <ele>2198</ele>
        <time>2021-07-10T11:08:32.477Z</time>
      </trkpt>
      <trkpt lat="46.39058" lon="8.04526">
        <ele>2199</ele>
        <time>2021-07-10T11:08:33.477Z</time>
      </trkpt>
      <trkpt lat="46.39062" lon="8.04528">
        <ele>2200</ele>
        <time>2021-07-10T11:08:34.478Z</time>
      </trkpt>
      <trkpt lat="46.39065" lon="8.04529">
        <ele>2201</ele>
        <time>2021-07-10T11:08:35.477Z</time>
      </trkpt>
      <trkpt lat="46.39068" lon="8.04531">
        <ele>2202</ele>
        <time>2021-07-10T11:08:36.477Z</time>
      </trkpt>
      <trkpt lat="46.39071" lon="8.04533">
        <ele>2202</ele>
        <time>2021-07-10T11:08:37.478Z</time>
      </trkpt>
      <trkpt lat="46.39074" lon="8.04535">
        <ele>2203</ele>
        <time>2021-07-10T11:08:38.478Z</time>
      </trkpt>
      <trkpt lat="46.39077" lon="8.04537">
        <ele>2204</ele>
        <time>2021-07-10T11:08:39.477Z</time>
      </trkpt>
      <trkpt lat="46.3908" lon="8.04538">
        <ele>2205</ele>
        <time>2021-07-10T11:08:40.478Z</time>
      </trkpt>
      <trkpt lat="46.39083" lon="8.0454">
        <ele>2206</ele>
        <time>2021-07-10T11:08:41.477Z</time>
      </trkpt>
      <trkpt lat="46.39086" lon="8.04542">
        <ele>2208</ele>
        <time>2021-07-10T11:08:42.478Z</time>
      </trkpt>
      <trkpt lat="46.39089" lon="8.04543">
        <ele>2209</ele>
        <time>2021-07-10T11:08:43.477Z</time>
      </trkpt>
      <trkpt lat="46.39093" lon="8.04545">
        <ele>2210</ele>
        <time>2021-07-10T11:08:44.477Z</time>
      </trkpt>
      <trkpt lat="46.39096" lon="8.04547">
        <ele>2212</ele>
        <time>2021-07-10T11:08:45.478Z</time>
      </trkpt>
      <trkpt lat="46.39099" lon="8.04549">
        <ele>2213</ele>
        <time>2021-07-10T11:08:46.478Z</time>
      </trkpt>
      <trkpt lat="46.39102" lon="8.04551">
        <ele>2214</ele>
        <time>2021-07-10T11:08:47.478Z</time>
      </trkpt>
      <trkpt lat="46.39106" lon="8.04552">
        <ele>2214</ele>
        <time>2021-07-10T11:08:48.478Z</time>
      </trkpt>
      <trkpt lat="46.39109" lon="8.04554">
        <ele>2215</ele>
        <time>2021-07-10T11:08:49.478Z</time>
      </trkpt>
      <trkpt lat="46.39112" lon="8.04556">
        <ele>2215</ele>
        <time>2021-07-10T11:08:50.478Z</time>
      </trkpt>
      <trkpt lat="46.39115" lon="8.04558">
        <ele>2216</ele>
        <time>2021-07-10T11:08:51.478Z</time>
      </trkpt>
      <trkpt lat="46.39119" lon="8.0456">
        <ele>2216</ele>
        <time>2021-07-10T11:08:52.478Z</time>
      </trkpt>
      <trkpt lat="46.39122" lon="8.04561">
        <ele>2217</ele>
        <time>2021-07-10T11:08:53.477Z</time>
      </trkpt>
      <trkpt lat="46.39125" lon="8.04563">
        <ele>2218</ele>
        <time>2021-07-10T11:08:54.478Z</time>
      </trkpt>
      <trkpt lat="46.39128" lon="8.04565">
        <ele>2219</ele>
        <time>2021-07-10T11:08:55.477Z</time>
      </trkpt>
      <trkpt lat="46.39131" lon="8.04567">
        <ele>2219</ele>
        <time>2021-07-10T11:08:56.477Z</time>
      </trkpt>
      <trkpt lat="46.39134" lon="8.04568">
        <ele>2220</ele>
        <time>2021-07-10T11:08:57.477Z</time>
      </trkpt>
      <trkpt lat="46.39137" lon="8.0457">
        <ele>2221</ele>
        <time>2021-07-10T11:08:58.478Z</time>
      </trkpt>
      <trkpt lat="46.3914" lon="8.04572">
        <ele>2222</ele>
        <time>2021-07-10T11:08:59.477Z</time>
      </trkpt>
      <trkpt lat="46.39144" lon="8.04574">
        <ele>2222</ele>
        <time>2021-07-10T11:09:00.478Z</time>
      </trkpt>
      <trkpt lat="46.39147" lon="8.04576">
        <ele>2223</ele>
        <time>2021-07-10T11:09:01.477Z</time>
      </trkpt>
      <trkpt lat="46.3915" lon="8.04578">
        <ele>2223</ele>
        <time>2021-07-10T11:09:02.478Z</time>
      </trkpt>
      <trkpt lat="46.39153" lon="8.04579">
        <ele>2224</ele>
        <time>2021-07-10T11:09:03.478Z</time>
      </trkpt>
      <trkpt lat="46.39155" lon="8.04581">
        <ele>2225</ele>
        <time>2021-07-10T11:09:04.478Z</time>
      </trkpt>
      <trkpt lat="46.39158" lon="8.04583">
        <ele>2226</ele>
        <time>2021-07-10T11:09:05.478Z</time>
      </trkpt>
      <trkpt lat="46.39161" lon="8.04585">
        <ele>2226</ele>
        <time>2021-07-10T11:09:06.478Z</time>
      </trkpt>
      <trkpt lat="46.39165" lon="8.04586">
        <ele>2227</ele>
        <time>2021-07-10T11:09:07.478Z</time>
      </trkpt>
      <trkpt lat="46.39168" lon="8.04588">
        <ele>2228</ele>
        <time>2021-07-10T11:09:08.478Z</time>
      </trkpt>
      <trkpt lat="46.39171" lon="8.0459">
        <ele>2228</ele>
        <time>2021-07-10T11:09:09.478Z</time>
      </trkpt>
      <trkpt lat="46.39174" lon="8.04592">
        <ele>2229</ele>
        <time>2021-07-10T11:09:10.478Z</time>
      </trkpt>
      <trkpt lat="46.39177" lon="8.04593">
        <ele>2229</ele>
        <time>2021-07-10T11:09:11.477Z</time>
      </trkpt>
      <trkpt lat="46.3918" lon="8.04595">
        <ele>2230</ele>
        <time>2021-07-10T11:09:12.478Z</time>
      </trkpt>
      <trkpt lat="46.39183" lon="8.04597">
        <ele>2231</ele>
        <time>2021-07-10T11:09:13.477Z</time>
      </trkpt>
      <trkpt lat="46.39186" lon="8.04599">
        <ele>2232</ele>
        <time>2021-07-10T11:09:14.477Z</time>
      </trkpt>
      <trkpt lat="46.39189" lon="8.04601">
        <ele>2233</ele>
        <time>2021-07-10T11:09:15.478Z</time>
      </trkpt>
      <trkpt lat="46.39192" lon="8.04602">
        <ele>2234</ele>
        <time>2021-07-10T11:09:16.478Z</time>
      </trkpt>
      <trkpt lat="46.39195" lon="8.04604">
        <ele>2235</ele>
        <time>2021-07-10T11:09:17.477Z</time>
      </trkpt>
      <trkpt lat="46.39198" lon="8.04606">
        <ele>2236</ele>
        <time>2021-07-10T11:09:18.477Z</time>
      </trkpt>
      <trkpt lat="46.39201" lon="8.04607">
        <ele>2237</ele>
        <time>2021-07-10T11:09:19.478Z</time>
      </trkpt>
      <trkpt lat="46.39204" lon="8.04609">
        <ele>2237</ele>
        <time>2021-07-10T11:09:20.478Z</time>
      </trkpt>
      <trkpt lat="46.39207" lon="8.04611">
        <ele>2238</ele>
        <time>2021-07-10T11:09:21.478Z</time>
      </trkpt>
      <trkpt lat="46.3921" lon="8.04612">
        <ele>2240</ele>
        <time>2021-07-10T11:09:22.477Z</time>
      </trkpt>
      <trkpt lat="46.39213" lon="8.04613">
        <ele>2241</ele>
        <time>2021-07-10T11:09:23.477Z</time>
      </trkpt>
      <trkpt lat="46.39215" lon="8.04615">
        <ele>2242</ele>
        <time>2021-07-10T11:09:24.478Z</time>
      </trkpt>
      <trkpt lat="46.39219" lon="8.04616">
        <ele>2243</ele>
        <time>2021-07-10T11:09:25.478Z</time>
      </trkpt>
      <trkpt lat="46.39222" lon="8.04617">
        <ele>2244</ele>
        <time>2021-07-10T11:09:26.478Z</time>
      </trkpt>
      <trkpt lat="46.39226" lon="8.04618">
        <ele>2246</ele>
        <time>2021-07-10T11:09:27.477Z</time>
      </trkpt>
      <trkpt lat="46.39229" lon="8.04619">
        <ele>2247</ele>
        <time>2021-07-10T11:09:28.478Z</time>
      </trkpt>
      <trkpt lat="46.39231" lon="8.04621">
        <ele>2249</ele>
        <time>2021-07-10T11:09:29.477Z</time>
      </trkpt>
      <trkpt lat="46.39234" lon="8.04623">
        <ele>2250</ele>
        <time>2021-07-10T11:09:30.477Z</time>
      </trkpt>
      <trkpt lat="46.39237" lon="8.04625">
        <ele>2251</ele>
        <time>2021-07-10T11:09:31.478Z</time>
      </trkpt>
      <trkpt lat="46.3924" lon="8.04626">
        <ele>2251</ele>
        <time>2021-07-10T11:09:32.478Z</time>
      </trkpt>
      <trkpt lat="46.39243" lon="8.04628">
        <ele>2252</ele>
        <time>2021-07-10T11:09:33.478Z</time>
      </trkpt>
      <trkpt lat="46.39246" lon="8.04629">
        <ele>2253</ele>
        <time>2021-07-10T11:09:34.477Z</time>
      </trkpt>
      <trkpt lat="46.39249" lon="8.04631">
        <ele>2254</ele>
        <time>2021-07-10T11:09:35.477Z</time>
      </trkpt>
      <trkpt lat="46.39252" lon="8.04632">
        <ele>2255</ele>
        <time>2021-07-10T11:09:36.478Z</time>
      </trkpt>
      <trkpt lat="46.39256" lon="8.04634">
        <ele>2256</ele>
        <time>2021-07-10T11:09:37.478Z</time>
      </trkpt>
      <trkpt lat="46.39259" lon="8.04636">
        <ele>2257</ele>
        <time>2021-07-10T11:09:38.477Z</time>
      </trkpt>
      <trkpt lat="46.39261" lon="8.04638">
        <ele>2257</ele>
        <time>2021-07-10T11:09:39.478Z</time>
      </trkpt>
      <trkpt lat="46.39264" lon="8.04641">
        <ele>2258</ele>
        <time>2021-07-10T11:09:40.477Z</time>
      </trkpt>
      <trkpt lat="46.39268" lon="8.04643">
        <ele>2258</ele>
        <time>2021-07-10T11:09:41.477Z</time>
      </trkpt>
      <trkpt lat="46.39271" lon="8.04644">
        <ele>2259</ele>
        <time>2021-07-10T11:09:42.478Z</time>
      </trkpt>
      <trkpt lat="46.39274" lon="8.04646">
        <ele>2260</ele>
        <time>2021-07-10T11:09:43.478Z</time>
      </trkpt>
      <trkpt lat="46.39277" lon="8.04647">
        <ele>2260</ele>
        <time>2021-07-10T11:09:44.478Z</time>
      </trkpt>
      <trkpt lat="46.3928" lon="8.04649">
        <ele>2262</ele>
        <time>2021-07-10T11:09:45.477Z</time>
      </trkpt>
      <trkpt lat="46.39283" lon="8.0465">
        <ele>2263</ele>
        <time>2021-07-10T11:09:46.478Z</time>
      </trkpt>
      <trkpt lat="46.39286" lon="8.04652">
        <ele>2265</ele>
        <time>2021-07-10T11:09:47.477Z</time>
      </trkpt>
      <trkpt lat="46.39289" lon="8.04653">
        <ele>2267</ele>
        <time>2021-07-10T11:09:48.477Z</time>
      </trkpt>
      <trkpt lat="46.39292" lon="8.04655">
        <ele>2269</ele>
        <time>2021-07-10T11:09:49.477Z</time>
      </trkpt>
      <trkpt lat="46.39295" lon="8.04657">
        <ele>2270</ele>
        <time>2021-07-10T11:09:50.478Z</time>
      </trkpt>
      <trkpt lat="46.39298" lon="8.04658">
        <ele>2272</ele>
        <time>2021-07-10T11:09:51.478Z</time>
      </trkpt>
      <trkpt lat="46.39301" lon="8.0466">
        <ele>2272</ele>
        <time>2021-07-10T11:09:52.478Z</time>
      </trkpt>
      <trkpt lat="46.39304" lon="8.04662">
        <ele>2273</ele>
        <time>2021-07-10T11:09:53.478Z</time>
      </trkpt>
      <trkpt lat="46.39307" lon="8.04664">
        <ele>2273</ele>
        <time>2021-07-10T11:09:54.477Z</time>
      </trkpt>
      <trkpt lat="46.3931" lon="8.04666">
        <ele>2274</ele>
        <time>2021-07-10T11:09:55.477Z</time>
      </trkpt>
      <trkpt lat="46.39313" lon="8.04668">
        <ele>2275</ele>
        <time>2021-07-10T11:09:56.477Z</time>
      </trkpt>
      <trkpt lat="46.39317" lon="8.0467">
        <ele>2275</ele>
        <time>2021-07-10T11:09:57.478Z</time>
      </trkpt>
      <trkpt lat="46.3932" lon="8.04672">
        <ele>2276</ele>
        <time>2021-07-10T11:09:58.477Z</time>
      </trkpt>
      <trkpt lat="46.39323" lon="8.04674">
        <ele>2277</ele>
        <time>2021-07-10T11:09:59.478Z</time>
      </trkpt>
      <trkpt lat="46.39326" lon="8.04676">
        <ele>2277</ele>
        <time>2021-07-10T11:10:00.478Z</time>
      </trkpt>
      <trkpt lat="46.39329" lon="8.04678">
        <ele>2278</ele>
        <time>2021-07-10T11:10:01.478Z</time>
      </trkpt>
      <trkpt lat="46.39332" lon="8.0468">
        <ele>2279</ele>
        <time>2021-07-10T11:10:02.478Z</time>
      </trkpt>
      <trkpt lat="46.39335" lon="8.04682">
        <ele>2280</ele>
        <time>2021-07-10T11:10:03.478Z</time>
      </trkpt>
      <trkpt lat="46.39339" lon="8.04684">
        <ele>2281</ele>
        <time>2021-07-10T11:10:04.478Z</time>
      </trkpt>
      <trkpt lat="46.39342" lon="8.04686">
        <ele>2282</ele>
        <time>2021-07-10T11:10:05.477Z</time>
      </trkpt>
      <trkpt lat="46.39345" lon="8.04688">
        <ele>2283</ele>
        <time>2021-07-10T11:10:06.478Z</time>
      </trkpt>
      <trkpt lat="46.39348" lon="8.0469">
        <ele>2283</ele>
        <time>2021-07-10T11:10:07.478Z</time>
      </trkpt>
      <trkpt lat="46.39351" lon="8.04692">
        <ele>2284</ele>
        <time>2021-07-10T11:10:08.478Z</time>
      </trkpt>
      <trkpt lat="46.39354" lon="8.04694">
        <ele>2284</ele>
        <time>2021-07-10T11:10:09.477Z</time>
      </trkpt>
      <trkpt lat="46.39358" lon="8.04696">
        <ele>2285</ele>
        <time>2021-07-10T11:10:10.478Z</time>
      </trkpt>
      <trkpt lat="46.39361" lon="8.04698">
        <ele>2286</ele>
        <time>2021-07-10T11:10:11.477Z</time>
      </trkpt>
      <trkpt lat="46.39364" lon="8.047">
        <ele>2287</ele>
        <time>2021-07-10T11:10:12.478Z</time>
      </trkpt>
      <trkpt lat="46.39367" lon="8.04701">
        <ele>2287</ele>
        <time>2021-07-10T11:10:13.478Z</time>
      </trkpt>
      <trkpt lat="46.3937" lon="8.04703">
        <ele>2288</ele>
        <time>2021-07-10T11:10:14.477Z</time>
      </trkpt>
      <trkpt lat="46.39373" lon="8.04705">
        <ele>2289</ele>
        <time>2021-07-10T11:10:15.478Z</time>
      </trkpt>
      <trkpt lat="46.39376" lon="8.04707">
        <ele>2289</ele>
        <time>2021-07-10T11:10:16.477Z</time>
      </trkpt>
      <trkpt lat="46.3938" lon="8.04709">
        <ele>2290</ele>
        <time>2021-07-10T11:10:17.478Z</time>
      </trkpt>
      <trkpt lat="46.39383" lon="8.04711">
        <ele>2290</ele>
        <time>2021-07-10T11:10:18.477Z</time>
      </trkpt>
      <trkpt lat="46.39386" lon="8.04713">
        <ele>2291</ele>
        <time>2021-07-10T11:10:19.478Z</time>
      </trkpt>
      <trkpt lat="46.39389" lon="8.04714">
        <ele>2291</ele>
        <time>2021-07-10T11:10:20.478Z</time>
      </trkpt>
      <trkpt lat="46.39392" lon="8.04716">
        <ele>2292</ele>
        <time>2021-07-10T11:10:21.477Z</time>
      </trkpt>
      <trkpt lat="46.39395" lon="8.04718">
        <ele>2293</ele>
        <time>2021-07-10T11:10:22.477Z</time>
      </trkpt>
      <trkpt lat="46.39398" lon="8.0472">
        <ele>2294</ele>
        <time>2021-07-10T11:10:23.477Z</time>
      </trkpt>
      <trkpt lat="46.39401" lon="8.04722">
        <ele>2296</ele>
        <time>2021-07-10T11:10:24.477Z</time>
      </trkpt>
      <trkpt lat="46.39405" lon="8.04724">
        <ele>2296</ele>
        <time>2021-07-10T11:10:25.478Z</time>
      </trkpt>
      <trkpt lat="46.39408" lon="8.04725">
        <ele>2297</ele>
        <time>2021-07-10T11:10:26.477Z</time>
      </trkpt>
      <trkpt lat="46.39411" lon="8.04727">
        <ele>2297</ele>
        <time>2021-07-10T11:10:27.477Z</time>
      </trkpt>
      <trkpt lat="46.39414" lon="8.04729">
        <ele>2298</ele>
        <time>2021-07-10T11:10:28.478Z</time>
      </trkpt>
      <trkpt lat="46.39417" lon="8.04731">
        <ele>2298</ele>
        <time>2021-07-10T11:10:29.477Z</time>
      </trkpt>
      <trkpt lat="46.3942" lon="8.04733">
        <ele>2299</ele>
        <time>2021-07-10T11:10:30.478Z</time>
      </trkpt>
      <trkpt lat="46.39423" lon="8.04734">
        <ele>2300</ele>
        <time>2021-07-10T11:10:31.477Z</time>
      </trkpt>
      <trkpt lat="46.39426" lon="8.04736">
        <ele>2301</ele>
        <time>2021-07-10T11:10:32.477Z</time>
      </trkpt>
      <trkpt lat="46.39429" lon="8.04738">
        <ele>2302</ele>
        <time>2021-07-10T11:10:33.478Z</time>
      </trkpt>
      <trkpt lat="46.39432" lon="8.0474">
        <ele>2303</ele>
        <time>2021-07-10T11:10:34.477Z</time>
      </trkpt>
      <trkpt lat="46.39435" lon="8.04741">
        <ele>2304</ele>
        <time>2021-07-10T11:10:35.477Z</time>
      </trkpt>
      <trkpt lat="46.39438" lon="8.04743">
        <ele>2304</ele>
        <time>2021-07-10T11:10:36.477Z</time>
      </trkpt>
      <trkpt lat="46.39441" lon="8.04745">
        <ele>2305</ele>
        <time>2021-07-10T11:10:37.478Z</time>
      </trkpt>
      <trkpt lat="46.39445" lon="8.04747">
        <ele>2305</ele>
        <time>2021-07-10T11:10:38.477Z</time>
      </trkpt>
      <trkpt lat="46.39447" lon="8.04749">
        <ele>2307</ele>
        <time>2021-07-10T11:10:39.478Z</time>
      </trkpt>
      <trkpt lat="46.39451" lon="8.04751">
        <ele>2308</ele>
        <time>2021-07-10T11:10:40.478Z</time>
      </trkpt>
      <trkpt lat="46.39454" lon="8.04753">
        <ele>2308</ele>
        <time>2021-07-10T11:10:41.478Z</time>
      </trkpt>
      <trkpt lat="46.39457" lon="8.04755">
        <ele>2309</ele>
        <time>2021-07-10T11:10:42.477Z</time>
      </trkpt>
      <trkpt lat="46.3946" lon="8.04756">
        <ele>2310</ele>
        <time>2021-07-10T11:10:43.478Z</time>
      </trkpt>
      <trkpt lat="46.39463" lon="8.04758">
        <ele>2311</ele>
        <time>2021-07-10T11:10:44.477Z</time>
      </trkpt>
      <trkpt lat="46.39466" lon="8.0476">
        <ele>2312</ele>
        <time>2021-07-10T11:10:45.478Z</time>
      </trkpt>
      <trkpt lat="46.39469" lon="8.04762">
        <ele>2312</ele>
        <time>2021-07-10T11:10:46.477Z</time>
      </trkpt>
      <trkpt lat="46.39472" lon="8.04764">
        <ele>2314</ele>
        <time>2021-07-10T11:10:47.477Z</time>
      </trkpt>
      <trkpt lat="46.39475" lon="8.04766">
        <ele>2315</ele>
        <time>2021-07-10T11:10:48.478Z</time>
      </trkpt>
      <trkpt lat="46.39478" lon="8.04768">
        <ele>2315</ele>
        <time>2021-07-10T11:10:49.477Z</time>
      </trkpt>
      <trkpt lat="46.39481" lon="8.0477">
        <ele>2316</ele>
        <time>2021-07-10T11:10:50.478Z</time>
      </trkpt>
      <trkpt lat="46.39484" lon="8.04772">
        <ele>2317</ele>
        <time>2021-07-10T11:10:51.477Z</time>
      </trkpt>
      <trkpt lat="46.39487" lon="8.04773">
        <ele>2317</ele>
        <time>2021-07-10T11:10:52.477Z</time>
      </trkpt>
      <trkpt lat="46.3949" lon="8.04775">
        <ele>2318</ele>
        <time>2021-07-10T11:10:53.478Z</time>
      </trkpt>
      <trkpt lat="46.39494" lon="8.04777">
        <ele>2318</ele>
        <time>2021-07-10T11:10:54.477Z</time>
      </trkpt>
      <trkpt lat="46.39497" lon="8.04779">
        <ele>2319</ele>
        <time>2021-07-10T11:10:55.477Z</time>
      </trkpt>
      <trkpt lat="46.395" lon="8.04781">
        <ele>2320</ele>
        <time>2021-07-10T11:10:56.477Z</time>
      </trkpt>
      <trkpt lat="46.39503" lon="8.04783">
        <ele>2321</ele>
        <time>2021-07-10T11:10:57.477Z</time>
      </trkpt>
      <trkpt lat="46.39506" lon="8.04785">
        <ele>2322</ele>
        <time>2021-07-10T11:10:58.478Z</time>
      </trkpt>
      <trkpt lat="46.39509" lon="8.04786">
        <ele>2323</ele>
        <time>2021-07-10T11:10:59.477Z</time>
      </trkpt>
      <trkpt lat="46.39513" lon="8.04788">
        <ele>2323</ele>
        <time>2021-07-10T11:11:00.477Z</time>
      </trkpt>
      <trkpt lat="46.39516" lon="8.0479">
        <ele>2323</ele>
        <time>2021-07-10T11:11:01.477Z</time>
      </trkpt>
      <trkpt lat="46.39519" lon="8.04792">
        <ele>2323</ele>
        <time>2021-07-10T11:11:02.477Z</time>
      </trkpt>
      <trkpt lat="46.39522" lon="8.04794">
        <ele>2323</ele>
        <time>2021-07-10T11:11:03.478Z</time>
      </trkpt>
      <trkpt lat="46.39525" lon="8.04796">
        <ele>2323</ele>
        <time>2021-07-10T11:11:04.478Z</time>
      </trkpt>
      <trkpt lat="46.39528" lon="8.04798">
        <ele>2323</ele>
        <time>2021-07-10T11:11:05.477Z</time>
      </trkpt>
      <trkpt lat="46.39531" lon="8.04799">
        <ele>2324</ele>
        <time>2021-07-10T11:11:06.478Z</time>
      </trkpt>
      <trkpt lat="46.39534" lon="8.04801">
        <ele>2324</ele>
        <time>2021-07-10T11:11:07.477Z</time>
      </trkpt>
      <trkpt lat="46.39538" lon="8.04803">
        <ele>2325</ele>
        <time>2021-07-10T11:11:08.477Z</time>
      </trkpt>
      <trkpt lat="46.39541" lon="8.04805">
        <ele>2325</ele>
        <time>2021-07-10T11:11:09.477Z</time>
      </trkpt>
      <trkpt lat="46.39544" lon="8.04807">
        <ele>2325</ele>
        <time>2021-07-10T11:11:10.478Z</time>
      </trkpt>
      <trkpt lat="46.39547" lon="8.04809">
        <ele>2325</ele>
        <time>2021-07-10T11:11:11.477Z</time>
      </trkpt>
      <trkpt lat="46.3955" lon="8.04811">
        <ele>2326</ele>
        <time>2021-07-10T11:11:12.477Z</time>
      </trkpt>
      <trkpt lat="46.39553" lon="8.04812">
        <ele>2326</ele>
        <time>2021-07-10T11:11:13.478Z</time>
      </trkpt>
      <trkpt lat="46.39556" lon="8.04814">
        <ele>2327</ele>
        <time>2021-07-10T11:11:14.478Z</time>
      </trkpt>
      <trkpt lat="46.3956" lon="8.04816">
        <ele>2327</ele>
        <time>2021-07-10T11:11:15.478Z</time>
      </trkpt>
      <trkpt lat="46.39563" lon="8.04818">
        <ele>2328</ele>
        <time>2021-07-10T11:11:16.477Z</time>
      </trkpt>
      <trkpt lat="46.39565" lon="8.04819">
        <ele>2329</ele>
        <time>2021-07-10T11:11:17.477Z</time>
      </trkpt>
      <trkpt lat="46.39568" lon="8.04821">
        <ele>2329</ele>
        <time>2021-07-10T11:11:18.477Z</time>
      </trkpt>
      <trkpt lat="46.39571" lon="8.04822">
        <ele>2330</ele>
        <time>2021-07-10T11:11:19.478Z</time>
      </trkpt>
      <trkpt lat="46.39573" lon="8.04824">
        <ele>2330</ele>
        <time>2021-07-10T11:11:20.477Z</time>
      </trkpt>
      <trkpt lat="46.39576" lon="8.04825">
        <ele>2331</ele>
        <time>2021-07-10T11:11:21.477Z</time>
      </trkpt>
      <trkpt lat="46.39578" lon="8.04826">
        <ele>2331</ele>
        <time>2021-07-10T11:11:22.478Z</time>
      </trkpt>
      <trkpt lat="46.3958" lon="8.04827">
        <ele>2331</ele>
        <time>2021-07-10T11:11:23.477Z</time>
      </trkpt>
      <trkpt lat="46.39581" lon="8.04828">
        <ele>2331</ele>
        <time>2021-07-10T11:11:24.477Z</time>
      </trkpt>
      <trkpt lat="46.39582" lon="8.04829">
        <ele>2330</ele>
        <time>2021-07-10T11:11:25.477Z</time>
      </trkpt>
      <trkpt lat="46.39583" lon="8.04831">
        <ele>2330</ele>
        <time>2021-07-10T11:11:26.477Z</time>
      </trkpt>
      <trkpt lat="46.39584" lon="8.04831">
        <ele>2330</ele>
        <time>2021-07-10T11:11:27.477Z</time>
      </trkpt>
      <trkpt lat="46.39584" lon="8.04832">
        <ele>2330</ele>
        <time>2021-07-10T11:11:28.478Z</time>
      </trkpt>
      <trkpt lat="46.39585" lon="8.04833">
        <ele>2330</ele>
        <time>2021-07-10T11:11:29.478Z</time>
      </trkpt>
      <trkpt lat="46.39586" lon="8.04834">
        <ele>2329</ele>
        <time>2021-07-10T11:11:30.477Z</time>
      </trkpt>
      <trkpt lat="46.39586" lon="8.04836">
        <ele>2328</ele>
        <time>2021-07-10T11:11:31.478Z</time>
      </trkpt>
      <trkpt lat="46.39587" lon="8.04837">
        <ele>2327</ele>
        <time>2021-07-10T11:11:32.477Z</time>
      </trkpt>
      <trkpt lat="46.39587" lon="8.04838">
        <ele>2326</ele>
        <time>2021-07-10T11:11:33.477Z</time>
      </trkpt>
      <trkpt lat="46.39587" lon="8.04838">
        <ele>2325</ele>
        <time>2021-07-10T11:11:34.478Z</time>
      </trkpt>
      <trkpt lat="46.39587" lon="8.04839">
        <ele>2325</ele>
        <time>2021-07-10T11:11:35.478Z</time>
      </trkpt>
      <trkpt lat="46.39587" lon="8.04839">
        <ele>2324</ele>
        <time>2021-07-10T11:11:36.477Z</time>
      </trkpt>
      <trkpt lat="46.39587" lon="8.04839">
        <ele>2323</ele>
        <time>2021-07-10T11:11:37.478Z</time>
      </trkpt>
      <trkpt lat="46.39587" lon="8.04839">
        <ele>2322</ele>
        <time>2021-07-10T11:11:38.478Z</time>
      </trkpt>
      <trkpt lat="46.39588" lon="8.04837">
        <ele>2322</ele>
        <time>2021-07-10T11:11:39.478Z</time>
      </trkpt>
      <trkpt lat="46.39589" lon="8.04836">
        <ele>2322</ele>
        <time>2021-07-10T11:11:40.478Z</time>
      </trkpt>
      <trkpt lat="46.39589" lon="8.04835">
        <ele>2322</ele>
        <time>2021-07-10T11:11:41.477Z</time>
      </trkpt>
      <trkpt lat="46.3959" lon="8.04834">
        <ele>2322</ele>
        <time>2021-07-10T11:11:42.477Z</time>
      </trkpt>
      <trkpt lat="46.3959" lon="8.04834">
        <ele>2322</ele>
        <time>2021-07-10T11:11:43.477Z</time>
      </trkpt>
      <trkpt lat="46.3959" lon="8.04833">
        <ele>2323</ele>
        <time>2021-07-10T11:11:44.477Z</time>
      </trkpt>
      <trkpt lat="46.3959" lon="8.04832">
        <ele>2323</ele>
        <time>2021-07-10T11:11:45.478Z</time>
      </trkpt>
      <trkpt lat="46.39591" lon="8.04832">
        <ele>2323</ele>
        <time>2021-07-10T11:11:46.478Z</time>
      </trkpt>
      <trkpt lat="46.39591" lon="8.04831">
        <ele>2323</ele>
        <time>2021-07-10T11:11:47.477Z</time>
      </trkpt>
      <trkpt lat="46.3959" lon="8.04831">
        <ele>2323</ele>
        <time>2021-07-10T11:11:48.477Z</time>
      </trkpt>
      <trkpt lat="46.3959" lon="8.04831">
        <ele>2323</ele>
        <time>2021-07-10T11:11:49.478Z</time>
      </trkpt>
      <trkpt lat="46.3959" lon="8.04831">
        <ele>2323</ele>
        <time>2021-07-10T11:11:50.478Z</time>
      </trkpt>
      <trkpt lat="46.39589" lon="8.04832">
        <ele>2323</ele>
        <time>2021-07-10T11:11:51.478Z</time>
      </trkpt>
      <trkpt lat="46.39592" lon="8.04831">
        <ele>2321</ele>
        <time>2021-07-10T11:11:52.477Z</time>
      </trkpt>
      <trkpt lat="46.39591" lon="8.0483">
        <ele>2321</ele>
        <time>2021-07-10T11:11:53.477Z</time>
      </trkpt>
      <trkpt lat="46.39592" lon="8.0483">
        <ele>2322</ele>
        <time>2021-07-10T11:11:54.477Z</time>
      </trkpt>
      <trkpt lat="46.39592" lon="8.0483">
        <ele>2322</ele>
        <time>2021-07-10T11:11:55.477Z</time>
      </trkpt>
      <trkpt lat="46.39593" lon="8.0483">
        <ele>2323</ele>
        <time>2021-07-10T11:11:56.478Z</time>
      </trkpt>
      <trkpt lat="46.39593" lon="8.04829">
        <ele>2324</ele>
        <time>2021-07-10T11:11:57.477Z</time>
      </trkpt>
      <trkpt lat="46.39593" lon="8.04829">
        <ele>2328</ele>
        <time>2021-07-10T11:11:58.478Z</time>
      </trkpt>
      <trkpt lat="46.39594" lon="8.0483">
        <ele>2337</ele>
        <time>2021-07-10T11:11:59.477Z</time>
      </trkpt>
      <trkpt lat="46.39595" lon="8.0483">
        <ele>2337</ele>
        <time>2021-07-10T11:12:00.477Z</time>
      </trkpt>
      <trkpt lat="46.39595" lon="8.04831">
        <ele>2337</ele>
        <time>2021-07-10T11:12:01.477Z</time>
      </trkpt>
      <trkpt lat="46.39595" lon="8.04831">
        <ele>2337</ele>
        <time>2021-07-10T11:12:02.478Z</time>
      </trkpt>
      <trkpt lat="46.39595" lon="8.04831">
        <ele>2337</ele>
        <time>2021-07-10T11:12:03.478Z</time>
      </trkpt>
      <trkpt lat="46.39596" lon="8.0483">
        <ele>2337</ele>
        <time>2021-07-10T11:12:04.478Z</time>
      </trkpt>
      <trkpt lat="46.39598" lon="8.04829">
        <ele>2337</ele>
        <time>2021-07-10T11:12:05.478Z</time>
      </trkpt>
      <trkpt lat="46.39599" lon="8.04829">
        <ele>2337</ele>
        <time>2021-07-10T11:12:06.478Z</time>
      </trkpt>
      <trkpt lat="46.39599" lon="8.04828">
        <ele>2337</ele>
        <time>2021-07-10T11:12:07.478Z</time>
      </trkpt>
      <trkpt lat="46.396" lon="8.04827">
        <ele>2336</ele>
        <time>2021-07-10T11:12:08.478Z</time>
      </trkpt>
      <trkpt lat="46.396" lon="8.04827">
        <ele>2336</ele>
        <time>2021-07-10T11:12:09.478Z</time>
      </trkpt>
      <trkpt lat="46.396" lon="8.04826">
        <ele>2336</ele>
        <time>2021-07-10T11:12:10.478Z</time>
      </trkpt>
      <trkpt lat="46.396" lon="8.04826">
        <ele>2336</ele>
        <time>2021-07-10T11:12:11.478Z</time>
      </trkpt>
      <trkpt lat="46.39601" lon="8.04825">
        <ele>2336</ele>
        <time>2021-07-10T11:12:12.478Z</time>
      </trkpt>
      <trkpt lat="46.39601" lon="8.04825">
        <ele>2336</ele>
        <time>2021-07-10T11:12:13.478Z</time>
      </trkpt>
      <trkpt lat="46.39602" lon="8.04824">
        <ele>2336</ele>
        <time>2021-07-10T11:12:14.478Z</time>
      </trkpt>
      <trkpt lat="46.39603" lon="8.04824">
        <ele>2336</ele>
        <time>2021-07-10T11:12:15.478Z</time>
      </trkpt>
      <trkpt lat="46.39604" lon="8.04823">
        <ele>2336</ele>
        <time>2021-07-10T11:12:16.478Z</time>
      </trkpt>
      <trkpt lat="46.39605" lon="8.04822">
        <ele>2336</ele>
        <time>2021-07-10T11:12:17.477Z</time>
      </trkpt>
      <trkpt lat="46.39606" lon="8.04822">
        <ele>2335</ele>
        <time>2021-07-10T11:12:18.478Z</time>
      </trkpt>
      <trkpt lat="46.39606" lon="8.04821">
        <ele>2335</ele>
        <time>2021-07-10T11:12:19.478Z</time>
      </trkpt>
      <trkpt lat="46.39606" lon="8.04821">
        <ele>2335</ele>
        <time>2021-07-10T11:12:20.478Z</time>
      </trkpt>
      <trkpt lat="46.39606" lon="8.04821">
        <ele>2335</ele>
        <time>2021-07-10T11:12:21.478Z</time>
      </trkpt>
      <trkpt lat="46.3961" lon="8.04821">
        <ele>2334</ele>
        <time>2021-07-10T11:12:22.479Z</time>
      </trkpt>
      <trkpt lat="46.3961" lon="8.04821">
        <ele>2334</ele>
        <time>2021-07-10T11:12:23.479Z</time>
      </trkpt>
      <trkpt lat="46.3961" lon="8.04821">
        <ele>2334</ele>
        <time>2021-07-10T11:12:24.479Z</time>
      </trkpt>
      <trkpt lat="46.3961" lon="8.0482">
        <ele>2334</ele>
        <time>2021-07-10T11:12:25.479Z</time>
      </trkpt>
      <trkpt lat="46.39611" lon="8.04819">
        <ele>2335</ele>
        <time>2021-07-10T11:12:26.479Z</time>
      </trkpt>
      <trkpt lat="46.39612" lon="8.04818">
        <ele>2335</ele>
        <time>2021-07-10T11:12:27.479Z</time>
      </trkpt>
      <trkpt lat="46.39612" lon="8.04817">
        <ele>2335</ele>
        <time>2021-07-10T11:12:28.478Z</time>
      </trkpt>
      <trkpt lat="46.39613" lon="8.04816">
        <ele>2335</ele>
        <time>2021-07-10T11:12:29.479Z</time>
      </trkpt>
      <trkpt lat="46.39613" lon="8.04815">
        <ele>2336</ele>
        <time>2021-07-10T11:12:30.479Z</time>
      </trkpt>
      <trkpt lat="46.39614" lon="8.04814">
        <ele>2336</ele>
        <time>2021-07-10T11:12:31.479Z</time>
      </trkpt>
      <trkpt lat="46.39615" lon="8.04814">
        <ele>2336</ele>
        <time>2021-07-10T11:12:32.479Z</time>
      </trkpt>
      <trkpt lat="46.39616" lon="8.04813">
        <ele>2336</ele>
        <time>2021-07-10T11:12:33.478Z</time>
      </trkpt>
      <trkpt lat="46.39617" lon="8.04813">
        <ele>2335</ele>
        <time>2021-07-10T11:12:34.479Z</time>
      </trkpt>
      <trkpt lat="46.39618" lon="8.04812">
        <ele>2335</ele>
        <time>2021-07-10T11:12:35.479Z</time>
      </trkpt>
      <trkpt lat="46.39619" lon="8.04811">
        <ele>2335</ele>
        <time>2021-07-10T11:12:36.479Z</time>
      </trkpt>
      <trkpt lat="46.3962" lon="8.0481">
        <ele>2335</ele>
        <time>2021-07-10T11:12:37.479Z</time>
      </trkpt>
      <trkpt lat="46.3962" lon="8.0481">
        <ele>2335</ele>
        <time>2021-07-10T11:12:38.479Z</time>
      </trkpt>
      <trkpt lat="46.39621" lon="8.04809">
        <ele>2335</ele>
        <time>2021-07-10T11:12:39.479Z</time>
      </trkpt>
      <trkpt lat="46.39622" lon="8.04808">
        <ele>2335</ele>
        <time>2021-07-10T11:12:40.479Z</time>
      </trkpt>
      <trkpt lat="46.39622" lon="8.04807">
        <ele>2335</ele>
        <time>2021-07-10T11:12:41.479Z</time>
      </trkpt>
      <trkpt lat="46.39623" lon="8.04806">
        <ele>2335</ele>
        <time>2021-07-10T11:12:42.479Z</time>
      </trkpt>
      <trkpt lat="46.39623" lon="8.04805">
        <ele>2335</ele>
        <time>2021-07-10T11:12:43.479Z</time>
      </trkpt>
      <trkpt lat="46.39623" lon="8.04804">
        <ele>2335</ele>
        <time>2021-07-10T11:12:44.479Z</time>
      </trkpt>
      <trkpt lat="46.39623" lon="8.04804">
        <ele>2335</ele>
        <time>2021-07-10T11:12:45.479Z</time>
      </trkpt>
      <trkpt lat="46.39623" lon="8.04804">
        <ele>2335</ele>
        <time>2021-07-10T11:12:46.479Z</time>
      </trkpt>
      <trkpt lat="46.39624" lon="8.04803">
        <ele>2335</ele>
        <time>2021-07-10T11:12:47.479Z</time>
      </trkpt>
      <trkpt lat="46.39624" lon="8.04803">
        <ele>2335</ele>
        <time>2021-07-10T11:12:48.479Z</time>
      </trkpt>
      <trkpt lat="46.39624" lon="8.04803">
        <ele>2336</ele>
        <time>2021-07-10T11:12:49.478Z</time>
      </trkpt>
      <trkpt lat="46.39625" lon="8.04802">
        <ele>2335</ele>
        <time>2021-07-10T11:12:50.478Z</time>
      </trkpt>
      <trkpt lat="46.39625" lon="8.04802">
        <ele>2335</ele>
        <time>2021-07-10T11:12:51.479Z</time>
      </trkpt>
      <trkpt lat="46.39625" lon="8.04802">
        <ele>2335</ele>
        <time>2021-07-10T11:12:52.479Z</time>
      </trkpt>
      <trkpt lat="46.39625" lon="8.04801">
        <ele>2336</ele>
        <time>2021-07-10T11:12:53.479Z</time>
      </trkpt>
      <trkpt lat="46.39625" lon="8.04801">
        <ele>2336</ele>
        <time>2021-07-10T11:12:54.479Z</time>
      </trkpt>
      <trkpt lat="46.39626" lon="8.04801">
        <ele>2336</ele>
        <time>2021-07-10T11:12:55.478Z</time>
      </trkpt>
      <trkpt lat="46.39627" lon="8.048">
        <ele>2336</ele>
        <time>2021-07-10T11:12:56.479Z</time>
      </trkpt>
      <trkpt lat="46.39628" lon="8.048">
        <ele>2335</ele>
        <time>2021-07-10T11:12:57.479Z</time>
      </trkpt>
      <trkpt lat="46.39628" lon="8.04799">
        <ele>2335</ele>
        <time>2021-07-10T11:12:58.478Z</time>
      </trkpt>
      <trkpt lat="46.39628" lon="8.04798">
        <ele>2335</ele>
        <time>2021-07-10T11:12:59.478Z</time>
      </trkpt>
      <trkpt lat="46.39628" lon="8.04797">
        <ele>2335</ele>
        <time>2021-07-10T11:13:00.478Z</time>
      </trkpt>
      <trkpt lat="46.39628" lon="8.04796">
        <ele>2335</ele>
        <time>2021-07-10T11:13:01.479Z</time>
      </trkpt>
      <trkpt lat="46.39628" lon="8.04795">
        <ele>2335</ele>
        <time>2021-07-10T11:13:02.479Z</time>
      </trkpt>
      <trkpt lat="46.39629" lon="8.04795">
        <ele>2335</ele>
        <time>2021-07-10T11:13:03.478Z</time>
      </trkpt>
      <trkpt lat="46.39629" lon="8.04795">
        <ele>2335</ele>
        <time>2021-07-10T11:13:04.479Z</time>
      </trkpt>
      <trkpt lat="46.39629" lon="8.04795">
        <ele>2335</ele>
        <time>2021-07-10T11:13:05.479Z</time>
      </trkpt>
      <trkpt lat="46.3963" lon="8.04795">
        <ele>2335</ele>
        <time>2021-07-10T11:13:06.479Z</time>
      </trkpt>
      <trkpt lat="46.3963" lon="8.04796">
        <ele>2335</ele>
        <time>2021-07-10T11:13:07.479Z</time>
      </trkpt>
      <trkpt lat="46.3963" lon="8.04796">
        <ele>2334</ele>
        <time>2021-07-10T11:13:08.478Z</time>
      </trkpt>
      <trkpt lat="46.3963" lon="8.04796">
        <ele>2334</ele>
        <time>2021-07-10T11:13:09.478Z</time>
      </trkpt>
      <trkpt lat="46.39631" lon="8.04796">
        <ele>2332</ele>
        <time>2021-07-10T11:13:10.478Z</time>
      </trkpt>
      <trkpt lat="46.39631" lon="8.04796">
        <ele>2331</ele>
        <time>2021-07-10T11:13:11.478Z</time>
      </trkpt>
      <trkpt lat="46.39631" lon="8.04796">
        <ele>2333</ele>
        <time>2021-07-10T11:13:12.481Z</time>
      </trkpt>
      <trkpt lat="46.39631" lon="8.04796">
        <ele>2333</ele>
        <time>2021-07-10T11:13:13.481Z</time>
      </trkpt>
      <trkpt lat="46.39631" lon="8.04796">
        <ele>2332</ele>
        <time>2021-07-10T11:13:14.480Z</time>
      </trkpt>
      <trkpt lat="46.39631" lon="8.04795">
        <ele>2331</ele>
        <time>2021-07-10T11:13:15.480Z</time>
      </trkpt>
      <trkpt lat="46.39631" lon="8.04795">
        <ele>2330</ele>
        <time>2021-07-10T11:13:16.481Z</time>
      </trkpt>
      <trkpt lat="46.39629" lon="8.04796">
        <ele>2330</ele>
        <time>2021-07-10T11:13:17.481Z</time>
      </trkpt>
      <trkpt lat="46.39629" lon="8.04796">
        <ele>2330</ele>
        <time>2021-07-10T11:13:18.482Z</time>
      </trkpt>
      <trkpt lat="46.39628" lon="8.04799">
        <ele>2330</ele>
        <time>2021-07-10T11:13:19.482Z</time>
      </trkpt>
      <trkpt lat="46.39628" lon="8.048">
        <ele>2331</ele>
        <time>2021-07-10T11:13:20.482Z</time>
      </trkpt>
      <trkpt lat="46.39628" lon="8.048">
        <ele>2329</ele>
        <time>2021-07-10T11:13:21.482Z</time>
      </trkpt>
      <trkpt lat="46.39627" lon="8.04801">
        <ele>2327</ele>
        <time>2021-07-10T11:13:22.484Z</time>
      </trkpt>
      <trkpt lat="46.39628" lon="8.048">
        <ele>2327</ele>
        <time>2021-07-10T11:13:23.484Z</time>
      </trkpt>
      <trkpt lat="46.39628" lon="8.048">
        <ele>2328</ele>
        <time>2021-07-10T11:13:24.483Z</time>
      </trkpt>
      <trkpt lat="46.39628" lon="8.04799">
        <ele>2328</ele>
        <time>2021-07-10T11:13:25.484Z</time>
      </trkpt>
      <trkpt lat="46.39627" lon="8.048">
        <ele>2326</ele>
        <time>2021-07-10T11:13:26.485Z</time>
      </trkpt>
      <trkpt lat="46.39627" lon="8.048">
        <ele>2327</ele>
        <time>2021-07-10T11:13:27.484Z</time>
      </trkpt>
      <trkpt lat="46.39627" lon="8.048">
        <ele>2327</ele>
        <time>2021-07-10T11:13:28.484Z</time>
      </trkpt>
      <trkpt lat="46.39631" lon="8.04793">
        <ele>2326</ele>
        <time>2021-07-10T11:13:29.486Z</time>
      </trkpt>
      <trkpt lat="46.39631" lon="8.04793">
        <ele>2326</ele>
        <time>2021-07-10T11:13:30.486Z</time>
      </trkpt>
      <trkpt lat="46.39631" lon="8.04793">
        <ele>2326</ele>
        <time>2021-07-10T11:13:31.486Z</time>
      </trkpt>
      <trkpt lat="46.39631" lon="8.04793">
        <ele>2325</ele>
        <time>2021-07-10T11:13:32.486Z</time>
      </trkpt>
      <trkpt lat="46.39631" lon="8.04794">
        <ele>2325</ele>
        <time>2021-07-10T11:13:33.486Z</time>
      </trkpt>
      <trkpt lat="46.39631" lon="8.04794">
        <ele>2326</ele>
        <time>2021-07-10T11:13:34.485Z</time>
      </trkpt>
      <trkpt lat="46.39631" lon="8.04794">
        <ele>2326</ele>
        <time>2021-07-10T11:13:35.486Z</time>
      </trkpt>
      <trkpt lat="46.39631" lon="8.04794">
        <ele>2326</ele>
        <time>2021-07-10T11:13:36.486Z</time>
      </trkpt>
      <trkpt lat="46.39632" lon="8.04796">
        <ele>2331</ele>
        <time>2021-07-10T11:13:37.486Z</time>
      </trkpt>
      <trkpt lat="46.39627" lon="8.04802">
        <ele>2332</ele>
        <time>2021-07-10T11:13:38.486Z</time>
      </trkpt>
      <trkpt lat="46.39627" lon="8.04802">
        <ele>2332</ele>
        <time>2021-07-10T11:13:39.486Z</time>
      </trkpt>
      <trkpt lat="46.39628" lon="8.04798">
        <ele>2332</ele>
        <time>2021-07-10T11:13:40.487Z</time>
      </trkpt>
      <trkpt lat="46.39627" lon="8.04798">
        <ele>2332</ele>
        <time>2021-07-10T11:13:41.486Z</time>
      </trkpt>
      <trkpt lat="46.39627" lon="8.04798">
        <ele>2332</ele>
        <time>2021-07-10T11:13:42.487Z</time>
      </trkpt>
      <trkpt lat="46.39627" lon="8.04798">
        <ele>2333</ele>
        <time>2021-07-10T11:13:43.487Z</time>
      </trkpt>
      <trkpt lat="46.39626" lon="8.04798">
        <ele>2332</ele>
        <time>2021-07-10T11:13:44.487Z</time>
      </trkpt>
      <trkpt lat="46.39626" lon="8.04798">
        <ele>2332</ele>
        <time>2021-07-10T11:13:45.487Z</time>
      </trkpt>
      <trkpt lat="46.39625" lon="8.04798">
        <ele>2332</ele>
        <time>2021-07-10T11:13:46.486Z</time>
      </trkpt>
      <trkpt lat="46.39624" lon="8.04797">
        <ele>2332</ele>
        <time>2021-07-10T11:13:47.487Z</time>
      </trkpt>
      <trkpt lat="46.39623" lon="8.04797">
        <ele>2331</ele>
        <time>2021-07-10T11:13:48.486Z</time>
      </trkpt>
      <trkpt lat="46.39623" lon="8.04796">
        <ele>2331</ele>
        <time>2021-07-10T11:13:49.487Z</time>
      </trkpt>
      <trkpt lat="46.39623" lon="8.04795">
        <ele>2331</ele>
        <time>2021-07-10T11:13:50.486Z</time>
      </trkpt>
      <trkpt lat="46.39622" lon="8.04795">
        <ele>2330</ele>
        <time>2021-07-10T11:13:51.487Z</time>
      </trkpt>
      <trkpt lat="46.39622" lon="8.04794">
        <ele>2330</ele>
        <time>2021-07-10T11:13:52.486Z</time>
      </trkpt>
      <trkpt lat="46.39622" lon="8.04794">
        <ele>2329</ele>
        <time>2021-07-10T11:13:53.487Z</time>
      </trkpt>
      <trkpt lat="46.39621" lon="8.04793">
        <ele>2329</ele>
        <time>2021-07-10T11:13:54.487Z</time>
      </trkpt>
      <trkpt lat="46.39621" lon="8.04791">
        <ele>2329</ele>
        <time>2021-07-10T11:13:55.486Z</time>
      </trkpt>
      <trkpt lat="46.39621" lon="8.0479">
        <ele>2329</ele>
        <time>2021-07-10T11:13:56.487Z</time>
      </trkpt>
      <trkpt lat="46.39621" lon="8.04788">
        <ele>2329</ele>
        <time>2021-07-10T11:13:57.487Z</time>
      </trkpt>
      <trkpt lat="46.39621" lon="8.04787">
        <ele>2329</ele>
        <time>2021-07-10T11:13:58.486Z</time>
      </trkpt>
      <trkpt lat="46.3962" lon="8.04786">
        <ele>2329</ele>
        <time>2021-07-10T11:13:59.486Z</time>
      </trkpt>
      <trkpt lat="46.3962" lon="8.04785">
        <ele>2329</ele>
        <time>2021-07-10T11:14:00.487Z</time>
      </trkpt>
      <trkpt lat="46.3962" lon="8.04784">
        <ele>2329</ele>
        <time>2021-07-10T11:14:01.486Z</time>
      </trkpt>
      <trkpt lat="46.39619" lon="8.04783">
        <ele>2329</ele>
        <time>2021-07-10T11:14:02.487Z</time>
      </trkpt>
      <trkpt lat="46.39619" lon="8.04782">
        <ele>2329</ele>
        <time>2021-07-10T11:14:03.487Z</time>
      </trkpt>
      <trkpt lat="46.39618" lon="8.04781">
        <ele>2329</ele>
        <time>2021-07-10T11:14:04.487Z</time>
      </trkpt>
      <trkpt lat="46.39617" lon="8.0478">
        <ele>2329</ele>
        <time>2021-07-10T11:14:05.486Z</time>
      </trkpt>
      <trkpt lat="46.39617" lon="8.04779">
        <ele>2330</ele>
        <time>2021-07-10T11:14:06.486Z</time>
      </trkpt>
      <trkpt lat="46.39616" lon="8.04778">
        <ele>2330</ele>
        <time>2021-07-10T11:14:07.487Z</time>
      </trkpt>
      <trkpt lat="46.39616" lon="8.04777">
        <ele>2331</ele>
        <time>2021-07-10T11:14:08.486Z</time>
      </trkpt>
      <trkpt lat="46.39616" lon="8.04776">
        <ele>2331</ele>
        <time>2021-07-10T11:14:09.487Z</time>
      </trkpt>
      <trkpt lat="46.39616" lon="8.04776">
        <ele>2331</ele>
        <time>2021-07-10T11:14:10.487Z</time>
      </trkpt>
      <trkpt lat="46.39616" lon="8.04775">
        <ele>2332</ele>
        <time>2021-07-10T11:14:11.487Z</time>
      </trkpt>
      <trkpt lat="46.39617" lon="8.04774">
        <ele>2332</ele>
        <time>2021-07-10T11:14:12.486Z</time>
      </trkpt>
      <trkpt lat="46.39617" lon="8.04773">
        <ele>2332</ele>
        <time>2021-07-10T11:14:13.487Z</time>
      </trkpt>
      <trkpt lat="46.39616" lon="8.04773">
        <ele>2332</ele>
        <time>2021-07-10T11:14:14.487Z</time>
      </trkpt>
      <trkpt lat="46.39616" lon="8.04772">
        <ele>2332</ele>
        <time>2021-07-10T11:14:15.487Z</time>
      </trkpt>
      <trkpt lat="46.39615" lon="8.0477">
        <ele>2333</ele>
        <time>2021-07-10T11:14:16.487Z</time>
      </trkpt>
      <trkpt lat="46.39614" lon="8.0477">
        <ele>2333</ele>
        <time>2021-07-10T11:14:17.487Z</time>
      </trkpt>
      <trkpt lat="46.39613" lon="8.04769">
        <ele>2334</ele>
        <time>2021-07-10T11:14:18.487Z</time>
      </trkpt>
      <trkpt lat="46.39614" lon="8.04769">
        <ele>2334</ele>
        <time>2021-07-10T11:14:19.487Z</time>
      </trkpt>
      <trkpt lat="46.39612" lon="8.0477">
        <ele>2334</ele>
        <time>2021-07-10T11:14:20.487Z</time>
      </trkpt>
      <trkpt lat="46.39612" lon="8.04772">
        <ele>2334</ele>
        <time>2021-07-10T11:14:21.487Z</time>
      </trkpt>
      <trkpt lat="46.39612" lon="8.04773">
        <ele>2333</ele>
        <time>2021-07-10T11:14:22.487Z</time>
      </trkpt>
      <trkpt lat="46.39612" lon="8.04774">
        <ele>2332</ele>
        <time>2021-07-10T11:14:23.487Z</time>
      </trkpt>
      <trkpt lat="46.39612" lon="8.04773">
        <ele>2332</ele>
        <time>2021-07-10T11:14:24.487Z</time>
      </trkpt>
      <trkpt lat="46.39613" lon="8.04773">
        <ele>2333</ele>
        <time>2021-07-10T11:14:25.488Z</time>
      </trkpt>
      <trkpt lat="46.39612" lon="8.04773">
        <ele>2332</ele>
        <time>2021-07-10T11:14:26.489Z</time>
      </trkpt>
      <trkpt lat="46.39612" lon="8.04773">
        <ele>2332</ele>
        <time>2021-07-10T11:14:27.488Z</time>
      </trkpt>
      <trkpt lat="46.39612" lon="8.04773">
        <ele>2331</ele>
        <time>2021-07-10T11:14:28.489Z</time>
      </trkpt>
      <trkpt lat="46.39614" lon="8.04771">
        <ele>2329</ele>
        <time>2021-07-10T11:14:29.490Z</time>
      </trkpt>
      <trkpt lat="46.39614" lon="8.04771">
        <ele>2329</ele>
        <time>2021-07-10T11:14:30.489Z</time>
      </trkpt>
      <trkpt lat="46.39615" lon="8.04771">
        <ele>2329</ele>
        <time>2021-07-10T11:14:31.490Z</time>
      </trkpt>
      <trkpt lat="46.39615" lon="8.04771">
        <ele>2329</ele>
        <time>2021-07-10T11:14:32.489Z</time>
      </trkpt>
      <trkpt lat="46.39616" lon="8.04772">
        <ele>2329</ele>
        <time>2021-07-10T11:14:33.489Z</time>
      </trkpt>
      <trkpt lat="46.39616" lon="8.04772">
        <ele>2329</ele>
        <time>2021-07-10T11:14:34.490Z</time>
      </trkpt>
      <trkpt lat="46.39616" lon="8.04774">
        <ele>2329</ele>
        <time>2021-07-10T11:14:35.490Z</time>
      </trkpt>
      <trkpt lat="46.39616" lon="8.04775">
        <ele>2329</ele>
        <time>2021-07-10T11:14:36.489Z</time>
      </trkpt>
      <trkpt lat="46.39618" lon="8.04772">
        <ele>2341</ele>
        <time>2021-07-10T11:14:37.490Z</time>
      </trkpt>
      <trkpt lat="46.39618" lon="8.04771">
        <ele>2342</ele>
        <time>2021-07-10T11:14:38.490Z</time>
      </trkpt>
      <trkpt lat="46.39618" lon="8.04772">
        <ele>2342</ele>
        <time>2021-07-10T11:14:39.490Z</time>
      </trkpt>
      <trkpt lat="46.39618" lon="8.04771">
        <ele>2343</ele>
        <time>2021-07-10T11:14:40.491Z</time>
      </trkpt>
      <trkpt lat="46.39617" lon="8.04772">
        <ele>2344</ele>
        <time>2021-07-10T11:14:41.491Z</time>
      </trkpt>
      <trkpt lat="46.39617" lon="8.04773">
        <ele>2344</ele>
        <time>2021-07-10T11:14:42.491Z</time>
      </trkpt>
      <trkpt lat="46.39617" lon="8.04773">
        <ele>2344</ele>
        <time>2021-07-10T11:14:43.491Z</time>
      </trkpt>
      <trkpt lat="46.39617" lon="8.04774">
        <ele>2343</ele>
        <time>2021-07-10T11:14:44.492Z</time>
      </trkpt>
      <trkpt lat="46.39617" lon="8.04774">
        <ele>2343</ele>
        <time>2021-07-10T11:14:45.492Z</time>
      </trkpt>
      <trkpt lat="46.39617" lon="8.04776">
        <ele>2343</ele>
        <time>2021-07-10T11:14:46.493Z</time>
      </trkpt>
      <trkpt lat="46.39617" lon="8.04777">
        <ele>2342</ele>
        <time>2021-07-10T11:14:47.492Z</time>
      </trkpt>
      <trkpt lat="46.39617" lon="8.04778">
        <ele>2342</ele>
        <time>2021-07-10T11:14:48.492Z</time>
      </trkpt>
      <trkpt lat="46.39618" lon="8.04779">
        <ele>2341</ele>
        <time>2021-07-10T11:14:49.492Z</time>
      </trkpt>
      <trkpt lat="46.39618" lon="8.04779">
        <ele>2341</ele>
        <time>2021-07-10T11:14:50.492Z</time>
      </trkpt>
      <trkpt lat="46.39617" lon="8.04779">
        <ele>2340</ele>
        <time>2021-07-10T11:14:51.492Z</time>
      </trkpt>
      <trkpt lat="46.39617" lon="8.04779">
        <ele>2339</ele>
        <time>2021-07-10T11:14:52.493Z</time>
      </trkpt>
      <trkpt lat="46.39617" lon="8.0478">
        <ele>2338</ele>
        <time>2021-07-10T11:14:53.493Z</time>
      </trkpt>
      <trkpt lat="46.39616" lon="8.0478">
        <ele>2337</ele>
        <time>2021-07-10T11:14:54.492Z</time>
      </trkpt>
      <trkpt lat="46.39616" lon="8.0478">
        <ele>2337</ele>
        <time>2021-07-10T11:14:55.493Z</time>
      </trkpt>
      <trkpt lat="46.39616" lon="8.04779">
        <ele>2336</ele>
        <time>2021-07-10T11:14:56.493Z</time>
      </trkpt>
      <trkpt lat="46.39616" lon="8.04778">
        <ele>2336</ele>
        <time>2021-07-10T11:14:57.492Z</time>
      </trkpt>
      <trkpt lat="46.39615" lon="8.04777">
        <ele>2336</ele>
        <time>2021-07-10T11:14:58.493Z</time>
      </trkpt>
      <trkpt lat="46.39615" lon="8.04776">
        <ele>2336</ele>
        <time>2021-07-10T11:14:59.493Z</time>
      </trkpt>
      <trkpt lat="46.39614" lon="8.04775">
        <ele>2336</ele>
        <time>2021-07-10T11:15:00.493Z</time>
      </trkpt>
      <trkpt lat="46.39614" lon="8.04774">
        <ele>2336</ele>
        <time>2021-07-10T11:15:01.493Z</time>
      </trkpt>
      <trkpt lat="46.39613" lon="8.04774">
        <ele>2336</ele>
        <time>2021-07-10T11:15:02.493Z</time>
      </trkpt>
      <trkpt lat="46.39613" lon="8.04773">
        <ele>2336</ele>
        <time>2021-07-10T11:15:03.492Z</time>
      </trkpt>
      <trkpt lat="46.39612" lon="8.04773">
        <ele>2336</ele>
        <time>2021-07-10T11:15:04.493Z</time>
      </trkpt>
      <trkpt lat="46.39612" lon="8.04772">
        <ele>2336</ele>
        <time>2021-07-10T11:15:05.493Z</time>
      </trkpt>
      <trkpt lat="46.39611" lon="8.04772">
        <ele>2336</ele>
        <time>2021-07-10T11:15:06.492Z</time>
      </trkpt>
      <trkpt lat="46.3961" lon="8.04771">
        <ele>2336</ele>
        <time>2021-07-10T11:15:07.492Z</time>
      </trkpt>
      <trkpt lat="46.39609" lon="8.0477">
        <ele>2335</ele>
        <time>2021-07-10T11:15:08.492Z</time>
      </trkpt>
      <trkpt lat="46.39608" lon="8.04768">
        <ele>2335</ele>
        <time>2021-07-10T11:15:09.493Z</time>
      </trkpt>
      <trkpt lat="46.39607" lon="8.04768">
        <ele>2335</ele>
        <time>2021-07-10T11:15:10.493Z</time>
      </trkpt>
      <trkpt lat="46.39607" lon="8.04768">
        <ele>2334</ele>
        <time>2021-07-10T11:15:11.492Z</time>
      </trkpt>
      <trkpt lat="46.39607" lon="8.04768">
        <ele>2333</ele>
        <time>2021-07-10T11:15:12.492Z</time>
      </trkpt>
      <trkpt lat="46.39606" lon="8.04768">
        <ele>2327</ele>
        <time>2021-07-10T11:15:13.492Z</time>
      </trkpt>
      <trkpt lat="46.39606" lon="8.04768">
        <ele>2327</ele>
        <time>2021-07-10T11:15:14.493Z</time>
      </trkpt>
      <trkpt lat="46.39606" lon="8.04767">
        <ele>2328</ele>
        <time>2021-07-10T11:15:15.492Z</time>
      </trkpt>
      <trkpt lat="46.39605" lon="8.04766">
        <ele>2328</ele>
        <time>2021-07-10T11:15:16.492Z</time>
      </trkpt>
      <trkpt lat="46.39605" lon="8.04765">
        <ele>2328</ele>
        <time>2021-07-10T11:15:17.493Z</time>
      </trkpt>
      <trkpt lat="46.39605" lon="8.04764">
        <ele>2329</ele>
        <time>2021-07-10T11:15:18.492Z</time>
      </trkpt>
      <trkpt lat="46.39604" lon="8.04763">
        <ele>2329</ele>
        <time>2021-07-10T11:15:19.493Z</time>
      </trkpt>
      <trkpt lat="46.39604" lon="8.04762">
        <ele>2329</ele>
        <time>2021-07-10T11:15:20.493Z</time>
      </trkpt>
      <trkpt lat="46.39603" lon="8.04761">
        <ele>2329</ele>
        <time>2021-07-10T11:15:21.492Z</time>
      </trkpt>
      <trkpt lat="46.39602" lon="8.04761">
        <ele>2329</ele>
        <time>2021-07-10T11:15:22.492Z</time>
      </trkpt>
      <trkpt lat="46.39602" lon="8.0476">
        <ele>2329</ele>
        <time>2021-07-10T11:15:23.492Z</time>
      </trkpt>
      <trkpt lat="46.39601" lon="8.0476">
        <ele>2329</ele>
        <time>2021-07-10T11:15:24.492Z</time>
      </trkpt>
      <trkpt lat="46.39601" lon="8.04759">
        <ele>2329</ele>
        <time>2021-07-10T11:15:25.493Z</time>
      </trkpt>
      <trkpt lat="46.396" lon="8.04759">
        <ele>2329</ele>
        <time>2021-07-10T11:15:26.492Z</time>
      </trkpt>
      <trkpt lat="46.396" lon="8.04759">
        <ele>2330</ele>
        <time>2021-07-10T11:15:27.492Z</time>
      </trkpt>
      <trkpt lat="46.39599" lon="8.04759">
        <ele>2330</ele>
        <time>2021-07-10T11:15:28.492Z</time>
      </trkpt>
      <trkpt lat="46.39599" lon="8.04759">
        <ele>2330</ele>
        <time>2021-07-10T11:15:29.492Z</time>
      </trkpt>
      <trkpt lat="46.39598" lon="8.04759">
        <ele>2330</ele>
        <time>2021-07-10T11:15:30.493Z</time>
      </trkpt>
      <trkpt lat="46.39598" lon="8.04759">
        <ele>2330</ele>
        <time>2021-07-10T11:15:31.493Z</time>
      </trkpt>
      <trkpt lat="46.39598" lon="8.04758">
        <ele>2330</ele>
        <time>2021-07-10T11:15:32.493Z</time>
      </trkpt>
      <trkpt lat="46.39597" lon="8.04757">
        <ele>2330</ele>
        <time>2021-07-10T11:15:33.492Z</time>
      </trkpt>
      <trkpt lat="46.39597" lon="8.04757">
        <ele>2330</ele>
        <time>2021-07-10T11:15:34.492Z</time>
      </trkpt>
      <trkpt lat="46.39596" lon="8.04756">
        <ele>2330</ele>
        <time>2021-07-10T11:15:35.493Z</time>
      </trkpt>
      <trkpt lat="46.39596" lon="8.04756">
        <ele>2330</ele>
        <time>2021-07-10T11:15:36.492Z</time>
      </trkpt>
      <trkpt lat="46.39595" lon="8.04756">
        <ele>2330</ele>
        <time>2021-07-10T11:15:37.492Z</time>
      </trkpt>
      <trkpt lat="46.39595" lon="8.04759">
        <ele>2324</ele>
        <time>2021-07-10T11:15:38.494Z</time>
      </trkpt>
      <trkpt lat="46.39595" lon="8.04758">
        <ele>2324</ele>
        <time>2021-07-10T11:15:39.493Z</time>
      </trkpt>
      <trkpt lat="46.39595" lon="8.04757">
        <ele>2324</ele>
        <time>2021-07-10T11:15:40.494Z</time>
      </trkpt>
      <trkpt lat="46.39595" lon="8.04756">
        <ele>2325</ele>
        <time>2021-07-10T11:15:41.494Z</time>
      </trkpt>
      <trkpt lat="46.39594" lon="8.04754">
        <ele>2325</ele>
        <time>2021-07-10T11:15:42.493Z</time>
      </trkpt>
      <trkpt lat="46.39593" lon="8.04753">
        <ele>2325</ele>
        <time>2021-07-10T11:15:43.494Z</time>
      </trkpt>
      <trkpt lat="46.39592" lon="8.04752">
        <ele>2326</ele>
        <time>2021-07-10T11:15:44.493Z</time>
      </trkpt>
      <trkpt lat="46.39592" lon="8.04751">
        <ele>2327</ele>
        <time>2021-07-10T11:15:45.493Z</time>
      </trkpt>
      <trkpt lat="46.39591" lon="8.0475">
        <ele>2327</ele>
        <time>2021-07-10T11:15:46.494Z</time>
      </trkpt>
      <trkpt lat="46.39591" lon="8.04749">
        <ele>2328</ele>
        <time>2021-07-10T11:15:47.493Z</time>
      </trkpt>
      <trkpt lat="46.3959" lon="8.04748">
        <ele>2328</ele>
        <time>2021-07-10T11:15:48.494Z</time>
      </trkpt>
      <trkpt lat="46.3959" lon="8.04746">
        <ele>2328</ele>
        <time>2021-07-10T11:15:49.494Z</time>
      </trkpt>
      <trkpt lat="46.39589" lon="8.04745">
        <ele>2328</ele>
        <time>2021-07-10T11:15:50.493Z</time>
      </trkpt>
      <trkpt lat="46.39589" lon="8.04744">
        <ele>2328</ele>
        <time>2021-07-10T11:15:51.494Z</time>
      </trkpt>
      <trkpt lat="46.39588" lon="8.04743">
        <ele>2328</ele>
        <time>2021-07-10T11:15:52.493Z</time>
      </trkpt>
      <trkpt lat="46.39587" lon="8.04742">
        <ele>2329</ele>
        <time>2021-07-10T11:15:53.493Z</time>
      </trkpt>
      <trkpt lat="46.39587" lon="8.04741">
        <ele>2329</ele>
        <time>2021-07-10T11:15:54.493Z</time>
      </trkpt>
      <trkpt lat="46.39586" lon="8.04741">
        <ele>2329</ele>
        <time>2021-07-10T11:15:55.494Z</time>
      </trkpt>
      <trkpt lat="46.39586" lon="8.04737">
        <ele>2329</ele>
        <time>2021-07-10T11:15:56.494Z</time>
      </trkpt>
      <trkpt lat="46.39586" lon="8.04736">
        <ele>2329</ele>
        <time>2021-07-10T11:15:57.494Z</time>
      </trkpt>
      <trkpt lat="46.39585" lon="8.04735">
        <ele>2329</ele>
        <time>2021-07-10T11:15:58.494Z</time>
      </trkpt>
      <trkpt lat="46.39585" lon="8.04734">
        <ele>2329</ele>
        <time>2021-07-10T11:15:59.494Z</time>
      </trkpt>
      <trkpt lat="46.39585" lon="8.04733">
        <ele>2328</ele>
        <time>2021-07-10T11:16:00.494Z</time>
      </trkpt>
      <trkpt lat="46.39585" lon="8.04732">
        <ele>2328</ele>
        <time>2021-07-10T11:16:01.495Z</time>
      </trkpt>
      <trkpt lat="46.39585" lon="8.04731">
        <ele>2327</ele>
        <time>2021-07-10T11:16:02.494Z</time>
      </trkpt>
      <trkpt lat="46.39585" lon="8.04729">
        <ele>2327</ele>
        <time>2021-07-10T11:16:03.494Z</time>
      </trkpt>
      <trkpt lat="46.39584" lon="8.04728">
        <ele>2327</ele>
        <time>2021-07-10T11:16:04.495Z</time>
      </trkpt>
      <trkpt lat="46.39584" lon="8.04727">
        <ele>2327</ele>
        <time>2021-07-10T11:16:05.495Z</time>
      </trkpt>
      <trkpt lat="46.39583" lon="8.04726">
        <ele>2327</ele>
        <time>2021-07-10T11:16:06.494Z</time>
      </trkpt>
      <trkpt lat="46.39582" lon="8.04724">
        <ele>2327</ele>
        <time>2021-07-10T11:16:07.495Z</time>
      </trkpt>
      <trkpt lat="46.39582" lon="8.04722">
        <ele>2328</ele>
        <time>2021-07-10T11:16:08.494Z</time>
      </trkpt>
      <trkpt lat="46.39581" lon="8.04721">
        <ele>2328</ele>
        <time>2021-07-10T11:16:09.494Z</time>
      </trkpt>
      <trkpt lat="46.39581" lon="8.04719">
        <ele>2328</ele>
        <time>2021-07-10T11:16:10.494Z</time>
      </trkpt>
      <trkpt lat="46.3958" lon="8.04718">
        <ele>2328</ele>
        <time>2021-07-10T11:16:11.495Z</time>
      </trkpt>
      <trkpt lat="46.3958" lon="8.04718">
        <ele>2329</ele>
        <time>2021-07-10T11:16:12.494Z</time>
      </trkpt>
      <trkpt lat="46.3958" lon="8.04717">
        <ele>2329</ele>
        <time>2021-07-10T11:16:13.494Z</time>
      </trkpt>
      <trkpt lat="46.39579" lon="8.04716">
        <ele>2329</ele>
        <time>2021-07-10T11:16:14.494Z</time>
      </trkpt>
      <trkpt lat="46.39578" lon="8.04715">
        <ele>2329</ele>
        <time>2021-07-10T11:16:15.494Z</time>
      </trkpt>
      <trkpt lat="46.39577" lon="8.04714">
        <ele>2329</ele>
        <time>2021-07-10T11:16:16.494Z</time>
      </trkpt>
      <trkpt lat="46.39577" lon="8.04713">
        <ele>2329</ele>
        <time>2021-07-10T11:16:17.494Z</time>
      </trkpt>
      <trkpt lat="46.39576" lon="8.04712">
        <ele>2329</ele>
        <time>2021-07-10T11:16:18.495Z</time>
      </trkpt>
      <trkpt lat="46.39575" lon="8.04711">
        <ele>2329</ele>
        <time>2021-07-10T11:16:19.495Z</time>
      </trkpt>
      <trkpt lat="46.39575" lon="8.0471">
        <ele>2329</ele>
        <time>2021-07-10T11:16:20.494Z</time>
      </trkpt>
      <trkpt lat="46.39574" lon="8.0471">
        <ele>2329</ele>
        <time>2021-07-10T11:16:21.495Z</time>
      </trkpt>
      <trkpt lat="46.39574" lon="8.04709">
        <ele>2329</ele>
        <time>2021-07-10T11:16:22.495Z</time>
      </trkpt>
      <trkpt lat="46.39574" lon="8.04709">
        <ele>2329</ele>
        <time>2021-07-10T11:16:23.494Z</time>
      </trkpt>
      <trkpt lat="46.39574" lon="8.04709">
        <ele>2328</ele>
        <time>2021-07-10T11:16:24.494Z</time>
      </trkpt>
      <trkpt lat="46.39574" lon="8.04709">
        <ele>2328</ele>
        <time>2021-07-10T11:16:25.494Z</time>
      </trkpt>
      <trkpt lat="46.39572" lon="8.04708">
        <ele>2325</ele>
        <time>2021-07-10T11:16:26.495Z</time>
      </trkpt>
      <trkpt lat="46.39572" lon="8.04708">
        <ele>2325</ele>
        <time>2021-07-10T11:16:27.494Z</time>
      </trkpt>
      <trkpt lat="46.39571" lon="8.04706">
        <ele>2325</ele>
        <time>2021-07-10T11:16:28.496Z</time>
      </trkpt>
      <trkpt lat="46.39571" lon="8.04704">
        <ele>2326</ele>
        <time>2021-07-10T11:16:29.495Z</time>
      </trkpt>
      <trkpt lat="46.39571" lon="8.04703">
        <ele>2326</ele>
        <time>2021-07-10T11:16:30.496Z</time>
      </trkpt>
      <trkpt lat="46.3957" lon="8.04702">
        <ele>2326</ele>
        <time>2021-07-10T11:16:31.496Z</time>
      </trkpt>
      <trkpt lat="46.3957" lon="8.04701">
        <ele>2326</ele>
        <time>2021-07-10T11:16:32.495Z</time>
      </trkpt>
      <trkpt lat="46.3957" lon="8.047">
        <ele>2326</ele>
        <time>2021-07-10T11:16:33.496Z</time>
      </trkpt>
      <trkpt lat="46.3957" lon="8.04699">
        <ele>2326</ele>
        <time>2021-07-10T11:16:34.495Z</time>
      </trkpt>
      <trkpt lat="46.3957" lon="8.04698">
        <ele>2326</ele>
        <time>2021-07-10T11:16:35.495Z</time>
      </trkpt>
      <trkpt lat="46.3957" lon="8.04697">
        <ele>2327</ele>
        <time>2021-07-10T11:16:36.495Z</time>
      </trkpt>
      <trkpt lat="46.39571" lon="8.04696">
        <ele>2327</ele>
        <time>2021-07-10T11:16:37.496Z</time>
      </trkpt>
      <trkpt lat="46.39571" lon="8.04695">
        <ele>2327</ele>
        <time>2021-07-10T11:16:38.495Z</time>
      </trkpt>
      <trkpt lat="46.39572" lon="8.04695">
        <ele>2327</ele>
        <time>2021-07-10T11:16:39.495Z</time>
      </trkpt>
      <trkpt lat="46.39572" lon="8.04693">
        <ele>2328</ele>
        <time>2021-07-10T11:16:40.495Z</time>
      </trkpt>
      <trkpt lat="46.39573" lon="8.04692">
        <ele>2328</ele>
        <time>2021-07-10T11:16:41.495Z</time>
      </trkpt>
      <trkpt lat="46.39573" lon="8.04692">
        <ele>2328</ele>
        <time>2021-07-10T11:16:42.495Z</time>
      </trkpt>
      <trkpt lat="46.39574" lon="8.04692">
        <ele>2328</ele>
        <time>2021-07-10T11:16:43.496Z</time>
      </trkpt>
      <trkpt lat="46.39574" lon="8.04691">
        <ele>2328</ele>
        <time>2021-07-10T11:16:44.495Z</time>
      </trkpt>
      <trkpt lat="46.39575" lon="8.0469">
        <ele>2328</ele>
        <time>2021-07-10T11:16:45.495Z</time>
      </trkpt>
      <trkpt lat="46.39576" lon="8.04689">
        <ele>2328</ele>
        <time>2021-07-10T11:16:46.495Z</time>
      </trkpt>
      <trkpt lat="46.39576" lon="8.04688">
        <ele>2328</ele>
        <time>2021-07-10T11:16:47.495Z</time>
      </trkpt>
      <trkpt lat="46.39577" lon="8.04687">
        <ele>2328</ele>
        <time>2021-07-10T11:16:48.495Z</time>
      </trkpt>
      <trkpt lat="46.39577" lon="8.04686">
        <ele>2328</ele>
        <time>2021-07-10T11:16:49.495Z</time>
      </trkpt>
      <trkpt lat="46.39577" lon="8.04685">
        <ele>2328</ele>
        <time>2021-07-10T11:16:50.496Z</time>
      </trkpt>
      <trkpt lat="46.39577" lon="8.04684">
        <ele>2327</ele>
        <time>2021-07-10T11:16:51.495Z</time>
      </trkpt>
      <trkpt lat="46.39577" lon="8.04683">
        <ele>2327</ele>
        <time>2021-07-10T11:16:52.495Z</time>
      </trkpt>
      <trkpt lat="46.39578" lon="8.04682">
        <ele>2327</ele>
        <time>2021-07-10T11:16:53.496Z</time>
      </trkpt>
      <trkpt lat="46.39577" lon="8.0468">
        <ele>2327</ele>
        <time>2021-07-10T11:16:54.496Z</time>
      </trkpt>
      <trkpt lat="46.39577" lon="8.04679">
        <ele>2328</ele>
        <time>2021-07-10T11:16:55.495Z</time>
      </trkpt>
      <trkpt lat="46.39577" lon="8.04678">
        <ele>2327</ele>
        <time>2021-07-10T11:16:56.495Z</time>
      </trkpt>
      <trkpt lat="46.39576" lon="8.04677">
        <ele>2327</ele>
        <time>2021-07-10T11:16:57.496Z</time>
      </trkpt>
      <trkpt lat="46.39576" lon="8.04675">
        <ele>2326</ele>
        <time>2021-07-10T11:16:58.495Z</time>
      </trkpt>
      <trkpt lat="46.39576" lon="8.04673">
        <ele>2326</ele>
        <time>2021-07-10T11:16:59.495Z</time>
      </trkpt>
      <trkpt lat="46.39576" lon="8.04672">
        <ele>2325</ele>
        <time>2021-07-10T11:17:00.495Z</time>
      </trkpt>
      <trkpt lat="46.39576" lon="8.04671">
        <ele>2324</ele>
        <time>2021-07-10T11:17:01.495Z</time>
      </trkpt>
      <trkpt lat="46.39576" lon="8.0467">
        <ele>2324</ele>
        <time>2021-07-10T11:17:02.495Z</time>
      </trkpt>
      <trkpt lat="46.39577" lon="8.04668">
        <ele>2324</ele>
        <time>2021-07-10T11:17:03.496Z</time>
      </trkpt>
      <trkpt lat="46.39577" lon="8.04667">
        <ele>2323</ele>
        <time>2021-07-10T11:17:04.496Z</time>
      </trkpt>
      <trkpt lat="46.39577" lon="8.04666">
        <ele>2324</ele>
        <time>2021-07-10T11:17:05.495Z</time>
      </trkpt>
      <trkpt lat="46.39577" lon="8.04665">
        <ele>2325</ele>
        <time>2021-07-10T11:17:06.495Z</time>
      </trkpt>
      <trkpt lat="46.39576" lon="8.04664">
        <ele>2325</ele>
        <time>2021-07-10T11:17:07.495Z</time>
      </trkpt>
      <trkpt lat="46.39577" lon="8.04663">
        <ele>2325</ele>
        <time>2021-07-10T11:17:08.496Z</time>
      </trkpt>
      <trkpt lat="46.39576" lon="8.04662">
        <ele>2325</ele>
        <time>2021-07-10T11:17:09.495Z</time>
      </trkpt>
      <trkpt lat="46.39576" lon="8.04662">
        <ele>2325</ele>
        <time>2021-07-10T11:17:10.495Z</time>
      </trkpt>
      <trkpt lat="46.39576" lon="8.04662">
        <ele>2325</ele>
        <time>2021-07-10T11:17:11.495Z</time>
      </trkpt>
      <trkpt lat="46.39577" lon="8.04662">
        <ele>2325</ele>
        <time>2021-07-10T11:17:12.495Z</time>
      </trkpt>
      <trkpt lat="46.39577" lon="8.04661">
        <ele>2325</ele>
        <time>2021-07-10T11:17:13.495Z</time>
      </trkpt>
      <trkpt lat="46.39577" lon="8.04662">
        <ele>2324</ele>
        <time>2021-07-10T11:17:14.495Z</time>
      </trkpt>
      <trkpt lat="46.39577" lon="8.04662">
        <ele>2323</ele>
        <time>2021-07-10T11:17:15.495Z</time>
      </trkpt>
      <trkpt lat="46.39577" lon="8.04662">
        <ele>2323</ele>
        <time>2021-07-10T11:17:16.496Z</time>
      </trkpt>
      <trkpt lat="46.39577" lon="8.04662">
        <ele>2322</ele>
        <time>2021-07-10T11:17:17.495Z</time>
      </trkpt>
      <trkpt lat="46.39577" lon="8.04662">
        <ele>2322</ele>
        <time>2021-07-10T11:17:18.495Z</time>
      </trkpt>
      <trkpt lat="46.39576" lon="8.04663">
        <ele>2319</ele>
        <time>2021-07-10T11:17:19.496Z</time>
      </trkpt>
      <trkpt lat="46.39575" lon="8.04664">
        <ele>2319</ele>
        <time>2021-07-10T11:17:20.496Z</time>
      </trkpt>
      <trkpt lat="46.39576" lon="8.04662">
        <ele>2324</ele>
        <time>2021-07-10T11:17:21.495Z</time>
      </trkpt>
      <trkpt lat="46.39576" lon="8.04662">
        <ele>2324</ele>
        <time>2021-07-10T11:17:22.495Z</time>
      </trkpt>
      <trkpt lat="46.39576" lon="8.04661">
        <ele>2325</ele>
        <time>2021-07-10T11:17:23.495Z</time>
      </trkpt>
      <trkpt lat="46.39576" lon="8.04663">
        <ele>2324</ele>
        <time>2021-07-10T11:17:24.495Z</time>
      </trkpt>
      <trkpt lat="46.39575" lon="8.04663">
        <ele>2324</ele>
        <time>2021-07-10T11:17:25.495Z</time>
      </trkpt>
      <trkpt lat="46.39575" lon="8.04663">
        <ele>2324</ele>
        <time>2021-07-10T11:17:26.495Z</time>
      </trkpt>
      <trkpt lat="46.39575" lon="8.04664">
        <ele>2324</ele>
        <time>2021-07-10T11:17:27.496Z</time>
      </trkpt>
      <trkpt lat="46.39575" lon="8.04664">
        <ele>2324</ele>
        <time>2021-07-10T11:17:28.495Z</time>
      </trkpt>
      <trkpt lat="46.39575" lon="8.04664">
        <ele>2322</ele>
        <time>2021-07-10T11:17:29.495Z</time>
      </trkpt>
      <trkpt lat="46.39575" lon="8.04665">
        <ele>2322</ele>
        <time>2021-07-10T11:17:30.496Z</time>
      </trkpt>
      <trkpt lat="46.39574" lon="8.04666">
        <ele>2323</ele>
        <time>2021-07-10T11:17:31.495Z</time>
      </trkpt>
      <trkpt lat="46.39574" lon="8.04666">
        <ele>2323</ele>
        <time>2021-07-10T11:17:32.495Z</time>
      </trkpt>
      <trkpt lat="46.39574" lon="8.04667">
        <ele>2324</ele>
        <time>2021-07-10T11:17:33.495Z</time>
      </trkpt>
      <trkpt lat="46.39574" lon="8.04668">
        <ele>2324</ele>
        <time>2021-07-10T11:17:34.495Z</time>
      </trkpt>
      <trkpt lat="46.39574" lon="8.04668">
        <ele>2324</ele>
        <time>2021-07-10T11:17:35.495Z</time>
      </trkpt>
      <trkpt lat="46.39574" lon="8.04669">
        <ele>2324</ele>
        <time>2021-07-10T11:17:36.497Z</time>
      </trkpt>
      <trkpt lat="46.39574" lon="8.04669">
        <ele>2323</ele>
        <time>2021-07-10T11:17:37.497Z</time>
      </trkpt>
      <trkpt lat="46.39574" lon="8.04669">
        <ele>2323</ele>
        <time>2021-07-10T11:17:38.496Z</time>
      </trkpt>
      <trkpt lat="46.39573" lon="8.04669">
        <ele>2322</ele>
        <time>2021-07-10T11:17:39.496Z</time>
      </trkpt>
      <trkpt lat="46.39573" lon="8.0467">
        <ele>2322</ele>
        <time>2021-07-10T11:17:40.496Z</time>
      </trkpt>
      <trkpt lat="46.39576" lon="8.04664">
        <ele>2325</ele>
        <time>2021-07-10T11:17:41.497Z</time>
      </trkpt>
      <trkpt lat="46.39576" lon="8.04664">
        <ele>2325</ele>
        <time>2021-07-10T11:17:42.498Z</time>
      </trkpt>
      <trkpt lat="46.39576" lon="8.04663">
        <ele>2322</ele>
        <time>2021-07-10T11:17:43.497Z</time>
      </trkpt>
      <trkpt lat="46.39576" lon="8.04663">
        <ele>2323</ele>
        <time>2021-07-10T11:17:44.498Z</time>
      </trkpt>
      <trkpt lat="46.39576" lon="8.04663">
        <ele>2323</ele>
        <time>2021-07-10T11:17:45.497Z</time>
      </trkpt>
      <trkpt lat="46.39577" lon="8.04663">
        <ele>2323</ele>
        <time>2021-07-10T11:17:46.497Z</time>
      </trkpt>
      <trkpt lat="46.39577" lon="8.04663">
        <ele>2324</ele>
        <time>2021-07-10T11:17:47.497Z</time>
      </trkpt>
      <trkpt lat="46.39577" lon="8.04663">
        <ele>2324</ele>
        <time>2021-07-10T11:17:48.497Z</time>
      </trkpt>
      <trkpt lat="46.39577" lon="8.04663">
        <ele>2324</ele>
        <time>2021-07-10T11:17:49.497Z</time>
      </trkpt>
      <trkpt lat="46.39578" lon="8.04663">
        <ele>2324</ele>
        <time>2021-07-10T11:17:50.497Z</time>
      </trkpt>
      <trkpt lat="46.39578" lon="8.04663">
        <ele>2323</ele>
        <time>2021-07-10T11:17:51.497Z</time>
      </trkpt>
      <trkpt lat="46.39578" lon="8.04663">
        <ele>2323</ele>
        <time>2021-07-10T11:17:52.497Z</time>
      </trkpt>
      <trkpt lat="46.39578" lon="8.04662">
        <ele>2322</ele>
        <time>2021-07-10T11:17:53.497Z</time>
      </trkpt>
      <trkpt lat="46.39577" lon="8.04662">
        <ele>2322</ele>
        <time>2021-07-10T11:17:54.498Z</time>
      </trkpt>
      <trkpt lat="46.39576" lon="8.04664">
        <ele>2321</ele>
        <time>2021-07-10T11:17:55.497Z</time>
      </trkpt>
      <trkpt lat="46.39575" lon="8.04665">
        <ele>2320</ele>
        <time>2021-07-10T11:17:56.497Z</time>
      </trkpt>
      <trkpt lat="46.39576" lon="8.04665">
        <ele>2321</ele>
        <time>2021-07-10T11:17:57.498Z</time>
      </trkpt>
      <trkpt lat="46.39576" lon="8.04665">
        <ele>2321</ele>
        <time>2021-07-10T11:17:58.497Z</time>
      </trkpt>
      <trkpt lat="46.39576" lon="8.04664">
        <ele>2326</ele>
        <time>2021-07-10T11:17:59.497Z</time>
      </trkpt>
      <trkpt lat="46.39576" lon="8.04663">
        <ele>2326</ele>
        <time>2021-07-10T11:18:00.498Z</time>
      </trkpt>
      <trkpt lat="46.39576" lon="8.04663">
        <ele>2326</ele>
        <time>2021-07-10T11:18:01.498Z</time>
      </trkpt>
      <trkpt lat="46.39576" lon="8.04663">
        <ele>2327</ele>
        <time>2021-07-10T11:18:02.498Z</time>
      </trkpt>
      <trkpt lat="46.39576" lon="8.04663">
        <ele>2327</ele>
        <time>2021-07-10T11:18:03.498Z</time>
      </trkpt>
      <trkpt lat="46.39576" lon="8.04664">
        <ele>2326</ele>
        <time>2021-07-10T11:18:04.497Z</time>
      </trkpt>
      <trkpt lat="46.39575" lon="8.04664">
        <ele>2326</ele>
        <time>2021-07-10T11:18:05.498Z</time>
      </trkpt>
      <trkpt lat="46.39575" lon="8.04664">
        <ele>2326</ele>
        <time>2021-07-10T11:18:06.498Z</time>
      </trkpt>
      <trkpt lat="46.39575" lon="8.04664">
        <ele>2325</ele>
        <time>2021-07-10T11:18:07.497Z</time>
      </trkpt>
      <trkpt lat="46.39575" lon="8.04664">
        <ele>2324</ele>
        <time>2021-07-10T11:18:08.498Z</time>
      </trkpt>
      <trkpt lat="46.39575" lon="8.04662">
        <ele>2324</ele>
        <time>2021-07-10T11:18:09.498Z</time>
      </trkpt>
      <trkpt lat="46.39575" lon="8.04662">
        <ele>2324</ele>
        <time>2021-07-10T11:18:10.498Z</time>
      </trkpt>
      <trkpt lat="46.39576" lon="8.04661">
        <ele>2323</ele>
        <time>2021-07-10T11:18:11.499Z</time>
      </trkpt>
      <trkpt lat="46.39576" lon="8.04662">
        <ele>2323</ele>
        <time>2021-07-10T11:18:12.499Z</time>
      </trkpt>
      <trkpt lat="46.39575" lon="8.04662">
        <ele>2323</ele>
        <time>2021-07-10T11:18:13.498Z</time>
      </trkpt>
      <trkpt lat="46.39575" lon="8.04663">
        <ele>2326</ele>
        <time>2021-07-10T11:18:14.501Z</time>
      </trkpt>
      <trkpt lat="46.39575" lon="8.04664">
        <ele>2326</ele>
        <time>2021-07-10T11:18:15.501Z</time>
      </trkpt>
      <trkpt lat="46.39576" lon="8.04663">
        <ele>2324</ele>
        <time>2021-07-10T11:18:16.500Z</time>
      </trkpt>
      <trkpt lat="46.39577" lon="8.04662">
        <ele>2323</ele>
        <time>2021-07-10T11:18:17.500Z</time>
      </trkpt>
      <trkpt lat="46.39577" lon="8.04662">
        <ele>2323</ele>
        <time>2021-07-10T11:18:18.501Z</time>
      </trkpt>
      <trkpt lat="46.39577" lon="8.04662">
        <ele>2323</ele>
        <time>2021-07-10T11:18:19.500Z</time>
      </trkpt>
      <trkpt lat="46.39579" lon="8.04661">
        <ele>2321</ele>
        <time>2021-07-10T11:18:20.502Z</time>
      </trkpt>
      <trkpt lat="46.39579" lon="8.04661">
        <ele>2321</ele>
        <time>2021-07-10T11:18:21.502Z</time>
      </trkpt>
      <trkpt lat="46.39579" lon="8.04661">
        <ele>2321</ele>
        <time>2021-07-10T11:18:22.501Z</time>
      </trkpt>
      <trkpt lat="46.39579" lon="8.04662">
        <ele>2321</ele>
        <time>2021-07-10T11:18:23.501Z</time>
      </trkpt>
      <trkpt lat="46.39578" lon="8.04662">
        <ele>2321</ele>
        <time>2021-07-10T11:18:24.501Z</time>
      </trkpt>
      <trkpt lat="46.39578" lon="8.04662">
        <ele>2321</ele>
        <time>2021-07-10T11:18:25.501Z</time>
      </trkpt>
      <trkpt lat="46.39577" lon="8.04663">
        <ele>2321</ele>
        <time>2021-07-10T11:18:26.502Z</time>
      </trkpt>
      <trkpt lat="46.39577" lon="8.04664">
        <ele>2323</ele>
        <time>2021-07-10T11:18:27.501Z</time>
      </trkpt>
      <trkpt lat="46.39577" lon="8.04665">
        <ele>2323</ele>
        <time>2021-07-10T11:18:28.502Z</time>
      </trkpt>
      <trkpt lat="46.39575" lon="8.04663">
        <ele>2325</ele>
        <time>2021-07-10T11:18:29.501Z</time>
      </trkpt>
      <trkpt lat="46.39575" lon="8.04662">
        <ele>2325</ele>
        <time>2021-07-10T11:18:30.502Z</time>
      </trkpt>
      <trkpt lat="46.39576" lon="8.04663">
        <ele>2324</ele>
        <time>2021-07-10T11:18:31.502Z</time>
      </trkpt>
      <trkpt lat="46.39576" lon="8.04662">
        <ele>2324</ele>
        <time>2021-07-10T11:18:32.501Z</time>
      </trkpt>
      <trkpt lat="46.39576" lon="8.04662">
        <ele>2324</ele>
        <time>2021-07-10T11:18:33.502Z</time>
      </trkpt>
      <trkpt lat="46.39576" lon="8.04664">
        <ele>2322</ele>
        <time>2021-07-10T11:18:34.502Z</time>
      </trkpt>
      <trkpt lat="46.39576" lon="8.04664">
        <ele>2321</ele>
        <time>2021-07-10T11:18:35.502Z</time>
      </trkpt>
      <trkpt lat="46.39576" lon="8.04665">
        <ele>2321</ele>
        <time>2021-07-10T11:18:36.501Z</time>
      </trkpt>
      <trkpt lat="46.39576" lon="8.04666">
        <ele>2321</ele>
        <time>2021-07-10T11:18:37.501Z</time>
      </trkpt>
      <trkpt lat="46.39576" lon="8.04666">
        <ele>2322</ele>
        <time>2021-07-10T11:18:38.502Z</time>
      </trkpt>
      <trkpt lat="46.39576" lon="8.04666">
        <ele>2322</ele>
        <time>2021-07-10T11:18:39.501Z</time>
      </trkpt>
      <trkpt lat="46.39576" lon="8.04666">
        <ele>2322</ele>
        <time>2021-07-10T11:18:40.502Z</time>
      </trkpt>
      <trkpt lat="46.39576" lon="8.04667">
        <ele>2322</ele>
        <time>2021-07-10T11:18:41.502Z</time>
      </trkpt>
      <trkpt lat="46.39577" lon="8.04663">
        <ele>2323</ele>
        <time>2021-07-10T11:18:42.502Z</time>
      </trkpt>
      <trkpt lat="46.39578" lon="8.04663">
        <ele>2323</ele>
        <time>2021-07-10T11:18:43.502Z</time>
      </trkpt>
      <trkpt lat="46.39576" lon="8.04661">
        <ele>2322</ele>
        <time>2021-07-10T11:18:44.502Z</time>
      </trkpt>
      <trkpt lat="46.39576" lon="8.04662">
        <ele>2321</ele>
        <time>2021-07-10T11:18:45.503Z</time>
      </trkpt>
      <trkpt lat="46.39576" lon="8.04662">
        <ele>2321</ele>
        <time>2021-07-10T11:18:46.503Z</time>
      </trkpt>
      <trkpt lat="46.39576" lon="8.04662">
        <ele>2322</ele>
        <time>2021-07-10T11:18:47.503Z</time>
      </trkpt>
      <trkpt lat="46.39577" lon="8.04661">
        <ele>2320</ele>
        <time>2021-07-10T11:18:48.504Z</time>
      </trkpt>
      <trkpt lat="46.39577" lon="8.04662">
        <ele>2320</ele>
        <time>2021-07-10T11:18:49.504Z</time>
      </trkpt>
      <trkpt lat="46.39576" lon="8.04666">
        <ele>2325</ele>
        <time>2021-07-10T11:18:50.505Z</time>
      </trkpt>
      <trkpt lat="46.39575" lon="8.04667">
        <ele>2326</ele>
        <time>2021-07-10T11:18:51.505Z</time>
      </trkpt>
      <trkpt lat="46.39575" lon="8.04667">
        <ele>2327</ele>
        <time>2021-07-10T11:18:52.505Z</time>
      </trkpt>
      <trkpt lat="46.39575" lon="8.04667">
        <ele>2327</ele>
        <time>2021-07-10T11:18:53.505Z</time>
      </trkpt>
      <trkpt lat="46.39575" lon="8.04666">
        <ele>2326</ele>
        <time>2021-07-10T11:18:54.505Z</time>
      </trkpt>
      <trkpt lat="46.39575" lon="8.04666">
        <ele>2326</ele>
        <time>2021-07-10T11:18:55.505Z</time>
      </trkpt>
      <trkpt lat="46.39575" lon="8.04667">
        <ele>2326</ele>
        <time>2021-07-10T11:18:56.504Z</time>
      </trkpt>
      <trkpt lat="46.39574" lon="8.04668">
        <ele>2326</ele>
        <time>2021-07-10T11:18:57.504Z</time>
      </trkpt>
      <trkpt lat="46.39574" lon="8.04669">
        <ele>2325</ele>
        <time>2021-07-10T11:18:58.505Z</time>
      </trkpt>
      <trkpt lat="46.39573" lon="8.0467">
        <ele>2325</ele>
        <time>2021-07-10T11:18:59.504Z</time>
      </trkpt>
      <trkpt lat="46.39573" lon="8.04671">
        <ele>2325</ele>
        <time>2021-07-10T11:19:00.505Z</time>
      </trkpt>
      <trkpt lat="46.39573" lon="8.04672">
        <ele>2324</ele>
        <time>2021-07-10T11:19:01.505Z</time>
      </trkpt>
      <trkpt lat="46.39573" lon="8.04672">
        <ele>2324</ele>
        <time>2021-07-10T11:19:02.504Z</time>
      </trkpt>
      <trkpt lat="46.39572" lon="8.04673">
        <ele>2323</ele>
        <time>2021-07-10T11:19:03.505Z</time>
      </trkpt>
      <trkpt lat="46.39572" lon="8.04673">
        <ele>2323</ele>
        <time>2021-07-10T11:19:04.505Z</time>
      </trkpt>
      <trkpt lat="46.39572" lon="8.04673">
        <ele>2322</ele>
        <time>2021-07-10T11:19:05.505Z</time>
      </trkpt>
      <trkpt lat="46.39573" lon="8.04673">
        <ele>2322</ele>
        <time>2021-07-10T11:19:06.504Z</time>
      </trkpt>
      <trkpt lat="46.39574" lon="8.04664">
        <ele>2323</ele>
        <time>2021-07-10T11:19:07.504Z</time>
      </trkpt>
      <trkpt lat="46.39574" lon="8.04664">
        <ele>2322</ele>
        <time>2021-07-10T11:19:08.505Z</time>
      </trkpt>
      <trkpt lat="46.39574" lon="8.04665">
        <ele>2322</ele>
        <time>2021-07-10T11:19:09.504Z</time>
      </trkpt>
      <trkpt lat="46.39574" lon="8.04665">
        <ele>2321</ele>
        <time>2021-07-10T11:19:10.505Z</time>
      </trkpt>
      <trkpt lat="46.39575" lon="8.04664">
        <ele>2325</ele>
        <time>2021-07-10T11:19:11.505Z</time>
      </trkpt>
      <trkpt lat="46.39575" lon="8.04664">
        <ele>2325</ele>
        <time>2021-07-10T11:19:12.506Z</time>
      </trkpt>
      <trkpt lat="46.39575" lon="8.04664">
        <ele>2324</ele>
        <time>2021-07-10T11:19:13.505Z</time>
      </trkpt>
      <trkpt lat="46.39575" lon="8.04664">
        <ele>2324</ele>
        <time>2021-07-10T11:19:14.505Z</time>
      </trkpt>
      <trkpt lat="46.39575" lon="8.04664">
        <ele>2323</ele>
        <time>2021-07-10T11:19:15.506Z</time>
      </trkpt>
      <trkpt lat="46.39574" lon="8.04664">
        <ele>2323</ele>
        <time>2021-07-10T11:19:16.506Z</time>
      </trkpt>
      <trkpt lat="46.39574" lon="8.04665">
        <ele>2322</ele>
        <time>2021-07-10T11:19:17.506Z</time>
      </trkpt>
      <trkpt lat="46.39573" lon="8.04666">
        <ele>2322</ele>
        <time>2021-07-10T11:19:18.506Z</time>
      </trkpt>
      <trkpt lat="46.39573" lon="8.04666">
        <ele>2322</ele>
        <time>2021-07-10T11:19:19.506Z</time>
      </trkpt>
      <trkpt lat="46.39576" lon="8.04663">
        <ele>2323</ele>
        <time>2021-07-10T11:19:20.507Z</time>
      </trkpt>
      <trkpt lat="46.39576" lon="8.04663">
        <ele>2323</ele>
        <time>2021-07-10T11:19:21.507Z</time>
      </trkpt>
      <trkpt lat="46.39576" lon="8.04662">
        <ele>2323</ele>
        <time>2021-07-10T11:19:22.507Z</time>
      </trkpt>
      <trkpt lat="46.39577" lon="8.04663">
        <ele>2323</ele>
        <time>2021-07-10T11:19:23.507Z</time>
      </trkpt>
      <trkpt lat="46.39576" lon="8.04663">
        <ele>2323</ele>
        <time>2021-07-10T11:19:24.506Z</time>
      </trkpt>
      <trkpt lat="46.39576" lon="8.04663">
        <ele>2323</ele>
        <time>2021-07-10T11:19:25.507Z</time>
      </trkpt>
      <trkpt lat="46.39576" lon="8.04662">
        <ele>2323</ele>
        <time>2021-07-10T11:19:26.507Z</time>
      </trkpt>
      <trkpt lat="46.39576" lon="8.04662">
        <ele>2323</ele>
        <time>2021-07-10T11:19:27.508Z</time>
      </trkpt>
      <trkpt lat="46.39576" lon="8.04663">
        <ele>2323</ele>
        <time>2021-07-10T11:19:28.508Z</time>
      </trkpt>
      <trkpt lat="46.39576" lon="8.04662">
        <ele>2323</ele>
        <time>2021-07-10T11:19:29.507Z</time>
      </trkpt>
      <trkpt lat="46.39576" lon="8.04662">
        <ele>2323</ele>
        <time>2021-07-10T11:19:30.508Z</time>
      </trkpt>
      <trkpt lat="46.39576" lon="8.04662">
        <ele>2323</ele>
        <time>2021-07-10T11:19:31.507Z</time>
      </trkpt>
      <trkpt lat="46.39576" lon="8.04661">
        <ele>2323</ele>
        <time>2021-07-10T11:19:32.508Z</time>
      </trkpt>
      <trkpt lat="46.39577" lon="8.04661">
        <ele>2323</ele>
        <time>2021-07-10T11:19:33.509Z</time>
      </trkpt>
      <trkpt lat="46.39577" lon="8.04661">
        <ele>2323</ele>
        <time>2021-07-10T11:19:34.508Z</time>
      </trkpt>
      <trkpt lat="46.39577" lon="8.04661">
        <ele>2321</ele>
        <time>2021-07-10T11:19:35.509Z</time>
      </trkpt>
      <trkpt lat="46.39577" lon="8.04661">
        <ele>2321</ele>
        <time>2021-07-10T11:19:36.509Z</time>
      </trkpt>
      <trkpt lat="46.39576" lon="8.04662">
        <ele>2322</ele>
        <time>2021-07-10T11:19:37.509Z</time>
      </trkpt>
      <trkpt lat="46.39576" lon="8.04662">
        <ele>2322</ele>
        <time>2021-07-10T11:19:38.509Z</time>
      </trkpt>
      <trkpt lat="46.39575" lon="8.04661">
        <ele>2322</ele>
        <time>2021-07-10T11:19:39.508Z</time>
      </trkpt>
      <trkpt lat="46.39575" lon="8.04661">
        <ele>2322</ele>
        <time>2021-07-10T11:19:40.508Z</time>
      </trkpt>
      <trkpt lat="46.39577" lon="8.04663">
        <ele>2323</ele>
        <time>2021-07-10T11:19:41.509Z</time>
      </trkpt>
      <trkpt lat="46.39577" lon="8.04663">
        <ele>2323</ele>
        <time>2021-07-10T11:19:42.508Z</time>
      </trkpt>
      <trkpt lat="46.39577" lon="8.04663">
        <ele>2324</ele>
        <time>2021-07-10T11:19:43.510Z</time>
      </trkpt>
      <trkpt lat="46.39577" lon="8.04663">
        <ele>2324</ele>
        <time>2021-07-10T11:19:44.509Z</time>
      </trkpt>
      <trkpt lat="46.39577" lon="8.04663">
        <ele>2323</ele>
        <time>2021-07-10T11:19:45.509Z</time>
      </trkpt>
      <trkpt lat="46.39576" lon="8.04662">
        <ele>2323</ele>
        <time>2021-07-10T11:19:46.511Z</time>
      </trkpt>
      <trkpt lat="46.39576" lon="8.04662">
        <ele>2323</ele>
        <time>2021-07-10T11:19:47.511Z</time>
      </trkpt>
      <trkpt lat="46.39576" lon="8.04662">
        <ele>2323</ele>
        <time>2021-07-10T11:19:48.511Z</time>
      </trkpt>
      <trkpt lat="46.39575" lon="8.04662">
        <ele>2323</ele>
        <time>2021-07-10T11:19:49.511Z</time>
      </trkpt>
      <trkpt lat="46.39577" lon="8.04663">
        <ele>2323</ele>
        <time>2021-07-10T11:19:50.511Z</time>
      </trkpt>
      <trkpt lat="46.39577" lon="8.04663">
        <ele>2324</ele>
        <time>2021-07-10T11:19:51.510Z</time>
      </trkpt>
      <trkpt lat="46.39577" lon="8.04663">
        <ele>2324</ele>
        <time>2021-07-10T11:19:52.511Z</time>
      </trkpt>
      <trkpt lat="46.39577" lon="8.04664">
        <ele>2324</ele>
        <time>2021-07-10T11:19:53.511Z</time>
      </trkpt>
      <trkpt lat="46.39577" lon="8.04664">
        <ele>2325</ele>
        <time>2021-07-10T11:19:54.511Z</time>
      </trkpt>
      <trkpt lat="46.39577" lon="8.04664">
        <ele>2325</ele>
        <time>2021-07-10T11:19:55.511Z</time>
      </trkpt>
      <trkpt lat="46.39577" lon="8.04664">
        <ele>2325</ele>
        <time>2021-07-10T11:19:56.510Z</time>
      </trkpt>
      <trkpt lat="46.39577" lon="8.04664">
        <ele>2325</ele>
        <time>2021-07-10T11:19:57.510Z</time>
      </trkpt>
      <trkpt lat="46.39576" lon="8.04663">
        <ele>2324</ele>
        <time>2021-07-10T11:19:58.512Z</time>
      </trkpt>
      <trkpt lat="46.39576" lon="8.04663">
        <ele>2324</ele>
        <time>2021-07-10T11:19:59.511Z</time>
      </trkpt>
      <trkpt lat="46.39576" lon="8.04663">
        <ele>2324</ele>
        <time>2021-07-10T11:20:00.512Z</time>
      </trkpt>
      <trkpt lat="46.39576" lon="8.04662">
        <ele>2324</ele>
        <time>2021-07-10T11:20:01.512Z</time>
      </trkpt>
      <trkpt lat="46.39576" lon="8.04662">
        <ele>2324</ele>
        <time>2021-07-10T11:20:02.511Z</time>
      </trkpt>
      <trkpt lat="46.39576" lon="8.04662">
        <ele>2323</ele>
        <time>2021-07-10T11:20:03.512Z</time>
      </trkpt>
      <trkpt lat="46.39575" lon="8.04662">
        <ele>2323</ele>
        <time>2021-07-10T11:20:04.511Z</time>
      </trkpt>
      <trkpt lat="46.39576" lon="8.04662">
        <ele>2323</ele>
        <time>2021-07-10T11:20:05.511Z</time>
      </trkpt>
      <trkpt lat="46.39577" lon="8.04662">
        <ele>2324</ele>
        <time>2021-07-10T11:20:06.512Z</time>
      </trkpt>
      <trkpt lat="46.39577" lon="8.04662">
        <ele>2323</ele>
        <time>2021-07-10T11:20:07.511Z</time>
      </trkpt>
      <trkpt lat="46.39576" lon="8.04662">
        <ele>2325</ele>
        <time>2021-07-10T11:20:08.512Z</time>
      </trkpt>
      <trkpt lat="46.39576" lon="8.04662">
        <ele>2325</ele>
        <time>2021-07-10T11:20:09.512Z</time>
      </trkpt>
      <trkpt lat="46.39577" lon="8.04662">
        <ele>2326</ele>
        <time>2021-07-10T11:20:10.512Z</time>
      </trkpt>
      <trkpt lat="46.39577" lon="8.04663">
        <ele>2326</ele>
        <time>2021-07-10T11:20:11.513Z</time>
      </trkpt>
      <trkpt lat="46.39576" lon="8.04663">
        <ele>2327</ele>
        <time>2021-07-10T11:20:12.513Z</time>
      </trkpt>
      <trkpt lat="46.39577" lon="8.04662">
        <ele>2324</ele>
        <time>2021-07-10T11:20:13.513Z</time>
      </trkpt>
      <trkpt lat="46.39577" lon="8.04662">
        <ele>2323</ele>
        <time>2021-07-10T11:20:14.513Z</time>
      </trkpt>
      <trkpt lat="46.39577" lon="8.04662">
        <ele>2323</ele>
        <time>2021-07-10T11:20:15.512Z</time>
      </trkpt>
      <trkpt lat="46.39577" lon="8.04662">
        <ele>2325</ele>
        <time>2021-07-10T11:20:16.515Z</time>
      </trkpt>
      <trkpt lat="46.39577" lon="8.04662">
        <ele>2325</ele>
        <time>2021-07-10T11:20:17.514Z</time>
      </trkpt>
      <trkpt lat="46.39576" lon="8.0466">
        <ele>2323</ele>
        <time>2021-07-10T11:20:18.515Z</time>
      </trkpt>
      <trkpt lat="46.39577" lon="8.04662">
        <ele>2321</ele>
        <time>2021-07-10T11:20:19.514Z</time>
      </trkpt>
      <trkpt lat="46.39578" lon="8.04662">
        <ele>2322</ele>
        <time>2021-07-10T11:20:20.515Z</time>
      </trkpt>
      <trkpt lat="46.39578" lon="8.04662">
        <ele>2322</ele>
        <time>2021-07-10T11:20:21.514Z</time>
      </trkpt>
      <trkpt lat="46.39578" lon="8.04662">
        <ele>2322</ele>
        <time>2021-07-10T11:20:22.515Z</time>
      </trkpt>
      <trkpt lat="46.39578" lon="8.04661">
        <ele>2323</ele>
        <time>2021-07-10T11:20:23.515Z</time>
      </trkpt>
      <trkpt lat="46.39577" lon="8.04661">
        <ele>2322</ele>
        <time>2021-07-10T11:20:24.515Z</time>
      </trkpt>
      <trkpt lat="46.39576" lon="8.04661">
        <ele>2324</ele>
        <time>2021-07-10T11:20:25.516Z</time>
      </trkpt>
      <trkpt lat="46.39576" lon="8.04661">
        <ele>2324</ele>
        <time>2021-07-10T11:20:26.516Z</time>
      </trkpt>
      <trkpt lat="46.39576" lon="8.04661">
        <ele>2324</ele>
        <time>2021-07-10T11:20:27.515Z</time>
      </trkpt>
      <trkpt lat="46.39576" lon="8.04662">
        <ele>2324</ele>
        <time>2021-07-10T11:20:28.516Z</time>
      </trkpt>
      <trkpt lat="46.39576" lon="8.04663">
        <ele>2324</ele>
        <time>2021-07-10T11:20:29.516Z</time>
      </trkpt>
      <trkpt lat="46.39576" lon="8.04663">
        <ele>2324</ele>
        <time>2021-07-10T11:20:30.515Z</time>
      </trkpt>
      <trkpt lat="46.39576" lon="8.04664">
        <ele>2320</ele>
        <time>2021-07-10T11:20:31.516Z</time>
      </trkpt>
      <trkpt lat="46.39576" lon="8.04664">
        <ele>2320</ele>
        <time>2021-07-10T11:20:32.517Z</time>
      </trkpt>
      <trkpt lat="46.39576" lon="8.04663">
        <ele>2320</ele>
        <time>2021-07-10T11:20:33.517Z</time>
      </trkpt>
      <trkpt lat="46.39577" lon="8.04664">
        <ele>2320</ele>
        <time>2021-07-10T11:20:34.517Z</time>
      </trkpt>
      <trkpt lat="46.39577" lon="8.04664">
        <ele>2320</ele>
        <time>2021-07-10T11:20:35.517Z</time>
      </trkpt>
      <trkpt lat="46.39577" lon="8.04663">
        <ele>2320</ele>
        <time>2021-07-10T11:20:36.516Z</time>
      </trkpt>
      <trkpt lat="46.39577" lon="8.04662">
        <ele>2322</ele>
        <time>2021-07-10T11:20:37.517Z</time>
      </trkpt>
      <trkpt lat="46.39577" lon="8.04662">
        <ele>2322</ele>
        <time>2021-07-10T11:20:38.516Z</time>
      </trkpt>
      <trkpt lat="46.39577" lon="8.04663">
        <ele>2324</ele>
        <time>2021-07-10T11:20:39.517Z</time>
      </trkpt>
      <trkpt lat="46.39577" lon="8.04663">
        <ele>2324</ele>
        <time>2021-07-10T11:20:40.516Z</time>
      </trkpt>
      <trkpt lat="46.39577" lon="8.04663">
        <ele>2324</ele>
        <time>2021-07-10T11:20:41.516Z</time>
      </trkpt>
      <trkpt lat="46.39577" lon="8.04662">
        <ele>2326</ele>
        <time>2021-07-10T11:20:42.517Z</time>
      </trkpt>
      <trkpt lat="46.39577" lon="8.04661">
        <ele>2325</ele>
        <time>2021-07-10T11:20:43.516Z</time>
      </trkpt>
      <trkpt lat="46.39577" lon="8.04663">
        <ele>2325</ele>
        <time>2021-07-10T11:20:44.517Z</time>
      </trkpt>
      <trkpt lat="46.39577" lon="8.04663">
        <ele>2325</ele>
        <time>2021-07-10T11:20:45.517Z</time>
      </trkpt>
      <trkpt lat="46.39577" lon="8.04663">
        <ele>2325</ele>
        <time>2021-07-10T11:20:46.516Z</time>
      </trkpt>
      <trkpt lat="46.39577" lon="8.04664">
        <ele>2325</ele>
        <time>2021-07-10T11:20:47.517Z</time>
      </trkpt>
      <trkpt lat="46.39577" lon="8.04663">
        <ele>2325</ele>
        <time>2021-07-10T11:20:48.516Z</time>
      </trkpt>
      <trkpt lat="46.39577" lon="8.04663">
        <ele>2324</ele>
        <time>2021-07-10T11:20:49.516Z</time>
      </trkpt>
      <trkpt lat="46.39577" lon="8.04663">
        <ele>2324</ele>
        <time>2021-07-10T11:20:50.516Z</time>
      </trkpt>
      <trkpt lat="46.39577" lon="8.04663">
        <ele>2324</ele>
        <time>2021-07-10T11:20:51.516Z</time>
      </trkpt>
      <trkpt lat="46.39576" lon="8.04662">
        <ele>2325</ele>
        <time>2021-07-10T11:20:52.517Z</time>
      </trkpt>
      <trkpt lat="46.39576" lon="8.04662">
        <ele>2325</ele>
        <time>2021-07-10T11:20:53.517Z</time>
      </trkpt>
      <trkpt lat="46.39576" lon="8.04662">
        <ele>2325</ele>
        <time>2021-07-10T11:20:54.516Z</time>
      </trkpt>
      <trkpt lat="46.39576" lon="8.04662">
        <ele>2324</ele>
        <time>2021-07-10T11:20:55.517Z</time>
      </trkpt>
      <trkpt lat="46.39576" lon="8.04662">
        <ele>2324</ele>
        <time>2021-07-10T11:20:56.517Z</time>
      </trkpt>
      <trkpt lat="46.39577" lon="8.04662">
        <ele>2324</ele>
        <time>2021-07-10T11:20:57.517Z</time>
      </trkpt>
      <trkpt lat="46.39577" lon="8.04661">
        <ele>2324</ele>
        <time>2021-07-10T11:20:58.517Z</time>
      </trkpt>
      <trkpt lat="46.39578" lon="8.0466">
        <ele>2322</ele>
        <time>2021-07-10T11:20:59.517Z</time>
      </trkpt>
      <trkpt lat="46.39578" lon="8.0466">
        <ele>2321</ele>
        <time>2021-07-10T11:21:00.517Z</time>
      </trkpt>
      <trkpt lat="46.39577" lon="8.04659">
        <ele>2321</ele>
        <time>2021-07-10T11:21:01.517Z</time>
      </trkpt>
      <trkpt lat="46.39578" lon="8.04659">
        <ele>2321</ele>
        <time>2021-07-10T11:21:02.517Z</time>
      </trkpt>
      <trkpt lat="46.39579" lon="8.04659">
        <ele>2320</ele>
        <time>2021-07-10T11:21:03.517Z</time>
      </trkpt>
      <trkpt lat="46.39578" lon="8.04661">
        <ele>2324</ele>
        <time>2021-07-10T11:21:04.516Z</time>
      </trkpt>
      <trkpt lat="46.39578" lon="8.04662">
        <ele>2324</ele>
        <time>2021-07-10T11:21:05.516Z</time>
      </trkpt>
      <trkpt lat="46.39578" lon="8.04662">
        <ele>2324</ele>
        <time>2021-07-10T11:21:06.516Z</time>
      </trkpt>
      <trkpt lat="46.39577" lon="8.04665">
        <ele>2323</ele>
        <time>2021-07-10T11:21:07.516Z</time>
      </trkpt>
      <trkpt lat="46.39577" lon="8.04664">
        <ele>2323</ele>
        <time>2021-07-10T11:21:08.517Z</time>
      </trkpt>
      <trkpt lat="46.39577" lon="8.04664">
        <ele>2323</ele>
        <time>2021-07-10T11:21:09.516Z</time>
      </trkpt>
      <trkpt lat="46.39577" lon="8.04662">
        <ele>2323</ele>
        <time>2021-07-10T11:21:10.516Z</time>
      </trkpt>
      <trkpt lat="46.39577" lon="8.04661">
        <ele>2322</ele>
        <time>2021-07-10T11:21:11.516Z</time>
      </trkpt>
      <trkpt lat="46.39577" lon="8.04661">
        <ele>2322</ele>
        <time>2021-07-10T11:21:12.517Z</time>
      </trkpt>
      <trkpt lat="46.39577" lon="8.04661">
        <ele>2322</ele>
        <time>2021-07-10T11:21:13.516Z</time>
      </trkpt>
      <trkpt lat="46.39576" lon="8.04661">
        <ele>2322</ele>
        <time>2021-07-10T11:21:14.516Z</time>
      </trkpt>
      <trkpt lat="46.39577" lon="8.04661">
        <ele>2322</ele>
        <time>2021-07-10T11:21:15.517Z</time>
      </trkpt>
      <trkpt lat="46.39577" lon="8.04661">
        <ele>2323</ele>
        <time>2021-07-10T11:21:16.517Z</time>
      </trkpt>
      <trkpt lat="46.39577" lon="8.04661">
        <ele>2323</ele>
        <time>2021-07-10T11:21:17.516Z</time>
      </trkpt>
      <trkpt lat="46.39577" lon="8.04661">
        <ele>2323</ele>
        <time>2021-07-10T11:21:18.517Z</time>
      </trkpt>
      <trkpt lat="46.39577" lon="8.0466">
        <ele>2323</ele>
        <time>2021-07-10T11:21:19.517Z</time>
      </trkpt>
      <trkpt lat="46.39577" lon="8.0466">
        <ele>2323</ele>
        <time>2021-07-10T11:21:20.517Z</time>
      </trkpt>
      <trkpt lat="46.39577" lon="8.0466">
        <ele>2323</ele>
        <time>2021-07-10T11:21:21.517Z</time>
      </trkpt>
      <trkpt lat="46.39577" lon="8.04661">
        <ele>2323</ele>
        <time>2021-07-10T11:21:22.517Z</time>
      </trkpt>
      <trkpt lat="46.39577" lon="8.0466">
        <ele>2323</ele>
        <time>2021-07-10T11:21:23.516Z</time>
      </trkpt>
      <trkpt lat="46.39577" lon="8.0466">
        <ele>2323</ele>
        <time>2021-07-10T11:21:24.517Z</time>
      </trkpt>
      <trkpt lat="46.39577" lon="8.0466">
        <ele>2323</ele>
        <time>2021-07-10T11:21:25.516Z</time>
      </trkpt>
      <trkpt lat="46.39577" lon="8.0466">
        <ele>2323</ele>
        <time>2021-07-10T11:21:26.517Z</time>
      </trkpt>
      <trkpt lat="46.39577" lon="8.0466">
        <ele>2323</ele>
        <time>2021-07-10T11:21:27.517Z</time>
      </trkpt>
      <trkpt lat="46.39577" lon="8.04661">
        <ele>2323</ele>
        <time>2021-07-10T11:21:28.517Z</time>
      </trkpt>
      <trkpt lat="46.39577" lon="8.04662">
        <ele>2323</ele>
        <time>2021-07-10T11:21:29.517Z</time>
      </trkpt>
      <trkpt lat="46.39577" lon="8.04662">
        <ele>2323</ele>
        <time>2021-07-10T11:21:30.516Z</time>
      </trkpt>
      <trkpt lat="46.39577" lon="8.04661">
        <ele>2323</ele>
        <time>2021-07-10T11:21:31.516Z</time>
      </trkpt>
      <trkpt lat="46.39578" lon="8.04661">
        <ele>2323</ele>
        <time>2021-07-10T11:21:32.516Z</time>
      </trkpt>
      <trkpt lat="46.39578" lon="8.04661">
        <ele>2323</ele>
        <time>2021-07-10T11:21:33.516Z</time>
      </trkpt>
      <trkpt lat="46.39577" lon="8.04663">
        <ele>2325</ele>
        <time>2021-07-10T11:21:34.517Z</time>
      </trkpt>
      <trkpt lat="46.39577" lon="8.04664">
        <ele>2325</ele>
        <time>2021-07-10T11:21:35.517Z</time>
      </trkpt>
      <trkpt lat="46.39577" lon="8.04664">
        <ele>2325</ele>
        <time>2021-07-10T11:21:36.518Z</time>
      </trkpt>
      <trkpt lat="46.39576" lon="8.04664">
        <ele>2324</ele>
        <time>2021-07-10T11:21:37.519Z</time>
      </trkpt>
      <trkpt lat="46.39576" lon="8.04665">
        <ele>2324</ele>
        <time>2021-07-10T11:21:38.520Z</time>
      </trkpt>
      <trkpt lat="46.39576" lon="8.04665">
        <ele>2324</ele>
        <time>2021-07-10T11:21:39.520Z</time>
      </trkpt>
      <trkpt lat="46.39576" lon="8.04666">
        <ele>2323</ele>
        <time>2021-07-10T11:21:40.520Z</time>
      </trkpt>
      <trkpt lat="46.39576" lon="8.04666">
        <ele>2324</ele>
        <time>2021-07-10T11:21:41.520Z</time>
      </trkpt>
      <trkpt lat="46.39576" lon="8.04666">
        <ele>2324</ele>
        <time>2021-07-10T11:21:42.521Z</time>
      </trkpt>
      <trkpt lat="46.39576" lon="8.04665">
        <ele>2323</ele>
        <time>2021-07-10T11:21:43.521Z</time>
      </trkpt>
      <trkpt lat="46.39576" lon="8.04665">
        <ele>2324</ele>
        <time>2021-07-10T11:21:44.520Z</time>
      </trkpt>
      <trkpt lat="46.39577" lon="8.04665">
        <ele>2322</ele>
        <time>2021-07-10T11:21:45.520Z</time>
      </trkpt>
      <trkpt lat="46.39576" lon="8.04664">
        <ele>2322</ele>
        <time>2021-07-10T11:21:46.520Z</time>
      </trkpt>
      <trkpt lat="46.39575" lon="8.04663">
        <ele>2324</ele>
        <time>2021-07-10T11:21:47.521Z</time>
      </trkpt>
      <trkpt lat="46.39576" lon="8.04663">
        <ele>2323</ele>
        <time>2021-07-10T11:21:48.520Z</time>
      </trkpt>
      <trkpt lat="46.39576" lon="8.04663">
        <ele>2323</ele>
        <time>2021-07-10T11:21:49.520Z</time>
      </trkpt>
      <trkpt lat="46.39576" lon="8.04663">
        <ele>2323</ele>
        <time>2021-07-10T11:21:50.520Z</time>
      </trkpt>
      <trkpt lat="46.39576" lon="8.04663">
        <ele>2323</ele>
        <time>2021-07-10T11:21:51.520Z</time>
      </trkpt>
      <trkpt lat="46.39576" lon="8.04663">
        <ele>2323</ele>
        <time>2021-07-10T11:21:52.520Z</time>
      </trkpt>
      <trkpt lat="46.39578" lon="8.0466">
        <ele>2322</ele>
        <time>2021-07-10T11:21:53.520Z</time>
      </trkpt>
      <trkpt lat="46.39578" lon="8.04659">
        <ele>2322</ele>
        <time>2021-07-10T11:21:54.521Z</time>
      </trkpt>
      <trkpt lat="46.39578" lon="8.04659">
        <ele>2322</ele>
        <time>2021-07-10T11:21:55.520Z</time>
      </trkpt>
      <trkpt lat="46.39577" lon="8.04659">
        <ele>2323</ele>
        <time>2021-07-10T11:21:56.521Z</time>
      </trkpt>
      <trkpt lat="46.39578" lon="8.04661">
        <ele>2324</ele>
        <time>2021-07-10T11:21:57.521Z</time>
      </trkpt>
      <trkpt lat="46.39578" lon="8.04661">
        <ele>2324</ele>
        <time>2021-07-10T11:21:58.521Z</time>
      </trkpt>
      <trkpt lat="46.39578" lon="8.04661">
        <ele>2324</ele>
        <time>2021-07-10T11:21:59.520Z</time>
      </trkpt>
      <trkpt lat="46.39579" lon="8.04661">
        <ele>2324</ele>
        <time>2021-07-10T11:22:00.521Z</time>
      </trkpt>
      <trkpt lat="46.39576" lon="8.04663">
        <ele>2322</ele>
        <time>2021-07-10T11:22:01.521Z</time>
      </trkpt>
      <trkpt lat="46.39575" lon="8.04662">
        <ele>2322</ele>
        <time>2021-07-10T11:22:02.521Z</time>
      </trkpt>
      <trkpt lat="46.39575" lon="8.04662">
        <ele>2322</ele>
        <time>2021-07-10T11:22:03.520Z</time>
      </trkpt>
      <trkpt lat="46.39574" lon="8.04661">
        <ele>2322</ele>
        <time>2021-07-10T11:22:04.521Z</time>
      </trkpt>
      <trkpt lat="46.39574" lon="8.0466">
        <ele>2322</ele>
        <time>2021-07-10T11:22:05.521Z</time>
      </trkpt>
      <trkpt lat="46.39573" lon="8.04659">
        <ele>2322</ele>
        <time>2021-07-10T11:22:06.521Z</time>
      </trkpt>
      <trkpt lat="46.39573" lon="8.04659">
        <ele>2322</ele>
        <time>2021-07-10T11:22:07.520Z</time>
      </trkpt>
      <trkpt lat="46.39573" lon="8.04658">
        <ele>2322</ele>
        <time>2021-07-10T11:22:08.521Z</time>
      </trkpt>
      <trkpt lat="46.39572" lon="8.04656">
        <ele>2322</ele>
        <time>2021-07-10T11:22:09.521Z</time>
      </trkpt>
      <trkpt lat="46.39572" lon="8.04655">
        <ele>2322</ele>
        <time>2021-07-10T11:22:10.521Z</time>
      </trkpt>
      <trkpt lat="46.39572" lon="8.04654">
        <ele>2323</ele>
        <time>2021-07-10T11:22:11.521Z</time>
      </trkpt>
      <trkpt lat="46.39572" lon="8.04653">
        <ele>2323</ele>
        <time>2021-07-10T11:22:12.520Z</time>
      </trkpt>
      <trkpt lat="46.39571" lon="8.04653">
        <ele>2323</ele>
        <time>2021-07-10T11:22:13.521Z</time>
      </trkpt>
      <trkpt lat="46.39571" lon="8.04652">
        <ele>2323</ele>
        <time>2021-07-10T11:22:14.521Z</time>
      </trkpt>
      <trkpt lat="46.39571" lon="8.04652">
        <ele>2322</ele>
        <time>2021-07-10T11:22:15.521Z</time>
      </trkpt>
      <trkpt lat="46.39571" lon="8.04651">
        <ele>2321</ele>
        <time>2021-07-10T11:22:16.521Z</time>
      </trkpt>
      <trkpt lat="46.39571" lon="8.0465">
        <ele>2320</ele>
        <time>2021-07-10T11:22:17.520Z</time>
      </trkpt>
      <trkpt lat="46.39571" lon="8.04649">
        <ele>2320</ele>
        <time>2021-07-10T11:22:18.521Z</time>
      </trkpt>
      <trkpt lat="46.3957" lon="8.04648">
        <ele>2320</ele>
        <time>2021-07-10T11:22:19.521Z</time>
      </trkpt>
      <trkpt lat="46.3957" lon="8.04647">
        <ele>2320</ele>
        <time>2021-07-10T11:22:20.520Z</time>
      </trkpt>
      <trkpt lat="46.3957" lon="8.04646">
        <ele>2320</ele>
        <time>2021-07-10T11:22:21.521Z</time>
      </trkpt>
      <trkpt lat="46.3957" lon="8.04645">
        <ele>2320</ele>
        <time>2021-07-10T11:22:22.521Z</time>
      </trkpt>
      <trkpt lat="46.3957" lon="8.04644">
        <ele>2321</ele>
        <time>2021-07-10T11:22:23.520Z</time>
      </trkpt>
      <trkpt lat="46.3957" lon="8.04643">
        <ele>2321</ele>
        <time>2021-07-10T11:22:24.521Z</time>
      </trkpt>
      <trkpt lat="46.3957" lon="8.04642">
        <ele>2321</ele>
        <time>2021-07-10T11:22:25.521Z</time>
      </trkpt>
      <trkpt lat="46.3957" lon="8.04641">
        <ele>2321</ele>
        <time>2021-07-10T11:22:26.520Z</time>
      </trkpt>
      <trkpt lat="46.3957" lon="8.04641">
        <ele>2321</ele>
        <time>2021-07-10T11:22:27.521Z</time>
      </trkpt>
      <trkpt lat="46.3957" lon="8.0464">
        <ele>2321</ele>
        <time>2021-07-10T11:22:28.521Z</time>
      </trkpt>
      <trkpt lat="46.3957" lon="8.04639">
        <ele>2321</ele>
        <time>2021-07-10T11:22:29.520Z</time>
      </trkpt>
      <trkpt lat="46.39569" lon="8.04637">
        <ele>2321</ele>
        <time>2021-07-10T11:22:30.521Z</time>
      </trkpt>
      <trkpt lat="46.39569" lon="8.04636">
        <ele>2321</ele>
        <time>2021-07-10T11:22:31.521Z</time>
      </trkpt>
      <trkpt lat="46.39568" lon="8.04635">
        <ele>2321</ele>
        <time>2021-07-10T11:22:32.521Z</time>
      </trkpt>
      <trkpt lat="46.39568" lon="8.04634">
        <ele>2321</ele>
        <time>2021-07-10T11:22:33.520Z</time>
      </trkpt>
      <trkpt lat="46.39567" lon="8.04633">
        <ele>2321</ele>
        <time>2021-07-10T11:22:34.521Z</time>
      </trkpt>
      <trkpt lat="46.39567" lon="8.04631">
        <ele>2321</ele>
        <time>2021-07-10T11:22:35.521Z</time>
      </trkpt>
      <trkpt lat="46.39566" lon="8.04631">
        <ele>2321</ele>
        <time>2021-07-10T11:22:36.521Z</time>
      </trkpt>
      <trkpt lat="46.39566" lon="8.0463">
        <ele>2321</ele>
        <time>2021-07-10T11:22:37.521Z</time>
      </trkpt>
      <trkpt lat="46.39566" lon="8.04629">
        <ele>2321</ele>
        <time>2021-07-10T11:22:38.521Z</time>
      </trkpt>
      <trkpt lat="46.39566" lon="8.04628">
        <ele>2321</ele>
        <time>2021-07-10T11:22:39.520Z</time>
      </trkpt>
      <trkpt lat="46.39566" lon="8.04627">
        <ele>2321</ele>
        <time>2021-07-10T11:22:40.520Z</time>
      </trkpt>
      <trkpt lat="46.39566" lon="8.04627">
        <ele>2321</ele>
        <time>2021-07-10T11:22:41.521Z</time>
      </trkpt>
      <trkpt lat="46.39565" lon="8.04626">
        <ele>2321</ele>
        <time>2021-07-10T11:22:42.521Z</time>
      </trkpt>
      <trkpt lat="46.39565" lon="8.04625">
        <ele>2321</ele>
        <time>2021-07-10T11:22:43.521Z</time>
      </trkpt>
      <trkpt lat="46.39564" lon="8.04624">
        <ele>2321</ele>
        <time>2021-07-10T11:22:44.521Z</time>
      </trkpt>
      <trkpt lat="46.39564" lon="8.04623">
        <ele>2322</ele>
        <time>2021-07-10T11:22:45.521Z</time>
      </trkpt>
      <trkpt lat="46.39563" lon="8.04622">
        <ele>2322</ele>
        <time>2021-07-10T11:22:46.520Z</time>
      </trkpt>
      <trkpt lat="46.39563" lon="8.04621">
        <ele>2322</ele>
        <time>2021-07-10T11:22:47.521Z</time>
      </trkpt>
      <trkpt lat="46.39563" lon="8.0462">
        <ele>2322</ele>
        <time>2021-07-10T11:22:48.521Z</time>
      </trkpt>
      <trkpt lat="46.39563" lon="8.0462">
        <ele>2322</ele>
        <time>2021-07-10T11:22:49.521Z</time>
      </trkpt>
      <trkpt lat="46.39562" lon="8.04619">
        <ele>2322</ele>
        <time>2021-07-10T11:22:50.521Z</time>
      </trkpt>
      <trkpt lat="46.39562" lon="8.04618">
        <ele>2322</ele>
        <time>2021-07-10T11:22:51.521Z</time>
      </trkpt>
      <trkpt lat="46.39562" lon="8.04617">
        <ele>2321</ele>
        <time>2021-07-10T11:22:52.520Z</time>
      </trkpt>
      <trkpt lat="46.39561" lon="8.04617">
        <ele>2321</ele>
        <time>2021-07-10T11:22:53.520Z</time>
      </trkpt>
      <trkpt lat="46.39561" lon="8.04616">
        <ele>2321</ele>
        <time>2021-07-10T11:22:54.520Z</time>
      </trkpt>
      <trkpt lat="46.3956" lon="8.04615">
        <ele>2320</ele>
        <time>2021-07-10T11:22:55.520Z</time>
      </trkpt>
      <trkpt lat="46.3956" lon="8.04615">
        <ele>2320</ele>
        <time>2021-07-10T11:22:56.521Z</time>
      </trkpt>
      <trkpt lat="46.3956" lon="8.04614">
        <ele>2319</ele>
        <time>2021-07-10T11:22:57.521Z</time>
      </trkpt>
      <trkpt lat="46.39559" lon="8.04613">
        <ele>2319</ele>
        <time>2021-07-10T11:22:58.521Z</time>
      </trkpt>
      <trkpt lat="46.39559" lon="8.04612">
        <ele>2318</ele>
        <time>2021-07-10T11:22:59.521Z</time>
      </trkpt>
      <trkpt lat="46.39558" lon="8.04611">
        <ele>2318</ele>
        <time>2021-07-10T11:23:00.520Z</time>
      </trkpt>
      <trkpt lat="46.39558" lon="8.0461">
        <ele>2318</ele>
        <time>2021-07-10T11:23:01.521Z</time>
      </trkpt>
      <trkpt lat="46.39557" lon="8.04609">
        <ele>2318</ele>
        <time>2021-07-10T11:23:02.521Z</time>
      </trkpt>
      <trkpt lat="46.39557" lon="8.04608">
        <ele>2318</ele>
        <time>2021-07-10T11:23:03.521Z</time>
      </trkpt>
      <trkpt lat="46.39556" lon="8.04607">
        <ele>2318</ele>
        <time>2021-07-10T11:23:04.521Z</time>
      </trkpt>
      <trkpt lat="46.39556" lon="8.04606">
        <ele>2318</ele>
        <time>2021-07-10T11:23:05.521Z</time>
      </trkpt>
      <trkpt lat="46.39555" lon="8.04606">
        <ele>2317</ele>
        <time>2021-07-10T11:23:06.521Z</time>
      </trkpt>
      <trkpt lat="46.39554" lon="8.04606">
        <ele>2317</ele>
        <time>2021-07-10T11:23:07.520Z</time>
      </trkpt>
      <trkpt lat="46.39553" lon="8.04605">
        <ele>2317</ele>
        <time>2021-07-10T11:23:08.520Z</time>
      </trkpt>
      <trkpt lat="46.39552" lon="8.04605">
        <ele>2317</ele>
        <time>2021-07-10T11:23:09.520Z</time>
      </trkpt>
      <trkpt lat="46.3955" lon="8.04604">
        <ele>2317</ele>
        <time>2021-07-10T11:23:10.521Z</time>
      </trkpt>
      <trkpt lat="46.3955" lon="8.04604">
        <ele>2317</ele>
        <time>2021-07-10T11:23:11.521Z</time>
      </trkpt>
      <trkpt lat="46.39549" lon="8.04603">
        <ele>2317</ele>
        <time>2021-07-10T11:23:12.520Z</time>
      </trkpt>
      <trkpt lat="46.39548" lon="8.04602">
        <ele>2317</ele>
        <time>2021-07-10T11:23:13.521Z</time>
      </trkpt>
      <trkpt lat="46.39547" lon="8.04601">
        <ele>2317</ele>
        <time>2021-07-10T11:23:14.521Z</time>
      </trkpt>
      <trkpt lat="46.39547" lon="8.046">
        <ele>2317</ele>
        <time>2021-07-10T11:23:15.521Z</time>
      </trkpt>
      <trkpt lat="46.39547" lon="8.04599">
        <ele>2317</ele>
        <time>2021-07-10T11:23:16.521Z</time>
      </trkpt>
      <trkpt lat="46.39546" lon="8.04598">
        <ele>2317</ele>
        <time>2021-07-10T11:23:17.521Z</time>
      </trkpt>
      <trkpt lat="46.39545" lon="8.04598">
        <ele>2317</ele>
        <time>2021-07-10T11:23:18.521Z</time>
      </trkpt>
      <trkpt lat="46.39545" lon="8.04597">
        <ele>2317</ele>
        <time>2021-07-10T11:23:19.521Z</time>
      </trkpt>
      <trkpt lat="46.39544" lon="8.04596">
        <ele>2317</ele>
        <time>2021-07-10T11:23:20.521Z</time>
      </trkpt>
      <trkpt lat="46.39544" lon="8.04595">
        <ele>2317</ele>
        <time>2021-07-10T11:23:21.521Z</time>
      </trkpt>
      <trkpt lat="46.39544" lon="8.04594">
        <ele>2317</ele>
        <time>2021-07-10T11:23:22.520Z</time>
      </trkpt>
      <trkpt lat="46.39544" lon="8.04593">
        <ele>2317</ele>
        <time>2021-07-10T11:23:23.521Z</time>
      </trkpt>
      <trkpt lat="46.39544" lon="8.04592">
        <ele>2318</ele>
        <time>2021-07-10T11:23:24.521Z</time>
      </trkpt>
      <trkpt lat="46.39543" lon="8.04592">
        <ele>2318</ele>
        <time>2021-07-10T11:23:25.521Z</time>
      </trkpt>
      <trkpt lat="46.39543" lon="8.04591">
        <ele>2318</ele>
        <time>2021-07-10T11:23:26.521Z</time>
      </trkpt>
      <trkpt lat="46.39542" lon="8.04591">
        <ele>2319</ele>
        <time>2021-07-10T11:23:27.520Z</time>
      </trkpt>
      <trkpt lat="46.39542" lon="8.0459">
        <ele>2319</ele>
        <time>2021-07-10T11:23:28.521Z</time>
      </trkpt>
      <trkpt lat="46.39542" lon="8.04589">
        <ele>2318</ele>
        <time>2021-07-10T11:23:29.521Z</time>
      </trkpt>
      <trkpt lat="46.39541" lon="8.04588">
        <ele>2318</ele>
        <time>2021-07-10T11:23:30.520Z</time>
      </trkpt>
      <trkpt lat="46.39541" lon="8.04588">
        <ele>2318</ele>
        <time>2021-07-10T11:23:31.521Z</time>
      </trkpt>
      <trkpt lat="46.39541" lon="8.04588">
        <ele>2318</ele>
        <time>2021-07-10T11:23:32.521Z</time>
      </trkpt>
      <trkpt lat="46.39542" lon="8.04586">
        <ele>2316</ele>
        <time>2021-07-10T11:23:33.521Z</time>
      </trkpt>
      <trkpt lat="46.39542" lon="8.04585">
        <ele>2316</ele>
        <time>2021-07-10T11:23:34.521Z</time>
      </trkpt>
      <trkpt lat="46.39542" lon="8.04584">
        <ele>2316</ele>
        <time>2021-07-10T11:23:35.520Z</time>
      </trkpt>
      <trkpt lat="46.39543" lon="8.04583">
        <ele>2316</ele>
        <time>2021-07-10T11:23:36.521Z</time>
      </trkpt>
      <trkpt lat="46.39542" lon="8.04582">
        <ele>2316</ele>
        <time>2021-07-10T11:23:37.521Z</time>
      </trkpt>
      <trkpt lat="46.39542" lon="8.04582">
        <ele>2316</ele>
        <time>2021-07-10T11:23:38.521Z</time>
      </trkpt>
      <trkpt lat="46.39541" lon="8.04582">
        <ele>2315</ele>
        <time>2021-07-10T11:23:39.521Z</time>
      </trkpt>
      <trkpt lat="46.39541" lon="8.04582">
        <ele>2315</ele>
        <time>2021-07-10T11:23:40.521Z</time>
      </trkpt>
      <trkpt lat="46.3954" lon="8.04581">
        <ele>2314</ele>
        <time>2021-07-10T11:23:41.521Z</time>
      </trkpt>
      <trkpt lat="46.3954" lon="8.0458">
        <ele>2314</ele>
        <time>2021-07-10T11:23:42.521Z</time>
      </trkpt>
      <trkpt lat="46.39539" lon="8.0458">
        <ele>2314</ele>
        <time>2021-07-10T11:23:43.521Z</time>
      </trkpt>
      <trkpt lat="46.39539" lon="8.04579">
        <ele>2314</ele>
        <time>2021-07-10T11:23:44.521Z</time>
      </trkpt>
      <trkpt lat="46.39539" lon="8.04578">
        <ele>2314</ele>
        <time>2021-07-10T11:23:45.520Z</time>
      </trkpt>
      <trkpt lat="46.39538" lon="8.04577">
        <ele>2315</ele>
        <time>2021-07-10T11:23:46.521Z</time>
      </trkpt>
      <trkpt lat="46.39538" lon="8.04576">
        <ele>2315</ele>
        <time>2021-07-10T11:23:47.521Z</time>
      </trkpt>
      <trkpt lat="46.39538" lon="8.04575">
        <ele>2315</ele>
        <time>2021-07-10T11:23:48.521Z</time>
      </trkpt>
      <trkpt lat="46.39538" lon="8.04574">
        <ele>2315</ele>
        <time>2021-07-10T11:23:49.521Z</time>
      </trkpt>
      <trkpt lat="46.39538" lon="8.04573">
        <ele>2316</ele>
        <time>2021-07-10T11:23:50.521Z</time>
      </trkpt>
      <trkpt lat="46.39538" lon="8.04571">
        <ele>2316</ele>
        <time>2021-07-10T11:23:51.521Z</time>
      </trkpt>
      <trkpt lat="46.39538" lon="8.0457">
        <ele>2316</ele>
        <time>2021-07-10T11:23:52.520Z</time>
      </trkpt>
      <trkpt lat="46.39538" lon="8.04569">
        <ele>2316</ele>
        <time>2021-07-10T11:23:53.521Z</time>
      </trkpt>
      <trkpt lat="46.39538" lon="8.04568">
        <ele>2317</ele>
        <time>2021-07-10T11:23:54.521Z</time>
      </trkpt>
      <trkpt lat="46.39539" lon="8.04567">
        <ele>2317</ele>
        <time>2021-07-10T11:23:55.520Z</time>
      </trkpt>
      <trkpt lat="46.39538" lon="8.04565">
        <ele>2318</ele>
        <time>2021-07-10T11:23:56.521Z</time>
      </trkpt>
      <trkpt lat="46.39538" lon="8.04564">
        <ele>2318</ele>
        <time>2021-07-10T11:23:57.521Z</time>
      </trkpt>
      <trkpt lat="46.39538" lon="8.04563">
        <ele>2317</ele>
        <time>2021-07-10T11:23:58.521Z</time>
      </trkpt>
      <trkpt lat="46.39537" lon="8.04562">
        <ele>2317</ele>
        <time>2021-07-10T11:23:59.521Z</time>
      </trkpt>
      <trkpt lat="46.39536" lon="8.04561">
        <ele>2317</ele>
        <time>2021-07-10T11:24:00.521Z</time>
      </trkpt>
      <trkpt lat="46.39535" lon="8.0456">
        <ele>2317</ele>
        <time>2021-07-10T11:24:01.521Z</time>
      </trkpt>
      <trkpt lat="46.39535" lon="8.04558">
        <ele>2317</ele>
        <time>2021-07-10T11:24:02.521Z</time>
      </trkpt>
      <trkpt lat="46.39534" lon="8.04557">
        <ele>2316</ele>
        <time>2021-07-10T11:24:03.521Z</time>
      </trkpt>
      <trkpt lat="46.39534" lon="8.04556">
        <ele>2316</ele>
        <time>2021-07-10T11:24:04.521Z</time>
      </trkpt>
      <trkpt lat="46.39533" lon="8.04555">
        <ele>2316</ele>
        <time>2021-07-10T11:24:05.521Z</time>
      </trkpt>
      <trkpt lat="46.39533" lon="8.04554">
        <ele>2316</ele>
        <time>2021-07-10T11:24:06.521Z</time>
      </trkpt>
      <trkpt lat="46.39533" lon="8.04553">
        <ele>2316</ele>
        <time>2021-07-10T11:24:07.520Z</time>
      </trkpt>
      <trkpt lat="46.39533" lon="8.04552">
        <ele>2316</ele>
        <time>2021-07-10T11:24:08.521Z</time>
      </trkpt>
      <trkpt lat="46.39533" lon="8.04551">
        <ele>2315</ele>
        <time>2021-07-10T11:24:09.521Z</time>
      </trkpt>
      <trkpt lat="46.39534" lon="8.0455">
        <ele>2315</ele>
        <time>2021-07-10T11:24:10.520Z</time>
      </trkpt>
      <trkpt lat="46.39534" lon="8.0455">
        <ele>2315</ele>
        <time>2021-07-10T11:24:11.520Z</time>
      </trkpt>
      <trkpt lat="46.39535" lon="8.04549">
        <ele>2315</ele>
        <time>2021-07-10T11:24:12.520Z</time>
      </trkpt>
      <trkpt lat="46.39536" lon="8.04547">
        <ele>2315</ele>
        <time>2021-07-10T11:24:13.521Z</time>
      </trkpt>
      <trkpt lat="46.39536" lon="8.04546">
        <ele>2315</ele>
        <time>2021-07-10T11:24:14.520Z</time>
      </trkpt>
      <trkpt lat="46.39537" lon="8.04545">
        <ele>2314</ele>
        <time>2021-07-10T11:24:15.521Z</time>
      </trkpt>
      <trkpt lat="46.39537" lon="8.04544">
        <ele>2315</ele>
        <time>2021-07-10T11:24:16.521Z</time>
      </trkpt>
      <trkpt lat="46.39537" lon="8.04543">
        <ele>2315</ele>
        <time>2021-07-10T11:24:17.520Z</time>
      </trkpt>
      <trkpt lat="46.39537" lon="8.04541">
        <ele>2315</ele>
        <time>2021-07-10T11:24:18.521Z</time>
      </trkpt>
      <trkpt lat="46.39537" lon="8.0454">
        <ele>2315</ele>
        <time>2021-07-10T11:24:19.520Z</time>
      </trkpt>
      <trkpt lat="46.39537" lon="8.04539">
        <ele>2316</ele>
        <time>2021-07-10T11:24:20.521Z</time>
      </trkpt>
      <trkpt lat="46.39537" lon="8.04538">
        <ele>2316</ele>
        <time>2021-07-10T11:24:21.520Z</time>
      </trkpt>
      <trkpt lat="46.39537" lon="8.04537">
        <ele>2316</ele>
        <time>2021-07-10T11:24:22.521Z</time>
      </trkpt>
      <trkpt lat="46.39537" lon="8.04536">
        <ele>2316</ele>
        <time>2021-07-10T11:24:23.521Z</time>
      </trkpt>
      <trkpt lat="46.39537" lon="8.04535">
        <ele>2316</ele>
        <time>2021-07-10T11:24:24.521Z</time>
      </trkpt>
      <trkpt lat="46.39536" lon="8.04534">
        <ele>2316</ele>
        <time>2021-07-10T11:24:25.520Z</time>
      </trkpt>
      <trkpt lat="46.39536" lon="8.04533">
        <ele>2316</ele>
        <time>2021-07-10T11:24:26.521Z</time>
      </trkpt>
      <trkpt lat="46.39537" lon="8.04531">
        <ele>2316</ele>
        <time>2021-07-10T11:24:27.520Z</time>
      </trkpt>
      <trkpt lat="46.39537" lon="8.0453">
        <ele>2315</ele>
        <time>2021-07-10T11:24:28.521Z</time>
      </trkpt>
      <trkpt lat="46.39536" lon="8.04529">
        <ele>2315</ele>
        <time>2021-07-10T11:24:29.521Z</time>
      </trkpt>
      <trkpt lat="46.39536" lon="8.04528">
        <ele>2315</ele>
        <time>2021-07-10T11:24:30.520Z</time>
      </trkpt>
      <trkpt lat="46.39535" lon="8.04527">
        <ele>2315</ele>
        <time>2021-07-10T11:24:31.521Z</time>
      </trkpt>
      <trkpt lat="46.39533" lon="8.04526">
        <ele>2315</ele>
        <time>2021-07-10T11:24:32.521Z</time>
      </trkpt>
      <trkpt lat="46.39533" lon="8.04525">
        <ele>2315</ele>
        <time>2021-07-10T11:24:33.520Z</time>
      </trkpt>
      <trkpt lat="46.39532" lon="8.04524">
        <ele>2315</ele>
        <time>2021-07-10T11:24:34.521Z</time>
      </trkpt>
      <trkpt lat="46.39532" lon="8.04524">
        <ele>2315</ele>
        <time>2021-07-10T11:24:35.521Z</time>
      </trkpt>
      <trkpt lat="46.39533" lon="8.04524">
        <ele>2316</ele>
        <time>2021-07-10T11:24:36.521Z</time>
      </trkpt>
      <trkpt lat="46.39532" lon="8.04523">
        <ele>2315</ele>
        <time>2021-07-10T11:24:37.521Z</time>
      </trkpt>
      <trkpt lat="46.39532" lon="8.04522">
        <ele>2315</ele>
        <time>2021-07-10T11:24:38.520Z</time>
      </trkpt>
      <trkpt lat="46.39532" lon="8.04521">
        <ele>2315</ele>
        <time>2021-07-10T11:24:39.520Z</time>
      </trkpt>
      <trkpt lat="46.39532" lon="8.04521">
        <ele>2315</ele>
        <time>2021-07-10T11:24:40.520Z</time>
      </trkpt>
      <trkpt lat="46.39532" lon="8.0452">
        <ele>2314</ele>
        <time>2021-07-10T11:24:41.521Z</time>
      </trkpt>
      <trkpt lat="46.39531" lon="8.04519">
        <ele>2314</ele>
        <time>2021-07-10T11:24:42.521Z</time>
      </trkpt>
      <trkpt lat="46.39531" lon="8.04518">
        <ele>2314</ele>
        <time>2021-07-10T11:24:43.520Z</time>
      </trkpt>
      <trkpt lat="46.3953" lon="8.04517">
        <ele>2314</ele>
        <time>2021-07-10T11:24:44.521Z</time>
      </trkpt>
      <trkpt lat="46.3953" lon="8.04517">
        <ele>2314</ele>
        <time>2021-07-10T11:24:45.520Z</time>
      </trkpt>
      <trkpt lat="46.39529" lon="8.04516">
        <ele>2314</ele>
        <time>2021-07-10T11:24:46.521Z</time>
      </trkpt>
      <trkpt lat="46.39529" lon="8.04516">
        <ele>2314</ele>
        <time>2021-07-10T11:24:47.521Z</time>
      </trkpt>
      <trkpt lat="46.39528" lon="8.04516">
        <ele>2314</ele>
        <time>2021-07-10T11:24:48.521Z</time>
      </trkpt>
      <trkpt lat="46.39527" lon="8.04515">
        <ele>2314</ele>
        <time>2021-07-10T11:24:49.520Z</time>
      </trkpt>
      <trkpt lat="46.39527" lon="8.04515">
        <ele>2314</ele>
        <time>2021-07-10T11:24:50.521Z</time>
      </trkpt>
      <trkpt lat="46.39526" lon="8.04515">
        <ele>2313</ele>
        <time>2021-07-10T11:24:51.520Z</time>
      </trkpt>
      <trkpt lat="46.39526" lon="8.04514">
        <ele>2313</ele>
        <time>2021-07-10T11:24:52.520Z</time>
      </trkpt>
      <trkpt lat="46.39526" lon="8.04514">
        <ele>2313</ele>
        <time>2021-07-10T11:24:53.521Z</time>
      </trkpt>
      <trkpt lat="46.39527" lon="8.04513">
        <ele>2314</ele>
        <time>2021-07-10T11:24:54.520Z</time>
      </trkpt>
      <trkpt lat="46.39526" lon="8.04512">
        <ele>2314</ele>
        <time>2021-07-10T11:24:55.521Z</time>
      </trkpt>
      <trkpt lat="46.39526" lon="8.04511">
        <ele>2314</ele>
        <time>2021-07-10T11:24:56.521Z</time>
      </trkpt>
      <trkpt lat="46.39526" lon="8.0451">
        <ele>2314</ele>
        <time>2021-07-10T11:24:57.520Z</time>
      </trkpt>
      <trkpt lat="46.39526" lon="8.04509">
        <ele>2314</ele>
        <time>2021-07-10T11:24:58.521Z</time>
      </trkpt>
      <trkpt lat="46.39526" lon="8.04508">
        <ele>2314</ele>
        <time>2021-07-10T11:24:59.521Z</time>
      </trkpt>
      <trkpt lat="46.39525" lon="8.04507">
        <ele>2314</ele>
        <time>2021-07-10T11:25:00.520Z</time>
      </trkpt>
      <trkpt lat="46.39526" lon="8.04506">
        <ele>2314</ele>
        <time>2021-07-10T11:25:01.520Z</time>
      </trkpt>
      <trkpt lat="46.39525" lon="8.04506">
        <ele>2314</ele>
        <time>2021-07-10T11:25:02.520Z</time>
      </trkpt>
      <trkpt lat="46.39525" lon="8.04505">
        <ele>2314</ele>
        <time>2021-07-10T11:25:03.521Z</time>
      </trkpt>
      <trkpt lat="46.39525" lon="8.04505">
        <ele>2314</ele>
        <time>2021-07-10T11:25:04.521Z</time>
      </trkpt>
      <trkpt lat="46.39525" lon="8.04504">
        <ele>2314</ele>
        <time>2021-07-10T11:25:05.521Z</time>
      </trkpt>
      <trkpt lat="46.39524" lon="8.04504">
        <ele>2314</ele>
        <time>2021-07-10T11:25:06.521Z</time>
      </trkpt>
      <trkpt lat="46.39524" lon="8.04503">
        <ele>2314</ele>
        <time>2021-07-10T11:25:07.521Z</time>
      </trkpt>
      <trkpt lat="46.39523" lon="8.04502">
        <ele>2314</ele>
        <time>2021-07-10T11:25:08.520Z</time>
      </trkpt>
      <trkpt lat="46.39523" lon="8.04502">
        <ele>2314</ele>
        <time>2021-07-10T11:25:09.520Z</time>
      </trkpt>
      <trkpt lat="46.39522" lon="8.04502">
        <ele>2313</ele>
        <time>2021-07-10T11:25:10.520Z</time>
      </trkpt>
      <trkpt lat="46.39521" lon="8.045">
        <ele>2313</ele>
        <time>2021-07-10T11:25:11.523Z</time>
      </trkpt>
      <trkpt lat="46.39521" lon="8.04499">
        <ele>2313</ele>
        <time>2021-07-10T11:25:12.523Z</time>
      </trkpt>
      <trkpt lat="46.39521" lon="8.04498">
        <ele>2313</ele>
        <time>2021-07-10T11:25:13.522Z</time>
      </trkpt>
      <trkpt lat="46.39522" lon="8.04497">
        <ele>2313</ele>
        <time>2021-07-10T11:25:14.522Z</time>
      </trkpt>
      <trkpt lat="46.39522" lon="8.04496">
        <ele>2313</ele>
        <time>2021-07-10T11:25:15.522Z</time>
      </trkpt>
      <trkpt lat="46.39522" lon="8.04496">
        <ele>2313</ele>
        <time>2021-07-10T11:25:16.523Z</time>
      </trkpt>
      <trkpt lat="46.3952" lon="8.04498">
        <ele>2311</ele>
        <time>2021-07-10T11:25:17.524Z</time>
      </trkpt>
      <trkpt lat="46.3952" lon="8.04498">
        <ele>2310</ele>
        <time>2021-07-10T11:25:18.523Z</time>
      </trkpt>
      <trkpt lat="46.3952" lon="8.04498">
        <ele>2310</ele>
        <time>2021-07-10T11:25:19.523Z</time>
      </trkpt>
      <trkpt lat="46.3952" lon="8.04498">
        <ele>2309</ele>
        <time>2021-07-10T11:25:20.524Z</time>
      </trkpt>
      <trkpt lat="46.3952" lon="8.04498">
        <ele>2309</ele>
        <time>2021-07-10T11:25:21.524Z</time>
      </trkpt>
      <trkpt lat="46.39518" lon="8.045">
        <ele>2308</ele>
        <time>2021-07-10T11:25:22.523Z</time>
      </trkpt>
      <trkpt lat="46.39518" lon="8.04498">
        <ele>2311</ele>
        <time>2021-07-10T11:25:23.524Z</time>
      </trkpt>
      <trkpt lat="46.39522" lon="8.04499">
        <ele>2309</ele>
        <time>2021-07-10T11:25:24.526Z</time>
      </trkpt>
      <trkpt lat="46.3952" lon="8.04499">
        <ele>2308</ele>
        <time>2021-07-10T11:25:25.526Z</time>
      </trkpt>
      <trkpt lat="46.39521" lon="8.04498">
        <ele>2308</ele>
        <time>2021-07-10T11:25:26.525Z</time>
      </trkpt>
      <trkpt lat="46.39521" lon="8.04498">
        <ele>2307</ele>
        <time>2021-07-10T11:25:27.526Z</time>
      </trkpt>
      <trkpt lat="46.39521" lon="8.04497">
        <ele>2307</ele>
        <time>2021-07-10T11:25:28.525Z</time>
      </trkpt>
      <trkpt lat="46.39521" lon="8.04497">
        <ele>2307</ele>
        <time>2021-07-10T11:25:29.525Z</time>
      </trkpt>
      <trkpt lat="46.39521" lon="8.04497">
        <ele>2306</ele>
        <time>2021-07-10T11:25:30.526Z</time>
      </trkpt>
      <trkpt lat="46.39521" lon="8.04497">
        <ele>2306</ele>
        <time>2021-07-10T11:25:31.526Z</time>
      </trkpt>
      <trkpt lat="46.39521" lon="8.04497">
        <ele>2306</ele>
        <time>2021-07-10T11:25:32.527Z</time>
      </trkpt>
      <trkpt lat="46.39521" lon="8.04498">
        <ele>2306</ele>
        <time>2021-07-10T11:25:33.526Z</time>
      </trkpt>
      <trkpt lat="46.39521" lon="8.04498">
        <ele>2306</ele>
        <time>2021-07-10T11:25:34.527Z</time>
      </trkpt>
      <trkpt lat="46.39519" lon="8.045">
        <ele>2307</ele>
        <time>2021-07-10T11:25:35.527Z</time>
      </trkpt>
      <trkpt lat="46.39519" lon="8.045">
        <ele>2307</ele>
        <time>2021-07-10T11:25:36.527Z</time>
      </trkpt>
      <trkpt lat="46.39518" lon="8.04501">
        <ele>2307</ele>
        <time>2021-07-10T11:25:37.526Z</time>
      </trkpt>
      <trkpt lat="46.39517" lon="8.04502">
        <ele>2307</ele>
        <time>2021-07-10T11:25:38.527Z</time>
      </trkpt>
      <trkpt lat="46.39517" lon="8.04503">
        <ele>2308</ele>
        <time>2021-07-10T11:25:39.527Z</time>
      </trkpt>
      <trkpt lat="46.39517" lon="8.04503">
        <ele>2308</ele>
        <time>2021-07-10T11:25:40.527Z</time>
      </trkpt>
      <trkpt lat="46.39516" lon="8.04503">
        <ele>2309</ele>
        <time>2021-07-10T11:25:41.527Z</time>
      </trkpt>
      <trkpt lat="46.39516" lon="8.04503">
        <ele>2309</ele>
        <time>2021-07-10T11:25:42.526Z</time>
      </trkpt>
      <trkpt lat="46.39515" lon="8.04504">
        <ele>2310</ele>
        <time>2021-07-10T11:25:43.527Z</time>
      </trkpt>
      <trkpt lat="46.39515" lon="8.04504">
        <ele>2310</ele>
        <time>2021-07-10T11:25:44.526Z</time>
      </trkpt>
      <trkpt lat="46.39515" lon="8.04504">
        <ele>2310</ele>
        <time>2021-07-10T11:25:45.526Z</time>
      </trkpt>
      <trkpt lat="46.39515" lon="8.04504">
        <ele>2310</ele>
        <time>2021-07-10T11:25:46.526Z</time>
      </trkpt>
      <trkpt lat="46.39516" lon="8.04504">
        <ele>2310</ele>
        <time>2021-07-10T11:25:47.527Z</time>
      </trkpt>
      <trkpt lat="46.39516" lon="8.04503">
        <ele>2310</ele>
        <time>2021-07-10T11:25:48.526Z</time>
      </trkpt>
      <trkpt lat="46.39515" lon="8.04504">
        <ele>2311</ele>
        <time>2021-07-10T11:25:49.526Z</time>
      </trkpt>
      <trkpt lat="46.39515" lon="8.04505">
        <ele>2311</ele>
        <time>2021-07-10T11:25:50.526Z</time>
      </trkpt>
      <trkpt lat="46.39514" lon="8.04504">
        <ele>2311</ele>
        <time>2021-07-10T11:25:51.526Z</time>
      </trkpt>
      <trkpt lat="46.39514" lon="8.04504">
        <ele>2311</ele>
        <time>2021-07-10T11:25:52.527Z</time>
      </trkpt>
      <trkpt lat="46.39515" lon="8.04504">
        <ele>2311</ele>
        <time>2021-07-10T11:25:53.527Z</time>
      </trkpt>
      <trkpt lat="46.39516" lon="8.04504">
        <ele>2310</ele>
        <time>2021-07-10T11:25:54.526Z</time>
      </trkpt>
      <trkpt lat="46.39516" lon="8.04504">
        <ele>2309</ele>
        <time>2021-07-10T11:25:55.526Z</time>
      </trkpt>
      <trkpt lat="46.39517" lon="8.04505">
        <ele>2304</ele>
        <time>2021-07-10T11:25:56.527Z</time>
      </trkpt>
      <trkpt lat="46.39516" lon="8.04506">
        <ele>2304</ele>
        <time>2021-07-10T11:25:57.528Z</time>
      </trkpt>
      <trkpt lat="46.39517" lon="8.04502">
        <ele>2307</ele>
        <time>2021-07-10T11:25:58.528Z</time>
      </trkpt>
      <trkpt lat="46.39517" lon="8.04502">
        <ele>2307</ele>
        <time>2021-07-10T11:25:59.528Z</time>
      </trkpt>
      <trkpt lat="46.39517" lon="8.04502">
        <ele>2307</ele>
        <time>2021-07-10T11:26:00.527Z</time>
      </trkpt>
      <trkpt lat="46.3952" lon="8.04498">
        <ele>2307</ele>
        <time>2021-07-10T11:26:01.529Z</time>
      </trkpt>
      <trkpt lat="46.3952" lon="8.04498">
        <ele>2307</ele>
        <time>2021-07-10T11:26:02.529Z</time>
      </trkpt>
      <trkpt lat="46.3952" lon="8.04498">
        <ele>2307</ele>
        <time>2021-07-10T11:26:03.528Z</time>
      </trkpt>
      <trkpt lat="46.39519" lon="8.045">
        <ele>2310</ele>
        <time>2021-07-10T11:26:04.530Z</time>
      </trkpt>
      <trkpt lat="46.39519" lon="8.045">
        <ele>2310</ele>
        <time>2021-07-10T11:26:05.530Z</time>
      </trkpt>
      <trkpt lat="46.39519" lon="8.045">
        <ele>2309</ele>
        <time>2021-07-10T11:26:06.530Z</time>
      </trkpt>
      <trkpt lat="46.39519" lon="8.045">
        <ele>2308</ele>
        <time>2021-07-10T11:26:07.529Z</time>
      </trkpt>
      <trkpt lat="46.39519" lon="8.045">
        <ele>2308</ele>
        <time>2021-07-10T11:26:08.529Z</time>
      </trkpt>
      <trkpt lat="46.39519" lon="8.045">
        <ele>2307</ele>
        <time>2021-07-10T11:26:09.529Z</time>
      </trkpt>
      <trkpt lat="46.39519" lon="8.045">
        <ele>2307</ele>
        <time>2021-07-10T11:26:10.530Z</time>
      </trkpt>
      <trkpt lat="46.39519" lon="8.045">
        <ele>2308</ele>
        <time>2021-07-10T11:26:11.529Z</time>
      </trkpt>
      <trkpt lat="46.39519" lon="8.045">
        <ele>2308</ele>
        <time>2021-07-10T11:26:12.530Z</time>
      </trkpt>
      <trkpt lat="46.3952" lon="8.04499">
        <ele>2308</ele>
        <time>2021-07-10T11:26:13.530Z</time>
      </trkpt>
      <trkpt lat="46.3952" lon="8.04498">
        <ele>2308</ele>
        <time>2021-07-10T11:26:14.530Z</time>
      </trkpt>
      <trkpt lat="46.3952" lon="8.04499">
        <ele>2309</ele>
        <time>2021-07-10T11:26:15.530Z</time>
      </trkpt>
      <trkpt lat="46.3952" lon="8.04499">
        <ele>2309</ele>
        <time>2021-07-10T11:26:16.529Z</time>
      </trkpt>
      <trkpt lat="46.3952" lon="8.04498">
        <ele>2310</ele>
        <time>2021-07-10T11:26:17.530Z</time>
      </trkpt>
      <trkpt lat="46.3952" lon="8.04498">
        <ele>2311</ele>
        <time>2021-07-10T11:26:18.530Z</time>
      </trkpt>
      <trkpt lat="46.39521" lon="8.04498">
        <ele>2311</ele>
        <time>2021-07-10T11:26:19.530Z</time>
      </trkpt>
      <trkpt lat="46.39521" lon="8.04498">
        <ele>2312</ele>
        <time>2021-07-10T11:26:20.529Z</time>
      </trkpt>
      <trkpt lat="46.39521" lon="8.04498">
        <ele>2313</ele>
        <time>2021-07-10T11:26:21.530Z</time>
      </trkpt>
      <trkpt lat="46.39521" lon="8.04498">
        <ele>2313</ele>
        <time>2021-07-10T11:26:22.530Z</time>
      </trkpt>
      <trkpt lat="46.39521" lon="8.04499">
        <ele>2313</ele>
        <time>2021-07-10T11:26:23.530Z</time>
      </trkpt>
      <trkpt lat="46.39521" lon="8.04499">
        <ele>2314</ele>
        <time>2021-07-10T11:26:24.530Z</time>
      </trkpt>
      <trkpt lat="46.3952" lon="8.045">
        <ele>2314</ele>
        <time>2021-07-10T11:26:25.530Z</time>
      </trkpt>
      <trkpt lat="46.3952" lon="8.045">
        <ele>2313</ele>
        <time>2021-07-10T11:26:26.530Z</time>
      </trkpt>
      <trkpt lat="46.3952" lon="8.04501">
        <ele>2313</ele>
        <time>2021-07-10T11:26:27.530Z</time>
      </trkpt>
      <trkpt lat="46.39519" lon="8.04503">
        <ele>2313</ele>
        <time>2021-07-10T11:26:28.531Z</time>
      </trkpt>
      <trkpt lat="46.39519" lon="8.04502">
        <ele>2311</ele>
        <time>2021-07-10T11:26:29.531Z</time>
      </trkpt>
      <trkpt lat="46.39519" lon="8.04502">
        <ele>2311</ele>
        <time>2021-07-10T11:26:30.531Z</time>
      </trkpt>
      <trkpt lat="46.39519" lon="8.04501">
        <ele>2311</ele>
        <time>2021-07-10T11:26:31.530Z</time>
      </trkpt>
      <trkpt lat="46.39518" lon="8.045">
        <ele>2309</ele>
        <time>2021-07-10T11:26:32.530Z</time>
      </trkpt>
      <trkpt lat="46.39518" lon="8.045">
        <ele>2308</ele>
        <time>2021-07-10T11:26:33.531Z</time>
      </trkpt>
      <trkpt lat="46.39524" lon="8.04494">
        <ele>2308</ele>
        <time>2021-07-10T11:26:34.530Z</time>
      </trkpt>
      <trkpt lat="46.39524" lon="8.04494">
        <ele>2309</ele>
        <time>2021-07-10T11:26:35.531Z</time>
      </trkpt>
      <trkpt lat="46.39525" lon="8.04493">
        <ele>2309</ele>
        <time>2021-07-10T11:26:36.530Z</time>
      </trkpt>
      <trkpt lat="46.39523" lon="8.04495">
        <ele>2310</ele>
        <time>2021-07-10T11:26:37.531Z</time>
      </trkpt>
      <trkpt lat="46.39523" lon="8.04495">
        <ele>2310</ele>
        <time>2021-07-10T11:26:38.531Z</time>
      </trkpt>
      <trkpt lat="46.39521" lon="8.04494">
        <ele>2310</ele>
        <time>2021-07-10T11:26:39.533Z</time>
      </trkpt>
      <trkpt lat="46.39521" lon="8.04494">
        <ele>2309</ele>
        <time>2021-07-10T11:26:40.533Z</time>
      </trkpt>
      <trkpt lat="46.39521" lon="8.04493">
        <ele>2309</ele>
        <time>2021-07-10T11:26:41.532Z</time>
      </trkpt>
      <trkpt lat="46.39518" lon="8.04496">
        <ele>2312</ele>
        <time>2021-07-10T11:26:42.534Z</time>
      </trkpt>
      <trkpt lat="46.39518" lon="8.04496">
        <ele>2312</ele>
        <time>2021-07-10T11:26:43.534Z</time>
      </trkpt>
      <trkpt lat="46.39515" lon="8.04499">
        <ele>2314</ele>
        <time>2021-07-10T11:26:44.534Z</time>
      </trkpt>
      <trkpt lat="46.39515" lon="8.04499">
        <ele>2314</ele>
        <time>2021-07-10T11:26:45.534Z</time>
      </trkpt>
      <trkpt lat="46.39516" lon="8.04499">
        <ele>2314</ele>
        <time>2021-07-10T11:26:46.533Z</time>
      </trkpt>
      <trkpt lat="46.39517" lon="8.045">
        <ele>2312</ele>
        <time>2021-07-10T11:26:47.534Z</time>
      </trkpt>
      <trkpt lat="46.39517" lon="8.04501">
        <ele>2312</ele>
        <time>2021-07-10T11:26:48.533Z</time>
      </trkpt>
      <trkpt lat="46.39517" lon="8.04503">
        <ele>2311</ele>
        <time>2021-07-10T11:26:49.533Z</time>
      </trkpt>
      <trkpt lat="46.39517" lon="8.04504">
        <ele>2311</ele>
        <time>2021-07-10T11:26:50.533Z</time>
      </trkpt>
      <trkpt lat="46.39517" lon="8.04506">
        <ele>2311</ele>
        <time>2021-07-10T11:26:51.533Z</time>
      </trkpt>
      <trkpt lat="46.39518" lon="8.04506">
        <ele>2310</ele>
        <time>2021-07-10T11:26:52.533Z</time>
      </trkpt>
      <trkpt lat="46.39519" lon="8.04505">
        <ele>2310</ele>
        <time>2021-07-10T11:26:53.533Z</time>
      </trkpt>
      <trkpt lat="46.39519" lon="8.04505">
        <ele>2309</ele>
        <time>2021-07-10T11:26:54.533Z</time>
      </trkpt>
      <trkpt lat="46.3952" lon="8.04505">
        <ele>2309</ele>
        <time>2021-07-10T11:26:55.533Z</time>
      </trkpt>
      <trkpt lat="46.39523" lon="8.04504">
        <ele>2309</ele>
        <time>2021-07-10T11:26:56.533Z</time>
      </trkpt>
      <trkpt lat="46.39523" lon="8.04505">
        <ele>2309</ele>
        <time>2021-07-10T11:26:57.534Z</time>
      </trkpt>
      <trkpt lat="46.39523" lon="8.04506">
        <ele>2309</ele>
        <time>2021-07-10T11:26:58.534Z</time>
      </trkpt>
      <trkpt lat="46.39523" lon="8.04507">
        <ele>2309</ele>
        <time>2021-07-10T11:26:59.533Z</time>
      </trkpt>
      <trkpt lat="46.39523" lon="8.04508">
        <ele>2308</ele>
        <time>2021-07-10T11:27:00.534Z</time>
      </trkpt>
      <trkpt lat="46.39523" lon="8.0451">
        <ele>2308</ele>
        <time>2021-07-10T11:27:01.534Z</time>
      </trkpt>
      <trkpt lat="46.39523" lon="8.04511">
        <ele>2309</ele>
        <time>2021-07-10T11:27:02.534Z</time>
      </trkpt>
      <trkpt lat="46.39524" lon="8.04512">
        <ele>2309</ele>
        <time>2021-07-10T11:27:03.534Z</time>
      </trkpt>
      <trkpt lat="46.39524" lon="8.04513">
        <ele>2309</ele>
        <time>2021-07-10T11:27:04.534Z</time>
      </trkpt>
      <trkpt lat="46.39524" lon="8.04514">
        <ele>2309</ele>
        <time>2021-07-10T11:27:05.534Z</time>
      </trkpt>
      <trkpt lat="46.39525" lon="8.04515">
        <ele>2309</ele>
        <time>2021-07-10T11:27:06.534Z</time>
      </trkpt>
      <trkpt lat="46.39525" lon="8.04516">
        <ele>2310</ele>
        <time>2021-07-10T11:27:07.534Z</time>
      </trkpt>
      <trkpt lat="46.39526" lon="8.04517">
        <ele>2310</ele>
        <time>2021-07-10T11:27:08.534Z</time>
      </trkpt>
      <trkpt lat="46.39526" lon="8.04518">
        <ele>2310</ele>
        <time>2021-07-10T11:27:09.534Z</time>
      </trkpt>
      <trkpt lat="46.39526" lon="8.04519">
        <ele>2310</ele>
        <time>2021-07-10T11:27:10.534Z</time>
      </trkpt>
      <trkpt lat="46.39527" lon="8.04519">
        <ele>2310</ele>
        <time>2021-07-10T11:27:11.533Z</time>
      </trkpt>
      <trkpt lat="46.39527" lon="8.04519">
        <ele>2311</ele>
        <time>2021-07-10T11:27:12.533Z</time>
      </trkpt>
      <trkpt lat="46.39528" lon="8.04519">
        <ele>2311</ele>
        <time>2021-07-10T11:27:13.533Z</time>
      </trkpt>
      <trkpt lat="46.39528" lon="8.04519">
        <ele>2311</ele>
        <time>2021-07-10T11:27:14.534Z</time>
      </trkpt>
      <trkpt lat="46.39529" lon="8.0452">
        <ele>2311</ele>
        <time>2021-07-10T11:27:15.533Z</time>
      </trkpt>
      <trkpt lat="46.39529" lon="8.0452">
        <ele>2311</ele>
        <time>2021-07-10T11:27:16.534Z</time>
      </trkpt>
      <trkpt lat="46.39529" lon="8.0452">
        <ele>2312</ele>
        <time>2021-07-10T11:27:17.533Z</time>
      </trkpt>
      <trkpt lat="46.3953" lon="8.04518">
        <ele>2312</ele>
        <time>2021-07-10T11:27:18.533Z</time>
      </trkpt>
      <trkpt lat="46.3953" lon="8.04517">
        <ele>2312</ele>
        <time>2021-07-10T11:27:19.534Z</time>
      </trkpt>
      <trkpt lat="46.3953" lon="8.04518">
        <ele>2312</ele>
        <time>2021-07-10T11:27:20.534Z</time>
      </trkpt>
      <trkpt lat="46.3953" lon="8.04518">
        <ele>2312</ele>
        <time>2021-07-10T11:27:21.533Z</time>
      </trkpt>
      <trkpt lat="46.39531" lon="8.04518">
        <ele>2312</ele>
        <time>2021-07-10T11:27:22.533Z</time>
      </trkpt>
      <trkpt lat="46.3953" lon="8.04519">
        <ele>2312</ele>
        <time>2021-07-10T11:27:23.534Z</time>
      </trkpt>
      <trkpt lat="46.3953" lon="8.04519">
        <ele>2312</ele>
        <time>2021-07-10T11:27:24.534Z</time>
      </trkpt>
      <trkpt lat="46.39531" lon="8.04519">
        <ele>2312</ele>
        <time>2021-07-10T11:27:25.534Z</time>
      </trkpt>
      <trkpt lat="46.39531" lon="8.0452">
        <ele>2312</ele>
        <time>2021-07-10T11:27:26.533Z</time>
      </trkpt>
      <trkpt lat="46.39531" lon="8.04521">
        <ele>2314</ele>
        <time>2021-07-10T11:27:27.534Z</time>
      </trkpt>
      <trkpt lat="46.3953" lon="8.04521">
        <ele>2314</ele>
        <time>2021-07-10T11:27:28.533Z</time>
      </trkpt>
      <trkpt lat="46.3953" lon="8.04521">
        <ele>2314</ele>
        <time>2021-07-10T11:27:29.533Z</time>
      </trkpt>
      <trkpt lat="46.3953" lon="8.04521">
        <ele>2314</ele>
        <time>2021-07-10T11:27:30.533Z</time>
      </trkpt>
      <trkpt lat="46.3953" lon="8.04521">
        <ele>2314</ele>
        <time>2021-07-10T11:27:31.533Z</time>
      </trkpt>
      <trkpt lat="46.3953" lon="8.04521">
        <ele>2314</ele>
        <time>2021-07-10T11:27:32.534Z</time>
      </trkpt>
      <trkpt lat="46.39529" lon="8.04519">
        <ele>2311</ele>
        <time>2021-07-10T11:27:33.534Z</time>
      </trkpt>
      <trkpt lat="46.39528" lon="8.04519">
        <ele>2310</ele>
        <time>2021-07-10T11:27:34.533Z</time>
      </trkpt>
      <trkpt lat="46.39527" lon="8.04519">
        <ele>2310</ele>
        <time>2021-07-10T11:27:35.534Z</time>
      </trkpt>
      <trkpt lat="46.39527" lon="8.04518">
        <ele>2310</ele>
        <time>2021-07-10T11:27:36.533Z</time>
      </trkpt>
      <trkpt lat="46.39527" lon="8.04517">
        <ele>2310</ele>
        <time>2021-07-10T11:27:37.533Z</time>
      </trkpt>
      <trkpt lat="46.39527" lon="8.04516">
        <ele>2310</ele>
        <time>2021-07-10T11:27:38.534Z</time>
      </trkpt>
      <trkpt lat="46.39527" lon="8.04516">
        <ele>2310</ele>
        <time>2021-07-10T11:27:39.534Z</time>
      </trkpt>
      <trkpt lat="46.39527" lon="8.04515">
        <ele>2310</ele>
        <time>2021-07-10T11:27:40.533Z</time>
      </trkpt>
      <trkpt lat="46.39527" lon="8.04515">
        <ele>2311</ele>
        <time>2021-07-10T11:27:41.533Z</time>
      </trkpt>
      <trkpt lat="46.39527" lon="8.04514">
        <ele>2311</ele>
        <time>2021-07-10T11:27:42.534Z</time>
      </trkpt>
      <trkpt lat="46.39526" lon="8.04513">
        <ele>2311</ele>
        <time>2021-07-10T11:27:43.533Z</time>
      </trkpt>
      <trkpt lat="46.39526" lon="8.04512">
        <ele>2311</ele>
        <time>2021-07-10T11:27:44.534Z</time>
      </trkpt>
      <trkpt lat="46.39525" lon="8.04512">
        <ele>2311</ele>
        <time>2021-07-10T11:27:45.533Z</time>
      </trkpt>
      <trkpt lat="46.39525" lon="8.04511">
        <ele>2311</ele>
        <time>2021-07-10T11:27:46.533Z</time>
      </trkpt>
      <trkpt lat="46.39524" lon="8.04511">
        <ele>2311</ele>
        <time>2021-07-10T11:27:47.533Z</time>
      </trkpt>
      <trkpt lat="46.39525" lon="8.0451">
        <ele>2311</ele>
        <time>2021-07-10T11:27:48.533Z</time>
      </trkpt>
      <trkpt lat="46.39525" lon="8.04509">
        <ele>2311</ele>
        <time>2021-07-10T11:27:49.534Z</time>
      </trkpt>
      <trkpt lat="46.39524" lon="8.04509">
        <ele>2311</ele>
        <time>2021-07-10T11:27:50.534Z</time>
      </trkpt>
      <trkpt lat="46.39524" lon="8.04508">
        <ele>2312</ele>
        <time>2021-07-10T11:27:51.533Z</time>
      </trkpt>
      <trkpt lat="46.39524" lon="8.04507">
        <ele>2312</ele>
        <time>2021-07-10T11:27:52.533Z</time>
      </trkpt>
      <trkpt lat="46.39524" lon="8.04507">
        <ele>2312</ele>
        <time>2021-07-10T11:27:53.534Z</time>
      </trkpt>
      <trkpt lat="46.39524" lon="8.04506">
        <ele>2312</ele>
        <time>2021-07-10T11:27:54.534Z</time>
      </trkpt>
      <trkpt lat="46.39524" lon="8.04505">
        <ele>2312</ele>
        <time>2021-07-10T11:27:55.533Z</time>
      </trkpt>
      <trkpt lat="46.39523" lon="8.04504">
        <ele>2312</ele>
        <time>2021-07-10T11:27:56.533Z</time>
      </trkpt>
      <trkpt lat="46.39523" lon="8.04504">
        <ele>2312</ele>
        <time>2021-07-10T11:27:57.533Z</time>
      </trkpt>
      <trkpt lat="46.39523" lon="8.04503">
        <ele>2312</ele>
        <time>2021-07-10T11:27:58.534Z</time>
      </trkpt>
      <trkpt lat="46.39523" lon="8.04502">
        <ele>2312</ele>
        <time>2021-07-10T11:27:59.534Z</time>
      </trkpt>
      <trkpt lat="46.39522" lon="8.04501">
        <ele>2312</ele>
        <time>2021-07-10T11:28:00.533Z</time>
      </trkpt>
      <trkpt lat="46.39522" lon="8.045">
        <ele>2312</ele>
        <time>2021-07-10T11:28:01.533Z</time>
      </trkpt>
      <trkpt lat="46.39522" lon="8.04499">
        <ele>2312</ele>
        <time>2021-07-10T11:28:02.534Z</time>
      </trkpt>
      <trkpt lat="46.39522" lon="8.04498">
        <ele>2312</ele>
        <time>2021-07-10T11:28:03.533Z</time>
      </trkpt>
      <trkpt lat="46.39522" lon="8.04497">
        <ele>2311</ele>
        <time>2021-07-10T11:28:04.533Z</time>
      </trkpt>
      <trkpt lat="46.39521" lon="8.04496">
        <ele>2311</ele>
        <time>2021-07-10T11:28:05.534Z</time>
      </trkpt>
      <trkpt lat="46.39521" lon="8.04494">
        <ele>2310</ele>
        <time>2021-07-10T11:28:06.534Z</time>
      </trkpt>
      <trkpt lat="46.39522" lon="8.04493">
        <ele>2310</ele>
        <time>2021-07-10T11:28:07.534Z</time>
      </trkpt>
      <trkpt lat="46.39522" lon="8.04491">
        <ele>2309</ele>
        <time>2021-07-10T11:28:08.534Z</time>
      </trkpt>
      <trkpt lat="46.39522" lon="8.0449">
        <ele>2309</ele>
        <time>2021-07-10T11:28:09.534Z</time>
      </trkpt>
      <trkpt lat="46.39521" lon="8.04489">
        <ele>2309</ele>
        <time>2021-07-10T11:28:10.533Z</time>
      </trkpt>
      <trkpt lat="46.39521" lon="8.04488">
        <ele>2308</ele>
        <time>2021-07-10T11:28:11.534Z</time>
      </trkpt>
      <trkpt lat="46.39521" lon="8.04487">
        <ele>2308</ele>
        <time>2021-07-10T11:28:12.533Z</time>
      </trkpt>
      <trkpt lat="46.39521" lon="8.04486">
        <ele>2307</ele>
        <time>2021-07-10T11:28:13.534Z</time>
      </trkpt>
      <trkpt lat="46.39521" lon="8.04485">
        <ele>2307</ele>
        <time>2021-07-10T11:28:14.533Z</time>
      </trkpt>
      <trkpt lat="46.39521" lon="8.04483">
        <ele>2307</ele>
        <time>2021-07-10T11:28:15.533Z</time>
      </trkpt>
      <trkpt lat="46.39521" lon="8.04482">
        <ele>2307</ele>
        <time>2021-07-10T11:28:16.534Z</time>
      </trkpt>
      <trkpt lat="46.39521" lon="8.04481">
        <ele>2307</ele>
        <time>2021-07-10T11:28:17.533Z</time>
      </trkpt>
      <trkpt lat="46.39521" lon="8.0448">
        <ele>2307</ele>
        <time>2021-07-10T11:28:18.534Z</time>
      </trkpt>
      <trkpt lat="46.39521" lon="8.04479">
        <ele>2307</ele>
        <time>2021-07-10T11:28:19.534Z</time>
      </trkpt>
      <trkpt lat="46.39521" lon="8.04478">
        <ele>2307</ele>
        <time>2021-07-10T11:28:20.533Z</time>
      </trkpt>
      <trkpt lat="46.39521" lon="8.04477">
        <ele>2307</ele>
        <time>2021-07-10T11:28:21.533Z</time>
      </trkpt>
      <trkpt lat="46.39521" lon="8.04476">
        <ele>2307</ele>
        <time>2021-07-10T11:28:22.534Z</time>
      </trkpt>
      <trkpt lat="46.39521" lon="8.04475">
        <ele>2307</ele>
        <time>2021-07-10T11:28:23.534Z</time>
      </trkpt>
      <trkpt lat="46.39521" lon="8.04475">
        <ele>2307</ele>
        <time>2021-07-10T11:28:24.534Z</time>
      </trkpt>
      <trkpt lat="46.39521" lon="8.04474">
        <ele>2307</ele>
        <time>2021-07-10T11:28:25.534Z</time>
      </trkpt>
      <trkpt lat="46.39521" lon="8.04473">
        <ele>2307</ele>
        <time>2021-07-10T11:28:26.534Z</time>
      </trkpt>
      <trkpt lat="46.39521" lon="8.04473">
        <ele>2308</ele>
        <time>2021-07-10T11:28:27.534Z</time>
      </trkpt>
      <trkpt lat="46.39521" lon="8.04472">
        <ele>2308</ele>
        <time>2021-07-10T11:28:28.534Z</time>
      </trkpt>
      <trkpt lat="46.39521" lon="8.04471">
        <ele>2309</ele>
        <time>2021-07-10T11:28:29.533Z</time>
      </trkpt>
      <trkpt lat="46.39521" lon="8.0447">
        <ele>2309</ele>
        <time>2021-07-10T11:28:30.534Z</time>
      </trkpt>
      <trkpt lat="46.39522" lon="8.04469">
        <ele>2309</ele>
        <time>2021-07-10T11:28:31.534Z</time>
      </trkpt>
      <trkpt lat="46.39522" lon="8.04467">
        <ele>2309</ele>
        <time>2021-07-10T11:28:32.534Z</time>
      </trkpt>
      <trkpt lat="46.39522" lon="8.04466">
        <ele>2308</ele>
        <time>2021-07-10T11:28:33.533Z</time>
      </trkpt>
      <trkpt lat="46.39523" lon="8.04465">
        <ele>2308</ele>
        <time>2021-07-10T11:28:34.533Z</time>
      </trkpt>
      <trkpt lat="46.39523" lon="8.04465">
        <ele>2307</ele>
        <time>2021-07-10T11:28:35.534Z</time>
      </trkpt>
      <trkpt lat="46.39523" lon="8.04463">
        <ele>2306</ele>
        <time>2021-07-10T11:28:36.534Z</time>
      </trkpt>
      <trkpt lat="46.39524" lon="8.04462">
        <ele>2306</ele>
        <time>2021-07-10T11:28:37.534Z</time>
      </trkpt>
      <trkpt lat="46.39524" lon="8.04461">
        <ele>2305</ele>
        <time>2021-07-10T11:28:38.534Z</time>
      </trkpt>
      <trkpt lat="46.39524" lon="8.0446">
        <ele>2304</ele>
        <time>2021-07-10T11:28:39.533Z</time>
      </trkpt>
      <trkpt lat="46.39524" lon="8.04459">
        <ele>2304</ele>
        <time>2021-07-10T11:28:40.533Z</time>
      </trkpt>
      <trkpt lat="46.39523" lon="8.04459">
        <ele>2304</ele>
        <time>2021-07-10T11:28:41.534Z</time>
      </trkpt>
      <trkpt lat="46.39523" lon="8.04457">
        <ele>2303</ele>
        <time>2021-07-10T11:28:42.534Z</time>
      </trkpt>
      <trkpt lat="46.39523" lon="8.04455">
        <ele>2303</ele>
        <time>2021-07-10T11:28:43.534Z</time>
      </trkpt>
      <trkpt lat="46.39522" lon="8.04454">
        <ele>2303</ele>
        <time>2021-07-10T11:28:44.534Z</time>
      </trkpt>
      <trkpt lat="46.39522" lon="8.04454">
        <ele>2303</ele>
        <time>2021-07-10T11:28:45.534Z</time>
      </trkpt>
      <trkpt lat="46.39522" lon="8.04453">
        <ele>2303</ele>
        <time>2021-07-10T11:28:46.534Z</time>
      </trkpt>
      <trkpt lat="46.39522" lon="8.04452">
        <ele>2303</ele>
        <time>2021-07-10T11:28:47.533Z</time>
      </trkpt>
      <trkpt lat="46.39522" lon="8.04452">
        <ele>2303</ele>
        <time>2021-07-10T11:28:48.534Z</time>
      </trkpt>
      <trkpt lat="46.39523" lon="8.04451">
        <ele>2304</ele>
        <time>2021-07-10T11:28:49.534Z</time>
      </trkpt>
      <trkpt lat="46.39523" lon="8.04452">
        <ele>2304</ele>
        <time>2021-07-10T11:28:50.534Z</time>
      </trkpt>
      <trkpt lat="46.39523" lon="8.04452">
        <ele>2304</ele>
        <time>2021-07-10T11:28:51.534Z</time>
      </trkpt>
      <trkpt lat="46.39523" lon="8.04452">
        <ele>2304</ele>
        <time>2021-07-10T11:28:52.534Z</time>
      </trkpt>
      <trkpt lat="46.39522" lon="8.04451">
        <ele>2304</ele>
        <time>2021-07-10T11:28:53.534Z</time>
      </trkpt>
      <trkpt lat="46.39521" lon="8.0445">
        <ele>2304</ele>
        <time>2021-07-10T11:28:54.534Z</time>
      </trkpt>
      <trkpt lat="46.39521" lon="8.0445">
        <ele>2305</ele>
        <time>2021-07-10T11:28:55.534Z</time>
      </trkpt>
      <trkpt lat="46.39521" lon="8.0445">
        <ele>2305</ele>
        <time>2021-07-10T11:28:56.533Z</time>
      </trkpt>
      <trkpt lat="46.39521" lon="8.04449">
        <ele>2305</ele>
        <time>2021-07-10T11:28:57.534Z</time>
      </trkpt>
      <trkpt lat="46.3952" lon="8.04448">
        <ele>2304</ele>
        <time>2021-07-10T11:28:58.535Z</time>
      </trkpt>
      <trkpt lat="46.3952" lon="8.04447">
        <ele>2304</ele>
        <time>2021-07-10T11:28:59.534Z</time>
      </trkpt>
      <trkpt lat="46.3952" lon="8.04446">
        <ele>2304</ele>
        <time>2021-07-10T11:29:00.535Z</time>
      </trkpt>
      <trkpt lat="46.3952" lon="8.04446">
        <ele>2304</ele>
        <time>2021-07-10T11:29:01.534Z</time>
      </trkpt>
      <trkpt lat="46.39519" lon="8.04446">
        <ele>2304</ele>
        <time>2021-07-10T11:29:02.535Z</time>
      </trkpt>
      <trkpt lat="46.39519" lon="8.04445">
        <ele>2304</ele>
        <time>2021-07-10T11:29:03.535Z</time>
      </trkpt>
      <trkpt lat="46.39519" lon="8.04445">
        <ele>2304</ele>
        <time>2021-07-10T11:29:04.535Z</time>
      </trkpt>
      <trkpt lat="46.39518" lon="8.04444">
        <ele>2304</ele>
        <time>2021-07-10T11:29:05.535Z</time>
      </trkpt>
      <trkpt lat="46.39518" lon="8.04444">
        <ele>2305</ele>
        <time>2021-07-10T11:29:06.535Z</time>
      </trkpt>
      <trkpt lat="46.39517" lon="8.04443">
        <ele>2305</ele>
        <time>2021-07-10T11:29:07.534Z</time>
      </trkpt>
      <trkpt lat="46.39516" lon="8.04443">
        <ele>2306</ele>
        <time>2021-07-10T11:29:08.535Z</time>
      </trkpt>
      <trkpt lat="46.39516" lon="8.04442">
        <ele>2306</ele>
        <time>2021-07-10T11:29:09.534Z</time>
      </trkpt>
      <trkpt lat="46.39515" lon="8.04442">
        <ele>2306</ele>
        <time>2021-07-10T11:29:10.534Z</time>
      </trkpt>
      <trkpt lat="46.39514" lon="8.04441">
        <ele>2306</ele>
        <time>2021-07-10T11:29:11.534Z</time>
      </trkpt>
      <trkpt lat="46.39513" lon="8.04441">
        <ele>2306</ele>
        <time>2021-07-10T11:29:12.534Z</time>
      </trkpt>
      <trkpt lat="46.39513" lon="8.04441">
        <ele>2306</ele>
        <time>2021-07-10T11:29:13.534Z</time>
      </trkpt>
      <trkpt lat="46.39512" lon="8.0444">
        <ele>2306</ele>
        <time>2021-07-10T11:29:14.535Z</time>
      </trkpt>
      <trkpt lat="46.39512" lon="8.0444">
        <ele>2305</ele>
        <time>2021-07-10T11:29:15.535Z</time>
      </trkpt>
      <trkpt lat="46.39511" lon="8.04439">
        <ele>2305</ele>
        <time>2021-07-10T11:29:16.535Z</time>
      </trkpt>
      <trkpt lat="46.39511" lon="8.04438">
        <ele>2305</ele>
        <time>2021-07-10T11:29:17.534Z</time>
      </trkpt>
      <trkpt lat="46.3951" lon="8.04437">
        <ele>2305</ele>
        <time>2021-07-10T11:29:18.535Z</time>
      </trkpt>
      <trkpt lat="46.39509" lon="8.04436">
        <ele>2306</ele>
        <time>2021-07-10T11:29:19.535Z</time>
      </trkpt>
      <trkpt lat="46.39508" lon="8.04435">
        <ele>2306</ele>
        <time>2021-07-10T11:29:20.534Z</time>
      </trkpt>
      <trkpt lat="46.39508" lon="8.04434">
        <ele>2307</ele>
        <time>2021-07-10T11:29:21.535Z</time>
      </trkpt>
      <trkpt lat="46.39508" lon="8.04433">
        <ele>2307</ele>
        <time>2021-07-10T11:29:22.535Z</time>
      </trkpt>
      <trkpt lat="46.39507" lon="8.04432">
        <ele>2308</ele>
        <time>2021-07-10T11:29:23.534Z</time>
      </trkpt>
      <trkpt lat="46.39506" lon="8.04431">
        <ele>2308</ele>
        <time>2021-07-10T11:29:24.534Z</time>
      </trkpt>
      <trkpt lat="46.39506" lon="8.0443">
        <ele>2309</ele>
        <time>2021-07-10T11:29:25.534Z</time>
      </trkpt>
      <trkpt lat="46.39506" lon="8.04429">
        <ele>2308</ele>
        <time>2021-07-10T11:29:26.534Z</time>
      </trkpt>
      <trkpt lat="46.39505" lon="8.04429">
        <ele>2308</ele>
        <time>2021-07-10T11:29:27.534Z</time>
      </trkpt>
      <trkpt lat="46.39505" lon="8.04428">
        <ele>2308</ele>
        <time>2021-07-10T11:29:28.535Z</time>
      </trkpt>
      <trkpt lat="46.39505" lon="8.04427">
        <ele>2308</ele>
        <time>2021-07-10T11:29:29.534Z</time>
      </trkpt>
      <trkpt lat="46.39504" lon="8.04426">
        <ele>2308</ele>
        <time>2021-07-10T11:29:30.534Z</time>
      </trkpt>
      <trkpt lat="46.39504" lon="8.04425">
        <ele>2309</ele>
        <time>2021-07-10T11:29:31.535Z</time>
      </trkpt>
      <trkpt lat="46.39504" lon="8.04425">
        <ele>2309</ele>
        <time>2021-07-10T11:29:32.534Z</time>
      </trkpt>
      <trkpt lat="46.39503" lon="8.04424">
        <ele>2309</ele>
        <time>2021-07-10T11:29:33.535Z</time>
      </trkpt>
      <trkpt lat="46.39503" lon="8.04424">
        <ele>2310</ele>
        <time>2021-07-10T11:29:34.535Z</time>
      </trkpt>
      <trkpt lat="46.39502" lon="8.04423">
        <ele>2310</ele>
        <time>2021-07-10T11:29:35.535Z</time>
      </trkpt>
      <trkpt lat="46.39501" lon="8.04423">
        <ele>2310</ele>
        <time>2021-07-10T11:29:36.535Z</time>
      </trkpt>
      <trkpt lat="46.395" lon="8.04423">
        <ele>2310</ele>
        <time>2021-07-10T11:29:37.535Z</time>
      </trkpt>
      <trkpt lat="46.395" lon="8.04423">
        <ele>2310</ele>
        <time>2021-07-10T11:29:38.534Z</time>
      </trkpt>
      <trkpt lat="46.39499" lon="8.04422">
        <ele>2310</ele>
        <time>2021-07-10T11:29:39.534Z</time>
      </trkpt>
      <trkpt lat="46.39499" lon="8.04422">
        <ele>2310</ele>
        <time>2021-07-10T11:29:40.534Z</time>
      </trkpt>
      <trkpt lat="46.39498" lon="8.04421">
        <ele>2310</ele>
        <time>2021-07-10T11:29:41.535Z</time>
      </trkpt>
      <trkpt lat="46.39497" lon="8.0442">
        <ele>2310</ele>
        <time>2021-07-10T11:29:42.534Z</time>
      </trkpt>
      <trkpt lat="46.39496" lon="8.0442">
        <ele>2310</ele>
        <time>2021-07-10T11:29:43.535Z</time>
      </trkpt>
      <trkpt lat="46.39495" lon="8.0442">
        <ele>2310</ele>
        <time>2021-07-10T11:29:44.534Z</time>
      </trkpt>
      <trkpt lat="46.39495" lon="8.0442">
        <ele>2311</ele>
        <time>2021-07-10T11:29:45.535Z</time>
      </trkpt>
      <trkpt lat="46.39494" lon="8.04419">
        <ele>2311</ele>
        <time>2021-07-10T11:29:46.534Z</time>
      </trkpt>
      <trkpt lat="46.39493" lon="8.04419">
        <ele>2311</ele>
        <time>2021-07-10T11:29:47.534Z</time>
      </trkpt>
      <trkpt lat="46.39493" lon="8.04419">
        <ele>2311</ele>
        <time>2021-07-10T11:29:48.535Z</time>
      </trkpt>
      <trkpt lat="46.39492" lon="8.04419">
        <ele>2311</ele>
        <time>2021-07-10T11:29:49.534Z</time>
      </trkpt>
      <trkpt lat="46.39491" lon="8.04419">
        <ele>2311</ele>
        <time>2021-07-10T11:29:50.535Z</time>
      </trkpt>
      <trkpt lat="46.3949" lon="8.04419">
        <ele>2311</ele>
        <time>2021-07-10T11:29:51.534Z</time>
      </trkpt>
      <trkpt lat="46.3949" lon="8.04419">
        <ele>2312</ele>
        <time>2021-07-10T11:29:52.534Z</time>
      </trkpt>
      <trkpt lat="46.39489" lon="8.04419">
        <ele>2312</ele>
        <time>2021-07-10T11:29:53.534Z</time>
      </trkpt>
      <trkpt lat="46.39488" lon="8.04419">
        <ele>2312</ele>
        <time>2021-07-10T11:29:54.535Z</time>
      </trkpt>
      <trkpt lat="46.39488" lon="8.04419">
        <ele>2312</ele>
        <time>2021-07-10T11:29:55.534Z</time>
      </trkpt>
      <trkpt lat="46.39487" lon="8.04419">
        <ele>2312</ele>
        <time>2021-07-10T11:29:56.534Z</time>
      </trkpt>
      <trkpt lat="46.39487" lon="8.04418">
        <ele>2312</ele>
        <time>2021-07-10T11:29:57.535Z</time>
      </trkpt>
      <trkpt lat="46.39487" lon="8.04417">
        <ele>2312</ele>
        <time>2021-07-10T11:29:58.535Z</time>
      </trkpt>
      <trkpt lat="46.39486" lon="8.04417">
        <ele>2312</ele>
        <time>2021-07-10T11:29:59.534Z</time>
      </trkpt>
      <trkpt lat="46.39486" lon="8.04416">
        <ele>2312</ele>
        <time>2021-07-10T11:30:00.534Z</time>
      </trkpt>
      <trkpt lat="46.39486" lon="8.04416">
        <ele>2312</ele>
        <time>2021-07-10T11:30:01.535Z</time>
      </trkpt>
      <trkpt lat="46.39485" lon="8.04415">
        <ele>2312</ele>
        <time>2021-07-10T11:30:02.535Z</time>
      </trkpt>
      <trkpt lat="46.39485" lon="8.04414">
        <ele>2313</ele>
        <time>2021-07-10T11:30:03.534Z</time>
      </trkpt>
      <trkpt lat="46.39485" lon="8.04413">
        <ele>2313</ele>
        <time>2021-07-10T11:30:04.535Z</time>
      </trkpt>
      <trkpt lat="46.39485" lon="8.04413">
        <ele>2312</ele>
        <time>2021-07-10T11:30:05.534Z</time>
      </trkpt>
      <trkpt lat="46.39485" lon="8.04413">
        <ele>2312</ele>
        <time>2021-07-10T11:30:06.535Z</time>
      </trkpt>
      <trkpt lat="46.39484" lon="8.04413">
        <ele>2312</ele>
        <time>2021-07-10T11:30:07.534Z</time>
      </trkpt>
      <trkpt lat="46.39485" lon="8.04413">
        <ele>2309</ele>
        <time>2021-07-10T11:30:08.534Z</time>
      </trkpt>
      <trkpt lat="46.39485" lon="8.04413">
        <ele>2309</ele>
        <time>2021-07-10T11:30:09.534Z</time>
      </trkpt>
      <trkpt lat="46.39486" lon="8.04413">
        <ele>2307</ele>
        <time>2021-07-10T11:30:10.534Z</time>
      </trkpt>
      <trkpt lat="46.39486" lon="8.04413">
        <ele>2307</ele>
        <time>2021-07-10T11:30:11.535Z</time>
      </trkpt>
      <trkpt lat="46.39486" lon="8.04413">
        <ele>2306</ele>
        <time>2021-07-10T11:30:12.535Z</time>
      </trkpt>
      <trkpt lat="46.39486" lon="8.04413">
        <ele>2306</ele>
        <time>2021-07-10T11:30:13.534Z</time>
      </trkpt>
      <trkpt lat="46.39486" lon="8.04413">
        <ele>2306</ele>
        <time>2021-07-10T11:30:14.534Z</time>
      </trkpt>
      <trkpt lat="46.39486" lon="8.04412">
        <ele>2306</ele>
        <time>2021-07-10T11:30:15.534Z</time>
      </trkpt>
      <trkpt lat="46.39485" lon="8.04411">
        <ele>2306</ele>
        <time>2021-07-10T11:30:16.534Z</time>
      </trkpt>
      <trkpt lat="46.39485" lon="8.0441">
        <ele>2306</ele>
        <time>2021-07-10T11:30:17.535Z</time>
      </trkpt>
      <trkpt lat="46.39485" lon="8.04409">
        <ele>2305</ele>
        <time>2021-07-10T11:30:18.534Z</time>
      </trkpt>
      <trkpt lat="46.39484" lon="8.04408">
        <ele>2305</ele>
        <time>2021-07-10T11:30:19.535Z</time>
      </trkpt>
      <trkpt lat="46.39484" lon="8.04407">
        <ele>2305</ele>
        <time>2021-07-10T11:30:20.534Z</time>
      </trkpt>
      <trkpt lat="46.39483" lon="8.04406">
        <ele>2305</ele>
        <time>2021-07-10T11:30:21.535Z</time>
      </trkpt>
      <trkpt lat="46.39483" lon="8.04405">
        <ele>2306</ele>
        <time>2021-07-10T11:30:22.535Z</time>
      </trkpt>
      <trkpt lat="46.39483" lon="8.04404">
        <ele>2306</ele>
        <time>2021-07-10T11:30:23.535Z</time>
      </trkpt>
      <trkpt lat="46.39483" lon="8.04403">
        <ele>2306</ele>
        <time>2021-07-10T11:30:24.535Z</time>
      </trkpt>
      <trkpt lat="46.39483" lon="8.04401">
        <ele>2307</ele>
        <time>2021-07-10T11:30:25.535Z</time>
      </trkpt>
      <trkpt lat="46.39483" lon="8.044">
        <ele>2307</ele>
        <time>2021-07-10T11:30:26.535Z</time>
      </trkpt>
      <trkpt lat="46.39482" lon="8.044">
        <ele>2307</ele>
        <time>2021-07-10T11:30:27.534Z</time>
      </trkpt>
      <trkpt lat="46.39481" lon="8.044">
        <ele>2307</ele>
        <time>2021-07-10T11:30:28.535Z</time>
      </trkpt>
      <trkpt lat="46.39481" lon="8.044">
        <ele>2307</ele>
        <time>2021-07-10T11:30:29.534Z</time>
      </trkpt>
      <trkpt lat="46.3948" lon="8.044">
        <ele>2307</ele>
        <time>2021-07-10T11:30:30.535Z</time>
      </trkpt>
      <trkpt lat="46.39479" lon="8.04399">
        <ele>2307</ele>
        <time>2021-07-10T11:30:31.536Z</time>
      </trkpt>
      <trkpt lat="46.39478" lon="8.04399">
        <ele>2307</ele>
        <time>2021-07-10T11:30:32.535Z</time>
      </trkpt>
      <trkpt lat="46.39477" lon="8.04398">
        <ele>2307</ele>
        <time>2021-07-10T11:30:33.535Z</time>
      </trkpt>
      <trkpt lat="46.39477" lon="8.04398">
        <ele>2307</ele>
        <time>2021-07-10T11:30:34.536Z</time>
      </trkpt>
      <trkpt lat="46.39476" lon="8.04397">
        <ele>2307</ele>
        <time>2021-07-10T11:30:35.535Z</time>
      </trkpt>
      <trkpt lat="46.39476" lon="8.04396">
        <ele>2307</ele>
        <time>2021-07-10T11:30:36.535Z</time>
      </trkpt>
      <trkpt lat="46.39476" lon="8.04395">
        <ele>2307</ele>
        <time>2021-07-10T11:30:37.535Z</time>
      </trkpt>
      <trkpt lat="46.39476" lon="8.04394">
        <ele>2307</ele>
        <time>2021-07-10T11:30:38.535Z</time>
      </trkpt>
      <trkpt lat="46.39476" lon="8.04394">
        <ele>2308</ele>
        <time>2021-07-10T11:30:39.536Z</time>
      </trkpt>
      <trkpt lat="46.39476" lon="8.04393">
        <ele>2308</ele>
        <time>2021-07-10T11:30:40.535Z</time>
      </trkpt>
      <trkpt lat="46.39476" lon="8.04392">
        <ele>2307</ele>
        <time>2021-07-10T11:30:41.535Z</time>
      </trkpt>
      <trkpt lat="46.39476" lon="8.04391">
        <ele>2307</ele>
        <time>2021-07-10T11:30:42.535Z</time>
      </trkpt>
      <trkpt lat="46.39476" lon="8.04391">
        <ele>2307</ele>
        <time>2021-07-10T11:30:43.535Z</time>
      </trkpt>
      <trkpt lat="46.39476" lon="8.0439">
        <ele>2307</ele>
        <time>2021-07-10T11:30:44.535Z</time>
      </trkpt>
      <trkpt lat="46.39477" lon="8.04389">
        <ele>2307</ele>
        <time>2021-07-10T11:30:45.536Z</time>
      </trkpt>
      <trkpt lat="46.39477" lon="8.04387">
        <ele>2307</ele>
        <time>2021-07-10T11:30:46.535Z</time>
      </trkpt>
      <trkpt lat="46.39477" lon="8.04387">
        <ele>2307</ele>
        <time>2021-07-10T11:30:47.535Z</time>
      </trkpt>
      <trkpt lat="46.39477" lon="8.04386">
        <ele>2307</ele>
        <time>2021-07-10T11:30:48.536Z</time>
      </trkpt>
      <trkpt lat="46.39477" lon="8.04385">
        <ele>2307</ele>
        <time>2021-07-10T11:30:49.535Z</time>
      </trkpt>
      <trkpt lat="46.39476" lon="8.04385">
        <ele>2306</ele>
        <time>2021-07-10T11:30:50.535Z</time>
      </trkpt>
      <trkpt lat="46.39476" lon="8.04385">
        <ele>2306</ele>
        <time>2021-07-10T11:30:51.536Z</time>
      </trkpt>
      <trkpt lat="46.39475" lon="8.04385">
        <ele>2306</ele>
        <time>2021-07-10T11:30:52.536Z</time>
      </trkpt>
      <trkpt lat="46.39475" lon="8.04385">
        <ele>2305</ele>
        <time>2021-07-10T11:30:53.536Z</time>
      </trkpt>
      <trkpt lat="46.39474" lon="8.04385">
        <ele>2305</ele>
        <time>2021-07-10T11:30:54.535Z</time>
      </trkpt>
      <trkpt lat="46.39473" lon="8.04385">
        <ele>2305</ele>
        <time>2021-07-10T11:30:55.535Z</time>
      </trkpt>
      <trkpt lat="46.39472" lon="8.04386">
        <ele>2305</ele>
        <time>2021-07-10T11:30:56.536Z</time>
      </trkpt>
      <trkpt lat="46.39472" lon="8.04386">
        <ele>2305</ele>
        <time>2021-07-10T11:30:57.535Z</time>
      </trkpt>
      <trkpt lat="46.39471" lon="8.04386">
        <ele>2305</ele>
        <time>2021-07-10T11:30:58.535Z</time>
      </trkpt>
      <trkpt lat="46.39471" lon="8.04387">
        <ele>2305</ele>
        <time>2021-07-10T11:30:59.536Z</time>
      </trkpt>
      <trkpt lat="46.3947" lon="8.04387">
        <ele>2304</ele>
        <time>2021-07-10T11:31:00.536Z</time>
      </trkpt>
      <trkpt lat="46.39469" lon="8.04387">
        <ele>2304</ele>
        <time>2021-07-10T11:31:01.536Z</time>
      </trkpt>
      <trkpt lat="46.39469" lon="8.04387">
        <ele>2304</ele>
        <time>2021-07-10T11:31:02.536Z</time>
      </trkpt>
      <trkpt lat="46.39468" lon="8.04387">
        <ele>2304</ele>
        <time>2021-07-10T11:31:03.535Z</time>
      </trkpt>
      <trkpt lat="46.39468" lon="8.04387">
        <ele>2304</ele>
        <time>2021-07-10T11:31:04.536Z</time>
      </trkpt>
      <trkpt lat="46.39468" lon="8.04386">
        <ele>2303</ele>
        <time>2021-07-10T11:31:05.536Z</time>
      </trkpt>
      <trkpt lat="46.39468" lon="8.04385">
        <ele>2303</ele>
        <time>2021-07-10T11:31:06.536Z</time>
      </trkpt>
      <trkpt lat="46.39468" lon="8.04384">
        <ele>2303</ele>
        <time>2021-07-10T11:31:07.535Z</time>
      </trkpt>
      <trkpt lat="46.39468" lon="8.04383">
        <ele>2303</ele>
        <time>2021-07-10T11:31:08.536Z</time>
      </trkpt>
      <trkpt lat="46.39467" lon="8.04382">
        <ele>2303</ele>
        <time>2021-07-10T11:31:09.536Z</time>
      </trkpt>
      <trkpt lat="46.39467" lon="8.04382">
        <ele>2303</ele>
        <time>2021-07-10T11:31:10.536Z</time>
      </trkpt>
      <trkpt lat="46.39466" lon="8.04382">
        <ele>2303</ele>
        <time>2021-07-10T11:31:11.536Z</time>
      </trkpt>
      <trkpt lat="46.39466" lon="8.04381">
        <ele>2302</ele>
        <time>2021-07-10T11:31:12.536Z</time>
      </trkpt>
      <trkpt lat="46.39466" lon="8.04381">
        <ele>2302</ele>
        <time>2021-07-10T11:31:13.536Z</time>
      </trkpt>
      <trkpt lat="46.39465" lon="8.04381">
        <ele>2302</ele>
        <time>2021-07-10T11:31:14.535Z</time>
      </trkpt>
      <trkpt lat="46.39465" lon="8.0438">
        <ele>2301</ele>
        <time>2021-07-10T11:31:15.536Z</time>
      </trkpt>
      <trkpt lat="46.39464" lon="8.0438">
        <ele>2301</ele>
        <time>2021-07-10T11:31:16.536Z</time>
      </trkpt>
      <trkpt lat="46.39463" lon="8.0438">
        <ele>2301</ele>
        <time>2021-07-10T11:31:17.535Z</time>
      </trkpt>
      <trkpt lat="46.39463" lon="8.0438">
        <ele>2301</ele>
        <time>2021-07-10T11:31:18.536Z</time>
      </trkpt>
      <trkpt lat="46.39462" lon="8.04379">
        <ele>2300</ele>
        <time>2021-07-10T11:31:19.535Z</time>
      </trkpt>
      <trkpt lat="46.3946" lon="8.04378">
        <ele>2300</ele>
        <time>2021-07-10T11:31:20.535Z</time>
      </trkpt>
      <trkpt lat="46.39458" lon="8.04377">
        <ele>2300</ele>
        <time>2021-07-10T11:31:21.536Z</time>
      </trkpt>
      <trkpt lat="46.39457" lon="8.04377">
        <ele>2300</ele>
        <time>2021-07-10T11:31:22.536Z</time>
      </trkpt>
      <trkpt lat="46.39456" lon="8.04377">
        <ele>2300</ele>
        <time>2021-07-10T11:31:23.535Z</time>
      </trkpt>
      <trkpt lat="46.39456" lon="8.04377">
        <ele>2300</ele>
        <time>2021-07-10T11:31:24.535Z</time>
      </trkpt>
      <trkpt lat="46.39456" lon="8.04376">
        <ele>2300</ele>
        <time>2021-07-10T11:31:25.536Z</time>
      </trkpt>
      <trkpt lat="46.39455" lon="8.04375">
        <ele>2300</ele>
        <time>2021-07-10T11:31:26.536Z</time>
      </trkpt>
      <trkpt lat="46.39455" lon="8.04375">
        <ele>2300</ele>
        <time>2021-07-10T11:31:27.536Z</time>
      </trkpt>
      <trkpt lat="46.39455" lon="8.04374">
        <ele>2300</ele>
        <time>2021-07-10T11:31:28.535Z</time>
      </trkpt>
      <trkpt lat="46.39455" lon="8.04374">
        <ele>2300</ele>
        <time>2021-07-10T11:31:29.536Z</time>
      </trkpt>
      <trkpt lat="46.39454" lon="8.04374">
        <ele>2299</ele>
        <time>2021-07-10T11:31:30.535Z</time>
      </trkpt>
      <trkpt lat="46.39453" lon="8.04374">
        <ele>2298</ele>
        <time>2021-07-10T11:31:31.536Z</time>
      </trkpt>
      <trkpt lat="46.39452" lon="8.04373">
        <ele>2298</ele>
        <time>2021-07-10T11:31:32.536Z</time>
      </trkpt>
      <trkpt lat="46.39452" lon="8.04372">
        <ele>2298</ele>
        <time>2021-07-10T11:31:33.536Z</time>
      </trkpt>
      <trkpt lat="46.39451" lon="8.04371">
        <ele>2298</ele>
        <time>2021-07-10T11:31:34.535Z</time>
      </trkpt>
      <trkpt lat="46.39451" lon="8.0437">
        <ele>2298</ele>
        <time>2021-07-10T11:31:35.536Z</time>
      </trkpt>
      <trkpt lat="46.3945" lon="8.04369">
        <ele>2298</ele>
        <time>2021-07-10T11:31:36.535Z</time>
      </trkpt>
      <trkpt lat="46.3945" lon="8.04368">
        <ele>2298</ele>
        <time>2021-07-10T11:31:37.535Z</time>
      </trkpt>
      <trkpt lat="46.39449" lon="8.04367">
        <ele>2298</ele>
        <time>2021-07-10T11:31:38.536Z</time>
      </trkpt>
      <trkpt lat="46.39449" lon="8.04367">
        <ele>2298</ele>
        <time>2021-07-10T11:31:39.536Z</time>
      </trkpt>
      <trkpt lat="46.39448" lon="8.04366">
        <ele>2298</ele>
        <time>2021-07-10T11:31:40.536Z</time>
      </trkpt>
      <trkpt lat="46.39448" lon="8.04365">
        <ele>2298</ele>
        <time>2021-07-10T11:31:41.536Z</time>
      </trkpt>
      <trkpt lat="46.39448" lon="8.04364">
        <ele>2298</ele>
        <time>2021-07-10T11:31:42.536Z</time>
      </trkpt>
      <trkpt lat="46.39448" lon="8.04364">
        <ele>2298</ele>
        <time>2021-07-10T11:31:43.535Z</time>
      </trkpt>
      <trkpt lat="46.39447" lon="8.04363">
        <ele>2298</ele>
        <time>2021-07-10T11:31:44.535Z</time>
      </trkpt>
      <trkpt lat="46.39447" lon="8.04361">
        <ele>2298</ele>
        <time>2021-07-10T11:31:45.535Z</time>
      </trkpt>
      <trkpt lat="46.39447" lon="8.0436">
        <ele>2298</ele>
        <time>2021-07-10T11:31:46.535Z</time>
      </trkpt>
      <trkpt lat="46.39447" lon="8.04359">
        <ele>2298</ele>
        <time>2021-07-10T11:31:47.536Z</time>
      </trkpt>
      <trkpt lat="46.39447" lon="8.04359">
        <ele>2298</ele>
        <time>2021-07-10T11:31:48.535Z</time>
      </trkpt>
      <trkpt lat="46.39447" lon="8.04358">
        <ele>2298</ele>
        <time>2021-07-10T11:31:49.536Z</time>
      </trkpt>
      <trkpt lat="46.39446" lon="8.04357">
        <ele>2297</ele>
        <time>2021-07-10T11:31:50.536Z</time>
      </trkpt>
      <trkpt lat="46.39445" lon="8.04356">
        <ele>2297</ele>
        <time>2021-07-10T11:31:51.536Z</time>
      </trkpt>
      <trkpt lat="46.39444" lon="8.04355">
        <ele>2297</ele>
        <time>2021-07-10T11:31:52.536Z</time>
      </trkpt>
      <trkpt lat="46.39443" lon="8.04354">
        <ele>2297</ele>
        <time>2021-07-10T11:31:53.536Z</time>
      </trkpt>
      <trkpt lat="46.39442" lon="8.04353">
        <ele>2297</ele>
        <time>2021-07-10T11:31:54.535Z</time>
      </trkpt>
      <trkpt lat="46.39441" lon="8.04352">
        <ele>2297</ele>
        <time>2021-07-10T11:31:55.536Z</time>
      </trkpt>
      <trkpt lat="46.39441" lon="8.04351">
        <ele>2297</ele>
        <time>2021-07-10T11:31:56.536Z</time>
      </trkpt>
      <trkpt lat="46.3944" lon="8.0435">
        <ele>2297</ele>
        <time>2021-07-10T11:31:57.536Z</time>
      </trkpt>
      <trkpt lat="46.39439" lon="8.0435">
        <ele>2297</ele>
        <time>2021-07-10T11:31:58.536Z</time>
      </trkpt>
      <trkpt lat="46.39439" lon="8.04349">
        <ele>2297</ele>
        <time>2021-07-10T11:31:59.535Z</time>
      </trkpt>
      <trkpt lat="46.39438" lon="8.04348">
        <ele>2297</ele>
        <time>2021-07-10T11:32:00.535Z</time>
      </trkpt>
      <trkpt lat="46.39438" lon="8.04348">
        <ele>2297</ele>
        <time>2021-07-10T11:32:01.536Z</time>
      </trkpt>
      <trkpt lat="46.39438" lon="8.04347">
        <ele>2298</ele>
        <time>2021-07-10T11:32:02.535Z</time>
      </trkpt>
      <trkpt lat="46.39438" lon="8.04346">
        <ele>2297</ele>
        <time>2021-07-10T11:32:03.536Z</time>
      </trkpt>
      <trkpt lat="46.39438" lon="8.04345">
        <ele>2297</ele>
        <time>2021-07-10T11:32:04.535Z</time>
      </trkpt>
      <trkpt lat="46.39438" lon="8.04344">
        <ele>2297</ele>
        <time>2021-07-10T11:32:05.535Z</time>
      </trkpt>
      <trkpt lat="46.39437" lon="8.04343">
        <ele>2297</ele>
        <time>2021-07-10T11:32:06.536Z</time>
      </trkpt>
      <trkpt lat="46.39436" lon="8.04343">
        <ele>2297</ele>
        <time>2021-07-10T11:32:07.536Z</time>
      </trkpt>
      <trkpt lat="46.39436" lon="8.04342">
        <ele>2296</ele>
        <time>2021-07-10T11:32:08.535Z</time>
      </trkpt>
      <trkpt lat="46.39435" lon="8.04341">
        <ele>2296</ele>
        <time>2021-07-10T11:32:09.535Z</time>
      </trkpt>
      <trkpt lat="46.39426" lon="8.04341">
        <ele>2296</ele>
        <time>2021-07-10T11:32:10.535Z</time>
      </trkpt>
      <trkpt lat="46.39425" lon="8.04341">
        <ele>2296</ele>
        <time>2021-07-10T11:32:11.536Z</time>
      </trkpt>
      <trkpt lat="46.39425" lon="8.0434">
        <ele>2296</ele>
        <time>2021-07-10T11:32:12.535Z</time>
      </trkpt>
      <trkpt lat="46.39425" lon="8.04339">
        <ele>2295</ele>
        <time>2021-07-10T11:32:13.535Z</time>
      </trkpt>
      <trkpt lat="46.39425" lon="8.04339">
        <ele>2295</ele>
        <time>2021-07-10T11:32:14.535Z</time>
      </trkpt>
      <trkpt lat="46.39424" lon="8.04338">
        <ele>2295</ele>
        <time>2021-07-10T11:32:15.536Z</time>
      </trkpt>
      <trkpt lat="46.39424" lon="8.04337">
        <ele>2295</ele>
        <time>2021-07-10T11:32:16.535Z</time>
      </trkpt>
      <trkpt lat="46.39423" lon="8.04337">
        <ele>2295</ele>
        <time>2021-07-10T11:32:17.535Z</time>
      </trkpt>
      <trkpt lat="46.39423" lon="8.04337">
        <ele>2294</ele>
        <time>2021-07-10T11:32:18.535Z</time>
      </trkpt>
      <trkpt lat="46.39423" lon="8.04337">
        <ele>2294</ele>
        <time>2021-07-10T11:32:19.536Z</time>
      </trkpt>
      <trkpt lat="46.39422" lon="8.04337">
        <ele>2294</ele>
        <time>2021-07-10T11:32:20.536Z</time>
      </trkpt>
      <trkpt lat="46.39422" lon="8.04337">
        <ele>2294</ele>
        <time>2021-07-10T11:32:21.535Z</time>
      </trkpt>
      <trkpt lat="46.39421" lon="8.04336">
        <ele>2293</ele>
        <time>2021-07-10T11:32:22.535Z</time>
      </trkpt>
      <trkpt lat="46.39421" lon="8.04336">
        <ele>2293</ele>
        <time>2021-07-10T11:32:23.535Z</time>
      </trkpt>
      <trkpt lat="46.39421" lon="8.04336">
        <ele>2293</ele>
        <time>2021-07-10T11:32:24.535Z</time>
      </trkpt>
      <trkpt lat="46.39421" lon="8.04336">
        <ele>2293</ele>
        <time>2021-07-10T11:32:25.536Z</time>
      </trkpt>
      <trkpt lat="46.3942" lon="8.04335">
        <ele>2293</ele>
        <time>2021-07-10T11:32:26.537Z</time>
      </trkpt>
      <trkpt lat="46.3942" lon="8.04334">
        <ele>2293</ele>
        <time>2021-07-10T11:32:27.537Z</time>
      </trkpt>
      <trkpt lat="46.3942" lon="8.04334">
        <ele>2293</ele>
        <time>2021-07-10T11:32:28.537Z</time>
      </trkpt>
      <trkpt lat="46.39419" lon="8.04333">
        <ele>2292</ele>
        <time>2021-07-10T11:32:29.537Z</time>
      </trkpt>
      <trkpt lat="46.39419" lon="8.04332">
        <ele>2292</ele>
        <time>2021-07-10T11:32:30.536Z</time>
      </trkpt>
      <trkpt lat="46.39418" lon="8.04332">
        <ele>2292</ele>
        <time>2021-07-10T11:32:31.536Z</time>
      </trkpt>
      <trkpt lat="46.39417" lon="8.04331">
        <ele>2292</ele>
        <time>2021-07-10T11:32:32.536Z</time>
      </trkpt>
      <trkpt lat="46.39417" lon="8.0433">
        <ele>2291</ele>
        <time>2021-07-10T11:32:33.536Z</time>
      </trkpt>
      <trkpt lat="46.39417" lon="8.04329">
        <ele>2291</ele>
        <time>2021-07-10T11:32:34.536Z</time>
      </trkpt>
      <trkpt lat="46.39416" lon="8.04328">
        <ele>2291</ele>
        <time>2021-07-10T11:32:35.537Z</time>
      </trkpt>
      <trkpt lat="46.39415" lon="8.04327">
        <ele>2291</ele>
        <time>2021-07-10T11:32:36.537Z</time>
      </trkpt>
      <trkpt lat="46.39415" lon="8.04326">
        <ele>2291</ele>
        <time>2021-07-10T11:32:37.536Z</time>
      </trkpt>
      <trkpt lat="46.39414" lon="8.04325">
        <ele>2291</ele>
        <time>2021-07-10T11:32:38.536Z</time>
      </trkpt>
      <trkpt lat="46.39414" lon="8.04325">
        <ele>2291</ele>
        <time>2021-07-10T11:32:39.536Z</time>
      </trkpt>
      <trkpt lat="46.39413" lon="8.04325">
        <ele>2291</ele>
        <time>2021-07-10T11:32:40.537Z</time>
      </trkpt>
      <trkpt lat="46.39412" lon="8.04324">
        <ele>2291</ele>
        <time>2021-07-10T11:32:41.536Z</time>
      </trkpt>
      <trkpt lat="46.39412" lon="8.04324">
        <ele>2291</ele>
        <time>2021-07-10T11:32:42.536Z</time>
      </trkpt>
      <trkpt lat="46.39411" lon="8.04324">
        <ele>2291</ele>
        <time>2021-07-10T11:32:43.537Z</time>
      </trkpt>
      <trkpt lat="46.39412" lon="8.04324">
        <ele>2291</ele>
        <time>2021-07-10T11:32:44.536Z</time>
      </trkpt>
      <trkpt lat="46.39412" lon="8.04324">
        <ele>2291</ele>
        <time>2021-07-10T11:32:45.536Z</time>
      </trkpt>
      <trkpt lat="46.39412" lon="8.04323">
        <ele>2290</ele>
        <time>2021-07-10T11:32:46.537Z</time>
      </trkpt>
      <trkpt lat="46.39412" lon="8.04322">
        <ele>2290</ele>
        <time>2021-07-10T11:32:47.537Z</time>
      </trkpt>
      <trkpt lat="46.39413" lon="8.04321">
        <ele>2289</ele>
        <time>2021-07-10T11:32:48.536Z</time>
      </trkpt>
      <trkpt lat="46.39413" lon="8.0432">
        <ele>2289</ele>
        <time>2021-07-10T11:32:49.536Z</time>
      </trkpt>
      <trkpt lat="46.39413" lon="8.0432">
        <ele>2289</ele>
        <time>2021-07-10T11:32:50.536Z</time>
      </trkpt>
      <trkpt lat="46.39412" lon="8.0432">
        <ele>2288</ele>
        <time>2021-07-10T11:32:51.537Z</time>
      </trkpt>
      <trkpt lat="46.39412" lon="8.0432">
        <ele>2288</ele>
        <time>2021-07-10T11:32:52.536Z</time>
      </trkpt>
      <trkpt lat="46.39411" lon="8.04319">
        <ele>2288</ele>
        <time>2021-07-10T11:32:53.537Z</time>
      </trkpt>
      <trkpt lat="46.39411" lon="8.04318">
        <ele>2287</ele>
        <time>2021-07-10T11:32:54.536Z</time>
      </trkpt>
      <trkpt lat="46.39411" lon="8.04318">
        <ele>2287</ele>
        <time>2021-07-10T11:32:55.537Z</time>
      </trkpt>
      <trkpt lat="46.39411" lon="8.04317">
        <ele>2287</ele>
        <time>2021-07-10T11:32:56.536Z</time>
      </trkpt>
      <trkpt lat="46.39411" lon="8.04317">
        <ele>2287</ele>
        <time>2021-07-10T11:32:57.536Z</time>
      </trkpt>
      <trkpt lat="46.39411" lon="8.04316">
        <ele>2287</ele>
        <time>2021-07-10T11:32:58.537Z</time>
      </trkpt>
      <trkpt lat="46.39411" lon="8.04315">
        <ele>2287</ele>
        <time>2021-07-10T11:32:59.536Z</time>
      </trkpt>
      <trkpt lat="46.39411" lon="8.04315">
        <ele>2287</ele>
        <time>2021-07-10T11:33:00.536Z</time>
      </trkpt>
      <trkpt lat="46.39411" lon="8.04314">
        <ele>2287</ele>
        <time>2021-07-10T11:33:01.536Z</time>
      </trkpt>
      <trkpt lat="46.39411" lon="8.04314">
        <ele>2287</ele>
        <time>2021-07-10T11:33:02.537Z</time>
      </trkpt>
      <trkpt lat="46.39411" lon="8.04313">
        <ele>2287</ele>
        <time>2021-07-10T11:33:03.536Z</time>
      </trkpt>
      <trkpt lat="46.39412" lon="8.04312">
        <ele>2287</ele>
        <time>2021-07-10T11:33:04.537Z</time>
      </trkpt>
      <trkpt lat="46.39412" lon="8.04311">
        <ele>2287</ele>
        <time>2021-07-10T11:33:05.536Z</time>
      </trkpt>
      <trkpt lat="46.39412" lon="8.0431">
        <ele>2287</ele>
        <time>2021-07-10T11:33:06.537Z</time>
      </trkpt>
      <trkpt lat="46.39411" lon="8.04309">
        <ele>2287</ele>
        <time>2021-07-10T11:33:07.536Z</time>
      </trkpt>
      <trkpt lat="46.39411" lon="8.04308">
        <ele>2287</ele>
        <time>2021-07-10T11:33:08.536Z</time>
      </trkpt>
      <trkpt lat="46.39411" lon="8.04307">
        <ele>2287</ele>
        <time>2021-07-10T11:33:09.537Z</time>
      </trkpt>
      <trkpt lat="46.39411" lon="8.04306">
        <ele>2286</ele>
        <time>2021-07-10T11:33:10.536Z</time>
      </trkpt>
      <trkpt lat="46.39412" lon="8.04305">
        <ele>2286</ele>
        <time>2021-07-10T11:33:11.537Z</time>
      </trkpt>
      <trkpt lat="46.39412" lon="8.04304">
        <ele>2286</ele>
        <time>2021-07-10T11:33:12.536Z</time>
      </trkpt>
      <trkpt lat="46.39412" lon="8.04303">
        <ele>2286</ele>
        <time>2021-07-10T11:33:13.536Z</time>
      </trkpt>
      <trkpt lat="46.39411" lon="8.04303">
        <ele>2286</ele>
        <time>2021-07-10T11:33:14.536Z</time>
      </trkpt>
      <trkpt lat="46.3941" lon="8.04302">
        <ele>2286</ele>
        <time>2021-07-10T11:33:15.536Z</time>
      </trkpt>
      <trkpt lat="46.3941" lon="8.04301">
        <ele>2286</ele>
        <time>2021-07-10T11:33:16.537Z</time>
      </trkpt>
      <trkpt lat="46.3941" lon="8.043">
        <ele>2286</ele>
        <time>2021-07-10T11:33:17.536Z</time>
      </trkpt>
      <trkpt lat="46.3941" lon="8.043">
        <ele>2286</ele>
        <time>2021-07-10T11:33:18.536Z</time>
      </trkpt>
      <trkpt lat="46.3941" lon="8.04299">
        <ele>2285</ele>
        <time>2021-07-10T11:33:19.537Z</time>
      </trkpt>
      <trkpt lat="46.3941" lon="8.04299">
        <ele>2285</ele>
        <time>2021-07-10T11:33:20.536Z</time>
      </trkpt>
      <trkpt lat="46.3941" lon="8.04298">
        <ele>2285</ele>
        <time>2021-07-10T11:33:21.537Z</time>
      </trkpt>
      <trkpt lat="46.3941" lon="8.04297">
        <ele>2284</ele>
        <time>2021-07-10T11:33:22.537Z</time>
      </trkpt>
      <trkpt lat="46.3941" lon="8.04296">
        <ele>2284</ele>
        <time>2021-07-10T11:33:23.537Z</time>
      </trkpt>
      <trkpt lat="46.3941" lon="8.04295">
        <ele>2284</ele>
        <time>2021-07-10T11:33:24.536Z</time>
      </trkpt>
      <trkpt lat="46.3941" lon="8.04295">
        <ele>2284</ele>
        <time>2021-07-10T11:33:25.536Z</time>
      </trkpt>
      <trkpt lat="46.3941" lon="8.04294">
        <ele>2283</ele>
        <time>2021-07-10T11:33:26.536Z</time>
      </trkpt>
      <trkpt lat="46.3941" lon="8.04293">
        <ele>2283</ele>
        <time>2021-07-10T11:33:27.537Z</time>
      </trkpt>
      <trkpt lat="46.3941" lon="8.04292">
        <ele>2283</ele>
        <time>2021-07-10T11:33:28.536Z</time>
      </trkpt>
      <trkpt lat="46.39409" lon="8.04292">
        <ele>2283</ele>
        <time>2021-07-10T11:33:29.537Z</time>
      </trkpt>
      <trkpt lat="46.39409" lon="8.04291">
        <ele>2283</ele>
        <time>2021-07-10T11:33:30.536Z</time>
      </trkpt>
      <trkpt lat="46.39409" lon="8.0429">
        <ele>2282</ele>
        <time>2021-07-10T11:33:31.536Z</time>
      </trkpt>
      <trkpt lat="46.39408" lon="8.04289">
        <ele>2282</ele>
        <time>2021-07-10T11:33:32.537Z</time>
      </trkpt>
      <trkpt lat="46.39408" lon="8.04288">
        <ele>2283</ele>
        <time>2021-07-10T11:33:33.536Z</time>
      </trkpt>
      <trkpt lat="46.39407" lon="8.04287">
        <ele>2283</ele>
        <time>2021-07-10T11:33:34.536Z</time>
      </trkpt>
      <trkpt lat="46.39407" lon="8.04286">
        <ele>2283</ele>
        <time>2021-07-10T11:33:35.537Z</time>
      </trkpt>
      <trkpt lat="46.39406" lon="8.04284">
        <ele>2283</ele>
        <time>2021-07-10T11:33:36.536Z</time>
      </trkpt>
      <trkpt lat="46.39406" lon="8.04283">
        <ele>2283</ele>
        <time>2021-07-10T11:33:37.536Z</time>
      </trkpt>
      <trkpt lat="46.39406" lon="8.04282">
        <ele>2283</ele>
        <time>2021-07-10T11:33:38.536Z</time>
      </trkpt>
      <trkpt lat="46.39405" lon="8.04281">
        <ele>2283</ele>
        <time>2021-07-10T11:33:39.536Z</time>
      </trkpt>
      <trkpt lat="46.39405" lon="8.0428">
        <ele>2282</ele>
        <time>2021-07-10T11:33:40.537Z</time>
      </trkpt>
      <trkpt lat="46.39405" lon="8.04279">
        <ele>2282</ele>
        <time>2021-07-10T11:33:41.536Z</time>
      </trkpt>
      <trkpt lat="46.39404" lon="8.04278">
        <ele>2282</ele>
        <time>2021-07-10T11:33:42.536Z</time>
      </trkpt>
      <trkpt lat="46.39403" lon="8.04277">
        <ele>2281</ele>
        <time>2021-07-10T11:33:43.537Z</time>
      </trkpt>
      <trkpt lat="46.39403" lon="8.04277">
        <ele>2281</ele>
        <time>2021-07-10T11:33:44.536Z</time>
      </trkpt>
      <trkpt lat="46.39402" lon="8.04276">
        <ele>2280</ele>
        <time>2021-07-10T11:33:45.537Z</time>
      </trkpt>
      <trkpt lat="46.39402" lon="8.04276">
        <ele>2280</ele>
        <time>2021-07-10T11:33:46.537Z</time>
      </trkpt>
      <trkpt lat="46.39403" lon="8.04276">
        <ele>2279</ele>
        <time>2021-07-10T11:33:47.536Z</time>
      </trkpt>
      <trkpt lat="46.39402" lon="8.04274">
        <ele>2278</ele>
        <time>2021-07-10T11:33:48.536Z</time>
      </trkpt>
      <trkpt lat="46.39402" lon="8.04274">
        <ele>2278</ele>
        <time>2021-07-10T11:33:49.536Z</time>
      </trkpt>
      <trkpt lat="46.39402" lon="8.04273">
        <ele>2278</ele>
        <time>2021-07-10T11:33:50.536Z</time>
      </trkpt>
      <trkpt lat="46.39401" lon="8.04272">
        <ele>2278</ele>
        <time>2021-07-10T11:33:51.536Z</time>
      </trkpt>
      <trkpt lat="46.39401" lon="8.04271">
        <ele>2277</ele>
        <time>2021-07-10T11:33:52.537Z</time>
      </trkpt>
      <trkpt lat="46.39401" lon="8.0427">
        <ele>2277</ele>
        <time>2021-07-10T11:33:53.536Z</time>
      </trkpt>
      <trkpt lat="46.394" lon="8.04269">
        <ele>2277</ele>
        <time>2021-07-10T11:33:54.536Z</time>
      </trkpt>
      <trkpt lat="46.394" lon="8.04267">
        <ele>2276</ele>
        <time>2021-07-10T11:33:55.536Z</time>
      </trkpt>
      <trkpt lat="46.394" lon="8.04266">
        <ele>2276</ele>
        <time>2021-07-10T11:33:56.536Z</time>
      </trkpt>
      <trkpt lat="46.39399" lon="8.04264">
        <ele>2276</ele>
        <time>2021-07-10T11:33:57.537Z</time>
      </trkpt>
      <trkpt lat="46.39399" lon="8.04263">
        <ele>2276</ele>
        <time>2021-07-10T11:33:58.536Z</time>
      </trkpt>
      <trkpt lat="46.39398" lon="8.04261">
        <ele>2276</ele>
        <time>2021-07-10T11:33:59.537Z</time>
      </trkpt>
      <trkpt lat="46.39398" lon="8.0426">
        <ele>2276</ele>
        <time>2021-07-10T11:34:00.537Z</time>
      </trkpt>
      <trkpt lat="46.39397" lon="8.04259">
        <ele>2276</ele>
        <time>2021-07-10T11:34:01.536Z</time>
      </trkpt>
      <trkpt lat="46.39397" lon="8.04258">
        <ele>2275</ele>
        <time>2021-07-10T11:34:02.536Z</time>
      </trkpt>
      <trkpt lat="46.39397" lon="8.04257">
        <ele>2275</ele>
        <time>2021-07-10T11:34:03.537Z</time>
      </trkpt>
      <trkpt lat="46.39397" lon="8.04255">
        <ele>2275</ele>
        <time>2021-07-10T11:34:04.536Z</time>
      </trkpt>
      <trkpt lat="46.39396" lon="8.04254">
        <ele>2275</ele>
        <time>2021-07-10T11:34:05.537Z</time>
      </trkpt>
      <trkpt lat="46.39396" lon="8.04253">
        <ele>2275</ele>
        <time>2021-07-10T11:34:06.537Z</time>
      </trkpt>
      <trkpt lat="46.39395" lon="8.04253">
        <ele>2275</ele>
        <time>2021-07-10T11:34:07.537Z</time>
      </trkpt>
      <trkpt lat="46.39394" lon="8.04252">
        <ele>2275</ele>
        <time>2021-07-10T11:34:08.536Z</time>
      </trkpt>
      <trkpt lat="46.39394" lon="8.04252">
        <ele>2275</ele>
        <time>2021-07-10T11:34:09.536Z</time>
      </trkpt>
      <trkpt lat="46.39393" lon="8.04251">
        <ele>2275</ele>
        <time>2021-07-10T11:34:10.536Z</time>
      </trkpt>
      <trkpt lat="46.39392" lon="8.0425">
        <ele>2275</ele>
        <time>2021-07-10T11:34:11.537Z</time>
      </trkpt>
      <trkpt lat="46.39391" lon="8.0425">
        <ele>2275</ele>
        <time>2021-07-10T11:34:12.536Z</time>
      </trkpt>
      <trkpt lat="46.39391" lon="8.0425">
        <ele>2275</ele>
        <time>2021-07-10T11:34:13.537Z</time>
      </trkpt>
      <trkpt lat="46.3939" lon="8.04249">
        <ele>2274</ele>
        <time>2021-07-10T11:34:14.536Z</time>
      </trkpt>
      <trkpt lat="46.3939" lon="8.04249">
        <ele>2274</ele>
        <time>2021-07-10T11:34:15.537Z</time>
      </trkpt>
      <trkpt lat="46.39389" lon="8.04248">
        <ele>2274</ele>
        <time>2021-07-10T11:34:16.536Z</time>
      </trkpt>
      <trkpt lat="46.39388" lon="8.04248">
        <ele>2273</ele>
        <time>2021-07-10T11:34:17.537Z</time>
      </trkpt>
      <trkpt lat="46.39388" lon="8.04247">
        <ele>2273</ele>
        <time>2021-07-10T11:34:18.536Z</time>
      </trkpt>
      <trkpt lat="46.39387" lon="8.04246">
        <ele>2273</ele>
        <time>2021-07-10T11:34:19.536Z</time>
      </trkpt>
      <trkpt lat="46.39387" lon="8.04245">
        <ele>2273</ele>
        <time>2021-07-10T11:34:20.537Z</time>
      </trkpt>
      <trkpt lat="46.39386" lon="8.04244">
        <ele>2272</ele>
        <time>2021-07-10T11:34:21.537Z</time>
      </trkpt>
      <trkpt lat="46.39386" lon="8.04243">
        <ele>2272</ele>
        <time>2021-07-10T11:34:22.537Z</time>
      </trkpt>
      <trkpt lat="46.39385" lon="8.04243">
        <ele>2272</ele>
        <time>2021-07-10T11:34:23.536Z</time>
      </trkpt>
      <trkpt lat="46.39385" lon="8.04242">
        <ele>2271</ele>
        <time>2021-07-10T11:34:24.537Z</time>
      </trkpt>
      <trkpt lat="46.39384" lon="8.04241">
        <ele>2271</ele>
        <time>2021-07-10T11:34:25.537Z</time>
      </trkpt>
      <trkpt lat="46.39384" lon="8.0424">
        <ele>2271</ele>
        <time>2021-07-10T11:34:26.536Z</time>
      </trkpt>
      <trkpt lat="46.39383" lon="8.04238">
        <ele>2271</ele>
        <time>2021-07-10T11:34:27.537Z</time>
      </trkpt>
      <trkpt lat="46.39382" lon="8.04237">
        <ele>2271</ele>
        <time>2021-07-10T11:34:28.536Z</time>
      </trkpt>
      <trkpt lat="46.39382" lon="8.04236">
        <ele>2271</ele>
        <time>2021-07-10T11:34:29.536Z</time>
      </trkpt>
      <trkpt lat="46.39381" lon="8.04235">
        <ele>2271</ele>
        <time>2021-07-10T11:34:30.536Z</time>
      </trkpt>
      <trkpt lat="46.3938" lon="8.04235">
        <ele>2271</ele>
        <time>2021-07-10T11:34:31.536Z</time>
      </trkpt>
      <trkpt lat="46.39379" lon="8.04234">
        <ele>2271</ele>
        <time>2021-07-10T11:34:32.536Z</time>
      </trkpt>
      <trkpt lat="46.39379" lon="8.04233">
        <ele>2271</ele>
        <time>2021-07-10T11:34:33.536Z</time>
      </trkpt>
      <trkpt lat="46.39378" lon="8.04232">
        <ele>2270</ele>
        <time>2021-07-10T11:34:34.536Z</time>
      </trkpt>
      <trkpt lat="46.39377" lon="8.04232">
        <ele>2270</ele>
        <time>2021-07-10T11:34:35.536Z</time>
      </trkpt>
      <trkpt lat="46.39377" lon="8.0423">
        <ele>2269</ele>
        <time>2021-07-10T11:34:36.537Z</time>
      </trkpt>
      <trkpt lat="46.39377" lon="8.0423">
        <ele>2269</ele>
        <time>2021-07-10T11:34:37.537Z</time>
      </trkpt>
      <trkpt lat="46.39376" lon="8.04229">
        <ele>2268</ele>
        <time>2021-07-10T11:34:38.536Z</time>
      </trkpt>
      <trkpt lat="46.39375" lon="8.04228">
        <ele>2268</ele>
        <time>2021-07-10T11:34:39.536Z</time>
      </trkpt>
      <trkpt lat="46.39374" lon="8.04227">
        <ele>2267</ele>
        <time>2021-07-10T11:34:40.537Z</time>
      </trkpt>
      <trkpt lat="46.39373" lon="8.04227">
        <ele>2268</ele>
        <time>2021-07-10T11:34:41.536Z</time>
      </trkpt>
      <trkpt lat="46.39372" lon="8.04226">
        <ele>2268</ele>
        <time>2021-07-10T11:34:42.536Z</time>
      </trkpt>
      <trkpt lat="46.39372" lon="8.04225">
        <ele>2268</ele>
        <time>2021-07-10T11:34:43.536Z</time>
      </trkpt>
      <trkpt lat="46.39372" lon="8.04224">
        <ele>2268</ele>
        <time>2021-07-10T11:34:44.536Z</time>
      </trkpt>
      <trkpt lat="46.39372" lon="8.04223">
        <ele>2269</ele>
        <time>2021-07-10T11:34:45.537Z</time>
      </trkpt>
      <trkpt lat="46.39373" lon="8.04223">
        <ele>2269</ele>
        <time>2021-07-10T11:34:46.536Z</time>
      </trkpt>
      <trkpt lat="46.39373" lon="8.04222">
        <ele>2269</ele>
        <time>2021-07-10T11:34:47.536Z</time>
      </trkpt>
      <trkpt lat="46.39374" lon="8.04221">
        <ele>2268</ele>
        <time>2021-07-10T11:34:48.536Z</time>
      </trkpt>
      <trkpt lat="46.39375" lon="8.04221">
        <ele>2268</ele>
        <time>2021-07-10T11:34:49.537Z</time>
      </trkpt>
      <trkpt lat="46.39375" lon="8.0422">
        <ele>2267</ele>
        <time>2021-07-10T11:34:50.537Z</time>
      </trkpt>
      <trkpt lat="46.39376" lon="8.04219">
        <ele>2267</ele>
        <time>2021-07-10T11:34:51.537Z</time>
      </trkpt>
      <trkpt lat="46.39376" lon="8.04218">
        <ele>2267</ele>
        <time>2021-07-10T11:34:52.536Z</time>
      </trkpt>
      <trkpt lat="46.39376" lon="8.04216">
        <ele>2267</ele>
        <time>2021-07-10T11:34:53.537Z</time>
      </trkpt>
      <trkpt lat="46.39376" lon="8.04215">
        <ele>2267</ele>
        <time>2021-07-10T11:34:54.536Z</time>
      </trkpt>
      <trkpt lat="46.39376" lon="8.04214">
        <ele>2266</ele>
        <time>2021-07-10T11:34:55.537Z</time>
      </trkpt>
      <trkpt lat="46.39376" lon="8.04213">
        <ele>2266</ele>
        <time>2021-07-10T11:34:56.536Z</time>
      </trkpt>
      <trkpt lat="46.39375" lon="8.04212">
        <ele>2266</ele>
        <time>2021-07-10T11:34:57.536Z</time>
      </trkpt>
      <trkpt lat="46.39375" lon="8.04211">
        <ele>2266</ele>
        <time>2021-07-10T11:34:58.537Z</time>
      </trkpt>
      <trkpt lat="46.39375" lon="8.0421">
        <ele>2266</ele>
        <time>2021-07-10T11:34:59.537Z</time>
      </trkpt>
      <trkpt lat="46.39375" lon="8.04209">
        <ele>2266</ele>
        <time>2021-07-10T11:35:00.536Z</time>
      </trkpt>
      <trkpt lat="46.39374" lon="8.04208">
        <ele>2265</ele>
        <time>2021-07-10T11:35:01.536Z</time>
      </trkpt>
      <trkpt lat="46.39374" lon="8.04207">
        <ele>2265</ele>
        <time>2021-07-10T11:35:02.537Z</time>
      </trkpt>
      <trkpt lat="46.39373" lon="8.04205">
        <ele>2266</ele>
        <time>2021-07-10T11:35:03.537Z</time>
      </trkpt>
      <trkpt lat="46.39372" lon="8.04204">
        <ele>2266</ele>
        <time>2021-07-10T11:35:04.537Z</time>
      </trkpt>
      <trkpt lat="46.39371" lon="8.04204">
        <ele>2267</ele>
        <time>2021-07-10T11:35:05.536Z</time>
      </trkpt>
      <trkpt lat="46.3937" lon="8.04204">
        <ele>2267</ele>
        <time>2021-07-10T11:35:06.536Z</time>
      </trkpt>
      <trkpt lat="46.39369" lon="8.04205">
        <ele>2267</ele>
        <time>2021-07-10T11:35:07.536Z</time>
      </trkpt>
      <trkpt lat="46.39369" lon="8.04204">
        <ele>2267</ele>
        <time>2021-07-10T11:35:08.536Z</time>
      </trkpt>
      <trkpt lat="46.39368" lon="8.04204">
        <ele>2267</ele>
        <time>2021-07-10T11:35:09.536Z</time>
      </trkpt>
      <trkpt lat="46.39367" lon="8.04204">
        <ele>2266</ele>
        <time>2021-07-10T11:35:10.536Z</time>
      </trkpt>
      <trkpt lat="46.39366" lon="8.04205">
        <ele>2266</ele>
        <time>2021-07-10T11:35:11.536Z</time>
      </trkpt>
      <trkpt lat="46.39365" lon="8.04205">
        <ele>2265</ele>
        <time>2021-07-10T11:35:12.536Z</time>
      </trkpt>
      <trkpt lat="46.39364" lon="8.04206">
        <ele>2264</ele>
        <time>2021-07-10T11:35:13.536Z</time>
      </trkpt>
      <trkpt lat="46.39364" lon="8.04206">
        <ele>2263</ele>
        <time>2021-07-10T11:35:14.536Z</time>
      </trkpt>
      <trkpt lat="46.39363" lon="8.04206">
        <ele>2263</ele>
        <time>2021-07-10T11:35:15.536Z</time>
      </trkpt>
      <trkpt lat="46.39362" lon="8.04205">
        <ele>2263</ele>
        <time>2021-07-10T11:35:16.537Z</time>
      </trkpt>
      <trkpt lat="46.39362" lon="8.04205">
        <ele>2263</ele>
        <time>2021-07-10T11:35:17.536Z</time>
      </trkpt>
      <trkpt lat="46.39361" lon="8.04204">
        <ele>2262</ele>
        <time>2021-07-10T11:35:18.536Z</time>
      </trkpt>
      <trkpt lat="46.3936" lon="8.04204">
        <ele>2262</ele>
        <time>2021-07-10T11:35:19.536Z</time>
      </trkpt>
      <trkpt lat="46.3936" lon="8.04203">
        <ele>2262</ele>
        <time>2021-07-10T11:35:20.537Z</time>
      </trkpt>
      <trkpt lat="46.39359" lon="8.04203">
        <ele>2261</ele>
        <time>2021-07-10T11:35:21.536Z</time>
      </trkpt>
      <trkpt lat="46.39358" lon="8.04203">
        <ele>2261</ele>
        <time>2021-07-10T11:35:22.536Z</time>
      </trkpt>
      <trkpt lat="46.39358" lon="8.04203">
        <ele>2261</ele>
        <time>2021-07-10T11:35:23.536Z</time>
      </trkpt>
      <trkpt lat="46.39357" lon="8.04202">
        <ele>2261</ele>
        <time>2021-07-10T11:35:24.536Z</time>
      </trkpt>
      <trkpt lat="46.39357" lon="8.04202">
        <ele>2261</ele>
        <time>2021-07-10T11:35:25.536Z</time>
      </trkpt>
      <trkpt lat="46.39356" lon="8.04201">
        <ele>2261</ele>
        <time>2021-07-10T11:35:26.536Z</time>
      </trkpt>
      <trkpt lat="46.39356" lon="8.04201">
        <ele>2261</ele>
        <time>2021-07-10T11:35:27.536Z</time>
      </trkpt>
      <trkpt lat="46.39356" lon="8.042">
        <ele>2261</ele>
        <time>2021-07-10T11:35:28.536Z</time>
      </trkpt>
      <trkpt lat="46.39356" lon="8.04199">
        <ele>2261</ele>
        <time>2021-07-10T11:35:29.537Z</time>
      </trkpt>
      <trkpt lat="46.39356" lon="8.04198">
        <ele>2261</ele>
        <time>2021-07-10T11:35:30.537Z</time>
      </trkpt>
      <trkpt lat="46.39356" lon="8.04197">
        <ele>2261</ele>
        <time>2021-07-10T11:35:31.536Z</time>
      </trkpt>
      <trkpt lat="46.39356" lon="8.04196">
        <ele>2261</ele>
        <time>2021-07-10T11:35:32.537Z</time>
      </trkpt>
      <trkpt lat="46.39356" lon="8.04195">
        <ele>2261</ele>
        <time>2021-07-10T11:35:33.536Z</time>
      </trkpt>
      <trkpt lat="46.39357" lon="8.04194">
        <ele>2261</ele>
        <time>2021-07-10T11:35:34.536Z</time>
      </trkpt>
      <trkpt lat="46.39357" lon="8.04193">
        <ele>2261</ele>
        <time>2021-07-10T11:35:35.536Z</time>
      </trkpt>
      <trkpt lat="46.39356" lon="8.04192">
        <ele>2261</ele>
        <time>2021-07-10T11:35:36.536Z</time>
      </trkpt>
      <trkpt lat="46.39356" lon="8.04191">
        <ele>2261</ele>
        <time>2021-07-10T11:35:37.536Z</time>
      </trkpt>
      <trkpt lat="46.39356" lon="8.0419">
        <ele>2261</ele>
        <time>2021-07-10T11:35:38.536Z</time>
      </trkpt>
      <trkpt lat="46.39355" lon="8.04189">
        <ele>2260</ele>
        <time>2021-07-10T11:35:39.536Z</time>
      </trkpt>
      <trkpt lat="46.39354" lon="8.04188">
        <ele>2260</ele>
        <time>2021-07-10T11:35:40.537Z</time>
      </trkpt>
      <trkpt lat="46.39354" lon="8.04187">
        <ele>2260</ele>
        <time>2021-07-10T11:35:41.536Z</time>
      </trkpt>
      <trkpt lat="46.39353" lon="8.04186">
        <ele>2260</ele>
        <time>2021-07-10T11:35:42.537Z</time>
      </trkpt>
      <trkpt lat="46.39352" lon="8.04185">
        <ele>2260</ele>
        <time>2021-07-10T11:35:43.536Z</time>
      </trkpt>
      <trkpt lat="46.39351" lon="8.04184">
        <ele>2260</ele>
        <time>2021-07-10T11:35:44.536Z</time>
      </trkpt>
      <trkpt lat="46.3935" lon="8.04183">
        <ele>2261</ele>
        <time>2021-07-10T11:35:45.536Z</time>
      </trkpt>
      <trkpt lat="46.3935" lon="8.04182">
        <ele>2261</ele>
        <time>2021-07-10T11:35:46.537Z</time>
      </trkpt>
      <trkpt lat="46.39349" lon="8.04181">
        <ele>2261</ele>
        <time>2021-07-10T11:35:47.536Z</time>
      </trkpt>
      <trkpt lat="46.39349" lon="8.0418">
        <ele>2260</ele>
        <time>2021-07-10T11:35:48.536Z</time>
      </trkpt>
      <trkpt lat="46.39348" lon="8.04179">
        <ele>2260</ele>
        <time>2021-07-10T11:35:49.536Z</time>
      </trkpt>
      <trkpt lat="46.39348" lon="8.04177">
        <ele>2260</ele>
        <time>2021-07-10T11:35:50.536Z</time>
      </trkpt>
      <trkpt lat="46.39347" lon="8.04176">
        <ele>2259</ele>
        <time>2021-07-10T11:35:51.536Z</time>
      </trkpt>
      <trkpt lat="46.39347" lon="8.04174">
        <ele>2259</ele>
        <time>2021-07-10T11:35:52.536Z</time>
      </trkpt>
      <trkpt lat="46.39347" lon="8.04173">
        <ele>2259</ele>
        <time>2021-07-10T11:35:53.536Z</time>
      </trkpt>
      <trkpt lat="46.39346" lon="8.04171">
        <ele>2259</ele>
        <time>2021-07-10T11:35:54.536Z</time>
      </trkpt>
      <trkpt lat="46.39346" lon="8.0417">
        <ele>2259</ele>
        <time>2021-07-10T11:35:55.536Z</time>
      </trkpt>
      <trkpt lat="46.39346" lon="8.04168">
        <ele>2258</ele>
        <time>2021-07-10T11:35:56.537Z</time>
      </trkpt>
      <trkpt lat="46.39345" lon="8.04166">
        <ele>2258</ele>
        <time>2021-07-10T11:35:57.536Z</time>
      </trkpt>
      <trkpt lat="46.39345" lon="8.04165">
        <ele>2258</ele>
        <time>2021-07-10T11:35:58.536Z</time>
      </trkpt>
      <trkpt lat="46.39344" lon="8.04164">
        <ele>2259</ele>
        <time>2021-07-10T11:35:59.536Z</time>
      </trkpt>
      <trkpt lat="46.39343" lon="8.04163">
        <ele>2259</ele>
        <time>2021-07-10T11:36:00.537Z</time>
      </trkpt>
      <trkpt lat="46.39342" lon="8.04162">
        <ele>2259</ele>
        <time>2021-07-10T11:36:01.536Z</time>
      </trkpt>
      <trkpt lat="46.39342" lon="8.04161">
        <ele>2259</ele>
        <time>2021-07-10T11:36:02.536Z</time>
      </trkpt>
      <trkpt lat="46.39341" lon="8.0416">
        <ele>2259</ele>
        <time>2021-07-10T11:36:03.537Z</time>
      </trkpt>
      <trkpt lat="46.39341" lon="8.04159">
        <ele>2258</ele>
        <time>2021-07-10T11:36:04.536Z</time>
      </trkpt>
      <trkpt lat="46.3934" lon="8.04157">
        <ele>2258</ele>
        <time>2021-07-10T11:36:05.536Z</time>
      </trkpt>
      <trkpt lat="46.3934" lon="8.04156">
        <ele>2258</ele>
        <time>2021-07-10T11:36:06.536Z</time>
      </trkpt>
      <trkpt lat="46.39339" lon="8.04155">
        <ele>2258</ele>
        <time>2021-07-10T11:36:07.536Z</time>
      </trkpt>
      <trkpt lat="46.39339" lon="8.04154">
        <ele>2258</ele>
        <time>2021-07-10T11:36:08.536Z</time>
      </trkpt>
      <trkpt lat="46.39339" lon="8.04153">
        <ele>2257</ele>
        <time>2021-07-10T11:36:09.537Z</time>
      </trkpt>
      <trkpt lat="46.39338" lon="8.04152">
        <ele>2257</ele>
        <time>2021-07-10T11:36:10.536Z</time>
      </trkpt>
      <trkpt lat="46.39338" lon="8.04151">
        <ele>2257</ele>
        <time>2021-07-10T11:36:11.537Z</time>
      </trkpt>
      <trkpt lat="46.39337" lon="8.0415">
        <ele>2257</ele>
        <time>2021-07-10T11:36:12.536Z</time>
      </trkpt>
      <trkpt lat="46.39336" lon="8.04149">
        <ele>2257</ele>
        <time>2021-07-10T11:36:13.537Z</time>
      </trkpt>
      <trkpt lat="46.39336" lon="8.04148">
        <ele>2257</ele>
        <time>2021-07-10T11:36:14.536Z</time>
      </trkpt>
      <trkpt lat="46.39335" lon="8.04146">
        <ele>2256</ele>
        <time>2021-07-10T11:36:15.536Z</time>
      </trkpt>
      <trkpt lat="46.39335" lon="8.04145">
        <ele>2256</ele>
        <time>2021-07-10T11:36:16.536Z</time>
      </trkpt>
      <trkpt lat="46.39335" lon="8.04144">
        <ele>2256</ele>
        <time>2021-07-10T11:36:17.537Z</time>
      </trkpt>
      <trkpt lat="46.39334" lon="8.04143">
        <ele>2255</ele>
        <time>2021-07-10T11:36:18.537Z</time>
      </trkpt>
      <trkpt lat="46.39334" lon="8.04142">
        <ele>2255</ele>
        <time>2021-07-10T11:36:19.536Z</time>
      </trkpt>
      <trkpt lat="46.39333" lon="8.04141">
        <ele>2255</ele>
        <time>2021-07-10T11:36:20.536Z</time>
      </trkpt>
      <trkpt lat="46.39333" lon="8.0414">
        <ele>2255</ele>
        <time>2021-07-10T11:36:21.536Z</time>
      </trkpt>
      <trkpt lat="46.39333" lon="8.04139">
        <ele>2256</ele>
        <time>2021-07-10T11:36:22.536Z</time>
      </trkpt>
      <trkpt lat="46.39332" lon="8.04137">
        <ele>2256</ele>
        <time>2021-07-10T11:36:23.536Z</time>
      </trkpt>
      <trkpt lat="46.39331" lon="8.04136">
        <ele>2256</ele>
        <time>2021-07-10T11:36:24.537Z</time>
      </trkpt>
      <trkpt lat="46.39331" lon="8.04135">
        <ele>2256</ele>
        <time>2021-07-10T11:36:25.537Z</time>
      </trkpt>
      <trkpt lat="46.3933" lon="8.04135">
        <ele>2256</ele>
        <time>2021-07-10T11:36:26.536Z</time>
      </trkpt>
      <trkpt lat="46.39329" lon="8.04134">
        <ele>2256</ele>
        <time>2021-07-10T11:36:27.536Z</time>
      </trkpt>
      <trkpt lat="46.39328" lon="8.04132">
        <ele>2255</ele>
        <time>2021-07-10T11:36:28.536Z</time>
      </trkpt>
      <trkpt lat="46.39327" lon="8.04131">
        <ele>2256</ele>
        <time>2021-07-10T11:36:29.536Z</time>
      </trkpt>
      <trkpt lat="46.39327" lon="8.0413">
        <ele>2256</ele>
        <time>2021-07-10T11:36:30.536Z</time>
      </trkpt>
      <trkpt lat="46.39327" lon="8.04129">
        <ele>2256</ele>
        <time>2021-07-10T11:36:31.537Z</time>
      </trkpt>
      <trkpt lat="46.39326" lon="8.04128">
        <ele>2256</ele>
        <time>2021-07-10T11:36:32.536Z</time>
      </trkpt>
      <trkpt lat="46.39325" lon="8.04127">
        <ele>2256</ele>
        <time>2021-07-10T11:36:33.536Z</time>
      </trkpt>
      <trkpt lat="46.39324" lon="8.04127">
        <ele>2256</ele>
        <time>2021-07-10T11:36:34.537Z</time>
      </trkpt>
      <trkpt lat="46.39323" lon="8.04126">
        <ele>2257</ele>
        <time>2021-07-10T11:36:35.536Z</time>
      </trkpt>
      <trkpt lat="46.39322" lon="8.04126">
        <ele>2257</ele>
        <time>2021-07-10T11:36:36.536Z</time>
      </trkpt>
      <trkpt lat="46.39321" lon="8.04126">
        <ele>2257</ele>
        <time>2021-07-10T11:36:37.536Z</time>
      </trkpt>
      <trkpt lat="46.3932" lon="8.04125">
        <ele>2257</ele>
        <time>2021-07-10T11:36:38.537Z</time>
      </trkpt>
      <trkpt lat="46.39319" lon="8.04124">
        <ele>2257</ele>
        <time>2021-07-10T11:36:39.537Z</time>
      </trkpt>
      <trkpt lat="46.39318" lon="8.04123">
        <ele>2257</ele>
        <time>2021-07-10T11:36:40.536Z</time>
      </trkpt>
      <trkpt lat="46.39318" lon="8.04122">
        <ele>2257</ele>
        <time>2021-07-10T11:36:41.537Z</time>
      </trkpt>
      <trkpt lat="46.39317" lon="8.04121">
        <ele>2257</ele>
        <time>2021-07-10T11:36:42.536Z</time>
      </trkpt>
      <trkpt lat="46.39316" lon="8.0412">
        <ele>2258</ele>
        <time>2021-07-10T11:36:43.536Z</time>
      </trkpt>
      <trkpt lat="46.39316" lon="8.04119">
        <ele>2258</ele>
        <time>2021-07-10T11:36:44.537Z</time>
      </trkpt>
      <trkpt lat="46.39315" lon="8.04118">
        <ele>2258</ele>
        <time>2021-07-10T11:36:45.537Z</time>
      </trkpt>
      <trkpt lat="46.39314" lon="8.04118">
        <ele>2258</ele>
        <time>2021-07-10T11:36:46.536Z</time>
      </trkpt>
      <trkpt lat="46.39314" lon="8.04117">
        <ele>2257</ele>
        <time>2021-07-10T11:36:47.536Z</time>
      </trkpt>
      <trkpt lat="46.39313" lon="8.04116">
        <ele>2257</ele>
        <time>2021-07-10T11:36:48.536Z</time>
      </trkpt>
      <trkpt lat="46.39312" lon="8.04116">
        <ele>2256</ele>
        <time>2021-07-10T11:36:49.537Z</time>
      </trkpt>
      <trkpt lat="46.39312" lon="8.04116">
        <ele>2256</ele>
        <time>2021-07-10T11:36:50.536Z</time>
      </trkpt>
      <trkpt lat="46.39311" lon="8.04115">
        <ele>2255</ele>
        <time>2021-07-10T11:36:51.536Z</time>
      </trkpt>
      <trkpt lat="46.39311" lon="8.04115">
        <ele>2254</ele>
        <time>2021-07-10T11:36:52.536Z</time>
      </trkpt>
      <trkpt lat="46.3931" lon="8.04114">
        <ele>2254</ele>
        <time>2021-07-10T11:36:53.536Z</time>
      </trkpt>
      <trkpt lat="46.39309" lon="8.04113">
        <ele>2254</ele>
        <time>2021-07-10T11:36:54.536Z</time>
      </trkpt>
      <trkpt lat="46.39308" lon="8.04112">
        <ele>2253</ele>
        <time>2021-07-10T11:36:55.537Z</time>
      </trkpt>
      <trkpt lat="46.39307" lon="8.04112">
        <ele>2253</ele>
        <time>2021-07-10T11:36:56.536Z</time>
      </trkpt>
      <trkpt lat="46.39306" lon="8.04111">
        <ele>2253</ele>
        <time>2021-07-10T11:36:57.536Z</time>
      </trkpt>
      <trkpt lat="46.39305" lon="8.0411">
        <ele>2252</ele>
        <time>2021-07-10T11:36:58.536Z</time>
      </trkpt>
      <trkpt lat="46.39305" lon="8.0411">
        <ele>2253</ele>
        <time>2021-07-10T11:36:59.536Z</time>
      </trkpt>
      <trkpt lat="46.39304" lon="8.04109">
        <ele>2253</ele>
        <time>2021-07-10T11:37:00.536Z</time>
      </trkpt>
      <trkpt lat="46.39303" lon="8.04107">
        <ele>2253</ele>
        <time>2021-07-10T11:37:01.537Z</time>
      </trkpt>
      <trkpt lat="46.39302" lon="8.04106">
        <ele>2253</ele>
        <time>2021-07-10T11:37:02.537Z</time>
      </trkpt>
      <trkpt lat="46.39301" lon="8.04105">
        <ele>2253</ele>
        <time>2021-07-10T11:37:03.536Z</time>
      </trkpt>
      <trkpt lat="46.393" lon="8.04104">
        <ele>2253</ele>
        <time>2021-07-10T11:37:04.536Z</time>
      </trkpt>
      <trkpt lat="46.39299" lon="8.04103">
        <ele>2253</ele>
        <time>2021-07-10T11:37:05.536Z</time>
      </trkpt>
      <trkpt lat="46.39299" lon="8.04102">
        <ele>2253</ele>
        <time>2021-07-10T11:37:06.536Z</time>
      </trkpt>
      <trkpt lat="46.39298" lon="8.04101">
        <ele>2252</ele>
        <time>2021-07-10T11:37:07.536Z</time>
      </trkpt>
      <trkpt lat="46.39298" lon="8.04101">
        <ele>2252</ele>
        <time>2021-07-10T11:37:08.536Z</time>
      </trkpt>
      <trkpt lat="46.39297" lon="8.041">
        <ele>2252</ele>
        <time>2021-07-10T11:37:09.536Z</time>
      </trkpt>
      <trkpt lat="46.39295" lon="8.04099">
        <ele>2252</ele>
        <time>2021-07-10T11:37:10.537Z</time>
      </trkpt>
      <trkpt lat="46.39294" lon="8.04097">
        <ele>2252</ele>
        <time>2021-07-10T11:37:11.537Z</time>
      </trkpt>
      <trkpt lat="46.39293" lon="8.04096">
        <ele>2252</ele>
        <time>2021-07-10T11:37:12.536Z</time>
      </trkpt>
      <trkpt lat="46.39293" lon="8.04095">
        <ele>2252</ele>
        <time>2021-07-10T11:37:13.537Z</time>
      </trkpt>
      <trkpt lat="46.39292" lon="8.04094">
        <ele>2252</ele>
        <time>2021-07-10T11:37:14.536Z</time>
      </trkpt>
      <trkpt lat="46.39291" lon="8.04093">
        <ele>2252</ele>
        <time>2021-07-10T11:37:15.536Z</time>
      </trkpt>
      <trkpt lat="46.39291" lon="8.04092">
        <ele>2251</ele>
        <time>2021-07-10T11:37:16.536Z</time>
      </trkpt>
      <trkpt lat="46.3929" lon="8.04091">
        <ele>2251</ele>
        <time>2021-07-10T11:37:17.536Z</time>
      </trkpt>
      <trkpt lat="46.39289" lon="8.04089">
        <ele>2251</ele>
        <time>2021-07-10T11:37:18.536Z</time>
      </trkpt>
      <trkpt lat="46.39289" lon="8.04088">
        <ele>2251</ele>
        <time>2021-07-10T11:37:19.536Z</time>
      </trkpt>
      <trkpt lat="46.39288" lon="8.04086">
        <ele>2251</ele>
        <time>2021-07-10T11:37:20.537Z</time>
      </trkpt>
      <trkpt lat="46.39288" lon="8.04085">
        <ele>2252</ele>
        <time>2021-07-10T11:37:21.536Z</time>
      </trkpt>
      <trkpt lat="46.39287" lon="8.04083">
        <ele>2252</ele>
        <time>2021-07-10T11:37:22.536Z</time>
      </trkpt>
      <trkpt lat="46.39287" lon="8.04082">
        <ele>2251</ele>
        <time>2021-07-10T11:37:23.536Z</time>
      </trkpt>
      <trkpt lat="46.39287" lon="8.04081">
        <ele>2251</ele>
        <time>2021-07-10T11:37:24.536Z</time>
      </trkpt>
      <trkpt lat="46.39287" lon="8.0408">
        <ele>2251</ele>
        <time>2021-07-10T11:37:25.536Z</time>
      </trkpt>
      <trkpt lat="46.39287" lon="8.0408">
        <ele>2251</ele>
        <time>2021-07-10T11:37:26.537Z</time>
      </trkpt>
      <trkpt lat="46.39287" lon="8.0408">
        <ele>2251</ele>
        <time>2021-07-10T11:37:27.536Z</time>
      </trkpt>
      <trkpt lat="46.39286" lon="8.04078">
        <ele>2249</ele>
        <time>2021-07-10T11:37:28.536Z</time>
      </trkpt>
      <trkpt lat="46.39285" lon="8.04077">
        <ele>2249</ele>
        <time>2021-07-10T11:37:29.536Z</time>
      </trkpt>
      <trkpt lat="46.39284" lon="8.04076">
        <ele>2249</ele>
        <time>2021-07-10T11:37:30.536Z</time>
      </trkpt>
      <trkpt lat="46.39283" lon="8.04076">
        <ele>2250</ele>
        <time>2021-07-10T11:37:31.537Z</time>
      </trkpt>
      <trkpt lat="46.39282" lon="8.04075">
        <ele>2250</ele>
        <time>2021-07-10T11:37:32.536Z</time>
      </trkpt>
      <trkpt lat="46.39281" lon="8.04075">
        <ele>2250</ele>
        <time>2021-07-10T11:37:33.536Z</time>
      </trkpt>
      <trkpt lat="46.3928" lon="8.04075">
        <ele>2250</ele>
        <time>2021-07-10T11:37:34.537Z</time>
      </trkpt>
      <trkpt lat="46.39279" lon="8.04074">
        <ele>2250</ele>
        <time>2021-07-10T11:37:35.536Z</time>
      </trkpt>
      <trkpt lat="46.39278" lon="8.04073">
        <ele>2251</ele>
        <time>2021-07-10T11:37:36.537Z</time>
      </trkpt>
      <trkpt lat="46.39278" lon="8.04072">
        <ele>2251</ele>
        <time>2021-07-10T11:37:37.536Z</time>
      </trkpt>
      <trkpt lat="46.39277" lon="8.04072">
        <ele>2251</ele>
        <time>2021-07-10T11:37:38.536Z</time>
      </trkpt>
      <trkpt lat="46.39276" lon="8.04071">
        <ele>2251</ele>
        <time>2021-07-10T11:37:39.536Z</time>
      </trkpt>
      <trkpt lat="46.39275" lon="8.0407">
        <ele>2251</ele>
        <time>2021-07-10T11:37:40.537Z</time>
      </trkpt>
      <trkpt lat="46.39275" lon="8.04069">
        <ele>2251</ele>
        <time>2021-07-10T11:37:41.536Z</time>
      </trkpt>
      <trkpt lat="46.39275" lon="8.04067">
        <ele>2251</ele>
        <time>2021-07-10T11:37:42.536Z</time>
      </trkpt>
      <trkpt lat="46.39274" lon="8.04066">
        <ele>2251</ele>
        <time>2021-07-10T11:37:43.537Z</time>
      </trkpt>
      <trkpt lat="46.39274" lon="8.04065">
        <ele>2251</ele>
        <time>2021-07-10T11:37:44.536Z</time>
      </trkpt>
      <trkpt lat="46.39274" lon="8.04064">
        <ele>2251</ele>
        <time>2021-07-10T11:37:45.536Z</time>
      </trkpt>
      <trkpt lat="46.39274" lon="8.04063">
        <ele>2251</ele>
        <time>2021-07-10T11:37:46.537Z</time>
      </trkpt>
      <trkpt lat="46.39274" lon="8.04062">
        <ele>2251</ele>
        <time>2021-07-10T11:37:47.536Z</time>
      </trkpt>
      <trkpt lat="46.39273" lon="8.04061">
        <ele>2252</ele>
        <time>2021-07-10T11:37:48.536Z</time>
      </trkpt>
      <trkpt lat="46.39272" lon="8.0406">
        <ele>2252</ele>
        <time>2021-07-10T11:37:49.536Z</time>
      </trkpt>
      <trkpt lat="46.39271" lon="8.04059">
        <ele>2252</ele>
        <time>2021-07-10T11:37:50.537Z</time>
      </trkpt>
      <trkpt lat="46.3927" lon="8.04059">
        <ele>2252</ele>
        <time>2021-07-10T11:37:51.536Z</time>
      </trkpt>
      <trkpt lat="46.39269" lon="8.04058">
        <ele>2251</ele>
        <time>2021-07-10T11:37:52.536Z</time>
      </trkpt>
      <trkpt lat="46.39269" lon="8.04058">
        <ele>2251</ele>
        <time>2021-07-10T11:37:53.536Z</time>
      </trkpt>
      <trkpt lat="46.39269" lon="8.04057">
        <ele>2251</ele>
        <time>2021-07-10T11:37:54.536Z</time>
      </trkpt>
      <trkpt lat="46.39268" lon="8.04057">
        <ele>2250</ele>
        <time>2021-07-10T11:37:55.536Z</time>
      </trkpt>
      <trkpt lat="46.39268" lon="8.04056">
        <ele>2250</ele>
        <time>2021-07-10T11:37:56.537Z</time>
      </trkpt>
      <trkpt lat="46.39268" lon="8.04057">
        <ele>2250</ele>
        <time>2021-07-10T11:37:57.537Z</time>
      </trkpt>
      <trkpt lat="46.39267" lon="8.04056">
        <ele>2250</ele>
        <time>2021-07-10T11:37:58.537Z</time>
      </trkpt>
      <trkpt lat="46.39267" lon="8.04056">
        <ele>2250</ele>
        <time>2021-07-10T11:37:59.537Z</time>
      </trkpt>
      <trkpt lat="46.39266" lon="8.04055">
        <ele>2251</ele>
        <time>2021-07-10T11:38:00.536Z</time>
      </trkpt>
      <trkpt lat="46.39265" lon="8.04055">
        <ele>2251</ele>
        <time>2021-07-10T11:38:01.537Z</time>
      </trkpt>
      <trkpt lat="46.39265" lon="8.04055">
        <ele>2251</ele>
        <time>2021-07-10T11:38:02.536Z</time>
      </trkpt>
      <trkpt lat="46.39264" lon="8.04054">
        <ele>2251</ele>
        <time>2021-07-10T11:38:03.536Z</time>
      </trkpt>
      <trkpt lat="46.39264" lon="8.04054">
        <ele>2250</ele>
        <time>2021-07-10T11:38:04.536Z</time>
      </trkpt>
      <trkpt lat="46.39263" lon="8.04054">
        <ele>2251</ele>
        <time>2021-07-10T11:38:05.536Z</time>
      </trkpt>
      <trkpt lat="46.39262" lon="8.04055">
        <ele>2251</ele>
        <time>2021-07-10T11:38:06.536Z</time>
      </trkpt>
      <trkpt lat="46.39262" lon="8.04055">
        <ele>2251</ele>
        <time>2021-07-10T11:38:07.536Z</time>
      </trkpt>
      <trkpt lat="46.39262" lon="8.04055">
        <ele>2251</ele>
        <time>2021-07-10T11:38:08.536Z</time>
      </trkpt>
      <trkpt lat="46.39256" lon="8.04054">
        <ele>2258</ele>
        <time>2021-07-10T11:38:09.537Z</time>
      </trkpt>
      <trkpt lat="46.39256" lon="8.04054">
        <ele>2257</ele>
        <time>2021-07-10T11:38:10.536Z</time>
      </trkpt>
      <trkpt lat="46.39256" lon="8.04054">
        <ele>2257</ele>
        <time>2021-07-10T11:38:11.536Z</time>
      </trkpt>
      <trkpt lat="46.39255" lon="8.04054">
        <ele>2256</ele>
        <time>2021-07-10T11:38:12.536Z</time>
      </trkpt>
      <trkpt lat="46.39255" lon="8.04053">
        <ele>2256</ele>
        <time>2021-07-10T11:38:13.537Z</time>
      </trkpt>
      <trkpt lat="46.39255" lon="8.04053">
        <ele>2255</ele>
        <time>2021-07-10T11:38:14.536Z</time>
      </trkpt>
      <trkpt lat="46.39255" lon="8.04052">
        <ele>2254</ele>
        <time>2021-07-10T11:38:15.536Z</time>
      </trkpt>
      <trkpt lat="46.39254" lon="8.04052">
        <ele>2253</ele>
        <time>2021-07-10T11:38:16.536Z</time>
      </trkpt>
      <trkpt lat="46.39254" lon="8.04052">
        <ele>2253</ele>
        <time>2021-07-10T11:38:17.536Z</time>
      </trkpt>
      <trkpt lat="46.39253" lon="8.04051">
        <ele>2252</ele>
        <time>2021-07-10T11:38:18.536Z</time>
      </trkpt>
      <trkpt lat="46.39253" lon="8.04051">
        <ele>2252</ele>
        <time>2021-07-10T11:38:19.536Z</time>
      </trkpt>
      <trkpt lat="46.39252" lon="8.0405">
        <ele>2252</ele>
        <time>2021-07-10T11:38:20.536Z</time>
      </trkpt>
      <trkpt lat="46.39251" lon="8.0405">
        <ele>2252</ele>
        <time>2021-07-10T11:38:21.536Z</time>
      </trkpt>
      <trkpt lat="46.3925" lon="8.04049">
        <ele>2251</ele>
        <time>2021-07-10T11:38:22.536Z</time>
      </trkpt>
      <trkpt lat="46.3925" lon="8.04048">
        <ele>2251</ele>
        <time>2021-07-10T11:38:23.536Z</time>
      </trkpt>
      <trkpt lat="46.39249" lon="8.04047">
        <ele>2251</ele>
        <time>2021-07-10T11:38:24.536Z</time>
      </trkpt>
      <trkpt lat="46.39249" lon="8.04047">
        <ele>2251</ele>
        <time>2021-07-10T11:38:25.536Z</time>
      </trkpt>
      <trkpt lat="46.39248" lon="8.04046">
        <ele>2251</ele>
        <time>2021-07-10T11:38:26.536Z</time>
      </trkpt>
      <trkpt lat="46.39247" lon="8.04045">
        <ele>2250</ele>
        <time>2021-07-10T11:38:27.536Z</time>
      </trkpt>
      <trkpt lat="46.39246" lon="8.04044">
        <ele>2250</ele>
        <time>2021-07-10T11:38:28.537Z</time>
      </trkpt>
      <trkpt lat="46.39245" lon="8.04043">
        <ele>2249</ele>
        <time>2021-07-10T11:38:29.536Z</time>
      </trkpt>
      <trkpt lat="46.39245" lon="8.04042">
        <ele>2249</ele>
        <time>2021-07-10T11:38:30.536Z</time>
      </trkpt>
      <trkpt lat="46.39244" lon="8.0404">
        <ele>2249</ele>
        <time>2021-07-10T11:38:31.536Z</time>
      </trkpt>
      <trkpt lat="46.39243" lon="8.04039">
        <ele>2249</ele>
        <time>2021-07-10T11:38:32.536Z</time>
      </trkpt>
      <trkpt lat="46.39242" lon="8.04038">
        <ele>2249</ele>
        <time>2021-07-10T11:38:33.537Z</time>
      </trkpt>
      <trkpt lat="46.39241" lon="8.04038">
        <ele>2248</ele>
        <time>2021-07-10T11:38:34.536Z</time>
      </trkpt>
      <trkpt lat="46.3924" lon="8.04037">
        <ele>2248</ele>
        <time>2021-07-10T11:38:35.536Z</time>
      </trkpt>
      <trkpt lat="46.3924" lon="8.04036">
        <ele>2248</ele>
        <time>2021-07-10T11:38:36.536Z</time>
      </trkpt>
      <trkpt lat="46.39239" lon="8.04036">
        <ele>2247</ele>
        <time>2021-07-10T11:38:37.536Z</time>
      </trkpt>
      <trkpt lat="46.39238" lon="8.04036">
        <ele>2247</ele>
        <time>2021-07-10T11:38:38.536Z</time>
      </trkpt>
      <trkpt lat="46.39237" lon="8.04035">
        <ele>2247</ele>
        <time>2021-07-10T11:38:39.536Z</time>
      </trkpt>
      <trkpt lat="46.39236" lon="8.04035">
        <ele>2247</ele>
        <time>2021-07-10T11:38:40.536Z</time>
      </trkpt>
      <trkpt lat="46.39235" lon="8.04034">
        <ele>2247</ele>
        <time>2021-07-10T11:38:41.536Z</time>
      </trkpt>
      <trkpt lat="46.39234" lon="8.04034">
        <ele>2247</ele>
        <time>2021-07-10T11:38:42.536Z</time>
      </trkpt>
      <trkpt lat="46.39233" lon="8.04033">
        <ele>2247</ele>
        <time>2021-07-10T11:38:43.536Z</time>
      </trkpt>
      <trkpt lat="46.39232" lon="8.04033">
        <ele>2247</ele>
        <time>2021-07-10T11:38:44.536Z</time>
      </trkpt>
      <trkpt lat="46.39231" lon="8.04032">
        <ele>2247</ele>
        <time>2021-07-10T11:38:45.536Z</time>
      </trkpt>
      <trkpt lat="46.39231" lon="8.04032">
        <ele>2247</ele>
        <time>2021-07-10T11:38:46.536Z</time>
      </trkpt>
      <trkpt lat="46.3923" lon="8.04031">
        <ele>2247</ele>
        <time>2021-07-10T11:38:47.537Z</time>
      </trkpt>
      <trkpt lat="46.39229" lon="8.0403">
        <ele>2247</ele>
        <time>2021-07-10T11:38:48.536Z</time>
      </trkpt>
      <trkpt lat="46.39228" lon="8.0403">
        <ele>2247</ele>
        <time>2021-07-10T11:38:49.536Z</time>
      </trkpt>
      <trkpt lat="46.39228" lon="8.04029">
        <ele>2247</ele>
        <time>2021-07-10T11:38:50.537Z</time>
      </trkpt>
      <trkpt lat="46.39227" lon="8.04028">
        <ele>2247</ele>
        <time>2021-07-10T11:38:51.536Z</time>
      </trkpt>
      <trkpt lat="46.39227" lon="8.04028">
        <ele>2247</ele>
        <time>2021-07-10T11:38:52.537Z</time>
      </trkpt>
      <trkpt lat="46.39226" lon="8.04027">
        <ele>2247</ele>
        <time>2021-07-10T11:38:53.536Z</time>
      </trkpt>
      <trkpt lat="46.39225" lon="8.04026">
        <ele>2247</ele>
        <time>2021-07-10T11:38:54.536Z</time>
      </trkpt>
      <trkpt lat="46.39225" lon="8.04025">
        <ele>2247</ele>
        <time>2021-07-10T11:38:55.536Z</time>
      </trkpt>
      <trkpt lat="46.39224" lon="8.04024">
        <ele>2247</ele>
        <time>2021-07-10T11:38:56.537Z</time>
      </trkpt>
      <trkpt lat="46.39223" lon="8.04023">
        <ele>2247</ele>
        <time>2021-07-10T11:38:57.536Z</time>
      </trkpt>
      <trkpt lat="46.39223" lon="8.04022">
        <ele>2246</ele>
        <time>2021-07-10T11:38:58.537Z</time>
      </trkpt>
      <trkpt lat="46.39222" lon="8.04021">
        <ele>2246</ele>
        <time>2021-07-10T11:38:59.536Z</time>
      </trkpt>
      <trkpt lat="46.39221" lon="8.0402">
        <ele>2246</ele>
        <time>2021-07-10T11:39:00.536Z</time>
      </trkpt>
      <trkpt lat="46.3922" lon="8.0402">
        <ele>2246</ele>
        <time>2021-07-10T11:39:01.536Z</time>
      </trkpt>
      <trkpt lat="46.39219" lon="8.04019">
        <ele>2246</ele>
        <time>2021-07-10T11:39:02.537Z</time>
      </trkpt>
      <trkpt lat="46.39218" lon="8.04019">
        <ele>2246</ele>
        <time>2021-07-10T11:39:03.536Z</time>
      </trkpt>
      <trkpt lat="46.39217" lon="8.04018">
        <ele>2245</ele>
        <time>2021-07-10T11:39:04.536Z</time>
      </trkpt>
      <trkpt lat="46.39216" lon="8.04017">
        <ele>2246</ele>
        <time>2021-07-10T11:39:05.536Z</time>
      </trkpt>
      <trkpt lat="46.39215" lon="8.04017">
        <ele>2246</ele>
        <time>2021-07-10T11:39:06.536Z</time>
      </trkpt>
      <trkpt lat="46.39214" lon="8.04016">
        <ele>2247</ele>
        <time>2021-07-10T11:39:07.536Z</time>
      </trkpt>
      <trkpt lat="46.39213" lon="8.04016">
        <ele>2247</ele>
        <time>2021-07-10T11:39:08.536Z</time>
      </trkpt>
      <trkpt lat="46.39213" lon="8.04016">
        <ele>2247</ele>
        <time>2021-07-10T11:39:09.536Z</time>
      </trkpt>
      <trkpt lat="46.39212" lon="8.04016">
        <ele>2247</ele>
        <time>2021-07-10T11:39:10.537Z</time>
      </trkpt>
      <trkpt lat="46.39211" lon="8.04017">
        <ele>2247</ele>
        <time>2021-07-10T11:39:11.536Z</time>
      </trkpt>
      <trkpt lat="46.39211" lon="8.04017">
        <ele>2247</ele>
        <time>2021-07-10T11:39:12.536Z</time>
      </trkpt>
      <trkpt lat="46.3921" lon="8.04016">
        <ele>2246</ele>
        <time>2021-07-10T11:39:13.536Z</time>
      </trkpt>
      <trkpt lat="46.3921" lon="8.04016">
        <ele>2246</ele>
        <time>2021-07-10T11:39:14.536Z</time>
      </trkpt>
      <trkpt lat="46.39209" lon="8.04015">
        <ele>2246</ele>
        <time>2021-07-10T11:39:15.536Z</time>
      </trkpt>
      <trkpt lat="46.39209" lon="8.04015">
        <ele>2246</ele>
        <time>2021-07-10T11:39:16.536Z</time>
      </trkpt>
      <trkpt lat="46.39208" lon="8.04014">
        <ele>2245</ele>
        <time>2021-07-10T11:39:17.536Z</time>
      </trkpt>
      <trkpt lat="46.39208" lon="8.04013">
        <ele>2245</ele>
        <time>2021-07-10T11:39:18.536Z</time>
      </trkpt>
      <trkpt lat="46.39207" lon="8.04013">
        <ele>2244</ele>
        <time>2021-07-10T11:39:19.536Z</time>
      </trkpt>
      <trkpt lat="46.39207" lon="8.04012">
        <ele>2244</ele>
        <time>2021-07-10T11:39:20.536Z</time>
      </trkpt>
      <trkpt lat="46.39207" lon="8.04012">
        <ele>2244</ele>
        <time>2021-07-10T11:39:21.536Z</time>
      </trkpt>
      <trkpt lat="46.39206" lon="8.04011">
        <ele>2244</ele>
        <time>2021-07-10T11:39:22.536Z</time>
      </trkpt>
      <trkpt lat="46.39205" lon="8.0401">
        <ele>2243</ele>
        <time>2021-07-10T11:39:23.537Z</time>
      </trkpt>
      <trkpt lat="46.39204" lon="8.04009">
        <ele>2242</ele>
        <time>2021-07-10T11:39:24.536Z</time>
      </trkpt>
      <trkpt lat="46.39203" lon="8.04008">
        <ele>2242</ele>
        <time>2021-07-10T11:39:25.536Z</time>
      </trkpt>
      <trkpt lat="46.39202" lon="8.04008">
        <ele>2242</ele>
        <time>2021-07-10T11:39:26.536Z</time>
      </trkpt>
      <trkpt lat="46.39201" lon="8.04008">
        <ele>2242</ele>
        <time>2021-07-10T11:39:27.536Z</time>
      </trkpt>
      <trkpt lat="46.392" lon="8.04008">
        <ele>2242</ele>
        <time>2021-07-10T11:39:28.536Z</time>
      </trkpt>
      <trkpt lat="46.392" lon="8.04008">
        <ele>2242</ele>
        <time>2021-07-10T11:39:29.536Z</time>
      </trkpt>
      <trkpt lat="46.39199" lon="8.04008">
        <ele>2242</ele>
        <time>2021-07-10T11:39:30.536Z</time>
      </trkpt>
      <trkpt lat="46.39198" lon="8.04008">
        <ele>2242</ele>
        <time>2021-07-10T11:39:31.537Z</time>
      </trkpt>
      <trkpt lat="46.39197" lon="8.04008">
        <ele>2242</ele>
        <time>2021-07-10T11:39:32.536Z</time>
      </trkpt>
      <trkpt lat="46.39196" lon="8.04008">
        <ele>2242</ele>
        <time>2021-07-10T11:39:33.536Z</time>
      </trkpt>
      <trkpt lat="46.39196" lon="8.04007">
        <ele>2242</ele>
        <time>2021-07-10T11:39:34.537Z</time>
      </trkpt>
      <trkpt lat="46.39196" lon="8.04007">
        <ele>2242</ele>
        <time>2021-07-10T11:39:35.536Z</time>
      </trkpt>
      <trkpt lat="46.39195" lon="8.04005">
        <ele>2241</ele>
        <time>2021-07-10T11:39:36.536Z</time>
      </trkpt>
      <trkpt lat="46.39195" lon="8.04004">
        <ele>2241</ele>
        <time>2021-07-10T11:39:37.536Z</time>
      </trkpt>
      <trkpt lat="46.39194" lon="8.04004">
        <ele>2241</ele>
        <time>2021-07-10T11:39:38.536Z</time>
      </trkpt>
      <trkpt lat="46.39194" lon="8.04003">
        <ele>2241</ele>
        <time>2021-07-10T11:39:39.536Z</time>
      </trkpt>
      <trkpt lat="46.39193" lon="8.04002">
        <ele>2241</ele>
        <time>2021-07-10T11:39:40.536Z</time>
      </trkpt>
      <trkpt lat="46.39192" lon="8.04001">
        <ele>2241</ele>
        <time>2021-07-10T11:39:41.537Z</time>
      </trkpt>
      <trkpt lat="46.39192" lon="8.04">
        <ele>2240</ele>
        <time>2021-07-10T11:39:42.536Z</time>
      </trkpt>
      <trkpt lat="46.39192" lon="8.03999">
        <ele>2240</ele>
        <time>2021-07-10T11:39:43.537Z</time>
      </trkpt>
      <trkpt lat="46.39191" lon="8.03998">
        <ele>2240</ele>
        <time>2021-07-10T11:39:44.537Z</time>
      </trkpt>
      <trkpt lat="46.3919" lon="8.03997">
        <ele>2240</ele>
        <time>2021-07-10T11:39:45.536Z</time>
      </trkpt>
      <trkpt lat="46.3919" lon="8.03995">
        <ele>2240</ele>
        <time>2021-07-10T11:39:46.536Z</time>
      </trkpt>
      <trkpt lat="46.39189" lon="8.03994">
        <ele>2240</ele>
        <time>2021-07-10T11:39:47.536Z</time>
      </trkpt>
      <trkpt lat="46.39188" lon="8.03993">
        <ele>2239</ele>
        <time>2021-07-10T11:39:48.536Z</time>
      </trkpt>
      <trkpt lat="46.39188" lon="8.03992">
        <ele>2239</ele>
        <time>2021-07-10T11:39:49.536Z</time>
      </trkpt>
      <trkpt lat="46.39187" lon="8.0399">
        <ele>2238</ele>
        <time>2021-07-10T11:39:50.536Z</time>
      </trkpt>
      <trkpt lat="46.39187" lon="8.03989">
        <ele>2238</ele>
        <time>2021-07-10T11:39:51.537Z</time>
      </trkpt>
      <trkpt lat="46.39187" lon="8.03988">
        <ele>2238</ele>
        <time>2021-07-10T11:39:52.536Z</time>
      </trkpt>
      <trkpt lat="46.39186" lon="8.03987">
        <ele>2237</ele>
        <time>2021-07-10T11:39:53.537Z</time>
      </trkpt>
      <trkpt lat="46.39186" lon="8.03985">
        <ele>2237</ele>
        <time>2021-07-10T11:39:54.536Z</time>
      </trkpt>
      <trkpt lat="46.39186" lon="8.03984">
        <ele>2236</ele>
        <time>2021-07-10T11:39:55.537Z</time>
      </trkpt>
      <trkpt lat="46.39185" lon="8.03983">
        <ele>2236</ele>
        <time>2021-07-10T11:39:56.536Z</time>
      </trkpt>
      <trkpt lat="46.39184" lon="8.03981">
        <ele>2236</ele>
        <time>2021-07-10T11:39:57.537Z</time>
      </trkpt>
      <trkpt lat="46.39184" lon="8.0398">
        <ele>2236</ele>
        <time>2021-07-10T11:39:58.536Z</time>
      </trkpt>
      <trkpt lat="46.39183" lon="8.03978">
        <ele>2236</ele>
        <time>2021-07-10T11:39:59.536Z</time>
      </trkpt>
      <trkpt lat="46.39183" lon="8.03977">
        <ele>2236</ele>
        <time>2021-07-10T11:40:00.536Z</time>
      </trkpt>
      <trkpt lat="46.39182" lon="8.03976">
        <ele>2236</ele>
        <time>2021-07-10T11:40:01.536Z</time>
      </trkpt>
      <trkpt lat="46.39182" lon="8.03974">
        <ele>2236</ele>
        <time>2021-07-10T11:40:02.536Z</time>
      </trkpt>
      <trkpt lat="46.39181" lon="8.03973">
        <ele>2236</ele>
        <time>2021-07-10T11:40:03.536Z</time>
      </trkpt>
      <trkpt lat="46.39181" lon="8.03971">
        <ele>2237</ele>
        <time>2021-07-10T11:40:04.537Z</time>
      </trkpt>
      <trkpt lat="46.3918" lon="8.0397">
        <ele>2237</ele>
        <time>2021-07-10T11:40:05.537Z</time>
      </trkpt>
      <trkpt lat="46.3918" lon="8.03969">
        <ele>2237</ele>
        <time>2021-07-10T11:40:06.537Z</time>
      </trkpt>
      <trkpt lat="46.3918" lon="8.03968">
        <ele>2236</ele>
        <time>2021-07-10T11:40:07.536Z</time>
      </trkpt>
      <trkpt lat="46.39179" lon="8.03967">
        <ele>2236</ele>
        <time>2021-07-10T11:40:08.536Z</time>
      </trkpt>
      <trkpt lat="46.39179" lon="8.03966">
        <ele>2237</ele>
        <time>2021-07-10T11:40:09.537Z</time>
      </trkpt>
      <trkpt lat="46.39178" lon="8.03964">
        <ele>2237</ele>
        <time>2021-07-10T11:40:10.536Z</time>
      </trkpt>
      <trkpt lat="46.39178" lon="8.03963">
        <ele>2238</ele>
        <time>2021-07-10T11:40:11.537Z</time>
      </trkpt>
      <trkpt lat="46.39178" lon="8.03963">
        <ele>2238</ele>
        <time>2021-07-10T11:40:12.536Z</time>
      </trkpt>
      <trkpt lat="46.39177" lon="8.03963">
        <ele>2239</ele>
        <time>2021-07-10T11:40:13.536Z</time>
      </trkpt>
      <trkpt lat="46.39177" lon="8.03963">
        <ele>2239</ele>
        <time>2021-07-10T11:40:14.536Z</time>
      </trkpt>
      <trkpt lat="46.39177" lon="8.03963">
        <ele>2239</ele>
        <time>2021-07-10T11:40:15.536Z</time>
      </trkpt>
      <trkpt lat="46.39177" lon="8.03963">
        <ele>2239</ele>
        <time>2021-07-10T11:40:16.536Z</time>
      </trkpt>
      <trkpt lat="46.39178" lon="8.03961">
        <ele>2238</ele>
        <time>2021-07-10T11:40:17.536Z</time>
      </trkpt>
      <trkpt lat="46.39178" lon="8.0396">
        <ele>2238</ele>
        <time>2021-07-10T11:40:18.537Z</time>
      </trkpt>
      <trkpt lat="46.39177" lon="8.03959">
        <ele>2238</ele>
        <time>2021-07-10T11:40:19.537Z</time>
      </trkpt>
      <trkpt lat="46.39177" lon="8.03958">
        <ele>2238</ele>
        <time>2021-07-10T11:40:20.537Z</time>
      </trkpt>
      <trkpt lat="46.39176" lon="8.03957">
        <ele>2238</ele>
        <time>2021-07-10T11:40:21.537Z</time>
      </trkpt>
      <trkpt lat="46.39176" lon="8.03956">
        <ele>2238</ele>
        <time>2021-07-10T11:40:22.537Z</time>
      </trkpt>
      <trkpt lat="46.39175" lon="8.03955">
        <ele>2238</ele>
        <time>2021-07-10T11:40:23.536Z</time>
      </trkpt>
      <trkpt lat="46.39175" lon="8.03954">
        <ele>2238</ele>
        <time>2021-07-10T11:40:24.536Z</time>
      </trkpt>
      <trkpt lat="46.39174" lon="8.03953">
        <ele>2237</ele>
        <time>2021-07-10T11:40:25.537Z</time>
      </trkpt>
      <trkpt lat="46.39174" lon="8.03952">
        <ele>2237</ele>
        <time>2021-07-10T11:40:26.536Z</time>
      </trkpt>
      <trkpt lat="46.39173" lon="8.03952">
        <ele>2237</ele>
        <time>2021-07-10T11:40:27.536Z</time>
      </trkpt>
      <trkpt lat="46.39173" lon="8.03952">
        <ele>2237</ele>
        <time>2021-07-10T11:40:28.537Z</time>
      </trkpt>
      <trkpt lat="46.39172" lon="8.03952">
        <ele>2238</ele>
        <time>2021-07-10T11:40:29.536Z</time>
      </trkpt>
      <trkpt lat="46.39172" lon="8.03952">
        <ele>2238</ele>
        <time>2021-07-10T11:40:30.536Z</time>
      </trkpt>
      <trkpt lat="46.39172" lon="8.03951">
        <ele>2236</ele>
        <time>2021-07-10T11:40:31.538Z</time>
      </trkpt>
      <trkpt lat="46.39172" lon="8.03951">
        <ele>2236</ele>
        <time>2021-07-10T11:40:32.538Z</time>
      </trkpt>
      <trkpt lat="46.39171" lon="8.0395">
        <ele>2236</ele>
        <time>2021-07-10T11:40:33.537Z</time>
      </trkpt>
      <trkpt lat="46.3917" lon="8.03949">
        <ele>2236</ele>
        <time>2021-07-10T11:40:34.538Z</time>
      </trkpt>
      <trkpt lat="46.39169" lon="8.03949">
        <ele>2236</ele>
        <time>2021-07-10T11:40:35.538Z</time>
      </trkpt>
      <trkpt lat="46.39169" lon="8.03948">
        <ele>2237</ele>
        <time>2021-07-10T11:40:36.538Z</time>
      </trkpt>
      <trkpt lat="46.39168" lon="8.03947">
        <ele>2237</ele>
        <time>2021-07-10T11:40:37.538Z</time>
      </trkpt>
      <trkpt lat="46.39167" lon="8.03947">
        <ele>2238</ele>
        <time>2021-07-10T11:40:38.538Z</time>
      </trkpt>
      <trkpt lat="46.39166" lon="8.03946">
        <ele>2238</ele>
        <time>2021-07-10T11:40:39.538Z</time>
      </trkpt>
      <trkpt lat="46.39165" lon="8.03946">
        <ele>2238</ele>
        <time>2021-07-10T11:40:40.538Z</time>
      </trkpt>
      <trkpt lat="46.39165" lon="8.03946">
        <ele>2239</ele>
        <time>2021-07-10T11:40:41.538Z</time>
      </trkpt>
      <trkpt lat="46.39164" lon="8.03946">
        <ele>2239</ele>
        <time>2021-07-10T11:40:42.538Z</time>
      </trkpt>
      <trkpt lat="46.39164" lon="8.03946">
        <ele>2239</ele>
        <time>2021-07-10T11:40:43.537Z</time>
      </trkpt>
      <trkpt lat="46.39163" lon="8.03946">
        <ele>2239</ele>
        <time>2021-07-10T11:40:44.537Z</time>
      </trkpt>
      <trkpt lat="46.39163" lon="8.03945">
        <ele>2239</ele>
        <time>2021-07-10T11:40:45.538Z</time>
      </trkpt>
      <trkpt lat="46.39162" lon="8.03944">
        <ele>2239</ele>
        <time>2021-07-10T11:40:46.538Z</time>
      </trkpt>
      <trkpt lat="46.39162" lon="8.03943">
        <ele>2239</ele>
        <time>2021-07-10T11:40:47.538Z</time>
      </trkpt>
      <trkpt lat="46.39161" lon="8.03942">
        <ele>2239</ele>
        <time>2021-07-10T11:40:48.538Z</time>
      </trkpt>
      <trkpt lat="46.3916" lon="8.03941">
        <ele>2239</ele>
        <time>2021-07-10T11:40:49.538Z</time>
      </trkpt>
      <trkpt lat="46.3916" lon="8.0394">
        <ele>2239</ele>
        <time>2021-07-10T11:40:50.537Z</time>
      </trkpt>
      <trkpt lat="46.39159" lon="8.03939">
        <ele>2238</ele>
        <time>2021-07-10T11:40:51.538Z</time>
      </trkpt>
      <trkpt lat="46.39158" lon="8.03938">
        <ele>2238</ele>
        <time>2021-07-10T11:40:52.538Z</time>
      </trkpt>
      <trkpt lat="46.39158" lon="8.03938">
        <ele>2238</ele>
        <time>2021-07-10T11:40:53.537Z</time>
      </trkpt>
      <trkpt lat="46.39158" lon="8.03937">
        <ele>2238</ele>
        <time>2021-07-10T11:40:54.538Z</time>
      </trkpt>
      <trkpt lat="46.39158" lon="8.03935">
        <ele>2237</ele>
        <time>2021-07-10T11:40:55.538Z</time>
      </trkpt>
      <trkpt lat="46.39157" lon="8.03934">
        <ele>2237</ele>
        <time>2021-07-10T11:40:56.538Z</time>
      </trkpt>
      <trkpt lat="46.39157" lon="8.03933">
        <ele>2237</ele>
        <time>2021-07-10T11:40:57.538Z</time>
      </trkpt>
      <trkpt lat="46.39157" lon="8.03932">
        <ele>2237</ele>
        <time>2021-07-10T11:40:58.538Z</time>
      </trkpt>
      <trkpt lat="46.39156" lon="8.03931">
        <ele>2237</ele>
        <time>2021-07-10T11:40:59.538Z</time>
      </trkpt>
      <trkpt lat="46.39155" lon="8.03931">
        <ele>2237</ele>
        <time>2021-07-10T11:41:00.538Z</time>
      </trkpt>
      <trkpt lat="46.39155" lon="8.03931">
        <ele>2238</ele>
        <time>2021-07-10T11:41:01.538Z</time>
      </trkpt>
      <trkpt lat="46.39154" lon="8.03931">
        <ele>2238</ele>
        <time>2021-07-10T11:41:02.538Z</time>
      </trkpt>
      <trkpt lat="46.39154" lon="8.03931">
        <ele>2238</ele>
        <time>2021-07-10T11:41:03.537Z</time>
      </trkpt>
      <trkpt lat="46.39157" lon="8.0393">
        <ele>2234</ele>
        <time>2021-07-10T11:41:04.539Z</time>
      </trkpt>
      <trkpt lat="46.39156" lon="8.03929">
        <ele>2234</ele>
        <time>2021-07-10T11:41:05.540Z</time>
      </trkpt>
      <trkpt lat="46.39155" lon="8.03928">
        <ele>2235</ele>
        <time>2021-07-10T11:41:06.539Z</time>
      </trkpt>
      <trkpt lat="46.39155" lon="8.03927">
        <ele>2235</ele>
        <time>2021-07-10T11:41:07.539Z</time>
      </trkpt>
      <trkpt lat="46.39154" lon="8.03926">
        <ele>2235</ele>
        <time>2021-07-10T11:41:08.539Z</time>
      </trkpt>
      <trkpt lat="46.39153" lon="8.03925">
        <ele>2235</ele>
        <time>2021-07-10T11:41:09.540Z</time>
      </trkpt>
      <trkpt lat="46.39152" lon="8.03924">
        <ele>2236</ele>
        <time>2021-07-10T11:41:10.539Z</time>
      </trkpt>
      <trkpt lat="46.39151" lon="8.03923">
        <ele>2236</ele>
        <time>2021-07-10T11:41:11.540Z</time>
      </trkpt>
      <trkpt lat="46.39151" lon="8.03923">
        <ele>2235</ele>
        <time>2021-07-10T11:41:12.540Z</time>
      </trkpt>
      <trkpt lat="46.3915" lon="8.03922">
        <ele>2235</ele>
        <time>2021-07-10T11:41:13.540Z</time>
      </trkpt>
      <trkpt lat="46.39149" lon="8.0392">
        <ele>2235</ele>
        <time>2021-07-10T11:41:14.539Z</time>
      </trkpt>
      <trkpt lat="46.39148" lon="8.03919">
        <ele>2236</ele>
        <time>2021-07-10T11:41:15.540Z</time>
      </trkpt>
      <trkpt lat="46.39147" lon="8.03918">
        <ele>2236</ele>
        <time>2021-07-10T11:41:16.540Z</time>
      </trkpt>
      <trkpt lat="46.39147" lon="8.03916">
        <ele>2236</ele>
        <time>2021-07-10T11:41:17.540Z</time>
      </trkpt>
      <trkpt lat="46.39146" lon="8.03915">
        <ele>2235</ele>
        <time>2021-07-10T11:41:18.540Z</time>
      </trkpt>
      <trkpt lat="46.39145" lon="8.03914">
        <ele>2235</ele>
        <time>2021-07-10T11:41:19.540Z</time>
      </trkpt>
      <trkpt lat="46.39144" lon="8.03913">
        <ele>2235</ele>
        <time>2021-07-10T11:41:20.540Z</time>
      </trkpt>
      <trkpt lat="46.39143" lon="8.03912">
        <ele>2235</ele>
        <time>2021-07-10T11:41:21.540Z</time>
      </trkpt>
      <trkpt lat="46.39142" lon="8.03911">
        <ele>2235</ele>
        <time>2021-07-10T11:41:22.539Z</time>
      </trkpt>
      <trkpt lat="46.39142" lon="8.0391">
        <ele>2235</ele>
        <time>2021-07-10T11:41:23.540Z</time>
      </trkpt>
      <trkpt lat="46.39142" lon="8.03909">
        <ele>2235</ele>
        <time>2021-07-10T11:41:24.540Z</time>
      </trkpt>
      <trkpt lat="46.39141" lon="8.03908">
        <ele>2235</ele>
        <time>2021-07-10T11:41:25.539Z</time>
      </trkpt>
      <trkpt lat="46.3914" lon="8.03907">
        <ele>2235</ele>
        <time>2021-07-10T11:41:26.539Z</time>
      </trkpt>
      <trkpt lat="46.3914" lon="8.03907">
        <ele>2236</ele>
        <time>2021-07-10T11:41:27.540Z</time>
      </trkpt>
      <trkpt lat="46.39139" lon="8.03906">
        <ele>2236</ele>
        <time>2021-07-10T11:41:28.540Z</time>
      </trkpt>
      <trkpt lat="46.39139" lon="8.03906">
        <ele>2235</ele>
        <time>2021-07-10T11:41:29.539Z</time>
      </trkpt>
      <trkpt lat="46.39138" lon="8.03906">
        <ele>2235</ele>
        <time>2021-07-10T11:41:30.539Z</time>
      </trkpt>
      <trkpt lat="46.39138" lon="8.03906">
        <ele>2235</ele>
        <time>2021-07-10T11:41:31.539Z</time>
      </trkpt>
      <trkpt lat="46.39138" lon="8.03906">
        <ele>2235</ele>
        <time>2021-07-10T11:41:32.540Z</time>
      </trkpt>
      <trkpt lat="46.39138" lon="8.03904">
        <ele>2236</ele>
        <time>2021-07-10T11:41:33.541Z</time>
      </trkpt>
      <trkpt lat="46.39138" lon="8.03904">
        <ele>2236</ele>
        <time>2021-07-10T11:41:34.542Z</time>
      </trkpt>
      <trkpt lat="46.39137" lon="8.03903">
        <ele>2236</ele>
        <time>2021-07-10T11:41:35.541Z</time>
      </trkpt>
      <trkpt lat="46.39137" lon="8.03902">
        <ele>2236</ele>
        <time>2021-07-10T11:41:36.542Z</time>
      </trkpt>
      <trkpt lat="46.39137" lon="8.03902">
        <ele>2236</ele>
        <time>2021-07-10T11:41:37.542Z</time>
      </trkpt>
      <trkpt lat="46.39136" lon="8.03901">
        <ele>2235</ele>
        <time>2021-07-10T11:41:38.542Z</time>
      </trkpt>
      <trkpt lat="46.39136" lon="8.03901">
        <ele>2235</ele>
        <time>2021-07-10T11:41:39.542Z</time>
      </trkpt>
      <trkpt lat="46.39134" lon="8.039">
        <ele>2235</ele>
        <time>2021-07-10T11:41:40.542Z</time>
      </trkpt>
      <trkpt lat="46.39133" lon="8.03899">
        <ele>2234</ele>
        <time>2021-07-10T11:41:41.542Z</time>
      </trkpt>
      <trkpt lat="46.39133" lon="8.03898">
        <ele>2234</ele>
        <time>2021-07-10T11:41:42.541Z</time>
      </trkpt>
      <trkpt lat="46.39132" lon="8.03897">
        <ele>2234</ele>
        <time>2021-07-10T11:41:43.541Z</time>
      </trkpt>
      <trkpt lat="46.39131" lon="8.03896">
        <ele>2233</ele>
        <time>2021-07-10T11:41:44.542Z</time>
      </trkpt>
      <trkpt lat="46.3913" lon="8.03895">
        <ele>2233</ele>
        <time>2021-07-10T11:41:45.541Z</time>
      </trkpt>
      <trkpt lat="46.3913" lon="8.03894">
        <ele>2233</ele>
        <time>2021-07-10T11:41:46.541Z</time>
      </trkpt>
      <trkpt lat="46.39129" lon="8.03893">
        <ele>2233</ele>
        <time>2021-07-10T11:41:47.542Z</time>
      </trkpt>
      <trkpt lat="46.39128" lon="8.03892">
        <ele>2233</ele>
        <time>2021-07-10T11:41:48.542Z</time>
      </trkpt>
      <trkpt lat="46.39127" lon="8.03891">
        <ele>2233</ele>
        <time>2021-07-10T11:41:49.542Z</time>
      </trkpt>
      <trkpt lat="46.39127" lon="8.0389">
        <ele>2233</ele>
        <time>2021-07-10T11:41:50.542Z</time>
      </trkpt>
      <trkpt lat="46.39126" lon="8.03889">
        <ele>2233</ele>
        <time>2021-07-10T11:41:51.541Z</time>
      </trkpt>
      <trkpt lat="46.39125" lon="8.03888">
        <ele>2232</ele>
        <time>2021-07-10T11:41:52.542Z</time>
      </trkpt>
      <trkpt lat="46.39124" lon="8.03887">
        <ele>2232</ele>
        <time>2021-07-10T11:41:53.541Z</time>
      </trkpt>
      <trkpt lat="46.39123" lon="8.03886">
        <ele>2233</ele>
        <time>2021-07-10T11:41:54.541Z</time>
      </trkpt>
      <trkpt lat="46.39123" lon="8.03884">
        <ele>2233</ele>
        <time>2021-07-10T11:41:55.541Z</time>
      </trkpt>
      <trkpt lat="46.39122" lon="8.03883">
        <ele>2234</ele>
        <time>2021-07-10T11:41:56.541Z</time>
      </trkpt>
      <trkpt lat="46.39122" lon="8.03882">
        <ele>2234</ele>
        <time>2021-07-10T11:41:57.542Z</time>
      </trkpt>
      <trkpt lat="46.39121" lon="8.03881">
        <ele>2234</ele>
        <time>2021-07-10T11:41:58.542Z</time>
      </trkpt>
      <trkpt lat="46.3912" lon="8.03881">
        <ele>2234</ele>
        <time>2021-07-10T11:41:59.542Z</time>
      </trkpt>
      <trkpt lat="46.3912" lon="8.0388">
        <ele>2234</ele>
        <time>2021-07-10T11:42:00.542Z</time>
      </trkpt>
      <trkpt lat="46.39119" lon="8.0388">
        <ele>2234</ele>
        <time>2021-07-10T11:42:01.541Z</time>
      </trkpt>
      <trkpt lat="46.39118" lon="8.0388">
        <ele>2234</ele>
        <time>2021-07-10T11:42:02.542Z</time>
      </trkpt>
      <trkpt lat="46.39117" lon="8.03879">
        <ele>2234</ele>
        <time>2021-07-10T11:42:03.541Z</time>
      </trkpt>
      <trkpt lat="46.39116" lon="8.03879">
        <ele>2234</ele>
        <time>2021-07-10T11:42:04.542Z</time>
      </trkpt>
      <trkpt lat="46.39115" lon="8.03878">
        <ele>2233</ele>
        <time>2021-07-10T11:42:05.541Z</time>
      </trkpt>
      <trkpt lat="46.39114" lon="8.03877">
        <ele>2232</ele>
        <time>2021-07-10T11:42:06.542Z</time>
      </trkpt>
      <trkpt lat="46.39113" lon="8.03876">
        <ele>2232</ele>
        <time>2021-07-10T11:42:07.542Z</time>
      </trkpt>
      <trkpt lat="46.39112" lon="8.03876">
        <ele>2232</ele>
        <time>2021-07-10T11:42:08.542Z</time>
      </trkpt>
      <trkpt lat="46.39112" lon="8.03875">
        <ele>2232</ele>
        <time>2021-07-10T11:42:09.541Z</time>
      </trkpt>
      <trkpt lat="46.39111" lon="8.03874">
        <ele>2231</ele>
        <time>2021-07-10T11:42:10.542Z</time>
      </trkpt>
      <trkpt lat="46.39111" lon="8.03873">
        <ele>2231</ele>
        <time>2021-07-10T11:42:11.542Z</time>
      </trkpt>
      <trkpt lat="46.3911" lon="8.03871">
        <ele>2231</ele>
        <time>2021-07-10T11:42:12.542Z</time>
      </trkpt>
      <trkpt lat="46.39109" lon="8.0387">
        <ele>2231</ele>
        <time>2021-07-10T11:42:13.542Z</time>
      </trkpt>
      <trkpt lat="46.39109" lon="8.03869">
        <ele>2230</ele>
        <time>2021-07-10T11:42:14.542Z</time>
      </trkpt>
      <trkpt lat="46.39108" lon="8.03868">
        <ele>2230</ele>
        <time>2021-07-10T11:42:15.541Z</time>
      </trkpt>
      <trkpt lat="46.39108" lon="8.03867">
        <ele>2229</ele>
        <time>2021-07-10T11:42:16.541Z</time>
      </trkpt>
      <trkpt lat="46.39107" lon="8.03866">
        <ele>2229</ele>
        <time>2021-07-10T11:42:17.541Z</time>
      </trkpt>
      <trkpt lat="46.39106" lon="8.03865">
        <ele>2229</ele>
        <time>2021-07-10T11:42:18.542Z</time>
      </trkpt>
      <trkpt lat="46.39105" lon="8.03864">
        <ele>2229</ele>
        <time>2021-07-10T11:42:19.542Z</time>
      </trkpt>
      <trkpt lat="46.39105" lon="8.03863">
        <ele>2229</ele>
        <time>2021-07-10T11:42:20.542Z</time>
      </trkpt>
      <trkpt lat="46.39104" lon="8.03862">
        <ele>2230</ele>
        <time>2021-07-10T11:42:21.542Z</time>
      </trkpt>
      <trkpt lat="46.39103" lon="8.0386">
        <ele>2230</ele>
        <time>2021-07-10T11:42:22.541Z</time>
      </trkpt>
      <trkpt lat="46.39102" lon="8.0386">
        <ele>2229</ele>
        <time>2021-07-10T11:42:23.541Z</time>
      </trkpt>
      <trkpt lat="46.39101" lon="8.03859">
        <ele>2229</ele>
        <time>2021-07-10T11:42:24.541Z</time>
      </trkpt>
      <trkpt lat="46.391" lon="8.03859">
        <ele>2229</ele>
        <time>2021-07-10T11:42:25.542Z</time>
      </trkpt>
      <trkpt lat="46.391" lon="8.03859">
        <ele>2229</ele>
        <time>2021-07-10T11:42:26.542Z</time>
      </trkpt>
      <trkpt lat="46.391" lon="8.03859">
        <ele>2229</ele>
        <time>2021-07-10T11:42:27.542Z</time>
      </trkpt>
      <trkpt lat="46.39099" lon="8.03858">
        <ele>2229</ele>
        <time>2021-07-10T11:42:28.542Z</time>
      </trkpt>
      <trkpt lat="46.39099" lon="8.03858">
        <ele>2229</ele>
        <time>2021-07-10T11:42:29.542Z</time>
      </trkpt>
      <trkpt lat="46.39098" lon="8.03858">
        <ele>2229</ele>
        <time>2021-07-10T11:42:30.541Z</time>
      </trkpt>
      <trkpt lat="46.39098" lon="8.03858">
        <ele>2229</ele>
        <time>2021-07-10T11:42:31.541Z</time>
      </trkpt>
      <trkpt lat="46.39097" lon="8.03857">
        <ele>2229</ele>
        <time>2021-07-10T11:42:32.541Z</time>
      </trkpt>
      <trkpt lat="46.39097" lon="8.03856">
        <ele>2229</ele>
        <time>2021-07-10T11:42:33.541Z</time>
      </trkpt>
      <trkpt lat="46.39096" lon="8.03856">
        <ele>2229</ele>
        <time>2021-07-10T11:42:34.542Z</time>
      </trkpt>
      <trkpt lat="46.39096" lon="8.03856">
        <ele>2228</ele>
        <time>2021-07-10T11:42:35.542Z</time>
      </trkpt>
      <trkpt lat="46.39095" lon="8.03855">
        <ele>2227</ele>
        <time>2021-07-10T11:42:36.542Z</time>
      </trkpt>
      <trkpt lat="46.39094" lon="8.03855">
        <ele>2227</ele>
        <time>2021-07-10T11:42:37.542Z</time>
      </trkpt>
      <trkpt lat="46.39094" lon="8.03854">
        <ele>2227</ele>
        <time>2021-07-10T11:42:38.542Z</time>
      </trkpt>
      <trkpt lat="46.39093" lon="8.03854">
        <ele>2226</ele>
        <time>2021-07-10T11:42:39.542Z</time>
      </trkpt>
      <trkpt lat="46.39093" lon="8.03853">
        <ele>2226</ele>
        <time>2021-07-10T11:42:40.541Z</time>
      </trkpt>
      <trkpt lat="46.39092" lon="8.03852">
        <ele>2226</ele>
        <time>2021-07-10T11:42:41.542Z</time>
      </trkpt>
      <trkpt lat="46.39091" lon="8.03851">
        <ele>2226</ele>
        <time>2021-07-10T11:42:42.541Z</time>
      </trkpt>
      <trkpt lat="46.3909" lon="8.03851">
        <ele>2226</ele>
        <time>2021-07-10T11:42:43.542Z</time>
      </trkpt>
      <trkpt lat="46.3909" lon="8.03851">
        <ele>2227</ele>
        <time>2021-07-10T11:42:44.541Z</time>
      </trkpt>
      <trkpt lat="46.39089" lon="8.0385">
        <ele>2227</ele>
        <time>2021-07-10T11:42:45.542Z</time>
      </trkpt>
      <trkpt lat="46.39088" lon="8.0385">
        <ele>2227</ele>
        <time>2021-07-10T11:42:46.541Z</time>
      </trkpt>
      <trkpt lat="46.39087" lon="8.03849">
        <ele>2228</ele>
        <time>2021-07-10T11:42:47.542Z</time>
      </trkpt>
      <trkpt lat="46.39087" lon="8.03849">
        <ele>2228</ele>
        <time>2021-07-10T11:42:48.542Z</time>
      </trkpt>
      <trkpt lat="46.39086" lon="8.03849">
        <ele>2228</ele>
        <time>2021-07-10T11:42:49.542Z</time>
      </trkpt>
      <trkpt lat="46.39085" lon="8.03849">
        <ele>2228</ele>
        <time>2021-07-10T11:42:50.541Z</time>
      </trkpt>
      <trkpt lat="46.39084" lon="8.03848">
        <ele>2229</ele>
        <time>2021-07-10T11:42:51.542Z</time>
      </trkpt>
      <trkpt lat="46.39083" lon="8.03848">
        <ele>2229</ele>
        <time>2021-07-10T11:42:52.542Z</time>
      </trkpt>
      <trkpt lat="46.39083" lon="8.03848">
        <ele>2229</ele>
        <time>2021-07-10T11:42:53.542Z</time>
      </trkpt>
      <trkpt lat="46.39082" lon="8.03847">
        <ele>2229</ele>
        <time>2021-07-10T11:42:54.541Z</time>
      </trkpt>
      <trkpt lat="46.39081" lon="8.03846">
        <ele>2229</ele>
        <time>2021-07-10T11:42:55.542Z</time>
      </trkpt>
      <trkpt lat="46.39081" lon="8.03845">
        <ele>2229</ele>
        <time>2021-07-10T11:42:56.541Z</time>
      </trkpt>
      <trkpt lat="46.3908" lon="8.03844">
        <ele>2229</ele>
        <time>2021-07-10T11:42:57.542Z</time>
      </trkpt>
      <trkpt lat="46.3908" lon="8.03843">
        <ele>2229</ele>
        <time>2021-07-10T11:42:58.542Z</time>
      </trkpt>
      <trkpt lat="46.39079" lon="8.03842">
        <ele>2228</ele>
        <time>2021-07-10T11:42:59.542Z</time>
      </trkpt>
      <trkpt lat="46.39079" lon="8.03841">
        <ele>2228</ele>
        <time>2021-07-10T11:43:00.541Z</time>
      </trkpt>
      <trkpt lat="46.39078" lon="8.0384">
        <ele>2229</ele>
        <time>2021-07-10T11:43:01.541Z</time>
      </trkpt>
      <trkpt lat="46.39078" lon="8.03839">
        <ele>2228</ele>
        <time>2021-07-10T11:43:02.542Z</time>
      </trkpt>
      <trkpt lat="46.39077" lon="8.03838">
        <ele>2228</ele>
        <time>2021-07-10T11:43:03.542Z</time>
      </trkpt>
      <trkpt lat="46.39077" lon="8.03837">
        <ele>2228</ele>
        <time>2021-07-10T11:43:04.541Z</time>
      </trkpt>
      <trkpt lat="46.39076" lon="8.03836">
        <ele>2229</ele>
        <time>2021-07-10T11:43:05.541Z</time>
      </trkpt>
      <trkpt lat="46.39076" lon="8.03835">
        <ele>2229</ele>
        <time>2021-07-10T11:43:06.541Z</time>
      </trkpt>
      <trkpt lat="46.39076" lon="8.03834">
        <ele>2229</ele>
        <time>2021-07-10T11:43:07.542Z</time>
      </trkpt>
      <trkpt lat="46.39076" lon="8.03833">
        <ele>2229</ele>
        <time>2021-07-10T11:43:08.542Z</time>
      </trkpt>
      <trkpt lat="46.39076" lon="8.03832">
        <ele>2230</ele>
        <time>2021-07-10T11:43:09.542Z</time>
      </trkpt>
      <trkpt lat="46.39076" lon="8.03831">
        <ele>2229</ele>
        <time>2021-07-10T11:43:10.541Z</time>
      </trkpt>
      <trkpt lat="46.39076" lon="8.0383">
        <ele>2229</ele>
        <time>2021-07-10T11:43:11.541Z</time>
      </trkpt>
      <trkpt lat="46.39075" lon="8.03829">
        <ele>2229</ele>
        <time>2021-07-10T11:43:12.542Z</time>
      </trkpt>
      <trkpt lat="46.39075" lon="8.03829">
        <ele>2229</ele>
        <time>2021-07-10T11:43:13.542Z</time>
      </trkpt>
      <trkpt lat="46.39074" lon="8.03828">
        <ele>2229</ele>
        <time>2021-07-10T11:43:14.542Z</time>
      </trkpt>
      <trkpt lat="46.39073" lon="8.03827">
        <ele>2229</ele>
        <time>2021-07-10T11:43:15.541Z</time>
      </trkpt>
      <trkpt lat="46.39073" lon="8.03827">
        <ele>2228</ele>
        <time>2021-07-10T11:43:16.541Z</time>
      </trkpt>
      <trkpt lat="46.39073" lon="8.03826">
        <ele>2228</ele>
        <time>2021-07-10T11:43:17.542Z</time>
      </trkpt>
      <trkpt lat="46.39072" lon="8.03825">
        <ele>2228</ele>
        <time>2021-07-10T11:43:18.541Z</time>
      </trkpt>
      <trkpt lat="46.39072" lon="8.03824">
        <ele>2228</ele>
        <time>2021-07-10T11:43:19.542Z</time>
      </trkpt>
      <trkpt lat="46.39072" lon="8.03822">
        <ele>2229</ele>
        <time>2021-07-10T11:43:20.541Z</time>
      </trkpt>
      <trkpt lat="46.39071" lon="8.03821">
        <ele>2229</ele>
        <time>2021-07-10T11:43:21.541Z</time>
      </trkpt>
      <trkpt lat="46.39071" lon="8.03819">
        <ele>2229</ele>
        <time>2021-07-10T11:43:22.542Z</time>
      </trkpt>
      <trkpt lat="46.39071" lon="8.03818">
        <ele>2229</ele>
        <time>2021-07-10T11:43:23.542Z</time>
      </trkpt>
      <trkpt lat="46.3907" lon="8.03816">
        <ele>2229</ele>
        <time>2021-07-10T11:43:24.541Z</time>
      </trkpt>
      <trkpt lat="46.3907" lon="8.03815">
        <ele>2229</ele>
        <time>2021-07-10T11:43:25.541Z</time>
      </trkpt>
      <trkpt lat="46.39069" lon="8.03814">
        <ele>2229</ele>
        <time>2021-07-10T11:43:26.541Z</time>
      </trkpt>
      <trkpt lat="46.39069" lon="8.03813">
        <ele>2229</ele>
        <time>2021-07-10T11:43:27.541Z</time>
      </trkpt>
      <trkpt lat="46.39069" lon="8.03811">
        <ele>2229</ele>
        <time>2021-07-10T11:43:28.541Z</time>
      </trkpt>
      <trkpt lat="46.39068" lon="8.0381">
        <ele>2229</ele>
        <time>2021-07-10T11:43:29.541Z</time>
      </trkpt>
      <trkpt lat="46.39067" lon="8.03809">
        <ele>2229</ele>
        <time>2021-07-10T11:43:30.541Z</time>
      </trkpt>
      <trkpt lat="46.39067" lon="8.03808">
        <ele>2229</ele>
        <time>2021-07-10T11:43:31.541Z</time>
      </trkpt>
      <trkpt lat="46.39067" lon="8.03808">
        <ele>2230</ele>
        <time>2021-07-10T11:43:32.541Z</time>
      </trkpt>
      <trkpt lat="46.39067" lon="8.03807">
        <ele>2230</ele>
        <time>2021-07-10T11:43:33.542Z</time>
      </trkpt>
      <trkpt lat="46.39066" lon="8.03806">
        <ele>2230</ele>
        <time>2021-07-10T11:43:34.541Z</time>
      </trkpt>
      <trkpt lat="46.39066" lon="8.03806">
        <ele>2230</ele>
        <time>2021-07-10T11:43:35.541Z</time>
      </trkpt>
      <trkpt lat="46.39065" lon="8.03806">
        <ele>2229</ele>
        <time>2021-07-10T11:43:36.541Z</time>
      </trkpt>
      <trkpt lat="46.39064" lon="8.03805">
        <ele>2229</ele>
        <time>2021-07-10T11:43:37.541Z</time>
      </trkpt>
      <trkpt lat="46.39064" lon="8.03804">
        <ele>2228</ele>
        <time>2021-07-10T11:43:38.542Z</time>
      </trkpt>
      <trkpt lat="46.39063" lon="8.03803">
        <ele>2228</ele>
        <time>2021-07-10T11:43:39.541Z</time>
      </trkpt>
      <trkpt lat="46.39062" lon="8.03802">
        <ele>2227</ele>
        <time>2021-07-10T11:43:40.541Z</time>
      </trkpt>
      <trkpt lat="46.39062" lon="8.03801">
        <ele>2227</ele>
        <time>2021-07-10T11:43:41.542Z</time>
      </trkpt>
      <trkpt lat="46.39062" lon="8.038">
        <ele>2227</ele>
        <time>2021-07-10T11:43:42.542Z</time>
      </trkpt>
      <trkpt lat="46.39061" lon="8.03799">
        <ele>2227</ele>
        <time>2021-07-10T11:43:43.541Z</time>
      </trkpt>
      <trkpt lat="46.3906" lon="8.03799">
        <ele>2227</ele>
        <time>2021-07-10T11:43:44.541Z</time>
      </trkpt>
      <trkpt lat="46.3906" lon="8.03798">
        <ele>2227</ele>
        <time>2021-07-10T11:43:45.541Z</time>
      </trkpt>
      <trkpt lat="46.3906" lon="8.03798">
        <ele>2226</ele>
        <time>2021-07-10T11:43:46.541Z</time>
      </trkpt>
      <trkpt lat="46.3906" lon="8.03797">
        <ele>2226</ele>
        <time>2021-07-10T11:43:47.541Z</time>
      </trkpt>
      <trkpt lat="46.39059" lon="8.03796">
        <ele>2226</ele>
        <time>2021-07-10T11:43:48.542Z</time>
      </trkpt>
      <trkpt lat="46.39059" lon="8.03796">
        <ele>2225</ele>
        <time>2021-07-10T11:43:49.541Z</time>
      </trkpt>
      <trkpt lat="46.39059" lon="8.03795">
        <ele>2226</ele>
        <time>2021-07-10T11:43:50.541Z</time>
      </trkpt>
      <trkpt lat="46.39058" lon="8.03794">
        <ele>2226</ele>
        <time>2021-07-10T11:43:51.541Z</time>
      </trkpt>
      <trkpt lat="46.39057" lon="8.03794">
        <ele>2226</ele>
        <time>2021-07-10T11:43:52.542Z</time>
      </trkpt>
      <trkpt lat="46.39056" lon="8.03794">
        <ele>2227</ele>
        <time>2021-07-10T11:43:53.542Z</time>
      </trkpt>
      <trkpt lat="46.39055" lon="8.03794">
        <ele>2227</ele>
        <time>2021-07-10T11:43:54.541Z</time>
      </trkpt>
      <trkpt lat="46.39055" lon="8.03793">
        <ele>2228</ele>
        <time>2021-07-10T11:43:55.541Z</time>
      </trkpt>
      <trkpt lat="46.39054" lon="8.03793">
        <ele>2228</ele>
        <time>2021-07-10T11:43:56.541Z</time>
      </trkpt>
      <trkpt lat="46.39053" lon="8.03793">
        <ele>2228</ele>
        <time>2021-07-10T11:43:57.542Z</time>
      </trkpt>
      <trkpt lat="46.39052" lon="8.03792">
        <ele>2229</ele>
        <time>2021-07-10T11:43:58.541Z</time>
      </trkpt>
      <trkpt lat="46.39052" lon="8.03792">
        <ele>2230</ele>
        <time>2021-07-10T11:43:59.541Z</time>
      </trkpt>
      <trkpt lat="46.39051" lon="8.03791">
        <ele>2231</ele>
        <time>2021-07-10T11:44:00.541Z</time>
      </trkpt>
      <trkpt lat="46.3905" lon="8.03791">
        <ele>2232</ele>
        <time>2021-07-10T11:44:01.542Z</time>
      </trkpt>
      <trkpt lat="46.39049" lon="8.03791">
        <ele>2233</ele>
        <time>2021-07-10T11:44:02.541Z</time>
      </trkpt>
      <trkpt lat="46.39049" lon="8.03791">
        <ele>2233</ele>
        <time>2021-07-10T11:44:03.541Z</time>
      </trkpt>
      <trkpt lat="46.39048" lon="8.0379">
        <ele>2233</ele>
        <time>2021-07-10T11:44:04.541Z</time>
      </trkpt>
      <trkpt lat="46.39048" lon="8.03789">
        <ele>2234</ele>
        <time>2021-07-10T11:44:05.541Z</time>
      </trkpt>
      <trkpt lat="46.39047" lon="8.03788">
        <ele>2234</ele>
        <time>2021-07-10T11:44:06.541Z</time>
      </trkpt>
      <trkpt lat="46.39047" lon="8.03787">
        <ele>2234</ele>
        <time>2021-07-10T11:44:07.541Z</time>
      </trkpt>
      <trkpt lat="46.39046" lon="8.03785">
        <ele>2234</ele>
        <time>2021-07-10T11:44:08.542Z</time>
      </trkpt>
      <trkpt lat="46.39046" lon="8.03784">
        <ele>2233</ele>
        <time>2021-07-10T11:44:09.541Z</time>
      </trkpt>
      <trkpt lat="46.39045" lon="8.03783">
        <ele>2233</ele>
        <time>2021-07-10T11:44:10.541Z</time>
      </trkpt>
      <trkpt lat="46.39045" lon="8.03782">
        <ele>2232</ele>
        <time>2021-07-10T11:44:11.541Z</time>
      </trkpt>
      <trkpt lat="46.39045" lon="8.03781">
        <ele>2232</ele>
        <time>2021-07-10T11:44:12.541Z</time>
      </trkpt>
      <trkpt lat="46.39044" lon="8.0378">
        <ele>2231</ele>
        <time>2021-07-10T11:44:13.541Z</time>
      </trkpt>
      <trkpt lat="46.39043" lon="8.03778">
        <ele>2231</ele>
        <time>2021-07-10T11:44:14.541Z</time>
      </trkpt>
      <trkpt lat="46.39043" lon="8.03777">
        <ele>2231</ele>
        <time>2021-07-10T11:44:15.541Z</time>
      </trkpt>
      <trkpt lat="46.39042" lon="8.03776">
        <ele>2231</ele>
        <time>2021-07-10T11:44:16.541Z</time>
      </trkpt>
      <trkpt lat="46.39042" lon="8.03775">
        <ele>2231</ele>
        <time>2021-07-10T11:44:17.542Z</time>
      </trkpt>
      <trkpt lat="46.39042" lon="8.03774">
        <ele>2231</ele>
        <time>2021-07-10T11:44:18.541Z</time>
      </trkpt>
      <trkpt lat="46.39041" lon="8.03773">
        <ele>2231</ele>
        <time>2021-07-10T11:44:19.541Z</time>
      </trkpt>
      <trkpt lat="46.39041" lon="8.03772">
        <ele>2230</ele>
        <time>2021-07-10T11:44:20.541Z</time>
      </trkpt>
      <trkpt lat="46.39041" lon="8.03771">
        <ele>2230</ele>
        <time>2021-07-10T11:44:21.541Z</time>
      </trkpt>
      <trkpt lat="46.3904" lon="8.0377">
        <ele>2230</ele>
        <time>2021-07-10T11:44:22.542Z</time>
      </trkpt>
      <trkpt lat="46.3904" lon="8.03769">
        <ele>2230</ele>
        <time>2021-07-10T11:44:23.542Z</time>
      </trkpt>
      <trkpt lat="46.39039" lon="8.03768">
        <ele>2230</ele>
        <time>2021-07-10T11:44:24.541Z</time>
      </trkpt>
      <trkpt lat="46.39039" lon="8.03767">
        <ele>2230</ele>
        <time>2021-07-10T11:44:25.541Z</time>
      </trkpt>
      <trkpt lat="46.39038" lon="8.03766">
        <ele>2231</ele>
        <time>2021-07-10T11:44:26.541Z</time>
      </trkpt>
      <trkpt lat="46.39037" lon="8.03765">
        <ele>2231</ele>
        <time>2021-07-10T11:44:27.541Z</time>
      </trkpt>
      <trkpt lat="46.39036" lon="8.03764">
        <ele>2232</ele>
        <time>2021-07-10T11:44:28.541Z</time>
      </trkpt>
      <trkpt lat="46.39036" lon="8.03763">
        <ele>2232</ele>
        <time>2021-07-10T11:44:29.541Z</time>
      </trkpt>
      <trkpt lat="46.39035" lon="8.03762">
        <ele>2232</ele>
        <time>2021-07-10T11:44:30.541Z</time>
      </trkpt>
      <trkpt lat="46.39034" lon="8.03761">
        <ele>2233</ele>
        <time>2021-07-10T11:44:31.541Z</time>
      </trkpt>
      <trkpt lat="46.39034" lon="8.0376">
        <ele>2233</ele>
        <time>2021-07-10T11:44:32.542Z</time>
      </trkpt>
      <trkpt lat="46.39033" lon="8.03759">
        <ele>2232</ele>
        <time>2021-07-10T11:44:33.541Z</time>
      </trkpt>
      <trkpt lat="46.39032" lon="8.03758">
        <ele>2232</ele>
        <time>2021-07-10T11:44:34.541Z</time>
      </trkpt>
      <trkpt lat="46.39031" lon="8.03758">
        <ele>2232</ele>
        <time>2021-07-10T11:44:35.541Z</time>
      </trkpt>
      <trkpt lat="46.39031" lon="8.03757">
        <ele>2232</ele>
        <time>2021-07-10T11:44:36.541Z</time>
      </trkpt>
      <trkpt lat="46.3903" lon="8.03756">
        <ele>2232</ele>
        <time>2021-07-10T11:44:37.541Z</time>
      </trkpt>
      <trkpt lat="46.3903" lon="8.03755">
        <ele>2232</ele>
        <time>2021-07-10T11:44:38.541Z</time>
      </trkpt>
      <trkpt lat="46.39029" lon="8.03754">
        <ele>2232</ele>
        <time>2021-07-10T11:44:39.542Z</time>
      </trkpt>
      <trkpt lat="46.39029" lon="8.03753">
        <ele>2233</ele>
        <time>2021-07-10T11:44:40.541Z</time>
      </trkpt>
      <trkpt lat="46.39028" lon="8.03753">
        <ele>2233</ele>
        <time>2021-07-10T11:44:41.541Z</time>
      </trkpt>
      <trkpt lat="46.39028" lon="8.03753">
        <ele>2233</ele>
        <time>2021-07-10T11:44:42.541Z</time>
      </trkpt>
      <trkpt lat="46.39028" lon="8.03752">
        <ele>2233</ele>
        <time>2021-07-10T11:44:43.541Z</time>
      </trkpt>
      <trkpt lat="46.39028" lon="8.03752">
        <ele>2234</ele>
        <time>2021-07-10T11:44:44.541Z</time>
      </trkpt>
      <trkpt lat="46.39028" lon="8.03751">
        <ele>2234</ele>
        <time>2021-07-10T11:44:45.542Z</time>
      </trkpt>
      <trkpt lat="46.39028" lon="8.03751">
        <ele>2234</ele>
        <time>2021-07-10T11:44:46.541Z</time>
      </trkpt>
      <trkpt lat="46.39028" lon="8.0375">
        <ele>2238</ele>
        <time>2021-07-10T11:44:47.543Z</time>
      </trkpt>
      <trkpt lat="46.39028" lon="8.0375">
        <ele>2238</ele>
        <time>2021-07-10T11:44:48.543Z</time>
      </trkpt>
      <trkpt lat="46.39028" lon="8.0375">
        <ele>2238</ele>
        <time>2021-07-10T11:44:49.542Z</time>
      </trkpt>
      <trkpt lat="46.39028" lon="8.0375">
        <ele>2239</ele>
        <time>2021-07-10T11:44:50.543Z</time>
      </trkpt>
      <trkpt lat="46.39028" lon="8.03748">
        <ele>2239</ele>
        <time>2021-07-10T11:44:51.544Z</time>
      </trkpt>
      <trkpt lat="46.39027" lon="8.03747">
        <ele>2239</ele>
        <time>2021-07-10T11:44:52.544Z</time>
      </trkpt>
      <trkpt lat="46.39027" lon="8.03747">
        <ele>2239</ele>
        <time>2021-07-10T11:44:53.544Z</time>
      </trkpt>
      <trkpt lat="46.39026" lon="8.03746">
        <ele>2239</ele>
        <time>2021-07-10T11:44:54.544Z</time>
      </trkpt>
      <trkpt lat="46.39026" lon="8.03745">
        <ele>2239</ele>
        <time>2021-07-10T11:44:55.543Z</time>
      </trkpt>
      <trkpt lat="46.39025" lon="8.03744">
        <ele>2239</ele>
        <time>2021-07-10T11:44:56.544Z</time>
      </trkpt>
      <trkpt lat="46.39024" lon="8.03744">
        <ele>2239</ele>
        <time>2021-07-10T11:44:57.544Z</time>
      </trkpt>
      <trkpt lat="46.39024" lon="8.03744">
        <ele>2239</ele>
        <time>2021-07-10T11:44:58.543Z</time>
      </trkpt>
      <trkpt lat="46.39023" lon="8.03744">
        <ele>2239</ele>
        <time>2021-07-10T11:44:59.543Z</time>
      </trkpt>
      <trkpt lat="46.39023" lon="8.03744">
        <ele>2240</ele>
        <time>2021-07-10T11:45:00.543Z</time>
      </trkpt>
      <trkpt lat="46.39023" lon="8.03744">
        <ele>2240</ele>
        <time>2021-07-10T11:45:01.543Z</time>
      </trkpt>
      <trkpt lat="46.39023" lon="8.03744">
        <ele>2240</ele>
        <time>2021-07-10T11:45:02.543Z</time>
      </trkpt>
      <trkpt lat="46.39023" lon="8.03745">
        <ele>2241</ele>
        <time>2021-07-10T11:45:03.543Z</time>
      </trkpt>
      <trkpt lat="46.39024" lon="8.03745">
        <ele>2241</ele>
        <time>2021-07-10T11:45:04.543Z</time>
      </trkpt>
      <trkpt lat="46.39024" lon="8.03744">
        <ele>2241</ele>
        <time>2021-07-10T11:45:05.543Z</time>
      </trkpt>
      <trkpt lat="46.39025" lon="8.03744">
        <ele>2240</ele>
        <time>2021-07-10T11:45:06.543Z</time>
      </trkpt>
      <trkpt lat="46.39024" lon="8.03743">
        <ele>2238</ele>
        <time>2021-07-10T11:45:07.544Z</time>
      </trkpt>
      <trkpt lat="46.39024" lon="8.03742">
        <ele>2238</ele>
        <time>2021-07-10T11:45:08.543Z</time>
      </trkpt>
      <trkpt lat="46.39026" lon="8.03742">
        <ele>2236</ele>
        <time>2021-07-10T11:45:09.544Z</time>
      </trkpt>
      <trkpt lat="46.39027" lon="8.03742">
        <ele>2236</ele>
        <time>2021-07-10T11:45:10.544Z</time>
      </trkpt>
      <trkpt lat="46.39028" lon="8.03742">
        <ele>2235</ele>
        <time>2021-07-10T11:45:11.543Z</time>
      </trkpt>
      <trkpt lat="46.39028" lon="8.03742">
        <ele>2236</ele>
        <time>2021-07-10T11:45:12.544Z</time>
      </trkpt>
      <trkpt lat="46.39029" lon="8.03743">
        <ele>2236</ele>
        <time>2021-07-10T11:45:13.544Z</time>
      </trkpt>
      <trkpt lat="46.39029" lon="8.03744">
        <ele>2236</ele>
        <time>2021-07-10T11:45:14.543Z</time>
      </trkpt>
      <trkpt lat="46.3903" lon="8.03744">
        <ele>2236</ele>
        <time>2021-07-10T11:45:15.544Z</time>
      </trkpt>
      <trkpt lat="46.39031" lon="8.03745">
        <ele>2236</ele>
        <time>2021-07-10T11:45:16.544Z</time>
      </trkpt>
      <trkpt lat="46.39031" lon="8.03746">
        <ele>2236</ele>
        <time>2021-07-10T11:45:17.544Z</time>
      </trkpt>
      <trkpt lat="46.39031" lon="8.03746">
        <ele>2237</ele>
        <time>2021-07-10T11:45:18.544Z</time>
      </trkpt>
      <trkpt lat="46.39031" lon="8.03746">
        <ele>2237</ele>
        <time>2021-07-10T11:45:19.544Z</time>
      </trkpt>
      <trkpt lat="46.39032" lon="8.03746">
        <ele>2237</ele>
        <time>2021-07-10T11:45:20.543Z</time>
      </trkpt>
      <trkpt lat="46.39032" lon="8.03745">
        <ele>2237</ele>
        <time>2021-07-10T11:45:21.544Z</time>
      </trkpt>
      <trkpt lat="46.39031" lon="8.03744">
        <ele>2234</ele>
        <time>2021-07-10T11:45:22.544Z</time>
      </trkpt>
      <trkpt lat="46.39031" lon="8.03744">
        <ele>2234</ele>
        <time>2021-07-10T11:45:23.543Z</time>
      </trkpt>
      <trkpt lat="46.3903" lon="8.03745">
        <ele>2234</ele>
        <time>2021-07-10T11:45:24.545Z</time>
      </trkpt>
      <trkpt lat="46.39031" lon="8.03744">
        <ele>2235</ele>
        <time>2021-07-10T11:45:25.544Z</time>
      </trkpt>
      <trkpt lat="46.39032" lon="8.03744">
        <ele>2235</ele>
        <time>2021-07-10T11:45:26.545Z</time>
      </trkpt>
      <trkpt lat="46.39032" lon="8.03744">
        <ele>2235</ele>
        <time>2021-07-10T11:45:27.545Z</time>
      </trkpt>
      <trkpt lat="46.39035" lon="8.03746">
        <ele>2236</ele>
        <time>2021-07-10T11:45:28.545Z</time>
      </trkpt>
      <trkpt lat="46.39035" lon="8.03746">
        <ele>2236</ele>
        <time>2021-07-10T11:45:29.545Z</time>
      </trkpt>
      <trkpt lat="46.39035" lon="8.03745">
        <ele>2238</ele>
        <time>2021-07-10T11:45:30.545Z</time>
      </trkpt>
      <trkpt lat="46.39035" lon="8.03744">
        <ele>2238</ele>
        <time>2021-07-10T11:45:31.546Z</time>
      </trkpt>
      <trkpt lat="46.39035" lon="8.03744">
        <ele>2238</ele>
        <time>2021-07-10T11:45:32.545Z</time>
      </trkpt>
      <trkpt lat="46.39034" lon="8.03743">
        <ele>2238</ele>
        <time>2021-07-10T11:45:33.547Z</time>
      </trkpt>
      <trkpt lat="46.39034" lon="8.03744">
        <ele>2238</ele>
        <time>2021-07-10T11:45:34.547Z</time>
      </trkpt>
      <trkpt lat="46.39034" lon="8.03744">
        <ele>2239</ele>
        <time>2021-07-10T11:45:35.546Z</time>
      </trkpt>
      <trkpt lat="46.39033" lon="8.03746">
        <ele>2236</ele>
        <time>2021-07-10T11:45:36.547Z</time>
      </trkpt>
      <trkpt lat="46.39033" lon="8.03746">
        <ele>2236</ele>
        <time>2021-07-10T11:45:37.548Z</time>
      </trkpt>
      <trkpt lat="46.39034" lon="8.03748">
        <ele>2236</ele>
        <time>2021-07-10T11:45:38.547Z</time>
      </trkpt>
      <trkpt lat="46.39034" lon="8.03749">
        <ele>2236</ele>
        <time>2021-07-10T11:45:39.548Z</time>
      </trkpt>
      <trkpt lat="46.39034" lon="8.0375">
        <ele>2236</ele>
        <time>2021-07-10T11:45:40.548Z</time>
      </trkpt>
      <trkpt lat="46.39034" lon="8.0375">
        <ele>2236</ele>
        <time>2021-07-10T11:45:41.547Z</time>
      </trkpt>
      <trkpt lat="46.39033" lon="8.03751">
        <ele>2237</ele>
        <time>2021-07-10T11:45:42.548Z</time>
      </trkpt>
      <trkpt lat="46.39033" lon="8.03752">
        <ele>2237</ele>
        <time>2021-07-10T11:45:43.548Z</time>
      </trkpt>
      <trkpt lat="46.39032" lon="8.03753">
        <ele>2237</ele>
        <time>2021-07-10T11:45:44.548Z</time>
      </trkpt>
      <trkpt lat="46.39032" lon="8.03754">
        <ele>2238</ele>
        <time>2021-07-10T11:45:45.547Z</time>
      </trkpt>
      <trkpt lat="46.39032" lon="8.03755">
        <ele>2238</ele>
        <time>2021-07-10T11:45:46.547Z</time>
      </trkpt>
      <trkpt lat="46.39031" lon="8.03756">
        <ele>2238</ele>
        <time>2021-07-10T11:45:47.548Z</time>
      </trkpt>
      <trkpt lat="46.39031" lon="8.03757">
        <ele>2238</ele>
        <time>2021-07-10T11:45:48.548Z</time>
      </trkpt>
      <trkpt lat="46.39031" lon="8.03758">
        <ele>2238</ele>
        <time>2021-07-10T11:45:49.548Z</time>
      </trkpt>
      <trkpt lat="46.39032" lon="8.03759">
        <ele>2238</ele>
        <time>2021-07-10T11:45:50.547Z</time>
      </trkpt>
      <trkpt lat="46.39032" lon="8.03761">
        <ele>2238</ele>
        <time>2021-07-10T11:45:51.547Z</time>
      </trkpt>
      <trkpt lat="46.39033" lon="8.03762">
        <ele>2238</ele>
        <time>2021-07-10T11:45:52.548Z</time>
      </trkpt>
      <trkpt lat="46.39034" lon="8.03763">
        <ele>2238</ele>
        <time>2021-07-10T11:45:53.548Z</time>
      </trkpt>
      <trkpt lat="46.39035" lon="8.03765">
        <ele>2238</ele>
        <time>2021-07-10T11:45:54.548Z</time>
      </trkpt>
      <trkpt lat="46.39036" lon="8.03766">
        <ele>2238</ele>
        <time>2021-07-10T11:45:55.547Z</time>
      </trkpt>
      <trkpt lat="46.39037" lon="8.03767">
        <ele>2238</ele>
        <time>2021-07-10T11:45:56.548Z</time>
      </trkpt>
      <trkpt lat="46.39038" lon="8.03768">
        <ele>2238</ele>
        <time>2021-07-10T11:45:57.548Z</time>
      </trkpt>
      <trkpt lat="46.39038" lon="8.03769">
        <ele>2238</ele>
        <time>2021-07-10T11:45:58.548Z</time>
      </trkpt>
      <trkpt lat="46.39039" lon="8.0377">
        <ele>2238</ele>
        <time>2021-07-10T11:45:59.548Z</time>
      </trkpt>
      <trkpt lat="46.39039" lon="8.03771">
        <ele>2237</ele>
        <time>2021-07-10T11:46:00.548Z</time>
      </trkpt>
      <trkpt lat="46.3904" lon="8.03772">
        <ele>2237</ele>
        <time>2021-07-10T11:46:01.547Z</time>
      </trkpt>
      <trkpt lat="46.3904" lon="8.03773">
        <ele>2237</ele>
        <time>2021-07-10T11:46:02.548Z</time>
      </trkpt>
      <trkpt lat="46.39041" lon="8.03774">
        <ele>2237</ele>
        <time>2021-07-10T11:46:03.548Z</time>
      </trkpt>
      <trkpt lat="46.39043" lon="8.03774">
        <ele>2237</ele>
        <time>2021-07-10T11:46:04.547Z</time>
      </trkpt>
      <trkpt lat="46.39044" lon="8.03774">
        <ele>2237</ele>
        <time>2021-07-10T11:46:05.548Z</time>
      </trkpt>
      <trkpt lat="46.39045" lon="8.03774">
        <ele>2237</ele>
        <time>2021-07-10T11:46:06.547Z</time>
      </trkpt>
      <trkpt lat="46.39046" lon="8.03774">
        <ele>2236</ele>
        <time>2021-07-10T11:46:07.548Z</time>
      </trkpt>
      <trkpt lat="46.39047" lon="8.03774">
        <ele>2236</ele>
        <time>2021-07-10T11:46:08.547Z</time>
      </trkpt>
      <trkpt lat="46.39048" lon="8.03775">
        <ele>2236</ele>
        <time>2021-07-10T11:46:09.547Z</time>
      </trkpt>
      <trkpt lat="46.39049" lon="8.03775">
        <ele>2236</ele>
        <time>2021-07-10T11:46:10.547Z</time>
      </trkpt>
      <trkpt lat="46.3905" lon="8.03776">
        <ele>2236</ele>
        <time>2021-07-10T11:46:11.547Z</time>
      </trkpt>
      <trkpt lat="46.39051" lon="8.03776">
        <ele>2236</ele>
        <time>2021-07-10T11:46:12.548Z</time>
      </trkpt>
      <trkpt lat="46.39052" lon="8.03777">
        <ele>2236</ele>
        <time>2021-07-10T11:46:13.548Z</time>
      </trkpt>
      <trkpt lat="46.39053" lon="8.03779">
        <ele>2236</ele>
        <time>2021-07-10T11:46:14.548Z</time>
      </trkpt>
      <trkpt lat="46.39054" lon="8.0378">
        <ele>2236</ele>
        <time>2021-07-10T11:46:15.547Z</time>
      </trkpt>
      <trkpt lat="46.39055" lon="8.03781">
        <ele>2235</ele>
        <time>2021-07-10T11:46:16.547Z</time>
      </trkpt>
      <trkpt lat="46.39055" lon="8.03782">
        <ele>2235</ele>
        <time>2021-07-10T11:46:17.548Z</time>
      </trkpt>
      <trkpt lat="46.39056" lon="8.03783">
        <ele>2235</ele>
        <time>2021-07-10T11:46:18.548Z</time>
      </trkpt>
      <trkpt lat="46.39057" lon="8.03784">
        <ele>2235</ele>
        <time>2021-07-10T11:46:19.548Z</time>
      </trkpt>
      <trkpt lat="46.39057" lon="8.03785">
        <ele>2235</ele>
        <time>2021-07-10T11:46:20.547Z</time>
      </trkpt>
      <trkpt lat="46.39058" lon="8.03787">
        <ele>2234</ele>
        <time>2021-07-10T11:46:21.548Z</time>
      </trkpt>
      <trkpt lat="46.39058" lon="8.03788">
        <ele>2234</ele>
        <time>2021-07-10T11:46:22.547Z</time>
      </trkpt>
      <trkpt lat="46.39058" lon="8.0379">
        <ele>2234</ele>
        <time>2021-07-10T11:46:23.548Z</time>
      </trkpt>
      <trkpt lat="46.39058" lon="8.03791">
        <ele>2234</ele>
        <time>2021-07-10T11:46:24.547Z</time>
      </trkpt>
      <trkpt lat="46.39059" lon="8.03793">
        <ele>2234</ele>
        <time>2021-07-10T11:46:25.548Z</time>
      </trkpt>
      <trkpt lat="46.39059" lon="8.03794">
        <ele>2234</ele>
        <time>2021-07-10T11:46:26.547Z</time>
      </trkpt>
      <trkpt lat="46.39059" lon="8.03795">
        <ele>2234</ele>
        <time>2021-07-10T11:46:27.547Z</time>
      </trkpt>
      <trkpt lat="46.39059" lon="8.03797">
        <ele>2234</ele>
        <time>2021-07-10T11:46:28.548Z</time>
      </trkpt>
      <trkpt lat="46.3906" lon="8.03798">
        <ele>2235</ele>
        <time>2021-07-10T11:46:29.547Z</time>
      </trkpt>
      <trkpt lat="46.39061" lon="8.03799">
        <ele>2235</ele>
        <time>2021-07-10T11:46:30.548Z</time>
      </trkpt>
      <trkpt lat="46.39062" lon="8.03801">
        <ele>2235</ele>
        <time>2021-07-10T11:46:31.547Z</time>
      </trkpt>
      <trkpt lat="46.39062" lon="8.03802">
        <ele>2235</ele>
        <time>2021-07-10T11:46:32.548Z</time>
      </trkpt>
      <trkpt lat="46.39063" lon="8.03804">
        <ele>2235</ele>
        <time>2021-07-10T11:46:33.548Z</time>
      </trkpt>
      <trkpt lat="46.39063" lon="8.03805">
        <ele>2235</ele>
        <time>2021-07-10T11:46:34.548Z</time>
      </trkpt>
      <trkpt lat="46.39064" lon="8.03806">
        <ele>2235</ele>
        <time>2021-07-10T11:46:35.547Z</time>
      </trkpt>
      <trkpt lat="46.39065" lon="8.03807">
        <ele>2235</ele>
        <time>2021-07-10T11:46:36.548Z</time>
      </trkpt>
      <trkpt lat="46.39066" lon="8.03808">
        <ele>2235</ele>
        <time>2021-07-10T11:46:37.547Z</time>
      </trkpt>
      <trkpt lat="46.39066" lon="8.0381">
        <ele>2235</ele>
        <time>2021-07-10T11:46:38.547Z</time>
      </trkpt>
      <trkpt lat="46.39067" lon="8.03811">
        <ele>2235</ele>
        <time>2021-07-10T11:46:39.548Z</time>
      </trkpt>
      <trkpt lat="46.39068" lon="8.03812">
        <ele>2235</ele>
        <time>2021-07-10T11:46:40.547Z</time>
      </trkpt>
      <trkpt lat="46.39069" lon="8.03813">
        <ele>2235</ele>
        <time>2021-07-10T11:46:41.547Z</time>
      </trkpt>
      <trkpt lat="46.39069" lon="8.03815">
        <ele>2235</ele>
        <time>2021-07-10T11:46:42.548Z</time>
      </trkpt>
      <trkpt lat="46.3907" lon="8.03816">
        <ele>2234</ele>
        <time>2021-07-10T11:46:43.548Z</time>
      </trkpt>
      <trkpt lat="46.3907" lon="8.03817">
        <ele>2234</ele>
        <time>2021-07-10T11:46:44.548Z</time>
      </trkpt>
      <trkpt lat="46.39071" lon="8.03819">
        <ele>2234</ele>
        <time>2021-07-10T11:46:45.548Z</time>
      </trkpt>
      <trkpt lat="46.39071" lon="8.03821">
        <ele>2234</ele>
        <time>2021-07-10T11:46:46.548Z</time>
      </trkpt>
      <trkpt lat="46.39071" lon="8.03822">
        <ele>2234</ele>
        <time>2021-07-10T11:46:47.548Z</time>
      </trkpt>
      <trkpt lat="46.39071" lon="8.03824">
        <ele>2234</ele>
        <time>2021-07-10T11:46:48.548Z</time>
      </trkpt>
      <trkpt lat="46.39072" lon="8.03825">
        <ele>2234</ele>
        <time>2021-07-10T11:46:49.547Z</time>
      </trkpt>
      <trkpt lat="46.39072" lon="8.03826">
        <ele>2234</ele>
        <time>2021-07-10T11:46:50.548Z</time>
      </trkpt>
      <trkpt lat="46.39073" lon="8.03828">
        <ele>2234</ele>
        <time>2021-07-10T11:46:51.547Z</time>
      </trkpt>
      <trkpt lat="46.39073" lon="8.03829">
        <ele>2234</ele>
        <time>2021-07-10T11:46:52.548Z</time>
      </trkpt>
      <trkpt lat="46.39073" lon="8.0383">
        <ele>2234</ele>
        <time>2021-07-10T11:46:53.548Z</time>
      </trkpt>
      <trkpt lat="46.39074" lon="8.03831">
        <ele>2234</ele>
        <time>2021-07-10T11:46:54.548Z</time>
      </trkpt>
      <trkpt lat="46.39074" lon="8.03833">
        <ele>2234</ele>
        <time>2021-07-10T11:46:55.548Z</time>
      </trkpt>
      <trkpt lat="46.39075" lon="8.03834">
        <ele>2234</ele>
        <time>2021-07-10T11:46:56.547Z</time>
      </trkpt>
      <trkpt lat="46.39075" lon="8.03835">
        <ele>2234</ele>
        <time>2021-07-10T11:46:57.548Z</time>
      </trkpt>
      <trkpt lat="46.39076" lon="8.03837">
        <ele>2234</ele>
        <time>2021-07-10T11:46:58.547Z</time>
      </trkpt>
      <trkpt lat="46.39077" lon="8.03838">
        <ele>2234</ele>
        <time>2021-07-10T11:46:59.547Z</time>
      </trkpt>
      <trkpt lat="46.39077" lon="8.03839">
        <ele>2234</ele>
        <time>2021-07-10T11:47:00.547Z</time>
      </trkpt>
      <trkpt lat="46.39078" lon="8.0384">
        <ele>2234</ele>
        <time>2021-07-10T11:47:01.547Z</time>
      </trkpt>
      <trkpt lat="46.39078" lon="8.03842">
        <ele>2234</ele>
        <time>2021-07-10T11:47:02.547Z</time>
      </trkpt>
      <trkpt lat="46.39079" lon="8.03843">
        <ele>2234</ele>
        <time>2021-07-10T11:47:03.547Z</time>
      </trkpt>
      <trkpt lat="46.39079" lon="8.03844">
        <ele>2234</ele>
        <time>2021-07-10T11:47:04.547Z</time>
      </trkpt>
      <trkpt lat="46.3908" lon="8.03846">
        <ele>2234</ele>
        <time>2021-07-10T11:47:05.548Z</time>
      </trkpt>
      <trkpt lat="46.39081" lon="8.03847">
        <ele>2233</ele>
        <time>2021-07-10T11:47:06.547Z</time>
      </trkpt>
      <trkpt lat="46.39082" lon="8.03848">
        <ele>2233</ele>
        <time>2021-07-10T11:47:07.548Z</time>
      </trkpt>
      <trkpt lat="46.39083" lon="8.03849">
        <ele>2233</ele>
        <time>2021-07-10T11:47:08.548Z</time>
      </trkpt>
      <trkpt lat="46.39084" lon="8.0385">
        <ele>2233</ele>
        <time>2021-07-10T11:47:09.547Z</time>
      </trkpt>
      <trkpt lat="46.39085" lon="8.0385">
        <ele>2233</ele>
        <time>2021-07-10T11:47:10.547Z</time>
      </trkpt>
      <trkpt lat="46.39086" lon="8.03851">
        <ele>2233</ele>
        <time>2021-07-10T11:47:11.548Z</time>
      </trkpt>
      <trkpt lat="46.39087" lon="8.03851">
        <ele>2232</ele>
        <time>2021-07-10T11:47:12.548Z</time>
      </trkpt>
      <trkpt lat="46.39088" lon="8.03852">
        <ele>2232</ele>
        <time>2021-07-10T11:47:13.547Z</time>
      </trkpt>
      <trkpt lat="46.39089" lon="8.03852">
        <ele>2232</ele>
        <time>2021-07-10T11:47:14.548Z</time>
      </trkpt>
      <trkpt lat="46.3909" lon="8.03852">
        <ele>2231</ele>
        <time>2021-07-10T11:47:15.548Z</time>
      </trkpt>
      <trkpt lat="46.39091" lon="8.03853">
        <ele>2231</ele>
        <time>2021-07-10T11:47:16.547Z</time>
      </trkpt>
      <trkpt lat="46.39092" lon="8.03854">
        <ele>2232</ele>
        <time>2021-07-10T11:47:17.548Z</time>
      </trkpt>
      <trkpt lat="46.39093" lon="8.03855">
        <ele>2232</ele>
        <time>2021-07-10T11:47:18.548Z</time>
      </trkpt>
      <trkpt lat="46.39094" lon="8.03855">
        <ele>2232</ele>
        <time>2021-07-10T11:47:19.547Z</time>
      </trkpt>
      <trkpt lat="46.39095" lon="8.03856">
        <ele>2231</ele>
        <time>2021-07-10T11:47:20.548Z</time>
      </trkpt>
      <trkpt lat="46.39096" lon="8.03856">
        <ele>2231</ele>
        <time>2021-07-10T11:47:21.547Z</time>
      </trkpt>
      <trkpt lat="46.39096" lon="8.03856">
        <ele>2231</ele>
        <time>2021-07-10T11:47:22.547Z</time>
      </trkpt>
      <trkpt lat="46.39097" lon="8.03856">
        <ele>2231</ele>
        <time>2021-07-10T11:47:23.548Z</time>
      </trkpt>
      <trkpt lat="46.39099" lon="8.03856">
        <ele>2232</ele>
        <time>2021-07-10T11:47:24.548Z</time>
      </trkpt>
      <trkpt lat="46.391" lon="8.03856">
        <ele>2232</ele>
        <time>2021-07-10T11:47:25.548Z</time>
      </trkpt>
      <trkpt lat="46.39101" lon="8.03855">
        <ele>2231</ele>
        <time>2021-07-10T11:47:26.547Z</time>
      </trkpt>
      <trkpt lat="46.39101" lon="8.03854">
        <ele>2231</ele>
        <time>2021-07-10T11:47:27.548Z</time>
      </trkpt>
      <trkpt lat="46.39102" lon="8.03854">
        <ele>2231</ele>
        <time>2021-07-10T11:47:28.548Z</time>
      </trkpt>
      <trkpt lat="46.39102" lon="8.03853">
        <ele>2230</ele>
        <time>2021-07-10T11:47:29.547Z</time>
      </trkpt>
      <trkpt lat="46.39102" lon="8.03849">
        <ele>2228</ele>
        <time>2021-07-10T11:47:30.547Z</time>
      </trkpt>
      <trkpt lat="46.39102" lon="8.03849">
        <ele>2228</ele>
        <time>2021-07-10T11:47:31.547Z</time>
      </trkpt>
      <trkpt lat="46.39102" lon="8.03848">
        <ele>2229</ele>
        <time>2021-07-10T11:47:32.548Z</time>
      </trkpt>
      <trkpt lat="46.39103" lon="8.03848">
        <ele>2229</ele>
        <time>2021-07-10T11:47:33.547Z</time>
      </trkpt>
      <trkpt lat="46.39103" lon="8.03847">
        <ele>2229</ele>
        <time>2021-07-10T11:47:34.547Z</time>
      </trkpt>
      <trkpt lat="46.39104" lon="8.03847">
        <ele>2229</ele>
        <time>2021-07-10T11:47:35.548Z</time>
      </trkpt>
      <trkpt lat="46.39104" lon="8.03846">
        <ele>2229</ele>
        <time>2021-07-10T11:47:36.548Z</time>
      </trkpt>
      <trkpt lat="46.39105" lon="8.03846">
        <ele>2229</ele>
        <time>2021-07-10T11:47:37.548Z</time>
      </trkpt>
      <trkpt lat="46.39105" lon="8.03845">
        <ele>2230</ele>
        <time>2021-07-10T11:47:38.548Z</time>
      </trkpt>
      <trkpt lat="46.39105" lon="8.03844">
        <ele>2230</ele>
        <time>2021-07-10T11:47:39.548Z</time>
      </trkpt>
      <trkpt lat="46.39105" lon="8.03843">
        <ele>2230</ele>
        <time>2021-07-10T11:47:40.548Z</time>
      </trkpt>
      <trkpt lat="46.39106" lon="8.03843">
        <ele>2230</ele>
        <time>2021-07-10T11:47:41.547Z</time>
      </trkpt>
      <trkpt lat="46.39106" lon="8.03843">
        <ele>2230</ele>
        <time>2021-07-10T11:47:42.547Z</time>
      </trkpt>
      <trkpt lat="46.39107" lon="8.03837">
        <ele>2225</ele>
        <time>2021-07-10T11:47:43.547Z</time>
      </trkpt>
      <trkpt lat="46.39108" lon="8.03836">
        <ele>2225</ele>
        <time>2021-07-10T11:47:44.547Z</time>
      </trkpt>
      <trkpt lat="46.39109" lon="8.03834">
        <ele>2225</ele>
        <time>2021-07-10T11:47:45.547Z</time>
      </trkpt>
      <trkpt lat="46.39109" lon="8.03833">
        <ele>2225</ele>
        <time>2021-07-10T11:47:46.548Z</time>
      </trkpt>
      <trkpt lat="46.39109" lon="8.03831">
        <ele>2225</ele>
        <time>2021-07-10T11:47:47.548Z</time>
      </trkpt>
      <trkpt lat="46.39109" lon="8.0383">
        <ele>2225</ele>
        <time>2021-07-10T11:47:48.547Z</time>
      </trkpt>
      <trkpt lat="46.3911" lon="8.0383">
        <ele>2225</ele>
        <time>2021-07-10T11:47:49.547Z</time>
      </trkpt>
      <trkpt lat="46.3911" lon="8.03829">
        <ele>2226</ele>
        <time>2021-07-10T11:47:50.547Z</time>
      </trkpt>
      <trkpt lat="46.39111" lon="8.03828">
        <ele>2226</ele>
        <time>2021-07-10T11:47:51.547Z</time>
      </trkpt>
      <trkpt lat="46.39111" lon="8.03827">
        <ele>2226</ele>
        <time>2021-07-10T11:47:52.547Z</time>
      </trkpt>
      <trkpt lat="46.39112" lon="8.03827">
        <ele>2226</ele>
        <time>2021-07-10T11:47:53.548Z</time>
      </trkpt>
      <trkpt lat="46.39113" lon="8.03826">
        <ele>2226</ele>
        <time>2021-07-10T11:47:54.547Z</time>
      </trkpt>
      <trkpt lat="46.39114" lon="8.03826">
        <ele>2226</ele>
        <time>2021-07-10T11:47:55.547Z</time>
      </trkpt>
      <trkpt lat="46.39115" lon="8.03825">
        <ele>2226</ele>
        <time>2021-07-10T11:47:56.547Z</time>
      </trkpt>
      <trkpt lat="46.39115" lon="8.03825">
        <ele>2226</ele>
        <time>2021-07-10T11:47:57.547Z</time>
      </trkpt>
      <trkpt lat="46.39117" lon="8.03824">
        <ele>2226</ele>
        <time>2021-07-10T11:47:58.548Z</time>
      </trkpt>
      <trkpt lat="46.39118" lon="8.03823">
        <ele>2226</ele>
        <time>2021-07-10T11:47:59.548Z</time>
      </trkpt>
      <trkpt lat="46.39119" lon="8.03823">
        <ele>2226</ele>
        <time>2021-07-10T11:48:00.548Z</time>
      </trkpt>
      <trkpt lat="46.3912" lon="8.03822">
        <ele>2226</ele>
        <time>2021-07-10T11:48:01.547Z</time>
      </trkpt>
      <trkpt lat="46.39121" lon="8.03822">
        <ele>2226</ele>
        <time>2021-07-10T11:48:02.547Z</time>
      </trkpt>
      <trkpt lat="46.39121" lon="8.03821">
        <ele>2226</ele>
        <time>2021-07-10T11:48:03.547Z</time>
      </trkpt>
      <trkpt lat="46.39122" lon="8.03821">
        <ele>2226</ele>
        <time>2021-07-10T11:48:04.548Z</time>
      </trkpt>
      <trkpt lat="46.39123" lon="8.0382">
        <ele>2226</ele>
        <time>2021-07-10T11:48:05.547Z</time>
      </trkpt>
      <trkpt lat="46.39123" lon="8.0382">
        <ele>2226</ele>
        <time>2021-07-10T11:48:06.547Z</time>
      </trkpt>
      <trkpt lat="46.39124" lon="8.0382">
        <ele>2227</ele>
        <time>2021-07-10T11:48:07.547Z</time>
      </trkpt>
      <trkpt lat="46.39125" lon="8.03819">
        <ele>2227</ele>
        <time>2021-07-10T11:48:08.547Z</time>
      </trkpt>
      <trkpt lat="46.39125" lon="8.03819">
        <ele>2228</ele>
        <time>2021-07-10T11:48:09.547Z</time>
      </trkpt>
      <trkpt lat="46.39126" lon="8.03819">
        <ele>2228</ele>
        <time>2021-07-10T11:48:10.548Z</time>
      </trkpt>
      <trkpt lat="46.39126" lon="8.03819">
        <ele>2228</ele>
        <time>2021-07-10T11:48:11.547Z</time>
      </trkpt>
      <trkpt lat="46.39127" lon="8.03819">
        <ele>2229</ele>
        <time>2021-07-10T11:48:12.548Z</time>
      </trkpt>
      <trkpt lat="46.39127" lon="8.03818">
        <ele>2228</ele>
        <time>2021-07-10T11:48:13.548Z</time>
      </trkpt>
      <trkpt lat="46.39127" lon="8.03817">
        <ele>2228</ele>
        <time>2021-07-10T11:48:14.547Z</time>
      </trkpt>
      <trkpt lat="46.39127" lon="8.03817">
        <ele>2228</ele>
        <time>2021-07-10T11:48:15.548Z</time>
      </trkpt>
      <trkpt lat="46.39127" lon="8.03817">
        <ele>2227</ele>
        <time>2021-07-10T11:48:16.548Z</time>
      </trkpt>
      <trkpt lat="46.39127" lon="8.03816">
        <ele>2224</ele>
        <time>2021-07-10T11:48:17.548Z</time>
      </trkpt>
      <trkpt lat="46.39127" lon="8.03815">
        <ele>2224</ele>
        <time>2021-07-10T11:48:18.549Z</time>
      </trkpt>
      <trkpt lat="46.39127" lon="8.03814">
        <ele>2224</ele>
        <time>2021-07-10T11:48:19.548Z</time>
      </trkpt>
      <trkpt lat="46.39128" lon="8.03814">
        <ele>2224</ele>
        <time>2021-07-10T11:48:20.549Z</time>
      </trkpt>
      <trkpt lat="46.39129" lon="8.03815">
        <ele>2224</ele>
        <time>2021-07-10T11:48:21.549Z</time>
      </trkpt>
      <trkpt lat="46.39129" lon="8.03814">
        <ele>2224</ele>
        <time>2021-07-10T11:48:22.549Z</time>
      </trkpt>
      <trkpt lat="46.3913" lon="8.03815">
        <ele>2224</ele>
        <time>2021-07-10T11:48:23.549Z</time>
      </trkpt>
      <trkpt lat="46.3913" lon="8.03815">
        <ele>2225</ele>
        <time>2021-07-10T11:48:24.548Z</time>
      </trkpt>
      <trkpt lat="46.39131" lon="8.03815">
        <ele>2225</ele>
        <time>2021-07-10T11:48:25.548Z</time>
      </trkpt>
      <trkpt lat="46.39132" lon="8.03816">
        <ele>2225</ele>
        <time>2021-07-10T11:48:26.549Z</time>
      </trkpt>
      <trkpt lat="46.39132" lon="8.03816">
        <ele>2225</ele>
        <time>2021-07-10T11:48:27.549Z</time>
      </trkpt>
      <trkpt lat="46.39133" lon="8.03816">
        <ele>2225</ele>
        <time>2021-07-10T11:48:28.549Z</time>
      </trkpt>
      <trkpt lat="46.39134" lon="8.03816">
        <ele>2225</ele>
        <time>2021-07-10T11:48:29.549Z</time>
      </trkpt>
      <trkpt lat="46.39135" lon="8.03816">
        <ele>2226</ele>
        <time>2021-07-10T11:48:30.549Z</time>
      </trkpt>
      <trkpt lat="46.39136" lon="8.03816">
        <ele>2226</ele>
        <time>2021-07-10T11:48:31.548Z</time>
      </trkpt>
      <trkpt lat="46.39137" lon="8.03816">
        <ele>2225</ele>
        <time>2021-07-10T11:48:32.548Z</time>
      </trkpt>
      <trkpt lat="46.39137" lon="8.03816">
        <ele>2225</ele>
        <time>2021-07-10T11:48:33.549Z</time>
      </trkpt>
      <trkpt lat="46.39138" lon="8.03816">
        <ele>2224</ele>
        <time>2021-07-10T11:48:34.548Z</time>
      </trkpt>
      <trkpt lat="46.39139" lon="8.03816">
        <ele>2224</ele>
        <time>2021-07-10T11:48:35.549Z</time>
      </trkpt>
      <trkpt lat="46.3914" lon="8.03816">
        <ele>2224</ele>
        <time>2021-07-10T11:48:36.549Z</time>
      </trkpt>
      <trkpt lat="46.39141" lon="8.03817">
        <ele>2223</ele>
        <time>2021-07-10T11:48:37.548Z</time>
      </trkpt>
      <trkpt lat="46.39142" lon="8.03818">
        <ele>2223</ele>
        <time>2021-07-10T11:48:38.549Z</time>
      </trkpt>
      <trkpt lat="46.39143" lon="8.03818">
        <ele>2223</ele>
        <time>2021-07-10T11:48:39.549Z</time>
      </trkpt>
      <trkpt lat="46.39144" lon="8.03818">
        <ele>2223</ele>
        <time>2021-07-10T11:48:40.549Z</time>
      </trkpt>
      <trkpt lat="46.39145" lon="8.03819">
        <ele>2223</ele>
        <time>2021-07-10T11:48:41.549Z</time>
      </trkpt>
      <trkpt lat="46.39146" lon="8.03819">
        <ele>2224</ele>
        <time>2021-07-10T11:48:42.549Z</time>
      </trkpt>
      <trkpt lat="46.39146" lon="8.0382">
        <ele>2224</ele>
        <time>2021-07-10T11:48:43.549Z</time>
      </trkpt>
      <trkpt lat="46.39147" lon="8.0382">
        <ele>2224</ele>
        <time>2021-07-10T11:48:44.548Z</time>
      </trkpt>
      <trkpt lat="46.39147" lon="8.0382">
        <ele>2224</ele>
        <time>2021-07-10T11:48:45.549Z</time>
      </trkpt>
      <trkpt lat="46.39147" lon="8.0382">
        <ele>2224</ele>
        <time>2021-07-10T11:48:46.548Z</time>
      </trkpt>
      <trkpt lat="46.39147" lon="8.0382">
        <ele>2223</ele>
        <time>2021-07-10T11:48:47.549Z</time>
      </trkpt>
      <trkpt lat="46.39148" lon="8.0382">
        <ele>2223</ele>
        <time>2021-07-10T11:48:48.548Z</time>
      </trkpt>
      <trkpt lat="46.39148" lon="8.0382">
        <ele>2223</ele>
        <time>2021-07-10T11:48:49.549Z</time>
      </trkpt>
      <trkpt lat="46.39147" lon="8.0382">
        <ele>2222</ele>
        <time>2021-07-10T11:48:50.549Z</time>
      </trkpt>
      <trkpt lat="46.39148" lon="8.0382">
        <ele>2218</ele>
        <time>2021-07-10T11:48:51.549Z</time>
      </trkpt>
      <trkpt lat="46.39147" lon="8.0382">
        <ele>2218</ele>
        <time>2021-07-10T11:48:52.548Z</time>
      </trkpt>
      <trkpt lat="46.39147" lon="8.0382">
        <ele>2218</ele>
        <time>2021-07-10T11:48:53.548Z</time>
      </trkpt>
      <trkpt lat="46.39147" lon="8.03819">
        <ele>2219</ele>
        <time>2021-07-10T11:48:54.549Z</time>
      </trkpt>
      <trkpt lat="46.39147" lon="8.0382">
        <ele>2219</ele>
        <time>2021-07-10T11:48:55.549Z</time>
      </trkpt>
      <trkpt lat="46.39148" lon="8.03822">
        <ele>2220</ele>
        <time>2021-07-10T11:48:56.549Z</time>
      </trkpt>
      <trkpt lat="46.39149" lon="8.03823">
        <ele>2220</ele>
        <time>2021-07-10T11:48:57.549Z</time>
      </trkpt>
      <trkpt lat="46.39149" lon="8.03824">
        <ele>2221</ele>
        <time>2021-07-10T11:48:58.548Z</time>
      </trkpt>
      <trkpt lat="46.3915" lon="8.03825">
        <ele>2221</ele>
        <time>2021-07-10T11:48:59.549Z</time>
      </trkpt>
      <trkpt lat="46.3915" lon="8.03826">
        <ele>2221</ele>
        <time>2021-07-10T11:49:00.549Z</time>
      </trkpt>
      <trkpt lat="46.39151" lon="8.03826">
        <ele>2221</ele>
        <time>2021-07-10T11:49:01.548Z</time>
      </trkpt>
      <trkpt lat="46.39151" lon="8.03826">
        <ele>2221</ele>
        <time>2021-07-10T11:49:02.548Z</time>
      </trkpt>
      <trkpt lat="46.39152" lon="8.03826">
        <ele>2221</ele>
        <time>2021-07-10T11:49:03.548Z</time>
      </trkpt>
      <trkpt lat="46.39152" lon="8.03827">
        <ele>2221</ele>
        <time>2021-07-10T11:49:04.548Z</time>
      </trkpt>
      <trkpt lat="46.39153" lon="8.03827">
        <ele>2220</ele>
        <time>2021-07-10T11:49:05.549Z</time>
      </trkpt>
      <trkpt lat="46.39154" lon="8.03827">
        <ele>2220</ele>
        <time>2021-07-10T11:49:06.549Z</time>
      </trkpt>
      <trkpt lat="46.39155" lon="8.03827">
        <ele>2220</ele>
        <time>2021-07-10T11:49:07.549Z</time>
      </trkpt>
      <trkpt lat="46.39155" lon="8.03828">
        <ele>2219</ele>
        <time>2021-07-10T11:49:08.549Z</time>
      </trkpt>
      <trkpt lat="46.39156" lon="8.03828">
        <ele>2219</ele>
        <time>2021-07-10T11:49:09.549Z</time>
      </trkpt>
      <trkpt lat="46.39156" lon="8.03828">
        <ele>2218</ele>
        <time>2021-07-10T11:49:10.549Z</time>
      </trkpt>
      <trkpt lat="46.39157" lon="8.03828">
        <ele>2217</ele>
        <time>2021-07-10T11:49:11.549Z</time>
      </trkpt>
      <trkpt lat="46.39158" lon="8.03829">
        <ele>2217</ele>
        <time>2021-07-10T11:49:12.549Z</time>
      </trkpt>
      <trkpt lat="46.39158" lon="8.03829">
        <ele>2216</ele>
        <time>2021-07-10T11:49:13.549Z</time>
      </trkpt>
      <trkpt lat="46.39159" lon="8.0383">
        <ele>2216</ele>
        <time>2021-07-10T11:49:14.549Z</time>
      </trkpt>
      <trkpt lat="46.3916" lon="8.03831">
        <ele>2216</ele>
        <time>2021-07-10T11:49:15.549Z</time>
      </trkpt>
      <trkpt lat="46.3916" lon="8.03832">
        <ele>2217</ele>
        <time>2021-07-10T11:49:16.548Z</time>
      </trkpt>
      <trkpt lat="46.39161" lon="8.03832">
        <ele>2217</ele>
        <time>2021-07-10T11:49:17.549Z</time>
      </trkpt>
      <trkpt lat="46.39162" lon="8.03833">
        <ele>2217</ele>
        <time>2021-07-10T11:49:18.549Z</time>
      </trkpt>
      <trkpt lat="46.39162" lon="8.03833">
        <ele>2218</ele>
        <time>2021-07-10T11:49:19.549Z</time>
      </trkpt>
      <trkpt lat="46.39163" lon="8.03833">
        <ele>2218</ele>
        <time>2021-07-10T11:49:20.549Z</time>
      </trkpt>
      <trkpt lat="46.39163" lon="8.03834">
        <ele>2219</ele>
        <time>2021-07-10T11:49:21.549Z</time>
      </trkpt>
      <trkpt lat="46.39164" lon="8.03834">
        <ele>2219</ele>
        <time>2021-07-10T11:49:22.549Z</time>
      </trkpt>
      <trkpt lat="46.39165" lon="8.03834">
        <ele>2219</ele>
        <time>2021-07-10T11:49:23.548Z</time>
      </trkpt>
      <trkpt lat="46.39166" lon="8.03835">
        <ele>2219</ele>
        <time>2021-07-10T11:49:24.549Z</time>
      </trkpt>
      <trkpt lat="46.39166" lon="8.03835">
        <ele>2219</ele>
        <time>2021-07-10T11:49:25.548Z</time>
      </trkpt>
      <trkpt lat="46.39168" lon="8.03836">
        <ele>2219</ele>
        <time>2021-07-10T11:49:26.548Z</time>
      </trkpt>
      <trkpt lat="46.39169" lon="8.03836">
        <ele>2220</ele>
        <time>2021-07-10T11:49:27.549Z</time>
      </trkpt>
      <trkpt lat="46.39169" lon="8.03836">
        <ele>2219</ele>
        <time>2021-07-10T11:49:28.549Z</time>
      </trkpt>
      <trkpt lat="46.39171" lon="8.03837">
        <ele>2219</ele>
        <time>2021-07-10T11:49:29.549Z</time>
      </trkpt>
      <trkpt lat="46.39171" lon="8.03838">
        <ele>2219</ele>
        <time>2021-07-10T11:49:30.549Z</time>
      </trkpt>
      <trkpt lat="46.39172" lon="8.03838">
        <ele>2218</ele>
        <time>2021-07-10T11:49:31.549Z</time>
      </trkpt>
      <trkpt lat="46.39173" lon="8.03839">
        <ele>2218</ele>
        <time>2021-07-10T11:49:32.549Z</time>
      </trkpt>
      <trkpt lat="46.39174" lon="8.0384">
        <ele>2218</ele>
        <time>2021-07-10T11:49:33.549Z</time>
      </trkpt>
      <trkpt lat="46.39175" lon="8.0384">
        <ele>2218</ele>
        <time>2021-07-10T11:49:34.549Z</time>
      </trkpt>
      <trkpt lat="46.39175" lon="8.03841">
        <ele>2218</ele>
        <time>2021-07-10T11:49:35.548Z</time>
      </trkpt>
      <trkpt lat="46.39176" lon="8.03841">
        <ele>2219</ele>
        <time>2021-07-10T11:49:36.548Z</time>
      </trkpt>
      <trkpt lat="46.39177" lon="8.03842">
        <ele>2219</ele>
        <time>2021-07-10T11:49:37.549Z</time>
      </trkpt>
      <trkpt lat="46.39177" lon="8.03843">
        <ele>2219</ele>
        <time>2021-07-10T11:49:38.549Z</time>
      </trkpt>
      <trkpt lat="46.39178" lon="8.03844">
        <ele>2219</ele>
        <time>2021-07-10T11:49:39.548Z</time>
      </trkpt>
      <trkpt lat="46.39179" lon="8.03844">
        <ele>2220</ele>
        <time>2021-07-10T11:49:40.548Z</time>
      </trkpt>
      <trkpt lat="46.3918" lon="8.03844">
        <ele>2220</ele>
        <time>2021-07-10T11:49:41.549Z</time>
      </trkpt>
      <trkpt lat="46.39181" lon="8.03844">
        <ele>2221</ele>
        <time>2021-07-10T11:49:42.549Z</time>
      </trkpt>
      <trkpt lat="46.39182" lon="8.03845">
        <ele>2221</ele>
        <time>2021-07-10T11:49:43.549Z</time>
      </trkpt>
      <trkpt lat="46.39183" lon="8.03845">
        <ele>2221</ele>
        <time>2021-07-10T11:49:44.549Z</time>
      </trkpt>
      <trkpt lat="46.39184" lon="8.03844">
        <ele>2221</ele>
        <time>2021-07-10T11:49:45.549Z</time>
      </trkpt>
      <trkpt lat="46.39185" lon="8.03844">
        <ele>2221</ele>
        <time>2021-07-10T11:49:46.548Z</time>
      </trkpt>
      <trkpt lat="46.39185" lon="8.03845">
        <ele>2221</ele>
        <time>2021-07-10T11:49:47.549Z</time>
      </trkpt>
      <trkpt lat="46.39186" lon="8.03845">
        <ele>2220</ele>
        <time>2021-07-10T11:49:48.548Z</time>
      </trkpt>
      <trkpt lat="46.39186" lon="8.03846">
        <ele>2220</ele>
        <time>2021-07-10T11:49:49.549Z</time>
      </trkpt>
      <trkpt lat="46.39187" lon="8.03846">
        <ele>2219</ele>
        <time>2021-07-10T11:49:50.549Z</time>
      </trkpt>
      <trkpt lat="46.39188" lon="8.03847">
        <ele>2218</ele>
        <time>2021-07-10T11:49:51.549Z</time>
      </trkpt>
      <trkpt lat="46.39188" lon="8.03847">
        <ele>2217</ele>
        <time>2021-07-10T11:49:52.548Z</time>
      </trkpt>
      <trkpt lat="46.39189" lon="8.03848">
        <ele>2216</ele>
        <time>2021-07-10T11:49:53.548Z</time>
      </trkpt>
      <trkpt lat="46.3919" lon="8.03848">
        <ele>2216</ele>
        <time>2021-07-10T11:49:54.549Z</time>
      </trkpt>
      <trkpt lat="46.3919" lon="8.03848">
        <ele>2215</ele>
        <time>2021-07-10T11:49:55.549Z</time>
      </trkpt>
      <trkpt lat="46.39191" lon="8.03848">
        <ele>2215</ele>
        <time>2021-07-10T11:49:56.549Z</time>
      </trkpt>
      <trkpt lat="46.39191" lon="8.03849">
        <ele>2215</ele>
        <time>2021-07-10T11:49:57.548Z</time>
      </trkpt>
      <trkpt lat="46.39192" lon="8.0385">
        <ele>2214</ele>
        <time>2021-07-10T11:49:58.549Z</time>
      </trkpt>
      <trkpt lat="46.39193" lon="8.03851">
        <ele>2214</ele>
        <time>2021-07-10T11:49:59.549Z</time>
      </trkpt>
      <trkpt lat="46.39194" lon="8.03851">
        <ele>2215</ele>
        <time>2021-07-10T11:50:00.549Z</time>
      </trkpt>
      <trkpt lat="46.39195" lon="8.03852">
        <ele>2215</ele>
        <time>2021-07-10T11:50:01.549Z</time>
      </trkpt>
      <trkpt lat="46.39195" lon="8.03852">
        <ele>2215</ele>
        <time>2021-07-10T11:50:02.549Z</time>
      </trkpt>
      <trkpt lat="46.39196" lon="8.03852">
        <ele>2216</ele>
        <time>2021-07-10T11:50:03.549Z</time>
      </trkpt>
      <trkpt lat="46.39197" lon="8.03852">
        <ele>2216</ele>
        <time>2021-07-10T11:50:04.549Z</time>
      </trkpt>
      <trkpt lat="46.39199" lon="8.03851">
        <ele>2216</ele>
        <time>2021-07-10T11:50:05.549Z</time>
      </trkpt>
      <trkpt lat="46.392" lon="8.03851">
        <ele>2216</ele>
        <time>2021-07-10T11:50:06.548Z</time>
      </trkpt>
      <trkpt lat="46.39201" lon="8.03851">
        <ele>2216</ele>
        <time>2021-07-10T11:50:07.549Z</time>
      </trkpt>
      <trkpt lat="46.39201" lon="8.03851">
        <ele>2216</ele>
        <time>2021-07-10T11:50:08.549Z</time>
      </trkpt>
      <trkpt lat="46.39201" lon="8.03851">
        <ele>2216</ele>
        <time>2021-07-10T11:50:09.549Z</time>
      </trkpt>
      <trkpt lat="46.39202" lon="8.03852">
        <ele>2216</ele>
        <time>2021-07-10T11:50:10.549Z</time>
      </trkpt>
      <trkpt lat="46.39203" lon="8.03852">
        <ele>2217</ele>
        <time>2021-07-10T11:50:11.549Z</time>
      </trkpt>
      <trkpt lat="46.39203" lon="8.03853">
        <ele>2217</ele>
        <time>2021-07-10T11:50:12.549Z</time>
      </trkpt>
      <trkpt lat="46.39204" lon="8.03853">
        <ele>2218</ele>
        <time>2021-07-10T11:50:13.548Z</time>
      </trkpt>
      <trkpt lat="46.39205" lon="8.03854">
        <ele>2218</ele>
        <time>2021-07-10T11:50:14.549Z</time>
      </trkpt>
      <trkpt lat="46.39205" lon="8.03854">
        <ele>2218</ele>
        <time>2021-07-10T11:50:15.549Z</time>
      </trkpt>
      <trkpt lat="46.39206" lon="8.03855">
        <ele>2218</ele>
        <time>2021-07-10T11:50:16.549Z</time>
      </trkpt>
      <trkpt lat="46.39206" lon="8.03856">
        <ele>2217</ele>
        <time>2021-07-10T11:50:17.549Z</time>
      </trkpt>
      <trkpt lat="46.39206" lon="8.03856">
        <ele>2217</ele>
        <time>2021-07-10T11:50:18.549Z</time>
      </trkpt>
      <trkpt lat="46.39207" lon="8.03857">
        <ele>2217</ele>
        <time>2021-07-10T11:50:19.548Z</time>
      </trkpt>
      <trkpt lat="46.39207" lon="8.03857">
        <ele>2216</ele>
        <time>2021-07-10T11:50:20.549Z</time>
      </trkpt>
      <trkpt lat="46.39207" lon="8.03857">
        <ele>2216</ele>
        <time>2021-07-10T11:50:21.549Z</time>
      </trkpt>
      <trkpt lat="46.39208" lon="8.03858">
        <ele>2216</ele>
        <time>2021-07-10T11:50:22.549Z</time>
      </trkpt>
      <trkpt lat="46.39209" lon="8.03859">
        <ele>2216</ele>
        <time>2021-07-10T11:50:23.549Z</time>
      </trkpt>
      <trkpt lat="46.3921" lon="8.03859">
        <ele>2215</ele>
        <time>2021-07-10T11:50:24.549Z</time>
      </trkpt>
      <trkpt lat="46.3921" lon="8.0386">
        <ele>2215</ele>
        <time>2021-07-10T11:50:25.549Z</time>
      </trkpt>
      <trkpt lat="46.39211" lon="8.0386">
        <ele>2215</ele>
        <time>2021-07-10T11:50:26.549Z</time>
      </trkpt>
      <trkpt lat="46.39212" lon="8.03861">
        <ele>2214</ele>
        <time>2021-07-10T11:50:27.548Z</time>
      </trkpt>
      <trkpt lat="46.39213" lon="8.03861">
        <ele>2214</ele>
        <time>2021-07-10T11:50:28.548Z</time>
      </trkpt>
      <trkpt lat="46.39213" lon="8.03861">
        <ele>2214</ele>
        <time>2021-07-10T11:50:29.548Z</time>
      </trkpt>
      <trkpt lat="46.39214" lon="8.03861">
        <ele>2213</ele>
        <time>2021-07-10T11:50:30.548Z</time>
      </trkpt>
      <trkpt lat="46.39215" lon="8.03862">
        <ele>2213</ele>
        <time>2021-07-10T11:50:31.549Z</time>
      </trkpt>
      <trkpt lat="46.39216" lon="8.03861">
        <ele>2213</ele>
        <time>2021-07-10T11:50:32.548Z</time>
      </trkpt>
      <trkpt lat="46.39217" lon="8.03861">
        <ele>2213</ele>
        <time>2021-07-10T11:50:33.548Z</time>
      </trkpt>
      <trkpt lat="46.39217" lon="8.03861">
        <ele>2213</ele>
        <time>2021-07-10T11:50:34.549Z</time>
      </trkpt>
      <trkpt lat="46.39218" lon="8.0386">
        <ele>2213</ele>
        <time>2021-07-10T11:50:35.549Z</time>
      </trkpt>
      <trkpt lat="46.39218" lon="8.03859">
        <ele>2213</ele>
        <time>2021-07-10T11:50:36.549Z</time>
      </trkpt>
      <trkpt lat="46.39219" lon="8.03858">
        <ele>2213</ele>
        <time>2021-07-10T11:50:37.549Z</time>
      </trkpt>
      <trkpt lat="46.39219" lon="8.03858">
        <ele>2213</ele>
        <time>2021-07-10T11:50:38.549Z</time>
      </trkpt>
      <trkpt lat="46.3922" lon="8.03858">
        <ele>2213</ele>
        <time>2021-07-10T11:50:39.549Z</time>
      </trkpt>
      <trkpt lat="46.3922" lon="8.03858">
        <ele>2214</ele>
        <time>2021-07-10T11:50:40.549Z</time>
      </trkpt>
      <trkpt lat="46.39221" lon="8.03857">
        <ele>2214</ele>
        <time>2021-07-10T11:50:41.549Z</time>
      </trkpt>
      <trkpt lat="46.39222" lon="8.03857">
        <ele>2214</ele>
        <time>2021-07-10T11:50:42.549Z</time>
      </trkpt>
      <trkpt lat="46.39223" lon="8.03857">
        <ele>2214</ele>
        <time>2021-07-10T11:50:43.548Z</time>
      </trkpt>
      <trkpt lat="46.39224" lon="8.03857">
        <ele>2215</ele>
        <time>2021-07-10T11:50:44.548Z</time>
      </trkpt>
      <trkpt lat="46.39224" lon="8.03857">
        <ele>2215</ele>
        <time>2021-07-10T11:50:45.548Z</time>
      </trkpt>
      <trkpt lat="46.39225" lon="8.03858">
        <ele>2216</ele>
        <time>2021-07-10T11:50:46.548Z</time>
      </trkpt>
      <trkpt lat="46.39226" lon="8.03858">
        <ele>2216</ele>
        <time>2021-07-10T11:50:47.549Z</time>
      </trkpt>
      <trkpt lat="46.39226" lon="8.03858">
        <ele>2216</ele>
        <time>2021-07-10T11:50:48.548Z</time>
      </trkpt>
      <trkpt lat="46.39227" lon="8.03859">
        <ele>2215</ele>
        <time>2021-07-10T11:50:49.548Z</time>
      </trkpt>
      <trkpt lat="46.39228" lon="8.03858">
        <ele>2215</ele>
        <time>2021-07-10T11:50:50.549Z</time>
      </trkpt>
      <trkpt lat="46.39228" lon="8.03858">
        <ele>2215</ele>
        <time>2021-07-10T11:50:51.549Z</time>
      </trkpt>
      <trkpt lat="46.39229" lon="8.03858">
        <ele>2214</ele>
        <time>2021-07-10T11:50:52.548Z</time>
      </trkpt>
      <trkpt lat="46.39229" lon="8.03859">
        <ele>2213</ele>
        <time>2021-07-10T11:50:53.549Z</time>
      </trkpt>
      <trkpt lat="46.3923" lon="8.03859">
        <ele>2213</ele>
        <time>2021-07-10T11:50:54.549Z</time>
      </trkpt>
      <trkpt lat="46.3923" lon="8.0386">
        <ele>2213</ele>
        <time>2021-07-10T11:50:55.549Z</time>
      </trkpt>
      <trkpt lat="46.39231" lon="8.0386">
        <ele>2212</ele>
        <time>2021-07-10T11:50:56.549Z</time>
      </trkpt>
      <trkpt lat="46.39232" lon="8.03861">
        <ele>2212</ele>
        <time>2021-07-10T11:50:57.549Z</time>
      </trkpt>
      <trkpt lat="46.39233" lon="8.03862">
        <ele>2212</ele>
        <time>2021-07-10T11:50:58.549Z</time>
      </trkpt>
      <trkpt lat="46.39235" lon="8.03862">
        <ele>2212</ele>
        <time>2021-07-10T11:50:59.549Z</time>
      </trkpt>
      <trkpt lat="46.39236" lon="8.03862">
        <ele>2211</ele>
        <time>2021-07-10T11:51:00.549Z</time>
      </trkpt>
      <trkpt lat="46.39236" lon="8.03863">
        <ele>2211</ele>
        <time>2021-07-10T11:51:01.549Z</time>
      </trkpt>
      <trkpt lat="46.39236" lon="8.03864">
        <ele>2211</ele>
        <time>2021-07-10T11:51:02.548Z</time>
      </trkpt>
      <trkpt lat="46.39236" lon="8.03864">
        <ele>2211</ele>
        <time>2021-07-10T11:51:03.549Z</time>
      </trkpt>
      <trkpt lat="46.39237" lon="8.03865">
        <ele>2211</ele>
        <time>2021-07-10T11:51:04.549Z</time>
      </trkpt>
      <trkpt lat="46.39237" lon="8.03865">
        <ele>2210</ele>
        <time>2021-07-10T11:51:05.549Z</time>
      </trkpt>
      <trkpt lat="46.39238" lon="8.03865">
        <ele>2210</ele>
        <time>2021-07-10T11:51:06.549Z</time>
      </trkpt>
      <trkpt lat="46.39239" lon="8.03865">
        <ele>2210</ele>
        <time>2021-07-10T11:51:07.549Z</time>
      </trkpt>
      <trkpt lat="46.3924" lon="8.03866">
        <ele>2210</ele>
        <time>2021-07-10T11:51:08.548Z</time>
      </trkpt>
      <trkpt lat="46.39241" lon="8.03866">
        <ele>2209</ele>
        <time>2021-07-10T11:51:09.548Z</time>
      </trkpt>
      <trkpt lat="46.39241" lon="8.03866">
        <ele>2209</ele>
        <time>2021-07-10T11:51:10.549Z</time>
      </trkpt>
      <trkpt lat="46.39242" lon="8.03867">
        <ele>2209</ele>
        <time>2021-07-10T11:51:11.548Z</time>
      </trkpt>
      <trkpt lat="46.39243" lon="8.03867">
        <ele>2209</ele>
        <time>2021-07-10T11:51:12.548Z</time>
      </trkpt>
      <trkpt lat="46.39244" lon="8.03868">
        <ele>2209</ele>
        <time>2021-07-10T11:51:13.549Z</time>
      </trkpt>
      <trkpt lat="46.39245" lon="8.03868">
        <ele>2209</ele>
        <time>2021-07-10T11:51:14.549Z</time>
      </trkpt>
      <trkpt lat="46.39246" lon="8.03868">
        <ele>2209</ele>
        <time>2021-07-10T11:51:15.548Z</time>
      </trkpt>
      <trkpt lat="46.39247" lon="8.03868">
        <ele>2209</ele>
        <time>2021-07-10T11:51:16.549Z</time>
      </trkpt>
      <trkpt lat="46.39247" lon="8.03869">
        <ele>2208</ele>
        <time>2021-07-10T11:51:17.549Z</time>
      </trkpt>
      <trkpt lat="46.39248" lon="8.03869">
        <ele>2208</ele>
        <time>2021-07-10T11:51:18.549Z</time>
      </trkpt>
      <trkpt lat="46.39249" lon="8.03868">
        <ele>2208</ele>
        <time>2021-07-10T11:51:19.549Z</time>
      </trkpt>
      <trkpt lat="46.3925" lon="8.03868">
        <ele>2207</ele>
        <time>2021-07-10T11:51:20.548Z</time>
      </trkpt>
      <trkpt lat="46.3925" lon="8.03868">
        <ele>2206</ele>
        <time>2021-07-10T11:51:21.549Z</time>
      </trkpt>
      <trkpt lat="46.39251" lon="8.03868">
        <ele>2206</ele>
        <time>2021-07-10T11:51:22.549Z</time>
      </trkpt>
      <trkpt lat="46.39252" lon="8.03868">
        <ele>2206</ele>
        <time>2021-07-10T11:51:23.549Z</time>
      </trkpt>
      <trkpt lat="46.39252" lon="8.03867">
        <ele>2205</ele>
        <time>2021-07-10T11:51:24.548Z</time>
      </trkpt>
      <trkpt lat="46.39253" lon="8.03866">
        <ele>2205</ele>
        <time>2021-07-10T11:51:25.548Z</time>
      </trkpt>
      <trkpt lat="46.39253" lon="8.03866">
        <ele>2204</ele>
        <time>2021-07-10T11:51:26.549Z</time>
      </trkpt>
      <trkpt lat="46.39254" lon="8.03866">
        <ele>2204</ele>
        <time>2021-07-10T11:51:27.548Z</time>
      </trkpt>
      <trkpt lat="46.39254" lon="8.03866">
        <ele>2204</ele>
        <time>2021-07-10T11:51:28.548Z</time>
      </trkpt>
      <trkpt lat="46.39255" lon="8.03865">
        <ele>2203</ele>
        <time>2021-07-10T11:51:29.549Z</time>
      </trkpt>
      <trkpt lat="46.39256" lon="8.03865">
        <ele>2203</ele>
        <time>2021-07-10T11:51:30.549Z</time>
      </trkpt>
      <trkpt lat="46.39256" lon="8.03865">
        <ele>2202</ele>
        <time>2021-07-10T11:51:31.549Z</time>
      </trkpt>
      <trkpt lat="46.39257" lon="8.03865">
        <ele>2202</ele>
        <time>2021-07-10T11:51:32.549Z</time>
      </trkpt>
      <trkpt lat="46.39257" lon="8.03865">
        <ele>2202</ele>
        <time>2021-07-10T11:51:33.548Z</time>
      </trkpt>
      <trkpt lat="46.39258" lon="8.03866">
        <ele>2202</ele>
        <time>2021-07-10T11:51:34.549Z</time>
      </trkpt>
      <trkpt lat="46.39258" lon="8.03867">
        <ele>2202</ele>
        <time>2021-07-10T11:51:35.548Z</time>
      </trkpt>
      <trkpt lat="46.39259" lon="8.03868">
        <ele>2202</ele>
        <time>2021-07-10T11:51:36.548Z</time>
      </trkpt>
      <trkpt lat="46.39259" lon="8.03868">
        <ele>2202</ele>
        <time>2021-07-10T11:51:37.548Z</time>
      </trkpt>
      <trkpt lat="46.3926" lon="8.03869">
        <ele>2201</ele>
        <time>2021-07-10T11:51:38.548Z</time>
      </trkpt>
      <trkpt lat="46.3926" lon="8.0387">
        <ele>2202</ele>
        <time>2021-07-10T11:51:39.549Z</time>
      </trkpt>
      <trkpt lat="46.39261" lon="8.0387">
        <ele>2202</ele>
        <time>2021-07-10T11:51:40.548Z</time>
      </trkpt>
      <trkpt lat="46.39262" lon="8.03871">
        <ele>2203</ele>
        <time>2021-07-10T11:51:41.549Z</time>
      </trkpt>
      <trkpt lat="46.39262" lon="8.03872">
        <ele>2204</ele>
        <time>2021-07-10T11:51:42.549Z</time>
      </trkpt>
      <trkpt lat="46.39263" lon="8.03872">
        <ele>2204</ele>
        <time>2021-07-10T11:51:43.548Z</time>
      </trkpt>
      <trkpt lat="46.39264" lon="8.03873">
        <ele>2204</ele>
        <time>2021-07-10T11:51:44.549Z</time>
      </trkpt>
      <trkpt lat="46.39265" lon="8.03873">
        <ele>2205</ele>
        <time>2021-07-10T11:51:45.548Z</time>
      </trkpt>
      <trkpt lat="46.39266" lon="8.03874">
        <ele>2204</ele>
        <time>2021-07-10T11:51:46.549Z</time>
      </trkpt>
      <trkpt lat="46.39267" lon="8.03874">
        <ele>2204</ele>
        <time>2021-07-10T11:51:47.549Z</time>
      </trkpt>
      <trkpt lat="46.39267" lon="8.03874">
        <ele>2203</ele>
        <time>2021-07-10T11:51:48.549Z</time>
      </trkpt>
      <trkpt lat="46.39268" lon="8.03875">
        <ele>2203</ele>
        <time>2021-07-10T11:51:49.548Z</time>
      </trkpt>
      <trkpt lat="46.39269" lon="8.03876">
        <ele>2202</ele>
        <time>2021-07-10T11:51:50.548Z</time>
      </trkpt>
      <trkpt lat="46.3927" lon="8.03876">
        <ele>2201</ele>
        <time>2021-07-10T11:51:51.549Z</time>
      </trkpt>
      <trkpt lat="46.3927" lon="8.03877">
        <ele>2200</ele>
        <time>2021-07-10T11:51:52.549Z</time>
      </trkpt>
      <trkpt lat="46.39271" lon="8.03877">
        <ele>2199</ele>
        <time>2021-07-10T11:51:53.549Z</time>
      </trkpt>
      <trkpt lat="46.39272" lon="8.03877">
        <ele>2199</ele>
        <time>2021-07-10T11:51:54.549Z</time>
      </trkpt>
      <trkpt lat="46.39273" lon="8.03877">
        <ele>2198</ele>
        <time>2021-07-10T11:51:55.549Z</time>
      </trkpt>
      <trkpt lat="46.39274" lon="8.03877">
        <ele>2198</ele>
        <time>2021-07-10T11:51:56.549Z</time>
      </trkpt>
      <trkpt lat="46.39275" lon="8.03877">
        <ele>2198</ele>
        <time>2021-07-10T11:51:57.548Z</time>
      </trkpt>
      <trkpt lat="46.39276" lon="8.03876">
        <ele>2198</ele>
        <time>2021-07-10T11:51:58.549Z</time>
      </trkpt>
      <trkpt lat="46.39277" lon="8.03876">
        <ele>2197</ele>
        <time>2021-07-10T11:51:59.549Z</time>
      </trkpt>
      <trkpt lat="46.39278" lon="8.03877">
        <ele>2197</ele>
        <time>2021-07-10T11:52:00.549Z</time>
      </trkpt>
      <trkpt lat="46.39278" lon="8.03877">
        <ele>2197</ele>
        <time>2021-07-10T11:52:01.549Z</time>
      </trkpt>
      <trkpt lat="46.39279" lon="8.03877">
        <ele>2196</ele>
        <time>2021-07-10T11:52:02.548Z</time>
      </trkpt>
      <trkpt lat="46.39279" lon="8.03877">
        <ele>2195</ele>
        <time>2021-07-10T11:52:03.549Z</time>
      </trkpt>
      <trkpt lat="46.3928" lon="8.03876">
        <ele>2195</ele>
        <time>2021-07-10T11:52:04.548Z</time>
      </trkpt>
      <trkpt lat="46.3928" lon="8.03875">
        <ele>2194</ele>
        <time>2021-07-10T11:52:05.549Z</time>
      </trkpt>
      <trkpt lat="46.3928" lon="8.03874">
        <ele>2194</ele>
        <time>2021-07-10T11:52:06.549Z</time>
      </trkpt>
      <trkpt lat="46.3928" lon="8.03873">
        <ele>2193</ele>
        <time>2021-07-10T11:52:07.549Z</time>
      </trkpt>
      <trkpt lat="46.39281" lon="8.03872">
        <ele>2193</ele>
        <time>2021-07-10T11:52:08.549Z</time>
      </trkpt>
      <trkpt lat="46.39281" lon="8.03872">
        <ele>2192</ele>
        <time>2021-07-10T11:52:09.549Z</time>
      </trkpt>
      <trkpt lat="46.39281" lon="8.03871">
        <ele>2192</ele>
        <time>2021-07-10T11:52:10.549Z</time>
      </trkpt>
      <trkpt lat="46.39282" lon="8.0387">
        <ele>2192</ele>
        <time>2021-07-10T11:52:11.548Z</time>
      </trkpt>
      <trkpt lat="46.39283" lon="8.03869">
        <ele>2192</ele>
        <time>2021-07-10T11:52:12.548Z</time>
      </trkpt>
      <trkpt lat="46.39284" lon="8.03868">
        <ele>2191</ele>
        <time>2021-07-10T11:52:13.548Z</time>
      </trkpt>
      <trkpt lat="46.39284" lon="8.03868">
        <ele>2191</ele>
        <time>2021-07-10T11:52:14.549Z</time>
      </trkpt>
      <trkpt lat="46.39284" lon="8.03867">
        <ele>2191</ele>
        <time>2021-07-10T11:52:15.549Z</time>
      </trkpt>
      <trkpt lat="46.39284" lon="8.03867">
        <ele>2190</ele>
        <time>2021-07-10T11:52:16.548Z</time>
      </trkpt>
      <trkpt lat="46.39284" lon="8.03865">
        <ele>2189</ele>
        <time>2021-07-10T11:52:17.550Z</time>
      </trkpt>
      <trkpt lat="46.39284" lon="8.03864">
        <ele>2189</ele>
        <time>2021-07-10T11:52:18.550Z</time>
      </trkpt>
      <trkpt lat="46.39283" lon="8.0386">
        <ele>2191</ele>
        <time>2021-07-10T11:52:19.550Z</time>
      </trkpt>
      <trkpt lat="46.39283" lon="8.0386">
        <ele>2190</ele>
        <time>2021-07-10T11:52:20.550Z</time>
      </trkpt>
      <trkpt lat="46.39283" lon="8.0386">
        <ele>2189</ele>
        <time>2021-07-10T11:52:21.549Z</time>
      </trkpt>
      <trkpt lat="46.39284" lon="8.03861">
        <ele>2188</ele>
        <time>2021-07-10T11:52:22.551Z</time>
      </trkpt>
      <trkpt lat="46.39285" lon="8.03862">
        <ele>2187</ele>
        <time>2021-07-10T11:52:23.550Z</time>
      </trkpt>
      <trkpt lat="46.39283" lon="8.03862">
        <ele>2188</ele>
        <time>2021-07-10T11:52:24.552Z</time>
      </trkpt>
      <trkpt lat="46.39282" lon="8.03862">
        <ele>2189</ele>
        <time>2021-07-10T11:52:25.552Z</time>
      </trkpt>
      <trkpt lat="46.39282" lon="8.03866">
        <ele>2186</ele>
        <time>2021-07-10T11:52:26.552Z</time>
      </trkpt>
      <trkpt lat="46.39282" lon="8.03866">
        <ele>2186</ele>
        <time>2021-07-10T11:52:27.552Z</time>
      </trkpt>
      <trkpt lat="46.39282" lon="8.03866">
        <ele>2185</ele>
        <time>2021-07-10T11:52:28.552Z</time>
      </trkpt>
      <trkpt lat="46.39283" lon="8.03866">
        <ele>2185</ele>
        <time>2021-07-10T11:52:29.552Z</time>
      </trkpt>
      <trkpt lat="46.39287" lon="8.03862">
        <ele>2184</ele>
        <time>2021-07-10T11:52:30.554Z</time>
      </trkpt>
      <trkpt lat="46.39287" lon="8.03863">
        <ele>2185</ele>
        <time>2021-07-10T11:52:31.553Z</time>
      </trkpt>
      <trkpt lat="46.39288" lon="8.03865">
        <ele>2191</ele>
        <time>2021-07-10T11:52:32.554Z</time>
      </trkpt>
      <trkpt lat="46.39286" lon="8.03864">
        <ele>2191</ele>
        <time>2021-07-10T11:52:33.554Z</time>
      </trkpt>
      <trkpt lat="46.39286" lon="8.03863">
        <ele>2190</ele>
        <time>2021-07-10T11:52:34.554Z</time>
      </trkpt>
      <trkpt lat="46.39285" lon="8.03862">
        <ele>2190</ele>
        <time>2021-07-10T11:52:35.555Z</time>
      </trkpt>
      <trkpt lat="46.39285" lon="8.03861">
        <ele>2189</ele>
        <time>2021-07-10T11:52:36.554Z</time>
      </trkpt>
      <trkpt lat="46.39284" lon="8.0386">
        <ele>2189</ele>
        <time>2021-07-10T11:52:37.554Z</time>
      </trkpt>
      <trkpt lat="46.39284" lon="8.03859">
        <ele>2188</ele>
        <time>2021-07-10T11:52:38.554Z</time>
      </trkpt>
      <trkpt lat="46.39283" lon="8.03858">
        <ele>2188</ele>
        <time>2021-07-10T11:52:39.554Z</time>
      </trkpt>
      <trkpt lat="46.39282" lon="8.03858">
        <ele>2188</ele>
        <time>2021-07-10T11:52:40.554Z</time>
      </trkpt>
      <trkpt lat="46.39281" lon="8.03857">
        <ele>2188</ele>
        <time>2021-07-10T11:52:41.554Z</time>
      </trkpt>
      <trkpt lat="46.39281" lon="8.03856">
        <ele>2188</ele>
        <time>2021-07-10T11:52:42.554Z</time>
      </trkpt>
      <trkpt lat="46.3928" lon="8.03856">
        <ele>2188</ele>
        <time>2021-07-10T11:52:43.554Z</time>
      </trkpt>
      <trkpt lat="46.39279" lon="8.03855">
        <ele>2187</ele>
        <time>2021-07-10T11:52:44.555Z</time>
      </trkpt>
      <trkpt lat="46.39278" lon="8.03855">
        <ele>2187</ele>
        <time>2021-07-10T11:52:45.555Z</time>
      </trkpt>
      <trkpt lat="46.39278" lon="8.03855">
        <ele>2187</ele>
        <time>2021-07-10T11:52:46.555Z</time>
      </trkpt>
      <trkpt lat="46.39277" lon="8.03854">
        <ele>2187</ele>
        <time>2021-07-10T11:52:47.555Z</time>
      </trkpt>
      <trkpt lat="46.39276" lon="8.03854">
        <ele>2187</ele>
        <time>2021-07-10T11:52:48.555Z</time>
      </trkpt>
      <trkpt lat="46.39276" lon="8.03854">
        <ele>2187</ele>
        <time>2021-07-10T11:52:49.555Z</time>
      </trkpt>
      <trkpt lat="46.39276" lon="8.03854">
        <ele>2188</ele>
        <time>2021-07-10T11:52:50.555Z</time>
      </trkpt>
      <trkpt lat="46.39276" lon="8.03854">
        <ele>2187</ele>
        <time>2021-07-10T11:52:51.555Z</time>
      </trkpt>
      <trkpt lat="46.39275" lon="8.03854">
        <ele>2187</ele>
        <time>2021-07-10T11:52:52.556Z</time>
      </trkpt>
      <trkpt lat="46.39274" lon="8.03854">
        <ele>2187</ele>
        <time>2021-07-10T11:52:53.556Z</time>
      </trkpt>
      <trkpt lat="46.39273" lon="8.03854">
        <ele>2187</ele>
        <time>2021-07-10T11:52:54.555Z</time>
      </trkpt>
      <trkpt lat="46.39273" lon="8.03854">
        <ele>2188</ele>
        <time>2021-07-10T11:52:55.555Z</time>
      </trkpt>
      <trkpt lat="46.39272" lon="8.03854">
        <ele>2188</ele>
        <time>2021-07-10T11:52:56.555Z</time>
      </trkpt>
      <trkpt lat="46.39272" lon="8.03854">
        <ele>2188</ele>
        <time>2021-07-10T11:52:57.556Z</time>
      </trkpt>
      <trkpt lat="46.39271" lon="8.03854">
        <ele>2188</ele>
        <time>2021-07-10T11:52:58.556Z</time>
      </trkpt>
      <trkpt lat="46.3927" lon="8.03853">
        <ele>2187</ele>
        <time>2021-07-10T11:52:59.555Z</time>
      </trkpt>
      <trkpt lat="46.3927" lon="8.03853">
        <ele>2187</ele>
        <time>2021-07-10T11:53:00.556Z</time>
      </trkpt>
      <trkpt lat="46.39269" lon="8.03852">
        <ele>2187</ele>
        <time>2021-07-10T11:53:01.555Z</time>
      </trkpt>
      <trkpt lat="46.39268" lon="8.03851">
        <ele>2187</ele>
        <time>2021-07-10T11:53:02.556Z</time>
      </trkpt>
      <trkpt lat="46.39268" lon="8.03851">
        <ele>2187</ele>
        <time>2021-07-10T11:53:03.556Z</time>
      </trkpt>
      <trkpt lat="46.39268" lon="8.0385">
        <ele>2187</ele>
        <time>2021-07-10T11:53:04.556Z</time>
      </trkpt>
      <trkpt lat="46.39267" lon="8.0385">
        <ele>2187</ele>
        <time>2021-07-10T11:53:05.556Z</time>
      </trkpt>
      <trkpt lat="46.39267" lon="8.03849">
        <ele>2187</ele>
        <time>2021-07-10T11:53:06.556Z</time>
      </trkpt>
      <trkpt lat="46.39266" lon="8.03848">
        <ele>2187</ele>
        <time>2021-07-10T11:53:07.555Z</time>
      </trkpt>
      <trkpt lat="46.39266" lon="8.03848">
        <ele>2187</ele>
        <time>2021-07-10T11:53:08.555Z</time>
      </trkpt>
      <trkpt lat="46.39265" lon="8.03847">
        <ele>2187</ele>
        <time>2021-07-10T11:53:09.556Z</time>
      </trkpt>
      <trkpt lat="46.39264" lon="8.03847">
        <ele>2187</ele>
        <time>2021-07-10T11:53:10.556Z</time>
      </trkpt>
      <trkpt lat="46.39264" lon="8.03846">
        <ele>2187</ele>
        <time>2021-07-10T11:53:11.556Z</time>
      </trkpt>
      <trkpt lat="46.39263" lon="8.03846">
        <ele>2187</ele>
        <time>2021-07-10T11:53:12.555Z</time>
      </trkpt>
      <trkpt lat="46.39263" lon="8.03845">
        <ele>2187</ele>
        <time>2021-07-10T11:53:13.556Z</time>
      </trkpt>
      <trkpt lat="46.39262" lon="8.03844">
        <ele>2187</ele>
        <time>2021-07-10T11:53:14.555Z</time>
      </trkpt>
      <trkpt lat="46.39262" lon="8.03843">
        <ele>2186</ele>
        <time>2021-07-10T11:53:15.555Z</time>
      </trkpt>
      <trkpt lat="46.39261" lon="8.03842">
        <ele>2185</ele>
        <time>2021-07-10T11:53:16.555Z</time>
      </trkpt>
      <trkpt lat="46.39261" lon="8.03841">
        <ele>2184</ele>
        <time>2021-07-10T11:53:17.556Z</time>
      </trkpt>
      <trkpt lat="46.39261" lon="8.03841">
        <ele>2184</ele>
        <time>2021-07-10T11:53:18.556Z</time>
      </trkpt>
      <trkpt lat="46.3926" lon="8.0384">
        <ele>2183</ele>
        <time>2021-07-10T11:53:19.555Z</time>
      </trkpt>
      <trkpt lat="46.39259" lon="8.0384">
        <ele>2183</ele>
        <time>2021-07-10T11:53:20.555Z</time>
      </trkpt>
      <trkpt lat="46.39259" lon="8.03839">
        <ele>2183</ele>
        <time>2021-07-10T11:53:21.556Z</time>
      </trkpt>
      <trkpt lat="46.39258" lon="8.03838">
        <ele>2182</ele>
        <time>2021-07-10T11:53:22.555Z</time>
      </trkpt>
      <trkpt lat="46.39258" lon="8.03837">
        <ele>2182</ele>
        <time>2021-07-10T11:53:23.555Z</time>
      </trkpt>
      <trkpt lat="46.39257" lon="8.03837">
        <ele>2181</ele>
        <time>2021-07-10T11:53:24.555Z</time>
      </trkpt>
      <trkpt lat="46.39256" lon="8.03837">
        <ele>2180</ele>
        <time>2021-07-10T11:53:25.556Z</time>
      </trkpt>
      <trkpt lat="46.39256" lon="8.03836">
        <ele>2180</ele>
        <time>2021-07-10T11:53:26.555Z</time>
      </trkpt>
      <trkpt lat="46.39256" lon="8.03835">
        <ele>2180</ele>
        <time>2021-07-10T11:53:27.556Z</time>
      </trkpt>
      <trkpt lat="46.39255" lon="8.03834">
        <ele>2179</ele>
        <time>2021-07-10T11:53:28.556Z</time>
      </trkpt>
      <trkpt lat="46.39254" lon="8.03833">
        <ele>2179</ele>
        <time>2021-07-10T11:53:29.556Z</time>
      </trkpt>
      <trkpt lat="46.39254" lon="8.03833">
        <ele>2179</ele>
        <time>2021-07-10T11:53:30.555Z</time>
      </trkpt>
      <trkpt lat="46.39253" lon="8.03832">
        <ele>2179</ele>
        <time>2021-07-10T11:53:31.555Z</time>
      </trkpt>
      <trkpt lat="46.39253" lon="8.03832">
        <ele>2179</ele>
        <time>2021-07-10T11:53:32.555Z</time>
      </trkpt>
      <trkpt lat="46.39252" lon="8.03831">
        <ele>2179</ele>
        <time>2021-07-10T11:53:33.556Z</time>
      </trkpt>
      <trkpt lat="46.39252" lon="8.03831">
        <ele>2178</ele>
        <time>2021-07-10T11:53:34.556Z</time>
      </trkpt>
      <trkpt lat="46.39252" lon="8.03831">
        <ele>2178</ele>
        <time>2021-07-10T11:53:35.556Z</time>
      </trkpt>
      <trkpt lat="46.39252" lon="8.03834">
        <ele>2175</ele>
        <time>2021-07-10T11:53:36.556Z</time>
      </trkpt>
      <trkpt lat="46.39251" lon="8.03833">
        <ele>2175</ele>
        <time>2021-07-10T11:53:37.556Z</time>
      </trkpt>
      <trkpt lat="46.3925" lon="8.03832">
        <ele>2175</ele>
        <time>2021-07-10T11:53:38.555Z</time>
      </trkpt>
      <trkpt lat="46.3925" lon="8.03831">
        <ele>2175</ele>
        <time>2021-07-10T11:53:39.555Z</time>
      </trkpt>
      <trkpt lat="46.3925" lon="8.0383">
        <ele>2175</ele>
        <time>2021-07-10T11:53:40.555Z</time>
      </trkpt>
      <trkpt lat="46.39249" lon="8.03828">
        <ele>2174</ele>
        <time>2021-07-10T11:53:41.555Z</time>
      </trkpt>
      <trkpt lat="46.39248" lon="8.03828">
        <ele>2174</ele>
        <time>2021-07-10T11:53:42.556Z</time>
      </trkpt>
      <trkpt lat="46.39247" lon="8.03827">
        <ele>2174</ele>
        <time>2021-07-10T11:53:43.556Z</time>
      </trkpt>
      <trkpt lat="46.39247" lon="8.03826">
        <ele>2173</ele>
        <time>2021-07-10T11:53:44.555Z</time>
      </trkpt>
      <trkpt lat="46.39246" lon="8.03824">
        <ele>2173</ele>
        <time>2021-07-10T11:53:45.556Z</time>
      </trkpt>
      <trkpt lat="46.39245" lon="8.03823">
        <ele>2173</ele>
        <time>2021-07-10T11:53:46.556Z</time>
      </trkpt>
      <trkpt lat="46.39245" lon="8.03822">
        <ele>2173</ele>
        <time>2021-07-10T11:53:47.556Z</time>
      </trkpt>
      <trkpt lat="46.39244" lon="8.03821">
        <ele>2173</ele>
        <time>2021-07-10T11:53:48.556Z</time>
      </trkpt>
      <trkpt lat="46.39243" lon="8.0382">
        <ele>2173</ele>
        <time>2021-07-10T11:53:49.556Z</time>
      </trkpt>
      <trkpt lat="46.39242" lon="8.03819">
        <ele>2173</ele>
        <time>2021-07-10T11:53:50.556Z</time>
      </trkpt>
      <trkpt lat="46.39242" lon="8.03818">
        <ele>2173</ele>
        <time>2021-07-10T11:53:51.556Z</time>
      </trkpt>
      <trkpt lat="46.39241" lon="8.03817">
        <ele>2173</ele>
        <time>2021-07-10T11:53:52.555Z</time>
      </trkpt>
      <trkpt lat="46.3924" lon="8.03815">
        <ele>2174</ele>
        <time>2021-07-10T11:53:53.555Z</time>
      </trkpt>
      <trkpt lat="46.3924" lon="8.03814">
        <ele>2174</ele>
        <time>2021-07-10T11:53:54.555Z</time>
      </trkpt>
      <trkpt lat="46.3924" lon="8.03813">
        <ele>2175</ele>
        <time>2021-07-10T11:53:55.555Z</time>
      </trkpt>
      <trkpt lat="46.39239" lon="8.03813">
        <ele>2175</ele>
        <time>2021-07-10T11:53:56.556Z</time>
      </trkpt>
      <trkpt lat="46.39238" lon="8.03812">
        <ele>2175</ele>
        <time>2021-07-10T11:53:57.556Z</time>
      </trkpt>
      <trkpt lat="46.39238" lon="8.0381">
        <ele>2175</ele>
        <time>2021-07-10T11:53:58.555Z</time>
      </trkpt>
      <trkpt lat="46.39238" lon="8.03808">
        <ele>2175</ele>
        <time>2021-07-10T11:53:59.556Z</time>
      </trkpt>
      <trkpt lat="46.39237" lon="8.03806">
        <ele>2174</ele>
        <time>2021-07-10T11:54:00.555Z</time>
      </trkpt>
      <trkpt lat="46.39237" lon="8.03805">
        <ele>2174</ele>
        <time>2021-07-10T11:54:01.555Z</time>
      </trkpt>
      <trkpt lat="46.39236" lon="8.03804">
        <ele>2173</ele>
        <time>2021-07-10T11:54:02.555Z</time>
      </trkpt>
      <trkpt lat="46.39235" lon="8.03803">
        <ele>2173</ele>
        <time>2021-07-10T11:54:03.556Z</time>
      </trkpt>
      <trkpt lat="46.39235" lon="8.03802">
        <ele>2172</ele>
        <time>2021-07-10T11:54:04.555Z</time>
      </trkpt>
      <trkpt lat="46.39235" lon="8.03801">
        <ele>2172</ele>
        <time>2021-07-10T11:54:05.555Z</time>
      </trkpt>
      <trkpt lat="46.39235" lon="8.038">
        <ele>2172</ele>
        <time>2021-07-10T11:54:06.555Z</time>
      </trkpt>
      <trkpt lat="46.39234" lon="8.03799">
        <ele>2173</ele>
        <time>2021-07-10T11:54:07.556Z</time>
      </trkpt>
      <trkpt lat="46.39234" lon="8.03798">
        <ele>2173</ele>
        <time>2021-07-10T11:54:08.555Z</time>
      </trkpt>
      <trkpt lat="46.39234" lon="8.03799">
        <ele>2173</ele>
        <time>2021-07-10T11:54:09.556Z</time>
      </trkpt>
      <trkpt lat="46.39235" lon="8.03799">
        <ele>2174</ele>
        <time>2021-07-10T11:54:10.555Z</time>
      </trkpt>
      <trkpt lat="46.39235" lon="8.038">
        <ele>2174</ele>
        <time>2021-07-10T11:54:11.556Z</time>
      </trkpt>
      <trkpt lat="46.39236" lon="8.038">
        <ele>2174</ele>
        <time>2021-07-10T11:54:12.555Z</time>
      </trkpt>
      <trkpt lat="46.39237" lon="8.03801">
        <ele>2173</ele>
        <time>2021-07-10T11:54:13.555Z</time>
      </trkpt>
      <trkpt lat="46.39237" lon="8.03802">
        <ele>2173</ele>
        <time>2021-07-10T11:54:14.555Z</time>
      </trkpt>
      <trkpt lat="46.39237" lon="8.03803">
        <ele>2173</ele>
        <time>2021-07-10T11:54:15.555Z</time>
      </trkpt>
      <trkpt lat="46.39238" lon="8.03804">
        <ele>2173</ele>
        <time>2021-07-10T11:54:16.555Z</time>
      </trkpt>
      <trkpt lat="46.39239" lon="8.03805">
        <ele>2173</ele>
        <time>2021-07-10T11:54:17.556Z</time>
      </trkpt>
      <trkpt lat="46.39239" lon="8.03805">
        <ele>2172</ele>
        <time>2021-07-10T11:54:18.556Z</time>
      </trkpt>
      <trkpt lat="46.3924" lon="8.03805">
        <ele>2171</ele>
        <time>2021-07-10T11:54:19.556Z</time>
      </trkpt>
      <trkpt lat="46.3924" lon="8.03805">
        <ele>2171</ele>
        <time>2021-07-10T11:54:20.555Z</time>
      </trkpt>
      <trkpt lat="46.39241" lon="8.03806">
        <ele>2171</ele>
        <time>2021-07-10T11:54:21.555Z</time>
      </trkpt>
      <trkpt lat="46.39242" lon="8.03806">
        <ele>2171</ele>
        <time>2021-07-10T11:54:22.555Z</time>
      </trkpt>
      <trkpt lat="46.39242" lon="8.03807">
        <ele>2171</ele>
        <time>2021-07-10T11:54:23.556Z</time>
      </trkpt>
      <trkpt lat="46.39243" lon="8.03808">
        <ele>2171</ele>
        <time>2021-07-10T11:54:24.555Z</time>
      </trkpt>
      <trkpt lat="46.39244" lon="8.03808">
        <ele>2171</ele>
        <time>2021-07-10T11:54:25.555Z</time>
      </trkpt>
      <trkpt lat="46.39244" lon="8.03809">
        <ele>2171</ele>
        <time>2021-07-10T11:54:26.556Z</time>
      </trkpt>
      <trkpt lat="46.39244" lon="8.0381">
        <ele>2171</ele>
        <time>2021-07-10T11:54:27.555Z</time>
      </trkpt>
      <trkpt lat="46.39245" lon="8.03811">
        <ele>2171</ele>
        <time>2021-07-10T11:54:28.555Z</time>
      </trkpt>
      <trkpt lat="46.39246" lon="8.03811">
        <ele>2171</ele>
        <time>2021-07-10T11:54:29.555Z</time>
      </trkpt>
      <trkpt lat="46.39247" lon="8.03812">
        <ele>2170</ele>
        <time>2021-07-10T11:54:30.555Z</time>
      </trkpt>
      <trkpt lat="46.39247" lon="8.03813">
        <ele>2170</ele>
        <time>2021-07-10T11:54:31.555Z</time>
      </trkpt>
      <trkpt lat="46.39248" lon="8.03813">
        <ele>2170</ele>
        <time>2021-07-10T11:54:32.556Z</time>
      </trkpt>
      <trkpt lat="46.39249" lon="8.03814">
        <ele>2170</ele>
        <time>2021-07-10T11:54:33.556Z</time>
      </trkpt>
      <trkpt lat="46.3925" lon="8.03814">
        <ele>2170</ele>
        <time>2021-07-10T11:54:34.556Z</time>
      </trkpt>
      <trkpt lat="46.3925" lon="8.03814">
        <ele>2171</ele>
        <time>2021-07-10T11:54:35.555Z</time>
      </trkpt>
      <trkpt lat="46.39251" lon="8.03814">
        <ele>2171</ele>
        <time>2021-07-10T11:54:36.556Z</time>
      </trkpt>
      <trkpt lat="46.39252" lon="8.03814">
        <ele>2171</ele>
        <time>2021-07-10T11:54:37.555Z</time>
      </trkpt>
      <trkpt lat="46.39253" lon="8.03814">
        <ele>2170</ele>
        <time>2021-07-10T11:54:38.555Z</time>
      </trkpt>
      <trkpt lat="46.39253" lon="8.03815">
        <ele>2170</ele>
        <time>2021-07-10T11:54:39.555Z</time>
      </trkpt>
      <trkpt lat="46.39254" lon="8.03815">
        <ele>2169</ele>
        <time>2021-07-10T11:54:40.555Z</time>
      </trkpt>
      <trkpt lat="46.39255" lon="8.03815">
        <ele>2169</ele>
        <time>2021-07-10T11:54:41.555Z</time>
      </trkpt>
      <trkpt lat="46.39256" lon="8.03816">
        <ele>2169</ele>
        <time>2021-07-10T11:54:42.555Z</time>
      </trkpt>
      <trkpt lat="46.39257" lon="8.03816">
        <ele>2169</ele>
        <time>2021-07-10T11:54:43.555Z</time>
      </trkpt>
      <trkpt lat="46.39257" lon="8.03816">
        <ele>2169</ele>
        <time>2021-07-10T11:54:44.556Z</time>
      </trkpt>
      <trkpt lat="46.39258" lon="8.03817">
        <ele>2169</ele>
        <time>2021-07-10T11:54:45.555Z</time>
      </trkpt>
      <trkpt lat="46.39259" lon="8.03817">
        <ele>2169</ele>
        <time>2021-07-10T11:54:46.556Z</time>
      </trkpt>
      <trkpt lat="46.3926" lon="8.03817">
        <ele>2168</ele>
        <time>2021-07-10T11:54:47.555Z</time>
      </trkpt>
      <trkpt lat="46.39261" lon="8.03817">
        <ele>2168</ele>
        <time>2021-07-10T11:54:48.556Z</time>
      </trkpt>
      <trkpt lat="46.39262" lon="8.03817">
        <ele>2168</ele>
        <time>2021-07-10T11:54:49.555Z</time>
      </trkpt>
      <trkpt lat="46.39263" lon="8.03817">
        <ele>2169</ele>
        <time>2021-07-10T11:54:50.555Z</time>
      </trkpt>
      <trkpt lat="46.39263" lon="8.03816">
        <ele>2169</ele>
        <time>2021-07-10T11:54:51.555Z</time>
      </trkpt>
      <trkpt lat="46.39264" lon="8.03815">
        <ele>2169</ele>
        <time>2021-07-10T11:54:52.555Z</time>
      </trkpt>
      <trkpt lat="46.39264" lon="8.03814">
        <ele>2169</ele>
        <time>2021-07-10T11:54:53.555Z</time>
      </trkpt>
      <trkpt lat="46.39264" lon="8.03813">
        <ele>2169</ele>
        <time>2021-07-10T11:54:54.556Z</time>
      </trkpt>
      <trkpt lat="46.39264" lon="8.03812">
        <ele>2168</ele>
        <time>2021-07-10T11:54:55.555Z</time>
      </trkpt>
      <trkpt lat="46.39264" lon="8.03811">
        <ele>2168</ele>
        <time>2021-07-10T11:54:56.555Z</time>
      </trkpt>
      <trkpt lat="46.39264" lon="8.0381">
        <ele>2167</ele>
        <time>2021-07-10T11:54:57.556Z</time>
      </trkpt>
      <trkpt lat="46.39263" lon="8.03809">
        <ele>2167</ele>
        <time>2021-07-10T11:54:58.555Z</time>
      </trkpt>
      <trkpt lat="46.39263" lon="8.03808">
        <ele>2167</ele>
        <time>2021-07-10T11:54:59.555Z</time>
      </trkpt>
      <trkpt lat="46.39262" lon="8.03806">
        <ele>2166</ele>
        <time>2021-07-10T11:55:00.555Z</time>
      </trkpt>
      <trkpt lat="46.39262" lon="8.03805">
        <ele>2166</ele>
        <time>2021-07-10T11:55:01.555Z</time>
      </trkpt>
      <trkpt lat="46.39262" lon="8.03804">
        <ele>2165</ele>
        <time>2021-07-10T11:55:02.556Z</time>
      </trkpt>
      <trkpt lat="46.39261" lon="8.03803">
        <ele>2165</ele>
        <time>2021-07-10T11:55:03.555Z</time>
      </trkpt>
      <trkpt lat="46.39261" lon="8.03801">
        <ele>2165</ele>
        <time>2021-07-10T11:55:04.555Z</time>
      </trkpt>
      <trkpt lat="46.3926" lon="8.03801">
        <ele>2165</ele>
        <time>2021-07-10T11:55:05.555Z</time>
      </trkpt>
      <trkpt lat="46.39259" lon="8.038">
        <ele>2164</ele>
        <time>2021-07-10T11:55:06.556Z</time>
      </trkpt>
      <trkpt lat="46.39258" lon="8.03799">
        <ele>2163</ele>
        <time>2021-07-10T11:55:07.555Z</time>
      </trkpt>
      <trkpt lat="46.39258" lon="8.03798">
        <ele>2162</ele>
        <time>2021-07-10T11:55:08.555Z</time>
      </trkpt>
      <trkpt lat="46.39258" lon="8.03797">
        <ele>2162</ele>
        <time>2021-07-10T11:55:09.555Z</time>
      </trkpt>
      <trkpt lat="46.39258" lon="8.03797">
        <ele>2162</ele>
        <time>2021-07-10T11:55:10.555Z</time>
      </trkpt>
      <trkpt lat="46.39258" lon="8.03798">
        <ele>2162</ele>
        <time>2021-07-10T11:55:11.555Z</time>
      </trkpt>
      <trkpt lat="46.39258" lon="8.03798">
        <ele>2162</ele>
        <time>2021-07-10T11:55:12.555Z</time>
      </trkpt>
      <trkpt lat="46.39258" lon="8.03798">
        <ele>2163</ele>
        <time>2021-07-10T11:55:13.555Z</time>
      </trkpt>
      <trkpt lat="46.39259" lon="8.03798">
        <ele>2164</ele>
        <time>2021-07-10T11:55:14.555Z</time>
      </trkpt>
      <trkpt lat="46.39259" lon="8.03798">
        <ele>2164</ele>
        <time>2021-07-10T11:55:15.555Z</time>
      </trkpt>
      <trkpt lat="46.3926" lon="8.03798">
        <ele>2165</ele>
        <time>2021-07-10T11:55:16.555Z</time>
      </trkpt>
      <trkpt lat="46.3926" lon="8.03798">
        <ele>2164</ele>
        <time>2021-07-10T11:55:17.555Z</time>
      </trkpt>
      <trkpt lat="46.39261" lon="8.03799">
        <ele>2164</ele>
        <time>2021-07-10T11:55:18.555Z</time>
      </trkpt>
      <trkpt lat="46.39261" lon="8.03799">
        <ele>2164</ele>
        <time>2021-07-10T11:55:19.555Z</time>
      </trkpt>
      <trkpt lat="46.39261" lon="8.03799">
        <ele>2164</ele>
        <time>2021-07-10T11:55:20.555Z</time>
      </trkpt>
      <trkpt lat="46.39262" lon="8.03799">
        <ele>2163</ele>
        <time>2021-07-10T11:55:21.555Z</time>
      </trkpt>
      <trkpt lat="46.39263" lon="8.03799">
        <ele>2163</ele>
        <time>2021-07-10T11:55:22.555Z</time>
      </trkpt>
      <trkpt lat="46.39264" lon="8.03799">
        <ele>2163</ele>
        <time>2021-07-10T11:55:23.555Z</time>
      </trkpt>
      <trkpt lat="46.39264" lon="8.03799">
        <ele>2163</ele>
        <time>2021-07-10T11:55:24.555Z</time>
      </trkpt>
      <trkpt lat="46.39265" lon="8.03799">
        <ele>2163</ele>
        <time>2021-07-10T11:55:25.555Z</time>
      </trkpt>
      <trkpt lat="46.39266" lon="8.03799">
        <ele>2163</ele>
        <time>2021-07-10T11:55:26.555Z</time>
      </trkpt>
      <trkpt lat="46.39267" lon="8.03799">
        <ele>2163</ele>
        <time>2021-07-10T11:55:27.555Z</time>
      </trkpt>
      <trkpt lat="46.39268" lon="8.03799">
        <ele>2164</ele>
        <time>2021-07-10T11:55:28.555Z</time>
      </trkpt>
      <trkpt lat="46.39268" lon="8.038">
        <ele>2164</ele>
        <time>2021-07-10T11:55:29.555Z</time>
      </trkpt>
      <trkpt lat="46.39269" lon="8.038">
        <ele>2164</ele>
        <time>2021-07-10T11:55:30.555Z</time>
      </trkpt>
      <trkpt lat="46.3927" lon="8.038">
        <ele>2164</ele>
        <time>2021-07-10T11:55:31.555Z</time>
      </trkpt>
      <trkpt lat="46.39271" lon="8.03801">
        <ele>2163</ele>
        <time>2021-07-10T11:55:32.555Z</time>
      </trkpt>
      <trkpt lat="46.39271" lon="8.03802">
        <ele>2163</ele>
        <time>2021-07-10T11:55:33.555Z</time>
      </trkpt>
      <trkpt lat="46.39272" lon="8.03802">
        <ele>2162</ele>
        <time>2021-07-10T11:55:34.555Z</time>
      </trkpt>
      <trkpt lat="46.39273" lon="8.03803">
        <ele>2161</ele>
        <time>2021-07-10T11:55:35.555Z</time>
      </trkpt>
      <trkpt lat="46.39275" lon="8.03803">
        <ele>2161</ele>
        <time>2021-07-10T11:55:36.555Z</time>
      </trkpt>
      <trkpt lat="46.39276" lon="8.03804">
        <ele>2161</ele>
        <time>2021-07-10T11:55:37.555Z</time>
      </trkpt>
      <trkpt lat="46.39277" lon="8.03805">
        <ele>2161</ele>
        <time>2021-07-10T11:55:38.555Z</time>
      </trkpt>
      <trkpt lat="46.39278" lon="8.03806">
        <ele>2161</ele>
        <time>2021-07-10T11:55:39.556Z</time>
      </trkpt>
      <trkpt lat="46.39279" lon="8.03807">
        <ele>2161</ele>
        <time>2021-07-10T11:55:40.555Z</time>
      </trkpt>
      <trkpt lat="46.39279" lon="8.03808">
        <ele>2160</ele>
        <time>2021-07-10T11:55:41.555Z</time>
      </trkpt>
      <trkpt lat="46.39279" lon="8.03809">
        <ele>2160</ele>
        <time>2021-07-10T11:55:42.555Z</time>
      </trkpt>
      <trkpt lat="46.3928" lon="8.03809">
        <ele>2160</ele>
        <time>2021-07-10T11:55:43.556Z</time>
      </trkpt>
      <trkpt lat="46.3928" lon="8.0381">
        <ele>2160</ele>
        <time>2021-07-10T11:55:44.555Z</time>
      </trkpt>
      <trkpt lat="46.39281" lon="8.0381">
        <ele>2160</ele>
        <time>2021-07-10T11:55:45.555Z</time>
      </trkpt>
      <trkpt lat="46.39282" lon="8.03811">
        <ele>2160</ele>
        <time>2021-07-10T11:55:46.555Z</time>
      </trkpt>
      <trkpt lat="46.39283" lon="8.03811">
        <ele>2160</ele>
        <time>2021-07-10T11:55:47.556Z</time>
      </trkpt>
      <trkpt lat="46.39283" lon="8.03811">
        <ele>2161</ele>
        <time>2021-07-10T11:55:48.556Z</time>
      </trkpt>
      <trkpt lat="46.39284" lon="8.03811">
        <ele>2161</ele>
        <time>2021-07-10T11:55:49.556Z</time>
      </trkpt>
      <trkpt lat="46.39285" lon="8.03812">
        <ele>2161</ele>
        <time>2021-07-10T11:55:50.556Z</time>
      </trkpt>
      <trkpt lat="46.39285" lon="8.03812">
        <ele>2161</ele>
        <time>2021-07-10T11:55:51.555Z</time>
      </trkpt>
      <trkpt lat="46.39285" lon="8.03812">
        <ele>2161</ele>
        <time>2021-07-10T11:55:52.556Z</time>
      </trkpt>
      <trkpt lat="46.39286" lon="8.03812">
        <ele>2161</ele>
        <time>2021-07-10T11:55:53.556Z</time>
      </trkpt>
      <trkpt lat="46.39286" lon="8.03812">
        <ele>2161</ele>
        <time>2021-07-10T11:55:54.555Z</time>
      </trkpt>
      <trkpt lat="46.39286" lon="8.03811">
        <ele>2162</ele>
        <time>2021-07-10T11:55:55.555Z</time>
      </trkpt>
      <trkpt lat="46.39287" lon="8.0381">
        <ele>2162</ele>
        <time>2021-07-10T11:55:56.555Z</time>
      </trkpt>
      <trkpt lat="46.39288" lon="8.03808">
        <ele>2162</ele>
        <time>2021-07-10T11:55:57.556Z</time>
      </trkpt>
      <trkpt lat="46.39289" lon="8.03806">
        <ele>2162</ele>
        <time>2021-07-10T11:55:58.556Z</time>
      </trkpt>
      <trkpt lat="46.39288" lon="8.03804">
        <ele>2162</ele>
        <time>2021-07-10T11:55:59.555Z</time>
      </trkpt>
      <trkpt lat="46.39287" lon="8.03803">
        <ele>2162</ele>
        <time>2021-07-10T11:56:00.555Z</time>
      </trkpt>
      <trkpt lat="46.39287" lon="8.03802">
        <ele>2162</ele>
        <time>2021-07-10T11:56:01.555Z</time>
      </trkpt>
      <trkpt lat="46.39286" lon="8.03801">
        <ele>2162</ele>
        <time>2021-07-10T11:56:02.556Z</time>
      </trkpt>
      <trkpt lat="46.39287" lon="8.038">
        <ele>2162</ele>
        <time>2021-07-10T11:56:03.556Z</time>
      </trkpt>
      <trkpt lat="46.39287" lon="8.03799">
        <ele>2162</ele>
        <time>2021-07-10T11:56:04.555Z</time>
      </trkpt>
      <trkpt lat="46.39287" lon="8.03798">
        <ele>2162</ele>
        <time>2021-07-10T11:56:05.556Z</time>
      </trkpt>
      <trkpt lat="46.39286" lon="8.03798">
        <ele>2161</ele>
        <time>2021-07-10T11:56:06.555Z</time>
      </trkpt>
      <trkpt lat="46.39285" lon="8.03797">
        <ele>2160</ele>
        <time>2021-07-10T11:56:07.556Z</time>
      </trkpt>
      <trkpt lat="46.39285" lon="8.03796">
        <ele>2160</ele>
        <time>2021-07-10T11:56:08.555Z</time>
      </trkpt>
      <trkpt lat="46.39284" lon="8.03796">
        <ele>2159</ele>
        <time>2021-07-10T11:56:09.556Z</time>
      </trkpt>
      <trkpt lat="46.39284" lon="8.03796">
        <ele>2158</ele>
        <time>2021-07-10T11:56:10.555Z</time>
      </trkpt>
      <trkpt lat="46.39283" lon="8.03796">
        <ele>2158</ele>
        <time>2021-07-10T11:56:11.556Z</time>
      </trkpt>
      <trkpt lat="46.39283" lon="8.03796">
        <ele>2157</ele>
        <time>2021-07-10T11:56:12.556Z</time>
      </trkpt>
      <trkpt lat="46.39283" lon="8.03795">
        <ele>2154</ele>
        <time>2021-07-10T11:56:13.556Z</time>
      </trkpt>
      <trkpt lat="46.39284" lon="8.03794">
        <ele>2154</ele>
        <time>2021-07-10T11:56:14.556Z</time>
      </trkpt>
      <trkpt lat="46.39285" lon="8.03794">
        <ele>2157</ele>
        <time>2021-07-10T11:56:15.557Z</time>
      </trkpt>
      <trkpt lat="46.39286" lon="8.03793">
        <ele>2157</ele>
        <time>2021-07-10T11:56:16.556Z</time>
      </trkpt>
      <trkpt lat="46.39286" lon="8.03792">
        <ele>2157</ele>
        <time>2021-07-10T11:56:17.556Z</time>
      </trkpt>
      <trkpt lat="46.39287" lon="8.03792">
        <ele>2157</ele>
        <time>2021-07-10T11:56:18.557Z</time>
      </trkpt>
      <trkpt lat="46.39287" lon="8.03792">
        <ele>2156</ele>
        <time>2021-07-10T11:56:19.557Z</time>
      </trkpt>
      <trkpt lat="46.39288" lon="8.03792">
        <ele>2156</ele>
        <time>2021-07-10T11:56:20.557Z</time>
      </trkpt>
      <trkpt lat="46.39289" lon="8.03792">
        <ele>2155</ele>
        <time>2021-07-10T11:56:21.557Z</time>
      </trkpt>
      <trkpt lat="46.3929" lon="8.03792">
        <ele>2155</ele>
        <time>2021-07-10T11:56:22.556Z</time>
      </trkpt>
      <trkpt lat="46.39291" lon="8.03792">
        <ele>2154</ele>
        <time>2021-07-10T11:56:23.557Z</time>
      </trkpt>
      <trkpt lat="46.39291" lon="8.03792">
        <ele>2154</ele>
        <time>2021-07-10T11:56:24.557Z</time>
      </trkpt>
      <trkpt lat="46.39292" lon="8.03792">
        <ele>2154</ele>
        <time>2021-07-10T11:56:25.556Z</time>
      </trkpt>
      <trkpt lat="46.39293" lon="8.03792">
        <ele>2154</ele>
        <time>2021-07-10T11:56:26.557Z</time>
      </trkpt>
      <trkpt lat="46.39294" lon="8.03791">
        <ele>2153</ele>
        <time>2021-07-10T11:56:27.557Z</time>
      </trkpt>
      <trkpt lat="46.39295" lon="8.0379">
        <ele>2153</ele>
        <time>2021-07-10T11:56:28.557Z</time>
      </trkpt>
      <trkpt lat="46.39296" lon="8.03789">
        <ele>2153</ele>
        <time>2021-07-10T11:56:29.557Z</time>
      </trkpt>
      <trkpt lat="46.39296" lon="8.03788">
        <ele>2153</ele>
        <time>2021-07-10T11:56:30.557Z</time>
      </trkpt>
      <trkpt lat="46.39297" lon="8.03788">
        <ele>2152</ele>
        <time>2021-07-10T11:56:31.556Z</time>
      </trkpt>
      <trkpt lat="46.39297" lon="8.03787">
        <ele>2152</ele>
        <time>2021-07-10T11:56:32.557Z</time>
      </trkpt>
      <trkpt lat="46.39298" lon="8.03787">
        <ele>2152</ele>
        <time>2021-07-10T11:56:33.556Z</time>
      </trkpt>
      <trkpt lat="46.39298" lon="8.03787">
        <ele>2153</ele>
        <time>2021-07-10T11:56:34.557Z</time>
      </trkpt>
      <trkpt lat="46.39298" lon="8.03787">
        <ele>2153</ele>
        <time>2021-07-10T11:56:35.556Z</time>
      </trkpt>
      <trkpt lat="46.39298" lon="8.03788">
        <ele>2153</ele>
        <time>2021-07-10T11:56:36.557Z</time>
      </trkpt>
      <trkpt lat="46.39298" lon="8.03788">
        <ele>2153</ele>
        <time>2021-07-10T11:56:37.556Z</time>
      </trkpt>
      <trkpt lat="46.39298" lon="8.03788">
        <ele>2153</ele>
        <time>2021-07-10T11:56:38.557Z</time>
      </trkpt>
      <trkpt lat="46.39295" lon="8.03788">
        <ele>2157</ele>
        <time>2021-07-10T11:56:39.557Z</time>
      </trkpt>
      <trkpt lat="46.39295" lon="8.03787">
        <ele>2156</ele>
        <time>2021-07-10T11:56:40.557Z</time>
      </trkpt>
      <trkpt lat="46.39296" lon="8.03786">
        <ele>2156</ele>
        <time>2021-07-10T11:56:41.557Z</time>
      </trkpt>
      <trkpt lat="46.39296" lon="8.03785">
        <ele>2156</ele>
        <time>2021-07-10T11:56:42.557Z</time>
      </trkpt>
      <trkpt lat="46.39296" lon="8.03784">
        <ele>2156</ele>
        <time>2021-07-10T11:56:43.557Z</time>
      </trkpt>
      <trkpt lat="46.39295" lon="8.03781">
        <ele>2156</ele>
        <time>2021-07-10T11:56:44.557Z</time>
      </trkpt>
      <trkpt lat="46.39294" lon="8.0378">
        <ele>2156</ele>
        <time>2021-07-10T11:56:45.557Z</time>
      </trkpt>
      <trkpt lat="46.39293" lon="8.0378">
        <ele>2156</ele>
        <time>2021-07-10T11:56:46.556Z</time>
      </trkpt>
      <trkpt lat="46.39293" lon="8.03781">
        <ele>2156</ele>
        <time>2021-07-10T11:56:47.556Z</time>
      </trkpt>
      <trkpt lat="46.39292" lon="8.03782">
        <ele>2156</ele>
        <time>2021-07-10T11:56:48.557Z</time>
      </trkpt>
      <trkpt lat="46.39291" lon="8.03783">
        <ele>2155</ele>
        <time>2021-07-10T11:56:49.558Z</time>
      </trkpt>
      <trkpt lat="46.39291" lon="8.03784">
        <ele>2154</ele>
        <time>2021-07-10T11:56:50.558Z</time>
      </trkpt>
      <trkpt lat="46.3929" lon="8.03784">
        <ele>2154</ele>
        <time>2021-07-10T11:56:51.557Z</time>
      </trkpt>
      <trkpt lat="46.39289" lon="8.03783">
        <ele>2153</ele>
        <time>2021-07-10T11:56:52.557Z</time>
      </trkpt>
      <trkpt lat="46.39288" lon="8.03783">
        <ele>2153</ele>
        <time>2021-07-10T11:56:53.557Z</time>
      </trkpt>
      <trkpt lat="46.39287" lon="8.03782">
        <ele>2153</ele>
        <time>2021-07-10T11:56:54.557Z</time>
      </trkpt>
      <trkpt lat="46.39287" lon="8.03782">
        <ele>2152</ele>
        <time>2021-07-10T11:56:55.557Z</time>
      </trkpt>
      <trkpt lat="46.39286" lon="8.03781">
        <ele>2152</ele>
        <time>2021-07-10T11:56:56.558Z</time>
      </trkpt>
      <trkpt lat="46.39285" lon="8.0378">
        <ele>2152</ele>
        <time>2021-07-10T11:56:57.558Z</time>
      </trkpt>
      <trkpt lat="46.39284" lon="8.03779">
        <ele>2152</ele>
        <time>2021-07-10T11:56:58.557Z</time>
      </trkpt>
      <trkpt lat="46.39283" lon="8.03778">
        <ele>2152</ele>
        <time>2021-07-10T11:56:59.557Z</time>
      </trkpt>
      <trkpt lat="46.39283" lon="8.03777">
        <ele>2152</ele>
        <time>2021-07-10T11:57:00.558Z</time>
      </trkpt>
      <trkpt lat="46.39282" lon="8.03776">
        <ele>2152</ele>
        <time>2021-07-10T11:57:01.557Z</time>
      </trkpt>
      <trkpt lat="46.39281" lon="8.03776">
        <ele>2152</ele>
        <time>2021-07-10T11:57:02.557Z</time>
      </trkpt>
      <trkpt lat="46.3928" lon="8.03775">
        <ele>2152</ele>
        <time>2021-07-10T11:57:03.557Z</time>
      </trkpt>
      <trkpt lat="46.39279" lon="8.03775">
        <ele>2151</ele>
        <time>2021-07-10T11:57:04.557Z</time>
      </trkpt>
      <trkpt lat="46.39278" lon="8.03775">
        <ele>2151</ele>
        <time>2021-07-10T11:57:05.557Z</time>
      </trkpt>
      <trkpt lat="46.39277" lon="8.03774">
        <ele>2151</ele>
        <time>2021-07-10T11:57:06.557Z</time>
      </trkpt>
      <trkpt lat="46.39277" lon="8.03774">
        <ele>2151</ele>
        <time>2021-07-10T11:57:07.557Z</time>
      </trkpt>
      <trkpt lat="46.39276" lon="8.03774">
        <ele>2151</ele>
        <time>2021-07-10T11:57:08.558Z</time>
      </trkpt>
      <trkpt lat="46.39275" lon="8.03773">
        <ele>2151</ele>
        <time>2021-07-10T11:57:09.558Z</time>
      </trkpt>
      <trkpt lat="46.39275" lon="8.03773">
        <ele>2152</ele>
        <time>2021-07-10T11:57:10.558Z</time>
      </trkpt>
      <trkpt lat="46.39274" lon="8.03772">
        <ele>2152</ele>
        <time>2021-07-10T11:57:11.558Z</time>
      </trkpt>
      <trkpt lat="46.39274" lon="8.03771">
        <ele>2151</ele>
        <time>2021-07-10T11:57:12.557Z</time>
      </trkpt>
      <trkpt lat="46.39273" lon="8.03771">
        <ele>2151</ele>
        <time>2021-07-10T11:57:13.558Z</time>
      </trkpt>
      <trkpt lat="46.39272" lon="8.03771">
        <ele>2151</ele>
        <time>2021-07-10T11:57:14.558Z</time>
      </trkpt>
      <trkpt lat="46.39271" lon="8.0377">
        <ele>2151</ele>
        <time>2021-07-10T11:57:15.558Z</time>
      </trkpt>
      <trkpt lat="46.3927" lon="8.03769">
        <ele>2151</ele>
        <time>2021-07-10T11:57:16.557Z</time>
      </trkpt>
      <trkpt lat="46.39269" lon="8.03769">
        <ele>2150</ele>
        <time>2021-07-10T11:57:17.558Z</time>
      </trkpt>
      <trkpt lat="46.39269" lon="8.03768">
        <ele>2150</ele>
        <time>2021-07-10T11:57:18.557Z</time>
      </trkpt>
      <trkpt lat="46.39268" lon="8.03768">
        <ele>2151</ele>
        <time>2021-07-10T11:57:19.557Z</time>
      </trkpt>
      <trkpt lat="46.39267" lon="8.03767">
        <ele>2151</ele>
        <time>2021-07-10T11:57:20.557Z</time>
      </trkpt>
      <trkpt lat="46.39266" lon="8.03767">
        <ele>2151</ele>
        <time>2021-07-10T11:57:21.557Z</time>
      </trkpt>
      <trkpt lat="46.39265" lon="8.03767">
        <ele>2152</ele>
        <time>2021-07-10T11:57:22.558Z</time>
      </trkpt>
      <trkpt lat="46.39264" lon="8.03767">
        <ele>2153</ele>
        <time>2021-07-10T11:57:23.558Z</time>
      </trkpt>
      <trkpt lat="46.39264" lon="8.03766">
        <ele>2153</ele>
        <time>2021-07-10T11:57:24.558Z</time>
      </trkpt>
      <trkpt lat="46.39263" lon="8.03766">
        <ele>2154</ele>
        <time>2021-07-10T11:57:25.557Z</time>
      </trkpt>
      <trkpt lat="46.39262" lon="8.03765">
        <ele>2154</ele>
        <time>2021-07-10T11:57:26.558Z</time>
      </trkpt>
      <trkpt lat="46.39262" lon="8.03764">
        <ele>2154</ele>
        <time>2021-07-10T11:57:27.557Z</time>
      </trkpt>
      <trkpt lat="46.39261" lon="8.03764">
        <ele>2154</ele>
        <time>2021-07-10T11:57:28.558Z</time>
      </trkpt>
      <trkpt lat="46.39261" lon="8.03763">
        <ele>2154</ele>
        <time>2021-07-10T11:57:29.557Z</time>
      </trkpt>
      <trkpt lat="46.3926" lon="8.03763">
        <ele>2153</ele>
        <time>2021-07-10T11:57:30.558Z</time>
      </trkpt>
      <trkpt lat="46.3926" lon="8.03762">
        <ele>2153</ele>
        <time>2021-07-10T11:57:31.558Z</time>
      </trkpt>
      <trkpt lat="46.39259" lon="8.03762">
        <ele>2153</ele>
        <time>2021-07-10T11:57:32.558Z</time>
      </trkpt>
      <trkpt lat="46.39259" lon="8.03761">
        <ele>2154</ele>
        <time>2021-07-10T11:57:33.557Z</time>
      </trkpt>
      <trkpt lat="46.39259" lon="8.03761">
        <ele>2154</ele>
        <time>2021-07-10T11:57:34.558Z</time>
      </trkpt>
      <trkpt lat="46.39258" lon="8.0376">
        <ele>2154</ele>
        <time>2021-07-10T11:57:35.558Z</time>
      </trkpt>
      <trkpt lat="46.39258" lon="8.0376">
        <ele>2154</ele>
        <time>2021-07-10T11:57:36.558Z</time>
      </trkpt>
      <trkpt lat="46.39257" lon="8.0376">
        <ele>2154</ele>
        <time>2021-07-10T11:57:37.558Z</time>
      </trkpt>
      <trkpt lat="46.39256" lon="8.03759">
        <ele>2154</ele>
        <time>2021-07-10T11:57:38.558Z</time>
      </trkpt>
      <trkpt lat="46.39256" lon="8.03759">
        <ele>2154</ele>
        <time>2021-07-10T11:57:39.557Z</time>
      </trkpt>
      <trkpt lat="46.39256" lon="8.03758">
        <ele>2155</ele>
        <time>2021-07-10T11:57:40.557Z</time>
      </trkpt>
      <trkpt lat="46.39256" lon="8.03757">
        <ele>2155</ele>
        <time>2021-07-10T11:57:41.557Z</time>
      </trkpt>
      <trkpt lat="46.39256" lon="8.03757">
        <ele>2155</ele>
        <time>2021-07-10T11:57:42.557Z</time>
      </trkpt>
      <trkpt lat="46.39255" lon="8.03756">
        <ele>2156</ele>
        <time>2021-07-10T11:57:43.558Z</time>
      </trkpt>
      <trkpt lat="46.39255" lon="8.03756">
        <ele>2155</ele>
        <time>2021-07-10T11:57:44.558Z</time>
      </trkpt>
      <trkpt lat="46.39254" lon="8.03755">
        <ele>2155</ele>
        <time>2021-07-10T11:57:45.557Z</time>
      </trkpt>
      <trkpt lat="46.39253" lon="8.03755">
        <ele>2155</ele>
        <time>2021-07-10T11:57:46.557Z</time>
      </trkpt>
      <trkpt lat="46.39252" lon="8.03755">
        <ele>2155</ele>
        <time>2021-07-10T11:57:47.558Z</time>
      </trkpt>
      <trkpt lat="46.39251" lon="8.03754">
        <ele>2155</ele>
        <time>2021-07-10T11:57:48.558Z</time>
      </trkpt>
      <trkpt lat="46.3925" lon="8.03754">
        <ele>2155</ele>
        <time>2021-07-10T11:57:49.558Z</time>
      </trkpt>
      <trkpt lat="46.3925" lon="8.03754">
        <ele>2155</ele>
        <time>2021-07-10T11:57:50.558Z</time>
      </trkpt>
      <trkpt lat="46.39249" lon="8.03754">
        <ele>2154</ele>
        <time>2021-07-10T11:57:51.558Z</time>
      </trkpt>
      <trkpt lat="46.39248" lon="8.03753">
        <ele>2154</ele>
        <time>2021-07-10T11:57:52.558Z</time>
      </trkpt>
      <trkpt lat="46.39247" lon="8.03753">
        <ele>2154</ele>
        <time>2021-07-10T11:57:53.557Z</time>
      </trkpt>
      <trkpt lat="46.39247" lon="8.03752">
        <ele>2154</ele>
        <time>2021-07-10T11:57:54.558Z</time>
      </trkpt>
      <trkpt lat="46.39246" lon="8.03751">
        <ele>2154</ele>
        <time>2021-07-10T11:57:55.558Z</time>
      </trkpt>
      <trkpt lat="46.39245" lon="8.03751">
        <ele>2155</ele>
        <time>2021-07-10T11:57:56.558Z</time>
      </trkpt>
      <trkpt lat="46.39244" lon="8.0375">
        <ele>2155</ele>
        <time>2021-07-10T11:57:57.558Z</time>
      </trkpt>
      <trkpt lat="46.39244" lon="8.03749">
        <ele>2155</ele>
        <time>2021-07-10T11:57:58.558Z</time>
      </trkpt>
      <trkpt lat="46.39243" lon="8.03749">
        <ele>2155</ele>
        <time>2021-07-10T11:57:59.558Z</time>
      </trkpt>
      <trkpt lat="46.39242" lon="8.03748">
        <ele>2155</ele>
        <time>2021-07-10T11:58:00.557Z</time>
      </trkpt>
      <trkpt lat="46.39242" lon="8.03748">
        <ele>2155</ele>
        <time>2021-07-10T11:58:01.558Z</time>
      </trkpt>
      <trkpt lat="46.39241" lon="8.03748">
        <ele>2155</ele>
        <time>2021-07-10T11:58:02.557Z</time>
      </trkpt>
      <trkpt lat="46.3924" lon="8.03748">
        <ele>2155</ele>
        <time>2021-07-10T11:58:03.558Z</time>
      </trkpt>
      <trkpt lat="46.3924" lon="8.03747">
        <ele>2155</ele>
        <time>2021-07-10T11:58:04.558Z</time>
      </trkpt>
      <trkpt lat="46.39239" lon="8.03746">
        <ele>2155</ele>
        <time>2021-07-10T11:58:05.558Z</time>
      </trkpt>
      <trkpt lat="46.39238" lon="8.03746">
        <ele>2155</ele>
        <time>2021-07-10T11:58:06.558Z</time>
      </trkpt>
      <trkpt lat="46.39238" lon="8.03745">
        <ele>2155</ele>
        <time>2021-07-10T11:58:07.558Z</time>
      </trkpt>
      <trkpt lat="46.39237" lon="8.03745">
        <ele>2155</ele>
        <time>2021-07-10T11:58:08.557Z</time>
      </trkpt>
      <trkpt lat="46.39236" lon="8.03744">
        <ele>2155</ele>
        <time>2021-07-10T11:58:09.558Z</time>
      </trkpt>
      <trkpt lat="46.39235" lon="8.03743">
        <ele>2155</ele>
        <time>2021-07-10T11:58:10.557Z</time>
      </trkpt>
      <trkpt lat="46.39235" lon="8.03743">
        <ele>2155</ele>
        <time>2021-07-10T11:58:11.558Z</time>
      </trkpt>
      <trkpt lat="46.39234" lon="8.03742">
        <ele>2155</ele>
        <time>2021-07-10T11:58:12.558Z</time>
      </trkpt>
      <trkpt lat="46.39233" lon="8.03741">
        <ele>2156</ele>
        <time>2021-07-10T11:58:13.558Z</time>
      </trkpt>
      <trkpt lat="46.39232" lon="8.0374">
        <ele>2156</ele>
        <time>2021-07-10T11:58:14.558Z</time>
      </trkpt>
      <trkpt lat="46.39232" lon="8.03739">
        <ele>2157</ele>
        <time>2021-07-10T11:58:15.557Z</time>
      </trkpt>
      <trkpt lat="46.39231" lon="8.03738">
        <ele>2157</ele>
        <time>2021-07-10T11:58:16.558Z</time>
      </trkpt>
      <trkpt lat="46.39231" lon="8.03737">
        <ele>2157</ele>
        <time>2021-07-10T11:58:17.558Z</time>
      </trkpt>
      <trkpt lat="46.3923" lon="8.03737">
        <ele>2157</ele>
        <time>2021-07-10T11:58:18.558Z</time>
      </trkpt>
      <trkpt lat="46.39229" lon="8.03736">
        <ele>2158</ele>
        <time>2021-07-10T11:58:19.558Z</time>
      </trkpt>
      <trkpt lat="46.39228" lon="8.03735">
        <ele>2158</ele>
        <time>2021-07-10T11:58:20.558Z</time>
      </trkpt>
      <trkpt lat="46.39227" lon="8.03734">
        <ele>2158</ele>
        <time>2021-07-10T11:58:21.557Z</time>
      </trkpt>
      <trkpt lat="46.39226" lon="8.03734">
        <ele>2158</ele>
        <time>2021-07-10T11:58:22.558Z</time>
      </trkpt>
      <trkpt lat="46.39225" lon="8.03733">
        <ele>2158</ele>
        <time>2021-07-10T11:58:23.558Z</time>
      </trkpt>
      <trkpt lat="46.39224" lon="8.03733">
        <ele>2159</ele>
        <time>2021-07-10T11:58:24.558Z</time>
      </trkpt>
      <trkpt lat="46.39224" lon="8.03732">
        <ele>2159</ele>
        <time>2021-07-10T11:58:25.558Z</time>
      </trkpt>
      <trkpt lat="46.39223" lon="8.03731">
        <ele>2159</ele>
        <time>2021-07-10T11:58:26.558Z</time>
      </trkpt>
      <trkpt lat="46.39222" lon="8.0373">
        <ele>2159</ele>
        <time>2021-07-10T11:58:27.558Z</time>
      </trkpt>
      <trkpt lat="46.39221" lon="8.03729">
        <ele>2159</ele>
        <time>2021-07-10T11:58:28.557Z</time>
      </trkpt>
      <trkpt lat="46.3922" lon="8.03728">
        <ele>2160</ele>
        <time>2021-07-10T11:58:29.558Z</time>
      </trkpt>
      <trkpt lat="46.39219" lon="8.03728">
        <ele>2160</ele>
        <time>2021-07-10T11:58:30.558Z</time>
      </trkpt>
      <trkpt lat="46.39219" lon="8.03728">
        <ele>2160</ele>
        <time>2021-07-10T11:58:31.558Z</time>
      </trkpt>
      <trkpt lat="46.39218" lon="8.03728">
        <ele>2160</ele>
        <time>2021-07-10T11:58:32.557Z</time>
      </trkpt>
      <trkpt lat="46.39217" lon="8.03728">
        <ele>2161</ele>
        <time>2021-07-10T11:58:33.558Z</time>
      </trkpt>
      <trkpt lat="46.39217" lon="8.03727">
        <ele>2161</ele>
        <time>2021-07-10T11:58:34.557Z</time>
      </trkpt>
      <trkpt lat="46.39216" lon="8.03726">
        <ele>2161</ele>
        <time>2021-07-10T11:58:35.558Z</time>
      </trkpt>
      <trkpt lat="46.39216" lon="8.03726">
        <ele>2161</ele>
        <time>2021-07-10T11:58:36.558Z</time>
      </trkpt>
      <trkpt lat="46.39215" lon="8.03726">
        <ele>2161</ele>
        <time>2021-07-10T11:58:37.558Z</time>
      </trkpt>
      <trkpt lat="46.39214" lon="8.03725">
        <ele>2161</ele>
        <time>2021-07-10T11:58:38.558Z</time>
      </trkpt>
      <trkpt lat="46.39214" lon="8.03724">
        <ele>2161</ele>
        <time>2021-07-10T11:58:39.557Z</time>
      </trkpt>
      <trkpt lat="46.39214" lon="8.03723">
        <ele>2160</ele>
        <time>2021-07-10T11:58:40.558Z</time>
      </trkpt>
      <trkpt lat="46.39213" lon="8.03722">
        <ele>2160</ele>
        <time>2021-07-10T11:58:41.558Z</time>
      </trkpt>
      <trkpt lat="46.39213" lon="8.03722">
        <ele>2159</ele>
        <time>2021-07-10T11:58:42.558Z</time>
      </trkpt>
      <trkpt lat="46.39212" lon="8.03721">
        <ele>2158</ele>
        <time>2021-07-10T11:58:43.558Z</time>
      </trkpt>
      <trkpt lat="46.39211" lon="8.0372">
        <ele>2158</ele>
        <time>2021-07-10T11:58:44.558Z</time>
      </trkpt>
      <trkpt lat="46.39211" lon="8.03719">
        <ele>2157</ele>
        <time>2021-07-10T11:58:45.557Z</time>
      </trkpt>
      <trkpt lat="46.3921" lon="8.03718">
        <ele>2156</ele>
        <time>2021-07-10T11:58:46.557Z</time>
      </trkpt>
      <trkpt lat="46.3921" lon="8.03717">
        <ele>2155</ele>
        <time>2021-07-10T11:58:47.558Z</time>
      </trkpt>
      <trkpt lat="46.3921" lon="8.03717">
        <ele>2155</ele>
        <time>2021-07-10T11:58:48.558Z</time>
      </trkpt>
      <trkpt lat="46.3921" lon="8.03717">
        <ele>2155</ele>
        <time>2021-07-10T11:58:49.558Z</time>
      </trkpt>
      <trkpt lat="46.3921" lon="8.03716">
        <ele>2155</ele>
        <time>2021-07-10T11:58:50.558Z</time>
      </trkpt>
      <trkpt lat="46.3921" lon="8.03716">
        <ele>2154</ele>
        <time>2021-07-10T11:58:51.558Z</time>
      </trkpt>
      <trkpt lat="46.3921" lon="8.03716">
        <ele>2154</ele>
        <time>2021-07-10T11:58:52.557Z</time>
      </trkpt>
      <trkpt lat="46.39213" lon="8.03715">
        <ele>2156</ele>
        <time>2021-07-10T11:58:53.557Z</time>
      </trkpt>
      <trkpt lat="46.39211" lon="8.03715">
        <ele>2156</ele>
        <time>2021-07-10T11:58:54.558Z</time>
      </trkpt>
      <trkpt lat="46.3921" lon="8.03715">
        <ele>2157</ele>
        <time>2021-07-10T11:58:55.557Z</time>
      </trkpt>
      <trkpt lat="46.39209" lon="8.03714">
        <ele>2157</ele>
        <time>2021-07-10T11:58:56.557Z</time>
      </trkpt>
      <trkpt lat="46.39208" lon="8.03713">
        <ele>2157</ele>
        <time>2021-07-10T11:58:57.558Z</time>
      </trkpt>
      <trkpt lat="46.39208" lon="8.03712">
        <ele>2157</ele>
        <time>2021-07-10T11:58:58.558Z</time>
      </trkpt>
      <trkpt lat="46.39207" lon="8.03712">
        <ele>2157</ele>
        <time>2021-07-10T11:58:59.558Z</time>
      </trkpt>
      <trkpt lat="46.39205" lon="8.03712">
        <ele>2158</ele>
        <time>2021-07-10T11:59:00.557Z</time>
      </trkpt>
      <trkpt lat="46.39204" lon="8.03712">
        <ele>2158</ele>
        <time>2021-07-10T11:59:01.557Z</time>
      </trkpt>
      <trkpt lat="46.39203" lon="8.03712">
        <ele>2158</ele>
        <time>2021-07-10T11:59:02.557Z</time>
      </trkpt>
      <trkpt lat="46.39203" lon="8.03713">
        <ele>2158</ele>
        <time>2021-07-10T11:59:03.557Z</time>
      </trkpt>
      <trkpt lat="46.39203" lon="8.03713">
        <ele>2158</ele>
        <time>2021-07-10T11:59:04.557Z</time>
      </trkpt>
      <trkpt lat="46.39201" lon="8.03713">
        <ele>2157</ele>
        <time>2021-07-10T11:59:05.560Z</time>
      </trkpt>
      <trkpt lat="46.392" lon="8.03712">
        <ele>2156</ele>
        <time>2021-07-10T11:59:06.559Z</time>
      </trkpt>
      <trkpt lat="46.39199" lon="8.03712">
        <ele>2155</ele>
        <time>2021-07-10T11:59:07.560Z</time>
      </trkpt>
      <trkpt lat="46.39199" lon="8.03711">
        <ele>2154</ele>
        <time>2021-07-10T11:59:08.560Z</time>
      </trkpt>
      <trkpt lat="46.39198" lon="8.0371">
        <ele>2153</ele>
        <time>2021-07-10T11:59:09.559Z</time>
      </trkpt>
      <trkpt lat="46.39198" lon="8.03709">
        <ele>2153</ele>
        <time>2021-07-10T11:59:10.559Z</time>
      </trkpt>
      <trkpt lat="46.39197" lon="8.03708">
        <ele>2152</ele>
        <time>2021-07-10T11:59:11.559Z</time>
      </trkpt>
      <trkpt lat="46.39197" lon="8.03707">
        <ele>2152</ele>
        <time>2021-07-10T11:59:12.560Z</time>
      </trkpt>
      <trkpt lat="46.39196" lon="8.03706">
        <ele>2153</ele>
        <time>2021-07-10T11:59:13.560Z</time>
      </trkpt>
      <trkpt lat="46.39196" lon="8.03705">
        <ele>2153</ele>
        <time>2021-07-10T11:59:14.559Z</time>
      </trkpt>
      <trkpt lat="46.39195" lon="8.03704">
        <ele>2153</ele>
        <time>2021-07-10T11:59:15.560Z</time>
      </trkpt>
      <trkpt lat="46.39195" lon="8.03703">
        <ele>2153</ele>
        <time>2021-07-10T11:59:16.559Z</time>
      </trkpt>
      <trkpt lat="46.39194" lon="8.03702">
        <ele>2153</ele>
        <time>2021-07-10T11:59:17.559Z</time>
      </trkpt>
      <trkpt lat="46.39193" lon="8.03701">
        <ele>2153</ele>
        <time>2021-07-10T11:59:18.560Z</time>
      </trkpt>
      <trkpt lat="46.39192" lon="8.037">
        <ele>2153</ele>
        <time>2021-07-10T11:59:19.559Z</time>
      </trkpt>
      <trkpt lat="46.39192" lon="8.03699">
        <ele>2153</ele>
        <time>2021-07-10T11:59:20.560Z</time>
      </trkpt>
      <trkpt lat="46.39191" lon="8.03698">
        <ele>2153</ele>
        <time>2021-07-10T11:59:21.559Z</time>
      </trkpt>
      <trkpt lat="46.3919" lon="8.03697">
        <ele>2153</ele>
        <time>2021-07-10T11:59:22.559Z</time>
      </trkpt>
      <trkpt lat="46.39189" lon="8.03697">
        <ele>2153</ele>
        <time>2021-07-10T11:59:23.560Z</time>
      </trkpt>
      <trkpt lat="46.39189" lon="8.03696">
        <ele>2153</ele>
        <time>2021-07-10T11:59:24.560Z</time>
      </trkpt>
      <trkpt lat="46.39187" lon="8.03695">
        <ele>2152</ele>
        <time>2021-07-10T11:59:25.559Z</time>
      </trkpt>
      <trkpt lat="46.39187" lon="8.03694">
        <ele>2153</ele>
        <time>2021-07-10T11:59:26.559Z</time>
      </trkpt>
      <trkpt lat="46.39186" lon="8.03693">
        <ele>2152</ele>
        <time>2021-07-10T11:59:27.559Z</time>
      </trkpt>
      <trkpt lat="46.39185" lon="8.03691">
        <ele>2152</ele>
        <time>2021-07-10T11:59:28.559Z</time>
      </trkpt>
      <trkpt lat="46.39184" lon="8.0369">
        <ele>2152</ele>
        <time>2021-07-10T11:59:29.559Z</time>
      </trkpt>
      <trkpt lat="46.39183" lon="8.03689">
        <ele>2152</ele>
        <time>2021-07-10T11:59:30.559Z</time>
      </trkpt>
      <trkpt lat="46.39183" lon="8.03688">
        <ele>2151</ele>
        <time>2021-07-10T11:59:31.559Z</time>
      </trkpt>
      <trkpt lat="46.39182" lon="8.03687">
        <ele>2151</ele>
        <time>2021-07-10T11:59:32.560Z</time>
      </trkpt>
      <trkpt lat="46.39182" lon="8.03686">
        <ele>2151</ele>
        <time>2021-07-10T11:59:33.559Z</time>
      </trkpt>
      <trkpt lat="46.39181" lon="8.03685">
        <ele>2151</ele>
        <time>2021-07-10T11:59:34.560Z</time>
      </trkpt>
      <trkpt lat="46.3918" lon="8.03684">
        <ele>2150</ele>
        <time>2021-07-10T11:59:35.560Z</time>
      </trkpt>
      <trkpt lat="46.3918" lon="8.03683">
        <ele>2150</ele>
        <time>2021-07-10T11:59:36.559Z</time>
      </trkpt>
      <trkpt lat="46.39179" lon="8.03682">
        <ele>2150</ele>
        <time>2021-07-10T11:59:37.560Z</time>
      </trkpt>
      <trkpt lat="46.39178" lon="8.03681">
        <ele>2150</ele>
        <time>2021-07-10T11:59:38.559Z</time>
      </trkpt>
      <trkpt lat="46.39177" lon="8.0368">
        <ele>2150</ele>
        <time>2021-07-10T11:59:39.559Z</time>
      </trkpt>
      <trkpt lat="46.39176" lon="8.03678">
        <ele>2150</ele>
        <time>2021-07-10T11:59:40.559Z</time>
      </trkpt>
      <trkpt lat="46.39176" lon="8.03677">
        <ele>2150</ele>
        <time>2021-07-10T11:59:41.559Z</time>
      </trkpt>
      <trkpt lat="46.39175" lon="8.03677">
        <ele>2151</ele>
        <time>2021-07-10T11:59:42.559Z</time>
      </trkpt>
      <trkpt lat="46.39174" lon="8.03676">
        <ele>2151</ele>
        <time>2021-07-10T11:59:43.560Z</time>
      </trkpt>
      <trkpt lat="46.39173" lon="8.03676">
        <ele>2151</ele>
        <time>2021-07-10T11:59:44.560Z</time>
      </trkpt>
      <trkpt lat="46.39173" lon="8.03675">
        <ele>2151</ele>
        <time>2021-07-10T11:59:45.559Z</time>
      </trkpt>
      <trkpt lat="46.39172" lon="8.03674">
        <ele>2152</ele>
        <time>2021-07-10T11:59:46.559Z</time>
      </trkpt>
      <trkpt lat="46.39171" lon="8.03674">
        <ele>2152</ele>
        <time>2021-07-10T11:59:47.560Z</time>
      </trkpt>
      <trkpt lat="46.3917" lon="8.03673">
        <ele>2152</ele>
        <time>2021-07-10T11:59:48.559Z</time>
      </trkpt>
      <trkpt lat="46.39169" lon="8.03672">
        <ele>2152</ele>
        <time>2021-07-10T11:59:49.559Z</time>
      </trkpt>
      <trkpt lat="46.39169" lon="8.03671">
        <ele>2152</ele>
        <time>2021-07-10T11:59:50.559Z</time>
      </trkpt>
      <trkpt lat="46.39168" lon="8.0367">
        <ele>2151</ele>
        <time>2021-07-10T11:59:51.559Z</time>
      </trkpt>
      <trkpt lat="46.39168" lon="8.03668">
        <ele>2151</ele>
        <time>2021-07-10T11:59:52.559Z</time>
      </trkpt>
      <trkpt lat="46.39167" lon="8.03667">
        <ele>2151</ele>
        <time>2021-07-10T11:59:53.559Z</time>
      </trkpt>
      <trkpt lat="46.39167" lon="8.03666">
        <ele>2151</ele>
        <time>2021-07-10T11:59:54.559Z</time>
      </trkpt>
      <trkpt lat="46.39166" lon="8.03665">
        <ele>2151</ele>
        <time>2021-07-10T11:59:55.559Z</time>
      </trkpt>
      <trkpt lat="46.39165" lon="8.03664">
        <ele>2151</ele>
        <time>2021-07-10T11:59:56.559Z</time>
      </trkpt>
      <trkpt lat="46.39165" lon="8.03664">
        <ele>2151</ele>
        <time>2021-07-10T11:59:57.560Z</time>
      </trkpt>
      <trkpt lat="46.39165" lon="8.03663">
        <ele>2151</ele>
        <time>2021-07-10T11:59:58.559Z</time>
      </trkpt>
      <trkpt lat="46.39164" lon="8.03662">
        <ele>2151</ele>
        <time>2021-07-10T11:59:59.559Z</time>
      </trkpt>
      <trkpt lat="46.39164" lon="8.03661">
        <ele>2152</ele>
        <time>2021-07-10T12:00:00.560Z</time>
      </trkpt>
      <trkpt lat="46.39164" lon="8.0366">
        <ele>2152</ele>
        <time>2021-07-10T12:00:01.559Z</time>
      </trkpt>
      <trkpt lat="46.39163" lon="8.03659">
        <ele>2152</ele>
        <time>2021-07-10T12:00:02.559Z</time>
      </trkpt>
      <trkpt lat="46.39163" lon="8.03658">
        <ele>2153</ele>
        <time>2021-07-10T12:00:03.559Z</time>
      </trkpt>
      <trkpt lat="46.39162" lon="8.03657">
        <ele>2153</ele>
        <time>2021-07-10T12:00:04.560Z</time>
      </trkpt>
      <trkpt lat="46.39162" lon="8.03656">
        <ele>2154</ele>
        <time>2021-07-10T12:00:05.560Z</time>
      </trkpt>
      <trkpt lat="46.39161" lon="8.03654">
        <ele>2154</ele>
        <time>2021-07-10T12:00:06.559Z</time>
      </trkpt>
      <trkpt lat="46.3916" lon="8.03653">
        <ele>2155</ele>
        <time>2021-07-10T12:00:07.559Z</time>
      </trkpt>
      <trkpt lat="46.39159" lon="8.03652">
        <ele>2155</ele>
        <time>2021-07-10T12:00:08.560Z</time>
      </trkpt>
      <trkpt lat="46.39159" lon="8.03651">
        <ele>2155</ele>
        <time>2021-07-10T12:00:09.560Z</time>
      </trkpt>
      <trkpt lat="46.3916" lon="8.0365">
        <ele>2154</ele>
        <time>2021-07-10T12:00:10.559Z</time>
      </trkpt>
      <trkpt lat="46.3916" lon="8.03648">
        <ele>2154</ele>
        <time>2021-07-10T12:00:11.560Z</time>
      </trkpt>
      <trkpt lat="46.39161" lon="8.03647">
        <ele>2154</ele>
        <time>2021-07-10T12:00:12.559Z</time>
      </trkpt>
      <trkpt lat="46.39161" lon="8.03645">
        <ele>2154</ele>
        <time>2021-07-10T12:00:13.560Z</time>
      </trkpt>
      <trkpt lat="46.3916" lon="8.03644">
        <ele>2155</ele>
        <time>2021-07-10T12:00:14.560Z</time>
      </trkpt>
      <trkpt lat="46.3916" lon="8.03643">
        <ele>2155</ele>
        <time>2021-07-10T12:00:15.559Z</time>
      </trkpt>
      <trkpt lat="46.3916" lon="8.03642">
        <ele>2155</ele>
        <time>2021-07-10T12:00:16.560Z</time>
      </trkpt>
      <trkpt lat="46.3916" lon="8.03641">
        <ele>2155</ele>
        <time>2021-07-10T12:00:17.559Z</time>
      </trkpt>
      <trkpt lat="46.39159" lon="8.0364">
        <ele>2155</ele>
        <time>2021-07-10T12:00:18.560Z</time>
      </trkpt>
      <trkpt lat="46.39159" lon="8.03639">
        <ele>2155</ele>
        <time>2021-07-10T12:00:19.559Z</time>
      </trkpt>
      <trkpt lat="46.39159" lon="8.03638">
        <ele>2156</ele>
        <time>2021-07-10T12:00:20.559Z</time>
      </trkpt>
      <trkpt lat="46.39159" lon="8.03638">
        <ele>2156</ele>
        <time>2021-07-10T12:00:21.559Z</time>
      </trkpt>
      <trkpt lat="46.39159" lon="8.03637">
        <ele>2156</ele>
        <time>2021-07-10T12:00:22.560Z</time>
      </trkpt>
      <trkpt lat="46.39159" lon="8.03637">
        <ele>2156</ele>
        <time>2021-07-10T12:00:23.560Z</time>
      </trkpt>
      <trkpt lat="46.39157" lon="8.03639">
        <ele>2163</ele>
        <time>2021-07-10T12:00:24.560Z</time>
      </trkpt>
      <trkpt lat="46.39157" lon="8.03638">
        <ele>2162</ele>
        <time>2021-07-10T12:00:25.560Z</time>
      </trkpt>
      <trkpt lat="46.39159" lon="8.03638">
        <ele>2158</ele>
        <time>2021-07-10T12:00:26.561Z</time>
      </trkpt>
      <trkpt lat="46.39159" lon="8.03638">
        <ele>2158</ele>
        <time>2021-07-10T12:00:27.561Z</time>
      </trkpt>
      <trkpt lat="46.39159" lon="8.03639">
        <ele>2158</ele>
        <time>2021-07-10T12:00:28.561Z</time>
      </trkpt>
      <trkpt lat="46.39157" lon="8.0364">
        <ele>2160</ele>
        <time>2021-07-10T12:00:29.561Z</time>
      </trkpt>
      <trkpt lat="46.39156" lon="8.0364">
        <ele>2161</ele>
        <time>2021-07-10T12:00:30.562Z</time>
      </trkpt>
      <trkpt lat="46.39157" lon="8.03639">
        <ele>2161</ele>
        <time>2021-07-10T12:00:31.561Z</time>
      </trkpt>
      <trkpt lat="46.3916" lon="8.03638">
        <ele>2159</ele>
        <time>2021-07-10T12:00:32.563Z</time>
      </trkpt>
      <trkpt lat="46.39161" lon="8.03637">
        <ele>2158</ele>
        <time>2021-07-10T12:00:33.563Z</time>
      </trkpt>
      <trkpt lat="46.39161" lon="8.03637">
        <ele>2158</ele>
        <time>2021-07-10T12:00:34.563Z</time>
      </trkpt>
      <trkpt lat="46.39161" lon="8.03636">
        <ele>2157</ele>
        <time>2021-07-10T12:00:35.563Z</time>
      </trkpt>
      <trkpt lat="46.3916" lon="8.03636">
        <ele>2156</ele>
        <time>2021-07-10T12:00:36.563Z</time>
      </trkpt>
      <trkpt lat="46.39159" lon="8.03636">
        <ele>2156</ele>
        <time>2021-07-10T12:00:37.563Z</time>
      </trkpt>
      <trkpt lat="46.39157" lon="8.03639">
        <ele>2157</ele>
        <time>2021-07-10T12:00:38.563Z</time>
      </trkpt>
      <trkpt lat="46.39157" lon="8.03639">
        <ele>2158</ele>
        <time>2021-07-10T12:00:39.564Z</time>
      </trkpt>
      <trkpt lat="46.39156" lon="8.0364">
        <ele>2158</ele>
        <time>2021-07-10T12:00:40.564Z</time>
      </trkpt>
      <trkpt lat="46.39156" lon="8.03641">
        <ele>2158</ele>
        <time>2021-07-10T12:00:41.563Z</time>
      </trkpt>
      <trkpt lat="46.39156" lon="8.03642">
        <ele>2159</ele>
        <time>2021-07-10T12:00:42.564Z</time>
      </trkpt>
      <trkpt lat="46.39157" lon="8.03642">
        <ele>2159</ele>
        <time>2021-07-10T12:00:43.564Z</time>
      </trkpt>
      <trkpt lat="46.39157" lon="8.03643">
        <ele>2159</ele>
        <time>2021-07-10T12:00:44.564Z</time>
      </trkpt>
      <trkpt lat="46.39157" lon="8.03643">
        <ele>2159</ele>
        <time>2021-07-10T12:00:45.564Z</time>
      </trkpt>
      <trkpt lat="46.39156" lon="8.03644">
        <ele>2159</ele>
        <time>2021-07-10T12:00:46.564Z</time>
      </trkpt>
      <trkpt lat="46.39156" lon="8.03645">
        <ele>2159</ele>
        <time>2021-07-10T12:00:47.564Z</time>
      </trkpt>
      <trkpt lat="46.39156" lon="8.03645">
        <ele>2159</ele>
        <time>2021-07-10T12:00:48.564Z</time>
      </trkpt>
      <trkpt lat="46.39155" lon="8.03646">
        <ele>2158</ele>
        <time>2021-07-10T12:00:49.564Z</time>
      </trkpt>
      <trkpt lat="46.39155" lon="8.03646">
        <ele>2158</ele>
        <time>2021-07-10T12:00:50.564Z</time>
      </trkpt>
      <trkpt lat="46.39154" lon="8.03645">
        <ele>2158</ele>
        <time>2021-07-10T12:00:51.564Z</time>
      </trkpt>
      <trkpt lat="46.39153" lon="8.03644">
        <ele>2158</ele>
        <time>2021-07-10T12:00:52.563Z</time>
      </trkpt>
      <trkpt lat="46.39153" lon="8.03643">
        <ele>2158</ele>
        <time>2021-07-10T12:00:53.564Z</time>
      </trkpt>
      <trkpt lat="46.39152" lon="8.03642">
        <ele>2158</ele>
        <time>2021-07-10T12:00:54.564Z</time>
      </trkpt>
      <trkpt lat="46.39152" lon="8.03641">
        <ele>2158</ele>
        <time>2021-07-10T12:00:55.564Z</time>
      </trkpt>
      <trkpt lat="46.39151" lon="8.03639">
        <ele>2158</ele>
        <time>2021-07-10T12:00:56.564Z</time>
      </trkpt>
      <trkpt lat="46.39151" lon="8.03637">
        <ele>2158</ele>
        <time>2021-07-10T12:00:57.564Z</time>
      </trkpt>
      <trkpt lat="46.3915" lon="8.03636">
        <ele>2158</ele>
        <time>2021-07-10T12:00:58.564Z</time>
      </trkpt>
      <trkpt lat="46.39149" lon="8.03635">
        <ele>2159</ele>
        <time>2021-07-10T12:00:59.564Z</time>
      </trkpt>
      <trkpt lat="46.39148" lon="8.03633">
        <ele>2158</ele>
        <time>2021-07-10T12:01:00.564Z</time>
      </trkpt>
      <trkpt lat="46.39147" lon="8.03632">
        <ele>2158</ele>
        <time>2021-07-10T12:01:01.563Z</time>
      </trkpt>
      <trkpt lat="46.39146" lon="8.03631">
        <ele>2158</ele>
        <time>2021-07-10T12:01:02.564Z</time>
      </trkpt>
      <trkpt lat="46.39146" lon="8.03629">
        <ele>2157</ele>
        <time>2021-07-10T12:01:03.564Z</time>
      </trkpt>
      <trkpt lat="46.39145" lon="8.03628">
        <ele>2157</ele>
        <time>2021-07-10T12:01:04.564Z</time>
      </trkpt>
      <trkpt lat="46.39144" lon="8.03627">
        <ele>2156</ele>
        <time>2021-07-10T12:01:05.564Z</time>
      </trkpt>
      <trkpt lat="46.39143" lon="8.03626">
        <ele>2156</ele>
        <time>2021-07-10T12:01:06.563Z</time>
      </trkpt>
      <trkpt lat="46.39142" lon="8.03625">
        <ele>2156</ele>
        <time>2021-07-10T12:01:07.564Z</time>
      </trkpt>
      <trkpt lat="46.39141" lon="8.03624">
        <ele>2156</ele>
        <time>2021-07-10T12:01:08.564Z</time>
      </trkpt>
      <trkpt lat="46.39141" lon="8.03624">
        <ele>2157</ele>
        <time>2021-07-10T12:01:09.564Z</time>
      </trkpt>
      <trkpt lat="46.3914" lon="8.03622">
        <ele>2157</ele>
        <time>2021-07-10T12:01:10.564Z</time>
      </trkpt>
      <trkpt lat="46.3914" lon="8.03621">
        <ele>2158</ele>
        <time>2021-07-10T12:01:11.563Z</time>
      </trkpt>
      <trkpt lat="46.3914" lon="8.03619">
        <ele>2158</ele>
        <time>2021-07-10T12:01:12.563Z</time>
      </trkpt>
      <trkpt lat="46.3914" lon="8.03618">
        <ele>2158</ele>
        <time>2021-07-10T12:01:13.564Z</time>
      </trkpt>
      <trkpt lat="46.3914" lon="8.03617">
        <ele>2157</ele>
        <time>2021-07-10T12:01:14.564Z</time>
      </trkpt>
      <trkpt lat="46.39139" lon="8.03616">
        <ele>2157</ele>
        <time>2021-07-10T12:01:15.564Z</time>
      </trkpt>
      <trkpt lat="46.39138" lon="8.03615">
        <ele>2157</ele>
        <time>2021-07-10T12:01:16.563Z</time>
      </trkpt>
      <trkpt lat="46.39137" lon="8.03615">
        <ele>2156</ele>
        <time>2021-07-10T12:01:17.564Z</time>
      </trkpt>
      <trkpt lat="46.39137" lon="8.03614">
        <ele>2156</ele>
        <time>2021-07-10T12:01:18.563Z</time>
      </trkpt>
      <trkpt lat="46.39137" lon="8.03613">
        <ele>2157</ele>
        <time>2021-07-10T12:01:19.563Z</time>
      </trkpt>
      <trkpt lat="46.39136" lon="8.03613">
        <ele>2157</ele>
        <time>2021-07-10T12:01:20.564Z</time>
      </trkpt>
      <trkpt lat="46.39136" lon="8.03612">
        <ele>2157</ele>
        <time>2021-07-10T12:01:21.563Z</time>
      </trkpt>
      <trkpt lat="46.39136" lon="8.0361">
        <ele>2158</ele>
        <time>2021-07-10T12:01:22.563Z</time>
      </trkpt>
      <trkpt lat="46.39135" lon="8.03609">
        <ele>2158</ele>
        <time>2021-07-10T12:01:23.564Z</time>
      </trkpt>
      <trkpt lat="46.39134" lon="8.03608">
        <ele>2158</ele>
        <time>2021-07-10T12:01:24.564Z</time>
      </trkpt>
      <trkpt lat="46.39133" lon="8.03608">
        <ele>2158</ele>
        <time>2021-07-10T12:01:25.564Z</time>
      </trkpt>
      <trkpt lat="46.39132" lon="8.03608">
        <ele>2158</ele>
        <time>2021-07-10T12:01:26.564Z</time>
      </trkpt>
      <trkpt lat="46.39131" lon="8.03607">
        <ele>2157</ele>
        <time>2021-07-10T12:01:27.563Z</time>
      </trkpt>
      <trkpt lat="46.39131" lon="8.03606">
        <ele>2156</ele>
        <time>2021-07-10T12:01:28.563Z</time>
      </trkpt>
      <trkpt lat="46.3913" lon="8.03605">
        <ele>2156</ele>
        <time>2021-07-10T12:01:29.564Z</time>
      </trkpt>
      <trkpt lat="46.39128" lon="8.03603">
        <ele>2155</ele>
        <time>2021-07-10T12:01:30.563Z</time>
      </trkpt>
      <trkpt lat="46.39127" lon="8.03603">
        <ele>2155</ele>
        <time>2021-07-10T12:01:31.563Z</time>
      </trkpt>
      <trkpt lat="46.39127" lon="8.03602">
        <ele>2155</ele>
        <time>2021-07-10T12:01:32.563Z</time>
      </trkpt>
      <trkpt lat="46.39126" lon="8.03603">
        <ele>2156</ele>
        <time>2021-07-10T12:01:33.563Z</time>
      </trkpt>
      <trkpt lat="46.39127" lon="8.03603">
        <ele>2156</ele>
        <time>2021-07-10T12:01:34.564Z</time>
      </trkpt>
      <trkpt lat="46.39126" lon="8.03602">
        <ele>2156</ele>
        <time>2021-07-10T12:01:35.564Z</time>
      </trkpt>
      <trkpt lat="46.39126" lon="8.03601">
        <ele>2157</ele>
        <time>2021-07-10T12:01:36.565Z</time>
      </trkpt>
      <trkpt lat="46.39125" lon="8.036">
        <ele>2157</ele>
        <time>2021-07-10T12:01:37.565Z</time>
      </trkpt>
      <trkpt lat="46.39125" lon="8.036">
        <ele>2157</ele>
        <time>2021-07-10T12:01:38.565Z</time>
      </trkpt>
      <trkpt lat="46.39124" lon="8.03599">
        <ele>2157</ele>
        <time>2021-07-10T12:01:39.564Z</time>
      </trkpt>
      <trkpt lat="46.39123" lon="8.03598">
        <ele>2157</ele>
        <time>2021-07-10T12:01:40.564Z</time>
      </trkpt>
      <trkpt lat="46.39122" lon="8.03597">
        <ele>2157</ele>
        <time>2021-07-10T12:01:41.565Z</time>
      </trkpt>
      <trkpt lat="46.39121" lon="8.03596">
        <ele>2157</ele>
        <time>2021-07-10T12:01:42.565Z</time>
      </trkpt>
      <trkpt lat="46.39121" lon="8.03595">
        <ele>2157</ele>
        <time>2021-07-10T12:01:43.565Z</time>
      </trkpt>
      <trkpt lat="46.3912" lon="8.03594">
        <ele>2157</ele>
        <time>2021-07-10T12:01:44.565Z</time>
      </trkpt>
      <trkpt lat="46.3912" lon="8.03593">
        <ele>2157</ele>
        <time>2021-07-10T12:01:45.564Z</time>
      </trkpt>
      <trkpt lat="46.39119" lon="8.03592">
        <ele>2157</ele>
        <time>2021-07-10T12:01:46.565Z</time>
      </trkpt>
      <trkpt lat="46.39119" lon="8.03591">
        <ele>2157</ele>
        <time>2021-07-10T12:01:47.565Z</time>
      </trkpt>
      <trkpt lat="46.39118" lon="8.0359">
        <ele>2157</ele>
        <time>2021-07-10T12:01:48.565Z</time>
      </trkpt>
      <trkpt lat="46.39117" lon="8.03589">
        <ele>2156</ele>
        <time>2021-07-10T12:01:49.565Z</time>
      </trkpt>
      <trkpt lat="46.39116" lon="8.03588">
        <ele>2156</ele>
        <time>2021-07-10T12:01:50.564Z</time>
      </trkpt>
      <trkpt lat="46.39115" lon="8.03587">
        <ele>2156</ele>
        <time>2021-07-10T12:01:51.564Z</time>
      </trkpt>
      <trkpt lat="46.39114" lon="8.03587">
        <ele>2156</ele>
        <time>2021-07-10T12:01:52.565Z</time>
      </trkpt>
      <trkpt lat="46.39112" lon="8.03586">
        <ele>2156</ele>
        <time>2021-07-10T12:01:53.565Z</time>
      </trkpt>
      <trkpt lat="46.39112" lon="8.03585">
        <ele>2156</ele>
        <time>2021-07-10T12:01:54.565Z</time>
      </trkpt>
      <trkpt lat="46.39111" lon="8.03585">
        <ele>2156</ele>
        <time>2021-07-10T12:01:55.565Z</time>
      </trkpt>
      <trkpt lat="46.39111" lon="8.03584">
        <ele>2156</ele>
        <time>2021-07-10T12:01:56.564Z</time>
      </trkpt>
      <trkpt lat="46.39111" lon="8.03584">
        <ele>2156</ele>
        <time>2021-07-10T12:01:57.565Z</time>
      </trkpt>
      <trkpt lat="46.39111" lon="8.03584">
        <ele>2156</ele>
        <time>2021-07-10T12:01:58.565Z</time>
      </trkpt>
      <trkpt lat="46.39111" lon="8.03583">
        <ele>2156</ele>
        <time>2021-07-10T12:01:59.565Z</time>
      </trkpt>
      <trkpt lat="46.3911" lon="8.03582">
        <ele>2156</ele>
        <time>2021-07-10T12:02:00.564Z</time>
      </trkpt>
      <trkpt lat="46.3911" lon="8.03581">
        <ele>2156</ele>
        <time>2021-07-10T12:02:01.564Z</time>
      </trkpt>
      <trkpt lat="46.3911" lon="8.0358">
        <ele>2156</ele>
        <time>2021-07-10T12:02:02.565Z</time>
      </trkpt>
      <trkpt lat="46.39109" lon="8.0358">
        <ele>2157</ele>
        <time>2021-07-10T12:02:03.565Z</time>
      </trkpt>
      <trkpt lat="46.39108" lon="8.03579">
        <ele>2157</ele>
        <time>2021-07-10T12:02:04.565Z</time>
      </trkpt>
      <trkpt lat="46.39108" lon="8.03578">
        <ele>2157</ele>
        <time>2021-07-10T12:02:05.564Z</time>
      </trkpt>
      <trkpt lat="46.39107" lon="8.03577">
        <ele>2156</ele>
        <time>2021-07-10T12:02:06.564Z</time>
      </trkpt>
      <trkpt lat="46.39107" lon="8.03577">
        <ele>2156</ele>
        <time>2021-07-10T12:02:07.565Z</time>
      </trkpt>
      <trkpt lat="46.39106" lon="8.03576">
        <ele>2156</ele>
        <time>2021-07-10T12:02:08.565Z</time>
      </trkpt>
      <trkpt lat="46.39106" lon="8.03576">
        <ele>2156</ele>
        <time>2021-07-10T12:02:09.565Z</time>
      </trkpt>
      <trkpt lat="46.39106" lon="8.03574">
        <ele>2156</ele>
        <time>2021-07-10T12:02:10.565Z</time>
      </trkpt>
      <trkpt lat="46.39106" lon="8.03574">
        <ele>2155</ele>
        <time>2021-07-10T12:02:11.564Z</time>
      </trkpt>
      <trkpt lat="46.39105" lon="8.03573">
        <ele>2155</ele>
        <time>2021-07-10T12:02:12.564Z</time>
      </trkpt>
      <trkpt lat="46.39105" lon="8.03573">
        <ele>2155</ele>
        <time>2021-07-10T12:02:13.565Z</time>
      </trkpt>
      <trkpt lat="46.39104" lon="8.03573">
        <ele>2155</ele>
        <time>2021-07-10T12:02:14.565Z</time>
      </trkpt>
      <trkpt lat="46.39104" lon="8.03573">
        <ele>2155</ele>
        <time>2021-07-10T12:02:15.564Z</time>
      </trkpt>
      <trkpt lat="46.39103" lon="8.03573">
        <ele>2155</ele>
        <time>2021-07-10T12:02:16.564Z</time>
      </trkpt>
      <trkpt lat="46.39103" lon="8.03573">
        <ele>2156</ele>
        <time>2021-07-10T12:02:17.565Z</time>
      </trkpt>
      <trkpt lat="46.39102" lon="8.03574">
        <ele>2156</ele>
        <time>2021-07-10T12:02:18.564Z</time>
      </trkpt>
      <trkpt lat="46.39103" lon="8.03574">
        <ele>2160</ele>
        <time>2021-07-10T12:02:19.564Z</time>
      </trkpt>
      <trkpt lat="46.39103" lon="8.03573">
        <ele>2160</ele>
        <time>2021-07-10T12:02:20.565Z</time>
      </trkpt>
      <trkpt lat="46.39104" lon="8.03572">
        <ele>2159</ele>
        <time>2021-07-10T12:02:21.565Z</time>
      </trkpt>
      <trkpt lat="46.39104" lon="8.03571">
        <ele>2159</ele>
        <time>2021-07-10T12:02:22.565Z</time>
      </trkpt>
      <trkpt lat="46.39104" lon="8.0357">
        <ele>2158</ele>
        <time>2021-07-10T12:02:23.564Z</time>
      </trkpt>
      <trkpt lat="46.39104" lon="8.03569">
        <ele>2158</ele>
        <time>2021-07-10T12:02:24.565Z</time>
      </trkpt>
      <trkpt lat="46.39103" lon="8.03569">
        <ele>2158</ele>
        <time>2021-07-10T12:02:25.565Z</time>
      </trkpt>
      <trkpt lat="46.39103" lon="8.03568">
        <ele>2157</ele>
        <time>2021-07-10T12:02:26.565Z</time>
      </trkpt>
      <trkpt lat="46.39103" lon="8.03567">
        <ele>2157</ele>
        <time>2021-07-10T12:02:27.564Z</time>
      </trkpt>
      <trkpt lat="46.39103" lon="8.03566">
        <ele>2157</ele>
        <time>2021-07-10T12:02:28.564Z</time>
      </trkpt>
      <trkpt lat="46.39102" lon="8.03565">
        <ele>2156</ele>
        <time>2021-07-10T12:02:29.565Z</time>
      </trkpt>
      <trkpt lat="46.39102" lon="8.03565">
        <ele>2156</ele>
        <time>2021-07-10T12:02:30.565Z</time>
      </trkpt>
      <trkpt lat="46.39102" lon="8.03565">
        <ele>2156</ele>
        <time>2021-07-10T12:02:31.564Z</time>
      </trkpt>
      <trkpt lat="46.39102" lon="8.03562">
        <ele>2151</ele>
        <time>2021-07-10T12:02:32.565Z</time>
      </trkpt>
      <trkpt lat="46.39101" lon="8.03562">
        <ele>2151</ele>
        <time>2021-07-10T12:02:33.564Z</time>
      </trkpt>
      <trkpt lat="46.39101" lon="8.03561">
        <ele>2152</ele>
        <time>2021-07-10T12:02:34.564Z</time>
      </trkpt>
      <trkpt lat="46.39101" lon="8.0356">
        <ele>2152</ele>
        <time>2021-07-10T12:02:35.565Z</time>
      </trkpt>
      <trkpt lat="46.39101" lon="8.0356">
        <ele>2152</ele>
        <time>2021-07-10T12:02:36.565Z</time>
      </trkpt>
      <trkpt lat="46.39102" lon="8.03559">
        <ele>2152</ele>
        <time>2021-07-10T12:02:37.565Z</time>
      </trkpt>
      <trkpt lat="46.39102" lon="8.03558">
        <ele>2152</ele>
        <time>2021-07-10T12:02:38.565Z</time>
      </trkpt>
      <trkpt lat="46.39102" lon="8.03558">
        <ele>2153</ele>
        <time>2021-07-10T12:02:39.565Z</time>
      </trkpt>
      <trkpt lat="46.39102" lon="8.03557">
        <ele>2153</ele>
        <time>2021-07-10T12:02:40.565Z</time>
      </trkpt>
      <trkpt lat="46.39102" lon="8.03557">
        <ele>2153</ele>
        <time>2021-07-10T12:02:41.565Z</time>
      </trkpt>
      <trkpt lat="46.39101" lon="8.03556">
        <ele>2153</ele>
        <time>2021-07-10T12:02:42.565Z</time>
      </trkpt>
      <trkpt lat="46.39101" lon="8.03556">
        <ele>2154</ele>
        <time>2021-07-10T12:02:43.565Z</time>
      </trkpt>
      <trkpt lat="46.39101" lon="8.03556">
        <ele>2154</ele>
        <time>2021-07-10T12:02:44.564Z</time>
      </trkpt>
      <trkpt lat="46.391" lon="8.03556">
        <ele>2154</ele>
        <time>2021-07-10T12:02:45.565Z</time>
      </trkpt>
      <trkpt lat="46.39099" lon="8.03556">
        <ele>2155</ele>
        <time>2021-07-10T12:02:46.565Z</time>
      </trkpt>
      <trkpt lat="46.39099" lon="8.03555">
        <ele>2154</ele>
        <time>2021-07-10T12:02:47.565Z</time>
      </trkpt>
      <trkpt lat="46.39098" lon="8.03554">
        <ele>2154</ele>
        <time>2021-07-10T12:02:48.564Z</time>
      </trkpt>
      <trkpt lat="46.39098" lon="8.03554">
        <ele>2154</ele>
        <time>2021-07-10T12:02:49.564Z</time>
      </trkpt>
      <trkpt lat="46.39097" lon="8.03553">
        <ele>2154</ele>
        <time>2021-07-10T12:02:50.565Z</time>
      </trkpt>
      <trkpt lat="46.39096" lon="8.03552">
        <ele>2154</ele>
        <time>2021-07-10T12:02:51.565Z</time>
      </trkpt>
      <trkpt lat="46.39095" lon="8.03551">
        <ele>2154</ele>
        <time>2021-07-10T12:02:52.565Z</time>
      </trkpt>
      <trkpt lat="46.39094" lon="8.0355">
        <ele>2154</ele>
        <time>2021-07-10T12:02:53.565Z</time>
      </trkpt>
      <trkpt lat="46.39094" lon="8.03549">
        <ele>2154</ele>
        <time>2021-07-10T12:02:54.565Z</time>
      </trkpt>
      <trkpt lat="46.39093" lon="8.03548">
        <ele>2154</ele>
        <time>2021-07-10T12:02:55.564Z</time>
      </trkpt>
      <trkpt lat="46.39093" lon="8.03547">
        <ele>2154</ele>
        <time>2021-07-10T12:02:56.565Z</time>
      </trkpt>
      <trkpt lat="46.39093" lon="8.03546">
        <ele>2154</ele>
        <time>2021-07-10T12:02:57.565Z</time>
      </trkpt>
      <trkpt lat="46.39093" lon="8.03545">
        <ele>2154</ele>
        <time>2021-07-10T12:02:58.565Z</time>
      </trkpt>
      <trkpt lat="46.39092" lon="8.03544">
        <ele>2154</ele>
        <time>2021-07-10T12:02:59.565Z</time>
      </trkpt>
      <trkpt lat="46.39092" lon="8.03543">
        <ele>2155</ele>
        <time>2021-07-10T12:03:00.564Z</time>
      </trkpt>
      <trkpt lat="46.39091" lon="8.03542">
        <ele>2155</ele>
        <time>2021-07-10T12:03:01.565Z</time>
      </trkpt>
      <trkpt lat="46.39091" lon="8.03542">
        <ele>2155</ele>
        <time>2021-07-10T12:03:02.565Z</time>
      </trkpt>
      <trkpt lat="46.3909" lon="8.03541">
        <ele>2154</ele>
        <time>2021-07-10T12:03:03.565Z</time>
      </trkpt>
      <trkpt lat="46.3909" lon="8.03541">
        <ele>2154</ele>
        <time>2021-07-10T12:03:04.565Z</time>
      </trkpt>
      <trkpt lat="46.39089" lon="8.0354">
        <ele>2153</ele>
        <time>2021-07-10T12:03:05.565Z</time>
      </trkpt>
      <trkpt lat="46.39089" lon="8.03539">
        <ele>2153</ele>
        <time>2021-07-10T12:03:06.564Z</time>
      </trkpt>
      <trkpt lat="46.39089" lon="8.03538">
        <ele>2153</ele>
        <time>2021-07-10T12:03:07.564Z</time>
      </trkpt>
      <trkpt lat="46.39088" lon="8.03538">
        <ele>2153</ele>
        <time>2021-07-10T12:03:08.565Z</time>
      </trkpt>
      <trkpt lat="46.39088" lon="8.03537">
        <ele>2152</ele>
        <time>2021-07-10T12:03:09.564Z</time>
      </trkpt>
      <trkpt lat="46.39087" lon="8.03536">
        <ele>2152</ele>
        <time>2021-07-10T12:03:10.565Z</time>
      </trkpt>
      <trkpt lat="46.39087" lon="8.03536">
        <ele>2152</ele>
        <time>2021-07-10T12:03:11.565Z</time>
      </trkpt>
      <trkpt lat="46.39087" lon="8.03535">
        <ele>2151</ele>
        <time>2021-07-10T12:03:12.564Z</time>
      </trkpt>
      <trkpt lat="46.39086" lon="8.03533">
        <ele>2151</ele>
        <time>2021-07-10T12:03:13.565Z</time>
      </trkpt>
      <trkpt lat="46.39086" lon="8.03532">
        <ele>2151</ele>
        <time>2021-07-10T12:03:14.564Z</time>
      </trkpt>
      <trkpt lat="46.39086" lon="8.03531">
        <ele>2151</ele>
        <time>2021-07-10T12:03:15.564Z</time>
      </trkpt>
      <trkpt lat="46.39085" lon="8.03531">
        <ele>2151</ele>
        <time>2021-07-10T12:03:16.565Z</time>
      </trkpt>
      <trkpt lat="46.39085" lon="8.03531">
        <ele>2150</ele>
        <time>2021-07-10T12:03:17.564Z</time>
      </trkpt>
      <trkpt lat="46.39085" lon="8.0353">
        <ele>2150</ele>
        <time>2021-07-10T12:03:18.565Z</time>
      </trkpt>
      <trkpt lat="46.39084" lon="8.03529">
        <ele>2149</ele>
        <time>2021-07-10T12:03:19.565Z</time>
      </trkpt>
      <trkpt lat="46.39084" lon="8.03528">
        <ele>2149</ele>
        <time>2021-07-10T12:03:20.565Z</time>
      </trkpt>
      <trkpt lat="46.39084" lon="8.03527">
        <ele>2148</ele>
        <time>2021-07-10T12:03:21.564Z</time>
      </trkpt>
      <trkpt lat="46.39083" lon="8.03527">
        <ele>2147</ele>
        <time>2021-07-10T12:03:22.565Z</time>
      </trkpt>
      <trkpt lat="46.39082" lon="8.03527">
        <ele>2147</ele>
        <time>2021-07-10T12:03:23.565Z</time>
      </trkpt>
      <trkpt lat="46.39082" lon="8.03526">
        <ele>2146</ele>
        <time>2021-07-10T12:03:24.564Z</time>
      </trkpt>
      <trkpt lat="46.39081" lon="8.03525">
        <ele>2146</ele>
        <time>2021-07-10T12:03:25.565Z</time>
      </trkpt>
      <trkpt lat="46.3908" lon="8.03524">
        <ele>2146</ele>
        <time>2021-07-10T12:03:26.565Z</time>
      </trkpt>
      <trkpt lat="46.3908" lon="8.03524">
        <ele>2146</ele>
        <time>2021-07-10T12:03:27.565Z</time>
      </trkpt>
      <trkpt lat="46.39079" lon="8.03523">
        <ele>2146</ele>
        <time>2021-07-10T12:03:28.565Z</time>
      </trkpt>
      <trkpt lat="46.39079" lon="8.03522">
        <ele>2146</ele>
        <time>2021-07-10T12:03:29.565Z</time>
      </trkpt>
      <trkpt lat="46.39078" lon="8.03522">
        <ele>2146</ele>
        <time>2021-07-10T12:03:30.564Z</time>
      </trkpt>
      <trkpt lat="46.39077" lon="8.03522">
        <ele>2145</ele>
        <time>2021-07-10T12:03:31.564Z</time>
      </trkpt>
      <trkpt lat="46.39077" lon="8.03521">
        <ele>2145</ele>
        <time>2021-07-10T12:03:32.565Z</time>
      </trkpt>
      <trkpt lat="46.39076" lon="8.0352">
        <ele>2145</ele>
        <time>2021-07-10T12:03:33.565Z</time>
      </trkpt>
      <trkpt lat="46.39075" lon="8.03519">
        <ele>2145</ele>
        <time>2021-07-10T12:03:34.565Z</time>
      </trkpt>
      <trkpt lat="46.39075" lon="8.03518">
        <ele>2145</ele>
        <time>2021-07-10T12:03:35.565Z</time>
      </trkpt>
      <trkpt lat="46.39074" lon="8.03518">
        <ele>2144</ele>
        <time>2021-07-10T12:03:36.565Z</time>
      </trkpt>
      <trkpt lat="46.39073" lon="8.03517">
        <ele>2144</ele>
        <time>2021-07-10T12:03:37.564Z</time>
      </trkpt>
      <trkpt lat="46.39073" lon="8.03516">
        <ele>2144</ele>
        <time>2021-07-10T12:03:38.565Z</time>
      </trkpt>
      <trkpt lat="46.39072" lon="8.03515">
        <ele>2144</ele>
        <time>2021-07-10T12:03:39.565Z</time>
      </trkpt>
      <trkpt lat="46.39071" lon="8.03515">
        <ele>2144</ele>
        <time>2021-07-10T12:03:40.565Z</time>
      </trkpt>
      <trkpt lat="46.3907" lon="8.03514">
        <ele>2145</ele>
        <time>2021-07-10T12:03:41.565Z</time>
      </trkpt>
      <trkpt lat="46.3907" lon="8.03513">
        <ele>2145</ele>
        <time>2021-07-10T12:03:42.564Z</time>
      </trkpt>
      <trkpt lat="46.39069" lon="8.03512">
        <ele>2145</ele>
        <time>2021-07-10T12:03:43.565Z</time>
      </trkpt>
      <trkpt lat="46.39069" lon="8.0351">
        <ele>2146</ele>
        <time>2021-07-10T12:03:44.564Z</time>
      </trkpt>
      <trkpt lat="46.39069" lon="8.03509">
        <ele>2146</ele>
        <time>2021-07-10T12:03:45.565Z</time>
      </trkpt>
      <trkpt lat="46.39068" lon="8.03508">
        <ele>2146</ele>
        <time>2021-07-10T12:03:46.564Z</time>
      </trkpt>
      <trkpt lat="46.39068" lon="8.03506">
        <ele>2145</ele>
        <time>2021-07-10T12:03:47.565Z</time>
      </trkpt>
      <trkpt lat="46.39067" lon="8.03505">
        <ele>2145</ele>
        <time>2021-07-10T12:03:48.565Z</time>
      </trkpt>
      <trkpt lat="46.39065" lon="8.03504">
        <ele>2146</ele>
        <time>2021-07-10T12:03:49.565Z</time>
      </trkpt>
      <trkpt lat="46.39064" lon="8.03503">
        <ele>2146</ele>
        <time>2021-07-10T12:03:50.564Z</time>
      </trkpt>
      <trkpt lat="46.39063" lon="8.03502">
        <ele>2146</ele>
        <time>2021-07-10T12:03:51.564Z</time>
      </trkpt>
      <trkpt lat="46.39062" lon="8.03501">
        <ele>2146</ele>
        <time>2021-07-10T12:03:52.565Z</time>
      </trkpt>
      <trkpt lat="46.39061" lon="8.03499">
        <ele>2146</ele>
        <time>2021-07-10T12:03:53.565Z</time>
      </trkpt>
      <trkpt lat="46.3906" lon="8.03498">
        <ele>2145</ele>
        <time>2021-07-10T12:03:54.565Z</time>
      </trkpt>
      <trkpt lat="46.39059" lon="8.03497">
        <ele>2145</ele>
        <time>2021-07-10T12:03:55.564Z</time>
      </trkpt>
      <trkpt lat="46.39058" lon="8.03496">
        <ele>2145</ele>
        <time>2021-07-10T12:03:56.565Z</time>
      </trkpt>
      <trkpt lat="46.39058" lon="8.03496">
        <ele>2145</ele>
        <time>2021-07-10T12:03:57.565Z</time>
      </trkpt>
      <trkpt lat="46.39057" lon="8.03495">
        <ele>2145</ele>
        <time>2021-07-10T12:03:58.564Z</time>
      </trkpt>
      <trkpt lat="46.39056" lon="8.03493">
        <ele>2145</ele>
        <time>2021-07-10T12:03:59.565Z</time>
      </trkpt>
      <trkpt lat="46.39056" lon="8.03493">
        <ele>2145</ele>
        <time>2021-07-10T12:04:00.564Z</time>
      </trkpt>
      <trkpt lat="46.39056" lon="8.03493">
        <ele>2145</ele>
        <time>2021-07-10T12:04:01.565Z</time>
      </trkpt>
      <trkpt lat="46.39056" lon="8.03493">
        <ele>2145</ele>
        <time>2021-07-10T12:04:02.565Z</time>
      </trkpt>
      <trkpt lat="46.39055" lon="8.03491">
        <ele>2145</ele>
        <time>2021-07-10T12:04:03.564Z</time>
      </trkpt>
      <trkpt lat="46.39055" lon="8.0349">
        <ele>2144</ele>
        <time>2021-07-10T12:04:04.565Z</time>
      </trkpt>
      <trkpt lat="46.39055" lon="8.03489">
        <ele>2144</ele>
        <time>2021-07-10T12:04:05.564Z</time>
      </trkpt>
      <trkpt lat="46.39054" lon="8.03488">
        <ele>2143</ele>
        <time>2021-07-10T12:04:06.565Z</time>
      </trkpt>
      <trkpt lat="46.39054" lon="8.03487">
        <ele>2144</ele>
        <time>2021-07-10T12:04:07.564Z</time>
      </trkpt>
      <trkpt lat="46.39054" lon="8.03486">
        <ele>2144</ele>
        <time>2021-07-10T12:04:08.564Z</time>
      </trkpt>
      <trkpt lat="46.39054" lon="8.03485">
        <ele>2144</ele>
        <time>2021-07-10T12:04:09.564Z</time>
      </trkpt>
      <trkpt lat="46.39054" lon="8.03483">
        <ele>2144</ele>
        <time>2021-07-10T12:04:10.564Z</time>
      </trkpt>
      <trkpt lat="46.39053" lon="8.03482">
        <ele>2144</ele>
        <time>2021-07-10T12:04:11.565Z</time>
      </trkpt>
      <trkpt lat="46.39053" lon="8.03481">
        <ele>2144</ele>
        <time>2021-07-10T12:04:12.565Z</time>
      </trkpt>
      <trkpt lat="46.39053" lon="8.03479">
        <ele>2145</ele>
        <time>2021-07-10T12:04:13.565Z</time>
      </trkpt>
      <trkpt lat="46.39052" lon="8.03478">
        <ele>2144</ele>
        <time>2021-07-10T12:04:14.564Z</time>
      </trkpt>
      <trkpt lat="46.39051" lon="8.03477">
        <ele>2144</ele>
        <time>2021-07-10T12:04:15.564Z</time>
      </trkpt>
      <trkpt lat="46.39051" lon="8.03476">
        <ele>2143</ele>
        <time>2021-07-10T12:04:16.565Z</time>
      </trkpt>
      <trkpt lat="46.3905" lon="8.03475">
        <ele>2143</ele>
        <time>2021-07-10T12:04:17.564Z</time>
      </trkpt>
      <trkpt lat="46.39049" lon="8.03474">
        <ele>2143</ele>
        <time>2021-07-10T12:04:18.564Z</time>
      </trkpt>
      <trkpt lat="46.39049" lon="8.03474">
        <ele>2143</ele>
        <time>2021-07-10T12:04:19.565Z</time>
      </trkpt>
      <trkpt lat="46.39048" lon="8.03473">
        <ele>2143</ele>
        <time>2021-07-10T12:04:20.565Z</time>
      </trkpt>
      <trkpt lat="46.39048" lon="8.03472">
        <ele>2143</ele>
        <time>2021-07-10T12:04:21.565Z</time>
      </trkpt>
      <trkpt lat="46.39048" lon="8.03472">
        <ele>2143</ele>
        <time>2021-07-10T12:04:22.565Z</time>
      </trkpt>
      <trkpt lat="46.39047" lon="8.03471">
        <ele>2143</ele>
        <time>2021-07-10T12:04:23.565Z</time>
      </trkpt>
      <trkpt lat="46.39047" lon="8.0347">
        <ele>2143</ele>
        <time>2021-07-10T12:04:24.564Z</time>
      </trkpt>
      <trkpt lat="46.39047" lon="8.03469">
        <ele>2143</ele>
        <time>2021-07-10T12:04:25.564Z</time>
      </trkpt>
      <trkpt lat="46.39047" lon="8.03468">
        <ele>2143</ele>
        <time>2021-07-10T12:04:26.564Z</time>
      </trkpt>
      <trkpt lat="46.39046" lon="8.03467">
        <ele>2142</ele>
        <time>2021-07-10T12:04:27.565Z</time>
      </trkpt>
      <trkpt lat="46.39046" lon="8.03467">
        <ele>2141</ele>
        <time>2021-07-10T12:04:28.565Z</time>
      </trkpt>
      <trkpt lat="46.39046" lon="8.03466">
        <ele>2141</ele>
        <time>2021-07-10T12:04:29.564Z</time>
      </trkpt>
      <trkpt lat="46.39045" lon="8.03465">
        <ele>2140</ele>
        <time>2021-07-10T12:04:30.565Z</time>
      </trkpt>
      <trkpt lat="46.39045" lon="8.03465">
        <ele>2140</ele>
        <time>2021-07-10T12:04:31.565Z</time>
      </trkpt>
      <trkpt lat="46.39045" lon="8.03465">
        <ele>2140</ele>
        <time>2021-07-10T12:04:32.564Z</time>
      </trkpt>
      <trkpt lat="46.39045" lon="8.03465">
        <ele>2140</ele>
        <time>2021-07-10T12:04:33.564Z</time>
      </trkpt>
      <trkpt lat="46.39045" lon="8.03464">
        <ele>2140</ele>
        <time>2021-07-10T12:04:34.564Z</time>
      </trkpt>
      <trkpt lat="46.39046" lon="8.03466">
        <ele>2143</ele>
        <time>2021-07-10T12:04:35.564Z</time>
      </trkpt>
      <trkpt lat="46.39045" lon="8.03465">
        <ele>2143</ele>
        <time>2021-07-10T12:04:36.565Z</time>
      </trkpt>
      <trkpt lat="46.39045" lon="8.03463">
        <ele>2143</ele>
        <time>2021-07-10T12:04:37.565Z</time>
      </trkpt>
      <trkpt lat="46.39045" lon="8.03462">
        <ele>2143</ele>
        <time>2021-07-10T12:04:38.564Z</time>
      </trkpt>
      <trkpt lat="46.39044" lon="8.03461">
        <ele>2143</ele>
        <time>2021-07-10T12:04:39.564Z</time>
      </trkpt>
      <trkpt lat="46.39044" lon="8.0346">
        <ele>2143</ele>
        <time>2021-07-10T12:04:40.564Z</time>
      </trkpt>
      <trkpt lat="46.39043" lon="8.03459">
        <ele>2143</ele>
        <time>2021-07-10T12:04:41.564Z</time>
      </trkpt>
      <trkpt lat="46.39043" lon="8.03458">
        <ele>2143</ele>
        <time>2021-07-10T12:04:42.564Z</time>
      </trkpt>
      <trkpt lat="46.39042" lon="8.03458">
        <ele>2143</ele>
        <time>2021-07-10T12:04:43.564Z</time>
      </trkpt>
      <trkpt lat="46.39042" lon="8.03456">
        <ele>2143</ele>
        <time>2021-07-10T12:04:44.564Z</time>
      </trkpt>
      <trkpt lat="46.39042" lon="8.03456">
        <ele>2143</ele>
        <time>2021-07-10T12:04:45.565Z</time>
      </trkpt>
      <trkpt lat="46.39041" lon="8.03455">
        <ele>2143</ele>
        <time>2021-07-10T12:04:46.565Z</time>
      </trkpt>
      <trkpt lat="46.3904" lon="8.03454">
        <ele>2142</ele>
        <time>2021-07-10T12:04:47.564Z</time>
      </trkpt>
      <trkpt lat="46.39039" lon="8.03454">
        <ele>2143</ele>
        <time>2021-07-10T12:04:48.565Z</time>
      </trkpt>
      <trkpt lat="46.39039" lon="8.03453">
        <ele>2143</ele>
        <time>2021-07-10T12:04:49.564Z</time>
      </trkpt>
      <trkpt lat="46.39038" lon="8.03452">
        <ele>2143</ele>
        <time>2021-07-10T12:04:50.564Z</time>
      </trkpt>
      <trkpt lat="46.39038" lon="8.03451">
        <ele>2143</ele>
        <time>2021-07-10T12:04:51.565Z</time>
      </trkpt>
      <trkpt lat="46.39038" lon="8.0345">
        <ele>2142</ele>
        <time>2021-07-10T12:04:52.565Z</time>
      </trkpt>
      <trkpt lat="46.39038" lon="8.03449">
        <ele>2142</ele>
        <time>2021-07-10T12:04:53.565Z</time>
      </trkpt>
      <trkpt lat="46.39037" lon="8.03449">
        <ele>2142</ele>
        <time>2021-07-10T12:04:54.565Z</time>
      </trkpt>
      <trkpt lat="46.39037" lon="8.03448">
        <ele>2142</ele>
        <time>2021-07-10T12:04:55.564Z</time>
      </trkpt>
      <trkpt lat="46.39036" lon="8.03447">
        <ele>2142</ele>
        <time>2021-07-10T12:04:56.565Z</time>
      </trkpt>
      <trkpt lat="46.39036" lon="8.03446">
        <ele>2142</ele>
        <time>2021-07-10T12:04:57.565Z</time>
      </trkpt>
      <trkpt lat="46.39035" lon="8.03445">
        <ele>2143</ele>
        <time>2021-07-10T12:04:58.565Z</time>
      </trkpt>
      <trkpt lat="46.39035" lon="8.03444">
        <ele>2143</ele>
        <time>2021-07-10T12:04:59.565Z</time>
      </trkpt>
      <trkpt lat="46.39034" lon="8.03443">
        <ele>2143</ele>
        <time>2021-07-10T12:05:00.564Z</time>
      </trkpt>
      <trkpt lat="46.39034" lon="8.03443">
        <ele>2143</ele>
        <time>2021-07-10T12:05:01.564Z</time>
      </trkpt>
      <trkpt lat="46.39034" lon="8.03442">
        <ele>2143</ele>
        <time>2021-07-10T12:05:02.565Z</time>
      </trkpt>
      <trkpt lat="46.39034" lon="8.03441">
        <ele>2143</ele>
        <time>2021-07-10T12:05:03.565Z</time>
      </trkpt>
      <trkpt lat="46.39034" lon="8.0344">
        <ele>2143</ele>
        <time>2021-07-10T12:05:04.564Z</time>
      </trkpt>
      <trkpt lat="46.39034" lon="8.0344">
        <ele>2143</ele>
        <time>2021-07-10T12:05:05.565Z</time>
      </trkpt>
      <trkpt lat="46.39038" lon="8.03436">
        <ele>2134</ele>
        <time>2021-07-10T12:05:06.564Z</time>
      </trkpt>
      <trkpt lat="46.39037" lon="8.03434">
        <ele>2136</ele>
        <time>2021-07-10T12:05:07.565Z</time>
      </trkpt>
      <trkpt lat="46.39036" lon="8.03432">
        <ele>2135</ele>
        <time>2021-07-10T12:05:08.565Z</time>
      </trkpt>
      <trkpt lat="46.39036" lon="8.03431">
        <ele>2136</ele>
        <time>2021-07-10T12:05:09.565Z</time>
      </trkpt>
      <trkpt lat="46.39035" lon="8.03431">
        <ele>2137</ele>
        <time>2021-07-10T12:05:10.565Z</time>
      </trkpt>
      <trkpt lat="46.39035" lon="8.0343">
        <ele>2138</ele>
        <time>2021-07-10T12:05:11.565Z</time>
      </trkpt>
      <trkpt lat="46.39035" lon="8.03429">
        <ele>2138</ele>
        <time>2021-07-10T12:05:12.565Z</time>
      </trkpt>
      <trkpt lat="46.39035" lon="8.03428">
        <ele>2139</ele>
        <time>2021-07-10T12:05:13.566Z</time>
      </trkpt>
      <trkpt lat="46.39035" lon="8.03428">
        <ele>2140</ele>
        <time>2021-07-10T12:05:14.566Z</time>
      </trkpt>
      <trkpt lat="46.39035" lon="8.03427">
        <ele>2141</ele>
        <time>2021-07-10T12:05:15.565Z</time>
      </trkpt>
      <trkpt lat="46.39035" lon="8.03427">
        <ele>2141</ele>
        <time>2021-07-10T12:05:16.565Z</time>
      </trkpt>
      <trkpt lat="46.39035" lon="8.03427">
        <ele>2142</ele>
        <time>2021-07-10T12:05:17.565Z</time>
      </trkpt>
      <trkpt lat="46.39035" lon="8.03426">
        <ele>2142</ele>
        <time>2021-07-10T12:05:18.566Z</time>
      </trkpt>
      <trkpt lat="46.39034" lon="8.03425">
        <ele>2142</ele>
        <time>2021-07-10T12:05:19.566Z</time>
      </trkpt>
      <trkpt lat="46.39033" lon="8.03425">
        <ele>2143</ele>
        <time>2021-07-10T12:05:20.566Z</time>
      </trkpt>
      <trkpt lat="46.39033" lon="8.03424">
        <ele>2144</ele>
        <time>2021-07-10T12:05:21.566Z</time>
      </trkpt>
      <trkpt lat="46.39032" lon="8.03424">
        <ele>2144</ele>
        <time>2021-07-10T12:05:22.565Z</time>
      </trkpt>
      <trkpt lat="46.39031" lon="8.03424">
        <ele>2145</ele>
        <time>2021-07-10T12:05:23.565Z</time>
      </trkpt>
      <trkpt lat="46.3903" lon="8.03424">
        <ele>2145</ele>
        <time>2021-07-10T12:05:24.566Z</time>
      </trkpt>
      <trkpt lat="46.3903" lon="8.03424">
        <ele>2145</ele>
        <time>2021-07-10T12:05:25.566Z</time>
      </trkpt>
      <trkpt lat="46.3903" lon="8.03424">
        <ele>2145</ele>
        <time>2021-07-10T12:05:26.566Z</time>
      </trkpt>
      <trkpt lat="46.3903" lon="8.03425">
        <ele>2145</ele>
        <time>2021-07-10T12:05:27.566Z</time>
      </trkpt>
      <trkpt lat="46.3903" lon="8.03425">
        <ele>2145</ele>
        <time>2021-07-10T12:05:28.566Z</time>
      </trkpt>
      <trkpt lat="46.39029" lon="8.03426">
        <ele>2146</ele>
        <time>2021-07-10T12:05:29.566Z</time>
      </trkpt>
      <trkpt lat="46.39029" lon="8.03426">
        <ele>2146</ele>
        <time>2021-07-10T12:05:30.565Z</time>
      </trkpt>
      <trkpt lat="46.39028" lon="8.03426">
        <ele>2146</ele>
        <time>2021-07-10T12:05:31.565Z</time>
      </trkpt>
      <trkpt lat="46.39028" lon="8.03426">
        <ele>2146</ele>
        <time>2021-07-10T12:05:32.565Z</time>
      </trkpt>
      <trkpt lat="46.39027" lon="8.03426">
        <ele>2146</ele>
        <time>2021-07-10T12:05:33.565Z</time>
      </trkpt>
      <trkpt lat="46.39027" lon="8.03425">
        <ele>2146</ele>
        <time>2021-07-10T12:05:34.566Z</time>
      </trkpt>
      <trkpt lat="46.39027" lon="8.03425">
        <ele>2145</ele>
        <time>2021-07-10T12:05:35.566Z</time>
      </trkpt>
      <trkpt lat="46.39026" lon="8.03424">
        <ele>2145</ele>
        <time>2021-07-10T12:05:36.566Z</time>
      </trkpt>
      <trkpt lat="46.39026" lon="8.03423">
        <ele>2144</ele>
        <time>2021-07-10T12:05:37.565Z</time>
      </trkpt>
      <trkpt lat="46.39026" lon="8.03422">
        <ele>2144</ele>
        <time>2021-07-10T12:05:38.566Z</time>
      </trkpt>
      <trkpt lat="46.39025" lon="8.03422">
        <ele>2143</ele>
        <time>2021-07-10T12:05:39.566Z</time>
      </trkpt>
      <trkpt lat="46.39025" lon="8.03421">
        <ele>2143</ele>
        <time>2021-07-10T12:05:40.566Z</time>
      </trkpt>
      <trkpt lat="46.39024" lon="8.03421">
        <ele>2144</ele>
        <time>2021-07-10T12:05:41.565Z</time>
      </trkpt>
      <trkpt lat="46.39024" lon="8.03421">
        <ele>2144</ele>
        <time>2021-07-10T12:05:42.565Z</time>
      </trkpt>
      <trkpt lat="46.39024" lon="8.03421">
        <ele>2145</ele>
        <time>2021-07-10T12:05:43.565Z</time>
      </trkpt>
      <trkpt lat="46.39023" lon="8.03421">
        <ele>2145</ele>
        <time>2021-07-10T12:05:44.565Z</time>
      </trkpt>
      <trkpt lat="46.39023" lon="8.03421">
        <ele>2146</ele>
        <time>2021-07-10T12:05:45.565Z</time>
      </trkpt>
      <trkpt lat="46.39022" lon="8.0342">
        <ele>2146</ele>
        <time>2021-07-10T12:05:46.565Z</time>
      </trkpt>
      <trkpt lat="46.39021" lon="8.0342">
        <ele>2147</ele>
        <time>2021-07-10T12:05:47.565Z</time>
      </trkpt>
      <trkpt lat="46.39021" lon="8.0342">
        <ele>2147</ele>
        <time>2021-07-10T12:05:48.565Z</time>
      </trkpt>
      <trkpt lat="46.3902" lon="8.03419">
        <ele>2146</ele>
        <time>2021-07-10T12:05:49.565Z</time>
      </trkpt>
      <trkpt lat="46.39019" lon="8.03418">
        <ele>2146</ele>
        <time>2021-07-10T12:05:50.565Z</time>
      </trkpt>
      <trkpt lat="46.39019" lon="8.03418">
        <ele>2145</ele>
        <time>2021-07-10T12:05:51.565Z</time>
      </trkpt>
      <trkpt lat="46.39019" lon="8.03417">
        <ele>2145</ele>
        <time>2021-07-10T12:05:52.565Z</time>
      </trkpt>
      <trkpt lat="46.39018" lon="8.03416">
        <ele>2145</ele>
        <time>2021-07-10T12:05:53.565Z</time>
      </trkpt>
      <trkpt lat="46.39017" lon="8.03415">
        <ele>2145</ele>
        <time>2021-07-10T12:05:54.566Z</time>
      </trkpt>
      <trkpt lat="46.39017" lon="8.03414">
        <ele>2145</ele>
        <time>2021-07-10T12:05:55.566Z</time>
      </trkpt>
      <trkpt lat="46.39016" lon="8.03413">
        <ele>2145</ele>
        <time>2021-07-10T12:05:56.566Z</time>
      </trkpt>
      <trkpt lat="46.39015" lon="8.03411">
        <ele>2145</ele>
        <time>2021-07-10T12:05:57.565Z</time>
      </trkpt>
      <trkpt lat="46.39015" lon="8.0341">
        <ele>2145</ele>
        <time>2021-07-10T12:05:58.565Z</time>
      </trkpt>
      <trkpt lat="46.39014" lon="8.03409">
        <ele>2144</ele>
        <time>2021-07-10T12:05:59.565Z</time>
      </trkpt>
      <trkpt lat="46.39013" lon="8.03408">
        <ele>2145</ele>
        <time>2021-07-10T12:06:00.566Z</time>
      </trkpt>
      <trkpt lat="46.39012" lon="8.03408">
        <ele>2145</ele>
        <time>2021-07-10T12:06:01.565Z</time>
      </trkpt>
      <trkpt lat="46.39012" lon="8.03407">
        <ele>2145</ele>
        <time>2021-07-10T12:06:02.565Z</time>
      </trkpt>
      <trkpt lat="46.39011" lon="8.03406">
        <ele>2145</ele>
        <time>2021-07-10T12:06:03.566Z</time>
      </trkpt>
      <trkpt lat="46.3901" lon="8.03406">
        <ele>2145</ele>
        <time>2021-07-10T12:06:04.565Z</time>
      </trkpt>
      <trkpt lat="46.3901" lon="8.03406">
        <ele>2145</ele>
        <time>2021-07-10T12:06:05.565Z</time>
      </trkpt>
      <trkpt lat="46.3901" lon="8.03406">
        <ele>2145</ele>
        <time>2021-07-10T12:06:06.565Z</time>
      </trkpt>
      <trkpt lat="46.39009" lon="8.03407">
        <ele>2145</ele>
        <time>2021-07-10T12:06:07.565Z</time>
      </trkpt>
      <trkpt lat="46.39009" lon="8.03407">
        <ele>2145</ele>
        <time>2021-07-10T12:06:08.565Z</time>
      </trkpt>
      <trkpt lat="46.39008" lon="8.03405">
        <ele>2144</ele>
        <time>2021-07-10T12:06:09.566Z</time>
      </trkpt>
      <trkpt lat="46.39008" lon="8.03403">
        <ele>2144</ele>
        <time>2021-07-10T12:06:10.566Z</time>
      </trkpt>
      <trkpt lat="46.39008" lon="8.03401">
        <ele>2144</ele>
        <time>2021-07-10T12:06:11.566Z</time>
      </trkpt>
      <trkpt lat="46.39007" lon="8.034">
        <ele>2144</ele>
        <time>2021-07-10T12:06:12.566Z</time>
      </trkpt>
      <trkpt lat="46.39007" lon="8.03399">
        <ele>2144</ele>
        <time>2021-07-10T12:06:13.566Z</time>
      </trkpt>
      <trkpt lat="46.39007" lon="8.03397">
        <ele>2144</ele>
        <time>2021-07-10T12:06:14.566Z</time>
      </trkpt>
      <trkpt lat="46.39006" lon="8.03396">
        <ele>2144</ele>
        <time>2021-07-10T12:06:15.566Z</time>
      </trkpt>
      <trkpt lat="46.39006" lon="8.03395">
        <ele>2144</ele>
        <time>2021-07-10T12:06:16.567Z</time>
      </trkpt>
      <trkpt lat="46.39005" lon="8.03393">
        <ele>2145</ele>
        <time>2021-07-10T12:06:17.566Z</time>
      </trkpt>
      <trkpt lat="46.39004" lon="8.03392">
        <ele>2145</ele>
        <time>2021-07-10T12:06:18.566Z</time>
      </trkpt>
      <trkpt lat="46.39004" lon="8.03391">
        <ele>2145</ele>
        <time>2021-07-10T12:06:19.566Z</time>
      </trkpt>
      <trkpt lat="46.39003" lon="8.0339">
        <ele>2145</ele>
        <time>2021-07-10T12:06:20.567Z</time>
      </trkpt>
      <trkpt lat="46.39002" lon="8.03388">
        <ele>2145</ele>
        <time>2021-07-10T12:06:21.567Z</time>
      </trkpt>
      <trkpt lat="46.39002" lon="8.03386">
        <ele>2145</ele>
        <time>2021-07-10T12:06:22.566Z</time>
      </trkpt>
      <trkpt lat="46.39002" lon="8.03385">
        <ele>2145</ele>
        <time>2021-07-10T12:06:23.566Z</time>
      </trkpt>
      <trkpt lat="46.39001" lon="8.03383">
        <ele>2145</ele>
        <time>2021-07-10T12:06:24.566Z</time>
      </trkpt>
      <trkpt lat="46.39001" lon="8.03381">
        <ele>2146</ele>
        <time>2021-07-10T12:06:25.567Z</time>
      </trkpt>
      <trkpt lat="46.39001" lon="8.03379">
        <ele>2146</ele>
        <time>2021-07-10T12:06:26.566Z</time>
      </trkpt>
      <trkpt lat="46.39001" lon="8.03378">
        <ele>2146</ele>
        <time>2021-07-10T12:06:27.566Z</time>
      </trkpt>
      <trkpt lat="46.39" lon="8.03376">
        <ele>2146</ele>
        <time>2021-07-10T12:06:28.566Z</time>
      </trkpt>
      <trkpt lat="46.39" lon="8.03375">
        <ele>2146</ele>
        <time>2021-07-10T12:06:29.566Z</time>
      </trkpt>
      <trkpt lat="46.38999" lon="8.03373">
        <ele>2146</ele>
        <time>2021-07-10T12:06:30.566Z</time>
      </trkpt>
      <trkpt lat="46.38998" lon="8.03372">
        <ele>2146</ele>
        <time>2021-07-10T12:06:31.566Z</time>
      </trkpt>
      <trkpt lat="46.38998" lon="8.0337">
        <ele>2145</ele>
        <time>2021-07-10T12:06:32.566Z</time>
      </trkpt>
      <trkpt lat="46.38998" lon="8.03368">
        <ele>2145</ele>
        <time>2021-07-10T12:06:33.566Z</time>
      </trkpt>
      <trkpt lat="46.38997" lon="8.03367">
        <ele>2145</ele>
        <time>2021-07-10T12:06:34.566Z</time>
      </trkpt>
      <trkpt lat="46.38997" lon="8.03365">
        <ele>2145</ele>
        <time>2021-07-10T12:06:35.566Z</time>
      </trkpt>
      <trkpt lat="46.38996" lon="8.03364">
        <ele>2145</ele>
        <time>2021-07-10T12:06:36.567Z</time>
      </trkpt>
      <trkpt lat="46.38996" lon="8.03363">
        <ele>2145</ele>
        <time>2021-07-10T12:06:37.566Z</time>
      </trkpt>
      <trkpt lat="46.38995" lon="8.03362">
        <ele>2145</ele>
        <time>2021-07-10T12:06:38.566Z</time>
      </trkpt>
      <trkpt lat="46.38995" lon="8.03361">
        <ele>2145</ele>
        <time>2021-07-10T12:06:39.566Z</time>
      </trkpt>
      <trkpt lat="46.38994" lon="8.0336">
        <ele>2145</ele>
        <time>2021-07-10T12:06:40.566Z</time>
      </trkpt>
      <trkpt lat="46.38994" lon="8.03359">
        <ele>2145</ele>
        <time>2021-07-10T12:06:41.567Z</time>
      </trkpt>
      <trkpt lat="46.38993" lon="8.03357">
        <ele>2145</ele>
        <time>2021-07-10T12:06:42.566Z</time>
      </trkpt>
      <trkpt lat="46.38993" lon="8.03356">
        <ele>2145</ele>
        <time>2021-07-10T12:06:43.566Z</time>
      </trkpt>
      <trkpt lat="46.38992" lon="8.03355">
        <ele>2144</ele>
        <time>2021-07-10T12:06:44.567Z</time>
      </trkpt>
      <trkpt lat="46.38991" lon="8.03353">
        <ele>2144</ele>
        <time>2021-07-10T12:06:45.566Z</time>
      </trkpt>
      <trkpt lat="46.38991" lon="8.03352">
        <ele>2144</ele>
        <time>2021-07-10T12:06:46.566Z</time>
      </trkpt>
      <trkpt lat="46.3899" lon="8.03351">
        <ele>2143</ele>
        <time>2021-07-10T12:06:47.566Z</time>
      </trkpt>
      <trkpt lat="46.3899" lon="8.0335">
        <ele>2143</ele>
        <time>2021-07-10T12:06:48.566Z</time>
      </trkpt>
      <trkpt lat="46.38989" lon="8.0335">
        <ele>2143</ele>
        <time>2021-07-10T12:06:49.566Z</time>
      </trkpt>
      <trkpt lat="46.38988" lon="8.03349">
        <ele>2144</ele>
        <time>2021-07-10T12:06:50.566Z</time>
      </trkpt>
      <trkpt lat="46.38988" lon="8.03348">
        <ele>2144</ele>
        <time>2021-07-10T12:06:51.566Z</time>
      </trkpt>
      <trkpt lat="46.38987" lon="8.03347">
        <ele>2145</ele>
        <time>2021-07-10T12:06:52.566Z</time>
      </trkpt>
      <trkpt lat="46.38986" lon="8.03346">
        <ele>2145</ele>
        <time>2021-07-10T12:06:53.566Z</time>
      </trkpt>
      <trkpt lat="46.38985" lon="8.03346">
        <ele>2146</ele>
        <time>2021-07-10T12:06:54.566Z</time>
      </trkpt>
      <trkpt lat="46.38984" lon="8.03345">
        <ele>2147</ele>
        <time>2021-07-10T12:06:55.566Z</time>
      </trkpt>
      <trkpt lat="46.38984" lon="8.03344">
        <ele>2147</ele>
        <time>2021-07-10T12:06:56.567Z</time>
      </trkpt>
      <trkpt lat="46.38983" lon="8.03343">
        <ele>2148</ele>
        <time>2021-07-10T12:06:57.567Z</time>
      </trkpt>
      <trkpt lat="46.38983" lon="8.03342">
        <ele>2149</ele>
        <time>2021-07-10T12:06:58.567Z</time>
      </trkpt>
      <trkpt lat="46.38982" lon="8.03341">
        <ele>2149</ele>
        <time>2021-07-10T12:06:59.567Z</time>
      </trkpt>
      <trkpt lat="46.38982" lon="8.03341">
        <ele>2150</ele>
        <time>2021-07-10T12:07:00.567Z</time>
      </trkpt>
      <trkpt lat="46.38982" lon="8.03339">
        <ele>2150</ele>
        <time>2021-07-10T12:07:01.566Z</time>
      </trkpt>
      <trkpt lat="46.38981" lon="8.03338">
        <ele>2151</ele>
        <time>2021-07-10T12:07:02.566Z</time>
      </trkpt>
      <trkpt lat="46.38981" lon="8.03336">
        <ele>2151</ele>
        <time>2021-07-10T12:07:03.566Z</time>
      </trkpt>
      <trkpt lat="46.38981" lon="8.03335">
        <ele>2151</ele>
        <time>2021-07-10T12:07:04.567Z</time>
      </trkpt>
      <trkpt lat="46.3898" lon="8.03334">
        <ele>2150</ele>
        <time>2021-07-10T12:07:05.566Z</time>
      </trkpt>
      <trkpt lat="46.38979" lon="8.03333">
        <ele>2150</ele>
        <time>2021-07-10T12:07:06.566Z</time>
      </trkpt>
      <trkpt lat="46.38979" lon="8.03332">
        <ele>2149</ele>
        <time>2021-07-10T12:07:07.567Z</time>
      </trkpt>
      <trkpt lat="46.38978" lon="8.03331">
        <ele>2148</ele>
        <time>2021-07-10T12:07:08.566Z</time>
      </trkpt>
      <trkpt lat="46.38978" lon="8.0333">
        <ele>2147</ele>
        <time>2021-07-10T12:07:09.567Z</time>
      </trkpt>
      <trkpt lat="46.38978" lon="8.03329">
        <ele>2146</ele>
        <time>2021-07-10T12:07:10.566Z</time>
      </trkpt>
      <trkpt lat="46.38978" lon="8.03327">
        <ele>2145</ele>
        <time>2021-07-10T12:07:11.566Z</time>
      </trkpt>
      <trkpt lat="46.38978" lon="8.03326">
        <ele>2144</ele>
        <time>2021-07-10T12:07:12.566Z</time>
      </trkpt>
      <trkpt lat="46.38978" lon="8.03324">
        <ele>2144</ele>
        <time>2021-07-10T12:07:13.567Z</time>
      </trkpt>
      <trkpt lat="46.38977" lon="8.03323">
        <ele>2144</ele>
        <time>2021-07-10T12:07:14.566Z</time>
      </trkpt>
      <trkpt lat="46.38977" lon="8.03322">
        <ele>2144</ele>
        <time>2021-07-10T12:07:15.566Z</time>
      </trkpt>
      <trkpt lat="46.38976" lon="8.03321">
        <ele>2145</ele>
        <time>2021-07-10T12:07:16.567Z</time>
      </trkpt>
      <trkpt lat="46.38976" lon="8.0332">
        <ele>2145</ele>
        <time>2021-07-10T12:07:17.567Z</time>
      </trkpt>
      <trkpt lat="46.38976" lon="8.03319">
        <ele>2145</ele>
        <time>2021-07-10T12:07:18.566Z</time>
      </trkpt>
      <trkpt lat="46.38976" lon="8.03317">
        <ele>2145</ele>
        <time>2021-07-10T12:07:19.567Z</time>
      </trkpt>
      <trkpt lat="46.38975" lon="8.03316">
        <ele>2145</ele>
        <time>2021-07-10T12:07:20.567Z</time>
      </trkpt>
      <trkpt lat="46.38974" lon="8.03314">
        <ele>2146</ele>
        <time>2021-07-10T12:07:21.567Z</time>
      </trkpt>
      <trkpt lat="46.38974" lon="8.03313">
        <ele>2146</ele>
        <time>2021-07-10T12:07:22.567Z</time>
      </trkpt>
      <trkpt lat="46.38973" lon="8.03312">
        <ele>2146</ele>
        <time>2021-07-10T12:07:23.566Z</time>
      </trkpt>
      <trkpt lat="46.38973" lon="8.0331">
        <ele>2147</ele>
        <time>2021-07-10T12:07:24.566Z</time>
      </trkpt>
      <trkpt lat="46.38972" lon="8.0331">
        <ele>2147</ele>
        <time>2021-07-10T12:07:25.566Z</time>
      </trkpt>
      <trkpt lat="46.38971" lon="8.03309">
        <ele>2147</ele>
        <time>2021-07-10T12:07:26.567Z</time>
      </trkpt>
      <trkpt lat="46.3897" lon="8.03308">
        <ele>2147</ele>
        <time>2021-07-10T12:07:27.567Z</time>
      </trkpt>
      <trkpt lat="46.3897" lon="8.03307">
        <ele>2148</ele>
        <time>2021-07-10T12:07:28.567Z</time>
      </trkpt>
      <trkpt lat="46.38969" lon="8.03306">
        <ele>2148</ele>
        <time>2021-07-10T12:07:29.566Z</time>
      </trkpt>
      <trkpt lat="46.38969" lon="8.03305">
        <ele>2148</ele>
        <time>2021-07-10T12:07:30.567Z</time>
      </trkpt>
      <trkpt lat="46.38968" lon="8.03303">
        <ele>2148</ele>
        <time>2021-07-10T12:07:31.566Z</time>
      </trkpt>
      <trkpt lat="46.38968" lon="8.03302">
        <ele>2148</ele>
        <time>2021-07-10T12:07:32.566Z</time>
      </trkpt>
      <trkpt lat="46.38968" lon="8.03301">
        <ele>2149</ele>
        <time>2021-07-10T12:07:33.566Z</time>
      </trkpt>
      <trkpt lat="46.38967" lon="8.03299">
        <ele>2149</ele>
        <time>2021-07-10T12:07:34.567Z</time>
      </trkpt>
      <trkpt lat="46.38967" lon="8.03298">
        <ele>2149</ele>
        <time>2021-07-10T12:07:35.567Z</time>
      </trkpt>
      <trkpt lat="46.38966" lon="8.03297">
        <ele>2149</ele>
        <time>2021-07-10T12:07:36.566Z</time>
      </trkpt>
      <trkpt lat="46.38965" lon="8.03295">
        <ele>2149</ele>
        <time>2021-07-10T12:07:37.567Z</time>
      </trkpt>
      <trkpt lat="46.38964" lon="8.03295">
        <ele>2149</ele>
        <time>2021-07-10T12:07:38.567Z</time>
      </trkpt>
      <trkpt lat="46.38963" lon="8.03294">
        <ele>2150</ele>
        <time>2021-07-10T12:07:39.566Z</time>
      </trkpt>
      <trkpt lat="46.38963" lon="8.03293">
        <ele>2149</ele>
        <time>2021-07-10T12:07:40.566Z</time>
      </trkpt>
      <trkpt lat="46.38962" lon="8.03292">
        <ele>2149</ele>
        <time>2021-07-10T12:07:41.566Z</time>
      </trkpt>
      <trkpt lat="46.38961" lon="8.03291">
        <ele>2149</ele>
        <time>2021-07-10T12:07:42.567Z</time>
      </trkpt>
      <trkpt lat="46.38961" lon="8.03289">
        <ele>2150</ele>
        <time>2021-07-10T12:07:43.566Z</time>
      </trkpt>
      <trkpt lat="46.3896" lon="8.03288">
        <ele>2150</ele>
        <time>2021-07-10T12:07:44.567Z</time>
      </trkpt>
      <trkpt lat="46.3896" lon="8.03287">
        <ele>2150</ele>
        <time>2021-07-10T12:07:45.567Z</time>
      </trkpt>
      <trkpt lat="46.38959" lon="8.03286">
        <ele>2150</ele>
        <time>2021-07-10T12:07:46.567Z</time>
      </trkpt>
      <trkpt lat="46.38958" lon="8.03284">
        <ele>2150</ele>
        <time>2021-07-10T12:07:47.567Z</time>
      </trkpt>
      <trkpt lat="46.38957" lon="8.03283">
        <ele>2150</ele>
        <time>2021-07-10T12:07:48.567Z</time>
      </trkpt>
      <trkpt lat="46.38957" lon="8.03282">
        <ele>2150</ele>
        <time>2021-07-10T12:07:49.567Z</time>
      </trkpt>
      <trkpt lat="46.38956" lon="8.03281">
        <ele>2149</ele>
        <time>2021-07-10T12:07:50.567Z</time>
      </trkpt>
      <trkpt lat="46.38956" lon="8.0328">
        <ele>2149</ele>
        <time>2021-07-10T12:07:51.567Z</time>
      </trkpt>
      <trkpt lat="46.38955" lon="8.03279">
        <ele>2150</ele>
        <time>2021-07-10T12:07:52.566Z</time>
      </trkpt>
      <trkpt lat="46.38955" lon="8.03278">
        <ele>2150</ele>
        <time>2021-07-10T12:07:53.567Z</time>
      </trkpt>
      <trkpt lat="46.38955" lon="8.03277">
        <ele>2150</ele>
        <time>2021-07-10T12:07:54.566Z</time>
      </trkpt>
      <trkpt lat="46.38954" lon="8.03277">
        <ele>2150</ele>
        <time>2021-07-10T12:07:55.566Z</time>
      </trkpt>
      <trkpt lat="46.38954" lon="8.03276">
        <ele>2150</ele>
        <time>2021-07-10T12:07:56.567Z</time>
      </trkpt>
      <trkpt lat="46.38953" lon="8.03275">
        <ele>2150</ele>
        <time>2021-07-10T12:07:57.567Z</time>
      </trkpt>
      <trkpt lat="46.38952" lon="8.03275">
        <ele>2150</ele>
        <time>2021-07-10T12:07:58.566Z</time>
      </trkpt>
      <trkpt lat="46.38952" lon="8.03274">
        <ele>2150</ele>
        <time>2021-07-10T12:07:59.566Z</time>
      </trkpt>
      <trkpt lat="46.38951" lon="8.03273">
        <ele>2151</ele>
        <time>2021-07-10T12:08:00.567Z</time>
      </trkpt>
      <trkpt lat="46.38951" lon="8.03272">
        <ele>2151</ele>
        <time>2021-07-10T12:08:01.567Z</time>
      </trkpt>
      <trkpt lat="46.38951" lon="8.03271">
        <ele>2151</ele>
        <time>2021-07-10T12:08:02.566Z</time>
      </trkpt>
      <trkpt lat="46.38951" lon="8.0327">
        <ele>2150</ele>
        <time>2021-07-10T12:08:03.566Z</time>
      </trkpt>
      <trkpt lat="46.38951" lon="8.03269">
        <ele>2150</ele>
        <time>2021-07-10T12:08:04.567Z</time>
      </trkpt>
      <trkpt lat="46.38951" lon="8.03268">
        <ele>2150</ele>
        <time>2021-07-10T12:08:05.567Z</time>
      </trkpt>
      <trkpt lat="46.38951" lon="8.03266">
        <ele>2149</ele>
        <time>2021-07-10T12:08:06.566Z</time>
      </trkpt>
      <trkpt lat="46.38951" lon="8.03265">
        <ele>2149</ele>
        <time>2021-07-10T12:08:07.566Z</time>
      </trkpt>
      <trkpt lat="46.38952" lon="8.03264">
        <ele>2149</ele>
        <time>2021-07-10T12:08:08.566Z</time>
      </trkpt>
      <trkpt lat="46.38952" lon="8.03263">
        <ele>2149</ele>
        <time>2021-07-10T12:08:09.567Z</time>
      </trkpt>
      <trkpt lat="46.38953" lon="8.03262">
        <ele>2149</ele>
        <time>2021-07-10T12:08:10.567Z</time>
      </trkpt>
      <trkpt lat="46.38953" lon="8.03261">
        <ele>2149</ele>
        <time>2021-07-10T12:08:11.567Z</time>
      </trkpt>
      <trkpt lat="46.38953" lon="8.03261">
        <ele>2149</ele>
        <time>2021-07-10T12:08:12.567Z</time>
      </trkpt>
      <trkpt lat="46.38953" lon="8.03261">
        <ele>2149</ele>
        <time>2021-07-10T12:08:13.567Z</time>
      </trkpt>
      <trkpt lat="46.38953" lon="8.03261">
        <ele>2149</ele>
        <time>2021-07-10T12:08:14.567Z</time>
      </trkpt>
      <trkpt lat="46.38953" lon="8.03261">
        <ele>2148</ele>
        <time>2021-07-10T12:08:15.443Z</time>
      </trkpt>
      <trkpt lat="46.38953" lon="8.03262">
        <ele>2149</ele>
        <time>2021-07-10T12:08:16.443Z</time>
      </trkpt>
      <trkpt lat="46.38953" lon="8.03262">
        <ele>2149</ele>
        <time>2021-07-10T12:08:17.444Z</time>
      </trkpt>
      <trkpt lat="46.38953" lon="8.03262">
        <ele>2149</ele>
        <time>2021-07-10T12:08:18.443Z</time>
      </trkpt>
      <trkpt lat="46.38953" lon="8.03262">
        <ele>2149</ele>
        <time>2021-07-10T12:08:19.444Z</time>
      </trkpt>
      <trkpt lat="46.38954" lon="8.03262">
        <ele>2150</ele>
        <time>2021-07-10T12:08:20.445Z</time>
      </trkpt>
      <trkpt lat="46.38954" lon="8.03262">
        <ele>2150</ele>
        <time>2021-07-10T12:08:21.445Z</time>
      </trkpt>
      <trkpt lat="46.38954" lon="8.03262">
        <ele>2150</ele>
        <time>2021-07-10T12:08:22.444Z</time>
      </trkpt>
      <trkpt lat="46.38954" lon="8.03262">
        <ele>2150</ele>
        <time>2021-07-10T12:08:23.444Z</time>
      </trkpt>
      <trkpt lat="46.38953" lon="8.03262">
        <ele>2149</ele>
        <time>2021-07-10T12:08:24.444Z</time>
      </trkpt>
      <trkpt lat="46.38952" lon="8.03258">
        <ele>2147</ele>
        <time>2021-07-10T12:08:25.445Z</time>
      </trkpt>
      <trkpt lat="46.38951" lon="8.03258">
        <ele>2147</ele>
        <time>2021-07-10T12:08:26.444Z</time>
      </trkpt>
      <trkpt lat="46.38951" lon="8.03258">
        <ele>2147</ele>
        <time>2021-07-10T12:08:27.445Z</time>
      </trkpt>
      <trkpt lat="46.3895" lon="8.03258">
        <ele>2147</ele>
        <time>2021-07-10T12:08:28.445Z</time>
      </trkpt>
      <trkpt lat="46.3895" lon="8.03258">
        <ele>2146</ele>
        <time>2021-07-10T12:08:29.444Z</time>
      </trkpt>
      <trkpt lat="46.3895" lon="8.03259">
        <ele>2148</ele>
        <time>2021-07-10T12:08:30.445Z</time>
      </trkpt>
      <trkpt lat="46.3895" lon="8.03258">
        <ele>2147</ele>
        <time>2021-07-10T12:08:31.444Z</time>
      </trkpt>
      <trkpt lat="46.3895" lon="8.03258">
        <ele>2147</ele>
        <time>2021-07-10T12:08:32.444Z</time>
      </trkpt>
      <trkpt lat="46.38949" lon="8.03256">
        <ele>2148</ele>
        <time>2021-07-10T12:08:33.445Z</time>
      </trkpt>
      <trkpt lat="46.38949" lon="8.03255">
        <ele>2148</ele>
        <time>2021-07-10T12:08:34.445Z</time>
      </trkpt>
      <trkpt lat="46.38948" lon="8.03254">
        <ele>2148</ele>
        <time>2021-07-10T12:08:35.445Z</time>
      </trkpt>
      <trkpt lat="46.38947" lon="8.03253">
        <ele>2148</ele>
        <time>2021-07-10T12:08:36.446Z</time>
      </trkpt>
      <trkpt lat="46.38946" lon="8.03251">
        <ele>2148</ele>
        <time>2021-07-10T12:08:37.446Z</time>
      </trkpt>
      <trkpt lat="46.38946" lon="8.03249">
        <ele>2148</ele>
        <time>2021-07-10T12:08:38.446Z</time>
      </trkpt>
      <trkpt lat="46.38945" lon="8.03248">
        <ele>2148</ele>
        <time>2021-07-10T12:08:39.445Z</time>
      </trkpt>
      <trkpt lat="46.38944" lon="8.03246">
        <ele>2149</ele>
        <time>2021-07-10T12:08:40.445Z</time>
      </trkpt>
      <trkpt lat="46.38944" lon="8.03245">
        <ele>2150</ele>
        <time>2021-07-10T12:08:41.445Z</time>
      </trkpt>
      <trkpt lat="46.38943" lon="8.03244">
        <ele>2150</ele>
        <time>2021-07-10T12:08:42.446Z</time>
      </trkpt>
      <trkpt lat="46.38943" lon="8.03243">
        <ele>2150</ele>
        <time>2021-07-10T12:08:43.446Z</time>
      </trkpt>
      <trkpt lat="46.38942" lon="8.03243">
        <ele>2150</ele>
        <time>2021-07-10T12:08:44.446Z</time>
      </trkpt>
      <trkpt lat="46.38942" lon="8.03243">
        <ele>2150</ele>
        <time>2021-07-10T12:08:45.446Z</time>
      </trkpt>
      <trkpt lat="46.38942" lon="8.03242">
        <ele>2150</ele>
        <time>2021-07-10T12:08:46.446Z</time>
      </trkpt>
      <trkpt lat="46.38941" lon="8.03241">
        <ele>2150</ele>
        <time>2021-07-10T12:08:47.445Z</time>
      </trkpt>
      <trkpt lat="46.38941" lon="8.0324">
        <ele>2150</ele>
        <time>2021-07-10T12:08:48.445Z</time>
      </trkpt>
      <trkpt lat="46.38941" lon="8.03239">
        <ele>2150</ele>
        <time>2021-07-10T12:08:49.446Z</time>
      </trkpt>
      <trkpt lat="46.3894" lon="8.03238">
        <ele>2150</ele>
        <time>2021-07-10T12:08:50.446Z</time>
      </trkpt>
      <trkpt lat="46.3894" lon="8.03237">
        <ele>2150</ele>
        <time>2021-07-10T12:08:51.446Z</time>
      </trkpt>
      <trkpt lat="46.3894" lon="8.03237">
        <ele>2150</ele>
        <time>2021-07-10T12:08:52.446Z</time>
      </trkpt>
      <trkpt lat="46.38939" lon="8.03235">
        <ele>2150</ele>
        <time>2021-07-10T12:08:53.445Z</time>
      </trkpt>
      <trkpt lat="46.38939" lon="8.03234">
        <ele>2150</ele>
        <time>2021-07-10T12:08:54.445Z</time>
      </trkpt>
      <trkpt lat="46.38938" lon="8.03233">
        <ele>2150</ele>
        <time>2021-07-10T12:08:55.446Z</time>
      </trkpt>
      <trkpt lat="46.38939" lon="8.03232">
        <ele>2149</ele>
        <time>2021-07-10T12:08:56.445Z</time>
      </trkpt>
      <trkpt lat="46.38938" lon="8.03231">
        <ele>2149</ele>
        <time>2021-07-10T12:08:57.445Z</time>
      </trkpt>
      <trkpt lat="46.38938" lon="8.03231">
        <ele>2148</ele>
        <time>2021-07-10T12:08:58.446Z</time>
      </trkpt>
      <trkpt lat="46.38938" lon="8.0323">
        <ele>2148</ele>
        <time>2021-07-10T12:08:59.446Z</time>
      </trkpt>
      <trkpt lat="46.38938" lon="8.03229">
        <ele>2147</ele>
        <time>2021-07-10T12:09:00.445Z</time>
      </trkpt>
      <trkpt lat="46.38937" lon="8.03228">
        <ele>2147</ele>
        <time>2021-07-10T12:09:01.446Z</time>
      </trkpt>
      <trkpt lat="46.38937" lon="8.03227">
        <ele>2147</ele>
        <time>2021-07-10T12:09:02.446Z</time>
      </trkpt>
      <trkpt lat="46.38937" lon="8.03226">
        <ele>2147</ele>
        <time>2021-07-10T12:09:03.445Z</time>
      </trkpt>
      <trkpt lat="46.38937" lon="8.03225">
        <ele>2147</ele>
        <time>2021-07-10T12:09:04.446Z</time>
      </trkpt>
      <trkpt lat="46.38936" lon="8.03223">
        <ele>2147</ele>
        <time>2021-07-10T12:09:05.446Z</time>
      </trkpt>
      <trkpt lat="46.38936" lon="8.03222">
        <ele>2148</ele>
        <time>2021-07-10T12:09:06.446Z</time>
      </trkpt>
      <trkpt lat="46.38935" lon="8.03221">
        <ele>2148</ele>
        <time>2021-07-10T12:09:07.446Z</time>
      </trkpt>
      <trkpt lat="46.38935" lon="8.0322">
        <ele>2148</ele>
        <time>2021-07-10T12:09:08.445Z</time>
      </trkpt>
      <trkpt lat="46.38935" lon="8.0322">
        <ele>2149</ele>
        <time>2021-07-10T12:09:09.445Z</time>
      </trkpt>
      <trkpt lat="46.38934" lon="8.03219">
        <ele>2149</ele>
        <time>2021-07-10T12:09:10.445Z</time>
      </trkpt>
      <trkpt lat="46.38934" lon="8.03218">
        <ele>2150</ele>
        <time>2021-07-10T12:09:11.446Z</time>
      </trkpt>
      <trkpt lat="46.38933" lon="8.03217">
        <ele>2149</ele>
        <time>2021-07-10T12:09:12.446Z</time>
      </trkpt>
      <trkpt lat="46.38933" lon="8.03216">
        <ele>2149</ele>
        <time>2021-07-10T12:09:13.446Z</time>
      </trkpt>
      <trkpt lat="46.38933" lon="8.03215">
        <ele>2149</ele>
        <time>2021-07-10T12:09:14.445Z</time>
      </trkpt>
      <trkpt lat="46.38933" lon="8.03214">
        <ele>2149</ele>
        <time>2021-07-10T12:09:15.446Z</time>
      </trkpt>
      <trkpt lat="46.38933" lon="8.03212">
        <ele>2149</ele>
        <time>2021-07-10T12:09:16.445Z</time>
      </trkpt>
      <trkpt lat="46.38932" lon="8.0321">
        <ele>2149</ele>
        <time>2021-07-10T12:09:17.446Z</time>
      </trkpt>
      <trkpt lat="46.38932" lon="8.03209">
        <ele>2149</ele>
        <time>2021-07-10T12:09:18.445Z</time>
      </trkpt>
      <trkpt lat="46.38931" lon="8.03207">
        <ele>2149</ele>
        <time>2021-07-10T12:09:19.446Z</time>
      </trkpt>
      <trkpt lat="46.38931" lon="8.03206">
        <ele>2149</ele>
        <time>2021-07-10T12:09:20.446Z</time>
      </trkpt>
      <trkpt lat="46.38931" lon="8.03205">
        <ele>2150</ele>
        <time>2021-07-10T12:09:21.446Z</time>
      </trkpt>
      <trkpt lat="46.3893" lon="8.03204">
        <ele>2150</ele>
        <time>2021-07-10T12:09:22.445Z</time>
      </trkpt>
      <trkpt lat="46.38929" lon="8.03203">
        <ele>2150</ele>
        <time>2021-07-10T12:09:23.446Z</time>
      </trkpt>
      <trkpt lat="46.38929" lon="8.03202">
        <ele>2151</ele>
        <time>2021-07-10T12:09:24.445Z</time>
      </trkpt>
      <trkpt lat="46.38928" lon="8.032">
        <ele>2152</ele>
        <time>2021-07-10T12:09:25.446Z</time>
      </trkpt>
      <trkpt lat="46.38928" lon="8.03199">
        <ele>2152</ele>
        <time>2021-07-10T12:09:26.446Z</time>
      </trkpt>
      <trkpt lat="46.38927" lon="8.03197">
        <ele>2153</ele>
        <time>2021-07-10T12:09:27.446Z</time>
      </trkpt>
      <trkpt lat="46.38927" lon="8.03196">
        <ele>2152</ele>
        <time>2021-07-10T12:09:28.446Z</time>
      </trkpt>
      <trkpt lat="46.38927" lon="8.03195">
        <ele>2152</ele>
        <time>2021-07-10T12:09:29.446Z</time>
      </trkpt>
      <trkpt lat="46.38927" lon="8.03194">
        <ele>2152</ele>
        <time>2021-07-10T12:09:30.446Z</time>
      </trkpt>
      <trkpt lat="46.38926" lon="8.03193">
        <ele>2152</ele>
        <time>2021-07-10T12:09:31.445Z</time>
      </trkpt>
      <trkpt lat="46.38926" lon="8.03191">
        <ele>2152</ele>
        <time>2021-07-10T12:09:32.445Z</time>
      </trkpt>
      <trkpt lat="46.38926" lon="8.0319">
        <ele>2151</ele>
        <time>2021-07-10T12:09:33.445Z</time>
      </trkpt>
      <trkpt lat="46.38926" lon="8.03189">
        <ele>2151</ele>
        <time>2021-07-10T12:09:34.446Z</time>
      </trkpt>
      <trkpt lat="46.38925" lon="8.03187">
        <ele>2151</ele>
        <time>2021-07-10T12:09:35.445Z</time>
      </trkpt>
      <trkpt lat="46.38924" lon="8.03186">
        <ele>2151</ele>
        <time>2021-07-10T12:09:36.446Z</time>
      </trkpt>
      <trkpt lat="46.38924" lon="8.03184">
        <ele>2151</ele>
        <time>2021-07-10T12:09:37.446Z</time>
      </trkpt>
      <trkpt lat="46.38924" lon="8.03183">
        <ele>2150</ele>
        <time>2021-07-10T12:09:38.446Z</time>
      </trkpt>
      <trkpt lat="46.38923" lon="8.03182">
        <ele>2150</ele>
        <time>2021-07-10T12:09:39.446Z</time>
      </trkpt>
      <trkpt lat="46.38922" lon="8.03181">
        <ele>2151</ele>
        <time>2021-07-10T12:09:40.446Z</time>
      </trkpt>
      <trkpt lat="46.38922" lon="8.0318">
        <ele>2151</ele>
        <time>2021-07-10T12:09:41.445Z</time>
      </trkpt>
      <trkpt lat="46.38922" lon="8.03178">
        <ele>2151</ele>
        <time>2021-07-10T12:09:42.446Z</time>
      </trkpt>
      <trkpt lat="46.38921" lon="8.03177">
        <ele>2151</ele>
        <time>2021-07-10T12:09:43.446Z</time>
      </trkpt>
      <trkpt lat="46.38921" lon="8.03176">
        <ele>2152</ele>
        <time>2021-07-10T12:09:44.446Z</time>
      </trkpt>
      <trkpt lat="46.38921" lon="8.03175">
        <ele>2152</ele>
        <time>2021-07-10T12:09:45.446Z</time>
      </trkpt>
      <trkpt lat="46.3892" lon="8.03174">
        <ele>2152</ele>
        <time>2021-07-10T12:09:46.445Z</time>
      </trkpt>
      <trkpt lat="46.3892" lon="8.03173">
        <ele>2153</ele>
        <time>2021-07-10T12:09:47.445Z</time>
      </trkpt>
      <trkpt lat="46.38919" lon="8.03171">
        <ele>2153</ele>
        <time>2021-07-10T12:09:48.446Z</time>
      </trkpt>
      <trkpt lat="46.38919" lon="8.03171">
        <ele>2154</ele>
        <time>2021-07-10T12:09:49.446Z</time>
      </trkpt>
      <trkpt lat="46.38919" lon="8.0317">
        <ele>2155</ele>
        <time>2021-07-10T12:09:50.446Z</time>
      </trkpt>
      <trkpt lat="46.38918" lon="8.03169">
        <ele>2155</ele>
        <time>2021-07-10T12:09:51.446Z</time>
      </trkpt>
      <trkpt lat="46.38918" lon="8.03167">
        <ele>2156</ele>
        <time>2021-07-10T12:09:52.446Z</time>
      </trkpt>
      <trkpt lat="46.38917" lon="8.03166">
        <ele>2156</ele>
        <time>2021-07-10T12:09:53.445Z</time>
      </trkpt>
      <trkpt lat="46.38917" lon="8.03164">
        <ele>2155</ele>
        <time>2021-07-10T12:09:54.445Z</time>
      </trkpt>
      <trkpt lat="46.38917" lon="8.03162">
        <ele>2154</ele>
        <time>2021-07-10T12:09:55.446Z</time>
      </trkpt>
      <trkpt lat="46.38916" lon="8.0316">
        <ele>2154</ele>
        <time>2021-07-10T12:09:56.446Z</time>
      </trkpt>
      <trkpt lat="46.38916" lon="8.03159">
        <ele>2154</ele>
        <time>2021-07-10T12:09:57.445Z</time>
      </trkpt>
      <trkpt lat="46.38916" lon="8.03157">
        <ele>2154</ele>
        <time>2021-07-10T12:09:58.445Z</time>
      </trkpt>
      <trkpt lat="46.38916" lon="8.03156">
        <ele>2154</ele>
        <time>2021-07-10T12:09:59.446Z</time>
      </trkpt>
      <trkpt lat="46.38915" lon="8.03155">
        <ele>2154</ele>
        <time>2021-07-10T12:10:00.446Z</time>
      </trkpt>
      <trkpt lat="46.38915" lon="8.03154">
        <ele>2154</ele>
        <time>2021-07-10T12:10:01.445Z</time>
      </trkpt>
      <trkpt lat="46.38914" lon="8.03153">
        <ele>2154</ele>
        <time>2021-07-10T12:10:02.446Z</time>
      </trkpt>
      <trkpt lat="46.38914" lon="8.03151">
        <ele>2153</ele>
        <time>2021-07-10T12:10:03.446Z</time>
      </trkpt>
      <trkpt lat="46.38914" lon="8.0315">
        <ele>2153</ele>
        <time>2021-07-10T12:10:04.446Z</time>
      </trkpt>
      <trkpt lat="46.38913" lon="8.03148">
        <ele>2153</ele>
        <time>2021-07-10T12:10:05.446Z</time>
      </trkpt>
      <trkpt lat="46.38912" lon="8.03147">
        <ele>2153</ele>
        <time>2021-07-10T12:10:06.445Z</time>
      </trkpt>
      <trkpt lat="46.38912" lon="8.03146">
        <ele>2153</ele>
        <time>2021-07-10T12:10:07.446Z</time>
      </trkpt>
      <trkpt lat="46.38911" lon="8.03145">
        <ele>2154</ele>
        <time>2021-07-10T12:10:08.446Z</time>
      </trkpt>
      <trkpt lat="46.38911" lon="8.03143">
        <ele>2154</ele>
        <time>2021-07-10T12:10:09.446Z</time>
      </trkpt>
      <trkpt lat="46.3891" lon="8.03142">
        <ele>2154</ele>
        <time>2021-07-10T12:10:10.445Z</time>
      </trkpt>
      <trkpt lat="46.3891" lon="8.0314">
        <ele>2154</ele>
        <time>2021-07-10T12:10:11.445Z</time>
      </trkpt>
      <trkpt lat="46.3891" lon="8.03139">
        <ele>2154</ele>
        <time>2021-07-10T12:10:12.446Z</time>
      </trkpt>
      <trkpt lat="46.3891" lon="8.03137">
        <ele>2154</ele>
        <time>2021-07-10T12:10:13.446Z</time>
      </trkpt>
      <trkpt lat="46.3891" lon="8.03136">
        <ele>2154</ele>
        <time>2021-07-10T12:10:14.446Z</time>
      </trkpt>
      <trkpt lat="46.3891" lon="8.03135">
        <ele>2154</ele>
        <time>2021-07-10T12:10:15.446Z</time>
      </trkpt>
      <trkpt lat="46.3891" lon="8.03133">
        <ele>2154</ele>
        <time>2021-07-10T12:10:16.445Z</time>
      </trkpt>
      <trkpt lat="46.3891" lon="8.03132">
        <ele>2154</ele>
        <time>2021-07-10T12:10:17.446Z</time>
      </trkpt>
      <trkpt lat="46.3891" lon="8.0313">
        <ele>2154</ele>
        <time>2021-07-10T12:10:18.445Z</time>
      </trkpt>
      <trkpt lat="46.3891" lon="8.03128">
        <ele>2154</ele>
        <time>2021-07-10T12:10:19.445Z</time>
      </trkpt>
      <trkpt lat="46.3891" lon="8.03127">
        <ele>2153</ele>
        <time>2021-07-10T12:10:20.446Z</time>
      </trkpt>
      <trkpt lat="46.3891" lon="8.03125">
        <ele>2153</ele>
        <time>2021-07-10T12:10:21.446Z</time>
      </trkpt>
      <trkpt lat="46.3891" lon="8.03124">
        <ele>2152</ele>
        <time>2021-07-10T12:10:22.446Z</time>
      </trkpt>
      <trkpt lat="46.38909" lon="8.03122">
        <ele>2153</ele>
        <time>2021-07-10T12:10:23.445Z</time>
      </trkpt>
      <trkpt lat="46.38909" lon="8.03121">
        <ele>2153</ele>
        <time>2021-07-10T12:10:24.445Z</time>
      </trkpt>
      <trkpt lat="46.38909" lon="8.0312">
        <ele>2153</ele>
        <time>2021-07-10T12:10:25.446Z</time>
      </trkpt>
      <trkpt lat="46.38909" lon="8.03119">
        <ele>2153</ele>
        <time>2021-07-10T12:10:26.446Z</time>
      </trkpt>
      <trkpt lat="46.38909" lon="8.03119">
        <ele>2152</ele>
        <time>2021-07-10T12:10:27.445Z</time>
      </trkpt>
      <trkpt lat="46.38909" lon="8.03118">
        <ele>2152</ele>
        <time>2021-07-10T12:10:28.445Z</time>
      </trkpt>
      <trkpt lat="46.38909" lon="8.03117">
        <ele>2154</ele>
        <time>2021-07-10T12:10:29.446Z</time>
      </trkpt>
      <trkpt lat="46.38909" lon="8.03116">
        <ele>2154</ele>
        <time>2021-07-10T12:10:30.446Z</time>
      </trkpt>
      <trkpt lat="46.3891" lon="8.03114">
        <ele>2154</ele>
        <time>2021-07-10T12:10:31.446Z</time>
      </trkpt>
      <trkpt lat="46.38909" lon="8.03112">
        <ele>2154</ele>
        <time>2021-07-10T12:10:32.445Z</time>
      </trkpt>
      <trkpt lat="46.3891" lon="8.0311">
        <ele>2154</ele>
        <time>2021-07-10T12:10:33.446Z</time>
      </trkpt>
      <trkpt lat="46.38909" lon="8.03109">
        <ele>2154</ele>
        <time>2021-07-10T12:10:34.446Z</time>
      </trkpt>
      <trkpt lat="46.38909" lon="8.03107">
        <ele>2154</ele>
        <time>2021-07-10T12:10:35.445Z</time>
      </trkpt>
      <trkpt lat="46.38909" lon="8.03106">
        <ele>2154</ele>
        <time>2021-07-10T12:10:36.446Z</time>
      </trkpt>
      <trkpt lat="46.38908" lon="8.03105">
        <ele>2154</ele>
        <time>2021-07-10T12:10:37.445Z</time>
      </trkpt>
      <trkpt lat="46.38908" lon="8.03103">
        <ele>2153</ele>
        <time>2021-07-10T12:10:38.446Z</time>
      </trkpt>
      <trkpt lat="46.38908" lon="8.03102">
        <ele>2153</ele>
        <time>2021-07-10T12:10:39.445Z</time>
      </trkpt>
      <trkpt lat="46.38908" lon="8.031">
        <ele>2153</ele>
        <time>2021-07-10T12:10:40.446Z</time>
      </trkpt>
      <trkpt lat="46.38907" lon="8.03099">
        <ele>2152</ele>
        <time>2021-07-10T12:10:41.446Z</time>
      </trkpt>
      <trkpt lat="46.38906" lon="8.03097">
        <ele>2152</ele>
        <time>2021-07-10T12:10:42.446Z</time>
      </trkpt>
      <trkpt lat="46.38906" lon="8.03095">
        <ele>2151</ele>
        <time>2021-07-10T12:10:43.446Z</time>
      </trkpt>
      <trkpt lat="46.38906" lon="8.03094">
        <ele>2151</ele>
        <time>2021-07-10T12:10:44.446Z</time>
      </trkpt>
      <trkpt lat="46.38905" lon="8.03093">
        <ele>2151</ele>
        <time>2021-07-10T12:10:45.446Z</time>
      </trkpt>
      <trkpt lat="46.38905" lon="8.03092">
        <ele>2151</ele>
        <time>2021-07-10T12:10:46.446Z</time>
      </trkpt>
      <trkpt lat="46.38905" lon="8.03091">
        <ele>2151</ele>
        <time>2021-07-10T12:10:47.446Z</time>
      </trkpt>
      <trkpt lat="46.38905" lon="8.0309">
        <ele>2151</ele>
        <time>2021-07-10T12:10:48.445Z</time>
      </trkpt>
      <trkpt lat="46.38904" lon="8.03088">
        <ele>2151</ele>
        <time>2021-07-10T12:10:49.445Z</time>
      </trkpt>
      <trkpt lat="46.38904" lon="8.03087">
        <ele>2151</ele>
        <time>2021-07-10T12:10:50.446Z</time>
      </trkpt>
      <trkpt lat="46.38904" lon="8.03086">
        <ele>2151</ele>
        <time>2021-07-10T12:10:51.445Z</time>
      </trkpt>
      <trkpt lat="46.38904" lon="8.03085">
        <ele>2151</ele>
        <time>2021-07-10T12:10:52.446Z</time>
      </trkpt>
      <trkpt lat="46.38903" lon="8.03083">
        <ele>2151</ele>
        <time>2021-07-10T12:10:53.446Z</time>
      </trkpt>
      <trkpt lat="46.38903" lon="8.03082">
        <ele>2151</ele>
        <time>2021-07-10T12:10:54.446Z</time>
      </trkpt>
      <trkpt lat="46.38902" lon="8.03081">
        <ele>2151</ele>
        <time>2021-07-10T12:10:55.445Z</time>
      </trkpt>
      <trkpt lat="46.38902" lon="8.03081">
        <ele>2152</ele>
        <time>2021-07-10T12:10:56.446Z</time>
      </trkpt>
      <trkpt lat="46.38902" lon="8.03079">
        <ele>2152</ele>
        <time>2021-07-10T12:10:57.445Z</time>
      </trkpt>
      <trkpt lat="46.38901" lon="8.03078">
        <ele>2152</ele>
        <time>2021-07-10T12:10:58.446Z</time>
      </trkpt>
      <trkpt lat="46.38901" lon="8.03078">
        <ele>2152</ele>
        <time>2021-07-10T12:10:59.446Z</time>
      </trkpt>
      <trkpt lat="46.389" lon="8.03077">
        <ele>2152</ele>
        <time>2021-07-10T12:11:00.446Z</time>
      </trkpt>
      <trkpt lat="46.389" lon="8.03077">
        <ele>2151</ele>
        <time>2021-07-10T12:11:01.445Z</time>
      </trkpt>
      <trkpt lat="46.389" lon="8.03076">
        <ele>2151</ele>
        <time>2021-07-10T12:11:02.446Z</time>
      </trkpt>
      <trkpt lat="46.38901" lon="8.03074">
        <ele>2152</ele>
        <time>2021-07-10T12:11:03.446Z</time>
      </trkpt>
      <trkpt lat="46.38901" lon="8.03074">
        <ele>2152</ele>
        <time>2021-07-10T12:11:04.447Z</time>
      </trkpt>
      <trkpt lat="46.38901" lon="8.03074">
        <ele>2152</ele>
        <time>2021-07-10T12:11:05.446Z</time>
      </trkpt>
      <trkpt lat="46.38901" lon="8.03074">
        <ele>2153</ele>
        <time>2021-07-10T12:11:06.448Z</time>
      </trkpt>
      <trkpt lat="46.38901" lon="8.03075">
        <ele>2151</ele>
        <time>2021-07-10T12:11:07.450Z</time>
      </trkpt>
      <trkpt lat="46.38901" lon="8.03076">
        <ele>2151</ele>
        <time>2021-07-10T12:11:08.449Z</time>
      </trkpt>
      <trkpt lat="46.38902" lon="8.03076">
        <ele>2151</ele>
        <time>2021-07-10T12:11:09.449Z</time>
      </trkpt>
      <trkpt lat="46.38901" lon="8.03076">
        <ele>2151</ele>
        <time>2021-07-10T12:11:10.449Z</time>
      </trkpt>
      <trkpt lat="46.389" lon="8.03077">
        <ele>2155</ele>
        <time>2021-07-10T12:11:11.451Z</time>
      </trkpt>
      <trkpt lat="46.389" lon="8.03077">
        <ele>2155</ele>
        <time>2021-07-10T12:11:12.451Z</time>
      </trkpt>
      <trkpt lat="46.389" lon="8.03077">
        <ele>2155</ele>
        <time>2021-07-10T12:11:13.450Z</time>
      </trkpt>
      <trkpt lat="46.389" lon="8.03077">
        <ele>2155</ele>
        <time>2021-07-10T12:11:14.451Z</time>
      </trkpt>
      <trkpt lat="46.38901" lon="8.03075">
        <ele>2154</ele>
        <time>2021-07-10T12:11:15.451Z</time>
      </trkpt>
      <trkpt lat="46.389" lon="8.03074">
        <ele>2154</ele>
        <time>2021-07-10T12:11:16.451Z</time>
      </trkpt>
      <trkpt lat="46.38899" lon="8.03073">
        <ele>2154</ele>
        <time>2021-07-10T12:11:17.450Z</time>
      </trkpt>
      <trkpt lat="46.38899" lon="8.03072">
        <ele>2154</ele>
        <time>2021-07-10T12:11:18.450Z</time>
      </trkpt>
      <trkpt lat="46.38899" lon="8.0307">
        <ele>2154</ele>
        <time>2021-07-10T12:11:19.451Z</time>
      </trkpt>
      <trkpt lat="46.38899" lon="8.03069">
        <ele>2155</ele>
        <time>2021-07-10T12:11:20.450Z</time>
      </trkpt>
      <trkpt lat="46.38898" lon="8.03068">
        <ele>2155</ele>
        <time>2021-07-10T12:11:21.451Z</time>
      </trkpt>
      <trkpt lat="46.38898" lon="8.03068">
        <ele>2155</ele>
        <time>2021-07-10T12:11:22.451Z</time>
      </trkpt>
      <trkpt lat="46.38898" lon="8.03068">
        <ele>2155</ele>
        <time>2021-07-10T12:11:23.450Z</time>
      </trkpt>
      <trkpt lat="46.38898" lon="8.03068">
        <ele>2155</ele>
        <time>2021-07-10T12:11:24.451Z</time>
      </trkpt>
      <trkpt lat="46.38897" lon="8.03067">
        <ele>2156</ele>
        <time>2021-07-10T12:11:25.452Z</time>
      </trkpt>
      <trkpt lat="46.38897" lon="8.03065">
        <ele>2156</ele>
        <time>2021-07-10T12:11:26.452Z</time>
      </trkpt>
      <trkpt lat="46.38897" lon="8.03064">
        <ele>2156</ele>
        <time>2021-07-10T12:11:27.451Z</time>
      </trkpt>
      <trkpt lat="46.38896" lon="8.03062">
        <ele>2156</ele>
        <time>2021-07-10T12:11:28.451Z</time>
      </trkpt>
      <trkpt lat="46.38896" lon="8.03061">
        <ele>2156</ele>
        <time>2021-07-10T12:11:29.452Z</time>
      </trkpt>
      <trkpt lat="46.38896" lon="8.03059">
        <ele>2156</ele>
        <time>2021-07-10T12:11:30.452Z</time>
      </trkpt>
      <trkpt lat="46.38896" lon="8.03057">
        <ele>2156</ele>
        <time>2021-07-10T12:11:31.451Z</time>
      </trkpt>
      <trkpt lat="46.38896" lon="8.03055">
        <ele>2156</ele>
        <time>2021-07-10T12:11:32.452Z</time>
      </trkpt>
      <trkpt lat="46.38896" lon="8.03053">
        <ele>2155</ele>
        <time>2021-07-10T12:11:33.452Z</time>
      </trkpt>
      <trkpt lat="46.38896" lon="8.03052">
        <ele>2155</ele>
        <time>2021-07-10T12:11:34.452Z</time>
      </trkpt>
      <trkpt lat="46.38896" lon="8.03051">
        <ele>2155</ele>
        <time>2021-07-10T12:11:35.452Z</time>
      </trkpt>
      <trkpt lat="46.38895" lon="8.0305">
        <ele>2154</ele>
        <time>2021-07-10T12:11:36.451Z</time>
      </trkpt>
      <trkpt lat="46.38895" lon="8.03049">
        <ele>2154</ele>
        <time>2021-07-10T12:11:37.451Z</time>
      </trkpt>
      <trkpt lat="46.38895" lon="8.03047">
        <ele>2154</ele>
        <time>2021-07-10T12:11:38.452Z</time>
      </trkpt>
      <trkpt lat="46.38895" lon="8.03046">
        <ele>2154</ele>
        <time>2021-07-10T12:11:39.452Z</time>
      </trkpt>
      <trkpt lat="46.38894" lon="8.03044">
        <ele>2154</ele>
        <time>2021-07-10T12:11:40.452Z</time>
      </trkpt>
      <trkpt lat="46.38894" lon="8.03043">
        <ele>2153</ele>
        <time>2021-07-10T12:11:41.452Z</time>
      </trkpt>
      <trkpt lat="46.38894" lon="8.03042">
        <ele>2153</ele>
        <time>2021-07-10T12:11:42.452Z</time>
      </trkpt>
      <trkpt lat="46.38893" lon="8.0304">
        <ele>2153</ele>
        <time>2021-07-10T12:11:43.452Z</time>
      </trkpt>
      <trkpt lat="46.38893" lon="8.03039">
        <ele>2152</ele>
        <time>2021-07-10T12:11:44.451Z</time>
      </trkpt>
      <trkpt lat="46.38893" lon="8.03038">
        <ele>2152</ele>
        <time>2021-07-10T12:11:45.451Z</time>
      </trkpt>
      <trkpt lat="46.38893" lon="8.03037">
        <ele>2152</ele>
        <time>2021-07-10T12:11:46.452Z</time>
      </trkpt>
      <trkpt lat="46.38893" lon="8.03036">
        <ele>2151</ele>
        <time>2021-07-10T12:11:47.452Z</time>
      </trkpt>
      <trkpt lat="46.38892" lon="8.03036">
        <ele>2151</ele>
        <time>2021-07-10T12:11:48.452Z</time>
      </trkpt>
      <trkpt lat="46.38892" lon="8.03035">
        <ele>2151</ele>
        <time>2021-07-10T12:11:49.451Z</time>
      </trkpt>
      <trkpt lat="46.38891" lon="8.03035">
        <ele>2151</ele>
        <time>2021-07-10T12:11:50.452Z</time>
      </trkpt>
      <trkpt lat="46.38891" lon="8.03034">
        <ele>2151</ele>
        <time>2021-07-10T12:11:51.452Z</time>
      </trkpt>
      <trkpt lat="46.38891" lon="8.03033">
        <ele>2151</ele>
        <time>2021-07-10T12:11:52.452Z</time>
      </trkpt>
      <trkpt lat="46.38891" lon="8.03032">
        <ele>2151</ele>
        <time>2021-07-10T12:11:53.452Z</time>
      </trkpt>
      <trkpt lat="46.38891" lon="8.0303">
        <ele>2150</ele>
        <time>2021-07-10T12:11:54.452Z</time>
      </trkpt>
      <trkpt lat="46.38891" lon="8.03028">
        <ele>2150</ele>
        <time>2021-07-10T12:11:55.452Z</time>
      </trkpt>
      <trkpt lat="46.38891" lon="8.03027">
        <ele>2150</ele>
        <time>2021-07-10T12:11:56.452Z</time>
      </trkpt>
      <trkpt lat="46.38891" lon="8.03025">
        <ele>2150</ele>
        <time>2021-07-10T12:11:57.451Z</time>
      </trkpt>
      <trkpt lat="46.3889" lon="8.03024">
        <ele>2150</ele>
        <time>2021-07-10T12:11:58.451Z</time>
      </trkpt>
      <trkpt lat="46.3889" lon="8.03023">
        <ele>2150</ele>
        <time>2021-07-10T12:11:59.451Z</time>
      </trkpt>
      <trkpt lat="46.38889" lon="8.03022">
        <ele>2150</ele>
        <time>2021-07-10T12:12:00.452Z</time>
      </trkpt>
      <trkpt lat="46.38889" lon="8.03021">
        <ele>2150</ele>
        <time>2021-07-10T12:12:01.451Z</time>
      </trkpt>
      <trkpt lat="46.38888" lon="8.03019">
        <ele>2150</ele>
        <time>2021-07-10T12:12:02.451Z</time>
      </trkpt>
      <trkpt lat="46.38888" lon="8.03018">
        <ele>2151</ele>
        <time>2021-07-10T12:12:03.451Z</time>
      </trkpt>
      <trkpt lat="46.38887" lon="8.03017">
        <ele>2151</ele>
        <time>2021-07-10T12:12:04.451Z</time>
      </trkpt>
      <trkpt lat="46.38887" lon="8.03016">
        <ele>2151</ele>
        <time>2021-07-10T12:12:05.452Z</time>
      </trkpt>
      <trkpt lat="46.38886" lon="8.03015">
        <ele>2151</ele>
        <time>2021-07-10T12:12:06.452Z</time>
      </trkpt>
      <trkpt lat="46.38886" lon="8.03014">
        <ele>2150</ele>
        <time>2021-07-10T12:12:07.452Z</time>
      </trkpt>
      <trkpt lat="46.38886" lon="8.03012">
        <ele>2150</ele>
        <time>2021-07-10T12:12:08.452Z</time>
      </trkpt>
      <trkpt lat="46.38886" lon="8.03011">
        <ele>2149</ele>
        <time>2021-07-10T12:12:09.452Z</time>
      </trkpt>
      <trkpt lat="46.38886" lon="8.03009">
        <ele>2149</ele>
        <time>2021-07-10T12:12:10.451Z</time>
      </trkpt>
      <trkpt lat="46.38887" lon="8.03008">
        <ele>2149</ele>
        <time>2021-07-10T12:12:11.451Z</time>
      </trkpt>
      <trkpt lat="46.38887" lon="8.03006">
        <ele>2149</ele>
        <time>2021-07-10T12:12:12.452Z</time>
      </trkpt>
      <trkpt lat="46.38887" lon="8.03004">
        <ele>2148</ele>
        <time>2021-07-10T12:12:13.451Z</time>
      </trkpt>
      <trkpt lat="46.38887" lon="8.03003">
        <ele>2148</ele>
        <time>2021-07-10T12:12:14.452Z</time>
      </trkpt>
      <trkpt lat="46.38887" lon="8.03002">
        <ele>2148</ele>
        <time>2021-07-10T12:12:15.451Z</time>
      </trkpt>
      <trkpt lat="46.38886" lon="8.03">
        <ele>2148</ele>
        <time>2021-07-10T12:12:16.452Z</time>
      </trkpt>
      <trkpt lat="46.38886" lon="8.02998">
        <ele>2148</ele>
        <time>2021-07-10T12:12:17.451Z</time>
      </trkpt>
      <trkpt lat="46.38886" lon="8.02996">
        <ele>2148</ele>
        <time>2021-07-10T12:12:18.452Z</time>
      </trkpt>
      <trkpt lat="46.38886" lon="8.02994">
        <ele>2148</ele>
        <time>2021-07-10T12:12:19.451Z</time>
      </trkpt>
      <trkpt lat="46.38885" lon="8.02993">
        <ele>2148</ele>
        <time>2021-07-10T12:12:20.452Z</time>
      </trkpt>
      <trkpt lat="46.38884" lon="8.02992">
        <ele>2149</ele>
        <time>2021-07-10T12:12:21.452Z</time>
      </trkpt>
      <trkpt lat="46.38884" lon="8.02991">
        <ele>2149</ele>
        <time>2021-07-10T12:12:22.452Z</time>
      </trkpt>
      <trkpt lat="46.38883" lon="8.02991">
        <ele>2149</ele>
        <time>2021-07-10T12:12:23.452Z</time>
      </trkpt>
      <trkpt lat="46.38883" lon="8.0299">
        <ele>2149</ele>
        <time>2021-07-10T12:12:24.452Z</time>
      </trkpt>
      <trkpt lat="46.38883" lon="8.02989">
        <ele>2149</ele>
        <time>2021-07-10T12:12:25.451Z</time>
      </trkpt>
      <trkpt lat="46.38882" lon="8.02988">
        <ele>2148</ele>
        <time>2021-07-10T12:12:26.452Z</time>
      </trkpt>
      <trkpt lat="46.38882" lon="8.02987">
        <ele>2147</ele>
        <time>2021-07-10T12:12:27.452Z</time>
      </trkpt>
      <trkpt lat="46.38881" lon="8.02987">
        <ele>2147</ele>
        <time>2021-07-10T12:12:28.452Z</time>
      </trkpt>
      <trkpt lat="46.38881" lon="8.02986">
        <ele>2147</ele>
        <time>2021-07-10T12:12:29.452Z</time>
      </trkpt>
      <trkpt lat="46.38881" lon="8.02985">
        <ele>2147</ele>
        <time>2021-07-10T12:12:30.452Z</time>
      </trkpt>
      <trkpt lat="46.38881" lon="8.02984">
        <ele>2146</ele>
        <time>2021-07-10T12:12:31.452Z</time>
      </trkpt>
      <trkpt lat="46.38881" lon="8.02983">
        <ele>2146</ele>
        <time>2021-07-10T12:12:32.452Z</time>
      </trkpt>
      <trkpt lat="46.38881" lon="8.02982">
        <ele>2147</ele>
        <time>2021-07-10T12:12:33.451Z</time>
      </trkpt>
      <trkpt lat="46.3888" lon="8.02981">
        <ele>2147</ele>
        <time>2021-07-10T12:12:34.452Z</time>
      </trkpt>
      <trkpt lat="46.3888" lon="8.0298">
        <ele>2147</ele>
        <time>2021-07-10T12:12:35.452Z</time>
      </trkpt>
      <trkpt lat="46.38879" lon="8.02979">
        <ele>2147</ele>
        <time>2021-07-10T12:12:36.451Z</time>
      </trkpt>
      <trkpt lat="46.38879" lon="8.02977">
        <ele>2147</ele>
        <time>2021-07-10T12:12:37.452Z</time>
      </trkpt>
      <trkpt lat="46.38879" lon="8.02976">
        <ele>2147</ele>
        <time>2021-07-10T12:12:38.452Z</time>
      </trkpt>
      <trkpt lat="46.38879" lon="8.02974">
        <ele>2147</ele>
        <time>2021-07-10T12:12:39.452Z</time>
      </trkpt>
      <trkpt lat="46.38878" lon="8.02972">
        <ele>2147</ele>
        <time>2021-07-10T12:12:40.451Z</time>
      </trkpt>
      <trkpt lat="46.38878" lon="8.02971">
        <ele>2147</ele>
        <time>2021-07-10T12:12:41.452Z</time>
      </trkpt>
      <trkpt lat="46.38877" lon="8.0297">
        <ele>2147</ele>
        <time>2021-07-10T12:12:42.452Z</time>
      </trkpt>
      <trkpt lat="46.38876" lon="8.02969">
        <ele>2147</ele>
        <time>2021-07-10T12:12:43.452Z</time>
      </trkpt>
      <trkpt lat="46.38876" lon="8.02968">
        <ele>2148</ele>
        <time>2021-07-10T12:12:44.452Z</time>
      </trkpt>
      <trkpt lat="46.38875" lon="8.02968">
        <ele>2148</ele>
        <time>2021-07-10T12:12:45.452Z</time>
      </trkpt>
      <trkpt lat="46.38874" lon="8.02967">
        <ele>2149</ele>
        <time>2021-07-10T12:12:46.452Z</time>
      </trkpt>
      <trkpt lat="46.38874" lon="8.02966">
        <ele>2148</ele>
        <time>2021-07-10T12:12:47.452Z</time>
      </trkpt>
      <trkpt lat="46.38874" lon="8.02965">
        <ele>2147</ele>
        <time>2021-07-10T12:12:48.452Z</time>
      </trkpt>
      <trkpt lat="46.38874" lon="8.02964">
        <ele>2147</ele>
        <time>2021-07-10T12:12:49.452Z</time>
      </trkpt>
      <trkpt lat="46.38874" lon="8.02963">
        <ele>2146</ele>
        <time>2021-07-10T12:12:50.451Z</time>
      </trkpt>
      <trkpt lat="46.38874" lon="8.02963">
        <ele>2146</ele>
        <time>2021-07-10T12:12:51.451Z</time>
      </trkpt>
      <trkpt lat="46.38873" lon="8.02961">
        <ele>2147</ele>
        <time>2021-07-10T12:12:52.452Z</time>
      </trkpt>
      <trkpt lat="46.38873" lon="8.0296">
        <ele>2147</ele>
        <time>2021-07-10T12:12:53.452Z</time>
      </trkpt>
      <trkpt lat="46.38872" lon="8.02959">
        <ele>2147</ele>
        <time>2021-07-10T12:12:54.452Z</time>
      </trkpt>
      <trkpt lat="46.38872" lon="8.02959">
        <ele>2146</ele>
        <time>2021-07-10T12:12:55.451Z</time>
      </trkpt>
      <trkpt lat="46.38871" lon="8.02958">
        <ele>2146</ele>
        <time>2021-07-10T12:12:56.452Z</time>
      </trkpt>
      <trkpt lat="46.38871" lon="8.02957">
        <ele>2146</ele>
        <time>2021-07-10T12:12:57.452Z</time>
      </trkpt>
      <trkpt lat="46.38871" lon="8.02956">
        <ele>2147</ele>
        <time>2021-07-10T12:12:58.452Z</time>
      </trkpt>
      <trkpt lat="46.3887" lon="8.02955">
        <ele>2147</ele>
        <time>2021-07-10T12:12:59.452Z</time>
      </trkpt>
      <trkpt lat="46.38871" lon="8.02953">
        <ele>2146</ele>
        <time>2021-07-10T12:13:00.451Z</time>
      </trkpt>
      <trkpt lat="46.38871" lon="8.02952">
        <ele>2145</ele>
        <time>2021-07-10T12:13:01.452Z</time>
      </trkpt>
      <trkpt lat="46.38871" lon="8.02951">
        <ele>2144</ele>
        <time>2021-07-10T12:13:02.452Z</time>
      </trkpt>
      <trkpt lat="46.3887" lon="8.0295">
        <ele>2143</ele>
        <time>2021-07-10T12:13:03.451Z</time>
      </trkpt>
      <trkpt lat="46.3887" lon="8.02948">
        <ele>2143</ele>
        <time>2021-07-10T12:13:04.452Z</time>
      </trkpt>
      <trkpt lat="46.38869" lon="8.02947">
        <ele>2143</ele>
        <time>2021-07-10T12:13:05.452Z</time>
      </trkpt>
      <trkpt lat="46.38869" lon="8.02946">
        <ele>2142</ele>
        <time>2021-07-10T12:13:06.452Z</time>
      </trkpt>
      <trkpt lat="46.38869" lon="8.02944">
        <ele>2142</ele>
        <time>2021-07-10T12:13:07.452Z</time>
      </trkpt>
      <trkpt lat="46.38868" lon="8.02943">
        <ele>2142</ele>
        <time>2021-07-10T12:13:08.452Z</time>
      </trkpt>
      <trkpt lat="46.38868" lon="8.02941">
        <ele>2142</ele>
        <time>2021-07-10T12:13:09.452Z</time>
      </trkpt>
      <trkpt lat="46.38868" lon="8.0294">
        <ele>2142</ele>
        <time>2021-07-10T12:13:10.452Z</time>
      </trkpt>
      <trkpt lat="46.38867" lon="8.02939">
        <ele>2142</ele>
        <time>2021-07-10T12:13:11.451Z</time>
      </trkpt>
      <trkpt lat="46.38867" lon="8.02938">
        <ele>2142</ele>
        <time>2021-07-10T12:13:12.452Z</time>
      </trkpt>
      <trkpt lat="46.38867" lon="8.02937">
        <ele>2142</ele>
        <time>2021-07-10T12:13:13.452Z</time>
      </trkpt>
      <trkpt lat="46.38866" lon="8.02936">
        <ele>2142</ele>
        <time>2021-07-10T12:13:14.452Z</time>
      </trkpt>
      <trkpt lat="46.38866" lon="8.02935">
        <ele>2142</ele>
        <time>2021-07-10T12:13:15.451Z</time>
      </trkpt>
      <trkpt lat="46.38866" lon="8.02933">
        <ele>2142</ele>
        <time>2021-07-10T12:13:16.452Z</time>
      </trkpt>
      <trkpt lat="46.38865" lon="8.02932">
        <ele>2142</ele>
        <time>2021-07-10T12:13:17.452Z</time>
      </trkpt>
      <trkpt lat="46.38865" lon="8.0293">
        <ele>2142</ele>
        <time>2021-07-10T12:13:18.451Z</time>
      </trkpt>
      <trkpt lat="46.38864" lon="8.02929">
        <ele>2142</ele>
        <time>2021-07-10T12:13:19.451Z</time>
      </trkpt>
      <trkpt lat="46.38864" lon="8.02927">
        <ele>2142</ele>
        <time>2021-07-10T12:13:20.451Z</time>
      </trkpt>
      <trkpt lat="46.38863" lon="8.02926">
        <ele>2142</ele>
        <time>2021-07-10T12:13:21.452Z</time>
      </trkpt>
      <trkpt lat="46.38863" lon="8.02924">
        <ele>2142</ele>
        <time>2021-07-10T12:13:22.452Z</time>
      </trkpt>
      <trkpt lat="46.38863" lon="8.02922">
        <ele>2142</ele>
        <time>2021-07-10T12:13:23.452Z</time>
      </trkpt>
      <trkpt lat="46.38862" lon="8.02921">
        <ele>2142</ele>
        <time>2021-07-10T12:13:24.452Z</time>
      </trkpt>
      <trkpt lat="46.38862" lon="8.02921">
        <ele>2143</ele>
        <time>2021-07-10T12:13:25.451Z</time>
      </trkpt>
      <trkpt lat="46.38861" lon="8.02921">
        <ele>2143</ele>
        <time>2021-07-10T12:13:26.452Z</time>
      </trkpt>
      <trkpt lat="46.38861" lon="8.02921">
        <ele>2144</ele>
        <time>2021-07-10T12:13:27.452Z</time>
      </trkpt>
      <trkpt lat="46.38861" lon="8.02921">
        <ele>2144</ele>
        <time>2021-07-10T12:13:28.452Z</time>
      </trkpt>
      <trkpt lat="46.38861" lon="8.02927">
        <ele>2143</ele>
        <time>2021-07-10T12:13:29.452Z</time>
      </trkpt>
      <trkpt lat="46.38861" lon="8.02927">
        <ele>2142</ele>
        <time>2021-07-10T12:13:30.452Z</time>
      </trkpt>
      <trkpt lat="46.38862" lon="8.02932">
        <ele>2150</ele>
        <time>2021-07-10T12:13:31.453Z</time>
      </trkpt>
      <trkpt lat="46.38861" lon="8.02931">
        <ele>2150</ele>
        <time>2021-07-10T12:13:32.453Z</time>
      </trkpt>
      <trkpt lat="46.38861" lon="8.0293">
        <ele>2149</ele>
        <time>2021-07-10T12:13:33.452Z</time>
      </trkpt>
      <trkpt lat="46.38862" lon="8.0293">
        <ele>2149</ele>
        <time>2021-07-10T12:13:34.453Z</time>
      </trkpt>
      <trkpt lat="46.38861" lon="8.02926">
        <ele>2142</ele>
        <time>2021-07-10T12:13:35.453Z</time>
      </trkpt>
      <trkpt lat="46.38861" lon="8.02925">
        <ele>2142</ele>
        <time>2021-07-10T12:13:36.453Z</time>
      </trkpt>
      <trkpt lat="46.38859" lon="8.02924">
        <ele>2137</ele>
        <time>2021-07-10T12:13:37.452Z</time>
      </trkpt>
      <trkpt lat="46.38859" lon="8.02924">
        <ele>2137</ele>
        <time>2021-07-10T12:13:38.453Z</time>
      </trkpt>
      <trkpt lat="46.38859" lon="8.02924">
        <ele>2137</ele>
        <time>2021-07-10T12:13:39.453Z</time>
      </trkpt>
      <trkpt lat="46.3886" lon="8.02923">
        <ele>2137</ele>
        <time>2021-07-10T12:13:40.453Z</time>
      </trkpt>
      <trkpt lat="46.3886" lon="8.02923">
        <ele>2137</ele>
        <time>2021-07-10T12:13:41.453Z</time>
      </trkpt>
      <trkpt lat="46.3886" lon="8.02923">
        <ele>2137</ele>
        <time>2021-07-10T12:13:42.453Z</time>
      </trkpt>
      <trkpt lat="46.38861" lon="8.02921">
        <ele>2140</ele>
        <time>2021-07-10T12:13:43.452Z</time>
      </trkpt>
      <trkpt lat="46.38861" lon="8.0292">
        <ele>2140</ele>
        <time>2021-07-10T12:13:44.452Z</time>
      </trkpt>
      <trkpt lat="46.3886" lon="8.02919">
        <ele>2141</ele>
        <time>2021-07-10T12:13:45.452Z</time>
      </trkpt>
      <trkpt lat="46.3886" lon="8.02918">
        <ele>2141</ele>
        <time>2021-07-10T12:13:46.453Z</time>
      </trkpt>
      <trkpt lat="46.3886" lon="8.02917">
        <ele>2141</ele>
        <time>2021-07-10T12:13:47.452Z</time>
      </trkpt>
      <trkpt lat="46.3886" lon="8.02916">
        <ele>2141</ele>
        <time>2021-07-10T12:13:48.452Z</time>
      </trkpt>
      <trkpt lat="46.3886" lon="8.02914">
        <ele>2141</ele>
        <time>2021-07-10T12:13:49.452Z</time>
      </trkpt>
      <trkpt lat="46.3886" lon="8.02914">
        <ele>2142</ele>
        <time>2021-07-10T12:13:50.453Z</time>
      </trkpt>
      <trkpt lat="46.3886" lon="8.02913">
        <ele>2142</ele>
        <time>2021-07-10T12:13:51.453Z</time>
      </trkpt>
      <trkpt lat="46.3886" lon="8.02912">
        <ele>2143</ele>
        <time>2021-07-10T12:13:52.452Z</time>
      </trkpt>
      <trkpt lat="46.38859" lon="8.02911">
        <ele>2143</ele>
        <time>2021-07-10T12:13:53.453Z</time>
      </trkpt>
      <trkpt lat="46.38859" lon="8.02911">
        <ele>2143</ele>
        <time>2021-07-10T12:13:54.452Z</time>
      </trkpt>
      <trkpt lat="46.38859" lon="8.02911">
        <ele>2143</ele>
        <time>2021-07-10T12:13:55.453Z</time>
      </trkpt>
      <trkpt lat="46.38858" lon="8.0291">
        <ele>2143</ele>
        <time>2021-07-10T12:13:56.453Z</time>
      </trkpt>
      <trkpt lat="46.38857" lon="8.02909">
        <ele>2146</ele>
        <time>2021-07-10T12:13:57.453Z</time>
      </trkpt>
      <trkpt lat="46.38857" lon="8.02908">
        <ele>2146</ele>
        <time>2021-07-10T12:13:58.453Z</time>
      </trkpt>
      <trkpt lat="46.38857" lon="8.02907">
        <ele>2146</ele>
        <time>2021-07-10T12:13:59.452Z</time>
      </trkpt>
      <trkpt lat="46.38857" lon="8.02905">
        <ele>2146</ele>
        <time>2021-07-10T12:14:00.452Z</time>
      </trkpt>
      <trkpt lat="46.38857" lon="8.02904">
        <ele>2146</ele>
        <time>2021-07-10T12:14:01.453Z</time>
      </trkpt>
      <trkpt lat="46.38857" lon="8.02903">
        <ele>2146</ele>
        <time>2021-07-10T12:14:02.452Z</time>
      </trkpt>
      <trkpt lat="46.38856" lon="8.02902">
        <ele>2145</ele>
        <time>2021-07-10T12:14:03.452Z</time>
      </trkpt>
      <trkpt lat="46.38856" lon="8.02901">
        <ele>2145</ele>
        <time>2021-07-10T12:14:04.452Z</time>
      </trkpt>
      <trkpt lat="46.38856" lon="8.029">
        <ele>2145</ele>
        <time>2021-07-10T12:14:05.453Z</time>
      </trkpt>
      <trkpt lat="46.38856" lon="8.02899">
        <ele>2146</ele>
        <time>2021-07-10T12:14:06.453Z</time>
      </trkpt>
      <trkpt lat="46.38856" lon="8.02899">
        <ele>2145</ele>
        <time>2021-07-10T12:14:07.452Z</time>
      </trkpt>
      <trkpt lat="46.38857" lon="8.02898">
        <ele>2145</ele>
        <time>2021-07-10T12:14:08.453Z</time>
      </trkpt>
      <trkpt lat="46.38857" lon="8.02896">
        <ele>2144</ele>
        <time>2021-07-10T12:14:09.453Z</time>
      </trkpt>
      <trkpt lat="46.38857" lon="8.02895">
        <ele>2144</ele>
        <time>2021-07-10T12:14:10.453Z</time>
      </trkpt>
      <trkpt lat="46.38857" lon="8.02894">
        <ele>2144</ele>
        <time>2021-07-10T12:14:11.452Z</time>
      </trkpt>
      <trkpt lat="46.38856" lon="8.02893">
        <ele>2144</ele>
        <time>2021-07-10T12:14:12.453Z</time>
      </trkpt>
      <trkpt lat="46.38856" lon="8.02892">
        <ele>2144</ele>
        <time>2021-07-10T12:14:13.453Z</time>
      </trkpt>
      <trkpt lat="46.38856" lon="8.02891">
        <ele>2144</ele>
        <time>2021-07-10T12:14:14.452Z</time>
      </trkpt>
      <trkpt lat="46.38855" lon="8.0289">
        <ele>2144</ele>
        <time>2021-07-10T12:14:15.453Z</time>
      </trkpt>
      <trkpt lat="46.38855" lon="8.02888">
        <ele>2144</ele>
        <time>2021-07-10T12:14:16.453Z</time>
      </trkpt>
      <trkpt lat="46.38855" lon="8.02887">
        <ele>2144</ele>
        <time>2021-07-10T12:14:17.453Z</time>
      </trkpt>
      <trkpt lat="46.38855" lon="8.02886">
        <ele>2144</ele>
        <time>2021-07-10T12:14:18.452Z</time>
      </trkpt>
      <trkpt lat="46.38854" lon="8.02886">
        <ele>2144</ele>
        <time>2021-07-10T12:14:19.453Z</time>
      </trkpt>
      <trkpt lat="46.38855" lon="8.02885">
        <ele>2144</ele>
        <time>2021-07-10T12:14:20.453Z</time>
      </trkpt>
      <trkpt lat="46.38856" lon="8.02884">
        <ele>2144</ele>
        <time>2021-07-10T12:14:21.452Z</time>
      </trkpt>
      <trkpt lat="46.38856" lon="8.02883">
        <ele>2144</ele>
        <time>2021-07-10T12:14:22.453Z</time>
      </trkpt>
      <trkpt lat="46.38855" lon="8.02883">
        <ele>2144</ele>
        <time>2021-07-10T12:14:23.453Z</time>
      </trkpt>
      <trkpt lat="46.38854" lon="8.02882">
        <ele>2145</ele>
        <time>2021-07-10T12:14:24.452Z</time>
      </trkpt>
      <trkpt lat="46.38854" lon="8.02882">
        <ele>2145</ele>
        <time>2021-07-10T12:14:25.453Z</time>
      </trkpt>
      <trkpt lat="46.38854" lon="8.02882">
        <ele>2145</ele>
        <time>2021-07-10T12:14:26.453Z</time>
      </trkpt>
      <trkpt lat="46.38854" lon="8.02881">
        <ele>2146</ele>
        <time>2021-07-10T12:14:27.453Z</time>
      </trkpt>
      <trkpt lat="46.38854" lon="8.02881">
        <ele>2146</ele>
        <time>2021-07-10T12:14:28.452Z</time>
      </trkpt>
      <trkpt lat="46.38854" lon="8.0288">
        <ele>2146</ele>
        <time>2021-07-10T12:14:29.453Z</time>
      </trkpt>
      <trkpt lat="46.38854" lon="8.02879">
        <ele>2147</ele>
        <time>2021-07-10T12:14:30.452Z</time>
      </trkpt>
      <trkpt lat="46.38853" lon="8.02877">
        <ele>2147</ele>
        <time>2021-07-10T12:14:31.453Z</time>
      </trkpt>
      <trkpt lat="46.38853" lon="8.02876">
        <ele>2147</ele>
        <time>2021-07-10T12:14:32.453Z</time>
      </trkpt>
      <trkpt lat="46.38852" lon="8.02875">
        <ele>2147</ele>
        <time>2021-07-10T12:14:33.452Z</time>
      </trkpt>
      <trkpt lat="46.38852" lon="8.02873">
        <ele>2147</ele>
        <time>2021-07-10T12:14:34.453Z</time>
      </trkpt>
      <trkpt lat="46.38852" lon="8.02872">
        <ele>2148</ele>
        <time>2021-07-10T12:14:35.453Z</time>
      </trkpt>
      <trkpt lat="46.38851" lon="8.02871">
        <ele>2148</ele>
        <time>2021-07-10T12:14:36.453Z</time>
      </trkpt>
      <trkpt lat="46.38851" lon="8.0287">
        <ele>2148</ele>
        <time>2021-07-10T12:14:37.452Z</time>
      </trkpt>
      <trkpt lat="46.38852" lon="8.02868">
        <ele>2148</ele>
        <time>2021-07-10T12:14:38.453Z</time>
      </trkpt>
      <trkpt lat="46.38852" lon="8.02867">
        <ele>2148</ele>
        <time>2021-07-10T12:14:39.453Z</time>
      </trkpt>
      <trkpt lat="46.38852" lon="8.02866">
        <ele>2148</ele>
        <time>2021-07-10T12:14:40.452Z</time>
      </trkpt>
      <trkpt lat="46.38852" lon="8.02864">
        <ele>2148</ele>
        <time>2021-07-10T12:14:41.452Z</time>
      </trkpt>
      <trkpt lat="46.38852" lon="8.02863">
        <ele>2148</ele>
        <time>2021-07-10T12:14:42.452Z</time>
      </trkpt>
      <trkpt lat="46.38852" lon="8.02862">
        <ele>2148</ele>
        <time>2021-07-10T12:14:43.453Z</time>
      </trkpt>
      <trkpt lat="46.38851" lon="8.02861">
        <ele>2147</ele>
        <time>2021-07-10T12:14:44.452Z</time>
      </trkpt>
      <trkpt lat="46.38851" lon="8.0286">
        <ele>2147</ele>
        <time>2021-07-10T12:14:45.453Z</time>
      </trkpt>
      <trkpt lat="46.38851" lon="8.02859">
        <ele>2147</ele>
        <time>2021-07-10T12:14:46.452Z</time>
      </trkpt>
      <trkpt lat="46.38851" lon="8.02858">
        <ele>2147</ele>
        <time>2021-07-10T12:14:47.452Z</time>
      </trkpt>
      <trkpt lat="46.3885" lon="8.02856">
        <ele>2147</ele>
        <time>2021-07-10T12:14:48.453Z</time>
      </trkpt>
      <trkpt lat="46.3885" lon="8.02855">
        <ele>2147</ele>
        <time>2021-07-10T12:14:49.453Z</time>
      </trkpt>
      <trkpt lat="46.38851" lon="8.02853">
        <ele>2148</ele>
        <time>2021-07-10T12:14:50.453Z</time>
      </trkpt>
      <trkpt lat="46.38851" lon="8.02851">
        <ele>2148</ele>
        <time>2021-07-10T12:14:51.453Z</time>
      </trkpt>
      <trkpt lat="46.38851" lon="8.02849">
        <ele>2149</ele>
        <time>2021-07-10T12:14:52.453Z</time>
      </trkpt>
      <trkpt lat="46.38851" lon="8.02848">
        <ele>2149</ele>
        <time>2021-07-10T12:14:53.452Z</time>
      </trkpt>
      <trkpt lat="46.38851" lon="8.02847">
        <ele>2149</ele>
        <time>2021-07-10T12:14:54.452Z</time>
      </trkpt>
      <trkpt lat="46.38852" lon="8.02845">
        <ele>2150</ele>
        <time>2021-07-10T12:14:55.452Z</time>
      </trkpt>
      <trkpt lat="46.38852" lon="8.02843">
        <ele>2150</ele>
        <time>2021-07-10T12:14:56.453Z</time>
      </trkpt>
      <trkpt lat="46.38852" lon="8.02842">
        <ele>2150</ele>
        <time>2021-07-10T12:14:57.453Z</time>
      </trkpt>
      <trkpt lat="46.38852" lon="8.02841">
        <ele>2150</ele>
        <time>2021-07-10T12:14:58.453Z</time>
      </trkpt>
      <trkpt lat="46.38852" lon="8.02839">
        <ele>2149</ele>
        <time>2021-07-10T12:14:59.452Z</time>
      </trkpt>
      <trkpt lat="46.38852" lon="8.02837">
        <ele>2149</ele>
        <time>2021-07-10T12:15:00.453Z</time>
      </trkpt>
      <trkpt lat="46.38851" lon="8.02836">
        <ele>2149</ele>
        <time>2021-07-10T12:15:01.452Z</time>
      </trkpt>
      <trkpt lat="46.38851" lon="8.02834">
        <ele>2148</ele>
        <time>2021-07-10T12:15:02.453Z</time>
      </trkpt>
      <trkpt lat="46.38851" lon="8.02833">
        <ele>2148</ele>
        <time>2021-07-10T12:15:03.452Z</time>
      </trkpt>
      <trkpt lat="46.38851" lon="8.02832">
        <ele>2147</ele>
        <time>2021-07-10T12:15:04.453Z</time>
      </trkpt>
      <trkpt lat="46.38851" lon="8.02831">
        <ele>2147</ele>
        <time>2021-07-10T12:15:05.452Z</time>
      </trkpt>
      <trkpt lat="46.38851" lon="8.02829">
        <ele>2147</ele>
        <time>2021-07-10T12:15:06.453Z</time>
      </trkpt>
      <trkpt lat="46.38851" lon="8.02828">
        <ele>2146</ele>
        <time>2021-07-10T12:15:07.453Z</time>
      </trkpt>
      <trkpt lat="46.38851" lon="8.02827">
        <ele>2146</ele>
        <time>2021-07-10T12:15:08.453Z</time>
      </trkpt>
      <trkpt lat="46.3885" lon="8.02825">
        <ele>2146</ele>
        <time>2021-07-10T12:15:09.453Z</time>
      </trkpt>
      <trkpt lat="46.38849" lon="8.02824">
        <ele>2146</ele>
        <time>2021-07-10T12:15:10.453Z</time>
      </trkpt>
      <trkpt lat="46.38849" lon="8.02822">
        <ele>2146</ele>
        <time>2021-07-10T12:15:11.453Z</time>
      </trkpt>
      <trkpt lat="46.38848" lon="8.0282">
        <ele>2145</ele>
        <time>2021-07-10T12:15:12.453Z</time>
      </trkpt>
      <trkpt lat="46.38848" lon="8.02819">
        <ele>2145</ele>
        <time>2021-07-10T12:15:13.453Z</time>
      </trkpt>
      <trkpt lat="46.38847" lon="8.02817">
        <ele>2144</ele>
        <time>2021-07-10T12:15:14.453Z</time>
      </trkpt>
      <trkpt lat="46.38847" lon="8.02816">
        <ele>2144</ele>
        <time>2021-07-10T12:15:15.453Z</time>
      </trkpt>
      <trkpt lat="46.38846" lon="8.02814">
        <ele>2144</ele>
        <time>2021-07-10T12:15:16.452Z</time>
      </trkpt>
      <trkpt lat="46.38845" lon="8.02813">
        <ele>2144</ele>
        <time>2021-07-10T12:15:17.453Z</time>
      </trkpt>
      <trkpt lat="46.38845" lon="8.02812">
        <ele>2144</ele>
        <time>2021-07-10T12:15:18.453Z</time>
      </trkpt>
      <trkpt lat="46.38845" lon="8.02811">
        <ele>2144</ele>
        <time>2021-07-10T12:15:19.453Z</time>
      </trkpt>
      <trkpt lat="46.38845" lon="8.0281">
        <ele>2143</ele>
        <time>2021-07-10T12:15:20.453Z</time>
      </trkpt>
      <trkpt lat="46.38846" lon="8.02809">
        <ele>2143</ele>
        <time>2021-07-10T12:15:21.452Z</time>
      </trkpt>
      <trkpt lat="46.38846" lon="8.02808">
        <ele>2143</ele>
        <time>2021-07-10T12:15:22.453Z</time>
      </trkpt>
      <trkpt lat="46.38846" lon="8.02807">
        <ele>2143</ele>
        <time>2021-07-10T12:15:23.453Z</time>
      </trkpt>
      <trkpt lat="46.38847" lon="8.02806">
        <ele>2143</ele>
        <time>2021-07-10T12:15:24.452Z</time>
      </trkpt>
      <trkpt lat="46.38846" lon="8.02804">
        <ele>2143</ele>
        <time>2021-07-10T12:15:25.452Z</time>
      </trkpt>
      <trkpt lat="46.38846" lon="8.02803">
        <ele>2142</ele>
        <time>2021-07-10T12:15:26.453Z</time>
      </trkpt>
      <trkpt lat="46.38845" lon="8.02801">
        <ele>2142</ele>
        <time>2021-07-10T12:15:27.452Z</time>
      </trkpt>
      <trkpt lat="46.38845" lon="8.028">
        <ele>2141</ele>
        <time>2021-07-10T12:15:28.453Z</time>
      </trkpt>
      <trkpt lat="46.38845" lon="8.02799">
        <ele>2140</ele>
        <time>2021-07-10T12:15:29.452Z</time>
      </trkpt>
      <trkpt lat="46.38844" lon="8.02798">
        <ele>2140</ele>
        <time>2021-07-10T12:15:30.453Z</time>
      </trkpt>
      <trkpt lat="46.38844" lon="8.02797">
        <ele>2139</ele>
        <time>2021-07-10T12:15:31.453Z</time>
      </trkpt>
      <trkpt lat="46.38844" lon="8.02796">
        <ele>2139</ele>
        <time>2021-07-10T12:15:32.453Z</time>
      </trkpt>
      <trkpt lat="46.38843" lon="8.02796">
        <ele>2138</ele>
        <time>2021-07-10T12:15:33.453Z</time>
      </trkpt>
      <trkpt lat="46.38843" lon="8.02795">
        <ele>2138</ele>
        <time>2021-07-10T12:15:34.453Z</time>
      </trkpt>
      <trkpt lat="46.38842" lon="8.02794">
        <ele>2138</ele>
        <time>2021-07-10T12:15:35.452Z</time>
      </trkpt>
      <trkpt lat="46.38841" lon="8.02792">
        <ele>2137</ele>
        <time>2021-07-10T12:15:36.452Z</time>
      </trkpt>
      <trkpt lat="46.38841" lon="8.02791">
        <ele>2137</ele>
        <time>2021-07-10T12:15:37.452Z</time>
      </trkpt>
      <trkpt lat="46.3884" lon="8.02789">
        <ele>2137</ele>
        <time>2021-07-10T12:15:38.452Z</time>
      </trkpt>
      <trkpt lat="46.38839" lon="8.02789">
        <ele>2137</ele>
        <time>2021-07-10T12:15:39.452Z</time>
      </trkpt>
      <trkpt lat="46.38839" lon="8.02788">
        <ele>2137</ele>
        <time>2021-07-10T12:15:40.452Z</time>
      </trkpt>
      <trkpt lat="46.38839" lon="8.02786">
        <ele>2137</ele>
        <time>2021-07-10T12:15:41.453Z</time>
      </trkpt>
      <trkpt lat="46.38839" lon="8.02785">
        <ele>2137</ele>
        <time>2021-07-10T12:15:42.452Z</time>
      </trkpt>
      <trkpt lat="46.38838" lon="8.02784">
        <ele>2137</ele>
        <time>2021-07-10T12:15:43.452Z</time>
      </trkpt>
      <trkpt lat="46.38837" lon="8.02782">
        <ele>2137</ele>
        <time>2021-07-10T12:15:44.452Z</time>
      </trkpt>
      <trkpt lat="46.38836" lon="8.0278">
        <ele>2137</ele>
        <time>2021-07-10T12:15:45.453Z</time>
      </trkpt>
      <trkpt lat="46.38835" lon="8.02779">
        <ele>2138</ele>
        <time>2021-07-10T12:15:46.453Z</time>
      </trkpt>
      <trkpt lat="46.38834" lon="8.02778">
        <ele>2138</ele>
        <time>2021-07-10T12:15:47.453Z</time>
      </trkpt>
      <trkpt lat="46.38833" lon="8.02777">
        <ele>2138</ele>
        <time>2021-07-10T12:15:48.453Z</time>
      </trkpt>
      <trkpt lat="46.38833" lon="8.02777">
        <ele>2138</ele>
        <time>2021-07-10T12:15:49.453Z</time>
      </trkpt>
      <trkpt lat="46.38834" lon="8.02776">
        <ele>2138</ele>
        <time>2021-07-10T12:15:50.453Z</time>
      </trkpt>
      <trkpt lat="46.38835" lon="8.02776">
        <ele>2138</ele>
        <time>2021-07-10T12:15:51.453Z</time>
      </trkpt>
      <trkpt lat="46.38836" lon="8.02775">
        <ele>2138</ele>
        <time>2021-07-10T12:15:52.452Z</time>
      </trkpt>
      <trkpt lat="46.38836" lon="8.02774">
        <ele>2138</ele>
        <time>2021-07-10T12:15:53.452Z</time>
      </trkpt>
      <trkpt lat="46.38836" lon="8.02774">
        <ele>2138</ele>
        <time>2021-07-10T12:15:54.453Z</time>
      </trkpt>
      <trkpt lat="46.38836" lon="8.02773">
        <ele>2138</ele>
        <time>2021-07-10T12:15:55.452Z</time>
      </trkpt>
      <trkpt lat="46.38836" lon="8.02772">
        <ele>2137</ele>
        <time>2021-07-10T12:15:56.452Z</time>
      </trkpt>
      <trkpt lat="46.38836" lon="8.02772">
        <ele>2137</ele>
        <time>2021-07-10T12:15:57.453Z</time>
      </trkpt>
      <trkpt lat="46.38836" lon="8.02771">
        <ele>2138</ele>
        <time>2021-07-10T12:15:58.453Z</time>
      </trkpt>
      <trkpt lat="46.38836" lon="8.0277">
        <ele>2137</ele>
        <time>2021-07-10T12:15:59.452Z</time>
      </trkpt>
      <trkpt lat="46.38834" lon="8.02769">
        <ele>2137</ele>
        <time>2021-07-10T12:16:00.453Z</time>
      </trkpt>
      <trkpt lat="46.38834" lon="8.02768">
        <ele>2137</ele>
        <time>2021-07-10T12:16:01.452Z</time>
      </trkpt>
      <trkpt lat="46.38834" lon="8.02768">
        <ele>2137</ele>
        <time>2021-07-10T12:16:02.452Z</time>
      </trkpt>
      <trkpt lat="46.38834" lon="8.02768">
        <ele>2137</ele>
        <time>2021-07-10T12:16:03.452Z</time>
      </trkpt>
      <trkpt lat="46.38834" lon="8.02768">
        <ele>2137</ele>
        <time>2021-07-10T12:16:04.453Z</time>
      </trkpt>
      <trkpt lat="46.38834" lon="8.02768">
        <ele>2137</ele>
        <time>2021-07-10T12:16:05.452Z</time>
      </trkpt>
      <trkpt lat="46.38833" lon="8.02765">
        <ele>2136</ele>
        <time>2021-07-10T12:16:06.453Z</time>
      </trkpt>
      <trkpt lat="46.38832" lon="8.02764">
        <ele>2136</ele>
        <time>2021-07-10T12:16:07.452Z</time>
      </trkpt>
      <trkpt lat="46.38831" lon="8.02763">
        <ele>2135</ele>
        <time>2021-07-10T12:16:08.453Z</time>
      </trkpt>
      <trkpt lat="46.3883" lon="8.02761">
        <ele>2135</ele>
        <time>2021-07-10T12:16:09.453Z</time>
      </trkpt>
      <trkpt lat="46.38829" lon="8.02761">
        <ele>2135</ele>
        <time>2021-07-10T12:16:10.453Z</time>
      </trkpt>
      <trkpt lat="46.38828" lon="8.02761">
        <ele>2135</ele>
        <time>2021-07-10T12:16:11.453Z</time>
      </trkpt>
      <trkpt lat="46.38827" lon="8.02761">
        <ele>2135</ele>
        <time>2021-07-10T12:16:12.452Z</time>
      </trkpt>
      <trkpt lat="46.38826" lon="8.0276">
        <ele>2134</ele>
        <time>2021-07-10T12:16:13.453Z</time>
      </trkpt>
      <trkpt lat="46.38825" lon="8.02759">
        <ele>2133</ele>
        <time>2021-07-10T12:16:14.453Z</time>
      </trkpt>
      <trkpt lat="46.38825" lon="8.02759">
        <ele>2132</ele>
        <time>2021-07-10T12:16:15.452Z</time>
      </trkpt>
      <trkpt lat="46.38826" lon="8.02758">
        <ele>2132</ele>
        <time>2021-07-10T12:16:16.452Z</time>
      </trkpt>
      <trkpt lat="46.38825" lon="8.02756">
        <ele>2131</ele>
        <time>2021-07-10T12:16:17.453Z</time>
      </trkpt>
      <trkpt lat="46.38825" lon="8.02754">
        <ele>2131</ele>
        <time>2021-07-10T12:16:18.453Z</time>
      </trkpt>
      <trkpt lat="46.38824" lon="8.02753">
        <ele>2131</ele>
        <time>2021-07-10T12:16:19.453Z</time>
      </trkpt>
      <trkpt lat="46.38824" lon="8.02752">
        <ele>2132</ele>
        <time>2021-07-10T12:16:20.452Z</time>
      </trkpt>
      <trkpt lat="46.38822" lon="8.02751">
        <ele>2132</ele>
        <time>2021-07-10T12:16:21.452Z</time>
      </trkpt>
      <trkpt lat="46.38821" lon="8.0275">
        <ele>2132</ele>
        <time>2021-07-10T12:16:22.453Z</time>
      </trkpt>
      <trkpt lat="46.38821" lon="8.02749">
        <ele>2132</ele>
        <time>2021-07-10T12:16:23.453Z</time>
      </trkpt>
      <trkpt lat="46.3882" lon="8.02748">
        <ele>2132</ele>
        <time>2021-07-10T12:16:24.453Z</time>
      </trkpt>
      <trkpt lat="46.3882" lon="8.02747">
        <ele>2132</ele>
        <time>2021-07-10T12:16:25.453Z</time>
      </trkpt>
      <trkpt lat="46.38819" lon="8.02746">
        <ele>2132</ele>
        <time>2021-07-10T12:16:26.453Z</time>
      </trkpt>
      <trkpt lat="46.38818" lon="8.02745">
        <ele>2132</ele>
        <time>2021-07-10T12:16:27.453Z</time>
      </trkpt>
      <trkpt lat="46.38818" lon="8.02744">
        <ele>2132</ele>
        <time>2021-07-10T12:16:28.452Z</time>
      </trkpt>
      <trkpt lat="46.38817" lon="8.02743">
        <ele>2132</ele>
        <time>2021-07-10T12:16:29.453Z</time>
      </trkpt>
      <trkpt lat="46.38817" lon="8.02742">
        <ele>2132</ele>
        <time>2021-07-10T12:16:30.453Z</time>
      </trkpt>
      <trkpt lat="46.38816" lon="8.02741">
        <ele>2132</ele>
        <time>2021-07-10T12:16:31.453Z</time>
      </trkpt>
      <trkpt lat="46.38816" lon="8.0274">
        <ele>2131</ele>
        <time>2021-07-10T12:16:32.453Z</time>
      </trkpt>
      <trkpt lat="46.38815" lon="8.02739">
        <ele>2131</ele>
        <time>2021-07-10T12:16:33.453Z</time>
      </trkpt>
      <trkpt lat="46.38815" lon="8.02738">
        <ele>2131</ele>
        <time>2021-07-10T12:16:34.453Z</time>
      </trkpt>
      <trkpt lat="46.38814" lon="8.02736">
        <ele>2131</ele>
        <time>2021-07-10T12:16:35.452Z</time>
      </trkpt>
      <trkpt lat="46.38813" lon="8.02735">
        <ele>2130</ele>
        <time>2021-07-10T12:16:36.453Z</time>
      </trkpt>
      <trkpt lat="46.38812" lon="8.02734">
        <ele>2130</ele>
        <time>2021-07-10T12:16:37.453Z</time>
      </trkpt>
      <trkpt lat="46.38812" lon="8.02733">
        <ele>2130</ele>
        <time>2021-07-10T12:16:38.453Z</time>
      </trkpt>
      <trkpt lat="46.38811" lon="8.02731">
        <ele>2131</ele>
        <time>2021-07-10T12:16:39.452Z</time>
      </trkpt>
      <trkpt lat="46.3881" lon="8.0273">
        <ele>2131</ele>
        <time>2021-07-10T12:16:40.452Z</time>
      </trkpt>
      <trkpt lat="46.38809" lon="8.02728">
        <ele>2132</ele>
        <time>2021-07-10T12:16:41.453Z</time>
      </trkpt>
      <trkpt lat="46.38808" lon="8.02727">
        <ele>2133</ele>
        <time>2021-07-10T12:16:42.452Z</time>
      </trkpt>
      <trkpt lat="46.38807" lon="8.02725">
        <ele>2133</ele>
        <time>2021-07-10T12:16:43.453Z</time>
      </trkpt>
      <trkpt lat="46.38806" lon="8.02724">
        <ele>2134</ele>
        <time>2021-07-10T12:16:44.453Z</time>
      </trkpt>
      <trkpt lat="46.38805" lon="8.02723">
        <ele>2134</ele>
        <time>2021-07-10T12:16:45.453Z</time>
      </trkpt>
      <trkpt lat="46.38804" lon="8.02721">
        <ele>2133</ele>
        <time>2021-07-10T12:16:46.452Z</time>
      </trkpt>
      <trkpt lat="46.38803" lon="8.0272">
        <ele>2133</ele>
        <time>2021-07-10T12:16:47.453Z</time>
      </trkpt>
      <trkpt lat="46.38802" lon="8.02719">
        <ele>2133</ele>
        <time>2021-07-10T12:16:48.453Z</time>
      </trkpt>
      <trkpt lat="46.38802" lon="8.02718">
        <ele>2133</ele>
        <time>2021-07-10T12:16:49.452Z</time>
      </trkpt>
      <trkpt lat="46.38802" lon="8.02716">
        <ele>2133</ele>
        <time>2021-07-10T12:16:50.453Z</time>
      </trkpt>
      <trkpt lat="46.38801" lon="8.02715">
        <ele>2133</ele>
        <time>2021-07-10T12:16:51.453Z</time>
      </trkpt>
      <trkpt lat="46.388" lon="8.02715">
        <ele>2133</ele>
        <time>2021-07-10T12:16:52.453Z</time>
      </trkpt>
      <trkpt lat="46.38798" lon="8.02714">
        <ele>2134</ele>
        <time>2021-07-10T12:16:53.452Z</time>
      </trkpt>
      <trkpt lat="46.38797" lon="8.02714">
        <ele>2134</ele>
        <time>2021-07-10T12:16:54.453Z</time>
      </trkpt>
      <trkpt lat="46.38797" lon="8.02714">
        <ele>2134</ele>
        <time>2021-07-10T12:16:55.453Z</time>
      </trkpt>
      <trkpt lat="46.38796" lon="8.02713">
        <ele>2134</ele>
        <time>2021-07-10T12:16:56.453Z</time>
      </trkpt>
      <trkpt lat="46.38796" lon="8.02712">
        <ele>2133</ele>
        <time>2021-07-10T12:16:57.453Z</time>
      </trkpt>
      <trkpt lat="46.38795" lon="8.02712">
        <ele>2133</ele>
        <time>2021-07-10T12:16:58.453Z</time>
      </trkpt>
      <trkpt lat="46.38794" lon="8.02712">
        <ele>2133</ele>
        <time>2021-07-10T12:16:59.452Z</time>
      </trkpt>
      <trkpt lat="46.38793" lon="8.02711">
        <ele>2133</ele>
        <time>2021-07-10T12:17:00.453Z</time>
      </trkpt>
      <trkpt lat="46.38792" lon="8.02711">
        <ele>2133</ele>
        <time>2021-07-10T12:17:01.452Z</time>
      </trkpt>
      <trkpt lat="46.38791" lon="8.0271">
        <ele>2133</ele>
        <time>2021-07-10T12:17:02.452Z</time>
      </trkpt>
      <trkpt lat="46.3879" lon="8.02709">
        <ele>2132</ele>
        <time>2021-07-10T12:17:03.453Z</time>
      </trkpt>
      <trkpt lat="46.3879" lon="8.02708">
        <ele>2132</ele>
        <time>2021-07-10T12:17:04.453Z</time>
      </trkpt>
      <trkpt lat="46.38789" lon="8.02707">
        <ele>2131</ele>
        <time>2021-07-10T12:17:05.452Z</time>
      </trkpt>
      <trkpt lat="46.38789" lon="8.02706">
        <ele>2130</ele>
        <time>2021-07-10T12:17:06.453Z</time>
      </trkpt>
      <trkpt lat="46.38788" lon="8.02705">
        <ele>2130</ele>
        <time>2021-07-10T12:17:07.452Z</time>
      </trkpt>
      <trkpt lat="46.38788" lon="8.02704">
        <ele>2129</ele>
        <time>2021-07-10T12:17:08.453Z</time>
      </trkpt>
      <trkpt lat="46.38787" lon="8.02703">
        <ele>2129</ele>
        <time>2021-07-10T12:17:09.453Z</time>
      </trkpt>
      <trkpt lat="46.38786" lon="8.02701">
        <ele>2129</ele>
        <time>2021-07-10T12:17:10.453Z</time>
      </trkpt>
      <trkpt lat="46.38786" lon="8.027">
        <ele>2129</ele>
        <time>2021-07-10T12:17:11.453Z</time>
      </trkpt>
      <trkpt lat="46.38785" lon="8.02699">
        <ele>2129</ele>
        <time>2021-07-10T12:17:12.453Z</time>
      </trkpt>
      <trkpt lat="46.38784" lon="8.02697">
        <ele>2129</ele>
        <time>2021-07-10T12:17:13.453Z</time>
      </trkpt>
      <trkpt lat="46.38783" lon="8.02696">
        <ele>2129</ele>
        <time>2021-07-10T12:17:14.453Z</time>
      </trkpt>
      <trkpt lat="46.38783" lon="8.02694">
        <ele>2129</ele>
        <time>2021-07-10T12:17:15.453Z</time>
      </trkpt>
      <trkpt lat="46.38783" lon="8.02693">
        <ele>2129</ele>
        <time>2021-07-10T12:17:16.452Z</time>
      </trkpt>
      <trkpt lat="46.38782" lon="8.02692">
        <ele>2129</ele>
        <time>2021-07-10T12:17:17.453Z</time>
      </trkpt>
      <trkpt lat="46.38782" lon="8.0269">
        <ele>2129</ele>
        <time>2021-07-10T12:17:18.453Z</time>
      </trkpt>
      <trkpt lat="46.38781" lon="8.02688">
        <ele>2130</ele>
        <time>2021-07-10T12:17:19.453Z</time>
      </trkpt>
      <trkpt lat="46.3878" lon="8.02687">
        <ele>2130</ele>
        <time>2021-07-10T12:17:20.453Z</time>
      </trkpt>
      <trkpt lat="46.3878" lon="8.02686">
        <ele>2130</ele>
        <time>2021-07-10T12:17:21.453Z</time>
      </trkpt>
      <trkpt lat="46.38779" lon="8.02684">
        <ele>2130</ele>
        <time>2021-07-10T12:17:22.453Z</time>
      </trkpt>
      <trkpt lat="46.38778" lon="8.02683">
        <ele>2130</ele>
        <time>2021-07-10T12:17:23.452Z</time>
      </trkpt>
      <trkpt lat="46.38778" lon="8.02681">
        <ele>2129</ele>
        <time>2021-07-10T12:17:24.452Z</time>
      </trkpt>
      <trkpt lat="46.38778" lon="8.0268">
        <ele>2129</ele>
        <time>2021-07-10T12:17:25.452Z</time>
      </trkpt>
      <trkpt lat="46.38777" lon="8.02679">
        <ele>2129</ele>
        <time>2021-07-10T12:17:26.453Z</time>
      </trkpt>
      <trkpt lat="46.38777" lon="8.02678">
        <ele>2129</ele>
        <time>2021-07-10T12:17:27.453Z</time>
      </trkpt>
      <trkpt lat="46.38777" lon="8.02677">
        <ele>2128</ele>
        <time>2021-07-10T12:17:28.453Z</time>
      </trkpt>
      <trkpt lat="46.38777" lon="8.02675">
        <ele>2128</ele>
        <time>2021-07-10T12:17:29.453Z</time>
      </trkpt>
      <trkpt lat="46.38777" lon="8.02673">
        <ele>2127</ele>
        <time>2021-07-10T12:17:30.453Z</time>
      </trkpt>
      <trkpt lat="46.38776" lon="8.02672">
        <ele>2127</ele>
        <time>2021-07-10T12:17:31.452Z</time>
      </trkpt>
      <trkpt lat="46.38776" lon="8.02671">
        <ele>2127</ele>
        <time>2021-07-10T12:17:32.453Z</time>
      </trkpt>
      <trkpt lat="46.38776" lon="8.0267">
        <ele>2127</ele>
        <time>2021-07-10T12:17:33.453Z</time>
      </trkpt>
      <trkpt lat="46.38776" lon="8.02669">
        <ele>2127</ele>
        <time>2021-07-10T12:17:34.453Z</time>
      </trkpt>
      <trkpt lat="46.38775" lon="8.02667">
        <ele>2127</ele>
        <time>2021-07-10T12:17:35.453Z</time>
      </trkpt>
      <trkpt lat="46.38775" lon="8.02666">
        <ele>2127</ele>
        <time>2021-07-10T12:17:36.453Z</time>
      </trkpt>
      <trkpt lat="46.38775" lon="8.02664">
        <ele>2127</ele>
        <time>2021-07-10T12:17:37.453Z</time>
      </trkpt>
      <trkpt lat="46.38775" lon="8.02662">
        <ele>2127</ele>
        <time>2021-07-10T12:17:38.453Z</time>
      </trkpt>
      <trkpt lat="46.38775" lon="8.0266">
        <ele>2127</ele>
        <time>2021-07-10T12:17:39.453Z</time>
      </trkpt>
      <trkpt lat="46.38774" lon="8.02658">
        <ele>2127</ele>
        <time>2021-07-10T12:17:40.453Z</time>
      </trkpt>
      <trkpt lat="46.38773" lon="8.02656">
        <ele>2127</ele>
        <time>2021-07-10T12:17:41.453Z</time>
      </trkpt>
      <trkpt lat="46.38772" lon="8.02654">
        <ele>2127</ele>
        <time>2021-07-10T12:17:42.452Z</time>
      </trkpt>
      <trkpt lat="46.38772" lon="8.02652">
        <ele>2127</ele>
        <time>2021-07-10T12:17:43.453Z</time>
      </trkpt>
      <trkpt lat="46.38771" lon="8.0265">
        <ele>2127</ele>
        <time>2021-07-10T12:17:44.452Z</time>
      </trkpt>
      <trkpt lat="46.3877" lon="8.02649">
        <ele>2127</ele>
        <time>2021-07-10T12:17:45.453Z</time>
      </trkpt>
      <trkpt lat="46.38769" lon="8.02649">
        <ele>2127</ele>
        <time>2021-07-10T12:17:46.453Z</time>
      </trkpt>
      <trkpt lat="46.38768" lon="8.02648">
        <ele>2127</ele>
        <time>2021-07-10T12:17:47.453Z</time>
      </trkpt>
      <trkpt lat="46.38768" lon="8.02648">
        <ele>2127</ele>
        <time>2021-07-10T12:17:48.452Z</time>
      </trkpt>
      <trkpt lat="46.38767" lon="8.02647">
        <ele>2126</ele>
        <time>2021-07-10T12:17:49.453Z</time>
      </trkpt>
      <trkpt lat="46.38766" lon="8.02645">
        <ele>2126</ele>
        <time>2021-07-10T12:17:50.453Z</time>
      </trkpt>
      <trkpt lat="46.38766" lon="8.02644">
        <ele>2126</ele>
        <time>2021-07-10T12:17:51.452Z</time>
      </trkpt>
      <trkpt lat="46.38766" lon="8.02642">
        <ele>2126</ele>
        <time>2021-07-10T12:17:52.452Z</time>
      </trkpt>
      <trkpt lat="46.38766" lon="8.0264">
        <ele>2126</ele>
        <time>2021-07-10T12:17:53.453Z</time>
      </trkpt>
      <trkpt lat="46.38766" lon="8.02639">
        <ele>2125</ele>
        <time>2021-07-10T12:17:54.453Z</time>
      </trkpt>
      <trkpt lat="46.38766" lon="8.02636">
        <ele>2125</ele>
        <time>2021-07-10T12:17:55.453Z</time>
      </trkpt>
      <trkpt lat="46.38766" lon="8.02634">
        <ele>2125</ele>
        <time>2021-07-10T12:17:56.452Z</time>
      </trkpt>
      <trkpt lat="46.38765" lon="8.02632">
        <ele>2125</ele>
        <time>2021-07-10T12:17:57.453Z</time>
      </trkpt>
      <trkpt lat="46.38765" lon="8.0263">
        <ele>2125</ele>
        <time>2021-07-10T12:17:58.453Z</time>
      </trkpt>
      <trkpt lat="46.38764" lon="8.02629">
        <ele>2125</ele>
        <time>2021-07-10T12:17:59.453Z</time>
      </trkpt>
      <trkpt lat="46.38763" lon="8.02628">
        <ele>2125</ele>
        <time>2021-07-10T12:18:00.453Z</time>
      </trkpt>
      <trkpt lat="46.38762" lon="8.02627">
        <ele>2125</ele>
        <time>2021-07-10T12:18:01.453Z</time>
      </trkpt>
      <trkpt lat="46.38761" lon="8.02626">
        <ele>2124</ele>
        <time>2021-07-10T12:18:02.453Z</time>
      </trkpt>
      <trkpt lat="46.3876" lon="8.02624">
        <ele>2124</ele>
        <time>2021-07-10T12:18:03.453Z</time>
      </trkpt>
      <trkpt lat="46.3876" lon="8.02622">
        <ele>2124</ele>
        <time>2021-07-10T12:18:04.453Z</time>
      </trkpt>
      <trkpt lat="46.38759" lon="8.0262">
        <ele>2124</ele>
        <time>2021-07-10T12:18:05.452Z</time>
      </trkpt>
      <trkpt lat="46.38759" lon="8.02618">
        <ele>2124</ele>
        <time>2021-07-10T12:18:06.453Z</time>
      </trkpt>
      <trkpt lat="46.38758" lon="8.02616">
        <ele>2125</ele>
        <time>2021-07-10T12:18:07.453Z</time>
      </trkpt>
      <trkpt lat="46.38757" lon="8.02615">
        <ele>2125</ele>
        <time>2021-07-10T12:18:08.453Z</time>
      </trkpt>
      <trkpt lat="46.38756" lon="8.02613">
        <ele>2124</ele>
        <time>2021-07-10T12:18:09.452Z</time>
      </trkpt>
      <trkpt lat="46.38756" lon="8.02611">
        <ele>2124</ele>
        <time>2021-07-10T12:18:10.453Z</time>
      </trkpt>
      <trkpt lat="46.38756" lon="8.0261">
        <ele>2123</ele>
        <time>2021-07-10T12:18:11.453Z</time>
      </trkpt>
      <trkpt lat="46.38756" lon="8.02608">
        <ele>2123</ele>
        <time>2021-07-10T12:18:12.453Z</time>
      </trkpt>
      <trkpt lat="46.38755" lon="8.02607">
        <ele>2122</ele>
        <time>2021-07-10T12:18:13.453Z</time>
      </trkpt>
      <trkpt lat="46.38755" lon="8.02605">
        <ele>2122</ele>
        <time>2021-07-10T12:18:14.452Z</time>
      </trkpt>
      <trkpt lat="46.38755" lon="8.02604">
        <ele>2122</ele>
        <time>2021-07-10T12:18:15.453Z</time>
      </trkpt>
      <trkpt lat="46.38755" lon="8.02602">
        <ele>2122</ele>
        <time>2021-07-10T12:18:16.453Z</time>
      </trkpt>
      <trkpt lat="46.38754" lon="8.02601">
        <ele>2121</ele>
        <time>2021-07-10T12:18:17.453Z</time>
      </trkpt>
      <trkpt lat="46.38754" lon="8.026">
        <ele>2121</ele>
        <time>2021-07-10T12:18:18.452Z</time>
      </trkpt>
      <trkpt lat="46.38754" lon="8.02598">
        <ele>2121</ele>
        <time>2021-07-10T12:18:19.452Z</time>
      </trkpt>
      <trkpt lat="46.38753" lon="8.02596">
        <ele>2121</ele>
        <time>2021-07-10T12:18:20.452Z</time>
      </trkpt>
      <trkpt lat="46.38752" lon="8.02594">
        <ele>2120</ele>
        <time>2021-07-10T12:18:21.452Z</time>
      </trkpt>
      <trkpt lat="46.38752" lon="8.02592">
        <ele>2119</ele>
        <time>2021-07-10T12:18:22.452Z</time>
      </trkpt>
      <trkpt lat="46.38751" lon="8.02591">
        <ele>2120</ele>
        <time>2021-07-10T12:18:23.452Z</time>
      </trkpt>
      <trkpt lat="46.3875" lon="8.02589">
        <ele>2120</ele>
        <time>2021-07-10T12:18:24.452Z</time>
      </trkpt>
      <trkpt lat="46.38749" lon="8.02587">
        <ele>2120</ele>
        <time>2021-07-10T12:18:25.453Z</time>
      </trkpt>
      <trkpt lat="46.38749" lon="8.02585">
        <ele>2120</ele>
        <time>2021-07-10T12:18:26.453Z</time>
      </trkpt>
      <trkpt lat="46.38749" lon="8.02583">
        <ele>2120</ele>
        <time>2021-07-10T12:18:27.453Z</time>
      </trkpt>
      <trkpt lat="46.38749" lon="8.02582">
        <ele>2121</ele>
        <time>2021-07-10T12:18:28.453Z</time>
      </trkpt>
      <trkpt lat="46.38749" lon="8.0258">
        <ele>2121</ele>
        <time>2021-07-10T12:18:29.453Z</time>
      </trkpt>
      <trkpt lat="46.38748" lon="8.02578">
        <ele>2121</ele>
        <time>2021-07-10T12:18:30.453Z</time>
      </trkpt>
      <trkpt lat="46.38748" lon="8.02577">
        <ele>2121</ele>
        <time>2021-07-10T12:18:31.453Z</time>
      </trkpt>
      <trkpt lat="46.38747" lon="8.02575">
        <ele>2120</ele>
        <time>2021-07-10T12:18:32.452Z</time>
      </trkpt>
      <trkpt lat="46.38746" lon="8.02574">
        <ele>2120</ele>
        <time>2021-07-10T12:18:33.452Z</time>
      </trkpt>
      <trkpt lat="46.38745" lon="8.02573">
        <ele>2119</ele>
        <time>2021-07-10T12:18:34.453Z</time>
      </trkpt>
      <trkpt lat="46.38745" lon="8.02572">
        <ele>2119</ele>
        <time>2021-07-10T12:18:35.453Z</time>
      </trkpt>
      <trkpt lat="46.38744" lon="8.0257">
        <ele>2118</ele>
        <time>2021-07-10T12:18:36.452Z</time>
      </trkpt>
      <trkpt lat="46.38744" lon="8.02569">
        <ele>2118</ele>
        <time>2021-07-10T12:18:37.453Z</time>
      </trkpt>
      <trkpt lat="46.38743" lon="8.02568">
        <ele>2118</ele>
        <time>2021-07-10T12:18:38.452Z</time>
      </trkpt>
      <trkpt lat="46.38743" lon="8.02566">
        <ele>2117</ele>
        <time>2021-07-10T12:18:39.453Z</time>
      </trkpt>
      <trkpt lat="46.38742" lon="8.02565">
        <ele>2117</ele>
        <time>2021-07-10T12:18:40.453Z</time>
      </trkpt>
      <trkpt lat="46.38742" lon="8.02564">
        <ele>2116</ele>
        <time>2021-07-10T12:18:41.452Z</time>
      </trkpt>
      <trkpt lat="46.38742" lon="8.02562">
        <ele>2115</ele>
        <time>2021-07-10T12:18:42.452Z</time>
      </trkpt>
      <trkpt lat="46.38741" lon="8.02561">
        <ele>2114</ele>
        <time>2021-07-10T12:18:43.453Z</time>
      </trkpt>
      <trkpt lat="46.38741" lon="8.0256">
        <ele>2114</ele>
        <time>2021-07-10T12:18:44.453Z</time>
      </trkpt>
      <trkpt lat="46.38739" lon="8.02558">
        <ele>2113</ele>
        <time>2021-07-10T12:18:45.453Z</time>
      </trkpt>
      <trkpt lat="46.38739" lon="8.02557">
        <ele>2112</ele>
        <time>2021-07-10T12:18:46.452Z</time>
      </trkpt>
      <trkpt lat="46.38738" lon="8.02555">
        <ele>2111</ele>
        <time>2021-07-10T12:18:47.453Z</time>
      </trkpt>
      <trkpt lat="46.38737" lon="8.02554">
        <ele>2111</ele>
        <time>2021-07-10T12:18:48.453Z</time>
      </trkpt>
      <trkpt lat="46.38737" lon="8.02552">
        <ele>2110</ele>
        <time>2021-07-10T12:18:49.453Z</time>
      </trkpt>
      <trkpt lat="46.38736" lon="8.02551">
        <ele>2110</ele>
        <time>2021-07-10T12:18:50.453Z</time>
      </trkpt>
      <trkpt lat="46.38735" lon="8.0255">
        <ele>2110</ele>
        <time>2021-07-10T12:18:51.453Z</time>
      </trkpt>
      <trkpt lat="46.38734" lon="8.02549">
        <ele>2110</ele>
        <time>2021-07-10T12:18:52.453Z</time>
      </trkpt>
      <trkpt lat="46.38734" lon="8.02547">
        <ele>2110</ele>
        <time>2021-07-10T12:18:53.453Z</time>
      </trkpt>
      <trkpt lat="46.38735" lon="8.02545">
        <ele>2110</ele>
        <time>2021-07-10T12:18:54.452Z</time>
      </trkpt>
      <trkpt lat="46.38734" lon="8.02543">
        <ele>2110</ele>
        <time>2021-07-10T12:18:55.453Z</time>
      </trkpt>
      <trkpt lat="46.38734" lon="8.02541">
        <ele>2111</ele>
        <time>2021-07-10T12:18:56.453Z</time>
      </trkpt>
      <trkpt lat="46.38734" lon="8.02539">
        <ele>2111</ele>
        <time>2021-07-10T12:18:57.452Z</time>
      </trkpt>
      <trkpt lat="46.38733" lon="8.02538">
        <ele>2111</ele>
        <time>2021-07-10T12:18:58.453Z</time>
      </trkpt>
      <trkpt lat="46.38732" lon="8.02536">
        <ele>2111</ele>
        <time>2021-07-10T12:18:59.452Z</time>
      </trkpt>
      <trkpt lat="46.38731" lon="8.02535">
        <ele>2111</ele>
        <time>2021-07-10T12:19:00.452Z</time>
      </trkpt>
      <trkpt lat="46.38731" lon="8.02533">
        <ele>2111</ele>
        <time>2021-07-10T12:19:01.453Z</time>
      </trkpt>
      <trkpt lat="46.3873" lon="8.02533">
        <ele>2110</ele>
        <time>2021-07-10T12:19:02.453Z</time>
      </trkpt>
      <trkpt lat="46.3873" lon="8.02531">
        <ele>2110</ele>
        <time>2021-07-10T12:19:03.453Z</time>
      </trkpt>
      <trkpt lat="46.38729" lon="8.0253">
        <ele>2110</ele>
        <time>2021-07-10T12:19:04.453Z</time>
      </trkpt>
      <trkpt lat="46.38728" lon="8.02528">
        <ele>2110</ele>
        <time>2021-07-10T12:19:05.453Z</time>
      </trkpt>
      <trkpt lat="46.38727" lon="8.02527">
        <ele>2110</ele>
        <time>2021-07-10T12:19:06.453Z</time>
      </trkpt>
      <trkpt lat="46.38726" lon="8.02527">
        <ele>2110</ele>
        <time>2021-07-10T12:19:07.453Z</time>
      </trkpt>
      <trkpt lat="46.38725" lon="8.02526">
        <ele>2110</ele>
        <time>2021-07-10T12:19:08.453Z</time>
      </trkpt>
      <trkpt lat="46.38724" lon="8.02525">
        <ele>2110</ele>
        <time>2021-07-10T12:19:09.453Z</time>
      </trkpt>
      <trkpt lat="46.38723" lon="8.02525">
        <ele>2110</ele>
        <time>2021-07-10T12:19:10.452Z</time>
      </trkpt>
      <trkpt lat="46.38722" lon="8.02525">
        <ele>2110</ele>
        <time>2021-07-10T12:19:11.453Z</time>
      </trkpt>
      <trkpt lat="46.38722" lon="8.02524">
        <ele>2110</ele>
        <time>2021-07-10T12:19:12.452Z</time>
      </trkpt>
      <trkpt lat="46.38721" lon="8.02523">
        <ele>2110</ele>
        <time>2021-07-10T12:19:13.453Z</time>
      </trkpt>
      <trkpt lat="46.38721" lon="8.02521">
        <ele>2110</ele>
        <time>2021-07-10T12:19:14.453Z</time>
      </trkpt>
      <trkpt lat="46.38721" lon="8.02519">
        <ele>2110</ele>
        <time>2021-07-10T12:19:15.453Z</time>
      </trkpt>
      <trkpt lat="46.38721" lon="8.02518">
        <ele>2110</ele>
        <time>2021-07-10T12:19:16.452Z</time>
      </trkpt>
      <trkpt lat="46.3872" lon="8.02517">
        <ele>2110</ele>
        <time>2021-07-10T12:19:17.453Z</time>
      </trkpt>
      <trkpt lat="46.38719" lon="8.02517">
        <ele>2110</ele>
        <time>2021-07-10T12:19:18.453Z</time>
      </trkpt>
      <trkpt lat="46.38718" lon="8.02516">
        <ele>2110</ele>
        <time>2021-07-10T12:19:19.453Z</time>
      </trkpt>
      <trkpt lat="46.38718" lon="8.02515">
        <ele>2110</ele>
        <time>2021-07-10T12:19:20.453Z</time>
      </trkpt>
      <trkpt lat="46.38717" lon="8.02514">
        <ele>2110</ele>
        <time>2021-07-10T12:19:21.453Z</time>
      </trkpt>
      <trkpt lat="46.38717" lon="8.02513">
        <ele>2110</ele>
        <time>2021-07-10T12:19:22.453Z</time>
      </trkpt>
      <trkpt lat="46.38717" lon="8.02511">
        <ele>2110</ele>
        <time>2021-07-10T12:19:23.452Z</time>
      </trkpt>
      <trkpt lat="46.38716" lon="8.02509">
        <ele>2109</ele>
        <time>2021-07-10T12:19:24.453Z</time>
      </trkpt>
      <trkpt lat="46.38716" lon="8.02508">
        <ele>2109</ele>
        <time>2021-07-10T12:19:25.453Z</time>
      </trkpt>
      <trkpt lat="46.38716" lon="8.02506">
        <ele>2109</ele>
        <time>2021-07-10T12:19:26.453Z</time>
      </trkpt>
      <trkpt lat="46.38715" lon="8.02505">
        <ele>2109</ele>
        <time>2021-07-10T12:19:27.453Z</time>
      </trkpt>
      <trkpt lat="46.38714" lon="8.02505">
        <ele>2109</ele>
        <time>2021-07-10T12:19:28.453Z</time>
      </trkpt>
      <trkpt lat="46.38713" lon="8.02504">
        <ele>2109</ele>
        <time>2021-07-10T12:19:29.452Z</time>
      </trkpt>
      <trkpt lat="46.38712" lon="8.02503">
        <ele>2109</ele>
        <time>2021-07-10T12:19:30.453Z</time>
      </trkpt>
      <trkpt lat="46.38711" lon="8.02501">
        <ele>2109</ele>
        <time>2021-07-10T12:19:31.453Z</time>
      </trkpt>
      <trkpt lat="46.3871" lon="8.025">
        <ele>2109</ele>
        <time>2021-07-10T12:19:32.452Z</time>
      </trkpt>
      <trkpt lat="46.38709" lon="8.02498">
        <ele>2109</ele>
        <time>2021-07-10T12:19:33.453Z</time>
      </trkpt>
      <trkpt lat="46.38708" lon="8.02497">
        <ele>2109</ele>
        <time>2021-07-10T12:19:34.453Z</time>
      </trkpt>
      <trkpt lat="46.38708" lon="8.02495">
        <ele>2109</ele>
        <time>2021-07-10T12:19:35.453Z</time>
      </trkpt>
      <trkpt lat="46.38707" lon="8.02494">
        <ele>2109</ele>
        <time>2021-07-10T12:19:36.453Z</time>
      </trkpt>
      <trkpt lat="46.38707" lon="8.02492">
        <ele>2109</ele>
        <time>2021-07-10T12:19:37.453Z</time>
      </trkpt>
      <trkpt lat="46.38707" lon="8.02491">
        <ele>2109</ele>
        <time>2021-07-10T12:19:38.452Z</time>
      </trkpt>
      <trkpt lat="46.38706" lon="8.0249">
        <ele>2109</ele>
        <time>2021-07-10T12:19:39.453Z</time>
      </trkpt>
      <trkpt lat="46.38707" lon="8.02487">
        <ele>2109</ele>
        <time>2021-07-10T12:19:40.453Z</time>
      </trkpt>
      <trkpt lat="46.38706" lon="8.02485">
        <ele>2109</ele>
        <time>2021-07-10T12:19:41.453Z</time>
      </trkpt>
      <trkpt lat="46.38706" lon="8.02483">
        <ele>2109</ele>
        <time>2021-07-10T12:19:42.452Z</time>
      </trkpt>
      <trkpt lat="46.38706" lon="8.02482">
        <ele>2109</ele>
        <time>2021-07-10T12:19:43.453Z</time>
      </trkpt>
      <trkpt lat="46.38705" lon="8.0248">
        <ele>2109</ele>
        <time>2021-07-10T12:19:44.452Z</time>
      </trkpt>
      <trkpt lat="46.38705" lon="8.02478">
        <ele>2108</ele>
        <time>2021-07-10T12:19:45.453Z</time>
      </trkpt>
      <trkpt lat="46.38705" lon="8.02476">
        <ele>2108</ele>
        <time>2021-07-10T12:19:46.452Z</time>
      </trkpt>
      <trkpt lat="46.38704" lon="8.02474">
        <ele>2108</ele>
        <time>2021-07-10T12:19:47.452Z</time>
      </trkpt>
      <trkpt lat="46.38703" lon="8.02472">
        <ele>2108</ele>
        <time>2021-07-10T12:19:48.452Z</time>
      </trkpt>
      <trkpt lat="46.38702" lon="8.02469">
        <ele>2108</ele>
        <time>2021-07-10T12:19:49.453Z</time>
      </trkpt>
      <trkpt lat="46.38701" lon="8.02466">
        <ele>2108</ele>
        <time>2021-07-10T12:19:50.453Z</time>
      </trkpt>
      <trkpt lat="46.387" lon="8.02464">
        <ele>2109</ele>
        <time>2021-07-10T12:19:51.453Z</time>
      </trkpt>
      <trkpt lat="46.38699" lon="8.02462">
        <ele>2109</ele>
        <time>2021-07-10T12:19:52.452Z</time>
      </trkpt>
      <trkpt lat="46.38698" lon="8.02461">
        <ele>2110</ele>
        <time>2021-07-10T12:19:53.452Z</time>
      </trkpt>
      <trkpt lat="46.38697" lon="8.0246">
        <ele>2110</ele>
        <time>2021-07-10T12:19:54.453Z</time>
      </trkpt>
      <trkpt lat="46.38696" lon="8.0246">
        <ele>2110</ele>
        <time>2021-07-10T12:19:55.453Z</time>
      </trkpt>
      <trkpt lat="46.38695" lon="8.0246">
        <ele>2110</ele>
        <time>2021-07-10T12:19:56.452Z</time>
      </trkpt>
      <trkpt lat="46.38694" lon="8.0246">
        <ele>2110</ele>
        <time>2021-07-10T12:19:57.452Z</time>
      </trkpt>
      <trkpt lat="46.38694" lon="8.0246">
        <ele>2110</ele>
        <time>2021-07-10T12:19:58.453Z</time>
      </trkpt>
      <trkpt lat="46.38694" lon="8.02467">
        <ele>2119</ele>
        <time>2021-07-10T12:19:59.453Z</time>
      </trkpt>
      <trkpt lat="46.38695" lon="8.02467">
        <ele>2119</ele>
        <time>2021-07-10T12:20:00.452Z</time>
      </trkpt>
      <trkpt lat="46.38695" lon="8.02467">
        <ele>2118</ele>
        <time>2021-07-10T12:20:01.452Z</time>
      </trkpt>
      <trkpt lat="46.38695" lon="8.02467">
        <ele>2118</ele>
        <time>2021-07-10T12:20:02.453Z</time>
      </trkpt>
      <trkpt lat="46.38694" lon="8.02467">
        <ele>2118</ele>
        <time>2021-07-10T12:20:03.453Z</time>
      </trkpt>
      <trkpt lat="46.38694" lon="8.02467">
        <ele>2117</ele>
        <time>2021-07-10T12:20:04.453Z</time>
      </trkpt>
      <trkpt lat="46.38694" lon="8.02466">
        <ele>2117</ele>
        <time>2021-07-10T12:20:05.453Z</time>
      </trkpt>
      <trkpt lat="46.38694" lon="8.02466">
        <ele>2116</ele>
        <time>2021-07-10T12:20:06.453Z</time>
      </trkpt>
      <trkpt lat="46.38694" lon="8.02467">
        <ele>2115</ele>
        <time>2021-07-10T12:20:07.453Z</time>
      </trkpt>
      <trkpt lat="46.38694" lon="8.02467">
        <ele>2115</ele>
        <time>2021-07-10T12:20:08.452Z</time>
      </trkpt>
      <trkpt lat="46.38694" lon="8.02467">
        <ele>2115</ele>
        <time>2021-07-10T12:20:09.453Z</time>
      </trkpt>
      <trkpt lat="46.38694" lon="8.02467">
        <ele>2115</ele>
        <time>2021-07-10T12:20:10.452Z</time>
      </trkpt>
      <trkpt lat="46.38694" lon="8.02467">
        <ele>2114</ele>
        <time>2021-07-10T12:20:11.452Z</time>
      </trkpt>
      <trkpt lat="46.38694" lon="8.02468">
        <ele>2114</ele>
        <time>2021-07-10T12:20:12.453Z</time>
      </trkpt>
      <trkpt lat="46.38694" lon="8.02468">
        <ele>2114</ele>
        <time>2021-07-10T12:20:13.453Z</time>
      </trkpt>
      <trkpt lat="46.38694" lon="8.02468">
        <ele>2113</ele>
        <time>2021-07-10T12:20:14.452Z</time>
      </trkpt>
      <trkpt lat="46.38695" lon="8.02469">
        <ele>2113</ele>
        <time>2021-07-10T12:20:15.452Z</time>
      </trkpt>
      <trkpt lat="46.38695" lon="8.02469">
        <ele>2113</ele>
        <time>2021-07-10T12:20:16.452Z</time>
      </trkpt>
      <trkpt lat="46.38695" lon="8.02469">
        <ele>2113</ele>
        <time>2021-07-10T12:20:17.452Z</time>
      </trkpt>
      <trkpt lat="46.38695" lon="8.02469">
        <ele>2113</ele>
        <time>2021-07-10T12:20:18.452Z</time>
      </trkpt>
      <trkpt lat="46.38695" lon="8.02469">
        <ele>2113</ele>
        <time>2021-07-10T12:20:19.453Z</time>
      </trkpt>
      <trkpt lat="46.38696" lon="8.02469">
        <ele>2112</ele>
        <time>2021-07-10T12:20:20.452Z</time>
      </trkpt>
      <trkpt lat="46.38696" lon="8.02469">
        <ele>2111</ele>
        <time>2021-07-10T12:20:21.453Z</time>
      </trkpt>
      <trkpt lat="46.38696" lon="8.02469">
        <ele>2110</ele>
        <time>2021-07-10T12:20:22.452Z</time>
      </trkpt>
      <trkpt lat="46.38695" lon="8.02468">
        <ele>2109</ele>
        <time>2021-07-10T12:20:23.453Z</time>
      </trkpt>
      <trkpt lat="46.38696" lon="8.02467">
        <ele>2109</ele>
        <time>2021-07-10T12:20:24.453Z</time>
      </trkpt>
      <trkpt lat="46.38696" lon="8.02467">
        <ele>2108</ele>
        <time>2021-07-10T12:20:25.453Z</time>
      </trkpt>
      <trkpt lat="46.38696" lon="8.02467">
        <ele>2107</ele>
        <time>2021-07-10T12:20:26.452Z</time>
      </trkpt>
      <trkpt lat="46.38695" lon="8.02467">
        <ele>2106</ele>
        <time>2021-07-10T12:20:27.453Z</time>
      </trkpt>
      <trkpt lat="46.38696" lon="8.02467">
        <ele>2105</ele>
        <time>2021-07-10T12:20:28.452Z</time>
      </trkpt>
      <trkpt lat="46.38695" lon="8.02465">
        <ele>2105</ele>
        <time>2021-07-10T12:20:29.454Z</time>
      </trkpt>
      <trkpt lat="46.38696" lon="8.02469">
        <ele>2105</ele>
        <time>2021-07-10T12:20:30.455Z</time>
      </trkpt>
      <trkpt lat="46.38696" lon="8.02468">
        <ele>2105</ele>
        <time>2021-07-10T12:20:31.455Z</time>
      </trkpt>
      <trkpt lat="46.38696" lon="8.02467">
        <ele>2105</ele>
        <time>2021-07-10T12:20:32.454Z</time>
      </trkpt>
      <trkpt lat="46.38695" lon="8.02466">
        <ele>2105</ele>
        <time>2021-07-10T12:20:33.455Z</time>
      </trkpt>
      <trkpt lat="46.38695" lon="8.02466">
        <ele>2105</ele>
        <time>2021-07-10T12:20:34.455Z</time>
      </trkpt>
      <trkpt lat="46.38694" lon="8.02465">
        <ele>2105</ele>
        <time>2021-07-10T12:20:35.455Z</time>
      </trkpt>
      <trkpt lat="46.38691" lon="8.02459">
        <ele>2110</ele>
        <time>2021-07-10T12:20:36.456Z</time>
      </trkpt>
      <trkpt lat="46.38692" lon="8.02458">
        <ele>2110</ele>
        <time>2021-07-10T12:20:37.456Z</time>
      </trkpt>
      <trkpt lat="46.38694" lon="8.02457">
        <ele>2110</ele>
        <time>2021-07-10T12:20:38.455Z</time>
      </trkpt>
      <trkpt lat="46.38695" lon="8.02456">
        <ele>2110</ele>
        <time>2021-07-10T12:20:39.456Z</time>
      </trkpt>
      <trkpt lat="46.38695" lon="8.02455">
        <ele>2110</ele>
        <time>2021-07-10T12:20:40.456Z</time>
      </trkpt>
      <trkpt lat="46.38696" lon="8.02453">
        <ele>2110</ele>
        <time>2021-07-10T12:20:41.456Z</time>
      </trkpt>
      <trkpt lat="46.38695" lon="8.02452">
        <ele>2110</ele>
        <time>2021-07-10T12:20:42.456Z</time>
      </trkpt>
      <trkpt lat="46.38695" lon="8.02449">
        <ele>2110</ele>
        <time>2021-07-10T12:20:43.456Z</time>
      </trkpt>
      <trkpt lat="46.38695" lon="8.02447">
        <ele>2109</ele>
        <time>2021-07-10T12:20:44.456Z</time>
      </trkpt>
      <trkpt lat="46.38695" lon="8.02445">
        <ele>2109</ele>
        <time>2021-07-10T12:20:45.456Z</time>
      </trkpt>
      <trkpt lat="46.38695" lon="8.02443">
        <ele>2108</ele>
        <time>2021-07-10T12:20:46.456Z</time>
      </trkpt>
      <trkpt lat="46.38695" lon="8.0244">
        <ele>2108</ele>
        <time>2021-07-10T12:20:47.456Z</time>
      </trkpt>
      <trkpt lat="46.38695" lon="8.02439">
        <ele>2107</ele>
        <time>2021-07-10T12:20:48.455Z</time>
      </trkpt>
      <trkpt lat="46.38694" lon="8.02437">
        <ele>2106</ele>
        <time>2021-07-10T12:20:49.455Z</time>
      </trkpt>
      <trkpt lat="46.38694" lon="8.02436">
        <ele>2105</ele>
        <time>2021-07-10T12:20:50.456Z</time>
      </trkpt>
      <trkpt lat="46.38694" lon="8.02434">
        <ele>2104</ele>
        <time>2021-07-10T12:20:51.456Z</time>
      </trkpt>
      <trkpt lat="46.38694" lon="8.02433">
        <ele>2104</ele>
        <time>2021-07-10T12:20:52.455Z</time>
      </trkpt>
      <trkpt lat="46.38694" lon="8.02431">
        <ele>2103</ele>
        <time>2021-07-10T12:20:53.456Z</time>
      </trkpt>
      <trkpt lat="46.38693" lon="8.0243">
        <ele>2103</ele>
        <time>2021-07-10T12:20:54.456Z</time>
      </trkpt>
      <trkpt lat="46.38693" lon="8.02428">
        <ele>2102</ele>
        <time>2021-07-10T12:20:55.456Z</time>
      </trkpt>
      <trkpt lat="46.38693" lon="8.02427">
        <ele>2101</ele>
        <time>2021-07-10T12:20:56.456Z</time>
      </trkpt>
      <trkpt lat="46.38692" lon="8.02425">
        <ele>2101</ele>
        <time>2021-07-10T12:20:57.456Z</time>
      </trkpt>
      <trkpt lat="46.38691" lon="8.02424">
        <ele>2100</ele>
        <time>2021-07-10T12:20:58.456Z</time>
      </trkpt>
      <trkpt lat="46.38689" lon="8.02422">
        <ele>2101</ele>
        <time>2021-07-10T12:20:59.455Z</time>
      </trkpt>
      <trkpt lat="46.38688" lon="8.02421">
        <ele>2101</ele>
        <time>2021-07-10T12:21:00.455Z</time>
      </trkpt>
      <trkpt lat="46.38687" lon="8.0242">
        <ele>2101</ele>
        <time>2021-07-10T12:21:01.455Z</time>
      </trkpt>
      <trkpt lat="46.38686" lon="8.0242">
        <ele>2102</ele>
        <time>2021-07-10T12:21:02.455Z</time>
      </trkpt>
      <trkpt lat="46.38685" lon="8.02419">
        <ele>2102</ele>
        <time>2021-07-10T12:21:03.456Z</time>
      </trkpt>
      <trkpt lat="46.38684" lon="8.02419">
        <ele>2103</ele>
        <time>2021-07-10T12:21:04.456Z</time>
      </trkpt>
      <trkpt lat="46.38682" lon="8.02418">
        <ele>2102</ele>
        <time>2021-07-10T12:21:05.456Z</time>
      </trkpt>
      <trkpt lat="46.38681" lon="8.02418">
        <ele>2102</ele>
        <time>2021-07-10T12:21:06.455Z</time>
      </trkpt>
      <trkpt lat="46.3868" lon="8.02418">
        <ele>2102</ele>
        <time>2021-07-10T12:21:07.456Z</time>
      </trkpt>
      <trkpt lat="46.38679" lon="8.02418">
        <ele>2102</ele>
        <time>2021-07-10T12:21:08.456Z</time>
      </trkpt>
      <trkpt lat="46.38679" lon="8.02418">
        <ele>2101</ele>
        <time>2021-07-10T12:21:09.455Z</time>
      </trkpt>
      <trkpt lat="46.3868" lon="8.02418">
        <ele>2101</ele>
        <time>2021-07-10T12:21:10.455Z</time>
      </trkpt>
      <trkpt lat="46.3868" lon="8.02418">
        <ele>2100</ele>
        <time>2021-07-10T12:21:11.455Z</time>
      </trkpt>
      <trkpt lat="46.3868" lon="8.02417">
        <ele>2100</ele>
        <time>2021-07-10T12:21:12.455Z</time>
      </trkpt>
      <trkpt lat="46.3868" lon="8.02417">
        <ele>2100</ele>
        <time>2021-07-10T12:21:13.455Z</time>
      </trkpt>
      <trkpt lat="46.3868" lon="8.02416">
        <ele>2099</ele>
        <time>2021-07-10T12:21:14.455Z</time>
      </trkpt>
      <trkpt lat="46.38679" lon="8.02416">
        <ele>2099</ele>
        <time>2021-07-10T12:21:15.455Z</time>
      </trkpt>
      <trkpt lat="46.38678" lon="8.02414">
        <ele>2099</ele>
        <time>2021-07-10T12:21:16.456Z</time>
      </trkpt>
      <trkpt lat="46.38677" lon="8.02413">
        <ele>2099</ele>
        <time>2021-07-10T12:21:17.456Z</time>
      </trkpt>
      <trkpt lat="46.38677" lon="8.02412">
        <ele>2098</ele>
        <time>2021-07-10T12:21:18.456Z</time>
      </trkpt>
      <trkpt lat="46.38677" lon="8.0241">
        <ele>2098</ele>
        <time>2021-07-10T12:21:19.455Z</time>
      </trkpt>
      <trkpt lat="46.38676" lon="8.02409">
        <ele>2098</ele>
        <time>2021-07-10T12:21:20.455Z</time>
      </trkpt>
      <trkpt lat="46.38675" lon="8.02408">
        <ele>2099</ele>
        <time>2021-07-10T12:21:21.456Z</time>
      </trkpt>
      <trkpt lat="46.38675" lon="8.02407">
        <ele>2099</ele>
        <time>2021-07-10T12:21:22.456Z</time>
      </trkpt>
      <trkpt lat="46.38674" lon="8.02407">
        <ele>2100</ele>
        <time>2021-07-10T12:21:23.456Z</time>
      </trkpt>
      <trkpt lat="46.38673" lon="8.02406">
        <ele>2100</ele>
        <time>2021-07-10T12:21:24.456Z</time>
      </trkpt>
      <trkpt lat="46.38672" lon="8.02405">
        <ele>2100</ele>
        <time>2021-07-10T12:21:25.456Z</time>
      </trkpt>
      <trkpt lat="46.38671" lon="8.02404">
        <ele>2101</ele>
        <time>2021-07-10T12:21:26.455Z</time>
      </trkpt>
      <trkpt lat="46.38671" lon="8.02403">
        <ele>2101</ele>
        <time>2021-07-10T12:21:27.456Z</time>
      </trkpt>
      <trkpt lat="46.38671" lon="8.02403">
        <ele>2101</ele>
        <time>2021-07-10T12:21:28.456Z</time>
      </trkpt>
      <trkpt lat="46.38671" lon="8.02403">
        <ele>2102</ele>
        <time>2021-07-10T12:21:29.456Z</time>
      </trkpt>
      <trkpt lat="46.38671" lon="8.02402">
        <ele>2102</ele>
        <time>2021-07-10T12:21:30.456Z</time>
      </trkpt>
      <trkpt lat="46.38671" lon="8.02401">
        <ele>2102</ele>
        <time>2021-07-10T12:21:31.456Z</time>
      </trkpt>
      <trkpt lat="46.38671" lon="8.024">
        <ele>2102</ele>
        <time>2021-07-10T12:21:32.455Z</time>
      </trkpt>
      <trkpt lat="46.3867" lon="8.02398">
        <ele>2102</ele>
        <time>2021-07-10T12:21:33.455Z</time>
      </trkpt>
      <trkpt lat="46.3867" lon="8.02397">
        <ele>2102</ele>
        <time>2021-07-10T12:21:34.456Z</time>
      </trkpt>
      <trkpt lat="46.38669" lon="8.02396">
        <ele>2102</ele>
        <time>2021-07-10T12:21:35.456Z</time>
      </trkpt>
      <trkpt lat="46.38669" lon="8.02394">
        <ele>2102</ele>
        <time>2021-07-10T12:21:36.455Z</time>
      </trkpt>
      <trkpt lat="46.38668" lon="8.02393">
        <ele>2102</ele>
        <time>2021-07-10T12:21:37.455Z</time>
      </trkpt>
      <trkpt lat="46.38668" lon="8.02392">
        <ele>2102</ele>
        <time>2021-07-10T12:21:38.455Z</time>
      </trkpt>
      <trkpt lat="46.38668" lon="8.0239">
        <ele>2102</ele>
        <time>2021-07-10T12:21:39.456Z</time>
      </trkpt>
      <trkpt lat="46.38667" lon="8.02389">
        <ele>2102</ele>
        <time>2021-07-10T12:21:40.456Z</time>
      </trkpt>
      <trkpt lat="46.38667" lon="8.02387">
        <ele>2101</ele>
        <time>2021-07-10T12:21:41.456Z</time>
      </trkpt>
      <trkpt lat="46.38666" lon="8.02386">
        <ele>2101</ele>
        <time>2021-07-10T12:21:42.455Z</time>
      </trkpt>
      <trkpt lat="46.38666" lon="8.02385">
        <ele>2101</ele>
        <time>2021-07-10T12:21:43.456Z</time>
      </trkpt>
      <trkpt lat="46.38666" lon="8.02383">
        <ele>2101</ele>
        <time>2021-07-10T12:21:44.456Z</time>
      </trkpt>
      <trkpt lat="46.38667" lon="8.02382">
        <ele>2101</ele>
        <time>2021-07-10T12:21:45.456Z</time>
      </trkpt>
      <trkpt lat="46.38668" lon="8.02381">
        <ele>2101</ele>
        <time>2021-07-10T12:21:46.456Z</time>
      </trkpt>
      <trkpt lat="46.38667" lon="8.0238">
        <ele>2100</ele>
        <time>2021-07-10T12:21:47.456Z</time>
      </trkpt>
      <trkpt lat="46.38667" lon="8.02378">
        <ele>2100</ele>
        <time>2021-07-10T12:21:48.456Z</time>
      </trkpt>
      <trkpt lat="46.38666" lon="8.02377">
        <ele>2100</ele>
        <time>2021-07-10T12:21:49.456Z</time>
      </trkpt>
      <trkpt lat="46.38664" lon="8.02375">
        <ele>2099</ele>
        <time>2021-07-10T12:21:50.456Z</time>
      </trkpt>
      <trkpt lat="46.38663" lon="8.02374">
        <ele>2099</ele>
        <time>2021-07-10T12:21:51.455Z</time>
      </trkpt>
      <trkpt lat="46.38662" lon="8.02372">
        <ele>2098</ele>
        <time>2021-07-10T12:21:52.456Z</time>
      </trkpt>
      <trkpt lat="46.38661" lon="8.0237">
        <ele>2097</ele>
        <time>2021-07-10T12:21:53.456Z</time>
      </trkpt>
      <trkpt lat="46.3866" lon="8.02369">
        <ele>2096</ele>
        <time>2021-07-10T12:21:54.455Z</time>
      </trkpt>
      <trkpt lat="46.3866" lon="8.02367">
        <ele>2095</ele>
        <time>2021-07-10T12:21:55.455Z</time>
      </trkpt>
      <trkpt lat="46.38659" lon="8.02366">
        <ele>2095</ele>
        <time>2021-07-10T12:21:56.456Z</time>
      </trkpt>
      <trkpt lat="46.38659" lon="8.02364">
        <ele>2094</ele>
        <time>2021-07-10T12:21:57.456Z</time>
      </trkpt>
      <trkpt lat="46.38658" lon="8.02362">
        <ele>2093</ele>
        <time>2021-07-10T12:21:58.456Z</time>
      </trkpt>
      <trkpt lat="46.38657" lon="8.02361">
        <ele>2092</ele>
        <time>2021-07-10T12:21:59.456Z</time>
      </trkpt>
      <trkpt lat="46.38656" lon="8.02361">
        <ele>2092</ele>
        <time>2021-07-10T12:22:00.456Z</time>
      </trkpt>
      <trkpt lat="46.38656" lon="8.02361">
        <ele>2092</ele>
        <time>2021-07-10T12:22:01.455Z</time>
      </trkpt>
      <trkpt lat="46.38655" lon="8.02361">
        <ele>2091</ele>
        <time>2021-07-10T12:22:02.456Z</time>
      </trkpt>
      <trkpt lat="46.38655" lon="8.02361">
        <ele>2091</ele>
        <time>2021-07-10T12:22:03.455Z</time>
      </trkpt>
      <trkpt lat="46.38655" lon="8.02361">
        <ele>2091</ele>
        <time>2021-07-10T12:22:04.456Z</time>
      </trkpt>
      <trkpt lat="46.38654" lon="8.02361">
        <ele>2090</ele>
        <time>2021-07-10T12:22:05.455Z</time>
      </trkpt>
      <trkpt lat="46.38654" lon="8.02361">
        <ele>2090</ele>
        <time>2021-07-10T12:22:06.456Z</time>
      </trkpt>
      <trkpt lat="46.38652" lon="8.02359">
        <ele>2090</ele>
        <time>2021-07-10T12:22:07.456Z</time>
      </trkpt>
      <trkpt lat="46.38652" lon="8.02358">
        <ele>2090</ele>
        <time>2021-07-10T12:22:08.456Z</time>
      </trkpt>
      <trkpt lat="46.38652" lon="8.02358">
        <ele>2091</ele>
        <time>2021-07-10T12:22:09.456Z</time>
      </trkpt>
      <trkpt lat="46.38652" lon="8.02357">
        <ele>2091</ele>
        <time>2021-07-10T12:22:10.455Z</time>
      </trkpt>
      <trkpt lat="46.38652" lon="8.02356">
        <ele>2091</ele>
        <time>2021-07-10T12:22:11.456Z</time>
      </trkpt>
      <trkpt lat="46.38652" lon="8.02355">
        <ele>2091</ele>
        <time>2021-07-10T12:22:12.456Z</time>
      </trkpt>
      <trkpt lat="46.38651" lon="8.02353">
        <ele>2091</ele>
        <time>2021-07-10T12:22:13.456Z</time>
      </trkpt>
      <trkpt lat="46.3865" lon="8.02352">
        <ele>2091</ele>
        <time>2021-07-10T12:22:14.455Z</time>
      </trkpt>
      <trkpt lat="46.38649" lon="8.02351">
        <ele>2091</ele>
        <time>2021-07-10T12:22:15.456Z</time>
      </trkpt>
      <trkpt lat="46.38648" lon="8.0235">
        <ele>2091</ele>
        <time>2021-07-10T12:22:16.456Z</time>
      </trkpt>
      <trkpt lat="46.38647" lon="8.0235">
        <ele>2091</ele>
        <time>2021-07-10T12:22:17.456Z</time>
      </trkpt>
      <trkpt lat="46.38646" lon="8.02349">
        <ele>2092</ele>
        <time>2021-07-10T12:22:18.455Z</time>
      </trkpt>
      <trkpt lat="46.38645" lon="8.02349">
        <ele>2092</ele>
        <time>2021-07-10T12:22:19.455Z</time>
      </trkpt>
      <trkpt lat="46.38644" lon="8.02349">
        <ele>2093</ele>
        <time>2021-07-10T12:22:20.456Z</time>
      </trkpt>
      <trkpt lat="46.38643" lon="8.02349">
        <ele>2093</ele>
        <time>2021-07-10T12:22:21.455Z</time>
      </trkpt>
      <trkpt lat="46.38643" lon="8.02349">
        <ele>2093</ele>
        <time>2021-07-10T12:22:22.456Z</time>
      </trkpt>
      <trkpt lat="46.38643" lon="8.0235">
        <ele>2093</ele>
        <time>2021-07-10T12:22:23.456Z</time>
      </trkpt>
      <trkpt lat="46.38643" lon="8.02349">
        <ele>2093</ele>
        <time>2021-07-10T12:22:24.456Z</time>
      </trkpt>
      <trkpt lat="46.38643" lon="8.02349">
        <ele>2092</ele>
        <time>2021-07-10T12:22:25.455Z</time>
      </trkpt>
      <trkpt lat="46.38644" lon="8.02348">
        <ele>2091</ele>
        <time>2021-07-10T12:22:26.457Z</time>
      </trkpt>
      <trkpt lat="46.38644" lon="8.02348">
        <ele>2090</ele>
        <time>2021-07-10T12:22:27.457Z</time>
      </trkpt>
      <trkpt lat="46.38644" lon="8.02348">
        <ele>2090</ele>
        <time>2021-07-10T12:22:28.456Z</time>
      </trkpt>
      <trkpt lat="46.38645" lon="8.02346">
        <ele>2089</ele>
        <time>2021-07-10T12:22:29.456Z</time>
      </trkpt>
      <trkpt lat="46.38644" lon="8.02345">
        <ele>2088</ele>
        <time>2021-07-10T12:22:30.456Z</time>
      </trkpt>
      <trkpt lat="46.38644" lon="8.02342">
        <ele>2087</ele>
        <time>2021-07-10T12:22:31.456Z</time>
      </trkpt>
      <trkpt lat="46.38643" lon="8.0234">
        <ele>2086</ele>
        <time>2021-07-10T12:22:32.456Z</time>
      </trkpt>
      <trkpt lat="46.38643" lon="8.02339">
        <ele>2086</ele>
        <time>2021-07-10T12:22:33.456Z</time>
      </trkpt>
      <trkpt lat="46.38642" lon="8.02337">
        <ele>2085</ele>
        <time>2021-07-10T12:22:34.456Z</time>
      </trkpt>
      <trkpt lat="46.38642" lon="8.02336">
        <ele>2084</ele>
        <time>2021-07-10T12:22:35.456Z</time>
      </trkpt>
      <trkpt lat="46.38641" lon="8.02335">
        <ele>2083</ele>
        <time>2021-07-10T12:22:36.456Z</time>
      </trkpt>
      <trkpt lat="46.3864" lon="8.02335">
        <ele>2082</ele>
        <time>2021-07-10T12:22:37.457Z</time>
      </trkpt>
      <trkpt lat="46.38639" lon="8.02333">
        <ele>2081</ele>
        <time>2021-07-10T12:22:38.457Z</time>
      </trkpt>
      <trkpt lat="46.38638" lon="8.02332">
        <ele>2081</ele>
        <time>2021-07-10T12:22:39.456Z</time>
      </trkpt>
      <trkpt lat="46.38638" lon="8.02331">
        <ele>2080</ele>
        <time>2021-07-10T12:22:40.456Z</time>
      </trkpt>
      <trkpt lat="46.38636" lon="8.02331">
        <ele>2080</ele>
        <time>2021-07-10T12:22:41.456Z</time>
      </trkpt>
      <trkpt lat="46.38635" lon="8.02331">
        <ele>2079</ele>
        <time>2021-07-10T12:22:42.457Z</time>
      </trkpt>
      <trkpt lat="46.38634" lon="8.02331">
        <ele>2079</ele>
        <time>2021-07-10T12:22:43.457Z</time>
      </trkpt>
      <trkpt lat="46.38633" lon="8.0233">
        <ele>2078</ele>
        <time>2021-07-10T12:22:44.456Z</time>
      </trkpt>
      <trkpt lat="46.38631" lon="8.02329">
        <ele>2078</ele>
        <time>2021-07-10T12:22:45.456Z</time>
      </trkpt>
      <trkpt lat="46.3863" lon="8.02328">
        <ele>2078</ele>
        <time>2021-07-10T12:22:46.456Z</time>
      </trkpt>
      <trkpt lat="46.38628" lon="8.02327">
        <ele>2078</ele>
        <time>2021-07-10T12:22:47.456Z</time>
      </trkpt>
      <trkpt lat="46.38627" lon="8.02326">
        <ele>2079</ele>
        <time>2021-07-10T12:22:48.456Z</time>
      </trkpt>
      <trkpt lat="46.38625" lon="8.02325">
        <ele>2079</ele>
        <time>2021-07-10T12:22:49.456Z</time>
      </trkpt>
      <trkpt lat="46.38624" lon="8.02324">
        <ele>2080</ele>
        <time>2021-07-10T12:22:50.456Z</time>
      </trkpt>
      <trkpt lat="46.38624" lon="8.02323">
        <ele>2080</ele>
        <time>2021-07-10T12:22:51.456Z</time>
      </trkpt>
      <trkpt lat="46.38623" lon="8.02321">
        <ele>2080</ele>
        <time>2021-07-10T12:22:52.456Z</time>
      </trkpt>
      <trkpt lat="46.38623" lon="8.02319">
        <ele>2080</ele>
        <time>2021-07-10T12:22:53.456Z</time>
      </trkpt>
      <trkpt lat="46.38622" lon="8.02317">
        <ele>2080</ele>
        <time>2021-07-10T12:22:54.456Z</time>
      </trkpt>
      <trkpt lat="46.38622" lon="8.02315">
        <ele>2080</ele>
        <time>2021-07-10T12:22:55.456Z</time>
      </trkpt>
      <trkpt lat="46.38621" lon="8.02313">
        <ele>2080</ele>
        <time>2021-07-10T12:22:56.456Z</time>
      </trkpt>
      <trkpt lat="46.3862" lon="8.02311">
        <ele>2081</ele>
        <time>2021-07-10T12:22:57.456Z</time>
      </trkpt>
      <trkpt lat="46.38619" lon="8.02309">
        <ele>2081</ele>
        <time>2021-07-10T12:22:58.456Z</time>
      </trkpt>
      <trkpt lat="46.38618" lon="8.02307">
        <ele>2081</ele>
        <time>2021-07-10T12:22:59.457Z</time>
      </trkpt>
      <trkpt lat="46.38617" lon="8.02306">
        <ele>2081</ele>
        <time>2021-07-10T12:23:00.456Z</time>
      </trkpt>
      <trkpt lat="46.38616" lon="8.02304">
        <ele>2081</ele>
        <time>2021-07-10T12:23:01.456Z</time>
      </trkpt>
      <trkpt lat="46.38615" lon="8.02303">
        <ele>2081</ele>
        <time>2021-07-10T12:23:02.456Z</time>
      </trkpt>
      <trkpt lat="46.38614" lon="8.02302">
        <ele>2081</ele>
        <time>2021-07-10T12:23:03.456Z</time>
      </trkpt>
      <trkpt lat="46.38614" lon="8.023">
        <ele>2080</ele>
        <time>2021-07-10T12:23:04.456Z</time>
      </trkpt>
      <trkpt lat="46.38612" lon="8.02299">
        <ele>2081</ele>
        <time>2021-07-10T12:23:05.456Z</time>
      </trkpt>
      <trkpt lat="46.38612" lon="8.02298">
        <ele>2080</ele>
        <time>2021-07-10T12:23:06.456Z</time>
      </trkpt>
      <trkpt lat="46.38611" lon="8.02296">
        <ele>2080</ele>
        <time>2021-07-10T12:23:07.456Z</time>
      </trkpt>
      <trkpt lat="46.3861" lon="8.02295">
        <ele>2080</ele>
        <time>2021-07-10T12:23:08.457Z</time>
      </trkpt>
      <trkpt lat="46.38609" lon="8.02294">
        <ele>2079</ele>
        <time>2021-07-10T12:23:09.457Z</time>
      </trkpt>
      <trkpt lat="46.38608" lon="8.02292">
        <ele>2079</ele>
        <time>2021-07-10T12:23:10.456Z</time>
      </trkpt>
      <trkpt lat="46.38607" lon="8.02291">
        <ele>2078</ele>
        <time>2021-07-10T12:23:11.456Z</time>
      </trkpt>
      <trkpt lat="46.38606" lon="8.02289">
        <ele>2078</ele>
        <time>2021-07-10T12:23:12.457Z</time>
      </trkpt>
      <trkpt lat="46.38606" lon="8.02287">
        <ele>2077</ele>
        <time>2021-07-10T12:23:13.456Z</time>
      </trkpt>
      <trkpt lat="46.38605" lon="8.02286">
        <ele>2077</ele>
        <time>2021-07-10T12:23:14.456Z</time>
      </trkpt>
      <trkpt lat="46.38605" lon="8.02285">
        <ele>2077</ele>
        <time>2021-07-10T12:23:15.456Z</time>
      </trkpt>
      <trkpt lat="46.38604" lon="8.02285">
        <ele>2077</ele>
        <time>2021-07-10T12:23:16.456Z</time>
      </trkpt>
      <trkpt lat="46.38604" lon="8.02284">
        <ele>2077</ele>
        <time>2021-07-10T12:23:17.456Z</time>
      </trkpt>
      <trkpt lat="46.38603" lon="8.02283">
        <ele>2076</ele>
        <time>2021-07-10T12:23:18.456Z</time>
      </trkpt>
      <trkpt lat="46.38602" lon="8.02282">
        <ele>2077</ele>
        <time>2021-07-10T12:23:19.456Z</time>
      </trkpt>
      <trkpt lat="46.38601" lon="8.02281">
        <ele>2077</ele>
        <time>2021-07-10T12:23:20.456Z</time>
      </trkpt>
      <trkpt lat="46.38601" lon="8.0228">
        <ele>2077</ele>
        <time>2021-07-10T12:23:21.456Z</time>
      </trkpt>
      <trkpt lat="46.386" lon="8.02279">
        <ele>2077</ele>
        <time>2021-07-10T12:23:22.457Z</time>
      </trkpt>
      <trkpt lat="46.38599" lon="8.02279">
        <ele>2076</ele>
        <time>2021-07-10T12:23:23.456Z</time>
      </trkpt>
      <trkpt lat="46.38599" lon="8.02278">
        <ele>2076</ele>
        <time>2021-07-10T12:23:24.456Z</time>
      </trkpt>
      <trkpt lat="46.38598" lon="8.02278">
        <ele>2075</ele>
        <time>2021-07-10T12:23:25.456Z</time>
      </trkpt>
      <trkpt lat="46.38598" lon="8.02277">
        <ele>2075</ele>
        <time>2021-07-10T12:23:26.456Z</time>
      </trkpt>
      <trkpt lat="46.38598" lon="8.02276">
        <ele>2074</ele>
        <time>2021-07-10T12:23:27.456Z</time>
      </trkpt>
      <trkpt lat="46.38597" lon="8.02275">
        <ele>2074</ele>
        <time>2021-07-10T12:23:28.456Z</time>
      </trkpt>
      <trkpt lat="46.38597" lon="8.02273">
        <ele>2074</ele>
        <time>2021-07-10T12:23:29.456Z</time>
      </trkpt>
      <trkpt lat="46.38596" lon="8.02272">
        <ele>2074</ele>
        <time>2021-07-10T12:23:30.456Z</time>
      </trkpt>
      <trkpt lat="46.38595" lon="8.02271">
        <ele>2074</ele>
        <time>2021-07-10T12:23:31.456Z</time>
      </trkpt>
      <trkpt lat="46.38595" lon="8.0227">
        <ele>2074</ele>
        <time>2021-07-10T12:23:32.456Z</time>
      </trkpt>
      <trkpt lat="46.38594" lon="8.02269">
        <ele>2074</ele>
        <time>2021-07-10T12:23:33.456Z</time>
      </trkpt>
      <trkpt lat="46.38593" lon="8.02268">
        <ele>2074</ele>
        <time>2021-07-10T12:23:34.456Z</time>
      </trkpt>
      <trkpt lat="46.38593" lon="8.02267">
        <ele>2074</ele>
        <time>2021-07-10T12:23:35.456Z</time>
      </trkpt>
      <trkpt lat="46.38592" lon="8.02266">
        <ele>2074</ele>
        <time>2021-07-10T12:23:36.456Z</time>
      </trkpt>
      <trkpt lat="46.38591" lon="8.02266">
        <ele>2073</ele>
        <time>2021-07-10T12:23:37.457Z</time>
      </trkpt>
      <trkpt lat="46.3859" lon="8.02266">
        <ele>2074</ele>
        <time>2021-07-10T12:23:38.457Z</time>
      </trkpt>
      <trkpt lat="46.38589" lon="8.02266">
        <ele>2074</ele>
        <time>2021-07-10T12:23:39.456Z</time>
      </trkpt>
      <trkpt lat="46.38587" lon="8.02265">
        <ele>2074</ele>
        <time>2021-07-10T12:23:40.456Z</time>
      </trkpt>
      <trkpt lat="46.38586" lon="8.02264">
        <ele>2074</ele>
        <time>2021-07-10T12:23:41.456Z</time>
      </trkpt>
      <trkpt lat="46.38585" lon="8.02263">
        <ele>2074</ele>
        <time>2021-07-10T12:23:42.456Z</time>
      </trkpt>
      <trkpt lat="46.38584" lon="8.02262">
        <ele>2074</ele>
        <time>2021-07-10T12:23:43.457Z</time>
      </trkpt>
      <trkpt lat="46.38582" lon="8.02262">
        <ele>2074</ele>
        <time>2021-07-10T12:23:44.456Z</time>
      </trkpt>
      <trkpt lat="46.38581" lon="8.02262">
        <ele>2074</ele>
        <time>2021-07-10T12:23:45.456Z</time>
      </trkpt>
      <trkpt lat="46.3858" lon="8.02262">
        <ele>2074</ele>
        <time>2021-07-10T12:23:46.456Z</time>
      </trkpt>
      <trkpt lat="46.38579" lon="8.02262">
        <ele>2074</ele>
        <time>2021-07-10T12:23:47.456Z</time>
      </trkpt>
      <trkpt lat="46.38579" lon="8.0226">
        <ele>2074</ele>
        <time>2021-07-10T12:23:48.456Z</time>
      </trkpt>
      <trkpt lat="46.38578" lon="8.02259">
        <ele>2074</ele>
        <time>2021-07-10T12:23:49.456Z</time>
      </trkpt>
      <trkpt lat="46.38578" lon="8.02257">
        <ele>2074</ele>
        <time>2021-07-10T12:23:50.456Z</time>
      </trkpt>
      <trkpt lat="46.38577" lon="8.02255">
        <ele>2074</ele>
        <time>2021-07-10T12:23:51.456Z</time>
      </trkpt>
      <trkpt lat="46.38576" lon="8.02254">
        <ele>2074</ele>
        <time>2021-07-10T12:23:52.456Z</time>
      </trkpt>
      <trkpt lat="46.38576" lon="8.02252">
        <ele>2074</ele>
        <time>2021-07-10T12:23:53.456Z</time>
      </trkpt>
      <trkpt lat="46.38575" lon="8.02251">
        <ele>2074</ele>
        <time>2021-07-10T12:23:54.456Z</time>
      </trkpt>
      <trkpt lat="46.38573" lon="8.02249">
        <ele>2074</ele>
        <time>2021-07-10T12:23:55.456Z</time>
      </trkpt>
      <trkpt lat="46.38572" lon="8.02249">
        <ele>2074</ele>
        <time>2021-07-10T12:23:56.456Z</time>
      </trkpt>
      <trkpt lat="46.38571" lon="8.02248">
        <ele>2074</ele>
        <time>2021-07-10T12:23:57.456Z</time>
      </trkpt>
      <trkpt lat="46.3857" lon="8.02247">
        <ele>2074</ele>
        <time>2021-07-10T12:23:58.456Z</time>
      </trkpt>
      <trkpt lat="46.3857" lon="8.02246">
        <ele>2074</ele>
        <time>2021-07-10T12:23:59.456Z</time>
      </trkpt>
      <trkpt lat="46.38569" lon="8.02245">
        <ele>2074</ele>
        <time>2021-07-10T12:24:00.456Z</time>
      </trkpt>
      <trkpt lat="46.38569" lon="8.02243">
        <ele>2074</ele>
        <time>2021-07-10T12:24:01.456Z</time>
      </trkpt>
      <trkpt lat="46.38569" lon="8.02241">
        <ele>2074</ele>
        <time>2021-07-10T12:24:02.456Z</time>
      </trkpt>
      <trkpt lat="46.38569" lon="8.0224">
        <ele>2074</ele>
        <time>2021-07-10T12:24:03.456Z</time>
      </trkpt>
      <trkpt lat="46.38568" lon="8.02238">
        <ele>2073</ele>
        <time>2021-07-10T12:24:04.456Z</time>
      </trkpt>
      <trkpt lat="46.38568" lon="8.02237">
        <ele>2073</ele>
        <time>2021-07-10T12:24:05.456Z</time>
      </trkpt>
      <trkpt lat="46.38568" lon="8.02236">
        <ele>2073</ele>
        <time>2021-07-10T12:24:06.456Z</time>
      </trkpt>
      <trkpt lat="46.38568" lon="8.02235">
        <ele>2073</ele>
        <time>2021-07-10T12:24:07.457Z</time>
      </trkpt>
      <trkpt lat="46.38568" lon="8.02234">
        <ele>2073</ele>
        <time>2021-07-10T12:24:08.456Z</time>
      </trkpt>
      <trkpt lat="46.38567" lon="8.02232">
        <ele>2073</ele>
        <time>2021-07-10T12:24:09.456Z</time>
      </trkpt>
      <trkpt lat="46.38566" lon="8.02231">
        <ele>2073</ele>
        <time>2021-07-10T12:24:10.456Z</time>
      </trkpt>
      <trkpt lat="46.38566" lon="8.0223">
        <ele>2073</ele>
        <time>2021-07-10T12:24:11.456Z</time>
      </trkpt>
      <trkpt lat="46.38565" lon="8.0223">
        <ele>2073</ele>
        <time>2021-07-10T12:24:12.456Z</time>
      </trkpt>
      <trkpt lat="46.38563" lon="8.02229">
        <ele>2072</ele>
        <time>2021-07-10T12:24:13.456Z</time>
      </trkpt>
      <trkpt lat="46.38562" lon="8.02229">
        <ele>2072</ele>
        <time>2021-07-10T12:24:14.456Z</time>
      </trkpt>
      <trkpt lat="46.38561" lon="8.02229">
        <ele>2072</ele>
        <time>2021-07-10T12:24:15.456Z</time>
      </trkpt>
      <trkpt lat="46.3856" lon="8.02228">
        <ele>2072</ele>
        <time>2021-07-10T12:24:16.456Z</time>
      </trkpt>
      <trkpt lat="46.38558" lon="8.02226">
        <ele>2072</ele>
        <time>2021-07-10T12:24:17.456Z</time>
      </trkpt>
      <trkpt lat="46.38558" lon="8.02224">
        <ele>2072</ele>
        <time>2021-07-10T12:24:18.456Z</time>
      </trkpt>
      <trkpt lat="46.38557" lon="8.02222">
        <ele>2071</ele>
        <time>2021-07-10T12:24:19.457Z</time>
      </trkpt>
      <trkpt lat="46.38556" lon="8.02222">
        <ele>2071</ele>
        <time>2021-07-10T12:24:20.456Z</time>
      </trkpt>
      <trkpt lat="46.38555" lon="8.0222">
        <ele>2071</ele>
        <time>2021-07-10T12:24:21.456Z</time>
      </trkpt>
      <trkpt lat="46.38553" lon="8.02219">
        <ele>2071</ele>
        <time>2021-07-10T12:24:22.456Z</time>
      </trkpt>
      <trkpt lat="46.38552" lon="8.02218">
        <ele>2071</ele>
        <time>2021-07-10T12:24:23.456Z</time>
      </trkpt>
      <trkpt lat="46.38552" lon="8.02217">
        <ele>2071</ele>
        <time>2021-07-10T12:24:24.456Z</time>
      </trkpt>
      <trkpt lat="46.38552" lon="8.02215">
        <ele>2071</ele>
        <time>2021-07-10T12:24:25.456Z</time>
      </trkpt>
      <trkpt lat="46.38552" lon="8.02215">
        <ele>2071</ele>
        <time>2021-07-10T12:24:26.457Z</time>
      </trkpt>
      <trkpt lat="46.38551" lon="8.02214">
        <ele>2071</ele>
        <time>2021-07-10T12:24:27.456Z</time>
      </trkpt>
      <trkpt lat="46.38551" lon="8.02212">
        <ele>2071</ele>
        <time>2021-07-10T12:24:28.456Z</time>
      </trkpt>
      <trkpt lat="46.3855" lon="8.0221">
        <ele>2071</ele>
        <time>2021-07-10T12:24:29.456Z</time>
      </trkpt>
      <trkpt lat="46.3855" lon="8.02209">
        <ele>2070</ele>
        <time>2021-07-10T12:24:30.456Z</time>
      </trkpt>
      <trkpt lat="46.38549" lon="8.02207">
        <ele>2070</ele>
        <time>2021-07-10T12:24:31.456Z</time>
      </trkpt>
      <trkpt lat="46.38549" lon="8.02205">
        <ele>2069</ele>
        <time>2021-07-10T12:24:32.456Z</time>
      </trkpt>
      <trkpt lat="46.38549" lon="8.02204">
        <ele>2069</ele>
        <time>2021-07-10T12:24:33.457Z</time>
      </trkpt>
      <trkpt lat="46.38548" lon="8.02203">
        <ele>2069</ele>
        <time>2021-07-10T12:24:34.456Z</time>
      </trkpt>
      <trkpt lat="46.38548" lon="8.02201">
        <ele>2068</ele>
        <time>2021-07-10T12:24:35.456Z</time>
      </trkpt>
      <trkpt lat="46.38547" lon="8.022">
        <ele>2068</ele>
        <time>2021-07-10T12:24:36.456Z</time>
      </trkpt>
      <trkpt lat="46.38547" lon="8.02198">
        <ele>2067</ele>
        <time>2021-07-10T12:24:37.457Z</time>
      </trkpt>
      <trkpt lat="46.38546" lon="8.02197">
        <ele>2067</ele>
        <time>2021-07-10T12:24:38.456Z</time>
      </trkpt>
      <trkpt lat="46.38545" lon="8.02196">
        <ele>2067</ele>
        <time>2021-07-10T12:24:39.456Z</time>
      </trkpt>
      <trkpt lat="46.38545" lon="8.02195">
        <ele>2067</ele>
        <time>2021-07-10T12:24:40.456Z</time>
      </trkpt>
      <trkpt lat="46.38544" lon="8.02194">
        <ele>2067</ele>
        <time>2021-07-10T12:24:41.456Z</time>
      </trkpt>
      <trkpt lat="46.38543" lon="8.02193">
        <ele>2067</ele>
        <time>2021-07-10T12:24:42.457Z</time>
      </trkpt>
      <trkpt lat="46.38542" lon="8.02192">
        <ele>2067</ele>
        <time>2021-07-10T12:24:43.456Z</time>
      </trkpt>
      <trkpt lat="46.38541" lon="8.02191">
        <ele>2067</ele>
        <time>2021-07-10T12:24:44.456Z</time>
      </trkpt>
      <trkpt lat="46.3854" lon="8.0219">
        <ele>2067</ele>
        <time>2021-07-10T12:24:45.456Z</time>
      </trkpt>
      <trkpt lat="46.38539" lon="8.02189">
        <ele>2068</ele>
        <time>2021-07-10T12:24:46.457Z</time>
      </trkpt>
      <trkpt lat="46.38538" lon="8.02188">
        <ele>2068</ele>
        <time>2021-07-10T12:24:47.457Z</time>
      </trkpt>
      <trkpt lat="46.38537" lon="8.02187">
        <ele>2068</ele>
        <time>2021-07-10T12:24:48.457Z</time>
      </trkpt>
      <trkpt lat="46.38536" lon="8.02186">
        <ele>2067</ele>
        <time>2021-07-10T12:24:49.456Z</time>
      </trkpt>
      <trkpt lat="46.38535" lon="8.02184">
        <ele>2067</ele>
        <time>2021-07-10T12:24:50.456Z</time>
      </trkpt>
      <trkpt lat="46.38534" lon="8.02183">
        <ele>2067</ele>
        <time>2021-07-10T12:24:51.456Z</time>
      </trkpt>
      <trkpt lat="46.38534" lon="8.02182">
        <ele>2067</ele>
        <time>2021-07-10T12:24:52.456Z</time>
      </trkpt>
      <trkpt lat="46.38533" lon="8.02181">
        <ele>2067</ele>
        <time>2021-07-10T12:24:53.457Z</time>
      </trkpt>
      <trkpt lat="46.38533" lon="8.02179">
        <ele>2067</ele>
        <time>2021-07-10T12:24:54.456Z</time>
      </trkpt>
      <trkpt lat="46.38532" lon="8.02178">
        <ele>2068</ele>
        <time>2021-07-10T12:24:55.456Z</time>
      </trkpt>
      <trkpt lat="46.38532" lon="8.02177">
        <ele>2068</ele>
        <time>2021-07-10T12:24:56.457Z</time>
      </trkpt>
      <trkpt lat="46.38531" lon="8.02176">
        <ele>2069</ele>
        <time>2021-07-10T12:24:57.457Z</time>
      </trkpt>
      <trkpt lat="46.3853" lon="8.02175">
        <ele>2069</ele>
        <time>2021-07-10T12:24:58.457Z</time>
      </trkpt>
      <trkpt lat="46.3853" lon="8.02174">
        <ele>2070</ele>
        <time>2021-07-10T12:24:59.456Z</time>
      </trkpt>
      <trkpt lat="46.38529" lon="8.02173">
        <ele>2070</ele>
        <time>2021-07-10T12:25:00.456Z</time>
      </trkpt>
      <trkpt lat="46.38529" lon="8.02172">
        <ele>2069</ele>
        <time>2021-07-10T12:25:01.456Z</time>
      </trkpt>
      <trkpt lat="46.38528" lon="8.02171">
        <ele>2069</ele>
        <time>2021-07-10T12:25:02.456Z</time>
      </trkpt>
      <trkpt lat="46.38527" lon="8.02171">
        <ele>2069</ele>
        <time>2021-07-10T12:25:03.457Z</time>
      </trkpt>
      <trkpt lat="46.38526" lon="8.02169">
        <ele>2069</ele>
        <time>2021-07-10T12:25:04.456Z</time>
      </trkpt>
      <trkpt lat="46.38525" lon="8.02168">
        <ele>2069</ele>
        <time>2021-07-10T12:25:05.457Z</time>
      </trkpt>
      <trkpt lat="46.38523" lon="8.02167">
        <ele>2069</ele>
        <time>2021-07-10T12:25:06.456Z</time>
      </trkpt>
      <trkpt lat="46.38522" lon="8.02165">
        <ele>2069</ele>
        <time>2021-07-10T12:25:07.456Z</time>
      </trkpt>
      <trkpt lat="46.3852" lon="8.02164">
        <ele>2069</ele>
        <time>2021-07-10T12:25:08.456Z</time>
      </trkpt>
      <trkpt lat="46.38519" lon="8.02162">
        <ele>2069</ele>
        <time>2021-07-10T12:25:09.456Z</time>
      </trkpt>
      <trkpt lat="46.38518" lon="8.02161">
        <ele>2069</ele>
        <time>2021-07-10T12:25:10.456Z</time>
      </trkpt>
      <trkpt lat="46.38517" lon="8.02159">
        <ele>2069</ele>
        <time>2021-07-10T12:25:11.456Z</time>
      </trkpt>
      <trkpt lat="46.38516" lon="8.02157">
        <ele>2070</ele>
        <time>2021-07-10T12:25:12.456Z</time>
      </trkpt>
      <trkpt lat="46.38515" lon="8.02156">
        <ele>2070</ele>
        <time>2021-07-10T12:25:13.456Z</time>
      </trkpt>
      <trkpt lat="46.38515" lon="8.02155">
        <ele>2070</ele>
        <time>2021-07-10T12:25:14.456Z</time>
      </trkpt>
      <trkpt lat="46.38514" lon="8.02154">
        <ele>2070</ele>
        <time>2021-07-10T12:25:15.456Z</time>
      </trkpt>
      <trkpt lat="46.38514" lon="8.02153">
        <ele>2070</ele>
        <time>2021-07-10T12:25:16.456Z</time>
      </trkpt>
      <trkpt lat="46.38514" lon="8.02152">
        <ele>2071</ele>
        <time>2021-07-10T12:25:17.457Z</time>
      </trkpt>
      <trkpt lat="46.38513" lon="8.02152">
        <ele>2071</ele>
        <time>2021-07-10T12:25:18.457Z</time>
      </trkpt>
      <trkpt lat="46.38511" lon="8.02151">
        <ele>2071</ele>
        <time>2021-07-10T12:25:19.457Z</time>
      </trkpt>
      <trkpt lat="46.38509" lon="8.0215">
        <ele>2071</ele>
        <time>2021-07-10T12:25:20.456Z</time>
      </trkpt>
      <trkpt lat="46.38509" lon="8.02149">
        <ele>2071</ele>
        <time>2021-07-10T12:25:21.456Z</time>
      </trkpt>
      <trkpt lat="46.38508" lon="8.02149">
        <ele>2071</ele>
        <time>2021-07-10T12:25:22.456Z</time>
      </trkpt>
      <trkpt lat="46.38507" lon="8.02149">
        <ele>2070</ele>
        <time>2021-07-10T12:25:23.456Z</time>
      </trkpt>
      <trkpt lat="46.38506" lon="8.02148">
        <ele>2070</ele>
        <time>2021-07-10T12:25:24.456Z</time>
      </trkpt>
      <trkpt lat="46.38505" lon="8.02146">
        <ele>2070</ele>
        <time>2021-07-10T12:25:25.456Z</time>
      </trkpt>
      <trkpt lat="46.38505" lon="8.02145">
        <ele>2070</ele>
        <time>2021-07-10T12:25:26.456Z</time>
      </trkpt>
      <trkpt lat="46.38504" lon="8.02145">
        <ele>2069</ele>
        <time>2021-07-10T12:25:27.457Z</time>
      </trkpt>
      <trkpt lat="46.38505" lon="8.02144">
        <ele>2068</ele>
        <time>2021-07-10T12:25:28.456Z</time>
      </trkpt>
      <trkpt lat="46.38505" lon="8.02143">
        <ele>2068</ele>
        <time>2021-07-10T12:25:29.457Z</time>
      </trkpt>
      <trkpt lat="46.38505" lon="8.02142">
        <ele>2068</ele>
        <time>2021-07-10T12:25:30.456Z</time>
      </trkpt>
      <trkpt lat="46.38505" lon="8.02141">
        <ele>2067</ele>
        <time>2021-07-10T12:25:31.456Z</time>
      </trkpt>
      <trkpt lat="46.38504" lon="8.0214">
        <ele>2067</ele>
        <time>2021-07-10T12:25:32.456Z</time>
      </trkpt>
      <trkpt lat="46.38504" lon="8.02139">
        <ele>2066</ele>
        <time>2021-07-10T12:25:33.456Z</time>
      </trkpt>
      <trkpt lat="46.38503" lon="8.02138">
        <ele>2066</ele>
        <time>2021-07-10T12:25:34.456Z</time>
      </trkpt>
      <trkpt lat="46.38503" lon="8.02136">
        <ele>2065</ele>
        <time>2021-07-10T12:25:35.456Z</time>
      </trkpt>
      <trkpt lat="46.38502" lon="8.02135">
        <ele>2064</ele>
        <time>2021-07-10T12:25:36.457Z</time>
      </trkpt>
      <trkpt lat="46.38502" lon="8.02134">
        <ele>2064</ele>
        <time>2021-07-10T12:25:37.456Z</time>
      </trkpt>
      <trkpt lat="46.385" lon="8.02132">
        <ele>2063</ele>
        <time>2021-07-10T12:25:38.456Z</time>
      </trkpt>
      <trkpt lat="46.385" lon="8.02131">
        <ele>2063</ele>
        <time>2021-07-10T12:25:39.456Z</time>
      </trkpt>
      <trkpt lat="46.38499" lon="8.02129">
        <ele>2063</ele>
        <time>2021-07-10T12:25:40.456Z</time>
      </trkpt>
      <trkpt lat="46.38498" lon="8.02127">
        <ele>2063</ele>
        <time>2021-07-10T12:25:41.456Z</time>
      </trkpt>
      <trkpt lat="46.38498" lon="8.02126">
        <ele>2063</ele>
        <time>2021-07-10T12:25:42.456Z</time>
      </trkpt>
      <trkpt lat="46.38497" lon="8.02125">
        <ele>2064</ele>
        <time>2021-07-10T12:25:43.457Z</time>
      </trkpt>
      <trkpt lat="46.38496" lon="8.02124">
        <ele>2064</ele>
        <time>2021-07-10T12:25:44.456Z</time>
      </trkpt>
      <trkpt lat="46.38495" lon="8.02122">
        <ele>2064</ele>
        <time>2021-07-10T12:25:45.456Z</time>
      </trkpt>
      <trkpt lat="46.38494" lon="8.02121">
        <ele>2064</ele>
        <time>2021-07-10T12:25:46.457Z</time>
      </trkpt>
      <trkpt lat="46.38493" lon="8.02121">
        <ele>2064</ele>
        <time>2021-07-10T12:25:47.456Z</time>
      </trkpt>
      <trkpt lat="46.38492" lon="8.02121">
        <ele>2064</ele>
        <time>2021-07-10T12:25:48.456Z</time>
      </trkpt>
      <trkpt lat="46.38491" lon="8.0212">
        <ele>2064</ele>
        <time>2021-07-10T12:25:49.457Z</time>
      </trkpt>
      <trkpt lat="46.3849" lon="8.02119">
        <ele>2064</ele>
        <time>2021-07-10T12:25:50.456Z</time>
      </trkpt>
      <trkpt lat="46.38489" lon="8.02118">
        <ele>2064</ele>
        <time>2021-07-10T12:25:51.456Z</time>
      </trkpt>
      <trkpt lat="46.38488" lon="8.02117">
        <ele>2063</ele>
        <time>2021-07-10T12:25:52.456Z</time>
      </trkpt>
      <trkpt lat="46.38487" lon="8.02117">
        <ele>2063</ele>
        <time>2021-07-10T12:25:53.456Z</time>
      </trkpt>
      <trkpt lat="46.38486" lon="8.02116">
        <ele>2063</ele>
        <time>2021-07-10T12:25:54.456Z</time>
      </trkpt>
      <trkpt lat="46.38485" lon="8.02115">
        <ele>2062</ele>
        <time>2021-07-10T12:25:55.457Z</time>
      </trkpt>
      <trkpt lat="46.38484" lon="8.02115">
        <ele>2062</ele>
        <time>2021-07-10T12:25:56.456Z</time>
      </trkpt>
      <trkpt lat="46.38484" lon="8.02115">
        <ele>2062</ele>
        <time>2021-07-10T12:25:57.457Z</time>
      </trkpt>
      <trkpt lat="46.38484" lon="8.02116">
        <ele>2062</ele>
        <time>2021-07-10T12:25:58.456Z</time>
      </trkpt>
      <trkpt lat="46.38484" lon="8.02113">
        <ele>2061</ele>
        <time>2021-07-10T12:25:59.457Z</time>
      </trkpt>
      <trkpt lat="46.38484" lon="8.02111">
        <ele>2061</ele>
        <time>2021-07-10T12:26:00.456Z</time>
      </trkpt>
      <trkpt lat="46.38483" lon="8.0211">
        <ele>2060</ele>
        <time>2021-07-10T12:26:01.457Z</time>
      </trkpt>
      <trkpt lat="46.38482" lon="8.02108">
        <ele>2060</ele>
        <time>2021-07-10T12:26:02.457Z</time>
      </trkpt>
      <trkpt lat="46.38481" lon="8.02107">
        <ele>2060</ele>
        <time>2021-07-10T12:26:03.457Z</time>
      </trkpt>
      <trkpt lat="46.38479" lon="8.02107">
        <ele>2060</ele>
        <time>2021-07-10T12:26:04.457Z</time>
      </trkpt>
      <trkpt lat="46.38478" lon="8.02107">
        <ele>2061</ele>
        <time>2021-07-10T12:26:05.456Z</time>
      </trkpt>
      <trkpt lat="46.38477" lon="8.02107">
        <ele>2061</ele>
        <time>2021-07-10T12:26:06.456Z</time>
      </trkpt>
      <trkpt lat="46.38476" lon="8.02107">
        <ele>2061</ele>
        <time>2021-07-10T12:26:07.457Z</time>
      </trkpt>
      <trkpt lat="46.38475" lon="8.02107">
        <ele>2061</ele>
        <time>2021-07-10T12:26:08.457Z</time>
      </trkpt>
      <trkpt lat="46.38473" lon="8.02107">
        <ele>2062</ele>
        <time>2021-07-10T12:26:09.456Z</time>
      </trkpt>
      <trkpt lat="46.38472" lon="8.02106">
        <ele>2062</ele>
        <time>2021-07-10T12:26:10.457Z</time>
      </trkpt>
      <trkpt lat="46.38471" lon="8.02106">
        <ele>2062</ele>
        <time>2021-07-10T12:26:11.457Z</time>
      </trkpt>
      <trkpt lat="46.3847" lon="8.02105">
        <ele>2062</ele>
        <time>2021-07-10T12:26:12.456Z</time>
      </trkpt>
      <trkpt lat="46.38469" lon="8.02104">
        <ele>2062</ele>
        <time>2021-07-10T12:26:13.456Z</time>
      </trkpt>
      <trkpt lat="46.38468" lon="8.02104">
        <ele>2062</ele>
        <time>2021-07-10T12:26:14.456Z</time>
      </trkpt>
      <trkpt lat="46.38467" lon="8.02103">
        <ele>2062</ele>
        <time>2021-07-10T12:26:15.456Z</time>
      </trkpt>
      <trkpt lat="46.38466" lon="8.02101">
        <ele>2062</ele>
        <time>2021-07-10T12:26:16.456Z</time>
      </trkpt>
      <trkpt lat="46.38465" lon="8.021">
        <ele>2061</ele>
        <time>2021-07-10T12:26:17.456Z</time>
      </trkpt>
      <trkpt lat="46.38464" lon="8.02099">
        <ele>2061</ele>
        <time>2021-07-10T12:26:18.456Z</time>
      </trkpt>
      <trkpt lat="46.38463" lon="8.02098">
        <ele>2061</ele>
        <time>2021-07-10T12:26:19.456Z</time>
      </trkpt>
      <trkpt lat="46.38462" lon="8.02097">
        <ele>2060</ele>
        <time>2021-07-10T12:26:20.456Z</time>
      </trkpt>
      <trkpt lat="46.38461" lon="8.02096">
        <ele>2060</ele>
        <time>2021-07-10T12:26:21.457Z</time>
      </trkpt>
      <trkpt lat="46.3846" lon="8.02095">
        <ele>2060</ele>
        <time>2021-07-10T12:26:22.456Z</time>
      </trkpt>
      <trkpt lat="46.38459" lon="8.02093">
        <ele>2060</ele>
        <time>2021-07-10T12:26:23.456Z</time>
      </trkpt>
      <trkpt lat="46.38458" lon="8.02092">
        <ele>2060</ele>
        <time>2021-07-10T12:26:24.456Z</time>
      </trkpt>
      <trkpt lat="46.38458" lon="8.02091">
        <ele>2060</ele>
        <time>2021-07-10T12:26:25.456Z</time>
      </trkpt>
      <trkpt lat="46.38457" lon="8.0209">
        <ele>2060</ele>
        <time>2021-07-10T12:26:26.456Z</time>
      </trkpt>
      <trkpt lat="46.38456" lon="8.02088">
        <ele>2060</ele>
        <time>2021-07-10T12:26:27.457Z</time>
      </trkpt>
      <trkpt lat="46.38456" lon="8.02087">
        <ele>2060</ele>
        <time>2021-07-10T12:26:28.457Z</time>
      </trkpt>
      <trkpt lat="46.38455" lon="8.02087">
        <ele>2060</ele>
        <time>2021-07-10T12:26:29.456Z</time>
      </trkpt>
      <trkpt lat="46.38454" lon="8.02085">
        <ele>2060</ele>
        <time>2021-07-10T12:26:30.456Z</time>
      </trkpt>
      <trkpt lat="46.38453" lon="8.02085">
        <ele>2060</ele>
        <time>2021-07-10T12:26:31.456Z</time>
      </trkpt>
      <trkpt lat="46.38452" lon="8.02083">
        <ele>2060</ele>
        <time>2021-07-10T12:26:32.456Z</time>
      </trkpt>
      <trkpt lat="46.3845" lon="8.02082">
        <ele>2061</ele>
        <time>2021-07-10T12:26:33.457Z</time>
      </trkpt>
      <trkpt lat="46.38449" lon="8.02081">
        <ele>2061</ele>
        <time>2021-07-10T12:26:34.456Z</time>
      </trkpt>
      <trkpt lat="46.38448" lon="8.02081">
        <ele>2061</ele>
        <time>2021-07-10T12:26:35.456Z</time>
      </trkpt>
      <trkpt lat="46.38447" lon="8.0208">
        <ele>2061</ele>
        <time>2021-07-10T12:26:36.456Z</time>
      </trkpt>
      <trkpt lat="46.38447" lon="8.02079">
        <ele>2061</ele>
        <time>2021-07-10T12:26:37.456Z</time>
      </trkpt>
      <trkpt lat="46.38446" lon="8.02077">
        <ele>2061</ele>
        <time>2021-07-10T12:26:38.456Z</time>
      </trkpt>
      <trkpt lat="46.38445" lon="8.02075">
        <ele>2061</ele>
        <time>2021-07-10T12:26:39.457Z</time>
      </trkpt>
      <trkpt lat="46.38444" lon="8.02074">
        <ele>2060</ele>
        <time>2021-07-10T12:26:40.456Z</time>
      </trkpt>
      <trkpt lat="46.38444" lon="8.02073">
        <ele>2060</ele>
        <time>2021-07-10T12:26:41.456Z</time>
      </trkpt>
      <trkpt lat="46.38443" lon="8.02071">
        <ele>2060</ele>
        <time>2021-07-10T12:26:42.456Z</time>
      </trkpt>
      <trkpt lat="46.38442" lon="8.02071">
        <ele>2060</ele>
        <time>2021-07-10T12:26:43.456Z</time>
      </trkpt>
      <trkpt lat="46.38441" lon="8.02071">
        <ele>2060</ele>
        <time>2021-07-10T12:26:44.456Z</time>
      </trkpt>
      <trkpt lat="46.38441" lon="8.0207">
        <ele>2060</ele>
        <time>2021-07-10T12:26:45.457Z</time>
      </trkpt>
      <trkpt lat="46.3844" lon="8.02068">
        <ele>2060</ele>
        <time>2021-07-10T12:26:46.457Z</time>
      </trkpt>
      <trkpt lat="46.38439" lon="8.02066">
        <ele>2060</ele>
        <time>2021-07-10T12:26:47.457Z</time>
      </trkpt>
      <trkpt lat="46.38438" lon="8.02065">
        <ele>2059</ele>
        <time>2021-07-10T12:26:48.456Z</time>
      </trkpt>
      <trkpt lat="46.38437" lon="8.02064">
        <ele>2059</ele>
        <time>2021-07-10T12:26:49.456Z</time>
      </trkpt>
      <trkpt lat="46.38436" lon="8.02063">
        <ele>2058</ele>
        <time>2021-07-10T12:26:50.457Z</time>
      </trkpt>
      <trkpt lat="46.38435" lon="8.02063">
        <ele>2058</ele>
        <time>2021-07-10T12:26:51.457Z</time>
      </trkpt>
      <trkpt lat="46.38434" lon="8.02063">
        <ele>2058</ele>
        <time>2021-07-10T12:26:52.456Z</time>
      </trkpt>
      <trkpt lat="46.38434" lon="8.02063">
        <ele>2058</ele>
        <time>2021-07-10T12:26:53.457Z</time>
      </trkpt>
      <trkpt lat="46.38434" lon="8.02063">
        <ele>2058</ele>
        <time>2021-07-10T12:26:54.456Z</time>
      </trkpt>
      <trkpt lat="46.38433" lon="8.02062">
        <ele>2057</ele>
        <time>2021-07-10T12:26:55.456Z</time>
      </trkpt>
      <trkpt lat="46.38432" lon="8.02061">
        <ele>2057</ele>
        <time>2021-07-10T12:26:56.456Z</time>
      </trkpt>
      <trkpt lat="46.38431" lon="8.02061">
        <ele>2057</ele>
        <time>2021-07-10T12:26:57.456Z</time>
      </trkpt>
      <trkpt lat="46.38431" lon="8.02059">
        <ele>2056</ele>
        <time>2021-07-10T12:26:58.456Z</time>
      </trkpt>
      <trkpt lat="46.3843" lon="8.02058">
        <ele>2056</ele>
        <time>2021-07-10T12:26:59.456Z</time>
      </trkpt>
      <trkpt lat="46.38429" lon="8.02057">
        <ele>2055</ele>
        <time>2021-07-10T12:27:00.456Z</time>
      </trkpt>
      <trkpt lat="46.38428" lon="8.02057">
        <ele>2055</ele>
        <time>2021-07-10T12:27:01.457Z</time>
      </trkpt>
      <trkpt lat="46.38427" lon="8.02056">
        <ele>2054</ele>
        <time>2021-07-10T12:27:02.457Z</time>
      </trkpt>
      <trkpt lat="46.38426" lon="8.02056">
        <ele>2054</ele>
        <time>2021-07-10T12:27:03.456Z</time>
      </trkpt>
      <trkpt lat="46.38425" lon="8.02056">
        <ele>2053</ele>
        <time>2021-07-10T12:27:04.457Z</time>
      </trkpt>
      <trkpt lat="46.38424" lon="8.02056">
        <ele>2053</ele>
        <time>2021-07-10T12:27:05.456Z</time>
      </trkpt>
      <trkpt lat="46.38424" lon="8.02055">
        <ele>2054</ele>
        <time>2021-07-10T12:27:06.457Z</time>
      </trkpt>
      <trkpt lat="46.38423" lon="8.02053">
        <ele>2054</ele>
        <time>2021-07-10T12:27:07.457Z</time>
      </trkpt>
      <trkpt lat="46.38422" lon="8.02051">
        <ele>2053</ele>
        <time>2021-07-10T12:27:08.456Z</time>
      </trkpt>
      <trkpt lat="46.38421" lon="8.0205">
        <ele>2053</ele>
        <time>2021-07-10T12:27:09.457Z</time>
      </trkpt>
      <trkpt lat="46.3842" lon="8.02049">
        <ele>2054</ele>
        <time>2021-07-10T12:27:10.457Z</time>
      </trkpt>
      <trkpt lat="46.38419" lon="8.02048">
        <ele>2054</ele>
        <time>2021-07-10T12:27:11.456Z</time>
      </trkpt>
      <trkpt lat="46.38419" lon="8.02046">
        <ele>2054</ele>
        <time>2021-07-10T12:27:12.456Z</time>
      </trkpt>
      <trkpt lat="46.38419" lon="8.02045">
        <ele>2054</ele>
        <time>2021-07-10T12:27:13.456Z</time>
      </trkpt>
      <trkpt lat="46.38418" lon="8.02043">
        <ele>2054</ele>
        <time>2021-07-10T12:27:14.456Z</time>
      </trkpt>
      <trkpt lat="46.38417" lon="8.02041">
        <ele>2054</ele>
        <time>2021-07-10T12:27:15.456Z</time>
      </trkpt>
      <trkpt lat="46.38416" lon="8.02039">
        <ele>2054</ele>
        <time>2021-07-10T12:27:16.456Z</time>
      </trkpt>
      <trkpt lat="46.38415" lon="8.02037">
        <ele>2054</ele>
        <time>2021-07-10T12:27:17.457Z</time>
      </trkpt>
      <trkpt lat="46.38414" lon="8.02035">
        <ele>2055</ele>
        <time>2021-07-10T12:27:18.456Z</time>
      </trkpt>
      <trkpt lat="46.38413" lon="8.02034">
        <ele>2055</ele>
        <time>2021-07-10T12:27:19.456Z</time>
      </trkpt>
      <trkpt lat="46.38413" lon="8.02034">
        <ele>2055</ele>
        <time>2021-07-10T12:27:20.456Z</time>
      </trkpt>
      <trkpt lat="46.38413" lon="8.02034">
        <ele>2055</ele>
        <time>2021-07-10T12:27:21.457Z</time>
      </trkpt>
      <trkpt lat="46.38413" lon="8.02035">
        <ele>2056</ele>
        <time>2021-07-10T12:27:22.456Z</time>
      </trkpt>
      <trkpt lat="46.38413" lon="8.02036">
        <ele>2056</ele>
        <time>2021-07-10T12:27:23.457Z</time>
      </trkpt>
      <trkpt lat="46.38414" lon="8.02036">
        <ele>2057</ele>
        <time>2021-07-10T12:27:24.456Z</time>
      </trkpt>
      <trkpt lat="46.38414" lon="8.02035">
        <ele>2058</ele>
        <time>2021-07-10T12:27:25.457Z</time>
      </trkpt>
      <trkpt lat="46.38413" lon="8.02034">
        <ele>2058</ele>
        <time>2021-07-10T12:27:26.456Z</time>
      </trkpt>
      <trkpt lat="46.38412" lon="8.02033">
        <ele>2058</ele>
        <time>2021-07-10T12:27:27.456Z</time>
      </trkpt>
      <trkpt lat="46.38411" lon="8.02033">
        <ele>2058</ele>
        <time>2021-07-10T12:27:28.456Z</time>
      </trkpt>
      <trkpt lat="46.38411" lon="8.02032">
        <ele>2057</ele>
        <time>2021-07-10T12:27:29.457Z</time>
      </trkpt>
      <trkpt lat="46.3841" lon="8.02031">
        <ele>2057</ele>
        <time>2021-07-10T12:27:30.456Z</time>
      </trkpt>
      <trkpt lat="46.38409" lon="8.0203">
        <ele>2056</ele>
        <time>2021-07-10T12:27:31.456Z</time>
      </trkpt>
      <trkpt lat="46.38408" lon="8.02029">
        <ele>2056</ele>
        <time>2021-07-10T12:27:32.457Z</time>
      </trkpt>
      <trkpt lat="46.38408" lon="8.02029">
        <ele>2056</ele>
        <time>2021-07-10T12:27:33.457Z</time>
      </trkpt>
      <trkpt lat="46.38407" lon="8.02029">
        <ele>2055</ele>
        <time>2021-07-10T12:27:34.456Z</time>
      </trkpt>
      <trkpt lat="46.38406" lon="8.02029">
        <ele>2055</ele>
        <time>2021-07-10T12:27:35.457Z</time>
      </trkpt>
      <trkpt lat="46.38406" lon="8.02028">
        <ele>2054</ele>
        <time>2021-07-10T12:27:36.457Z</time>
      </trkpt>
      <trkpt lat="46.38406" lon="8.02027">
        <ele>2054</ele>
        <time>2021-07-10T12:27:37.456Z</time>
      </trkpt>
      <trkpt lat="46.38405" lon="8.02026">
        <ele>2054</ele>
        <time>2021-07-10T12:27:38.457Z</time>
      </trkpt>
      <trkpt lat="46.38404" lon="8.02024">
        <ele>2053</ele>
        <time>2021-07-10T12:27:39.456Z</time>
      </trkpt>
      <trkpt lat="46.38403" lon="8.02023">
        <ele>2053</ele>
        <time>2021-07-10T12:27:40.456Z</time>
      </trkpt>
      <trkpt lat="46.38402" lon="8.02022">
        <ele>2053</ele>
        <time>2021-07-10T12:27:41.456Z</time>
      </trkpt>
      <trkpt lat="46.38401" lon="8.0202">
        <ele>2053</ele>
        <time>2021-07-10T12:27:42.456Z</time>
      </trkpt>
      <trkpt lat="46.38399" lon="8.02018">
        <ele>2053</ele>
        <time>2021-07-10T12:27:43.456Z</time>
      </trkpt>
      <trkpt lat="46.38398" lon="8.02017">
        <ele>2052</ele>
        <time>2021-07-10T12:27:44.456Z</time>
      </trkpt>
      <trkpt lat="46.38397" lon="8.02016">
        <ele>2052</ele>
        <time>2021-07-10T12:27:45.457Z</time>
      </trkpt>
      <trkpt lat="46.38395" lon="8.02016">
        <ele>2052</ele>
        <time>2021-07-10T12:27:46.456Z</time>
      </trkpt>
      <trkpt lat="46.38393" lon="8.02015">
        <ele>2052</ele>
        <time>2021-07-10T12:27:47.456Z</time>
      </trkpt>
      <trkpt lat="46.38392" lon="8.02013">
        <ele>2052</ele>
        <time>2021-07-10T12:27:48.456Z</time>
      </trkpt>
      <trkpt lat="46.38391" lon="8.02012">
        <ele>2052</ele>
        <time>2021-07-10T12:27:49.456Z</time>
      </trkpt>
      <trkpt lat="46.3839" lon="8.02012">
        <ele>2052</ele>
        <time>2021-07-10T12:27:50.456Z</time>
      </trkpt>
      <trkpt lat="46.38389" lon="8.02011">
        <ele>2052</ele>
        <time>2021-07-10T12:27:51.456Z</time>
      </trkpt>
      <trkpt lat="46.38388" lon="8.0201">
        <ele>2053</ele>
        <time>2021-07-10T12:27:52.456Z</time>
      </trkpt>
      <trkpt lat="46.38387" lon="8.02009">
        <ele>2053</ele>
        <time>2021-07-10T12:27:53.456Z</time>
      </trkpt>
      <trkpt lat="46.38387" lon="8.02008">
        <ele>2052</ele>
        <time>2021-07-10T12:27:54.456Z</time>
      </trkpt>
      <trkpt lat="46.38386" lon="8.02008">
        <ele>2052</ele>
        <time>2021-07-10T12:27:55.456Z</time>
      </trkpt>
      <trkpt lat="46.38384" lon="8.02007">
        <ele>2051</ele>
        <time>2021-07-10T12:27:56.457Z</time>
      </trkpt>
      <trkpt lat="46.38383" lon="8.02007">
        <ele>2050</ele>
        <time>2021-07-10T12:27:57.456Z</time>
      </trkpt>
      <trkpt lat="46.38382" lon="8.02007">
        <ele>2049</ele>
        <time>2021-07-10T12:27:58.456Z</time>
      </trkpt>
      <trkpt lat="46.38381" lon="8.02006">
        <ele>2049</ele>
        <time>2021-07-10T12:27:59.457Z</time>
      </trkpt>
      <trkpt lat="46.3838" lon="8.02006">
        <ele>2048</ele>
        <time>2021-07-10T12:28:00.457Z</time>
      </trkpt>
      <trkpt lat="46.3838" lon="8.02004">
        <ele>2048</ele>
        <time>2021-07-10T12:28:01.456Z</time>
      </trkpt>
      <trkpt lat="46.38379" lon="8.02003">
        <ele>2048</ele>
        <time>2021-07-10T12:28:02.456Z</time>
      </trkpt>
      <trkpt lat="46.38378" lon="8.02002">
        <ele>2048</ele>
        <time>2021-07-10T12:28:03.456Z</time>
      </trkpt>
      <trkpt lat="46.38377" lon="8.02001">
        <ele>2048</ele>
        <time>2021-07-10T12:28:04.456Z</time>
      </trkpt>
      <trkpt lat="46.38376" lon="8.01999">
        <ele>2048</ele>
        <time>2021-07-10T12:28:05.457Z</time>
      </trkpt>
      <trkpt lat="46.38376" lon="8.01998">
        <ele>2048</ele>
        <time>2021-07-10T12:28:06.457Z</time>
      </trkpt>
      <trkpt lat="46.38375" lon="8.01997">
        <ele>2048</ele>
        <time>2021-07-10T12:28:07.457Z</time>
      </trkpt>
      <trkpt lat="46.38374" lon="8.01995">
        <ele>2048</ele>
        <time>2021-07-10T12:28:08.456Z</time>
      </trkpt>
      <trkpt lat="46.38373" lon="8.01994">
        <ele>2048</ele>
        <time>2021-07-10T12:28:09.457Z</time>
      </trkpt>
      <trkpt lat="46.38373" lon="8.01993">
        <ele>2048</ele>
        <time>2021-07-10T12:28:10.457Z</time>
      </trkpt>
      <trkpt lat="46.38372" lon="8.01993">
        <ele>2049</ele>
        <time>2021-07-10T12:28:11.456Z</time>
      </trkpt>
      <trkpt lat="46.38371" lon="8.01992">
        <ele>2049</ele>
        <time>2021-07-10T12:28:12.456Z</time>
      </trkpt>
      <trkpt lat="46.3837" lon="8.01991">
        <ele>2049</ele>
        <time>2021-07-10T12:28:13.457Z</time>
      </trkpt>
      <trkpt lat="46.3837" lon="8.0199">
        <ele>2049</ele>
        <time>2021-07-10T12:28:14.456Z</time>
      </trkpt>
      <trkpt lat="46.38369" lon="8.01989">
        <ele>2049</ele>
        <time>2021-07-10T12:28:15.456Z</time>
      </trkpt>
      <trkpt lat="46.38369" lon="8.01987">
        <ele>2049</ele>
        <time>2021-07-10T12:28:16.457Z</time>
      </trkpt>
      <trkpt lat="46.38368" lon="8.01986">
        <ele>2050</ele>
        <time>2021-07-10T12:28:17.456Z</time>
      </trkpt>
      <trkpt lat="46.38366" lon="8.01985">
        <ele>2050</ele>
        <time>2021-07-10T12:28:18.456Z</time>
      </trkpt>
      <trkpt lat="46.38366" lon="8.01984">
        <ele>2049</ele>
        <time>2021-07-10T12:28:19.456Z</time>
      </trkpt>
      <trkpt lat="46.38364" lon="8.01983">
        <ele>2049</ele>
        <time>2021-07-10T12:28:20.456Z</time>
      </trkpt>
      <trkpt lat="46.38363" lon="8.01981">
        <ele>2048</ele>
        <time>2021-07-10T12:28:21.456Z</time>
      </trkpt>
      <trkpt lat="46.38362" lon="8.0198">
        <ele>2047</ele>
        <time>2021-07-10T12:28:22.456Z</time>
      </trkpt>
      <trkpt lat="46.38361" lon="8.01979">
        <ele>2047</ele>
        <time>2021-07-10T12:28:23.456Z</time>
      </trkpt>
      <trkpt lat="46.38359" lon="8.01978">
        <ele>2046</ele>
        <time>2021-07-10T12:28:24.457Z</time>
      </trkpt>
      <trkpt lat="46.38358" lon="8.01977">
        <ele>2046</ele>
        <time>2021-07-10T12:28:25.457Z</time>
      </trkpt>
      <trkpt lat="46.38357" lon="8.01975">
        <ele>2045</ele>
        <time>2021-07-10T12:28:26.457Z</time>
      </trkpt>
      <trkpt lat="46.38356" lon="8.01974">
        <ele>2045</ele>
        <time>2021-07-10T12:28:27.456Z</time>
      </trkpt>
      <trkpt lat="46.38356" lon="8.01973">
        <ele>2045</ele>
        <time>2021-07-10T12:28:28.456Z</time>
      </trkpt>
      <trkpt lat="46.38355" lon="8.01972">
        <ele>2045</ele>
        <time>2021-07-10T12:28:29.456Z</time>
      </trkpt>
      <trkpt lat="46.38353" lon="8.01972">
        <ele>2045</ele>
        <time>2021-07-10T12:28:30.456Z</time>
      </trkpt>
      <trkpt lat="46.38352" lon="8.01971">
        <ele>2045</ele>
        <time>2021-07-10T12:28:31.457Z</time>
      </trkpt>
      <trkpt lat="46.38352" lon="8.0197">
        <ele>2045</ele>
        <time>2021-07-10T12:28:32.457Z</time>
      </trkpt>
      <trkpt lat="46.38351" lon="8.01969">
        <ele>2045</ele>
        <time>2021-07-10T12:28:33.456Z</time>
      </trkpt>
      <trkpt lat="46.3835" lon="8.01968">
        <ele>2045</ele>
        <time>2021-07-10T12:28:34.457Z</time>
      </trkpt>
      <trkpt lat="46.3835" lon="8.01967">
        <ele>2045</ele>
        <time>2021-07-10T12:28:35.456Z</time>
      </trkpt>
      <trkpt lat="46.38349" lon="8.01966">
        <ele>2045</ele>
        <time>2021-07-10T12:28:36.457Z</time>
      </trkpt>
      <trkpt lat="46.38348" lon="8.01965">
        <ele>2045</ele>
        <time>2021-07-10T12:28:37.456Z</time>
      </trkpt>
      <trkpt lat="46.38348" lon="8.01965">
        <ele>2045</ele>
        <time>2021-07-10T12:28:38.456Z</time>
      </trkpt>
      <trkpt lat="46.38347" lon="8.01964">
        <ele>2045</ele>
        <time>2021-07-10T12:28:39.456Z</time>
      </trkpt>
      <trkpt lat="46.38346" lon="8.01963">
        <ele>2045</ele>
        <time>2021-07-10T12:28:40.456Z</time>
      </trkpt>
      <trkpt lat="46.38345" lon="8.01962">
        <ele>2045</ele>
        <time>2021-07-10T12:28:41.456Z</time>
      </trkpt>
      <trkpt lat="46.38345" lon="8.01961">
        <ele>2045</ele>
        <time>2021-07-10T12:28:42.456Z</time>
      </trkpt>
      <trkpt lat="46.38344" lon="8.01961">
        <ele>2044</ele>
        <time>2021-07-10T12:28:43.457Z</time>
      </trkpt>
      <trkpt lat="46.38343" lon="8.0196">
        <ele>2044</ele>
        <time>2021-07-10T12:28:44.456Z</time>
      </trkpt>
      <trkpt lat="46.38343" lon="8.01959">
        <ele>2043</ele>
        <time>2021-07-10T12:28:45.456Z</time>
      </trkpt>
      <trkpt lat="46.38342" lon="8.01958">
        <ele>2043</ele>
        <time>2021-07-10T12:28:46.457Z</time>
      </trkpt>
      <trkpt lat="46.38342" lon="8.01957">
        <ele>2042</ele>
        <time>2021-07-10T12:28:47.456Z</time>
      </trkpt>
      <trkpt lat="46.38341" lon="8.01957">
        <ele>2042</ele>
        <time>2021-07-10T12:28:48.457Z</time>
      </trkpt>
      <trkpt lat="46.38341" lon="8.01956">
        <ele>2042</ele>
        <time>2021-07-10T12:28:49.457Z</time>
      </trkpt>
      <trkpt lat="46.3834" lon="8.01956">
        <ele>2042</ele>
        <time>2021-07-10T12:28:50.456Z</time>
      </trkpt>
      <trkpt lat="46.38339" lon="8.01957">
        <ele>2043</ele>
        <time>2021-07-10T12:28:51.456Z</time>
      </trkpt>
      <trkpt lat="46.38338" lon="8.01957">
        <ele>2043</ele>
        <time>2021-07-10T12:28:52.456Z</time>
      </trkpt>
      <trkpt lat="46.38337" lon="8.01956">
        <ele>2043</ele>
        <time>2021-07-10T12:28:53.456Z</time>
      </trkpt>
      <trkpt lat="46.38336" lon="8.01957">
        <ele>2043</ele>
        <time>2021-07-10T12:28:54.456Z</time>
      </trkpt>
      <trkpt lat="46.38334" lon="8.01957">
        <ele>2043</ele>
        <time>2021-07-10T12:28:55.456Z</time>
      </trkpt>
      <trkpt lat="46.38333" lon="8.01957">
        <ele>2043</ele>
        <time>2021-07-10T12:28:56.456Z</time>
      </trkpt>
      <trkpt lat="46.38331" lon="8.01956">
        <ele>2043</ele>
        <time>2021-07-10T12:28:57.457Z</time>
      </trkpt>
      <trkpt lat="46.38329" lon="8.01955">
        <ele>2043</ele>
        <time>2021-07-10T12:28:58.456Z</time>
      </trkpt>
      <trkpt lat="46.38328" lon="8.01954">
        <ele>2044</ele>
        <time>2021-07-10T12:28:59.456Z</time>
      </trkpt>
      <trkpt lat="46.38326" lon="8.01952">
        <ele>2044</ele>
        <time>2021-07-10T12:29:00.457Z</time>
      </trkpt>
      <trkpt lat="46.38325" lon="8.01951">
        <ele>2044</ele>
        <time>2021-07-10T12:29:01.457Z</time>
      </trkpt>
      <trkpt lat="46.38324" lon="8.0195">
        <ele>2044</ele>
        <time>2021-07-10T12:29:02.456Z</time>
      </trkpt>
      <trkpt lat="46.38323" lon="8.0195">
        <ele>2044</ele>
        <time>2021-07-10T12:29:03.456Z</time>
      </trkpt>
      <trkpt lat="46.38322" lon="8.0195">
        <ele>2044</ele>
        <time>2021-07-10T12:29:04.457Z</time>
      </trkpt>
      <trkpt lat="46.38321" lon="8.0195">
        <ele>2044</ele>
        <time>2021-07-10T12:29:05.456Z</time>
      </trkpt>
      <trkpt lat="46.38321" lon="8.01951">
        <ele>2044</ele>
        <time>2021-07-10T12:29:06.456Z</time>
      </trkpt>
      <trkpt lat="46.3832" lon="8.01951">
        <ele>2044</ele>
        <time>2021-07-10T12:29:07.457Z</time>
      </trkpt>
      <trkpt lat="46.38319" lon="8.01951">
        <ele>2044</ele>
        <time>2021-07-10T12:29:08.456Z</time>
      </trkpt>
      <trkpt lat="46.38318" lon="8.0195">
        <ele>2044</ele>
        <time>2021-07-10T12:29:09.456Z</time>
      </trkpt>
      <trkpt lat="46.38317" lon="8.01948">
        <ele>2044</ele>
        <time>2021-07-10T12:29:10.456Z</time>
      </trkpt>
      <trkpt lat="46.38317" lon="8.01946">
        <ele>2044</ele>
        <time>2021-07-10T12:29:11.457Z</time>
      </trkpt>
      <trkpt lat="46.38316" lon="8.01945">
        <ele>2043</ele>
        <time>2021-07-10T12:29:12.456Z</time>
      </trkpt>
      <trkpt lat="46.38314" lon="8.01943">
        <ele>2043</ele>
        <time>2021-07-10T12:29:13.456Z</time>
      </trkpt>
      <trkpt lat="46.38313" lon="8.01942">
        <ele>2043</ele>
        <time>2021-07-10T12:29:14.456Z</time>
      </trkpt>
      <trkpt lat="46.38312" lon="8.0194">
        <ele>2043</ele>
        <time>2021-07-10T12:29:15.456Z</time>
      </trkpt>
      <trkpt lat="46.38311" lon="8.01939">
        <ele>2043</ele>
        <time>2021-07-10T12:29:16.457Z</time>
      </trkpt>
      <trkpt lat="46.38311" lon="8.01938">
        <ele>2043</ele>
        <time>2021-07-10T12:29:17.456Z</time>
      </trkpt>
      <trkpt lat="46.3831" lon="8.01937">
        <ele>2043</ele>
        <time>2021-07-10T12:29:18.456Z</time>
      </trkpt>
      <trkpt lat="46.38309" lon="8.01937">
        <ele>2044</ele>
        <time>2021-07-10T12:29:19.457Z</time>
      </trkpt>
      <trkpt lat="46.38308" lon="8.01936">
        <ele>2044</ele>
        <time>2021-07-10T12:29:20.456Z</time>
      </trkpt>
      <trkpt lat="46.38307" lon="8.01936">
        <ele>2044</ele>
        <time>2021-07-10T12:29:21.456Z</time>
      </trkpt>
      <trkpt lat="46.38306" lon="8.01936">
        <ele>2044</ele>
        <time>2021-07-10T12:29:22.456Z</time>
      </trkpt>
      <trkpt lat="46.38306" lon="8.01934">
        <ele>2044</ele>
        <time>2021-07-10T12:29:23.456Z</time>
      </trkpt>
      <trkpt lat="46.38304" lon="8.01932">
        <ele>2044</ele>
        <time>2021-07-10T12:29:24.456Z</time>
      </trkpt>
      <trkpt lat="46.38304" lon="8.0193">
        <ele>2045</ele>
        <time>2021-07-10T12:29:25.456Z</time>
      </trkpt>
      <trkpt lat="46.38303" lon="8.01929">
        <ele>2045</ele>
        <time>2021-07-10T12:29:26.456Z</time>
      </trkpt>
      <trkpt lat="46.38302" lon="8.01928">
        <ele>2046</ele>
        <time>2021-07-10T12:29:27.456Z</time>
      </trkpt>
      <trkpt lat="46.38301" lon="8.01928">
        <ele>2046</ele>
        <time>2021-07-10T12:29:28.457Z</time>
      </trkpt>
      <trkpt lat="46.383" lon="8.01927">
        <ele>2047</ele>
        <time>2021-07-10T12:29:29.457Z</time>
      </trkpt>
      <trkpt lat="46.38299" lon="8.01926">
        <ele>2047</ele>
        <time>2021-07-10T12:29:30.457Z</time>
      </trkpt>
      <trkpt lat="46.38298" lon="8.01926">
        <ele>2047</ele>
        <time>2021-07-10T12:29:31.456Z</time>
      </trkpt>
      <trkpt lat="46.38297" lon="8.01925">
        <ele>2047</ele>
        <time>2021-07-10T12:29:32.456Z</time>
      </trkpt>
      <trkpt lat="46.38296" lon="8.01924">
        <ele>2046</ele>
        <time>2021-07-10T12:29:33.456Z</time>
      </trkpt>
      <trkpt lat="46.38296" lon="8.01923">
        <ele>2047</ele>
        <time>2021-07-10T12:29:34.457Z</time>
      </trkpt>
      <trkpt lat="46.38295" lon="8.01922">
        <ele>2047</ele>
        <time>2021-07-10T12:29:35.456Z</time>
      </trkpt>
      <trkpt lat="46.38294" lon="8.01922">
        <ele>2048</ele>
        <time>2021-07-10T12:29:36.456Z</time>
      </trkpt>
      <trkpt lat="46.38293" lon="8.01922">
        <ele>2048</ele>
        <time>2021-07-10T12:29:37.456Z</time>
      </trkpt>
      <trkpt lat="46.38292" lon="8.01922">
        <ele>2049</ele>
        <time>2021-07-10T12:29:38.456Z</time>
      </trkpt>
      <trkpt lat="46.38291" lon="8.01922">
        <ele>2050</ele>
        <time>2021-07-10T12:29:39.456Z</time>
      </trkpt>
      <trkpt lat="46.38291" lon="8.01922">
        <ele>2051</ele>
        <time>2021-07-10T12:29:40.457Z</time>
      </trkpt>
      <trkpt lat="46.3829" lon="8.01922">
        <ele>2052</ele>
        <time>2021-07-10T12:29:41.456Z</time>
      </trkpt>
      <trkpt lat="46.38289" lon="8.01921">
        <ele>2052</ele>
        <time>2021-07-10T12:29:42.457Z</time>
      </trkpt>
      <trkpt lat="46.38288" lon="8.01921">
        <ele>2053</ele>
        <time>2021-07-10T12:29:43.456Z</time>
      </trkpt>
      <trkpt lat="46.38288" lon="8.0192">
        <ele>2053</ele>
        <time>2021-07-10T12:29:44.456Z</time>
      </trkpt>
      <trkpt lat="46.38287" lon="8.0192">
        <ele>2054</ele>
        <time>2021-07-10T12:29:45.456Z</time>
      </trkpt>
      <trkpt lat="46.38286" lon="8.0192">
        <ele>2054</ele>
        <time>2021-07-10T12:29:46.456Z</time>
      </trkpt>
      <trkpt lat="46.38285" lon="8.01919">
        <ele>2054</ele>
        <time>2021-07-10T12:29:47.456Z</time>
      </trkpt>
      <trkpt lat="46.38284" lon="8.01919">
        <ele>2054</ele>
        <time>2021-07-10T12:29:48.457Z</time>
      </trkpt>
      <trkpt lat="46.38284" lon="8.01918">
        <ele>2054</ele>
        <time>2021-07-10T12:29:49.457Z</time>
      </trkpt>
      <trkpt lat="46.38283" lon="8.01916">
        <ele>2054</ele>
        <time>2021-07-10T12:29:50.456Z</time>
      </trkpt>
      <trkpt lat="46.38282" lon="8.01916">
        <ele>2054</ele>
        <time>2021-07-10T12:29:51.457Z</time>
      </trkpt>
      <trkpt lat="46.38281" lon="8.01916">
        <ele>2054</ele>
        <time>2021-07-10T12:29:52.456Z</time>
      </trkpt>
      <trkpt lat="46.38281" lon="8.01915">
        <ele>2054</ele>
        <time>2021-07-10T12:29:53.456Z</time>
      </trkpt>
      <trkpt lat="46.3828" lon="8.01915">
        <ele>2054</ele>
        <time>2021-07-10T12:29:54.456Z</time>
      </trkpt>
      <trkpt lat="46.38279" lon="8.01915">
        <ele>2053</ele>
        <time>2021-07-10T12:29:55.457Z</time>
      </trkpt>
      <trkpt lat="46.38278" lon="8.01916">
        <ele>2053</ele>
        <time>2021-07-10T12:29:56.456Z</time>
      </trkpt>
      <trkpt lat="46.38278" lon="8.01916">
        <ele>2053</ele>
        <time>2021-07-10T12:29:57.457Z</time>
      </trkpt>
      <trkpt lat="46.38277" lon="8.01915">
        <ele>2053</ele>
        <time>2021-07-10T12:29:58.456Z</time>
      </trkpt>
      <trkpt lat="46.38276" lon="8.01915">
        <ele>2053</ele>
        <time>2021-07-10T12:29:59.456Z</time>
      </trkpt>
      <trkpt lat="46.38275" lon="8.01915">
        <ele>2053</ele>
        <time>2021-07-10T12:30:00.456Z</time>
      </trkpt>
      <trkpt lat="46.38275" lon="8.01914">
        <ele>2053</ele>
        <time>2021-07-10T12:30:01.456Z</time>
      </trkpt>
      <trkpt lat="46.38274" lon="8.01913">
        <ele>2053</ele>
        <time>2021-07-10T12:30:02.456Z</time>
      </trkpt>
      <trkpt lat="46.38273" lon="8.01911">
        <ele>2053</ele>
        <time>2021-07-10T12:30:03.456Z</time>
      </trkpt>
      <trkpt lat="46.38272" lon="8.0191">
        <ele>2054</ele>
        <time>2021-07-10T12:30:04.456Z</time>
      </trkpt>
      <trkpt lat="46.38271" lon="8.01908">
        <ele>2055</ele>
        <time>2021-07-10T12:30:05.456Z</time>
      </trkpt>
      <trkpt lat="46.38271" lon="8.01907">
        <ele>2055</ele>
        <time>2021-07-10T12:30:06.456Z</time>
      </trkpt>
      <trkpt lat="46.3827" lon="8.01907">
        <ele>2056</ele>
        <time>2021-07-10T12:30:07.456Z</time>
      </trkpt>
      <trkpt lat="46.3827" lon="8.01907">
        <ele>2056</ele>
        <time>2021-07-10T12:30:08.457Z</time>
      </trkpt>
      <trkpt lat="46.38269" lon="8.01906">
        <ele>2056</ele>
        <time>2021-07-10T12:30:09.456Z</time>
      </trkpt>
      <trkpt lat="46.38269" lon="8.01906">
        <ele>2057</ele>
        <time>2021-07-10T12:30:10.456Z</time>
      </trkpt>
      <trkpt lat="46.38268" lon="8.01905">
        <ele>2057</ele>
        <time>2021-07-10T12:30:11.456Z</time>
      </trkpt>
      <trkpt lat="46.38268" lon="8.01905">
        <ele>2058</ele>
        <time>2021-07-10T12:30:12.456Z</time>
      </trkpt>
      <trkpt lat="46.38267" lon="8.01904">
        <ele>2058</ele>
        <time>2021-07-10T12:30:13.457Z</time>
      </trkpt>
      <trkpt lat="46.38267" lon="8.01903">
        <ele>2059</ele>
        <time>2021-07-10T12:30:14.456Z</time>
      </trkpt>
      <trkpt lat="46.38267" lon="8.01903">
        <ele>2059</ele>
        <time>2021-07-10T12:30:15.456Z</time>
      </trkpt>
      <trkpt lat="46.38266" lon="8.01903">
        <ele>2059</ele>
        <time>2021-07-10T12:30:16.457Z</time>
      </trkpt>
      <trkpt lat="46.38265" lon="8.01902">
        <ele>2060</ele>
        <time>2021-07-10T12:30:17.456Z</time>
      </trkpt>
      <trkpt lat="46.38265" lon="8.01901">
        <ele>2060</ele>
        <time>2021-07-10T12:30:18.456Z</time>
      </trkpt>
      <trkpt lat="46.38263" lon="8.019">
        <ele>2060</ele>
        <time>2021-07-10T12:30:19.456Z</time>
      </trkpt>
      <trkpt lat="46.38262" lon="8.01899">
        <ele>2060</ele>
        <time>2021-07-10T12:30:20.456Z</time>
      </trkpt>
      <trkpt lat="46.38261" lon="8.01901">
        <ele>2060</ele>
        <time>2021-07-10T12:30:21.456Z</time>
      </trkpt>
      <trkpt lat="46.3826" lon="8.01901">
        <ele>2059</ele>
        <time>2021-07-10T12:30:22.457Z</time>
      </trkpt>
      <trkpt lat="46.38258" lon="8.019">
        <ele>2059</ele>
        <time>2021-07-10T12:30:23.456Z</time>
      </trkpt>
      <trkpt lat="46.38258" lon="8.01899">
        <ele>2059</ele>
        <time>2021-07-10T12:30:24.456Z</time>
      </trkpt>
      <trkpt lat="46.38257" lon="8.01899">
        <ele>2059</ele>
        <time>2021-07-10T12:30:25.456Z</time>
      </trkpt>
      <trkpt lat="46.38256" lon="8.01899">
        <ele>2058</ele>
        <time>2021-07-10T12:30:26.457Z</time>
      </trkpt>
      <trkpt lat="46.38254" lon="8.01898">
        <ele>2058</ele>
        <time>2021-07-10T12:30:27.456Z</time>
      </trkpt>
      <trkpt lat="46.38254" lon="8.01897">
        <ele>2059</ele>
        <time>2021-07-10T12:30:28.457Z</time>
      </trkpt>
      <trkpt lat="46.38253" lon="8.01896">
        <ele>2059</ele>
        <time>2021-07-10T12:30:29.456Z</time>
      </trkpt>
      <trkpt lat="46.38252" lon="8.01895">
        <ele>2059</ele>
        <time>2021-07-10T12:30:30.457Z</time>
      </trkpt>
      <trkpt lat="46.38251" lon="8.01894">
        <ele>2059</ele>
        <time>2021-07-10T12:30:31.457Z</time>
      </trkpt>
      <trkpt lat="46.38251" lon="8.01894">
        <ele>2059</ele>
        <time>2021-07-10T12:30:32.457Z</time>
      </trkpt>
      <trkpt lat="46.3825" lon="8.01894">
        <ele>2059</ele>
        <time>2021-07-10T12:30:33.456Z</time>
      </trkpt>
      <trkpt lat="46.38249" lon="8.01892">
        <ele>2059</ele>
        <time>2021-07-10T12:30:34.456Z</time>
      </trkpt>
      <trkpt lat="46.38248" lon="8.01891">
        <ele>2059</ele>
        <time>2021-07-10T12:30:35.456Z</time>
      </trkpt>
      <trkpt lat="46.38247" lon="8.01891">
        <ele>2059</ele>
        <time>2021-07-10T12:30:36.456Z</time>
      </trkpt>
      <trkpt lat="46.38247" lon="8.01889">
        <ele>2059</ele>
        <time>2021-07-10T12:30:37.457Z</time>
      </trkpt>
      <trkpt lat="46.38246" lon="8.01889">
        <ele>2059</ele>
        <time>2021-07-10T12:30:38.456Z</time>
      </trkpt>
      <trkpt lat="46.38246" lon="8.01888">
        <ele>2059</ele>
        <time>2021-07-10T12:30:39.457Z</time>
      </trkpt>
      <trkpt lat="46.38246" lon="8.01889">
        <ele>2059</ele>
        <time>2021-07-10T12:30:40.456Z</time>
      </trkpt>
      <trkpt lat="46.38244" lon="8.01888">
        <ele>2059</ele>
        <time>2021-07-10T12:30:41.456Z</time>
      </trkpt>
      <trkpt lat="46.38243" lon="8.01888">
        <ele>2059</ele>
        <time>2021-07-10T12:30:42.457Z</time>
      </trkpt>
      <trkpt lat="46.38243" lon="8.01888">
        <ele>2059</ele>
        <time>2021-07-10T12:30:43.457Z</time>
      </trkpt>
      <trkpt lat="46.38242" lon="8.01888">
        <ele>2059</ele>
        <time>2021-07-10T12:30:44.456Z</time>
      </trkpt>
      <trkpt lat="46.38241" lon="8.01887">
        <ele>2059</ele>
        <time>2021-07-10T12:30:45.457Z</time>
      </trkpt>
      <trkpt lat="46.3824" lon="8.01887">
        <ele>2059</ele>
        <time>2021-07-10T12:30:46.457Z</time>
      </trkpt>
      <trkpt lat="46.3824" lon="8.01887">
        <ele>2059</ele>
        <time>2021-07-10T12:30:47.457Z</time>
      </trkpt>
      <trkpt lat="46.38239" lon="8.01886">
        <ele>2059</ele>
        <time>2021-07-10T12:30:48.456Z</time>
      </trkpt>
      <trkpt lat="46.38238" lon="8.01886">
        <ele>2059</ele>
        <time>2021-07-10T12:30:49.457Z</time>
      </trkpt>
      <trkpt lat="46.38238" lon="8.01886">
        <ele>2058</ele>
        <time>2021-07-10T12:30:50.457Z</time>
      </trkpt>
      <trkpt lat="46.38238" lon="8.01887">
        <ele>2058</ele>
        <time>2021-07-10T12:30:51.457Z</time>
      </trkpt>
      <trkpt lat="46.38237" lon="8.01887">
        <ele>2058</ele>
        <time>2021-07-10T12:30:52.457Z</time>
      </trkpt>
      <trkpt lat="46.38236" lon="8.01886">
        <ele>2058</ele>
        <time>2021-07-10T12:30:53.456Z</time>
      </trkpt>
      <trkpt lat="46.38235" lon="8.01885">
        <ele>2058</ele>
        <time>2021-07-10T12:30:54.456Z</time>
      </trkpt>
      <trkpt lat="46.38234" lon="8.01883">
        <ele>2059</ele>
        <time>2021-07-10T12:30:55.456Z</time>
      </trkpt>
      <trkpt lat="46.38233" lon="8.01881">
        <ele>2059</ele>
        <time>2021-07-10T12:30:56.456Z</time>
      </trkpt>
      <trkpt lat="46.38232" lon="8.0188">
        <ele>2060</ele>
        <time>2021-07-10T12:30:57.456Z</time>
      </trkpt>
      <trkpt lat="46.38232" lon="8.01878">
        <ele>2061</ele>
        <time>2021-07-10T12:30:58.456Z</time>
      </trkpt>
      <trkpt lat="46.38231" lon="8.01876">
        <ele>2061</ele>
        <time>2021-07-10T12:30:59.456Z</time>
      </trkpt>
      <trkpt lat="46.3823" lon="8.01876">
        <ele>2061</ele>
        <time>2021-07-10T12:31:00.456Z</time>
      </trkpt>
      <trkpt lat="46.3823" lon="8.01874">
        <ele>2062</ele>
        <time>2021-07-10T12:31:01.456Z</time>
      </trkpt>
      <trkpt lat="46.3823" lon="8.01872">
        <ele>2062</ele>
        <time>2021-07-10T12:31:02.456Z</time>
      </trkpt>
      <trkpt lat="46.38229" lon="8.01871">
        <ele>2063</ele>
        <time>2021-07-10T12:31:03.456Z</time>
      </trkpt>
      <trkpt lat="46.38228" lon="8.01869">
        <ele>2063</ele>
        <time>2021-07-10T12:31:04.456Z</time>
      </trkpt>
      <trkpt lat="46.38227" lon="8.01868">
        <ele>2063</ele>
        <time>2021-07-10T12:31:05.456Z</time>
      </trkpt>
      <trkpt lat="46.38226" lon="8.01868">
        <ele>2063</ele>
        <time>2021-07-10T12:31:06.456Z</time>
      </trkpt>
      <trkpt lat="46.38225" lon="8.01868">
        <ele>2064</ele>
        <time>2021-07-10T12:31:07.457Z</time>
      </trkpt>
      <trkpt lat="46.38225" lon="8.01867">
        <ele>2064</ele>
        <time>2021-07-10T12:31:08.457Z</time>
      </trkpt>
      <trkpt lat="46.38224" lon="8.01866">
        <ele>2064</ele>
        <time>2021-07-10T12:31:09.456Z</time>
      </trkpt>
      <trkpt lat="46.38223" lon="8.01866">
        <ele>2064</ele>
        <time>2021-07-10T12:31:10.457Z</time>
      </trkpt>
      <trkpt lat="46.38223" lon="8.01865">
        <ele>2064</ele>
        <time>2021-07-10T12:31:11.456Z</time>
      </trkpt>
      <trkpt lat="46.38222" lon="8.01864">
        <ele>2065</ele>
        <time>2021-07-10T12:31:12.457Z</time>
      </trkpt>
      <trkpt lat="46.38222" lon="8.01862">
        <ele>2065</ele>
        <time>2021-07-10T12:31:13.457Z</time>
      </trkpt>
      <trkpt lat="46.38221" lon="8.01862">
        <ele>2065</ele>
        <time>2021-07-10T12:31:14.456Z</time>
      </trkpt>
      <trkpt lat="46.3822" lon="8.01861">
        <ele>2065</ele>
        <time>2021-07-10T12:31:15.457Z</time>
      </trkpt>
      <trkpt lat="46.38219" lon="8.0186">
        <ele>2064</ele>
        <time>2021-07-10T12:31:16.456Z</time>
      </trkpt>
      <trkpt lat="46.38218" lon="8.01859">
        <ele>2064</ele>
        <time>2021-07-10T12:31:17.456Z</time>
      </trkpt>
      <trkpt lat="46.38217" lon="8.01858">
        <ele>2064</ele>
        <time>2021-07-10T12:31:18.457Z</time>
      </trkpt>
      <trkpt lat="46.38216" lon="8.01857">
        <ele>2064</ele>
        <time>2021-07-10T12:31:19.456Z</time>
      </trkpt>
      <trkpt lat="46.38216" lon="8.01856">
        <ele>2063</ele>
        <time>2021-07-10T12:31:20.457Z</time>
      </trkpt>
      <trkpt lat="46.38215" lon="8.01855">
        <ele>2063</ele>
        <time>2021-07-10T12:31:21.456Z</time>
      </trkpt>
      <trkpt lat="46.38215" lon="8.01854">
        <ele>2063</ele>
        <time>2021-07-10T12:31:22.457Z</time>
      </trkpt>
      <trkpt lat="46.38214" lon="8.01852">
        <ele>2064</ele>
        <time>2021-07-10T12:31:23.457Z</time>
      </trkpt>
      <trkpt lat="46.38213" lon="8.0185">
        <ele>2064</ele>
        <time>2021-07-10T12:31:24.456Z</time>
      </trkpt>
      <trkpt lat="46.38212" lon="8.01848">
        <ele>2064</ele>
        <time>2021-07-10T12:31:25.456Z</time>
      </trkpt>
      <trkpt lat="46.38212" lon="8.01847">
        <ele>2064</ele>
        <time>2021-07-10T12:31:26.457Z</time>
      </trkpt>
      <trkpt lat="46.38211" lon="8.01846">
        <ele>2064</ele>
        <time>2021-07-10T12:31:27.456Z</time>
      </trkpt>
      <trkpt lat="46.3821" lon="8.01844">
        <ele>2065</ele>
        <time>2021-07-10T12:31:28.456Z</time>
      </trkpt>
      <trkpt lat="46.38209" lon="8.01843">
        <ele>2065</ele>
        <time>2021-07-10T12:31:29.456Z</time>
      </trkpt>
      <trkpt lat="46.38208" lon="8.01842">
        <ele>2066</ele>
        <time>2021-07-10T12:31:30.456Z</time>
      </trkpt>
      <trkpt lat="46.38207" lon="8.01841">
        <ele>2066</ele>
        <time>2021-07-10T12:31:31.456Z</time>
      </trkpt>
      <trkpt lat="46.38207" lon="8.0184">
        <ele>2067</ele>
        <time>2021-07-10T12:31:32.457Z</time>
      </trkpt>
      <trkpt lat="46.38206" lon="8.0184">
        <ele>2067</ele>
        <time>2021-07-10T12:31:33.457Z</time>
      </trkpt>
      <trkpt lat="46.38206" lon="8.01841">
        <ele>2066</ele>
        <time>2021-07-10T12:31:34.456Z</time>
      </trkpt>
      <trkpt lat="46.38205" lon="8.01841">
        <ele>2065</ele>
        <time>2021-07-10T12:31:35.457Z</time>
      </trkpt>
      <trkpt lat="46.38203" lon="8.01841">
        <ele>2064</ele>
        <time>2021-07-10T12:31:36.456Z</time>
      </trkpt>
      <trkpt lat="46.38202" lon="8.01841">
        <ele>2064</ele>
        <time>2021-07-10T12:31:37.457Z</time>
      </trkpt>
      <trkpt lat="46.38201" lon="8.01841">
        <ele>2063</ele>
        <time>2021-07-10T12:31:38.457Z</time>
      </trkpt>
      <trkpt lat="46.382" lon="8.01841">
        <ele>2062</ele>
        <time>2021-07-10T12:31:39.456Z</time>
      </trkpt>
      <trkpt lat="46.38199" lon="8.01841">
        <ele>2062</ele>
        <time>2021-07-10T12:31:40.457Z</time>
      </trkpt>
      <trkpt lat="46.38199" lon="8.0184">
        <ele>2062</ele>
        <time>2021-07-10T12:31:41.456Z</time>
      </trkpt>
      <trkpt lat="46.38198" lon="8.01839">
        <ele>2061</ele>
        <time>2021-07-10T12:31:42.456Z</time>
      </trkpt>
      <trkpt lat="46.38197" lon="8.01838">
        <ele>2061</ele>
        <time>2021-07-10T12:31:43.457Z</time>
      </trkpt>
      <trkpt lat="46.38197" lon="8.01838">
        <ele>2061</ele>
        <time>2021-07-10T12:31:44.456Z</time>
      </trkpt>
      <trkpt lat="46.38196" lon="8.01837">
        <ele>2061</ele>
        <time>2021-07-10T12:31:45.457Z</time>
      </trkpt>
      <trkpt lat="46.38195" lon="8.01836">
        <ele>2061</ele>
        <time>2021-07-10T12:31:46.456Z</time>
      </trkpt>
      <trkpt lat="46.38194" lon="8.01835">
        <ele>2061</ele>
        <time>2021-07-10T12:31:47.456Z</time>
      </trkpt>
      <trkpt lat="46.38193" lon="8.01833">
        <ele>2061</ele>
        <time>2021-07-10T12:31:48.456Z</time>
      </trkpt>
      <trkpt lat="46.38192" lon="8.01832">
        <ele>2061</ele>
        <time>2021-07-10T12:31:49.456Z</time>
      </trkpt>
      <trkpt lat="46.38191" lon="8.01833">
        <ele>2061</ele>
        <time>2021-07-10T12:31:50.456Z</time>
      </trkpt>
      <trkpt lat="46.3819" lon="8.01834">
        <ele>2060</ele>
        <time>2021-07-10T12:31:51.456Z</time>
      </trkpt>
      <trkpt lat="46.38189" lon="8.01833">
        <ele>2059</ele>
        <time>2021-07-10T12:31:52.456Z</time>
      </trkpt>
      <trkpt lat="46.38188" lon="8.01832">
        <ele>2059</ele>
        <time>2021-07-10T12:31:53.456Z</time>
      </trkpt>
      <trkpt lat="46.38187" lon="8.01829">
        <ele>2059</ele>
        <time>2021-07-10T12:31:54.456Z</time>
      </trkpt>
      <trkpt lat="46.38186" lon="8.01828">
        <ele>2059</ele>
        <time>2021-07-10T12:31:55.456Z</time>
      </trkpt>
      <trkpt lat="46.38185" lon="8.01826">
        <ele>2059</ele>
        <time>2021-07-10T12:31:56.456Z</time>
      </trkpt>
      <trkpt lat="46.38184" lon="8.01824">
        <ele>2059</ele>
        <time>2021-07-10T12:31:57.457Z</time>
      </trkpt>
      <trkpt lat="46.38183" lon="8.01823">
        <ele>2059</ele>
        <time>2021-07-10T12:31:58.456Z</time>
      </trkpt>
      <trkpt lat="46.38182" lon="8.01823">
        <ele>2060</ele>
        <time>2021-07-10T12:31:59.457Z</time>
      </trkpt>
      <trkpt lat="46.3818" lon="8.01822">
        <ele>2060</ele>
        <time>2021-07-10T12:32:00.457Z</time>
      </trkpt>
      <trkpt lat="46.38178" lon="8.01821">
        <ele>2061</ele>
        <time>2021-07-10T12:32:01.456Z</time>
      </trkpt>
      <trkpt lat="46.38177" lon="8.0182">
        <ele>2061</ele>
        <time>2021-07-10T12:32:02.456Z</time>
      </trkpt>
      <trkpt lat="46.38176" lon="8.01819">
        <ele>2061</ele>
        <time>2021-07-10T12:32:03.456Z</time>
      </trkpt>
      <trkpt lat="46.38175" lon="8.01818">
        <ele>2062</ele>
        <time>2021-07-10T12:32:04.456Z</time>
      </trkpt>
      <trkpt lat="46.38174" lon="8.01818">
        <ele>2062</ele>
        <time>2021-07-10T12:32:05.456Z</time>
      </trkpt>
      <trkpt lat="46.38173" lon="8.01818">
        <ele>2063</ele>
        <time>2021-07-10T12:32:06.456Z</time>
      </trkpt>
      <trkpt lat="46.38172" lon="8.01818">
        <ele>2063</ele>
        <time>2021-07-10T12:32:07.457Z</time>
      </trkpt>
      <trkpt lat="46.38171" lon="8.01818">
        <ele>2063</ele>
        <time>2021-07-10T12:32:08.456Z</time>
      </trkpt>
      <trkpt lat="46.38169" lon="8.01818">
        <ele>2063</ele>
        <time>2021-07-10T12:32:09.457Z</time>
      </trkpt>
      <trkpt lat="46.38168" lon="8.01819">
        <ele>2062</ele>
        <time>2021-07-10T12:32:10.456Z</time>
      </trkpt>
      <trkpt lat="46.38167" lon="8.01819">
        <ele>2062</ele>
        <time>2021-07-10T12:32:11.456Z</time>
      </trkpt>
      <trkpt lat="46.38166" lon="8.0182">
        <ele>2062</ele>
        <time>2021-07-10T12:32:12.456Z</time>
      </trkpt>
      <trkpt lat="46.38165" lon="8.0182">
        <ele>2062</ele>
        <time>2021-07-10T12:32:13.457Z</time>
      </trkpt>
      <trkpt lat="46.38164" lon="8.0182">
        <ele>2062</ele>
        <time>2021-07-10T12:32:14.457Z</time>
      </trkpt>
      <trkpt lat="46.38164" lon="8.0182">
        <ele>2062</ele>
        <time>2021-07-10T12:32:15.457Z</time>
      </trkpt>
      <trkpt lat="46.38163" lon="8.0182">
        <ele>2062</ele>
        <time>2021-07-10T12:32:16.456Z</time>
      </trkpt>
      <trkpt lat="46.38163" lon="8.0182">
        <ele>2062</ele>
        <time>2021-07-10T12:32:17.456Z</time>
      </trkpt>
      <trkpt lat="46.38162" lon="8.01821">
        <ele>2061</ele>
        <time>2021-07-10T12:32:18.457Z</time>
      </trkpt>
      <trkpt lat="46.38162" lon="8.01821">
        <ele>2061</ele>
        <time>2021-07-10T12:32:19.456Z</time>
      </trkpt>
      <trkpt lat="46.38162" lon="8.01821">
        <ele>2060</ele>
        <time>2021-07-10T12:32:20.456Z</time>
      </trkpt>
      <trkpt lat="46.38161" lon="8.01822">
        <ele>2059</ele>
        <time>2021-07-10T12:32:21.457Z</time>
      </trkpt>
      <trkpt lat="46.3816" lon="8.01822">
        <ele>2059</ele>
        <time>2021-07-10T12:32:22.456Z</time>
      </trkpt>
      <trkpt lat="46.38159" lon="8.01822">
        <ele>2058</ele>
        <time>2021-07-10T12:32:23.456Z</time>
      </trkpt>
      <trkpt lat="46.38158" lon="8.01822">
        <ele>2058</ele>
        <time>2021-07-10T12:32:24.457Z</time>
      </trkpt>
      <trkpt lat="46.38158" lon="8.01822">
        <ele>2058</ele>
        <time>2021-07-10T12:32:25.456Z</time>
      </trkpt>
      <trkpt lat="46.38157" lon="8.01822">
        <ele>2058</ele>
        <time>2021-07-10T12:32:26.457Z</time>
      </trkpt>
      <trkpt lat="46.38155" lon="8.01822">
        <ele>2057</ele>
        <time>2021-07-10T12:32:27.456Z</time>
      </trkpt>
      <trkpt lat="46.38154" lon="8.01822">
        <ele>2057</ele>
        <time>2021-07-10T12:32:28.456Z</time>
      </trkpt>
      <trkpt lat="46.38153" lon="8.01822">
        <ele>2057</ele>
        <time>2021-07-10T12:32:29.456Z</time>
      </trkpt>
      <trkpt lat="46.38151" lon="8.01821">
        <ele>2056</ele>
        <time>2021-07-10T12:32:30.456Z</time>
      </trkpt>
      <trkpt lat="46.3815" lon="8.01821">
        <ele>2056</ele>
        <time>2021-07-10T12:32:31.456Z</time>
      </trkpt>
      <trkpt lat="46.3815" lon="8.01821">
        <ele>2056</ele>
        <time>2021-07-10T12:32:32.457Z</time>
      </trkpt>
      <trkpt lat="46.38149" lon="8.01821">
        <ele>2056</ele>
        <time>2021-07-10T12:32:33.456Z</time>
      </trkpt>
      <trkpt lat="46.38148" lon="8.0182">
        <ele>2057</ele>
        <time>2021-07-10T12:32:34.457Z</time>
      </trkpt>
      <trkpt lat="46.38147" lon="8.01817">
        <ele>2057</ele>
        <time>2021-07-10T12:32:35.456Z</time>
      </trkpt>
      <trkpt lat="46.38147" lon="8.01816">
        <ele>2058</ele>
        <time>2021-07-10T12:32:36.456Z</time>
      </trkpt>
      <trkpt lat="46.38146" lon="8.01815">
        <ele>2058</ele>
        <time>2021-07-10T12:32:37.456Z</time>
      </trkpt>
      <trkpt lat="46.38145" lon="8.01814">
        <ele>2058</ele>
        <time>2021-07-10T12:32:38.457Z</time>
      </trkpt>
      <trkpt lat="46.38144" lon="8.01813">
        <ele>2058</ele>
        <time>2021-07-10T12:32:39.457Z</time>
      </trkpt>
      <trkpt lat="46.38142" lon="8.01811">
        <ele>2058</ele>
        <time>2021-07-10T12:32:40.456Z</time>
      </trkpt>
      <trkpt lat="46.38141" lon="8.01811">
        <ele>2058</ele>
        <time>2021-07-10T12:32:48.463Z</time>
      </trkpt>
      <trkpt lat="46.38141" lon="8.01811">
        <ele>2057</ele>
        <time>2021-07-10T12:32:49.462Z</time>
      </trkpt>
      <trkpt lat="46.3814" lon="8.0181">
        <ele>2057</ele>
        <time>2021-07-10T12:32:50.463Z</time>
      </trkpt>
      <trkpt lat="46.38139" lon="8.01809">
        <ele>2057</ele>
        <time>2021-07-10T12:32:51.462Z</time>
      </trkpt>
      <trkpt lat="46.38139" lon="8.01807">
        <ele>2058</ele>
        <time>2021-07-10T12:32:52.462Z</time>
      </trkpt>
      <trkpt lat="46.38138" lon="8.01807">
        <ele>2058</ele>
        <time>2021-07-10T12:32:53.463Z</time>
      </trkpt>
      <trkpt lat="46.38137" lon="8.01806">
        <ele>2058</ele>
        <time>2021-07-10T12:32:54.463Z</time>
      </trkpt>
      <trkpt lat="46.38136" lon="8.01805">
        <ele>2058</ele>
        <time>2021-07-10T12:32:55.462Z</time>
      </trkpt>
      <trkpt lat="46.38135" lon="8.01804">
        <ele>2058</ele>
        <time>2021-07-10T12:32:56.462Z</time>
      </trkpt>
      <trkpt lat="46.38133" lon="8.01802">
        <ele>2059</ele>
        <time>2021-07-10T12:32:57.462Z</time>
      </trkpt>
      <trkpt lat="46.38132" lon="8.018">
        <ele>2059</ele>
        <time>2021-07-10T12:32:58.462Z</time>
      </trkpt>
      <trkpt lat="46.38131" lon="8.01799">
        <ele>2059</ele>
        <time>2021-07-10T12:32:59.462Z</time>
      </trkpt>
      <trkpt lat="46.3813" lon="8.01798">
        <ele>2059</ele>
        <time>2021-07-10T12:33:00.462Z</time>
      </trkpt>
      <trkpt lat="46.38129" lon="8.01797">
        <ele>2059</ele>
        <time>2021-07-10T12:33:01.463Z</time>
      </trkpt>
      <trkpt lat="46.38128" lon="8.01795">
        <ele>2059</ele>
        <time>2021-07-10T12:33:02.462Z</time>
      </trkpt>
      <trkpt lat="46.38127" lon="8.01794">
        <ele>2059</ele>
        <time>2021-07-10T12:33:03.462Z</time>
      </trkpt>
      <trkpt lat="46.38126" lon="8.01792">
        <ele>2059</ele>
        <time>2021-07-10T12:33:04.462Z</time>
      </trkpt>
      <trkpt lat="46.38124" lon="8.0179">
        <ele>2059</ele>
        <time>2021-07-10T12:33:05.462Z</time>
      </trkpt>
      <trkpt lat="46.38123" lon="8.01791">
        <ele>2059</ele>
        <time>2021-07-10T12:33:06.462Z</time>
      </trkpt>
      <trkpt lat="46.38122" lon="8.01791">
        <ele>2059</ele>
        <time>2021-07-10T12:33:07.462Z</time>
      </trkpt>
      <trkpt lat="46.38121" lon="8.01791">
        <ele>2059</ele>
        <time>2021-07-10T12:33:08.463Z</time>
      </trkpt>
      <trkpt lat="46.3812" lon="8.01792">
        <ele>2058</ele>
        <time>2021-07-10T12:33:09.463Z</time>
      </trkpt>
      <trkpt lat="46.38119" lon="8.01792">
        <ele>2058</ele>
        <time>2021-07-10T12:33:10.462Z</time>
      </trkpt>
      <trkpt lat="46.38118" lon="8.01791">
        <ele>2057</ele>
        <time>2021-07-10T12:33:11.462Z</time>
      </trkpt>
      <trkpt lat="46.38117" lon="8.01789">
        <ele>2058</ele>
        <time>2021-07-10T12:33:12.462Z</time>
      </trkpt>
      <trkpt lat="46.38116" lon="8.01788">
        <ele>2058</ele>
        <time>2021-07-10T12:33:13.462Z</time>
      </trkpt>
      <trkpt lat="46.38116" lon="8.01787">
        <ele>2059</ele>
        <time>2021-07-10T12:33:14.462Z</time>
      </trkpt>
      <trkpt lat="46.38115" lon="8.01786">
        <ele>2059</ele>
        <time>2021-07-10T12:33:15.462Z</time>
      </trkpt>
      <trkpt lat="46.38114" lon="8.01785">
        <ele>2060</ele>
        <time>2021-07-10T12:33:16.462Z</time>
      </trkpt>
      <trkpt lat="46.38113" lon="8.01785">
        <ele>2060</ele>
        <time>2021-07-10T12:33:17.463Z</time>
      </trkpt>
      <trkpt lat="46.38112" lon="8.01785">
        <ele>2060</ele>
        <time>2021-07-10T12:33:18.462Z</time>
      </trkpt>
      <trkpt lat="46.38111" lon="8.01786">
        <ele>2060</ele>
        <time>2021-07-10T12:33:19.462Z</time>
      </trkpt>
      <trkpt lat="46.3811" lon="8.01785">
        <ele>2060</ele>
        <time>2021-07-10T12:33:20.463Z</time>
      </trkpt>
      <trkpt lat="46.38109" lon="8.01785">
        <ele>2061</ele>
        <time>2021-07-10T12:33:21.462Z</time>
      </trkpt>
      <trkpt lat="46.38109" lon="8.01784">
        <ele>2061</ele>
        <time>2021-07-10T12:33:22.462Z</time>
      </trkpt>
      <trkpt lat="46.38107" lon="8.01784">
        <ele>2061</ele>
        <time>2021-07-10T12:33:23.462Z</time>
      </trkpt>
      <trkpt lat="46.38106" lon="8.01783">
        <ele>2060</ele>
        <time>2021-07-10T12:33:24.462Z</time>
      </trkpt>
      <trkpt lat="46.38105" lon="8.01783">
        <ele>2060</ele>
        <time>2021-07-10T12:33:25.462Z</time>
      </trkpt>
      <trkpt lat="46.38103" lon="8.01781">
        <ele>2060</ele>
        <time>2021-07-10T12:33:26.462Z</time>
      </trkpt>
      <trkpt lat="46.38102" lon="8.01779">
        <ele>2060</ele>
        <time>2021-07-10T12:33:27.462Z</time>
      </trkpt>
      <trkpt lat="46.38101" lon="8.01779">
        <ele>2060</ele>
        <time>2021-07-10T12:33:28.462Z</time>
      </trkpt>
      <trkpt lat="46.381" lon="8.01778">
        <ele>2060</ele>
        <time>2021-07-10T12:33:29.463Z</time>
      </trkpt>
      <trkpt lat="46.381" lon="8.01778">
        <ele>2060</ele>
        <time>2021-07-10T12:33:30.462Z</time>
      </trkpt>
      <trkpt lat="46.381" lon="8.01778">
        <ele>2060</ele>
        <time>2021-07-10T12:33:31.462Z</time>
      </trkpt>
      <trkpt lat="46.38099" lon="8.01777">
        <ele>2059</ele>
        <time>2021-07-10T12:33:32.462Z</time>
      </trkpt>
      <trkpt lat="46.38098" lon="8.01776">
        <ele>2059</ele>
        <time>2021-07-10T12:33:33.462Z</time>
      </trkpt>
      <trkpt lat="46.38097" lon="8.01774">
        <ele>2058</ele>
        <time>2021-07-10T12:33:34.462Z</time>
      </trkpt>
      <trkpt lat="46.38096" lon="8.01774">
        <ele>2057</ele>
        <time>2021-07-10T12:33:35.463Z</time>
      </trkpt>
      <trkpt lat="46.38095" lon="8.01773">
        <ele>2057</ele>
        <time>2021-07-10T12:33:36.462Z</time>
      </trkpt>
      <trkpt lat="46.38095" lon="8.01771">
        <ele>2057</ele>
        <time>2021-07-10T12:33:37.462Z</time>
      </trkpt>
      <trkpt lat="46.38094" lon="8.01771">
        <ele>2057</ele>
        <time>2021-07-10T12:33:38.463Z</time>
      </trkpt>
      <trkpt lat="46.38093" lon="8.0177">
        <ele>2057</ele>
        <time>2021-07-10T12:33:39.462Z</time>
      </trkpt>
      <trkpt lat="46.38091" lon="8.0177">
        <ele>2057</ele>
        <time>2021-07-10T12:33:40.462Z</time>
      </trkpt>
      <trkpt lat="46.38091" lon="8.01769">
        <ele>2057</ele>
        <time>2021-07-10T12:33:41.463Z</time>
      </trkpt>
      <trkpt lat="46.3809" lon="8.01768">
        <ele>2058</ele>
        <time>2021-07-10T12:33:42.463Z</time>
      </trkpt>
      <trkpt lat="46.38089" lon="8.01767">
        <ele>2058</ele>
        <time>2021-07-10T12:33:43.462Z</time>
      </trkpt>
      <trkpt lat="46.38088" lon="8.01766">
        <ele>2058</ele>
        <time>2021-07-10T12:33:44.462Z</time>
      </trkpt>
      <trkpt lat="46.38088" lon="8.01765">
        <ele>2058</ele>
        <time>2021-07-10T12:33:45.462Z</time>
      </trkpt>
      <trkpt lat="46.38087" lon="8.01765">
        <ele>2058</ele>
        <time>2021-07-10T12:33:46.462Z</time>
      </trkpt>
      <trkpt lat="46.38086" lon="8.01765">
        <ele>2058</ele>
        <time>2021-07-10T12:33:47.462Z</time>
      </trkpt>
      <trkpt lat="46.38085" lon="8.01766">
        <ele>2057</ele>
        <time>2021-07-10T12:33:48.463Z</time>
      </trkpt>
      <trkpt lat="46.38084" lon="8.01766">
        <ele>2057</ele>
        <time>2021-07-10T12:33:49.463Z</time>
      </trkpt>
      <trkpt lat="46.38083" lon="8.01767">
        <ele>2057</ele>
        <time>2021-07-10T12:33:50.463Z</time>
      </trkpt>
      <trkpt lat="46.38082" lon="8.01767">
        <ele>2056</ele>
        <time>2021-07-10T12:33:51.462Z</time>
      </trkpt>
      <trkpt lat="46.38081" lon="8.01768">
        <ele>2056</ele>
        <time>2021-07-10T12:33:52.462Z</time>
      </trkpt>
      <trkpt lat="46.38079" lon="8.01768">
        <ele>2055</ele>
        <time>2021-07-10T12:33:53.462Z</time>
      </trkpt>
      <trkpt lat="46.38078" lon="8.01769">
        <ele>2054</ele>
        <time>2021-07-10T12:34:00.578Z</time>
      </trkpt>
      <trkpt lat="46.38077" lon="8.0177">
        <ele>2054</ele>
        <time>2021-07-10T12:34:13.346Z</time>
      </trkpt>
      <trkpt lat="46.38076" lon="8.0177">
        <ele>2053</ele>
        <time>2021-07-10T12:34:14.346Z</time>
      </trkpt>
      <trkpt lat="46.38075" lon="8.01769">
        <ele>2053</ele>
        <time>2021-07-10T12:34:15.345Z</time>
      </trkpt>
      <trkpt lat="46.38073" lon="8.01768">
        <ele>2053</ele>
        <time>2021-07-10T12:34:30.494Z</time>
      </trkpt>
      <trkpt lat="46.38073" lon="8.01768">
        <ele>2053</ele>
        <time>2021-07-10T12:34:31.493Z</time>
      </trkpt>
      <trkpt lat="46.38072" lon="8.01768">
        <ele>2053</ele>
        <time>2021-07-10T12:34:32.494Z</time>
      </trkpt>
      <trkpt lat="46.38071" lon="8.01767">
        <ele>2054</ele>
        <time>2021-07-10T12:34:33.493Z</time>
      </trkpt>
      <trkpt lat="46.38069" lon="8.01767">
        <ele>2054</ele>
        <time>2021-07-10T12:34:34.493Z</time>
      </trkpt>
      <trkpt lat="46.38068" lon="8.01767">
        <ele>2055</ele>
        <time>2021-07-10T12:34:35.494Z</time>
      </trkpt>
      <trkpt lat="46.38067" lon="8.01767">
        <ele>2055</ele>
        <time>2021-07-10T12:34:36.494Z</time>
      </trkpt>
      <trkpt lat="46.38066" lon="8.01768">
        <ele>2055</ele>
        <time>2021-07-10T12:34:37.493Z</time>
      </trkpt>
      <trkpt lat="46.38065" lon="8.01768">
        <ele>2055</ele>
        <time>2021-07-10T12:34:38.493Z</time>
      </trkpt>
      <trkpt lat="46.38064" lon="8.01767">
        <ele>2055</ele>
        <time>2021-07-10T12:34:39.493Z</time>
      </trkpt>
      <trkpt lat="46.38063" lon="8.01766">
        <ele>2055</ele>
        <time>2021-07-10T12:34:40.493Z</time>
      </trkpt>
      <trkpt lat="46.38062" lon="8.01764">
        <ele>2054</ele>
        <time>2021-07-10T12:34:41.493Z</time>
      </trkpt>
      <trkpt lat="46.3806" lon="8.01764">
        <ele>2054</ele>
        <time>2021-07-10T12:34:42.493Z</time>
      </trkpt>
      <trkpt lat="46.38059" lon="8.01764">
        <ele>2054</ele>
        <time>2021-07-10T12:34:43.493Z</time>
      </trkpt>
      <trkpt lat="46.38058" lon="8.01765">
        <ele>2053</ele>
        <time>2021-07-10T12:34:44.493Z</time>
      </trkpt>
      <trkpt lat="46.38058" lon="8.01765">
        <ele>2053</ele>
        <time>2021-07-10T12:34:45.493Z</time>
      </trkpt>
      <trkpt lat="46.38056" lon="8.01765">
        <ele>2053</ele>
        <time>2021-07-10T12:34:46.493Z</time>
      </trkpt>
      <trkpt lat="46.38055" lon="8.01766">
        <ele>2052</ele>
        <time>2021-07-10T12:34:47.493Z</time>
      </trkpt>
      <trkpt lat="46.38055" lon="8.01767">
        <ele>2052</ele>
        <time>2021-07-10T12:34:48.493Z</time>
      </trkpt>
      <trkpt lat="46.38054" lon="8.01768">
        <ele>2052</ele>
        <time>2021-07-10T12:34:49.494Z</time>
      </trkpt>
      <trkpt lat="46.38053" lon="8.01768">
        <ele>2051</ele>
        <time>2021-07-10T12:34:50.493Z</time>
      </trkpt>
      <trkpt lat="46.38052" lon="8.01768">
        <ele>2051</ele>
        <time>2021-07-10T12:34:51.494Z</time>
      </trkpt>
      <trkpt lat="46.38051" lon="8.01768">
        <ele>2051</ele>
        <time>2021-07-10T12:34:52.494Z</time>
      </trkpt>
      <trkpt lat="46.38051" lon="8.01768">
        <ele>2052</ele>
        <time>2021-07-10T12:34:53.493Z</time>
      </trkpt>
      <trkpt lat="46.3805" lon="8.01768">
        <ele>2052</ele>
        <time>2021-07-10T12:34:54.493Z</time>
      </trkpt>
      <trkpt lat="46.38049" lon="8.01768">
        <ele>2052</ele>
        <time>2021-07-10T12:34:55.493Z</time>
      </trkpt>
      <trkpt lat="46.38048" lon="8.01768">
        <ele>2052</ele>
        <time>2021-07-10T12:34:56.494Z</time>
      </trkpt>
      <trkpt lat="46.38047" lon="8.01768">
        <ele>2053</ele>
        <time>2021-07-10T12:34:57.494Z</time>
      </trkpt>
      <trkpt lat="46.38047" lon="8.01768">
        <ele>2054</ele>
        <time>2021-07-10T12:34:58.494Z</time>
      </trkpt>
      <trkpt lat="46.38046" lon="8.01768">
        <ele>2054</ele>
        <time>2021-07-10T12:34:59.494Z</time>
      </trkpt>
      <trkpt lat="46.38044" lon="8.01768">
        <ele>2055</ele>
        <time>2021-07-10T12:35:00.494Z</time>
      </trkpt>
      <trkpt lat="46.38043" lon="8.01768">
        <ele>2055</ele>
        <time>2021-07-10T12:35:01.493Z</time>
      </trkpt>
      <trkpt lat="46.38042" lon="8.01767">
        <ele>2055</ele>
        <time>2021-07-10T12:35:02.494Z</time>
      </trkpt>
      <trkpt lat="46.38041" lon="8.01767">
        <ele>2055</ele>
        <time>2021-07-10T12:35:03.493Z</time>
      </trkpt>
      <trkpt lat="46.38041" lon="8.01767">
        <ele>2055</ele>
        <time>2021-07-10T12:35:04.493Z</time>
      </trkpt>
      <trkpt lat="46.3804" lon="8.01768">
        <ele>2055</ele>
        <time>2021-07-10T12:35:05.494Z</time>
      </trkpt>
      <trkpt lat="46.38039" lon="8.01769">
        <ele>2055</ele>
        <time>2021-07-10T12:35:06.493Z</time>
      </trkpt>
      <trkpt lat="46.38038" lon="8.0177">
        <ele>2055</ele>
        <time>2021-07-10T12:35:07.494Z</time>
      </trkpt>
      <trkpt lat="46.38038" lon="8.0177">
        <ele>2055</ele>
        <time>2021-07-10T12:35:08.493Z</time>
      </trkpt>
      <trkpt lat="46.38037" lon="8.0177">
        <ele>2056</ele>
        <time>2021-07-10T12:35:09.493Z</time>
      </trkpt>
      <trkpt lat="46.38036" lon="8.01771">
        <ele>2056</ele>
        <time>2021-07-10T12:35:10.494Z</time>
      </trkpt>
      <trkpt lat="46.38036" lon="8.01772">
        <ele>2056</ele>
        <time>2021-07-10T12:35:11.493Z</time>
      </trkpt>
      <trkpt lat="46.38035" lon="8.01772">
        <ele>2056</ele>
        <time>2021-07-10T12:35:12.493Z</time>
      </trkpt>
      <trkpt lat="46.38034" lon="8.01772">
        <ele>2055</ele>
        <time>2021-07-10T12:35:13.494Z</time>
      </trkpt>
      <trkpt lat="46.38033" lon="8.01772">
        <ele>2055</ele>
        <time>2021-07-10T12:35:14.493Z</time>
      </trkpt>
      <trkpt lat="46.38031" lon="8.01771">
        <ele>2055</ele>
        <time>2021-07-10T12:35:15.493Z</time>
      </trkpt>
      <trkpt lat="46.38031" lon="8.01771">
        <ele>2054</ele>
        <time>2021-07-10T12:35:16.493Z</time>
      </trkpt>
      <trkpt lat="46.38029" lon="8.0177">
        <ele>2054</ele>
        <time>2021-07-10T12:35:17.493Z</time>
      </trkpt>
      <trkpt lat="46.38028" lon="8.01769">
        <ele>2054</ele>
        <time>2021-07-10T12:35:18.493Z</time>
      </trkpt>
      <trkpt lat="46.38027" lon="8.01769">
        <ele>2054</ele>
        <time>2021-07-10T12:35:19.493Z</time>
      </trkpt>
      <trkpt lat="46.38026" lon="8.01768">
        <ele>2053</ele>
        <time>2021-07-10T12:35:20.493Z</time>
      </trkpt>
      <trkpt lat="46.38025" lon="8.01767">
        <ele>2053</ele>
        <time>2021-07-10T12:35:21.493Z</time>
      </trkpt>
      <trkpt lat="46.38024" lon="8.01766">
        <ele>2053</ele>
        <time>2021-07-10T12:35:22.493Z</time>
      </trkpt>
      <trkpt lat="46.38023" lon="8.01765">
        <ele>2053</ele>
        <time>2021-07-10T12:35:23.493Z</time>
      </trkpt>
      <trkpt lat="46.38022" lon="8.01765">
        <ele>2053</ele>
        <time>2021-07-10T12:35:24.493Z</time>
      </trkpt>
      <trkpt lat="46.38021" lon="8.01766">
        <ele>2053</ele>
        <time>2021-07-10T12:35:25.494Z</time>
      </trkpt>
      <trkpt lat="46.3802" lon="8.01766">
        <ele>2053</ele>
        <time>2021-07-10T12:35:26.493Z</time>
      </trkpt>
      <trkpt lat="46.38019" lon="8.01767">
        <ele>2053</ele>
        <time>2021-07-10T12:35:27.493Z</time>
      </trkpt>
      <trkpt lat="46.38018" lon="8.01768">
        <ele>2053</ele>
        <time>2021-07-10T12:35:28.494Z</time>
      </trkpt>
      <trkpt lat="46.38017" lon="8.01769">
        <ele>2054</ele>
        <time>2021-07-10T12:35:29.493Z</time>
      </trkpt>
      <trkpt lat="46.38016" lon="8.01769">
        <ele>2054</ele>
        <time>2021-07-10T12:35:30.494Z</time>
      </trkpt>
      <trkpt lat="46.38015" lon="8.01769">
        <ele>2053</ele>
        <time>2021-07-10T12:35:31.494Z</time>
      </trkpt>
      <trkpt lat="46.38014" lon="8.01769">
        <ele>2053</ele>
        <time>2021-07-10T12:35:32.493Z</time>
      </trkpt>
      <trkpt lat="46.38013" lon="8.01768">
        <ele>2053</ele>
        <time>2021-07-10T12:35:33.494Z</time>
      </trkpt>
      <trkpt lat="46.38012" lon="8.01768">
        <ele>2053</ele>
        <time>2021-07-10T12:35:34.493Z</time>
      </trkpt>
      <trkpt lat="46.38011" lon="8.01767">
        <ele>2053</ele>
        <time>2021-07-10T12:35:35.493Z</time>
      </trkpt>
      <trkpt lat="46.38009" lon="8.01766">
        <ele>2053</ele>
        <time>2021-07-10T12:35:36.494Z</time>
      </trkpt>
      <trkpt lat="46.38008" lon="8.01765">
        <ele>2053</ele>
        <time>2021-07-10T12:35:37.493Z</time>
      </trkpt>
      <trkpt lat="46.38007" lon="8.01765">
        <ele>2053</ele>
        <time>2021-07-10T12:35:38.493Z</time>
      </trkpt>
      <trkpt lat="46.38006" lon="8.01764">
        <ele>2053</ele>
        <time>2021-07-10T12:35:39.494Z</time>
      </trkpt>
      <trkpt lat="46.38005" lon="8.01763">
        <ele>2053</ele>
        <time>2021-07-10T12:35:40.494Z</time>
      </trkpt>
      <trkpt lat="46.38004" lon="8.01762">
        <ele>2053</ele>
        <time>2021-07-10T12:35:41.493Z</time>
      </trkpt>
      <trkpt lat="46.38003" lon="8.01762">
        <ele>2053</ele>
        <time>2021-07-10T12:35:42.493Z</time>
      </trkpt>
      <trkpt lat="46.38001" lon="8.01762">
        <ele>2053</ele>
        <time>2021-07-10T12:35:43.494Z</time>
      </trkpt>
      <trkpt lat="46.38" lon="8.01761">
        <ele>2053</ele>
        <time>2021-07-10T12:35:44.494Z</time>
      </trkpt>
      <trkpt lat="46.37999" lon="8.01761">
        <ele>2053</ele>
        <time>2021-07-10T12:35:45.493Z</time>
      </trkpt>
      <trkpt lat="46.37998" lon="8.0176">
        <ele>2053</ele>
        <time>2021-07-10T12:35:46.493Z</time>
      </trkpt>
      <trkpt lat="46.37997" lon="8.01759">
        <ele>2053</ele>
        <time>2021-07-10T12:35:47.494Z</time>
      </trkpt>
      <trkpt lat="46.37996" lon="8.01759">
        <ele>2054</ele>
        <time>2021-07-10T12:35:48.494Z</time>
      </trkpt>
      <trkpt lat="46.37995" lon="8.01758">
        <ele>2054</ele>
        <time>2021-07-10T12:35:49.493Z</time>
      </trkpt>
      <trkpt lat="46.37994" lon="8.01758">
        <ele>2054</ele>
        <time>2021-07-10T12:35:50.493Z</time>
      </trkpt>
      <trkpt lat="46.37992" lon="8.01759">
        <ele>2055</ele>
        <time>2021-07-10T12:35:51.494Z</time>
      </trkpt>
      <trkpt lat="46.37991" lon="8.0176">
        <ele>2054</ele>
        <time>2021-07-10T12:35:52.493Z</time>
      </trkpt>
      <trkpt lat="46.3799" lon="8.01761">
        <ele>2054</ele>
        <time>2021-07-10T12:35:53.493Z</time>
      </trkpt>
      <trkpt lat="46.37989" lon="8.01762">
        <ele>2054</ele>
        <time>2021-07-10T12:35:54.494Z</time>
      </trkpt>
      <trkpt lat="46.37988" lon="8.01762">
        <ele>2054</ele>
        <time>2021-07-10T12:35:55.493Z</time>
      </trkpt>
      <trkpt lat="46.37987" lon="8.01763">
        <ele>2054</ele>
        <time>2021-07-10T12:35:56.493Z</time>
      </trkpt>
      <trkpt lat="46.37986" lon="8.01763">
        <ele>2054</ele>
        <time>2021-07-10T12:35:57.494Z</time>
      </trkpt>
      <trkpt lat="46.37985" lon="8.01763">
        <ele>2055</ele>
        <time>2021-07-10T12:35:58.493Z</time>
      </trkpt>
      <trkpt lat="46.37984" lon="8.01763">
        <ele>2055</ele>
        <time>2021-07-10T12:35:59.493Z</time>
      </trkpt>
      <trkpt lat="46.37983" lon="8.01763">
        <ele>2055</ele>
        <time>2021-07-10T12:36:00.493Z</time>
      </trkpt>
      <trkpt lat="46.37982" lon="8.01763">
        <ele>2056</ele>
        <time>2021-07-10T12:36:01.493Z</time>
      </trkpt>
      <trkpt lat="46.37981" lon="8.01764">
        <ele>2056</ele>
        <time>2021-07-10T12:36:02.493Z</time>
      </trkpt>
      <trkpt lat="46.37979" lon="8.01764">
        <ele>2056</ele>
        <time>2021-07-10T12:36:03.493Z</time>
      </trkpt>
      <trkpt lat="46.37978" lon="8.01765">
        <ele>2056</ele>
        <time>2021-07-10T12:36:04.494Z</time>
      </trkpt>
      <trkpt lat="46.37977" lon="8.01767">
        <ele>2056</ele>
        <time>2021-07-10T12:36:05.494Z</time>
      </trkpt>
      <trkpt lat="46.37976" lon="8.01767">
        <ele>2055</ele>
        <time>2021-07-10T12:36:06.493Z</time>
      </trkpt>
      <trkpt lat="46.37975" lon="8.01767">
        <ele>2056</ele>
        <time>2021-07-10T12:36:07.493Z</time>
      </trkpt>
      <trkpt lat="46.37974" lon="8.01767">
        <ele>2056</ele>
        <time>2021-07-10T12:36:08.493Z</time>
      </trkpt>
      <trkpt lat="46.37972" lon="8.01767">
        <ele>2056</ele>
        <time>2021-07-10T12:36:09.493Z</time>
      </trkpt>
      <trkpt lat="46.37971" lon="8.01768">
        <ele>2057</ele>
        <time>2021-07-10T12:36:10.494Z</time>
      </trkpt>
      <trkpt lat="46.3797" lon="8.01768">
        <ele>2057</ele>
        <time>2021-07-10T12:36:11.493Z</time>
      </trkpt>
      <trkpt lat="46.37969" lon="8.01768">
        <ele>2057</ele>
        <time>2021-07-10T12:36:12.494Z</time>
      </trkpt>
      <trkpt lat="46.37968" lon="8.01768">
        <ele>2057</ele>
        <time>2021-07-10T12:36:13.493Z</time>
      </trkpt>
      <trkpt lat="46.37967" lon="8.01769">
        <ele>2057</ele>
        <time>2021-07-10T12:36:14.494Z</time>
      </trkpt>
      <trkpt lat="46.37966" lon="8.01768">
        <ele>2057</ele>
        <time>2021-07-10T12:36:15.493Z</time>
      </trkpt>
      <trkpt lat="46.37964" lon="8.01768">
        <ele>2057</ele>
        <time>2021-07-10T12:36:16.494Z</time>
      </trkpt>
      <trkpt lat="46.37963" lon="8.01768">
        <ele>2057</ele>
        <time>2021-07-10T12:36:17.493Z</time>
      </trkpt>
      <trkpt lat="46.37962" lon="8.01768">
        <ele>2057</ele>
        <time>2021-07-10T12:36:18.494Z</time>
      </trkpt>
      <trkpt lat="46.3796" lon="8.01768">
        <ele>2057</ele>
        <time>2021-07-10T12:36:19.493Z</time>
      </trkpt>
      <trkpt lat="46.37959" lon="8.01768">
        <ele>2057</ele>
        <time>2021-07-10T12:36:20.493Z</time>
      </trkpt>
      <trkpt lat="46.37958" lon="8.01767">
        <ele>2057</ele>
        <time>2021-07-10T12:36:21.493Z</time>
      </trkpt>
      <trkpt lat="46.37957" lon="8.01766">
        <ele>2058</ele>
        <time>2021-07-10T12:36:22.493Z</time>
      </trkpt>
      <trkpt lat="46.37956" lon="8.01765">
        <ele>2059</ele>
        <time>2021-07-10T12:36:23.493Z</time>
      </trkpt>
      <trkpt lat="46.37955" lon="8.01765">
        <ele>2059</ele>
        <time>2021-07-10T12:36:24.494Z</time>
      </trkpt>
      <trkpt lat="46.37953" lon="8.01765">
        <ele>2059</ele>
        <time>2021-07-10T12:36:25.493Z</time>
      </trkpt>
      <trkpt lat="46.37952" lon="8.01765">
        <ele>2060</ele>
        <time>2021-07-10T12:36:26.494Z</time>
      </trkpt>
      <trkpt lat="46.37951" lon="8.01766">
        <ele>2060</ele>
        <time>2021-07-10T12:36:27.494Z</time>
      </trkpt>
      <trkpt lat="46.3795" lon="8.01766">
        <ele>2060</ele>
        <time>2021-07-10T12:36:28.494Z</time>
      </trkpt>
      <trkpt lat="46.37949" lon="8.01765">
        <ele>2060</ele>
        <time>2021-07-10T12:36:29.493Z</time>
      </trkpt>
      <trkpt lat="46.37948" lon="8.01764">
        <ele>2060</ele>
        <time>2021-07-10T12:36:30.493Z</time>
      </trkpt>
      <trkpt lat="46.37947" lon="8.01764">
        <ele>2060</ele>
        <time>2021-07-10T12:36:31.494Z</time>
      </trkpt>
      <trkpt lat="46.37946" lon="8.01764">
        <ele>2060</ele>
        <time>2021-07-10T12:36:32.494Z</time>
      </trkpt>
      <trkpt lat="46.37945" lon="8.01765">
        <ele>2060</ele>
        <time>2021-07-10T12:36:33.494Z</time>
      </trkpt>
      <trkpt lat="46.37944" lon="8.01765">
        <ele>2060</ele>
        <time>2021-07-10T12:36:34.493Z</time>
      </trkpt>
      <trkpt lat="46.37943" lon="8.01766">
        <ele>2060</ele>
        <time>2021-07-10T12:36:35.494Z</time>
      </trkpt>
      <trkpt lat="46.37942" lon="8.01767">
        <ele>2061</ele>
        <time>2021-07-10T12:36:36.494Z</time>
      </trkpt>
      <trkpt lat="46.37941" lon="8.01767">
        <ele>2061</ele>
        <time>2021-07-10T12:36:37.494Z</time>
      </trkpt>
      <trkpt lat="46.3794" lon="8.01768">
        <ele>2061</ele>
        <time>2021-07-10T12:36:38.493Z</time>
      </trkpt>
      <trkpt lat="46.3794" lon="8.01768">
        <ele>2060</ele>
        <time>2021-07-10T12:36:39.493Z</time>
      </trkpt>
      <trkpt lat="46.37939" lon="8.01768">
        <ele>2060</ele>
        <time>2021-07-10T12:36:40.493Z</time>
      </trkpt>
      <trkpt lat="46.37938" lon="8.01769">
        <ele>2060</ele>
        <time>2021-07-10T12:36:41.493Z</time>
      </trkpt>
      <trkpt lat="46.37937" lon="8.01768">
        <ele>2060</ele>
        <time>2021-07-10T12:36:42.494Z</time>
      </trkpt>
      <trkpt lat="46.37935" lon="8.01768">
        <ele>2061</ele>
        <time>2021-07-10T12:36:43.494Z</time>
      </trkpt>
      <trkpt lat="46.37934" lon="8.01768">
        <ele>2061</ele>
        <time>2021-07-10T12:36:44.493Z</time>
      </trkpt>
      <trkpt lat="46.37933" lon="8.01768">
        <ele>2060</ele>
        <time>2021-07-10T12:36:45.493Z</time>
      </trkpt>
      <trkpt lat="46.37931" lon="8.01768">
        <ele>2060</ele>
        <time>2021-07-10T12:36:46.494Z</time>
      </trkpt>
      <trkpt lat="46.3793" lon="8.01768">
        <ele>2059</ele>
        <time>2021-07-10T12:36:47.494Z</time>
      </trkpt>
      <trkpt lat="46.3793" lon="8.01768">
        <ele>2059</ele>
        <time>2021-07-10T12:36:48.494Z</time>
      </trkpt>
      <trkpt lat="46.37929" lon="8.01768">
        <ele>2059</ele>
        <time>2021-07-10T12:36:49.494Z</time>
      </trkpt>
      <trkpt lat="46.37927" lon="8.01768">
        <ele>2059</ele>
        <time>2021-07-10T12:36:50.493Z</time>
      </trkpt>
      <trkpt lat="46.37926" lon="8.01768">
        <ele>2059</ele>
        <time>2021-07-10T12:36:51.493Z</time>
      </trkpt>
      <trkpt lat="46.37925" lon="8.01768">
        <ele>2059</ele>
        <time>2021-07-10T12:36:52.493Z</time>
      </trkpt>
      <trkpt lat="46.37924" lon="8.01768">
        <ele>2058</ele>
        <time>2021-07-10T12:36:53.494Z</time>
      </trkpt>
      <trkpt lat="46.37922" lon="8.01768">
        <ele>2058</ele>
        <time>2021-07-10T12:36:54.493Z</time>
      </trkpt>
      <trkpt lat="46.37921" lon="8.01768">
        <ele>2058</ele>
        <time>2021-07-10T12:36:55.493Z</time>
      </trkpt>
      <trkpt lat="46.3792" lon="8.01769">
        <ele>2058</ele>
        <time>2021-07-10T12:36:56.494Z</time>
      </trkpt>
      <trkpt lat="46.37919" lon="8.01769">
        <ele>2058</ele>
        <time>2021-07-10T12:36:57.494Z</time>
      </trkpt>
      <trkpt lat="46.37919" lon="8.01769">
        <ele>2058</ele>
        <time>2021-07-10T12:36:58.493Z</time>
      </trkpt>
      <trkpt lat="46.37917" lon="8.01768">
        <ele>2059</ele>
        <time>2021-07-10T12:36:59.493Z</time>
      </trkpt>
      <trkpt lat="46.37916" lon="8.01767">
        <ele>2059</ele>
        <time>2021-07-10T12:37:00.494Z</time>
      </trkpt>
      <trkpt lat="46.37915" lon="8.01767">
        <ele>2059</ele>
        <time>2021-07-10T12:37:01.494Z</time>
      </trkpt>
      <trkpt lat="46.37914" lon="8.01767">
        <ele>2059</ele>
        <time>2021-07-10T12:37:02.493Z</time>
      </trkpt>
      <trkpt lat="46.37913" lon="8.01767">
        <ele>2059</ele>
        <time>2021-07-10T12:37:03.494Z</time>
      </trkpt>
      <trkpt lat="46.37912" lon="8.01767">
        <ele>2059</ele>
        <time>2021-07-10T12:37:04.494Z</time>
      </trkpt>
      <trkpt lat="46.37911" lon="8.01767">
        <ele>2060</ele>
        <time>2021-07-10T12:37:05.494Z</time>
      </trkpt>
      <trkpt lat="46.3791" lon="8.01767">
        <ele>2060</ele>
        <time>2021-07-10T12:37:06.494Z</time>
      </trkpt>
      <trkpt lat="46.37909" lon="8.01766">
        <ele>2060</ele>
        <time>2021-07-10T12:37:07.493Z</time>
      </trkpt>
      <trkpt lat="46.37908" lon="8.01765">
        <ele>2060</ele>
        <time>2021-07-10T12:37:08.493Z</time>
      </trkpt>
      <trkpt lat="46.37907" lon="8.01764">
        <ele>2060</ele>
        <time>2021-07-10T12:37:12.615Z</time>
      </trkpt>
      <trkpt lat="46.37906" lon="8.01764">
        <ele>2060</ele>
        <time>2021-07-10T12:37:13.615Z</time>
      </trkpt>
      <trkpt lat="46.37905" lon="8.01763">
        <ele>2060</ele>
        <time>2021-07-10T12:37:14.615Z</time>
      </trkpt>
      <trkpt lat="46.37904" lon="8.01762">
        <ele>2060</ele>
        <time>2021-07-10T12:37:15.616Z</time>
      </trkpt>
      <trkpt lat="46.37903" lon="8.01762">
        <ele>2060</ele>
        <time>2021-07-10T12:37:16.615Z</time>
      </trkpt>
      <trkpt lat="46.37902" lon="8.01761">
        <ele>2060</ele>
        <time>2021-07-10T12:37:17.615Z</time>
      </trkpt>
      <trkpt lat="46.37901" lon="8.0176">
        <ele>2060</ele>
        <time>2021-07-10T12:37:18.615Z</time>
      </trkpt>
      <trkpt lat="46.379" lon="8.01759">
        <ele>2060</ele>
        <time>2021-07-10T12:37:19.616Z</time>
      </trkpt>
      <trkpt lat="46.37899" lon="8.01759">
        <ele>2061</ele>
        <time>2021-07-10T12:37:20.615Z</time>
      </trkpt>
      <trkpt lat="46.37898" lon="8.01759">
        <ele>2061</ele>
        <time>2021-07-10T12:37:21.616Z</time>
      </trkpt>
      <trkpt lat="46.37897" lon="8.01759">
        <ele>2061</ele>
        <time>2021-07-10T12:37:22.616Z</time>
      </trkpt>
      <trkpt lat="46.37896" lon="8.01759">
        <ele>2060</ele>
        <time>2021-07-10T12:37:29.730Z</time>
      </trkpt>
      <trkpt lat="46.37895" lon="8.01758">
        <ele>2061</ele>
        <time>2021-07-10T12:37:30.729Z</time>
      </trkpt>
      <trkpt lat="46.37894" lon="8.01758">
        <ele>2061</ele>
        <time>2021-07-10T12:37:31.729Z</time>
      </trkpt>
      <trkpt lat="46.37893" lon="8.01757">
        <ele>2061</ele>
        <time>2021-07-10T12:37:32.729Z</time>
      </trkpt>
      <trkpt lat="46.37892" lon="8.01757">
        <ele>2061</ele>
        <time>2021-07-10T12:37:33.730Z</time>
      </trkpt>
      <trkpt lat="46.37891" lon="8.01757">
        <ele>2062</ele>
        <time>2021-07-10T12:37:34.730Z</time>
      </trkpt>
      <trkpt lat="46.3789" lon="8.01757">
        <ele>2062</ele>
        <time>2021-07-10T12:37:35.730Z</time>
      </trkpt>
      <trkpt lat="46.37889" lon="8.01756">
        <ele>2063</ele>
        <time>2021-07-10T12:37:36.729Z</time>
      </trkpt>
      <trkpt lat="46.37888" lon="8.01756">
        <ele>2063</ele>
        <time>2021-07-10T12:37:55.834Z</time>
      </trkpt>
      <trkpt lat="46.37887" lon="8.01756">
        <ele>2063</ele>
        <time>2021-07-10T12:37:56.833Z</time>
      </trkpt>
      <trkpt lat="46.37887" lon="8.01755">
        <ele>2063</ele>
        <time>2021-07-10T12:38:15.948Z</time>
      </trkpt>
      <trkpt lat="46.37886" lon="8.01756">
        <ele>2063</ele>
        <time>2021-07-10T12:38:16.948Z</time>
      </trkpt>
      <trkpt lat="46.37885" lon="8.01756">
        <ele>2063</ele>
        <time>2021-07-10T12:38:17.947Z</time>
      </trkpt>
      <trkpt lat="46.37884" lon="8.01757">
        <ele>2063</ele>
        <time>2021-07-10T12:38:31.075Z</time>
      </trkpt>
      <trkpt lat="46.37883" lon="8.01757">
        <ele>2062</ele>
        <time>2021-07-10T12:38:32.076Z</time>
      </trkpt>
      <trkpt lat="46.37882" lon="8.01757">
        <ele>2062</ele>
        <time>2021-07-10T12:38:33.075Z</time>
      </trkpt>
      <trkpt lat="46.37881" lon="8.01758">
        <ele>2062</ele>
        <time>2021-07-10T12:38:38.815Z</time>
      </trkpt>
      <trkpt lat="46.3788" lon="8.01759">
        <ele>2061</ele>
        <time>2021-07-10T12:38:39.815Z</time>
      </trkpt>
      <trkpt lat="46.3788" lon="8.0176">
        <ele>2061</ele>
        <time>2021-07-10T12:38:40.815Z</time>
      </trkpt>
      <trkpt lat="46.37879" lon="8.0176">
        <ele>2061</ele>
        <time>2021-07-10T12:38:41.816Z</time>
      </trkpt>
      <trkpt lat="46.37878" lon="8.0176">
        <ele>2061</ele>
        <time>2021-07-10T12:38:42.816Z</time>
      </trkpt>
      <trkpt lat="46.37877" lon="8.0176">
        <ele>2061</ele>
        <time>2021-07-10T12:38:43.816Z</time>
      </trkpt>
      <trkpt lat="46.37876" lon="8.01761">
        <ele>2060</ele>
        <time>2021-07-10T12:38:44.815Z</time>
      </trkpt>
      <trkpt lat="46.37875" lon="8.01761">
        <ele>2061</ele>
        <time>2021-07-10T12:38:45.816Z</time>
      </trkpt>
      <trkpt lat="46.37874" lon="8.01761">
        <ele>2061</ele>
        <time>2021-07-10T12:38:46.815Z</time>
      </trkpt>
      <trkpt lat="46.37873" lon="8.01761">
        <ele>2061</ele>
        <time>2021-07-10T12:38:47.816Z</time>
      </trkpt>
      <trkpt lat="46.37872" lon="8.01761">
        <ele>2061</ele>
        <time>2021-07-10T12:38:48.815Z</time>
      </trkpt>
      <trkpt lat="46.37872" lon="8.01761">
        <ele>2061</ele>
        <time>2021-07-10T12:38:49.816Z</time>
      </trkpt>
      <trkpt lat="46.37871" lon="8.01761">
        <ele>2061</ele>
        <time>2021-07-10T12:38:50.815Z</time>
      </trkpt>
      <trkpt lat="46.3787" lon="8.01761">
        <ele>2061</ele>
        <time>2021-07-10T12:38:51.816Z</time>
      </trkpt>
      <trkpt lat="46.37869" lon="8.01761">
        <ele>2061</ele>
        <time>2021-07-10T12:38:52.815Z</time>
      </trkpt>
      <trkpt lat="46.37868" lon="8.0176">
        <ele>2061</ele>
        <time>2021-07-10T12:38:53.815Z</time>
      </trkpt>
      <trkpt lat="46.37867" lon="8.0176">
        <ele>2061</ele>
        <time>2021-07-10T12:38:54.816Z</time>
      </trkpt>
      <trkpt lat="46.37865" lon="8.01759">
        <ele>2062</ele>
        <time>2021-07-10T12:38:55.815Z</time>
      </trkpt>
      <trkpt lat="46.37865" lon="8.01759">
        <ele>2062</ele>
        <time>2021-07-10T12:38:56.815Z</time>
      </trkpt>
      <trkpt lat="46.37864" lon="8.01759">
        <ele>2062</ele>
        <time>2021-07-10T12:38:57.816Z</time>
      </trkpt>
      <trkpt lat="46.37863" lon="8.01759">
        <ele>2062</ele>
        <time>2021-07-10T12:38:58.815Z</time>
      </trkpt>
      <trkpt lat="46.37862" lon="8.01758">
        <ele>2062</ele>
        <time>2021-07-10T12:38:59.815Z</time>
      </trkpt>
      <trkpt lat="46.37861" lon="8.01757">
        <ele>2062</ele>
        <time>2021-07-10T12:39:00.815Z</time>
      </trkpt>
      <trkpt lat="46.3786" lon="8.01756">
        <ele>2062</ele>
        <time>2021-07-10T12:39:01.815Z</time>
      </trkpt>
      <trkpt lat="46.37859" lon="8.01756">
        <ele>2062</ele>
        <time>2021-07-10T12:39:02.815Z</time>
      </trkpt>
      <trkpt lat="46.37857" lon="8.01755">
        <ele>2061</ele>
        <time>2021-07-10T12:39:03.815Z</time>
      </trkpt>
      <trkpt lat="46.37856" lon="8.01754">
        <ele>2062</ele>
        <time>2021-07-10T12:39:04.815Z</time>
      </trkpt>
      <trkpt lat="46.37855" lon="8.01754">
        <ele>2062</ele>
        <time>2021-07-10T12:39:05.815Z</time>
      </trkpt>
      <trkpt lat="46.37854" lon="8.01754">
        <ele>2062</ele>
        <time>2021-07-10T12:39:06.815Z</time>
      </trkpt>
      <trkpt lat="46.37854" lon="8.01754">
        <ele>2062</ele>
        <time>2021-07-10T12:39:07.816Z</time>
      </trkpt>
      <trkpt lat="46.37853" lon="8.01753">
        <ele>2062</ele>
        <time>2021-07-10T12:39:08.816Z</time>
      </trkpt>
      <trkpt lat="46.37852" lon="8.01752">
        <ele>2063</ele>
        <time>2021-07-10T12:39:09.815Z</time>
      </trkpt>
      <trkpt lat="46.37852" lon="8.01752">
        <ele>2063</ele>
        <time>2021-07-10T12:39:10.815Z</time>
      </trkpt>
      <trkpt lat="46.37851" lon="8.01751">
        <ele>2063</ele>
        <time>2021-07-10T12:39:11.815Z</time>
      </trkpt>
      <trkpt lat="46.37851" lon="8.01751">
        <ele>2063</ele>
        <time>2021-07-10T12:39:12.815Z</time>
      </trkpt>
      <trkpt lat="46.3785" lon="8.0175">
        <ele>2063</ele>
        <time>2021-07-10T12:39:13.815Z</time>
      </trkpt>
      <trkpt lat="46.37849" lon="8.01749">
        <ele>2063</ele>
        <time>2021-07-10T12:39:14.815Z</time>
      </trkpt>
      <trkpt lat="46.37848" lon="8.01749">
        <ele>2063</ele>
        <time>2021-07-10T12:39:15.815Z</time>
      </trkpt>
      <trkpt lat="46.37847" lon="8.01748">
        <ele>2063</ele>
        <time>2021-07-10T12:39:16.815Z</time>
      </trkpt>
      <trkpt lat="46.37846" lon="8.01748">
        <ele>2063</ele>
        <time>2021-07-10T12:39:17.815Z</time>
      </trkpt>
      <trkpt lat="46.37845" lon="8.01747">
        <ele>2063</ele>
        <time>2021-07-10T12:39:18.816Z</time>
      </trkpt>
      <trkpt lat="46.37844" lon="8.01747">
        <ele>2063</ele>
        <time>2021-07-10T12:39:19.816Z</time>
      </trkpt>
      <trkpt lat="46.37843" lon="8.01747">
        <ele>2063</ele>
        <time>2021-07-10T12:39:20.815Z</time>
      </trkpt>
      <trkpt lat="46.37842" lon="8.01747">
        <ele>2064</ele>
        <time>2021-07-10T12:39:21.815Z</time>
      </trkpt>
      <trkpt lat="46.37842" lon="8.01747">
        <ele>2064</ele>
        <time>2021-07-10T12:39:22.815Z</time>
      </trkpt>
      <trkpt lat="46.37841" lon="8.01746">
        <ele>2064</ele>
        <time>2021-07-10T12:39:23.815Z</time>
      </trkpt>
      <trkpt lat="46.3784" lon="8.01746">
        <ele>2064</ele>
        <time>2021-07-10T12:39:24.815Z</time>
      </trkpt>
      <trkpt lat="46.3784" lon="8.01745">
        <ele>2064</ele>
        <time>2021-07-10T12:39:25.815Z</time>
      </trkpt>
      <trkpt lat="46.3784" lon="8.01744">
        <ele>2065</ele>
        <time>2021-07-10T12:39:26.815Z</time>
      </trkpt>
      <trkpt lat="46.3784" lon="8.01743">
        <ele>2065</ele>
        <time>2021-07-10T12:39:27.815Z</time>
      </trkpt>
      <trkpt lat="46.37839" lon="8.01743">
        <ele>2065</ele>
        <time>2021-07-10T12:39:28.815Z</time>
      </trkpt>
      <trkpt lat="46.37838" lon="8.01742">
        <ele>2065</ele>
        <time>2021-07-10T12:39:29.815Z</time>
      </trkpt>
      <trkpt lat="46.37838" lon="8.01742">
        <ele>2064</ele>
        <time>2021-07-10T12:39:30.816Z</time>
      </trkpt>
      <trkpt lat="46.37837" lon="8.01741">
        <ele>2064</ele>
        <time>2021-07-10T12:39:31.816Z</time>
      </trkpt>
      <trkpt lat="46.37837" lon="8.01741">
        <ele>2064</ele>
        <time>2021-07-10T12:39:32.815Z</time>
      </trkpt>
      <trkpt lat="46.37836" lon="8.0174">
        <ele>2065</ele>
        <time>2021-07-10T12:39:33.816Z</time>
      </trkpt>
      <trkpt lat="46.37836" lon="8.01739">
        <ele>2065</ele>
        <time>2021-07-10T12:39:34.815Z</time>
      </trkpt>
      <trkpt lat="46.37835" lon="8.01739">
        <ele>2064</ele>
        <time>2021-07-10T12:39:35.815Z</time>
      </trkpt>
      <trkpt lat="46.37834" lon="8.01739">
        <ele>2064</ele>
        <time>2021-07-10T12:39:36.815Z</time>
      </trkpt>
      <trkpt lat="46.37834" lon="8.01739">
        <ele>2064</ele>
        <time>2021-07-10T12:39:37.816Z</time>
      </trkpt>
      <trkpt lat="46.37833" lon="8.01739">
        <ele>2064</ele>
        <time>2021-07-10T12:39:38.815Z</time>
      </trkpt>
      <trkpt lat="46.37832" lon="8.01738">
        <ele>2064</ele>
        <time>2021-07-10T12:39:39.815Z</time>
      </trkpt>
      <trkpt lat="46.37831" lon="8.01738">
        <ele>2064</ele>
        <time>2021-07-10T12:39:40.815Z</time>
      </trkpt>
      <trkpt lat="46.37831" lon="8.01738">
        <ele>2064</ele>
        <time>2021-07-10T12:39:41.815Z</time>
      </trkpt>
      <trkpt lat="46.3783" lon="8.01737">
        <ele>2064</ele>
        <time>2021-07-10T12:39:42.816Z</time>
      </trkpt>
      <trkpt lat="46.37829" lon="8.01737">
        <ele>2064</ele>
        <time>2021-07-10T12:39:43.816Z</time>
      </trkpt>
      <trkpt lat="46.37828" lon="8.01736">
        <ele>2065</ele>
        <time>2021-07-10T12:39:44.815Z</time>
      </trkpt>
      <trkpt lat="46.37827" lon="8.01736">
        <ele>2065</ele>
        <time>2021-07-10T12:39:45.815Z</time>
      </trkpt>
      <trkpt lat="46.37826" lon="8.01736">
        <ele>2065</ele>
        <time>2021-07-10T12:39:46.815Z</time>
      </trkpt>
      <trkpt lat="46.37826" lon="8.01735">
        <ele>2065</ele>
        <time>2021-07-10T12:39:47.815Z</time>
      </trkpt>
      <trkpt lat="46.37825" lon="8.01735">
        <ele>2065</ele>
        <time>2021-07-10T12:39:48.815Z</time>
      </trkpt>
      <trkpt lat="46.37824" lon="8.01734">
        <ele>2065</ele>
        <time>2021-07-10T12:39:49.816Z</time>
      </trkpt>
      <trkpt lat="46.37823" lon="8.01734">
        <ele>2065</ele>
        <time>2021-07-10T12:39:50.815Z</time>
      </trkpt>
      <trkpt lat="46.37823" lon="8.01733">
        <ele>2065</ele>
        <time>2021-07-10T12:39:51.816Z</time>
      </trkpt>
      <trkpt lat="46.37822" lon="8.01733">
        <ele>2065</ele>
        <time>2021-07-10T12:39:52.815Z</time>
      </trkpt>
      <trkpt lat="46.37821" lon="8.01733">
        <ele>2065</ele>
        <time>2021-07-10T12:39:53.816Z</time>
      </trkpt>
      <trkpt lat="46.3782" lon="8.01732">
        <ele>2066</ele>
        <time>2021-07-10T12:39:54.815Z</time>
      </trkpt>
      <trkpt lat="46.3782" lon="8.01732">
        <ele>2066</ele>
        <time>2021-07-10T12:39:55.816Z</time>
      </trkpt>
      <trkpt lat="46.37819" lon="8.01732">
        <ele>2066</ele>
        <time>2021-07-10T12:39:56.816Z</time>
      </trkpt>
      <trkpt lat="46.37818" lon="8.01731">
        <ele>2067</ele>
        <time>2021-07-10T12:39:57.816Z</time>
      </trkpt>
      <trkpt lat="46.37818" lon="8.0173">
        <ele>2067</ele>
        <time>2021-07-10T12:39:58.816Z</time>
      </trkpt>
      <trkpt lat="46.37817" lon="8.0173">
        <ele>2067</ele>
        <time>2021-07-10T12:39:59.815Z</time>
      </trkpt>
      <trkpt lat="46.37816" lon="8.01729">
        <ele>2068</ele>
        <time>2021-07-10T12:40:00.816Z</time>
      </trkpt>
      <trkpt lat="46.37816" lon="8.01728">
        <ele>2068</ele>
        <time>2021-07-10T12:40:01.815Z</time>
      </trkpt>
      <trkpt lat="46.37815" lon="8.01728">
        <ele>2069</ele>
        <time>2021-07-10T12:40:02.816Z</time>
      </trkpt>
      <trkpt lat="46.37814" lon="8.01727">
        <ele>2069</ele>
        <time>2021-07-10T12:40:03.815Z</time>
      </trkpt>
      <trkpt lat="46.37813" lon="8.01727">
        <ele>2069</ele>
        <time>2021-07-10T12:40:04.815Z</time>
      </trkpt>
      <trkpt lat="46.37812" lon="8.01728">
        <ele>2069</ele>
        <time>2021-07-10T12:40:05.815Z</time>
      </trkpt>
      <trkpt lat="46.37811" lon="8.01728">
        <ele>2069</ele>
        <time>2021-07-10T12:40:06.815Z</time>
      </trkpt>
      <trkpt lat="46.37811" lon="8.01728">
        <ele>2069</ele>
        <time>2021-07-10T12:40:07.815Z</time>
      </trkpt>
      <trkpt lat="46.3781" lon="8.01727">
        <ele>2069</ele>
        <time>2021-07-10T12:40:08.816Z</time>
      </trkpt>
      <trkpt lat="46.37809" lon="8.01727">
        <ele>2069</ele>
        <time>2021-07-10T12:40:09.816Z</time>
      </trkpt>
      <trkpt lat="46.37808" lon="8.01727">
        <ele>2069</ele>
        <time>2021-07-10T12:40:10.815Z</time>
      </trkpt>
      <trkpt lat="46.37808" lon="8.01727">
        <ele>2069</ele>
        <time>2021-07-10T12:40:11.815Z</time>
      </trkpt>
      <trkpt lat="46.37807" lon="8.01728">
        <ele>2069</ele>
        <time>2021-07-10T12:40:12.815Z</time>
      </trkpt>
      <trkpt lat="46.37806" lon="8.01728">
        <ele>2070</ele>
        <time>2021-07-10T12:40:13.816Z</time>
      </trkpt>
      <trkpt lat="46.37806" lon="8.01728">
        <ele>2070</ele>
        <time>2021-07-10T12:40:14.816Z</time>
      </trkpt>
      <trkpt lat="46.37805" lon="8.01728">
        <ele>2070</ele>
        <time>2021-07-10T12:40:15.815Z</time>
      </trkpt>
      <trkpt lat="46.37804" lon="8.01728">
        <ele>2070</ele>
        <time>2021-07-10T12:40:16.816Z</time>
      </trkpt>
      <trkpt lat="46.37804" lon="8.01728">
        <ele>2071</ele>
        <time>2021-07-10T12:40:17.815Z</time>
      </trkpt>
      <trkpt lat="46.37803" lon="8.01727">
        <ele>2071</ele>
        <time>2021-07-10T12:40:18.816Z</time>
      </trkpt>
      <trkpt lat="46.37802" lon="8.01727">
        <ele>2071</ele>
        <time>2021-07-10T12:40:19.816Z</time>
      </trkpt>
      <trkpt lat="46.37802" lon="8.01726">
        <ele>2071</ele>
        <time>2021-07-10T12:40:20.815Z</time>
      </trkpt>
      <trkpt lat="46.37801" lon="8.01726">
        <ele>2070</ele>
        <time>2021-07-10T12:40:21.815Z</time>
      </trkpt>
      <trkpt lat="46.378" lon="8.01725">
        <ele>2070</ele>
        <time>2021-07-10T12:40:22.816Z</time>
      </trkpt>
      <trkpt lat="46.378" lon="8.01724">
        <ele>2070</ele>
        <time>2021-07-10T12:40:23.816Z</time>
      </trkpt>
      <trkpt lat="46.37799" lon="8.01723">
        <ele>2070</ele>
        <time>2021-07-10T12:40:24.815Z</time>
      </trkpt>
      <trkpt lat="46.37798" lon="8.01722">
        <ele>2069</ele>
        <time>2021-07-10T12:40:25.815Z</time>
      </trkpt>
      <trkpt lat="46.37798" lon="8.01721">
        <ele>2069</ele>
        <time>2021-07-10T12:40:26.815Z</time>
      </trkpt>
      <trkpt lat="46.37797" lon="8.0172">
        <ele>2070</ele>
        <time>2021-07-10T12:40:27.815Z</time>
      </trkpt>
      <trkpt lat="46.37796" lon="8.01718">
        <ele>2070</ele>
        <time>2021-07-10T12:40:28.815Z</time>
      </trkpt>
      <trkpt lat="46.37795" lon="8.01717">
        <ele>2070</ele>
        <time>2021-07-10T12:40:29.815Z</time>
      </trkpt>
      <trkpt lat="46.37795" lon="8.01716">
        <ele>2071</ele>
        <time>2021-07-10T12:40:30.815Z</time>
      </trkpt>
      <trkpt lat="46.37794" lon="8.01715">
        <ele>2071</ele>
        <time>2021-07-10T12:40:31.815Z</time>
      </trkpt>
      <trkpt lat="46.37794" lon="8.01715">
        <ele>2071</ele>
        <time>2021-07-10T12:40:32.815Z</time>
      </trkpt>
      <trkpt lat="46.37793" lon="8.01714">
        <ele>2071</ele>
        <time>2021-07-10T12:40:33.815Z</time>
      </trkpt>
      <trkpt lat="46.37792" lon="8.01713">
        <ele>2071</ele>
        <time>2021-07-10T12:40:34.815Z</time>
      </trkpt>
      <trkpt lat="46.37792" lon="8.01712">
        <ele>2072</ele>
        <time>2021-07-10T12:40:35.815Z</time>
      </trkpt>
      <trkpt lat="46.37791" lon="8.0171">
        <ele>2072</ele>
        <time>2021-07-10T12:40:36.815Z</time>
      </trkpt>
      <trkpt lat="46.37791" lon="8.0171">
        <ele>2072</ele>
        <time>2021-07-10T12:40:37.815Z</time>
      </trkpt>
      <trkpt lat="46.3779" lon="8.01709">
        <ele>2072</ele>
        <time>2021-07-10T12:40:38.815Z</time>
      </trkpt>
      <trkpt lat="46.3779" lon="8.01708">
        <ele>2072</ele>
        <time>2021-07-10T12:40:39.815Z</time>
      </trkpt>
      <trkpt lat="46.37789" lon="8.01707">
        <ele>2072</ele>
        <time>2021-07-10T12:40:40.815Z</time>
      </trkpt>
      <trkpt lat="46.37788" lon="8.01707">
        <ele>2073</ele>
        <time>2021-07-10T12:40:41.815Z</time>
      </trkpt>
      <trkpt lat="46.37787" lon="8.01706">
        <ele>2073</ele>
        <time>2021-07-10T12:40:42.815Z</time>
      </trkpt>
      <trkpt lat="46.37786" lon="8.01705">
        <ele>2073</ele>
        <time>2021-07-10T12:40:43.815Z</time>
      </trkpt>
      <trkpt lat="46.37785" lon="8.01705">
        <ele>2073</ele>
        <time>2021-07-10T12:40:44.815Z</time>
      </trkpt>
      <trkpt lat="46.37784" lon="8.01705">
        <ele>2073</ele>
        <time>2021-07-10T12:40:45.815Z</time>
      </trkpt>
      <trkpt lat="46.37784" lon="8.01704">
        <ele>2073</ele>
        <time>2021-07-10T12:40:46.816Z</time>
      </trkpt>
      <trkpt lat="46.37783" lon="8.01704">
        <ele>2073</ele>
        <time>2021-07-10T12:40:47.816Z</time>
      </trkpt>
      <trkpt lat="46.37782" lon="8.01704">
        <ele>2074</ele>
        <time>2021-07-10T12:40:48.815Z</time>
      </trkpt>
      <trkpt lat="46.37781" lon="8.01704">
        <ele>2074</ele>
        <time>2021-07-10T12:40:49.815Z</time>
      </trkpt>
      <trkpt lat="46.3778" lon="8.01704">
        <ele>2074</ele>
        <time>2021-07-10T12:40:50.815Z</time>
      </trkpt>
      <trkpt lat="46.3778" lon="8.01704">
        <ele>2074</ele>
        <time>2021-07-10T12:40:51.816Z</time>
      </trkpt>
      <trkpt lat="46.37779" lon="8.01704">
        <ele>2074</ele>
        <time>2021-07-10T12:40:52.816Z</time>
      </trkpt>
      <trkpt lat="46.37779" lon="8.01703">
        <ele>2074</ele>
        <time>2021-07-10T12:40:53.815Z</time>
      </trkpt>
      <trkpt lat="46.37778" lon="8.01703">
        <ele>2075</ele>
        <time>2021-07-10T12:40:54.815Z</time>
      </trkpt>
      <trkpt lat="46.37777" lon="8.01702">
        <ele>2075</ele>
        <time>2021-07-10T12:40:55.815Z</time>
      </trkpt>
      <trkpt lat="46.37777" lon="8.01701">
        <ele>2075</ele>
        <time>2021-07-10T12:40:56.815Z</time>
      </trkpt>
      <trkpt lat="46.37776" lon="8.01701">
        <ele>2076</ele>
        <time>2021-07-10T12:40:57.816Z</time>
      </trkpt>
      <trkpt lat="46.37775" lon="8.017">
        <ele>2076</ele>
        <time>2021-07-10T12:40:58.816Z</time>
      </trkpt>
      <trkpt lat="46.37775" lon="8.01699">
        <ele>2076</ele>
        <time>2021-07-10T12:40:59.816Z</time>
      </trkpt>
      <trkpt lat="46.37774" lon="8.01698">
        <ele>2076</ele>
        <time>2021-07-10T12:41:00.815Z</time>
      </trkpt>
      <trkpt lat="46.37773" lon="8.01697">
        <ele>2076</ele>
        <time>2021-07-10T12:41:01.815Z</time>
      </trkpt>
      <trkpt lat="46.37773" lon="8.01696">
        <ele>2077</ele>
        <time>2021-07-10T12:41:02.815Z</time>
      </trkpt>
      <trkpt lat="46.37772" lon="8.01695">
        <ele>2077</ele>
        <time>2021-07-10T12:41:03.815Z</time>
      </trkpt>
      <trkpt lat="46.37771" lon="8.01694">
        <ele>2077</ele>
        <time>2021-07-10T12:41:04.816Z</time>
      </trkpt>
      <trkpt lat="46.3777" lon="8.01694">
        <ele>2077</ele>
        <time>2021-07-10T12:41:05.815Z</time>
      </trkpt>
      <trkpt lat="46.37769" lon="8.01693">
        <ele>2077</ele>
        <time>2021-07-10T12:41:06.815Z</time>
      </trkpt>
      <trkpt lat="46.37768" lon="8.01692">
        <ele>2077</ele>
        <time>2021-07-10T12:41:07.816Z</time>
      </trkpt>
      <trkpt lat="46.37767" lon="8.01691">
        <ele>2077</ele>
        <time>2021-07-10T12:41:08.815Z</time>
      </trkpt>
      <trkpt lat="46.37766" lon="8.0169">
        <ele>2077</ele>
        <time>2021-07-10T12:41:09.815Z</time>
      </trkpt>
      <trkpt lat="46.37765" lon="8.0169">
        <ele>2077</ele>
        <time>2021-07-10T12:41:10.815Z</time>
      </trkpt>
      <trkpt lat="46.37764" lon="8.01689">
        <ele>2077</ele>
        <time>2021-07-10T12:41:11.815Z</time>
      </trkpt>
      <trkpt lat="46.37764" lon="8.01688">
        <ele>2077</ele>
        <time>2021-07-10T12:41:12.816Z</time>
      </trkpt>
      <trkpt lat="46.37763" lon="8.01686">
        <ele>2077</ele>
        <time>2021-07-10T12:41:13.815Z</time>
      </trkpt>
      <trkpt lat="46.37762" lon="8.01685">
        <ele>2077</ele>
        <time>2021-07-10T12:41:14.815Z</time>
      </trkpt>
      <trkpt lat="46.37761" lon="8.01684">
        <ele>2077</ele>
        <time>2021-07-10T12:41:15.815Z</time>
      </trkpt>
      <trkpt lat="46.37761" lon="8.01683">
        <ele>2077</ele>
        <time>2021-07-10T12:41:16.815Z</time>
      </trkpt>
      <trkpt lat="46.3776" lon="8.01681">
        <ele>2077</ele>
        <time>2021-07-10T12:41:17.815Z</time>
      </trkpt>
      <trkpt lat="46.3776" lon="8.0168">
        <ele>2077</ele>
        <time>2021-07-10T12:41:18.815Z</time>
      </trkpt>
      <trkpt lat="46.37759" lon="8.01679">
        <ele>2077</ele>
        <time>2021-07-10T12:41:19.815Z</time>
      </trkpt>
      <trkpt lat="46.37759" lon="8.01678">
        <ele>2078</ele>
        <time>2021-07-10T12:41:20.815Z</time>
      </trkpt>
      <trkpt lat="46.37758" lon="8.01677">
        <ele>2078</ele>
        <time>2021-07-10T12:41:21.816Z</time>
      </trkpt>
      <trkpt lat="46.37757" lon="8.01676">
        <ele>2078</ele>
        <time>2021-07-10T12:41:22.815Z</time>
      </trkpt>
      <trkpt lat="46.37756" lon="8.01674">
        <ele>2078</ele>
        <time>2021-07-10T12:41:23.815Z</time>
      </trkpt>
      <trkpt lat="46.37755" lon="8.01673">
        <ele>2078</ele>
        <time>2021-07-10T12:41:24.815Z</time>
      </trkpt>
      <trkpt lat="46.37755" lon="8.01673">
        <ele>2077</ele>
        <time>2021-07-10T12:41:25.816Z</time>
      </trkpt>
      <trkpt lat="46.37754" lon="8.01672">
        <ele>2077</ele>
        <time>2021-07-10T12:41:26.815Z</time>
      </trkpt>
      <trkpt lat="46.37753" lon="8.01671">
        <ele>2077</ele>
        <time>2021-07-10T12:41:27.815Z</time>
      </trkpt>
      <trkpt lat="46.37752" lon="8.0167">
        <ele>2076</ele>
        <time>2021-07-10T12:41:28.815Z</time>
      </trkpt>
      <trkpt lat="46.37752" lon="8.01669">
        <ele>2077</ele>
        <time>2021-07-10T12:41:29.815Z</time>
      </trkpt>
      <trkpt lat="46.37751" lon="8.01668">
        <ele>2077</ele>
        <time>2021-07-10T12:41:30.815Z</time>
      </trkpt>
      <trkpt lat="46.37751" lon="8.01666">
        <ele>2077</ele>
        <time>2021-07-10T12:41:31.816Z</time>
      </trkpt>
      <trkpt lat="46.37751" lon="8.01665">
        <ele>2077</ele>
        <time>2021-07-10T12:41:32.815Z</time>
      </trkpt>
      <trkpt lat="46.37751" lon="8.01664">
        <ele>2078</ele>
        <time>2021-07-10T12:41:33.815Z</time>
      </trkpt>
      <trkpt lat="46.37751" lon="8.01663">
        <ele>2078</ele>
        <time>2021-07-10T12:41:34.815Z</time>
      </trkpt>
      <trkpt lat="46.3775" lon="8.01661">
        <ele>2078</ele>
        <time>2021-07-10T12:41:35.815Z</time>
      </trkpt>
      <trkpt lat="46.3775" lon="8.0166">
        <ele>2078</ele>
        <time>2021-07-10T12:41:36.815Z</time>
      </trkpt>
      <trkpt lat="46.37749" lon="8.01659">
        <ele>2079</ele>
        <time>2021-07-10T12:41:37.815Z</time>
      </trkpt>
      <trkpt lat="46.37749" lon="8.01657">
        <ele>2079</ele>
        <time>2021-07-10T12:41:38.815Z</time>
      </trkpt>
      <trkpt lat="46.37748" lon="8.01656">
        <ele>2079</ele>
        <time>2021-07-10T12:41:39.816Z</time>
      </trkpt>
      <trkpt lat="46.37748" lon="8.01655">
        <ele>2079</ele>
        <time>2021-07-10T12:41:40.816Z</time>
      </trkpt>
      <trkpt lat="46.37747" lon="8.01654">
        <ele>2079</ele>
        <time>2021-07-10T12:41:41.815Z</time>
      </trkpt>
      <trkpt lat="46.37747" lon="8.01653">
        <ele>2079</ele>
        <time>2021-07-10T12:41:42.816Z</time>
      </trkpt>
      <trkpt lat="46.37746" lon="8.01652">
        <ele>2079</ele>
        <time>2021-07-10T12:41:43.815Z</time>
      </trkpt>
      <trkpt lat="46.37746" lon="8.01651">
        <ele>2079</ele>
        <time>2021-07-10T12:41:44.815Z</time>
      </trkpt>
      <trkpt lat="46.37745" lon="8.0165">
        <ele>2079</ele>
        <time>2021-07-10T12:41:45.815Z</time>
      </trkpt>
      <trkpt lat="46.37745" lon="8.01649">
        <ele>2079</ele>
        <time>2021-07-10T12:41:46.815Z</time>
      </trkpt>
      <trkpt lat="46.37744" lon="8.01648">
        <ele>2079</ele>
        <time>2021-07-10T12:41:47.815Z</time>
      </trkpt>
      <trkpt lat="46.37744" lon="8.01647">
        <ele>2079</ele>
        <time>2021-07-10T12:41:48.816Z</time>
      </trkpt>
      <trkpt lat="46.37743" lon="8.01646">
        <ele>2080</ele>
        <time>2021-07-10T12:41:49.815Z</time>
      </trkpt>
      <trkpt lat="46.37742" lon="8.01645">
        <ele>2080</ele>
        <time>2021-07-10T12:41:50.816Z</time>
      </trkpt>
      <trkpt lat="46.37742" lon="8.01644">
        <ele>2080</ele>
        <time>2021-07-10T12:41:51.815Z</time>
      </trkpt>
      <trkpt lat="46.37741" lon="8.01644">
        <ele>2081</ele>
        <time>2021-07-10T12:41:52.815Z</time>
      </trkpt>
      <trkpt lat="46.3774" lon="8.01643">
        <ele>2081</ele>
        <time>2021-07-10T12:41:53.815Z</time>
      </trkpt>
      <trkpt lat="46.37739" lon="8.01641">
        <ele>2081</ele>
        <time>2021-07-10T12:41:54.815Z</time>
      </trkpt>
      <trkpt lat="46.37739" lon="8.0164">
        <ele>2081</ele>
        <time>2021-07-10T12:41:55.815Z</time>
      </trkpt>
      <trkpt lat="46.37739" lon="8.01639">
        <ele>2082</ele>
        <time>2021-07-10T12:41:56.815Z</time>
      </trkpt>
      <trkpt lat="46.37738" lon="8.01637">
        <ele>2083</ele>
        <time>2021-07-10T12:41:57.815Z</time>
      </trkpt>
      <trkpt lat="46.37738" lon="8.01636">
        <ele>2083</ele>
        <time>2021-07-10T12:41:58.815Z</time>
      </trkpt>
      <trkpt lat="46.37738" lon="8.01635">
        <ele>2083</ele>
        <time>2021-07-10T12:41:59.816Z</time>
      </trkpt>
      <trkpt lat="46.37737" lon="8.01633">
        <ele>2083</ele>
        <time>2021-07-10T12:42:00.816Z</time>
      </trkpt>
      <trkpt lat="46.37737" lon="8.01632">
        <ele>2083</ele>
        <time>2021-07-10T12:42:01.816Z</time>
      </trkpt>
      <trkpt lat="46.37736" lon="8.01631">
        <ele>2083</ele>
        <time>2021-07-10T12:42:02.815Z</time>
      </trkpt>
      <trkpt lat="46.37735" lon="8.0163">
        <ele>2083</ele>
        <time>2021-07-10T12:42:03.815Z</time>
      </trkpt>
      <trkpt lat="46.37735" lon="8.01629">
        <ele>2083</ele>
        <time>2021-07-10T12:42:04.815Z</time>
      </trkpt>
      <trkpt lat="46.37735" lon="8.01628">
        <ele>2083</ele>
        <time>2021-07-10T12:42:05.815Z</time>
      </trkpt>
      <trkpt lat="46.37734" lon="8.01627">
        <ele>2083</ele>
        <time>2021-07-10T12:42:06.815Z</time>
      </trkpt>
      <trkpt lat="46.37734" lon="8.01625">
        <ele>2084</ele>
        <time>2021-07-10T12:42:07.816Z</time>
      </trkpt>
      <trkpt lat="46.37734" lon="8.01623">
        <ele>2084</ele>
        <time>2021-07-10T12:42:08.815Z</time>
      </trkpt>
      <trkpt lat="46.37734" lon="8.01622">
        <ele>2084</ele>
        <time>2021-07-10T12:42:09.815Z</time>
      </trkpt>
      <trkpt lat="46.37734" lon="8.0162">
        <ele>2084</ele>
        <time>2021-07-10T12:42:10.815Z</time>
      </trkpt>
      <trkpt lat="46.37734" lon="8.01619">
        <ele>2084</ele>
        <time>2021-07-10T12:42:11.815Z</time>
      </trkpt>
      <trkpt lat="46.37733" lon="8.01617">
        <ele>2084</ele>
        <time>2021-07-10T12:42:12.815Z</time>
      </trkpt>
      <trkpt lat="46.37732" lon="8.01616">
        <ele>2085</ele>
        <time>2021-07-10T12:42:13.815Z</time>
      </trkpt>
      <trkpt lat="46.37731" lon="8.01615">
        <ele>2085</ele>
        <time>2021-07-10T12:42:14.815Z</time>
      </trkpt>
      <trkpt lat="46.3773" lon="8.01614">
        <ele>2085</ele>
        <time>2021-07-10T12:42:15.815Z</time>
      </trkpt>
      <trkpt lat="46.37729" lon="8.01613">
        <ele>2086</ele>
        <time>2021-07-10T12:42:16.815Z</time>
      </trkpt>
      <trkpt lat="46.37728" lon="8.01612">
        <ele>2086</ele>
        <time>2021-07-10T12:42:17.816Z</time>
      </trkpt>
      <trkpt lat="46.37728" lon="8.01611">
        <ele>2085</ele>
        <time>2021-07-10T12:42:18.815Z</time>
      </trkpt>
      <trkpt lat="46.37727" lon="8.01611">
        <ele>2085</ele>
        <time>2021-07-10T12:42:19.815Z</time>
      </trkpt>
      <trkpt lat="46.37726" lon="8.0161">
        <ele>2085</ele>
        <time>2021-07-10T12:42:20.815Z</time>
      </trkpt>
      <trkpt lat="46.37725" lon="8.0161">
        <ele>2086</ele>
        <time>2021-07-10T12:42:21.815Z</time>
      </trkpt>
      <trkpt lat="46.37724" lon="8.0161">
        <ele>2086</ele>
        <time>2021-07-10T12:42:22.816Z</time>
      </trkpt>
      <trkpt lat="46.37723" lon="8.01609">
        <ele>2086</ele>
        <time>2021-07-10T12:42:23.815Z</time>
      </trkpt>
      <trkpt lat="46.37722" lon="8.01608">
        <ele>2086</ele>
        <time>2021-07-10T12:42:24.815Z</time>
      </trkpt>
      <trkpt lat="46.37721" lon="8.01607">
        <ele>2087</ele>
        <time>2021-07-10T12:42:25.815Z</time>
      </trkpt>
      <trkpt lat="46.3772" lon="8.01606">
        <ele>2087</ele>
        <time>2021-07-10T12:42:26.815Z</time>
      </trkpt>
      <trkpt lat="46.3772" lon="8.01605">
        <ele>2088</ele>
        <time>2021-07-10T12:42:27.815Z</time>
      </trkpt>
      <trkpt lat="46.3772" lon="8.01604">
        <ele>2088</ele>
        <time>2021-07-10T12:42:28.816Z</time>
      </trkpt>
      <trkpt lat="46.3772" lon="8.01603">
        <ele>2088</ele>
        <time>2021-07-10T12:42:29.815Z</time>
      </trkpt>
      <trkpt lat="46.37719" lon="8.01601">
        <ele>2088</ele>
        <time>2021-07-10T12:42:30.815Z</time>
      </trkpt>
      <trkpt lat="46.37719" lon="8.016">
        <ele>2089</ele>
        <time>2021-07-10T12:42:31.815Z</time>
      </trkpt>
      <trkpt lat="46.37718" lon="8.01599">
        <ele>2089</ele>
        <time>2021-07-10T12:42:32.815Z</time>
      </trkpt>
      <trkpt lat="46.37717" lon="8.01598">
        <ele>2089</ele>
        <time>2021-07-10T12:42:33.816Z</time>
      </trkpt>
      <trkpt lat="46.37716" lon="8.01598">
        <ele>2089</ele>
        <time>2021-07-10T12:42:34.815Z</time>
      </trkpt>
      <trkpt lat="46.37715" lon="8.01598">
        <ele>2089</ele>
        <time>2021-07-10T12:42:35.815Z</time>
      </trkpt>
      <trkpt lat="46.37714" lon="8.01598">
        <ele>2089</ele>
        <time>2021-07-10T12:42:36.815Z</time>
      </trkpt>
      <trkpt lat="46.37713" lon="8.01598">
        <ele>2090</ele>
        <time>2021-07-10T12:42:37.815Z</time>
      </trkpt>
      <trkpt lat="46.37712" lon="8.01598">
        <ele>2090</ele>
        <time>2021-07-10T12:42:38.816Z</time>
      </trkpt>
      <trkpt lat="46.37711" lon="8.01597">
        <ele>2090</ele>
        <time>2021-07-10T12:42:39.816Z</time>
      </trkpt>
      <trkpt lat="46.3771" lon="8.01597">
        <ele>2090</ele>
        <time>2021-07-10T12:42:40.815Z</time>
      </trkpt>
      <trkpt lat="46.37709" lon="8.01596">
        <ele>2089</ele>
        <time>2021-07-10T12:42:41.815Z</time>
      </trkpt>
      <trkpt lat="46.37708" lon="8.01595">
        <ele>2088</ele>
        <time>2021-07-10T12:42:42.816Z</time>
      </trkpt>
      <trkpt lat="46.37707" lon="8.01595">
        <ele>2088</ele>
        <time>2021-07-10T12:42:43.815Z</time>
      </trkpt>
      <trkpt lat="46.37705" lon="8.01595">
        <ele>2087</ele>
        <time>2021-07-10T12:42:44.815Z</time>
      </trkpt>
      <trkpt lat="46.37704" lon="8.01595">
        <ele>2087</ele>
        <time>2021-07-10T12:42:45.816Z</time>
      </trkpt>
      <trkpt lat="46.37703" lon="8.01595">
        <ele>2086</ele>
        <time>2021-07-10T12:42:46.815Z</time>
      </trkpt>
      <trkpt lat="46.37702" lon="8.01595">
        <ele>2086</ele>
        <time>2021-07-10T12:42:47.815Z</time>
      </trkpt>
      <trkpt lat="46.37701" lon="8.01595">
        <ele>2087</ele>
        <time>2021-07-10T12:42:48.816Z</time>
      </trkpt>
      <trkpt lat="46.377" lon="8.01595">
        <ele>2087</ele>
        <time>2021-07-10T12:42:49.816Z</time>
      </trkpt>
      <trkpt lat="46.37699" lon="8.01595">
        <ele>2087</ele>
        <time>2021-07-10T12:42:50.816Z</time>
      </trkpt>
      <trkpt lat="46.37698" lon="8.01596">
        <ele>2088</ele>
        <time>2021-07-10T12:42:51.815Z</time>
      </trkpt>
      <trkpt lat="46.37697" lon="8.01596">
        <ele>2088</ele>
        <time>2021-07-10T12:42:52.816Z</time>
      </trkpt>
      <trkpt lat="46.37696" lon="8.01597">
        <ele>2089</ele>
        <time>2021-07-10T12:42:53.816Z</time>
      </trkpt>
      <trkpt lat="46.37695" lon="8.01598">
        <ele>2089</ele>
        <time>2021-07-10T12:42:54.816Z</time>
      </trkpt>
      <trkpt lat="46.37693" lon="8.01599">
        <ele>2089</ele>
        <time>2021-07-10T12:42:55.815Z</time>
      </trkpt>
      <trkpt lat="46.37692" lon="8.01599">
        <ele>2089</ele>
        <time>2021-07-10T12:42:56.815Z</time>
      </trkpt>
      <trkpt lat="46.37691" lon="8.01598">
        <ele>2089</ele>
        <time>2021-07-10T12:42:57.815Z</time>
      </trkpt>
      <trkpt lat="46.3769" lon="8.01597">
        <ele>2089</ele>
        <time>2021-07-10T12:42:58.816Z</time>
      </trkpt>
      <trkpt lat="46.3769" lon="8.01596">
        <ele>2089</ele>
        <time>2021-07-10T12:42:59.816Z</time>
      </trkpt>
      <trkpt lat="46.37689" lon="8.01595">
        <ele>2090</ele>
        <time>2021-07-10T12:43:00.815Z</time>
      </trkpt>
      <trkpt lat="46.37688" lon="8.01594">
        <ele>2090</ele>
        <time>2021-07-10T12:43:01.815Z</time>
      </trkpt>
      <trkpt lat="46.37688" lon="8.01593">
        <ele>2090</ele>
        <time>2021-07-10T12:43:02.815Z</time>
      </trkpt>
      <trkpt lat="46.37688" lon="8.01592">
        <ele>2090</ele>
        <time>2021-07-10T12:43:03.815Z</time>
      </trkpt>
      <trkpt lat="46.37688" lon="8.01591">
        <ele>2090</ele>
        <time>2021-07-10T12:43:04.815Z</time>
      </trkpt>
      <trkpt lat="46.37689" lon="8.01589">
        <ele>2090</ele>
        <time>2021-07-10T12:43:05.815Z</time>
      </trkpt>
      <trkpt lat="46.37689" lon="8.01588">
        <ele>2090</ele>
        <time>2021-07-10T12:43:06.815Z</time>
      </trkpt>
      <trkpt lat="46.3769" lon="8.01587">
        <ele>2090</ele>
        <time>2021-07-10T12:43:07.815Z</time>
      </trkpt>
      <trkpt lat="46.3769" lon="8.01586">
        <ele>2090</ele>
        <time>2021-07-10T12:43:08.815Z</time>
      </trkpt>
      <trkpt lat="46.3769" lon="8.01585">
        <ele>2089</ele>
        <time>2021-07-10T12:43:09.815Z</time>
      </trkpt>
      <trkpt lat="46.37691" lon="8.01584">
        <ele>2089</ele>
        <time>2021-07-10T12:43:10.815Z</time>
      </trkpt>
      <trkpt lat="46.37691" lon="8.01584">
        <ele>2089</ele>
        <time>2021-07-10T12:43:11.816Z</time>
      </trkpt>
      <trkpt lat="46.37691" lon="8.01583">
        <ele>2090</ele>
        <time>2021-07-10T12:43:12.815Z</time>
      </trkpt>
      <trkpt lat="46.3769" lon="8.01581">
        <ele>2090</ele>
        <time>2021-07-10T12:43:13.816Z</time>
      </trkpt>
      <trkpt lat="46.37687" lon="8.0158">
        <ele>2090</ele>
        <time>2021-07-10T12:43:14.815Z</time>
      </trkpt>
      <trkpt lat="46.37685" lon="8.01578">
        <ele>2090</ele>
        <time>2021-07-10T12:43:15.815Z</time>
      </trkpt>
      <trkpt lat="46.37682" lon="8.01576">
        <ele>2090</ele>
        <time>2021-07-10T12:43:16.815Z</time>
      </trkpt>
      <trkpt lat="46.37681" lon="8.01575">
        <ele>2090</ele>
        <time>2021-07-10T12:43:17.815Z</time>
      </trkpt>
      <trkpt lat="46.37681" lon="8.01575">
        <ele>2091</ele>
        <time>2021-07-10T12:43:18.815Z</time>
      </trkpt>
      <trkpt lat="46.37683" lon="8.01576">
        <ele>2091</ele>
        <time>2021-07-10T12:43:19.816Z</time>
      </trkpt>
      <trkpt lat="46.37684" lon="8.01578">
        <ele>2091</ele>
        <time>2021-07-10T12:43:20.815Z</time>
      </trkpt>
      <trkpt lat="46.37684" lon="8.01579">
        <ele>2091</ele>
        <time>2021-07-10T12:43:21.815Z</time>
      </trkpt>
      <trkpt lat="46.37684" lon="8.0158">
        <ele>2091</ele>
        <time>2021-07-10T12:43:22.815Z</time>
      </trkpt>
      <trkpt lat="46.37683" lon="8.01581">
        <ele>2091</ele>
        <time>2021-07-10T12:43:23.815Z</time>
      </trkpt>
      <trkpt lat="46.37683" lon="8.01582">
        <ele>2090</ele>
        <time>2021-07-10T12:43:24.815Z</time>
      </trkpt>
      <trkpt lat="46.37683" lon="8.01584">
        <ele>2089</ele>
        <time>2021-07-10T12:43:25.815Z</time>
      </trkpt>
      <trkpt lat="46.37683" lon="8.01585">
        <ele>2089</ele>
        <time>2021-07-10T12:43:26.815Z</time>
      </trkpt>
      <trkpt lat="46.37684" lon="8.01586">
        <ele>2089</ele>
        <time>2021-07-10T12:43:27.815Z</time>
      </trkpt>
      <trkpt lat="46.37683" lon="8.01587">
        <ele>2089</ele>
        <time>2021-07-10T12:43:28.816Z</time>
      </trkpt>
      <trkpt lat="46.37683" lon="8.01588">
        <ele>2089</ele>
        <time>2021-07-10T12:43:29.815Z</time>
      </trkpt>
      <trkpt lat="46.37682" lon="8.01588">
        <ele>2089</ele>
        <time>2021-07-10T12:43:30.816Z</time>
      </trkpt>
      <trkpt lat="46.37682" lon="8.01588">
        <ele>2089</ele>
        <time>2021-07-10T12:43:31.815Z</time>
      </trkpt>
      <trkpt lat="46.37681" lon="8.01588">
        <ele>2089</ele>
        <time>2021-07-10T12:43:32.815Z</time>
      </trkpt>
      <trkpt lat="46.37681" lon="8.01588">
        <ele>2089</ele>
        <time>2021-07-10T12:43:33.816Z</time>
      </trkpt>
      <trkpt lat="46.3768" lon="8.01588">
        <ele>2090</ele>
        <time>2021-07-10T12:43:34.815Z</time>
      </trkpt>
      <trkpt lat="46.37679" lon="8.01588">
        <ele>2090</ele>
        <time>2021-07-10T12:43:35.816Z</time>
      </trkpt>
      <trkpt lat="46.37678" lon="8.01589">
        <ele>2090</ele>
        <time>2021-07-10T12:43:36.816Z</time>
      </trkpt>
      <trkpt lat="46.37677" lon="8.0159">
        <ele>2090</ele>
        <time>2021-07-10T12:43:37.816Z</time>
      </trkpt>
      <trkpt lat="46.37676" lon="8.01589">
        <ele>2090</ele>
        <time>2021-07-10T12:43:38.815Z</time>
      </trkpt>
      <trkpt lat="46.37675" lon="8.01588">
        <ele>2090</ele>
        <time>2021-07-10T12:43:39.815Z</time>
      </trkpt>
      <trkpt lat="46.37675" lon="8.01587">
        <ele>2090</ele>
        <time>2021-07-10T12:43:40.815Z</time>
      </trkpt>
      <trkpt lat="46.37674" lon="8.01587">
        <ele>2091</ele>
        <time>2021-07-10T12:43:41.815Z</time>
      </trkpt>
      <trkpt lat="46.37673" lon="8.01587">
        <ele>2091</ele>
        <time>2021-07-10T12:43:42.815Z</time>
      </trkpt>
      <trkpt lat="46.37672" lon="8.01587">
        <ele>2091</ele>
        <time>2021-07-10T12:43:43.815Z</time>
      </trkpt>
      <trkpt lat="46.37671" lon="8.01587">
        <ele>2091</ele>
        <time>2021-07-10T12:43:44.816Z</time>
      </trkpt>
      <trkpt lat="46.3767" lon="8.01587">
        <ele>2090</ele>
        <time>2021-07-10T12:43:45.816Z</time>
      </trkpt>
      <trkpt lat="46.37669" lon="8.01586">
        <ele>2090</ele>
        <time>2021-07-10T12:43:46.816Z</time>
      </trkpt>
      <trkpt lat="46.37669" lon="8.01586">
        <ele>2090</ele>
        <time>2021-07-10T12:43:47.815Z</time>
      </trkpt>
      <trkpt lat="46.37668" lon="8.01585">
        <ele>2090</ele>
        <time>2021-07-10T12:43:48.816Z</time>
      </trkpt>
      <trkpt lat="46.37668" lon="8.01584">
        <ele>2090</ele>
        <time>2021-07-10T12:43:49.816Z</time>
      </trkpt>
      <trkpt lat="46.37667" lon="8.01583">
        <ele>2090</ele>
        <time>2021-07-10T12:43:50.815Z</time>
      </trkpt>
      <trkpt lat="46.37666" lon="8.01584">
        <ele>2090</ele>
        <time>2021-07-10T12:43:51.816Z</time>
      </trkpt>
      <trkpt lat="46.37665" lon="8.01584">
        <ele>2090</ele>
        <time>2021-07-10T12:43:52.816Z</time>
      </trkpt>
      <trkpt lat="46.37664" lon="8.01584">
        <ele>2090</ele>
        <time>2021-07-10T12:43:53.815Z</time>
      </trkpt>
      <trkpt lat="46.37664" lon="8.01584">
        <ele>2090</ele>
        <time>2021-07-10T12:43:54.816Z</time>
      </trkpt>
      <trkpt lat="46.37663" lon="8.01585">
        <ele>2090</ele>
        <time>2021-07-10T12:43:55.816Z</time>
      </trkpt>
      <trkpt lat="46.37662" lon="8.01586">
        <ele>2090</ele>
        <time>2021-07-10T12:43:56.815Z</time>
      </trkpt>
      <trkpt lat="46.37661" lon="8.01587">
        <ele>2090</ele>
        <time>2021-07-10T12:43:57.815Z</time>
      </trkpt>
      <trkpt lat="46.3766" lon="8.01588">
        <ele>2090</ele>
        <time>2021-07-10T12:43:58.815Z</time>
      </trkpt>
      <trkpt lat="46.37659" lon="8.01589">
        <ele>2090</ele>
        <time>2021-07-10T12:43:59.815Z</time>
      </trkpt>
      <trkpt lat="46.37659" lon="8.0159">
        <ele>2089</ele>
        <time>2021-07-10T12:44:00.815Z</time>
      </trkpt>
      <trkpt lat="46.37658" lon="8.01591">
        <ele>2089</ele>
        <time>2021-07-10T12:44:01.815Z</time>
      </trkpt>
      <trkpt lat="46.37657" lon="8.01592">
        <ele>2088</ele>
        <time>2021-07-10T12:44:02.815Z</time>
      </trkpt>
      <trkpt lat="46.37656" lon="8.01592">
        <ele>2088</ele>
        <time>2021-07-10T12:44:03.815Z</time>
      </trkpt>
      <trkpt lat="46.37655" lon="8.01593">
        <ele>2088</ele>
        <time>2021-07-10T12:44:04.815Z</time>
      </trkpt>
      <trkpt lat="46.37655" lon="8.01594">
        <ele>2088</ele>
        <time>2021-07-10T12:44:05.815Z</time>
      </trkpt>
      <trkpt lat="46.37654" lon="8.01595">
        <ele>2087</ele>
        <time>2021-07-10T12:44:06.815Z</time>
      </trkpt>
      <trkpt lat="46.37653" lon="8.01596">
        <ele>2087</ele>
        <time>2021-07-10T12:44:07.815Z</time>
      </trkpt>
      <trkpt lat="46.37652" lon="8.01597">
        <ele>2087</ele>
        <time>2021-07-10T12:44:08.816Z</time>
      </trkpt>
      <trkpt lat="46.37652" lon="8.01598">
        <ele>2086</ele>
        <time>2021-07-10T12:44:09.816Z</time>
      </trkpt>
      <trkpt lat="46.37651" lon="8.01598">
        <ele>2086</ele>
        <time>2021-07-10T12:44:10.815Z</time>
      </trkpt>
      <trkpt lat="46.37651" lon="8.01599">
        <ele>2086</ele>
        <time>2021-07-10T12:44:11.815Z</time>
      </trkpt>
      <trkpt lat="46.37651" lon="8.01599">
        <ele>2087</ele>
        <time>2021-07-10T12:44:12.815Z</time>
      </trkpt>
      <trkpt lat="46.37651" lon="8.01599">
        <ele>2087</ele>
        <time>2021-07-10T12:44:13.816Z</time>
      </trkpt>
      <trkpt lat="46.37651" lon="8.01599">
        <ele>2087</ele>
        <time>2021-07-10T12:44:14.815Z</time>
      </trkpt>
      <trkpt lat="46.37652" lon="8.016">
        <ele>2085</ele>
        <time>2021-07-10T12:44:15.816Z</time>
      </trkpt>
      <trkpt lat="46.37653" lon="8.01601">
        <ele>2085</ele>
        <time>2021-07-10T12:44:16.815Z</time>
      </trkpt>
      <trkpt lat="46.37653" lon="8.01601">
        <ele>2085</ele>
        <time>2021-07-10T12:44:17.816Z</time>
      </trkpt>
      <trkpt lat="46.37653" lon="8.01601">
        <ele>2085</ele>
        <time>2021-07-10T12:44:18.816Z</time>
      </trkpt>
      <trkpt lat="46.37653" lon="8.01602">
        <ele>2085</ele>
        <time>2021-07-10T12:44:19.815Z</time>
      </trkpt>
      <trkpt lat="46.37654" lon="8.01602">
        <ele>2085</ele>
        <time>2021-07-10T12:44:20.816Z</time>
      </trkpt>
      <trkpt lat="46.37663" lon="8.0161">
        <ele>2085</ele>
        <time>2021-07-10T12:44:23.815Z</time>
      </trkpt>
      <trkpt lat="46.37666" lon="8.0161">
        <ele>2085</ele>
        <time>2021-07-10T12:44:24.815Z</time>
      </trkpt>
      <trkpt lat="46.37669" lon="8.0161">
        <ele>2085</ele>
        <time>2021-07-10T12:44:25.816Z</time>
      </trkpt>
      <trkpt lat="46.37671" lon="8.01611">
        <ele>2085</ele>
        <time>2021-07-10T12:44:26.816Z</time>
      </trkpt>
      <trkpt lat="46.37673" lon="8.0161">
        <ele>2085</ele>
        <time>2021-07-10T12:44:27.815Z</time>
      </trkpt>
      <trkpt lat="46.37674" lon="8.0161">
        <ele>2085</ele>
        <time>2021-07-10T12:44:28.815Z</time>
      </trkpt>
      <trkpt lat="46.3766" lon="8.016">
        <ele>2086</ele>
        <time>2021-07-10T12:47:42.170Z</time>
      </trkpt>
      <trkpt lat="46.37659" lon="8.01598">
        <ele>2087</ele>
        <time>2021-07-10T12:47:43.170Z</time>
      </trkpt>
      <trkpt lat="46.37657" lon="8.016">
        <ele>2087</ele>
        <time>2021-07-10T12:47:44.169Z</time>
      </trkpt>
      <trkpt lat="46.3766" lon="8.01602">
        <ele>2089</ele>
        <time>2021-07-10T12:47:45.170Z</time>
      </trkpt>
      <trkpt lat="46.37661" lon="8.01603">
        <ele>2089</ele>
        <time>2021-07-10T12:47:46.169Z</time>
      </trkpt>
      <trkpt lat="46.37658" lon="8.01601">
        <ele>2090</ele>
        <time>2021-07-10T12:47:47.170Z</time>
      </trkpt>
      <trkpt lat="46.37658" lon="8.016">
        <ele>2091</ele>
        <time>2021-07-10T12:47:48.169Z</time>
      </trkpt>
      <trkpt lat="46.37658" lon="8.01598">
        <ele>2091</ele>
        <time>2021-07-10T12:47:49.169Z</time>
      </trkpt>
      <trkpt lat="46.37658" lon="8.01597">
        <ele>2092</ele>
        <time>2021-07-10T12:47:50.169Z</time>
      </trkpt>
      <trkpt lat="46.3766" lon="8.01596">
        <ele>2092</ele>
        <time>2021-07-10T12:47:51.169Z</time>
      </trkpt>
      <trkpt lat="46.37661" lon="8.01596">
        <ele>2093</ele>
        <time>2021-07-10T12:47:52.169Z</time>
      </trkpt>
      <trkpt lat="46.37662" lon="8.01595">
        <ele>2093</ele>
        <time>2021-07-10T12:47:53.169Z</time>
      </trkpt>
      <trkpt lat="46.37663" lon="8.01595">
        <ele>2094</ele>
        <time>2021-07-10T12:47:54.170Z</time>
      </trkpt>
      <trkpt lat="46.37664" lon="8.01598">
        <ele>2094</ele>
        <time>2021-07-10T12:47:55.169Z</time>
      </trkpt>
      <trkpt lat="46.37666" lon="8.01601">
        <ele>2094</ele>
        <time>2021-07-10T12:47:56.169Z</time>
      </trkpt>
      <trkpt lat="46.37667" lon="8.01602">
        <ele>2094</ele>
        <time>2021-07-10T12:47:57.170Z</time>
      </trkpt>
      <trkpt lat="46.37667" lon="8.01603">
        <ele>2094</ele>
        <time>2021-07-10T12:47:58.169Z</time>
      </trkpt>
      <trkpt lat="46.37668" lon="8.01603">
        <ele>2094</ele>
        <time>2021-07-10T12:47:59.170Z</time>
      </trkpt>
      <trkpt lat="46.37668" lon="8.01603">
        <ele>2094</ele>
        <time>2021-07-10T12:48:00.170Z</time>
      </trkpt>
      <trkpt lat="46.37667" lon="8.01602">
        <ele>2094</ele>
        <time>2021-07-10T12:48:01.169Z</time>
      </trkpt>
      <trkpt lat="46.37667" lon="8.016">
        <ele>2094</ele>
        <time>2021-07-10T12:48:02.169Z</time>
      </trkpt>
      <trkpt lat="46.37666" lon="8.01599">
        <ele>2094</ele>
        <time>2021-07-10T12:48:03.169Z</time>
      </trkpt>
      <trkpt lat="46.37665" lon="8.01598">
        <ele>2095</ele>
        <time>2021-07-10T12:48:04.169Z</time>
      </trkpt>
      <trkpt lat="46.37664" lon="8.01597">
        <ele>2095</ele>
        <time>2021-07-10T12:48:05.170Z</time>
      </trkpt>
      <trkpt lat="46.37663" lon="8.01597">
        <ele>2095</ele>
        <time>2021-07-10T12:48:06.170Z</time>
      </trkpt>
      <trkpt lat="46.37663" lon="8.01596">
        <ele>2095</ele>
        <time>2021-07-10T12:48:07.170Z</time>
      </trkpt>
      <trkpt lat="46.37662" lon="8.01596">
        <ele>2095</ele>
        <time>2021-07-10T12:48:08.170Z</time>
      </trkpt>
      <trkpt lat="46.37661" lon="8.01595">
        <ele>2095</ele>
        <time>2021-07-10T12:48:09.169Z</time>
      </trkpt>
      <trkpt lat="46.3766" lon="8.01595">
        <ele>2095</ele>
        <time>2021-07-10T12:48:10.169Z</time>
      </trkpt>
      <trkpt lat="46.3766" lon="8.01594">
        <ele>2095</ele>
        <time>2021-07-10T12:48:11.170Z</time>
      </trkpt>
      <trkpt lat="46.37659" lon="8.01594">
        <ele>2094</ele>
        <time>2021-07-10T12:48:12.170Z</time>
      </trkpt>
      <trkpt lat="46.37659" lon="8.01594">
        <ele>2094</ele>
        <time>2021-07-10T12:48:13.170Z</time>
      </trkpt>
      <trkpt lat="46.37659" lon="8.01594">
        <ele>2093</ele>
        <time>2021-07-10T12:48:14.170Z</time>
      </trkpt>
      <trkpt lat="46.3766" lon="8.01594">
        <ele>2092</ele>
        <time>2021-07-10T12:48:15.171Z</time>
      </trkpt>
      <trkpt lat="46.3766" lon="8.01594">
        <ele>2092</ele>
        <time>2021-07-10T12:48:16.170Z</time>
      </trkpt>
      <trkpt lat="46.37659" lon="8.01595">
        <ele>2092</ele>
        <time>2021-07-10T12:48:17.170Z</time>
      </trkpt>
      <trkpt lat="46.37659" lon="8.01597">
        <ele>2092</ele>
        <time>2021-07-10T12:48:18.170Z</time>
      </trkpt>
      <trkpt lat="46.37657" lon="8.01598">
        <ele>2092</ele>
        <time>2021-07-10T12:48:19.170Z</time>
      </trkpt>
      <trkpt lat="46.37657" lon="8.01597">
        <ele>2092</ele>
        <time>2021-07-10T12:48:20.171Z</time>
      </trkpt>
      <trkpt lat="46.37657" lon="8.01595">
        <ele>2091</ele>
        <time>2021-07-10T12:48:21.170Z</time>
      </trkpt>
      <trkpt lat="46.37657" lon="8.01595">
        <ele>2091</ele>
        <time>2021-07-10T12:48:22.170Z</time>
      </trkpt>
      <trkpt lat="46.37657" lon="8.01595">
        <ele>2091</ele>
        <time>2021-07-10T12:48:23.170Z</time>
      </trkpt>
      <trkpt lat="46.37659" lon="8.01596">
        <ele>2089</ele>
        <time>2021-07-10T12:48:24.171Z</time>
      </trkpt>
      <trkpt lat="46.37659" lon="8.01596">
        <ele>2089</ele>
        <time>2021-07-10T12:48:25.171Z</time>
      </trkpt>
      <trkpt lat="46.37659" lon="8.01595">
        <ele>2085</ele>
        <time>2021-07-10T12:48:26.171Z</time>
      </trkpt>
      <trkpt lat="46.3766" lon="8.01595">
        <ele>2087</ele>
        <time>2021-07-10T12:48:27.170Z</time>
      </trkpt>
      <trkpt lat="46.3766" lon="8.01595">
        <ele>2086</ele>
        <time>2021-07-10T12:48:28.170Z</time>
      </trkpt>
      <trkpt lat="46.3766" lon="8.01595">
        <ele>2086</ele>
        <time>2021-07-10T12:48:29.170Z</time>
      </trkpt>
      <trkpt lat="46.37661" lon="8.01595">
        <ele>2081</ele>
        <time>2021-07-10T12:48:30.170Z</time>
      </trkpt>
      <trkpt lat="46.37662" lon="8.01595">
        <ele>2082</ele>
        <time>2021-07-10T12:48:31.170Z</time>
      </trkpt>
      <trkpt lat="46.37662" lon="8.01595">
        <ele>2082</ele>
        <time>2021-07-10T12:48:32.170Z</time>
      </trkpt>
      <trkpt lat="46.37661" lon="8.01595">
        <ele>2082</ele>
        <time>2021-07-10T12:48:33.170Z</time>
      </trkpt>
      <trkpt lat="46.37661" lon="8.01595">
        <ele>2082</ele>
        <time>2021-07-10T12:48:34.171Z</time>
      </trkpt>
      <trkpt lat="46.3766" lon="8.01594">
        <ele>2084</ele>
        <time>2021-07-10T12:48:35.171Z</time>
      </trkpt>
      <trkpt lat="46.3766" lon="8.01594">
        <ele>2084</ele>
        <time>2021-07-10T12:48:36.171Z</time>
      </trkpt>
      <trkpt lat="46.3766" lon="8.01594">
        <ele>2085</ele>
        <time>2021-07-10T12:48:37.171Z</time>
      </trkpt>
      <trkpt lat="46.3766" lon="8.01598">
        <ele>2089</ele>
        <time>2021-07-10T12:48:38.172Z</time>
      </trkpt>
      <trkpt lat="46.3766" lon="8.01598">
        <ele>2089</ele>
        <time>2021-07-10T12:48:39.171Z</time>
      </trkpt>
      <trkpt lat="46.37659" lon="8.01597">
        <ele>2086</ele>
        <time>2021-07-10T12:48:40.172Z</time>
      </trkpt>
      <trkpt lat="46.3766" lon="8.01597">
        <ele>2086</ele>
        <time>2021-07-10T12:48:41.171Z</time>
      </trkpt>
      <trkpt lat="46.3766" lon="8.01597">
        <ele>2086</ele>
        <time>2021-07-10T12:48:42.171Z</time>
      </trkpt>
      <trkpt lat="46.3766" lon="8.01598">
        <ele>2089</ele>
        <time>2021-07-10T12:48:43.171Z</time>
      </trkpt>
      <trkpt lat="46.3766" lon="8.01598">
        <ele>2089</ele>
        <time>2021-07-10T12:48:44.172Z</time>
      </trkpt>
      <trkpt lat="46.3766" lon="8.01598">
        <ele>2089</ele>
        <time>2021-07-10T12:48:45.171Z</time>
      </trkpt>
      <trkpt lat="46.37661" lon="8.01599">
        <ele>2089</ele>
        <time>2021-07-10T12:48:46.171Z</time>
      </trkpt>
      <trkpt lat="46.37661" lon="8.01599">
        <ele>2089</ele>
        <time>2021-07-10T12:48:47.172Z</time>
      </trkpt>
      <trkpt lat="46.37661" lon="8.016">
        <ele>2089</ele>
        <time>2021-07-10T12:48:48.171Z</time>
      </trkpt>
      <trkpt lat="46.37661" lon="8.016">
        <ele>2089</ele>
        <time>2021-07-10T12:48:49.172Z</time>
      </trkpt>
      <trkpt lat="46.37661" lon="8.01601">
        <ele>2088</ele>
        <time>2021-07-10T12:48:50.172Z</time>
      </trkpt>
      <trkpt lat="46.37661" lon="8.016">
        <ele>2089</ele>
        <time>2021-07-10T12:48:51.171Z</time>
      </trkpt>
      <trkpt lat="46.37661" lon="8.016">
        <ele>2089</ele>
        <time>2021-07-10T12:48:52.171Z</time>
      </trkpt>
      <trkpt lat="46.37661" lon="8.01601">
        <ele>2089</ele>
        <time>2021-07-10T12:48:53.172Z</time>
      </trkpt>
      <trkpt lat="46.3766" lon="8.01601">
        <ele>2090</ele>
        <time>2021-07-10T12:48:54.171Z</time>
      </trkpt>
      <trkpt lat="46.3766" lon="8.016">
        <ele>2091</ele>
        <time>2021-07-10T12:48:55.172Z</time>
      </trkpt>
      <trkpt lat="46.37659" lon="8.016">
        <ele>2091</ele>
        <time>2021-07-10T12:48:56.171Z</time>
      </trkpt>
      <trkpt lat="46.37659" lon="8.016">
        <ele>2092</ele>
        <time>2021-07-10T12:48:57.171Z</time>
      </trkpt>
      <trkpt lat="46.37663" lon="8.016">
        <ele>2090</ele>
        <time>2021-07-10T12:48:58.172Z</time>
      </trkpt>
      <trkpt lat="46.37663" lon="8.016">
        <ele>2089</ele>
        <time>2021-07-10T12:48:59.172Z</time>
      </trkpt>
      <trkpt lat="46.37663" lon="8.01599">
        <ele>2088</ele>
        <time>2021-07-10T12:49:00.171Z</time>
      </trkpt>
      <trkpt lat="46.37662" lon="8.01598">
        <ele>2084</ele>
        <time>2021-07-10T12:49:01.172Z</time>
      </trkpt>
      <trkpt lat="46.37663" lon="8.01598">
        <ele>2084</ele>
        <time>2021-07-10T12:49:02.172Z</time>
      </trkpt>
      <trkpt lat="46.37662" lon="8.01599">
        <ele>2085</ele>
        <time>2021-07-10T12:49:03.172Z</time>
      </trkpt>
      <trkpt lat="46.37662" lon="8.01599">
        <ele>2085</ele>
        <time>2021-07-10T12:49:04.172Z</time>
      </trkpt>
      <trkpt lat="46.37662" lon="8.01599">
        <ele>2084</ele>
        <time>2021-07-10T12:49:05.171Z</time>
      </trkpt>
      <trkpt lat="46.3766" lon="8.01594">
        <ele>2085</ele>
        <time>2021-07-10T12:49:06.171Z</time>
      </trkpt>
      <trkpt lat="46.37661" lon="8.01594">
        <ele>2085</ele>
        <time>2021-07-10T12:49:07.172Z</time>
      </trkpt>
      <trkpt lat="46.37661" lon="8.01595">
        <ele>2084</ele>
        <time>2021-07-10T12:49:08.171Z</time>
      </trkpt>
      <trkpt lat="46.37663" lon="8.01593">
        <ele>2083</ele>
        <time>2021-07-10T12:49:09.173Z</time>
      </trkpt>
      <trkpt lat="46.37663" lon="8.01593">
        <ele>2084</ele>
        <time>2021-07-10T12:49:10.172Z</time>
      </trkpt>
      <trkpt lat="46.37663" lon="8.01593">
        <ele>2084</ele>
        <time>2021-07-10T12:49:11.172Z</time>
      </trkpt>
      <trkpt lat="46.37663" lon="8.01593">
        <ele>2084</ele>
        <time>2021-07-10T12:49:12.173Z</time>
      </trkpt>
      <trkpt lat="46.37661" lon="8.01593">
        <ele>2081</ele>
        <time>2021-07-10T12:49:13.174Z</time>
      </trkpt>
      <trkpt lat="46.37657" lon="8.01591">
        <ele>2096</ele>
        <time>2021-07-10T12:49:14.174Z</time>
      </trkpt>
      <trkpt lat="46.37657" lon="8.01591">
        <ele>2096</ele>
        <time>2021-07-10T12:49:15.173Z</time>
      </trkpt>
      <trkpt lat="46.37657" lon="8.01592">
        <ele>2094</ele>
        <time>2021-07-10T12:49:16.174Z</time>
      </trkpt>
      <trkpt lat="46.37657" lon="8.01591">
        <ele>2093</ele>
        <time>2021-07-10T12:49:17.174Z</time>
      </trkpt>
      <trkpt lat="46.37657" lon="8.01591">
        <ele>2093</ele>
        <time>2021-07-10T12:49:18.175Z</time>
      </trkpt>
      <trkpt lat="46.37657" lon="8.01591">
        <ele>2092</ele>
        <time>2021-07-10T12:49:31.326Z</time>
      </trkpt>
      <trkpt lat="46.37659" lon="8.01596">
        <ele>2081</ele>
        <time>2021-07-10T12:49:32.326Z</time>
      </trkpt>
      <trkpt lat="46.37661" lon="8.01596">
        <ele>2081</ele>
        <time>2021-07-10T12:49:33.326Z</time>
      </trkpt>
      <trkpt lat="46.37661" lon="8.01596">
        <ele>2080</ele>
        <time>2021-07-10T12:49:34.325Z</time>
      </trkpt>
      <trkpt lat="46.37661" lon="8.01596">
        <ele>2080</ele>
        <time>2021-07-10T12:49:35.325Z</time>
      </trkpt>
      <trkpt lat="46.37662" lon="8.01596">
        <ele>2086</ele>
        <time>2021-07-10T12:49:36.326Z</time>
      </trkpt>
      <trkpt lat="46.37661" lon="8.01596">
        <ele>2087</ele>
        <time>2021-07-10T12:49:37.325Z</time>
      </trkpt>
      <trkpt lat="46.37661" lon="8.01596">
        <ele>2088</ele>
        <time>2021-07-10T12:49:38.325Z</time>
      </trkpt>
      <trkpt lat="46.3766" lon="8.01595">
        <ele>2089</ele>
        <time>2021-07-10T12:49:39.326Z</time>
      </trkpt>
      <trkpt lat="46.3766" lon="8.01594">
        <ele>2090</ele>
        <time>2021-07-10T12:49:40.325Z</time>
      </trkpt>
      <trkpt lat="46.3766" lon="8.01593">
        <ele>2094</ele>
        <time>2021-07-10T12:49:49.323Z</time>
      </trkpt>
      <trkpt lat="46.3766" lon="8.01593">
        <ele>2094</ele>
        <time>2021-07-10T12:49:50.324Z</time>
      </trkpt>
      <trkpt lat="46.3766" lon="8.01593">
        <ele>2093</ele>
        <time>2021-07-10T12:49:51.323Z</time>
      </trkpt>
      <trkpt lat="46.3766" lon="8.01593">
        <ele>2092</ele>
        <time>2021-07-10T12:49:52.323Z</time>
      </trkpt>
      <trkpt lat="46.3766" lon="8.01594">
        <ele>2092</ele>
        <time>2021-07-10T12:49:53.323Z</time>
      </trkpt>
      <trkpt lat="46.3766" lon="8.01596">
        <ele>2089</ele>
        <time>2021-07-10T12:49:54.323Z</time>
      </trkpt>
      <trkpt lat="46.3766" lon="8.01596">
        <ele>2089</ele>
        <time>2021-07-10T12:49:55.324Z</time>
      </trkpt>
      <trkpt lat="46.3766" lon="8.01596">
        <ele>2088</ele>
        <time>2021-07-10T12:49:56.323Z</time>
      </trkpt>
      <trkpt lat="46.3766" lon="8.01595">
        <ele>2087</ele>
        <time>2021-07-10T12:49:57.324Z</time>
      </trkpt>
      <trkpt lat="46.3766" lon="8.01594">
        <ele>2087</ele>
        <time>2021-07-10T12:50:01.427Z</time>
      </trkpt>
      <trkpt lat="46.37659" lon="8.01593">
        <ele>2087</ele>
        <time>2021-07-10T12:50:02.427Z</time>
      </trkpt>
      <trkpt lat="46.37661" lon="8.01598">
        <ele>2083</ele>
        <time>2021-07-10T12:50:03.427Z</time>
      </trkpt>
      <trkpt lat="46.37661" lon="8.01598">
        <ele>2083</ele>
        <time>2021-07-10T12:50:04.426Z</time>
      </trkpt>
      <trkpt lat="46.37661" lon="8.01598">
        <ele>2083</ele>
        <time>2021-07-10T12:50:05.426Z</time>
      </trkpt>
      <trkpt lat="46.37663" lon="8.01598">
        <ele>2079</ele>
        <time>2021-07-10T12:50:06.426Z</time>
      </trkpt>
      <trkpt lat="46.37662" lon="8.01598">
        <ele>2079</ele>
        <time>2021-07-10T12:50:07.427Z</time>
      </trkpt>
      <trkpt lat="46.37662" lon="8.01598">
        <ele>2079</ele>
        <time>2021-07-10T12:50:08.426Z</time>
      </trkpt>
      <trkpt lat="46.37662" lon="8.01598">
        <ele>2079</ele>
        <time>2021-07-10T12:50:09.427Z</time>
      </trkpt>
      <trkpt lat="46.37663" lon="8.01598">
        <ele>2082</ele>
        <time>2021-07-10T12:50:10.428Z</time>
      </trkpt>
      <trkpt lat="46.37663" lon="8.01598">
        <ele>2082</ele>
        <time>2021-07-10T12:50:11.427Z</time>
      </trkpt>
      <trkpt lat="46.37664" lon="8.01598">
        <ele>2082</ele>
        <time>2021-07-10T12:50:12.428Z</time>
      </trkpt>
      <trkpt lat="46.37663" lon="8.01597">
        <ele>2088</ele>
        <time>2021-07-10T12:50:13.429Z</time>
      </trkpt>
      <trkpt lat="46.37663" lon="8.01597">
        <ele>2088</ele>
        <time>2021-07-10T12:50:14.430Z</time>
      </trkpt>
      <trkpt lat="46.37663" lon="8.01597">
        <ele>2088</ele>
        <time>2021-07-10T12:50:16.537Z</time>
      </trkpt>
      <trkpt lat="46.37663" lon="8.01597">
        <ele>2088</ele>
        <time>2021-07-10T12:50:17.537Z</time>
      </trkpt>
      <trkpt lat="46.37663" lon="8.01598">
        <ele>2088</ele>
        <time>2021-07-10T12:50:18.536Z</time>
      </trkpt>
      <trkpt lat="46.37663" lon="8.01598">
        <ele>2088</ele>
        <time>2021-07-10T12:50:19.536Z</time>
      </trkpt>
      <trkpt lat="46.37662" lon="8.01596">
        <ele>2089</ele>
        <time>2021-07-10T12:50:20.536Z</time>
      </trkpt>
      <trkpt lat="46.37662" lon="8.01597">
        <ele>2090</ele>
        <time>2021-07-10T12:50:21.536Z</time>
      </trkpt>
      <trkpt lat="46.37662" lon="8.01597">
        <ele>2091</ele>
        <time>2021-07-10T12:50:22.537Z</time>
      </trkpt>
      <trkpt lat="46.37662" lon="8.01596">
        <ele>2096</ele>
        <time>2021-07-10T12:50:23.536Z</time>
      </trkpt>
      <trkpt lat="46.37659" lon="8.01595">
        <ele>2089</ele>
        <time>2021-07-10T12:50:24.537Z</time>
      </trkpt>
      <trkpt lat="46.37659" lon="8.01595">
        <ele>2088</ele>
        <time>2021-07-10T12:50:25.536Z</time>
      </trkpt>
      <trkpt lat="46.37661" lon="8.01596">
        <ele>2083</ele>
        <time>2021-07-10T12:50:26.538Z</time>
      </trkpt>
      <trkpt lat="46.37661" lon="8.01596">
        <ele>2083</ele>
        <time>2021-07-10T12:50:27.537Z</time>
      </trkpt>
      <trkpt lat="46.37661" lon="8.01596">
        <ele>2083</ele>
        <time>2021-07-10T12:50:28.537Z</time>
      </trkpt>
      <trkpt lat="46.37661" lon="8.01597">
        <ele>2083</ele>
        <time>2021-07-10T12:50:29.537Z</time>
      </trkpt>
      <trkpt lat="46.37661" lon="8.01597">
        <ele>2083</ele>
        <time>2021-07-10T12:50:30.537Z</time>
      </trkpt>
      <trkpt lat="46.37661" lon="8.01597">
        <ele>2083</ele>
        <time>2021-07-10T12:50:31.537Z</time>
      </trkpt>
      <trkpt lat="46.37662" lon="8.01596">
        <ele>2082</ele>
        <time>2021-07-10T12:50:32.538Z</time>
      </trkpt>
      <trkpt lat="46.37661" lon="8.01597">
        <ele>2086</ele>
        <time>2021-07-10T12:50:34.561Z</time>
      </trkpt>
      <trkpt lat="46.3766" lon="8.01596">
        <ele>2087</ele>
        <time>2021-07-10T12:50:35.561Z</time>
      </trkpt>
      <trkpt lat="46.37659" lon="8.01596">
        <ele>2088</ele>
        <time>2021-07-10T12:50:36.561Z</time>
      </trkpt>
      <trkpt lat="46.37659" lon="8.01596">
        <ele>2089</ele>
        <time>2021-07-10T12:50:37.560Z</time>
      </trkpt>
      <trkpt lat="46.37658" lon="8.01595">
        <ele>2089</ele>
        <time>2021-07-10T12:50:38.561Z</time>
      </trkpt>
      <trkpt lat="46.37658" lon="8.01595">
        <ele>2091</ele>
        <time>2021-07-10T12:50:39.562Z</time>
      </trkpt>
      <trkpt lat="46.37658" lon="8.01594">
        <ele>2091</ele>
        <time>2021-07-10T12:50:40.561Z</time>
      </trkpt>
      <trkpt lat="46.37658" lon="8.01594">
        <ele>2092</ele>
        <time>2021-07-10T12:50:41.562Z</time>
      </trkpt>
      <trkpt lat="46.37658" lon="8.01594">
        <ele>2092</ele>
        <time>2021-07-10T12:50:42.561Z</time>
      </trkpt>
      <trkpt lat="46.37662" lon="8.01596">
        <ele>2083</ele>
        <time>2021-07-10T12:50:43.562Z</time>
      </trkpt>
      <trkpt lat="46.37662" lon="8.01596">
        <ele>2082</ele>
        <time>2021-07-10T12:50:44.561Z</time>
      </trkpt>
      <trkpt lat="46.37662" lon="8.01597">
        <ele>2078</ele>
        <time>2021-07-10T12:50:45.562Z</time>
      </trkpt>
      <trkpt lat="46.37662" lon="8.01597">
        <ele>2078</ele>
        <time>2021-07-10T12:50:46.562Z</time>
      </trkpt>
      <trkpt lat="46.37662" lon="8.01596">
        <ele>2079</ele>
        <time>2021-07-10T12:50:48.677Z</time>
      </trkpt>
      <trkpt lat="46.37662" lon="8.01596">
        <ele>2079</ele>
        <time>2021-07-10T12:50:49.677Z</time>
      </trkpt>
      <trkpt lat="46.37659" lon="8.01595">
        <ele>2088</ele>
        <time>2021-07-10T12:50:50.677Z</time>
      </trkpt>
      <trkpt lat="46.37658" lon="8.01594">
        <ele>2089</ele>
        <time>2021-07-10T12:50:51.677Z</time>
      </trkpt>
      <trkpt lat="46.37657" lon="8.01594">
        <ele>2090</ele>
        <time>2021-07-10T12:50:53.689Z</time>
      </trkpt>
      <trkpt lat="46.37656" lon="8.01594">
        <ele>2091</ele>
        <time>2021-07-10T12:50:54.688Z</time>
      </trkpt>
      <trkpt lat="46.37656" lon="8.01594">
        <ele>2091</ele>
        <time>2021-07-10T12:50:55.689Z</time>
      </trkpt>
      <trkpt lat="46.37654" lon="8.01595">
        <ele>2100</ele>
        <time>2021-07-10T12:50:56.689Z</time>
      </trkpt>
      <trkpt lat="46.37655" lon="8.01595">
        <ele>2100</ele>
        <time>2021-07-10T12:50:57.689Z</time>
      </trkpt>
      <trkpt lat="46.37657" lon="8.01597">
        <ele>2095</ele>
        <time>2021-07-10T12:50:58.691Z</time>
      </trkpt>
      <trkpt lat="46.37657" lon="8.01597">
        <ele>2094</ele>
        <time>2021-07-10T12:51:05.701Z</time>
      </trkpt>
      <trkpt lat="46.37658" lon="8.01595">
        <ele>2094</ele>
        <time>2021-07-10T12:51:06.700Z</time>
      </trkpt>
      <trkpt lat="46.37658" lon="8.01595">
        <ele>2094</ele>
        <time>2021-07-10T12:51:07.700Z</time>
      </trkpt>
      <trkpt lat="46.37658" lon="8.01596">
        <ele>2094</ele>
        <time>2021-07-10T12:51:08.700Z</time>
      </trkpt>
      <trkpt lat="46.37658" lon="8.01597">
        <ele>2093</ele>
        <time>2021-07-10T12:51:09.701Z</time>
      </trkpt>
      <trkpt lat="46.37658" lon="8.01599">
        <ele>2093</ele>
        <time>2021-07-10T12:51:10.701Z</time>
      </trkpt>
      <trkpt lat="46.37659" lon="8.01599">
        <ele>2092</ele>
        <time>2021-07-10T12:51:11.700Z</time>
      </trkpt>
      <trkpt lat="46.3766" lon="8.016">
        <ele>2092</ele>
        <time>2021-07-10T12:51:12.701Z</time>
      </trkpt>
      <trkpt lat="46.3766" lon="8.01599">
        <ele>2091</ele>
        <time>2021-07-10T12:51:13.701Z</time>
      </trkpt>
      <trkpt lat="46.37661" lon="8.01599">
        <ele>2091</ele>
        <time>2021-07-10T12:51:14.700Z</time>
      </trkpt>
      <trkpt lat="46.37662" lon="8.01596">
        <ele>2081</ele>
        <time>2021-07-10T12:51:15.701Z</time>
      </trkpt>
      <trkpt lat="46.37662" lon="8.01596">
        <ele>2082</ele>
        <time>2021-07-10T12:51:16.701Z</time>
      </trkpt>
      <trkpt lat="46.37665" lon="8.016">
        <ele>2082</ele>
        <time>2021-07-10T12:51:17.701Z</time>
      </trkpt>
      <trkpt lat="46.37665" lon="8.016">
        <ele>2081</ele>
        <time>2021-07-10T12:51:18.702Z</time>
      </trkpt>
      <trkpt lat="46.37666" lon="8.01601">
        <ele>2080</ele>
        <time>2021-07-10T12:51:21.827Z</time>
      </trkpt>
      <trkpt lat="46.37667" lon="8.01602">
        <ele>2080</ele>
        <time>2021-07-10T12:51:22.827Z</time>
      </trkpt>
      <trkpt lat="46.37667" lon="8.01603">
        <ele>2079</ele>
        <time>2021-07-10T12:51:23.828Z</time>
      </trkpt>
      <trkpt lat="46.37667" lon="8.01603">
        <ele>2079</ele>
        <time>2021-07-10T12:51:24.828Z</time>
      </trkpt>
      <trkpt lat="46.37667" lon="8.01604">
        <ele>2079</ele>
        <time>2021-07-10T12:51:25.828Z</time>
      </trkpt>
      <trkpt lat="46.37665" lon="8.01601">
        <ele>2082</ele>
        <time>2021-07-10T12:51:26.829Z</time>
      </trkpt>
      <trkpt lat="46.37665" lon="8.01601">
        <ele>2082</ele>
        <time>2021-07-10T12:51:27.828Z</time>
      </trkpt>
      <trkpt lat="46.37665" lon="8.01602">
        <ele>2081</ele>
        <time>2021-07-10T12:51:28.828Z</time>
      </trkpt>
      <trkpt lat="46.37665" lon="8.01598">
        <ele>2079</ele>
        <time>2021-07-10T12:51:29.829Z</time>
      </trkpt>
      <trkpt lat="46.37665" lon="8.01597">
        <ele>2079</ele>
        <time>2021-07-10T12:51:30.829Z</time>
      </trkpt>
      <trkpt lat="46.37664" lon="8.01597">
        <ele>2079</ele>
        <time>2021-07-10T12:51:31.829Z</time>
      </trkpt>
      <trkpt lat="46.37662" lon="8.01594">
        <ele>2084</ele>
        <time>2021-07-10T12:51:32.828Z</time>
      </trkpt>
      <trkpt lat="46.37662" lon="8.01594">
        <ele>2085</ele>
        <time>2021-07-10T12:51:33.829Z</time>
      </trkpt>
      <trkpt lat="46.37657" lon="8.01592">
        <ele>2094</ele>
        <time>2021-07-10T12:51:34.828Z</time>
      </trkpt>
      <trkpt lat="46.37656" lon="8.01592">
        <ele>2094</ele>
        <time>2021-07-10T12:51:35.829Z</time>
      </trkpt>
      <trkpt lat="46.37655" lon="8.01592">
        <ele>2094</ele>
        <time>2021-07-10T12:51:36.829Z</time>
      </trkpt>
      <trkpt lat="46.37655" lon="8.01591">
        <ele>2094</ele>
        <time>2021-07-10T12:51:37.828Z</time>
      </trkpt>
      <trkpt lat="46.37656" lon="8.01591">
        <ele>2094</ele>
        <time>2021-07-10T12:51:38.829Z</time>
      </trkpt>
      <trkpt lat="46.37657" lon="8.01592">
        <ele>2093</ele>
        <time>2021-07-10T12:51:46.825Z</time>
      </trkpt>
      <trkpt lat="46.37657" lon="8.01592">
        <ele>2093</ele>
        <time>2021-07-10T12:51:47.824Z</time>
      </trkpt>
      <trkpt lat="46.37658" lon="8.01592">
        <ele>2091</ele>
        <time>2021-07-10T12:51:48.825Z</time>
      </trkpt>
      <trkpt lat="46.37658" lon="8.01592">
        <ele>2090</ele>
        <time>2021-07-10T12:51:49.824Z</time>
      </trkpt>
      <trkpt lat="46.37658" lon="8.01592">
        <ele>2090</ele>
        <time>2021-07-10T12:51:50.825Z</time>
      </trkpt>
      <trkpt lat="46.37661" lon="8.01594">
        <ele>2084</ele>
        <time>2021-07-10T12:51:51.825Z</time>
      </trkpt>
      <trkpt lat="46.37661" lon="8.01594">
        <ele>2084</ele>
        <time>2021-07-10T12:51:52.826Z</time>
      </trkpt>
      <trkpt lat="46.37661" lon="8.01594">
        <ele>2084</ele>
        <time>2021-07-10T12:51:53.825Z</time>
      </trkpt>
      <trkpt lat="46.37659" lon="8.0159">
        <ele>2089</ele>
        <time>2021-07-10T12:51:54.826Z</time>
      </trkpt>
      <trkpt lat="46.37657" lon="8.01588">
        <ele>2090</ele>
        <time>2021-07-10T12:51:55.826Z</time>
      </trkpt>
      <trkpt lat="46.37657" lon="8.01588">
        <ele>2090</ele>
        <time>2021-07-10T12:51:56.826Z</time>
      </trkpt>
      <trkpt lat="46.37657" lon="8.01588">
        <ele>2090</ele>
        <time>2021-07-10T12:51:57.825Z</time>
      </trkpt>
      <trkpt lat="46.37656" lon="8.01587">
        <ele>2090</ele>
        <time>2021-07-10T12:51:58.825Z</time>
      </trkpt>
      <trkpt lat="46.37654" lon="8.01585">
        <ele>2091</ele>
        <time>2021-07-10T12:51:59.826Z</time>
      </trkpt>
      <trkpt lat="46.37654" lon="8.01585">
        <ele>2091</ele>
        <time>2021-07-10T12:52:03.933Z</time>
      </trkpt>
      <trkpt lat="46.37654" lon="8.01585">
        <ele>2091</ele>
        <time>2021-07-10T12:52:04.932Z</time>
      </trkpt>
      <trkpt lat="46.37654" lon="8.01585">
        <ele>2091</ele>
        <time>2021-07-10T12:52:05.932Z</time>
      </trkpt>
      <trkpt lat="46.37655" lon="8.01586">
        <ele>2091</ele>
        <time>2021-07-10T12:52:06.933Z</time>
      </trkpt>
      <trkpt lat="46.37656" lon="8.01586">
        <ele>2091</ele>
        <time>2021-07-10T12:52:07.933Z</time>
      </trkpt>
      <trkpt lat="46.37656" lon="8.01586">
        <ele>2090</ele>
        <time>2021-07-10T12:52:08.932Z</time>
      </trkpt>
      <trkpt lat="46.37656" lon="8.01586">
        <ele>2089</ele>
        <time>2021-07-10T12:52:12.948Z</time>
      </trkpt>
      <trkpt lat="46.37656" lon="8.01587">
        <ele>2088</ele>
        <time>2021-07-10T12:52:13.949Z</time>
      </trkpt>
      <trkpt lat="46.37657" lon="8.01587">
        <ele>2087</ele>
        <time>2021-07-10T12:52:14.948Z</time>
      </trkpt>
      <trkpt lat="46.37658" lon="8.01589">
        <ele>2084</ele>
        <time>2021-07-10T12:52:18.041Z</time>
      </trkpt>
      <trkpt lat="46.37658" lon="8.01589">
        <ele>2084</ele>
        <time>2021-07-10T12:52:19.041Z</time>
      </trkpt>
      <trkpt lat="46.37657" lon="8.01589">
        <ele>2084</ele>
        <time>2021-07-10T12:52:24.805Z</time>
      </trkpt>
      <trkpt lat="46.37657" lon="8.01588">
        <ele>2083</ele>
        <time>2021-07-10T12:52:25.805Z</time>
      </trkpt>
      <trkpt lat="46.37657" lon="8.01588">
        <ele>2083</ele>
        <time>2021-07-10T12:52:26.805Z</time>
      </trkpt>
      <trkpt lat="46.37657" lon="8.01588">
        <ele>2082</ele>
        <time>2021-07-10T12:52:27.805Z</time>
      </trkpt>
      <trkpt lat="46.37656" lon="8.01589">
        <ele>2082</ele>
        <time>2021-07-10T12:52:28.806Z</time>
      </trkpt>
      <trkpt lat="46.37656" lon="8.01588">
        <ele>2082</ele>
        <time>2021-07-10T12:52:29.805Z</time>
      </trkpt>
      <trkpt lat="46.37656" lon="8.01589">
        <ele>2082</ele>
        <time>2021-07-10T12:52:30.805Z</time>
      </trkpt>
      <trkpt lat="46.37655" lon="8.01589">
        <ele>2083</ele>
        <time>2021-07-10T12:52:31.805Z</time>
      </trkpt>
      <trkpt lat="46.37655" lon="8.01588">
        <ele>2084</ele>
        <time>2021-07-10T12:52:32.805Z</time>
      </trkpt>
      <trkpt lat="46.37655" lon="8.01588">
        <ele>2084</ele>
        <time>2021-07-10T12:52:33.805Z</time>
      </trkpt>
      <trkpt lat="46.37655" lon="8.01588">
        <ele>2085</ele>
        <time>2021-07-10T12:52:34.805Z</time>
      </trkpt>
      <trkpt lat="46.37653" lon="8.01588">
        <ele>2093</ele>
        <time>2021-07-10T12:52:35.807Z</time>
      </trkpt>
      <trkpt lat="46.37653" lon="8.01588">
        <ele>2094</ele>
        <time>2021-07-10T12:52:36.807Z</time>
      </trkpt>
      <trkpt lat="46.37653" lon="8.01588">
        <ele>2094</ele>
        <time>2021-07-10T12:52:37.806Z</time>
      </trkpt>
      <trkpt lat="46.37656" lon="8.01591">
        <ele>2090</ele>
        <time>2021-07-10T12:52:38.807Z</time>
      </trkpt>
      <trkpt lat="46.37656" lon="8.01591">
        <ele>2089</ele>
        <time>2021-07-10T12:52:39.807Z</time>
      </trkpt>
      <trkpt lat="46.3766" lon="8.01594">
        <ele>2087</ele>
        <time>2021-07-10T12:52:40.806Z</time>
      </trkpt>
      <trkpt lat="46.3766" lon="8.01594">
        <ele>2086</ele>
        <time>2021-07-10T12:52:41.806Z</time>
      </trkpt>
      <trkpt lat="46.3766" lon="8.01595">
        <ele>2086</ele>
        <time>2021-07-10T12:52:42.806Z</time>
      </trkpt>
      <trkpt lat="46.3766" lon="8.01594">
        <ele>2085</ele>
        <time>2021-07-10T12:52:43.808Z</time>
      </trkpt>
      <trkpt lat="46.3766" lon="8.01594">
        <ele>2085</ele>
        <time>2021-07-10T12:52:44.807Z</time>
      </trkpt>
      <trkpt lat="46.37659" lon="8.01593">
        <ele>2085</ele>
        <time>2021-07-10T12:52:45.807Z</time>
      </trkpt>
      <trkpt lat="46.37659" lon="8.01593">
        <ele>2085</ele>
        <time>2021-07-10T12:52:46.808Z</time>
      </trkpt>
      <trkpt lat="46.37659" lon="8.01593">
        <ele>2085</ele>
        <time>2021-07-10T12:52:47.807Z</time>
      </trkpt>
      <trkpt lat="46.37659" lon="8.01593">
        <ele>2085</ele>
        <time>2021-07-10T12:52:48.808Z</time>
      </trkpt>
      <trkpt lat="46.37663" lon="8.01599">
        <ele>2083</ele>
        <time>2021-07-10T12:52:49.808Z</time>
      </trkpt>
      <trkpt lat="46.37663" lon="8.01599">
        <ele>2083</ele>
        <time>2021-07-10T12:52:50.808Z</time>
      </trkpt>
      <trkpt lat="46.37664" lon="8.01599">
        <ele>2082</ele>
        <time>2021-07-10T12:52:51.808Z</time>
      </trkpt>
      <trkpt lat="46.37664" lon="8.01599">
        <ele>2083</ele>
        <time>2021-07-10T12:52:52.808Z</time>
      </trkpt>
      <trkpt lat="46.37664" lon="8.01599">
        <ele>2083</ele>
        <time>2021-07-10T12:52:53.807Z</time>
      </trkpt>
      <trkpt lat="46.37662" lon="8.01598">
        <ele>2089</ele>
        <time>2021-07-10T12:52:54.807Z</time>
      </trkpt>
      <trkpt lat="46.37662" lon="8.01598">
        <ele>2090</ele>
        <time>2021-07-10T12:52:55.808Z</time>
      </trkpt>
      <trkpt lat="46.3766" lon="8.01596">
        <ele>2088</ele>
        <time>2021-07-10T12:52:56.809Z</time>
      </trkpt>
      <trkpt lat="46.3766" lon="8.01596">
        <ele>2088</ele>
        <time>2021-07-10T12:52:57.808Z</time>
      </trkpt>
      <trkpt lat="46.3766" lon="8.01596">
        <ele>2087</ele>
        <time>2021-07-10T12:52:58.809Z</time>
      </trkpt>
      <trkpt lat="46.37659" lon="8.01596">
        <ele>2088</ele>
        <time>2021-07-10T12:52:59.808Z</time>
      </trkpt>
      <trkpt lat="46.37659" lon="8.01596">
        <ele>2088</ele>
        <time>2021-07-10T12:53:00.809Z</time>
      </trkpt>
      <trkpt lat="46.3766" lon="8.01596">
        <ele>2088</ele>
        <time>2021-07-10T12:53:01.808Z</time>
      </trkpt>
      <trkpt lat="46.37661" lon="8.01598">
        <ele>2087</ele>
        <time>2021-07-10T12:53:02.809Z</time>
      </trkpt>
      <trkpt lat="46.37661" lon="8.01598">
        <ele>2087</ele>
        <time>2021-07-10T12:53:03.809Z</time>
      </trkpt>
      <trkpt lat="46.37662" lon="8.01599">
        <ele>2087</ele>
        <time>2021-07-10T12:53:04.809Z</time>
      </trkpt>
      <trkpt lat="46.37662" lon="8.01599">
        <ele>2087</ele>
        <time>2021-07-10T12:53:05.810Z</time>
      </trkpt>
      <trkpt lat="46.37663" lon="8.01599">
        <ele>2086</ele>
        <time>2021-07-10T12:53:06.810Z</time>
      </trkpt>
      <trkpt lat="46.37663" lon="8.016">
        <ele>2086</ele>
        <time>2021-07-10T12:53:07.809Z</time>
      </trkpt>
      <trkpt lat="46.37663" lon="8.016">
        <ele>2085</ele>
        <time>2021-07-10T12:53:08.810Z</time>
      </trkpt>
      <trkpt lat="46.37663" lon="8.016">
        <ele>2084</ele>
        <time>2021-07-10T12:53:09.810Z</time>
      </trkpt>
      <trkpt lat="46.37664" lon="8.01601">
        <ele>2079</ele>
        <time>2021-07-10T12:53:10.809Z</time>
      </trkpt>
      <trkpt lat="46.37664" lon="8.016">
        <ele>2079</ele>
        <time>2021-07-10T12:53:11.809Z</time>
      </trkpt>
      <trkpt lat="46.37664" lon="8.016">
        <ele>2079</ele>
        <time>2021-07-10T12:53:12.809Z</time>
      </trkpt>
      <trkpt lat="46.37663" lon="8.01596">
        <ele>2082</ele>
        <time>2021-07-10T12:53:13.811Z</time>
      </trkpt>
      <trkpt lat="46.37663" lon="8.01595">
        <ele>2082</ele>
        <time>2021-07-10T12:53:14.811Z</time>
      </trkpt>
      <trkpt lat="46.37662" lon="8.01594">
        <ele>2082</ele>
        <time>2021-07-10T12:53:15.810Z</time>
      </trkpt>
      <trkpt lat="46.37663" lon="8.01593">
        <ele>2082</ele>
        <time>2021-07-10T12:53:16.811Z</time>
      </trkpt>
      <trkpt lat="46.37663" lon="8.01592">
        <ele>2082</ele>
        <time>2021-07-10T12:53:17.811Z</time>
      </trkpt>
      <trkpt lat="46.37662" lon="8.01592">
        <ele>2082</ele>
        <time>2021-07-10T12:53:18.810Z</time>
      </trkpt>
      <trkpt lat="46.37662" lon="8.01591">
        <ele>2082</ele>
        <time>2021-07-10T12:53:19.810Z</time>
      </trkpt>
      <trkpt lat="46.37662" lon="8.0159">
        <ele>2082</ele>
        <time>2021-07-10T12:53:20.811Z</time>
      </trkpt>
      <trkpt lat="46.37661" lon="8.0159">
        <ele>2083</ele>
        <time>2021-07-10T12:53:21.811Z</time>
      </trkpt>
      <trkpt lat="46.37661" lon="8.01589">
        <ele>2083</ele>
        <time>2021-07-10T12:53:22.810Z</time>
      </trkpt>
      <trkpt lat="46.3766" lon="8.01589">
        <ele>2084</ele>
        <time>2021-07-10T12:53:23.811Z</time>
      </trkpt>
      <trkpt lat="46.37657" lon="8.01592">
        <ele>2089</ele>
        <time>2021-07-10T12:53:24.811Z</time>
      </trkpt>
      <trkpt lat="46.37657" lon="8.01592">
        <ele>2089</ele>
        <time>2021-07-10T12:53:25.811Z</time>
      </trkpt>
      <trkpt lat="46.37657" lon="8.01592">
        <ele>2089</ele>
        <time>2021-07-10T12:53:26.810Z</time>
      </trkpt>
      <trkpt lat="46.37662" lon="8.01597">
        <ele>2085</ele>
        <time>2021-07-10T12:53:27.810Z</time>
      </trkpt>
      <trkpt lat="46.37662" lon="8.01597">
        <ele>2085</ele>
        <time>2021-07-10T12:53:28.811Z</time>
      </trkpt>
      <trkpt lat="46.37662" lon="8.01597">
        <ele>2085</ele>
        <time>2021-07-10T12:53:29.811Z</time>
      </trkpt>
      <trkpt lat="46.37662" lon="8.01601">
        <ele>2086</ele>
        <time>2021-07-10T12:53:30.812Z</time>
      </trkpt>
      <trkpt lat="46.37661" lon="8.01601">
        <ele>2086</ele>
        <time>2021-07-10T12:53:31.811Z</time>
      </trkpt>
      <trkpt lat="46.37661" lon="8.01601">
        <ele>2087</ele>
        <time>2021-07-10T12:53:32.811Z</time>
      </trkpt>
      <trkpt lat="46.37659" lon="8.01598">
        <ele>2092</ele>
        <time>2021-07-10T12:53:33.811Z</time>
      </trkpt>
      <trkpt lat="46.37659" lon="8.01597">
        <ele>2093</ele>
        <time>2021-07-10T12:53:34.812Z</time>
      </trkpt>
      <trkpt lat="46.37659" lon="8.01597">
        <ele>2093</ele>
        <time>2021-07-10T12:53:35.812Z</time>
      </trkpt>
      <trkpt lat="46.37658" lon="8.01595">
        <ele>2095</ele>
        <time>2021-07-10T12:53:36.812Z</time>
      </trkpt>
      <trkpt lat="46.37657" lon="8.01595">
        <ele>2096</ele>
        <time>2021-07-10T12:53:37.812Z</time>
      </trkpt>
      <trkpt lat="46.37657" lon="8.01595">
        <ele>2096</ele>
        <time>2021-07-10T12:53:38.811Z</time>
      </trkpt>
      <trkpt lat="46.37657" lon="8.01595">
        <ele>2096</ele>
        <time>2021-07-10T12:53:39.812Z</time>
      </trkpt>
      <trkpt lat="46.37658" lon="8.01595">
        <ele>2096</ele>
        <time>2021-07-10T12:53:40.812Z</time>
      </trkpt>
      <trkpt lat="46.37658" lon="8.01596">
        <ele>2095</ele>
        <time>2021-07-10T12:53:41.811Z</time>
      </trkpt>
      <trkpt lat="46.37658" lon="8.01596">
        <ele>2095</ele>
        <time>2021-07-10T12:53:42.811Z</time>
      </trkpt>
      <trkpt lat="46.37658" lon="8.01595">
        <ele>2095</ele>
        <time>2021-07-10T12:53:43.811Z</time>
      </trkpt>
      <trkpt lat="46.37657" lon="8.01595">
        <ele>2095</ele>
        <time>2021-07-10T12:53:44.811Z</time>
      </trkpt>
      <trkpt lat="46.37657" lon="8.01594">
        <ele>2095</ele>
        <time>2021-07-10T12:53:45.811Z</time>
      </trkpt>
      <trkpt lat="46.37657" lon="8.01594">
        <ele>2095</ele>
        <time>2021-07-10T12:53:46.811Z</time>
      </trkpt>
      <trkpt lat="46.37657" lon="8.01596">
        <ele>2096</ele>
        <time>2021-07-10T12:53:47.812Z</time>
      </trkpt>
      <trkpt lat="46.37657" lon="8.01596">
        <ele>2096</ele>
        <time>2021-07-10T12:53:48.812Z</time>
      </trkpt>
      <trkpt lat="46.37657" lon="8.01596">
        <ele>2096</ele>
        <time>2021-07-10T12:53:49.811Z</time>
      </trkpt>
      <trkpt lat="46.37657" lon="8.01595">
        <ele>2096</ele>
        <time>2021-07-10T12:53:50.812Z</time>
      </trkpt>
      <trkpt lat="46.37657" lon="8.01595">
        <ele>2096</ele>
        <time>2021-07-10T12:53:51.812Z</time>
      </trkpt>
      <trkpt lat="46.37656" lon="8.01594">
        <ele>2100</ele>
        <time>2021-07-10T12:53:52.812Z</time>
      </trkpt>
      <trkpt lat="46.37657" lon="8.01594">
        <ele>2100</ele>
        <time>2021-07-10T12:53:53.812Z</time>
      </trkpt>
      <trkpt lat="46.37655" lon="8.01593">
        <ele>2098</ele>
        <time>2021-07-10T12:53:54.812Z</time>
      </trkpt>
      <trkpt lat="46.37655" lon="8.01593">
        <ele>2098</ele>
        <time>2021-07-10T12:53:55.811Z</time>
      </trkpt>
      <trkpt lat="46.37654" lon="8.01593">
        <ele>2099</ele>
        <time>2021-07-10T12:53:56.812Z</time>
      </trkpt>
      <trkpt lat="46.37654" lon="8.01593">
        <ele>2100</ele>
        <time>2021-07-10T12:53:57.812Z</time>
      </trkpt>
      <trkpt lat="46.37658" lon="8.01596">
        <ele>2095</ele>
        <time>2021-07-10T12:53:58.811Z</time>
      </trkpt>
      <trkpt lat="46.37658" lon="8.01597">
        <ele>2094</ele>
        <time>2021-07-10T12:53:59.812Z</time>
      </trkpt>
      <trkpt lat="46.37658" lon="8.01597">
        <ele>2094</ele>
        <time>2021-07-10T12:54:00.811Z</time>
      </trkpt>
      <trkpt lat="46.3766" lon="8.01599">
        <ele>2088</ele>
        <time>2021-07-10T12:54:01.812Z</time>
      </trkpt>
      <trkpt lat="46.3766" lon="8.01599">
        <ele>2088</ele>
        <time>2021-07-10T12:54:02.812Z</time>
      </trkpt>
      <trkpt lat="46.3766" lon="8.01599">
        <ele>2088</ele>
        <time>2021-07-10T12:54:03.811Z</time>
      </trkpt>
      <trkpt lat="46.3766" lon="8.01599">
        <ele>2088</ele>
        <time>2021-07-10T12:54:04.811Z</time>
      </trkpt>
      <trkpt lat="46.37659" lon="8.01599">
        <ele>2088</ele>
        <time>2021-07-10T12:54:05.812Z</time>
      </trkpt>
      <trkpt lat="46.37659" lon="8.01599">
        <ele>2089</ele>
        <time>2021-07-10T12:54:06.812Z</time>
      </trkpt>
      <trkpt lat="46.37655" lon="8.01594">
        <ele>2096</ele>
        <time>2021-07-10T12:54:07.812Z</time>
      </trkpt>
      <trkpt lat="46.37655" lon="8.01594">
        <ele>2096</ele>
        <time>2021-07-10T12:54:08.813Z</time>
      </trkpt>
      <trkpt lat="46.37655" lon="8.01594">
        <ele>2095</ele>
        <time>2021-07-10T12:54:09.812Z</time>
      </trkpt>
      <trkpt lat="46.37656" lon="8.01594">
        <ele>2095</ele>
        <time>2021-07-10T12:54:10.813Z</time>
      </trkpt>
      <trkpt lat="46.37655" lon="8.01594">
        <ele>2095</ele>
        <time>2021-07-10T12:54:11.813Z</time>
      </trkpt>
      <trkpt lat="46.37655" lon="8.01593">
        <ele>2095</ele>
        <time>2021-07-10T12:54:12.812Z</time>
      </trkpt>
      <trkpt lat="46.37655" lon="8.01593">
        <ele>2095</ele>
        <time>2021-07-10T12:54:13.813Z</time>
      </trkpt>
      <trkpt lat="46.3766" lon="8.01595">
        <ele>2088</ele>
        <time>2021-07-10T12:54:14.813Z</time>
      </trkpt>
      <trkpt lat="46.3766" lon="8.01595">
        <ele>2088</ele>
        <time>2021-07-10T12:54:15.813Z</time>
      </trkpt>
      <trkpt lat="46.3766" lon="8.01594">
        <ele>2088</ele>
        <time>2021-07-10T12:54:16.812Z</time>
      </trkpt>
      <trkpt lat="46.37659" lon="8.01593">
        <ele>2089</ele>
        <time>2021-07-10T12:54:17.812Z</time>
      </trkpt>
      <trkpt lat="46.37659" lon="8.01591">
        <ele>2089</ele>
        <time>2021-07-10T12:54:18.813Z</time>
      </trkpt>
      <trkpt lat="46.37659" lon="8.01589">
        <ele>2090</ele>
        <time>2021-07-10T12:54:19.813Z</time>
      </trkpt>
      <trkpt lat="46.37658" lon="8.01587">
        <ele>2091</ele>
        <time>2021-07-10T12:54:20.813Z</time>
      </trkpt>
      <trkpt lat="46.37658" lon="8.01586">
        <ele>2091</ele>
        <time>2021-07-10T12:54:21.812Z</time>
      </trkpt>
      <trkpt lat="46.37658" lon="8.01585">
        <ele>2091</ele>
        <time>2021-07-10T12:54:22.812Z</time>
      </trkpt>
      <trkpt lat="46.37658" lon="8.01584">
        <ele>2092</ele>
        <time>2021-07-10T12:54:23.812Z</time>
      </trkpt>
      <trkpt lat="46.37658" lon="8.01583">
        <ele>2092</ele>
        <time>2021-07-10T12:54:24.812Z</time>
      </trkpt>
      <trkpt lat="46.37658" lon="8.01584">
        <ele>2092</ele>
        <time>2021-07-10T12:54:25.813Z</time>
      </trkpt>
      <trkpt lat="46.37657" lon="8.01583">
        <ele>2092</ele>
        <time>2021-07-10T12:54:26.813Z</time>
      </trkpt>
      <trkpt lat="46.37657" lon="8.01584">
        <ele>2092</ele>
        <time>2021-07-10T12:54:27.812Z</time>
      </trkpt>
      <trkpt lat="46.37657" lon="8.01584">
        <ele>2093</ele>
        <time>2021-07-10T12:54:28.812Z</time>
      </trkpt>
      <trkpt lat="46.37657" lon="8.01589">
        <ele>2092</ele>
        <time>2021-07-10T12:54:29.813Z</time>
      </trkpt>
      <trkpt lat="46.37657" lon="8.01589">
        <ele>2092</ele>
        <time>2021-07-10T12:54:30.813Z</time>
      </trkpt>
      <trkpt lat="46.37657" lon="8.01588">
        <ele>2092</ele>
        <time>2021-07-10T12:54:31.812Z</time>
      </trkpt>
      <trkpt lat="46.37656" lon="8.01585">
        <ele>2092</ele>
        <time>2021-07-10T12:54:32.813Z</time>
      </trkpt>
      <trkpt lat="46.37656" lon="8.01584">
        <ele>2092</ele>
        <time>2021-07-10T12:54:33.813Z</time>
      </trkpt>
      <trkpt lat="46.37656" lon="8.01584">
        <ele>2091</ele>
        <time>2021-07-10T12:54:34.813Z</time>
      </trkpt>
      <trkpt lat="46.37657" lon="8.01584">
        <ele>2092</ele>
        <time>2021-07-10T12:54:35.812Z</time>
      </trkpt>
      <trkpt lat="46.37658" lon="8.01585">
        <ele>2092</ele>
        <time>2021-07-10T12:54:36.812Z</time>
      </trkpt>
      <trkpt lat="46.37658" lon="8.01588">
        <ele>2093</ele>
        <time>2021-07-10T12:54:37.814Z</time>
      </trkpt>
      <trkpt lat="46.37659" lon="8.01589">
        <ele>2092</ele>
        <time>2021-07-10T12:54:38.814Z</time>
      </trkpt>
      <trkpt lat="46.37659" lon="8.01589">
        <ele>2092</ele>
        <time>2021-07-10T12:54:39.813Z</time>
      </trkpt>
      <trkpt lat="46.37648" lon="8.01593">
        <ele>2104</ele>
        <time>2021-07-10T12:54:40.814Z</time>
      </trkpt>
      <trkpt lat="46.37648" lon="8.01592">
        <ele>2104</ele>
        <time>2021-07-10T12:54:41.814Z</time>
      </trkpt>
      <trkpt lat="46.37649" lon="8.01592">
        <ele>2104</ele>
        <time>2021-07-10T12:54:42.813Z</time>
      </trkpt>
      <trkpt lat="46.37654" lon="8.01594">
        <ele>2103</ele>
        <time>2021-07-10T12:54:43.814Z</time>
      </trkpt>
      <trkpt lat="46.37657" lon="8.01595">
        <ele>2102</ele>
        <time>2021-07-10T12:54:44.814Z</time>
      </trkpt>
      <trkpt lat="46.37659" lon="8.01594">
        <ele>2101</ele>
        <time>2021-07-10T12:54:45.814Z</time>
      </trkpt>
      <trkpt lat="46.3766" lon="8.01594">
        <ele>2101</ele>
        <time>2021-07-10T12:54:46.814Z</time>
      </trkpt>
      <trkpt lat="46.3766" lon="8.01595">
        <ele>2100</ele>
        <time>2021-07-10T12:54:47.813Z</time>
      </trkpt>
      <trkpt lat="46.37661" lon="8.01595">
        <ele>2099</ele>
        <time>2021-07-10T12:54:48.814Z</time>
      </trkpt>
      <trkpt lat="46.37662" lon="8.01594">
        <ele>2099</ele>
        <time>2021-07-10T12:54:49.814Z</time>
      </trkpt>
      <trkpt lat="46.37662" lon="8.01596">
        <ele>2091</ele>
        <time>2021-07-10T12:54:50.813Z</time>
      </trkpt>
      <trkpt lat="46.37661" lon="8.01597">
        <ele>2091</ele>
        <time>2021-07-10T12:54:51.813Z</time>
      </trkpt>
      <trkpt lat="46.37661" lon="8.01597">
        <ele>2091</ele>
        <time>2021-07-10T12:54:52.814Z</time>
      </trkpt>
      <trkpt lat="46.37661" lon="8.01597">
        <ele>2091</ele>
        <time>2021-07-10T12:54:53.814Z</time>
      </trkpt>
      <trkpt lat="46.37661" lon="8.01597">
        <ele>2091</ele>
        <time>2021-07-10T12:54:54.814Z</time>
      </trkpt>
      <trkpt lat="46.3766" lon="8.01597">
        <ele>2090</ele>
        <time>2021-07-10T12:54:55.814Z</time>
      </trkpt>
      <trkpt lat="46.37659" lon="8.01597">
        <ele>2090</ele>
        <time>2021-07-10T12:54:56.813Z</time>
      </trkpt>
      <trkpt lat="46.37659" lon="8.01597">
        <ele>2089</ele>
        <time>2021-07-10T12:54:57.814Z</time>
      </trkpt>
      <trkpt lat="46.37659" lon="8.01598">
        <ele>2088</ele>
        <time>2021-07-10T12:54:58.813Z</time>
      </trkpt>
      <trkpt lat="46.37659" lon="8.01598">
        <ele>2088</ele>
        <time>2021-07-10T12:54:59.814Z</time>
      </trkpt>
      <trkpt lat="46.37658" lon="8.01594">
        <ele>2089</ele>
        <time>2021-07-10T12:55:00.814Z</time>
      </trkpt>
      <trkpt lat="46.37658" lon="8.01594">
        <ele>2089</ele>
        <time>2021-07-10T12:55:01.814Z</time>
      </trkpt>
      <trkpt lat="46.37659" lon="8.01594">
        <ele>2090</ele>
        <time>2021-07-10T12:55:02.814Z</time>
      </trkpt>
      <trkpt lat="46.37659" lon="8.01596">
        <ele>2090</ele>
        <time>2021-07-10T12:55:03.814Z</time>
      </trkpt>
      <trkpt lat="46.37659" lon="8.01597">
        <ele>2089</ele>
        <time>2021-07-10T12:55:04.813Z</time>
      </trkpt>
      <trkpt lat="46.37661" lon="8.01599">
        <ele>2089</ele>
        <time>2021-07-10T12:55:05.814Z</time>
      </trkpt>
      <trkpt lat="46.37657" lon="8.01588">
        <ele>2088</ele>
        <time>2021-07-10T12:55:06.814Z</time>
      </trkpt>
      <trkpt lat="46.37657" lon="8.01588">
        <ele>2088</ele>
        <time>2021-07-10T12:55:07.814Z</time>
      </trkpt>
      <trkpt lat="46.37657" lon="8.01587">
        <ele>2088</ele>
        <time>2021-07-10T12:55:08.813Z</time>
      </trkpt>
      <trkpt lat="46.37657" lon="8.01586">
        <ele>2088</ele>
        <time>2021-07-10T12:55:09.814Z</time>
      </trkpt>
      <trkpt lat="46.3766" lon="8.01585">
        <ele>2089</ele>
        <time>2021-07-10T12:55:10.814Z</time>
      </trkpt>
      <trkpt lat="46.37659" lon="8.01584">
        <ele>2089</ele>
        <time>2021-07-10T12:55:11.813Z</time>
      </trkpt>
      <trkpt lat="46.37658" lon="8.01583">
        <ele>2089</ele>
        <time>2021-07-10T12:55:12.813Z</time>
      </trkpt>
      <trkpt lat="46.37658" lon="8.01584">
        <ele>2088</ele>
        <time>2021-07-10T12:55:13.814Z</time>
      </trkpt>
      <trkpt lat="46.37659" lon="8.01585">
        <ele>2088</ele>
        <time>2021-07-10T12:55:14.814Z</time>
      </trkpt>
      <trkpt lat="46.37659" lon="8.01586">
        <ele>2088</ele>
        <time>2021-07-10T12:55:15.814Z</time>
      </trkpt>
      <trkpt lat="46.37659" lon="8.01586">
        <ele>2088</ele>
        <time>2021-07-10T12:55:16.813Z</time>
      </trkpt>
      <trkpt lat="46.37658" lon="8.01586">
        <ele>2088</ele>
        <time>2021-07-10T12:55:17.813Z</time>
      </trkpt>
      <trkpt lat="46.37657" lon="8.01587">
        <ele>2087</ele>
        <time>2021-07-10T12:55:18.813Z</time>
      </trkpt>
      <trkpt lat="46.37657" lon="8.01588">
        <ele>2087</ele>
        <time>2021-07-10T12:55:19.813Z</time>
      </trkpt>
      <trkpt lat="46.37655" lon="8.01589">
        <ele>2087</ele>
        <time>2021-07-10T12:55:20.814Z</time>
      </trkpt>
      <trkpt lat="46.37655" lon="8.01591">
        <ele>2088</ele>
        <time>2021-07-10T12:55:21.814Z</time>
      </trkpt>
      <trkpt lat="46.37654" lon="8.01592">
        <ele>2088</ele>
        <time>2021-07-10T12:55:22.814Z</time>
      </trkpt>
      <trkpt lat="46.37653" lon="8.01595">
        <ele>2088</ele>
        <time>2021-07-10T12:55:23.814Z</time>
      </trkpt>
      <trkpt lat="46.37652" lon="8.01596">
        <ele>2089</ele>
        <time>2021-07-10T12:55:24.814Z</time>
      </trkpt>
      <trkpt lat="46.37652" lon="8.01597">
        <ele>2089</ele>
        <time>2021-07-10T12:55:25.813Z</time>
      </trkpt>
      <trkpt lat="46.37652" lon="8.01598">
        <ele>2089</ele>
        <time>2021-07-10T12:55:26.814Z</time>
      </trkpt>
      <trkpt lat="46.37652" lon="8.01598">
        <ele>2089</ele>
        <time>2021-07-10T12:55:27.813Z</time>
      </trkpt>
      <trkpt lat="46.37652" lon="8.01599">
        <ele>2089</ele>
        <time>2021-07-10T12:55:28.814Z</time>
      </trkpt>
      <trkpt lat="46.37652" lon="8.01598">
        <ele>2091</ele>
        <time>2021-07-10T12:55:29.813Z</time>
      </trkpt>
      <trkpt lat="46.37652" lon="8.01598">
        <ele>2090</ele>
        <time>2021-07-10T12:55:30.813Z</time>
      </trkpt>
      <trkpt lat="46.37652" lon="8.01598">
        <ele>2090</ele>
        <time>2021-07-10T12:55:31.814Z</time>
      </trkpt>
      <trkpt lat="46.37653" lon="8.01596">
        <ele>2090</ele>
        <time>2021-07-10T12:55:32.813Z</time>
      </trkpt>
      <trkpt lat="46.37651" lon="8.01595">
        <ele>2089</ele>
        <time>2021-07-10T12:55:33.814Z</time>
      </trkpt>
      <trkpt lat="46.37651" lon="8.01594">
        <ele>2089</ele>
        <time>2021-07-10T12:55:34.813Z</time>
      </trkpt>
      <trkpt lat="46.37652" lon="8.01594">
        <ele>2089</ele>
        <time>2021-07-10T12:55:35.813Z</time>
      </trkpt>
      <trkpt lat="46.37655" lon="8.01592">
        <ele>2094</ele>
        <time>2021-07-10T12:55:36.814Z</time>
      </trkpt>
      <trkpt lat="46.37655" lon="8.01592">
        <ele>2094</ele>
        <time>2021-07-10T12:55:37.813Z</time>
      </trkpt>
      <trkpt lat="46.37655" lon="8.01592">
        <ele>2095</ele>
        <time>2021-07-10T12:55:38.813Z</time>
      </trkpt>
      <trkpt lat="46.37656" lon="8.01592">
        <ele>2095</ele>
        <time>2021-07-10T12:55:39.814Z</time>
      </trkpt>
      <trkpt lat="46.37657" lon="8.01591">
        <ele>2095</ele>
        <time>2021-07-10T12:55:40.814Z</time>
      </trkpt>
      <trkpt lat="46.37657" lon="8.0159">
        <ele>2095</ele>
        <time>2021-07-10T12:55:41.814Z</time>
      </trkpt>
      <trkpt lat="46.37658" lon="8.0159">
        <ele>2095</ele>
        <time>2021-07-10T12:55:42.813Z</time>
      </trkpt>
      <trkpt lat="46.37659" lon="8.0159">
        <ele>2095</ele>
        <time>2021-07-10T12:55:43.813Z</time>
      </trkpt>
      <trkpt lat="46.37659" lon="8.01589">
        <ele>2094</ele>
        <time>2021-07-10T12:55:44.814Z</time>
      </trkpt>
      <trkpt lat="46.37659" lon="8.01589">
        <ele>2094</ele>
        <time>2021-07-10T12:55:45.814Z</time>
      </trkpt>
      <trkpt lat="46.3766" lon="8.01589">
        <ele>2094</ele>
        <time>2021-07-10T12:55:46.814Z</time>
      </trkpt>
      <trkpt lat="46.3766" lon="8.01589">
        <ele>2094</ele>
        <time>2021-07-10T12:55:47.814Z</time>
      </trkpt>
      <trkpt lat="46.3766" lon="8.01588">
        <ele>2094</ele>
        <time>2021-07-10T12:55:48.814Z</time>
      </trkpt>
      <trkpt lat="46.3766" lon="8.01587">
        <ele>2094</ele>
        <time>2021-07-10T12:55:49.813Z</time>
      </trkpt>
      <trkpt lat="46.3766" lon="8.01587">
        <ele>2094</ele>
        <time>2021-07-10T12:55:50.814Z</time>
      </trkpt>
      <trkpt lat="46.3766" lon="8.01587">
        <ele>2094</ele>
        <time>2021-07-10T12:55:51.814Z</time>
      </trkpt>
      <trkpt lat="46.3766" lon="8.01587">
        <ele>2094</ele>
        <time>2021-07-10T12:55:52.813Z</time>
      </trkpt>
      <trkpt lat="46.3766" lon="8.01587">
        <ele>2094</ele>
        <time>2021-07-10T12:55:53.813Z</time>
      </trkpt>
      <trkpt lat="46.37661" lon="8.01588">
        <ele>2094</ele>
        <time>2021-07-10T12:55:54.813Z</time>
      </trkpt>
      <trkpt lat="46.37661" lon="8.01587">
        <ele>2094</ele>
        <time>2021-07-10T12:55:55.813Z</time>
      </trkpt>
      <trkpt lat="46.37661" lon="8.01588">
        <ele>2094</ele>
        <time>2021-07-10T12:55:56.813Z</time>
      </trkpt>
      <trkpt lat="46.37661" lon="8.01588">
        <ele>2094</ele>
        <time>2021-07-10T12:55:57.813Z</time>
      </trkpt>
      <trkpt lat="46.3766" lon="8.01588">
        <ele>2093</ele>
        <time>2021-07-10T12:55:58.813Z</time>
      </trkpt>
      <trkpt lat="46.37659" lon="8.01588">
        <ele>2093</ele>
        <time>2021-07-10T12:55:59.814Z</time>
      </trkpt>
      <trkpt lat="46.37659" lon="8.01589">
        <ele>2093</ele>
        <time>2021-07-10T12:56:00.814Z</time>
      </trkpt>
      <trkpt lat="46.37671" lon="8.01572">
        <ele>2093</ele>
        <time>2021-07-10T12:58:28.814Z</time>
      </trkpt>
      <trkpt lat="46.3767" lon="8.01566">
        <ele>2092</ele>
        <time>2021-07-10T12:58:29.814Z</time>
      </trkpt>
      <trkpt lat="46.37668" lon="8.01564">
        <ele>2092</ele>
        <time>2021-07-10T12:58:30.814Z</time>
      </trkpt>
      <trkpt lat="46.37666" lon="8.01566">
        <ele>2092</ele>
        <time>2021-07-10T12:58:31.814Z</time>
      </trkpt>
      <trkpt lat="46.37664" lon="8.0157">
        <ele>2092</ele>
        <time>2021-07-10T12:58:32.813Z</time>
      </trkpt>
      <trkpt lat="46.37665" lon="8.01572">
        <ele>2092</ele>
        <time>2021-07-10T12:58:33.814Z</time>
      </trkpt>
      <trkpt lat="46.37664" lon="8.01576">
        <ele>2093</ele>
        <time>2021-07-10T12:58:34.814Z</time>
      </trkpt>
      <trkpt lat="46.37663" lon="8.01578">
        <ele>2093</ele>
        <time>2021-07-10T12:58:35.813Z</time>
      </trkpt>
      <trkpt lat="46.37662" lon="8.0158">
        <ele>2093</ele>
        <time>2021-07-10T12:58:36.814Z</time>
      </trkpt>
      <trkpt lat="46.37661" lon="8.0158">
        <ele>2092</ele>
        <time>2021-07-10T12:58:37.814Z</time>
      </trkpt>
      <trkpt lat="46.37661" lon="8.01581">
        <ele>2092</ele>
        <time>2021-07-10T12:58:38.814Z</time>
      </trkpt>
      <trkpt lat="46.37661" lon="8.01581">
        <ele>2092</ele>
        <time>2021-07-10T12:58:39.814Z</time>
      </trkpt>
      <trkpt lat="46.37659" lon="8.01581">
        <ele>2092</ele>
        <time>2021-07-10T12:58:40.814Z</time>
      </trkpt>
      <trkpt lat="46.37659" lon="8.01582">
        <ele>2092</ele>
        <time>2021-07-10T12:58:41.813Z</time>
      </trkpt>
      <trkpt lat="46.37658" lon="8.01584">
        <ele>2092</ele>
        <time>2021-07-10T12:58:42.814Z</time>
      </trkpt>
      <trkpt lat="46.37657" lon="8.01585">
        <ele>2092</ele>
        <time>2021-07-10T12:58:43.813Z</time>
      </trkpt>
      <trkpt lat="46.37657" lon="8.01587">
        <ele>2092</ele>
        <time>2021-07-10T12:58:44.814Z</time>
      </trkpt>
      <trkpt lat="46.37657" lon="8.01587">
        <ele>2092</ele>
        <time>2021-07-10T12:58:45.814Z</time>
      </trkpt>
      <trkpt lat="46.37656" lon="8.01586">
        <ele>2092</ele>
        <time>2021-07-10T12:58:46.814Z</time>
      </trkpt>
      <trkpt lat="46.37656" lon="8.01585">
        <ele>2092</ele>
        <time>2021-07-10T12:58:47.813Z</time>
      </trkpt>
      <trkpt lat="46.37656" lon="8.01585">
        <ele>2092</ele>
        <time>2021-07-10T12:58:48.813Z</time>
      </trkpt>
      <trkpt lat="46.37656" lon="8.01586">
        <ele>2092</ele>
        <time>2021-07-10T12:58:49.813Z</time>
      </trkpt>
      <trkpt lat="46.37655" lon="8.01585">
        <ele>2093</ele>
        <time>2021-07-10T12:58:50.813Z</time>
      </trkpt>
      <trkpt lat="46.37654" lon="8.01586">
        <ele>2093</ele>
        <time>2021-07-10T12:58:51.814Z</time>
      </trkpt>
      <trkpt lat="46.37654" lon="8.01588">
        <ele>2095</ele>
        <time>2021-07-10T12:58:52.814Z</time>
      </trkpt>
      <trkpt lat="46.37655" lon="8.0159">
        <ele>2095</ele>
        <time>2021-07-10T12:58:53.815Z</time>
      </trkpt>
      <trkpt lat="46.37654" lon="8.01589">
        <ele>2096</ele>
        <time>2021-07-10T12:58:54.814Z</time>
      </trkpt>
      <trkpt lat="46.37653" lon="8.01588">
        <ele>2096</ele>
        <time>2021-07-10T12:58:55.815Z</time>
      </trkpt>
      <trkpt lat="46.37653" lon="8.0159">
        <ele>2097</ele>
        <time>2021-07-10T12:58:56.815Z</time>
      </trkpt>
      <trkpt lat="46.37653" lon="8.0159">
        <ele>2097</ele>
        <time>2021-07-10T12:58:57.814Z</time>
      </trkpt>
      <trkpt lat="46.37653" lon="8.0159">
        <ele>2096</ele>
        <time>2021-07-10T12:58:58.814Z</time>
      </trkpt>
      <trkpt lat="46.37654" lon="8.0159">
        <ele>2096</ele>
        <time>2021-07-10T12:58:59.814Z</time>
      </trkpt>
      <trkpt lat="46.37654" lon="8.01591">
        <ele>2095</ele>
        <time>2021-07-10T12:59:00.815Z</time>
      </trkpt>
      <trkpt lat="46.37657" lon="8.01597">
        <ele>2093</ele>
        <time>2021-07-10T12:59:01.817Z</time>
      </trkpt>
      <trkpt lat="46.37657" lon="8.01596">
        <ele>2093</ele>
        <time>2021-07-10T12:59:02.816Z</time>
      </trkpt>
      <trkpt lat="46.37657" lon="8.01597">
        <ele>2093</ele>
        <time>2021-07-10T12:59:03.816Z</time>
      </trkpt>
      <trkpt lat="46.3766" lon="8.016">
        <ele>2089</ele>
        <time>2021-07-10T12:59:04.817Z</time>
      </trkpt>
      <trkpt lat="46.37659" lon="8.01601">
        <ele>2086</ele>
        <time>2021-07-10T12:59:05.818Z</time>
      </trkpt>
      <trkpt lat="46.3766" lon="8.01598">
        <ele>2084</ele>
        <time>2021-07-10T12:59:06.818Z</time>
      </trkpt>
      <trkpt lat="46.3766" lon="8.01598">
        <ele>2085</ele>
        <time>2021-07-10T12:59:07.819Z</time>
      </trkpt>
      <trkpt lat="46.37661" lon="8.01598">
        <ele>2085</ele>
        <time>2021-07-10T12:59:08.818Z</time>
      </trkpt>
      <trkpt lat="46.3766" lon="8.01598">
        <ele>2085</ele>
        <time>2021-07-10T12:59:09.818Z</time>
      </trkpt>
      <trkpt lat="46.3766" lon="8.01598">
        <ele>2085</ele>
        <time>2021-07-10T12:59:10.819Z</time>
      </trkpt>
      <trkpt lat="46.37659" lon="8.01597">
        <ele>2086</ele>
        <time>2021-07-10T12:59:11.819Z</time>
      </trkpt>
      <trkpt lat="46.37658" lon="8.01596">
        <ele>2086</ele>
        <time>2021-07-10T12:59:12.819Z</time>
      </trkpt>
      <trkpt lat="46.37658" lon="8.01596">
        <ele>2086</ele>
        <time>2021-07-10T12:59:13.819Z</time>
      </trkpt>
      <trkpt lat="46.37658" lon="8.01596">
        <ele>2087</ele>
        <time>2021-07-10T12:59:14.819Z</time>
      </trkpt>
      <trkpt lat="46.37658" lon="8.01597">
        <ele>2090</ele>
        <time>2021-07-10T12:59:15.819Z</time>
      </trkpt>
      <trkpt lat="46.37658" lon="8.01598">
        <ele>2090</ele>
        <time>2021-07-10T12:59:16.819Z</time>
      </trkpt>
      <trkpt lat="46.37659" lon="8.01599">
        <ele>2090</ele>
        <time>2021-07-10T12:59:17.818Z</time>
      </trkpt>
      <trkpt lat="46.37658" lon="8.01599">
        <ele>2090</ele>
        <time>2021-07-10T12:59:18.819Z</time>
      </trkpt>
      <trkpt lat="46.37658" lon="8.01598">
        <ele>2091</ele>
        <time>2021-07-10T12:59:19.819Z</time>
      </trkpt>
      <trkpt lat="46.37658" lon="8.01598">
        <ele>2091</ele>
        <time>2021-07-10T12:59:20.819Z</time>
      </trkpt>
      <trkpt lat="46.37658" lon="8.01599">
        <ele>2091</ele>
        <time>2021-07-10T12:59:21.818Z</time>
      </trkpt>
      <trkpt lat="46.37658" lon="8.01598">
        <ele>2093</ele>
        <time>2021-07-10T12:59:22.819Z</time>
      </trkpt>
      <trkpt lat="46.37658" lon="8.01599">
        <ele>2093</ele>
        <time>2021-07-10T12:59:23.818Z</time>
      </trkpt>
      <trkpt lat="46.37657" lon="8.01598">
        <ele>2093</ele>
        <time>2021-07-10T12:59:24.818Z</time>
      </trkpt>
      <trkpt lat="46.37657" lon="8.01597">
        <ele>2093</ele>
        <time>2021-07-10T12:59:25.819Z</time>
      </trkpt>
      <trkpt lat="46.37657" lon="8.01595">
        <ele>2093</ele>
        <time>2021-07-10T12:59:26.819Z</time>
      </trkpt>
      <trkpt lat="46.37656" lon="8.01595">
        <ele>2093</ele>
        <time>2021-07-10T12:59:27.819Z</time>
      </trkpt>
      <trkpt lat="46.37656" lon="8.01595">
        <ele>2093</ele>
        <time>2021-07-10T12:59:28.819Z</time>
      </trkpt>
      <trkpt lat="46.37655" lon="8.01595">
        <ele>2093</ele>
        <time>2021-07-10T12:59:29.818Z</time>
      </trkpt>
      <trkpt lat="46.37657" lon="8.01595">
        <ele>2092</ele>
        <time>2021-07-10T12:59:30.818Z</time>
      </trkpt>
      <trkpt lat="46.37658" lon="8.01594">
        <ele>2091</ele>
        <time>2021-07-10T12:59:31.818Z</time>
      </trkpt>
      <trkpt lat="46.37657" lon="8.01594">
        <ele>2091</ele>
        <time>2021-07-10T12:59:32.818Z</time>
      </trkpt>
      <trkpt lat="46.37656" lon="8.01595">
        <ele>2091</ele>
        <time>2021-07-10T12:59:33.818Z</time>
      </trkpt>
      <trkpt lat="46.37655" lon="8.01595">
        <ele>2091</ele>
        <time>2021-07-10T12:59:34.818Z</time>
      </trkpt>
      <trkpt lat="46.37654" lon="8.01595">
        <ele>2091</ele>
        <time>2021-07-10T12:59:35.819Z</time>
      </trkpt>
      <trkpt lat="46.37654" lon="8.01595">
        <ele>2091</ele>
        <time>2021-07-10T12:59:36.819Z</time>
      </trkpt>
      <trkpt lat="46.37653" lon="8.01596">
        <ele>2091</ele>
        <time>2021-07-10T12:59:37.819Z</time>
      </trkpt>
      <trkpt lat="46.37653" lon="8.01597">
        <ele>2091</ele>
        <time>2021-07-10T12:59:38.819Z</time>
      </trkpt>
      <trkpt lat="46.37653" lon="8.01598">
        <ele>2091</ele>
        <time>2021-07-10T12:59:39.818Z</time>
      </trkpt>
      <trkpt lat="46.37653" lon="8.01598">
        <ele>2091</ele>
        <time>2021-07-10T12:59:40.819Z</time>
      </trkpt>
      <trkpt lat="46.37652" lon="8.01598">
        <ele>2091</ele>
        <time>2021-07-10T12:59:41.818Z</time>
      </trkpt>
      <trkpt lat="46.37652" lon="8.01598">
        <ele>2091</ele>
        <time>2021-07-10T12:59:42.818Z</time>
      </trkpt>
      <trkpt lat="46.37652" lon="8.01598">
        <ele>2091</ele>
        <time>2021-07-10T12:59:43.818Z</time>
      </trkpt>
      <trkpt lat="46.37651" lon="8.01598">
        <ele>2091</ele>
        <time>2021-07-10T12:59:44.818Z</time>
      </trkpt>
      <trkpt lat="46.37651" lon="8.01598">
        <ele>2090</ele>
        <time>2021-07-10T12:59:45.818Z</time>
      </trkpt>
      <trkpt lat="46.37651" lon="8.01598">
        <ele>2090</ele>
        <time>2021-07-10T12:59:46.818Z</time>
      </trkpt>
      <trkpt lat="46.3765" lon="8.016">
        <ele>2090</ele>
        <time>2021-07-10T12:59:47.819Z</time>
      </trkpt>
      <trkpt lat="46.3765" lon="8.016">
        <ele>2090</ele>
        <time>2021-07-10T12:59:48.818Z</time>
      </trkpt>
      <trkpt lat="46.37649" lon="8.016">
        <ele>2089</ele>
        <time>2021-07-10T12:59:49.818Z</time>
      </trkpt>
      <trkpt lat="46.37648" lon="8.016">
        <ele>2089</ele>
        <time>2021-07-10T12:59:50.819Z</time>
      </trkpt>
      <trkpt lat="46.37647" lon="8.016">
        <ele>2089</ele>
        <time>2021-07-10T12:59:51.819Z</time>
      </trkpt>
      <trkpt lat="46.37647" lon="8.01601">
        <ele>2089</ele>
        <time>2021-07-10T12:59:52.819Z</time>
      </trkpt>
      <trkpt lat="46.37646" lon="8.01602">
        <ele>2088</ele>
        <time>2021-07-10T12:59:53.818Z</time>
      </trkpt>
      <trkpt lat="46.37646" lon="8.01603">
        <ele>2088</ele>
        <time>2021-07-10T12:59:54.818Z</time>
      </trkpt>
      <trkpt lat="46.37645" lon="8.01604">
        <ele>2087</ele>
        <time>2021-07-10T12:59:55.819Z</time>
      </trkpt>
      <trkpt lat="46.37645" lon="8.01605">
        <ele>2088</ele>
        <time>2021-07-10T13:00:12.859Z</time>
      </trkpt>
      <trkpt lat="46.37644" lon="8.01605">
        <ele>2088</ele>
        <time>2021-07-10T13:00:13.860Z</time>
      </trkpt>
      <trkpt lat="46.37644" lon="8.01605">
        <ele>2088</ele>
        <time>2021-07-10T13:00:14.860Z</time>
      </trkpt>
      <trkpt lat="46.37643" lon="8.01606">
        <ele>2088</ele>
        <time>2021-07-10T13:00:15.859Z</time>
      </trkpt>
      <trkpt lat="46.37643" lon="8.01606">
        <ele>2089</ele>
        <time>2021-07-10T13:00:16.860Z</time>
      </trkpt>
      <trkpt lat="46.37643" lon="8.01606">
        <ele>2089</ele>
        <time>2021-07-10T13:00:17.860Z</time>
      </trkpt>
      <trkpt lat="46.37642" lon="8.01606">
        <ele>2089</ele>
        <time>2021-07-10T13:00:21.970Z</time>
      </trkpt>
      <trkpt lat="46.37641" lon="8.01607">
        <ele>2089</ele>
        <time>2021-07-10T13:00:22.971Z</time>
      </trkpt>
      <trkpt lat="46.37641" lon="8.01607">
        <ele>2089</ele>
        <time>2021-07-10T13:00:23.971Z</time>
      </trkpt>
      <trkpt lat="46.37641" lon="8.01608">
        <ele>2089</ele>
        <time>2021-07-10T13:00:24.970Z</time>
      </trkpt>
      <trkpt lat="46.3764" lon="8.01609">
        <ele>2089</ele>
        <time>2021-07-10T13:00:25.970Z</time>
      </trkpt>
      <trkpt lat="46.3764" lon="8.0161">
        <ele>2089</ele>
        <time>2021-07-10T13:00:26.971Z</time>
      </trkpt>
      <trkpt lat="46.37641" lon="8.01611">
        <ele>2088</ele>
        <time>2021-07-10T13:00:27.971Z</time>
      </trkpt>
      <trkpt lat="46.37641" lon="8.01611">
        <ele>2088</ele>
        <time>2021-07-10T13:00:28.971Z</time>
      </trkpt>
      <trkpt lat="46.37641" lon="8.0161">
        <ele>2088</ele>
        <time>2021-07-10T13:00:29.971Z</time>
      </trkpt>
      <trkpt lat="46.37639" lon="8.01614">
        <ele>2089</ele>
        <time>2021-07-10T13:00:30.971Z</time>
      </trkpt>
      <trkpt lat="46.37639" lon="8.01615">
        <ele>2089</ele>
        <time>2021-07-10T13:00:31.971Z</time>
      </trkpt>
      <trkpt lat="46.37639" lon="8.01616">
        <ele>2089</ele>
        <time>2021-07-10T13:00:32.971Z</time>
      </trkpt>
      <trkpt lat="46.37639" lon="8.01617">
        <ele>2089</ele>
        <time>2021-07-10T13:00:33.971Z</time>
      </trkpt>
      <trkpt lat="46.37638" lon="8.01618">
        <ele>2089</ele>
        <time>2021-07-10T13:00:34.972Z</time>
      </trkpt>
      <trkpt lat="46.37639" lon="8.01619">
        <ele>2088</ele>
        <time>2021-07-10T13:00:35.972Z</time>
      </trkpt>
      <trkpt lat="46.37639" lon="8.0162">
        <ele>2088</ele>
        <time>2021-07-10T13:00:36.972Z</time>
      </trkpt>
      <trkpt lat="46.37639" lon="8.01621">
        <ele>2088</ele>
        <time>2021-07-10T13:00:37.972Z</time>
      </trkpt>
      <trkpt lat="46.37639" lon="8.01622">
        <ele>2088</ele>
        <time>2021-07-10T13:00:38.971Z</time>
      </trkpt>
      <trkpt lat="46.37639" lon="8.01623">
        <ele>2087</ele>
        <time>2021-07-10T13:00:39.971Z</time>
      </trkpt>
      <trkpt lat="46.37639" lon="8.01625">
        <ele>2087</ele>
        <time>2021-07-10T13:00:40.971Z</time>
      </trkpt>
      <trkpt lat="46.37639" lon="8.01626">
        <ele>2088</ele>
        <time>2021-07-10T13:00:41.971Z</time>
      </trkpt>
      <trkpt lat="46.37639" lon="8.01628">
        <ele>2087</ele>
        <time>2021-07-10T13:00:42.971Z</time>
      </trkpt>
      <trkpt lat="46.37639" lon="8.0163">
        <ele>2087</ele>
        <time>2021-07-10T13:00:43.972Z</time>
      </trkpt>
      <trkpt lat="46.3764" lon="8.01632">
        <ele>2086</ele>
        <time>2021-07-10T13:00:50.093Z</time>
      </trkpt>
      <trkpt lat="46.3764" lon="8.01633">
        <ele>2085</ele>
        <time>2021-07-10T13:00:51.094Z</time>
      </trkpt>
      <trkpt lat="46.3764" lon="8.01636">
        <ele>2085</ele>
        <time>2021-07-10T13:00:52.093Z</time>
      </trkpt>
      <trkpt lat="46.3764" lon="8.01638">
        <ele>2085</ele>
        <time>2021-07-10T13:00:53.094Z</time>
      </trkpt>
      <trkpt lat="46.37639" lon="8.0164">
        <ele>2085</ele>
        <time>2021-07-10T13:01:17.094Z</time>
      </trkpt>
      <trkpt lat="46.37641" lon="8.0164">
        <ele>2085</ele>
        <time>2021-07-10T13:01:18.094Z</time>
      </trkpt>
      <trkpt lat="46.37641" lon="8.0164">
        <ele>2085</ele>
        <time>2021-07-10T13:01:19.094Z</time>
      </trkpt>
      <trkpt lat="46.37642" lon="8.0164">
        <ele>2086</ele>
        <time>2021-07-10T13:01:20.093Z</time>
      </trkpt>
      <trkpt lat="46.37643" lon="8.0164">
        <ele>2086</ele>
        <time>2021-07-10T13:01:21.093Z</time>
      </trkpt>
      <trkpt lat="46.37644" lon="8.0164">
        <ele>2085</ele>
        <time>2021-07-10T13:01:22.094Z</time>
      </trkpt>
      <trkpt lat="46.37645" lon="8.01639">
        <ele>2085</ele>
        <time>2021-07-10T13:01:23.094Z</time>
      </trkpt>
      <trkpt lat="46.37646" lon="8.01638">
        <ele>2084</ele>
        <time>2021-07-10T13:01:24.093Z</time>
      </trkpt>
      <trkpt lat="46.37647" lon="8.01638">
        <ele>2084</ele>
        <time>2021-07-10T13:01:25.095Z</time>
      </trkpt>
      <trkpt lat="46.37647" lon="8.01639">
        <ele>2084</ele>
        <time>2021-07-10T13:01:26.094Z</time>
      </trkpt>
      <trkpt lat="46.37647" lon="8.01639">
        <ele>2084</ele>
        <time>2021-07-10T13:01:27.094Z</time>
      </trkpt>
      <trkpt lat="46.37646" lon="8.01641">
        <ele>2084</ele>
        <time>2021-07-10T13:01:28.094Z</time>
      </trkpt>
      <trkpt lat="46.37647" lon="8.01639">
        <ele>2084</ele>
        <time>2021-07-10T13:01:29.095Z</time>
      </trkpt>
      <trkpt lat="46.37647" lon="8.01638">
        <ele>2084</ele>
        <time>2021-07-10T13:01:30.095Z</time>
      </trkpt>
      <trkpt lat="46.37647" lon="8.01638">
        <ele>2084</ele>
        <time>2021-07-10T13:01:31.094Z</time>
      </trkpt>
      <trkpt lat="46.37647" lon="8.01638">
        <ele>2084</ele>
        <time>2021-07-10T13:01:32.095Z</time>
      </trkpt>
      <trkpt lat="46.37647" lon="8.01638">
        <ele>2085</ele>
        <time>2021-07-10T13:01:33.094Z</time>
      </trkpt>
      <trkpt lat="46.37647" lon="8.01637">
        <ele>2085</ele>
        <time>2021-07-10T13:01:34.095Z</time>
      </trkpt>
      <trkpt lat="46.37648" lon="8.01635">
        <ele>2084</ele>
        <time>2021-07-10T13:01:35.095Z</time>
      </trkpt>
      <trkpt lat="46.37648" lon="8.01634">
        <ele>2083</ele>
        <time>2021-07-10T13:01:36.094Z</time>
      </trkpt>
      <trkpt lat="46.37648" lon="8.01634">
        <ele>2083</ele>
        <time>2021-07-10T13:01:37.094Z</time>
      </trkpt>
      <trkpt lat="46.37648" lon="8.01635">
        <ele>2083</ele>
        <time>2021-07-10T13:01:38.095Z</time>
      </trkpt>
      <trkpt lat="46.37648" lon="8.01635">
        <ele>2084</ele>
        <time>2021-07-10T13:01:39.095Z</time>
      </trkpt>
      <trkpt lat="46.37647" lon="8.01637">
        <ele>2084</ele>
        <time>2021-07-10T13:01:40.095Z</time>
      </trkpt>
      <trkpt lat="46.37647" lon="8.01637">
        <ele>2084</ele>
        <time>2021-07-10T13:01:41.094Z</time>
      </trkpt>
      <trkpt lat="46.37647" lon="8.01637">
        <ele>2084</ele>
        <time>2021-07-10T13:01:42.095Z</time>
      </trkpt>
      <trkpt lat="46.37647" lon="8.01637">
        <ele>2084</ele>
        <time>2021-07-10T13:01:43.095Z</time>
      </trkpt>
      <trkpt lat="46.37647" lon="8.01638">
        <ele>2083</ele>
        <time>2021-07-10T13:01:44.095Z</time>
      </trkpt>
      <trkpt lat="46.37647" lon="8.01638">
        <ele>2083</ele>
        <time>2021-07-10T13:01:45.094Z</time>
      </trkpt>
      <trkpt lat="46.37647" lon="8.01639">
        <ele>2083</ele>
        <time>2021-07-10T13:01:46.094Z</time>
      </trkpt>
      <trkpt lat="46.37646" lon="8.01641">
        <ele>2083</ele>
        <time>2021-07-10T13:01:47.095Z</time>
      </trkpt>
      <trkpt lat="46.37646" lon="8.01642">
        <ele>2084</ele>
        <time>2021-07-10T13:01:48.095Z</time>
      </trkpt>
      <trkpt lat="46.37646" lon="8.01643">
        <ele>2084</ele>
        <time>2021-07-10T13:01:49.095Z</time>
      </trkpt>
      <trkpt lat="46.37646" lon="8.01644">
        <ele>2085</ele>
        <time>2021-07-10T13:01:52.085Z</time>
      </trkpt>
      <trkpt lat="46.37645" lon="8.01646">
        <ele>2085</ele>
        <time>2021-07-10T13:01:53.084Z</time>
      </trkpt>
      <trkpt lat="46.37645" lon="8.01648">
        <ele>2085</ele>
        <time>2021-07-10T13:01:54.084Z</time>
      </trkpt>
      <trkpt lat="46.37644" lon="8.0165">
        <ele>2085</ele>
        <time>2021-07-10T13:01:55.084Z</time>
      </trkpt>
      <trkpt lat="46.37642" lon="8.01651">
        <ele>2085</ele>
        <time>2021-07-10T13:01:56.085Z</time>
      </trkpt>
      <trkpt lat="46.37642" lon="8.01652">
        <ele>2085</ele>
        <time>2021-07-10T13:01:57.084Z</time>
      </trkpt>
      <trkpt lat="46.37641" lon="8.01653">
        <ele>2085</ele>
        <time>2021-07-10T13:01:58.085Z</time>
      </trkpt>
      <trkpt lat="46.37641" lon="8.01654">
        <ele>2085</ele>
        <time>2021-07-10T13:01:59.085Z</time>
      </trkpt>
      <trkpt lat="46.3764" lon="8.01656">
        <ele>2085</ele>
        <time>2021-07-10T13:02:00.084Z</time>
      </trkpt>
      <trkpt lat="46.3764" lon="8.01658">
        <ele>2085</ele>
        <time>2021-07-10T13:02:01.085Z</time>
      </trkpt>
      <trkpt lat="46.3764" lon="8.01659">
        <ele>2085</ele>
        <time>2021-07-10T13:02:02.085Z</time>
      </trkpt>
      <trkpt lat="46.3764" lon="8.0166">
        <ele>2085</ele>
        <time>2021-07-10T13:02:03.084Z</time>
      </trkpt>
      <trkpt lat="46.37639" lon="8.0166">
        <ele>2086</ele>
        <time>2021-07-10T13:02:04.085Z</time>
      </trkpt>
      <trkpt lat="46.37639" lon="8.01661">
        <ele>2086</ele>
        <time>2021-07-10T13:02:05.084Z</time>
      </trkpt>
      <trkpt lat="46.3764" lon="8.01661">
        <ele>2086</ele>
        <time>2021-07-10T13:02:06.085Z</time>
      </trkpt>
      <trkpt lat="46.3764" lon="8.0166">
        <ele>2085</ele>
        <time>2021-07-10T13:02:07.084Z</time>
      </trkpt>
      <trkpt lat="46.37641" lon="8.01659">
        <ele>2085</ele>
        <time>2021-07-10T13:02:08.085Z</time>
      </trkpt>
      <trkpt lat="46.37641" lon="8.01656">
        <ele>2084</ele>
        <time>2021-07-10T13:02:09.085Z</time>
      </trkpt>
      <trkpt lat="46.37644" lon="8.0165">
        <ele>2082</ele>
        <time>2021-07-10T13:02:10.085Z</time>
      </trkpt>
      <trkpt lat="46.37644" lon="8.01648">
        <ele>2082</ele>
        <time>2021-07-10T13:02:11.085Z</time>
      </trkpt>
      <trkpt lat="46.37645" lon="8.01647">
        <ele>2082</ele>
        <time>2021-07-10T13:02:12.085Z</time>
      </trkpt>
      <trkpt lat="46.37645" lon="8.01645">
        <ele>2082</ele>
        <time>2021-07-10T13:02:13.084Z</time>
      </trkpt>
      <trkpt lat="46.37646" lon="8.01643">
        <ele>2082</ele>
        <time>2021-07-10T13:02:14.085Z</time>
      </trkpt>
      <trkpt lat="46.37646" lon="8.01643">
        <ele>2082</ele>
        <time>2021-07-10T13:02:15.085Z</time>
      </trkpt>
      <trkpt lat="46.37646" lon="8.01643">
        <ele>2082</ele>
        <time>2021-07-10T13:02:16.084Z</time>
      </trkpt>
      <trkpt lat="46.37645" lon="8.01645">
        <ele>2084</ele>
        <time>2021-07-10T13:02:17.086Z</time>
      </trkpt>
      <trkpt lat="46.37645" lon="8.01646">
        <ele>2084</ele>
        <time>2021-07-10T13:02:18.086Z</time>
      </trkpt>
      <trkpt lat="46.37645" lon="8.01646">
        <ele>2084</ele>
        <time>2021-07-10T13:02:19.085Z</time>
      </trkpt>
      <trkpt lat="46.37644" lon="8.01647">
        <ele>2084</ele>
        <time>2021-07-10T13:02:20.086Z</time>
      </trkpt>
      <trkpt lat="46.37644" lon="8.01649">
        <ele>2084</ele>
        <time>2021-07-10T13:02:21.085Z</time>
      </trkpt>
      <trkpt lat="46.37644" lon="8.0165">
        <ele>2084</ele>
        <time>2021-07-10T13:02:22.086Z</time>
      </trkpt>
      <trkpt lat="46.37643" lon="8.01652">
        <ele>2084</ele>
        <time>2021-07-10T13:02:23.085Z</time>
      </trkpt>
      <trkpt lat="46.37643" lon="8.01652">
        <ele>2084</ele>
        <time>2021-07-10T13:02:24.086Z</time>
      </trkpt>
      <trkpt lat="46.37643" lon="8.01651">
        <ele>2084</ele>
        <time>2021-07-10T13:02:25.086Z</time>
      </trkpt>
      <trkpt lat="46.37642" lon="8.01652">
        <ele>2084</ele>
        <time>2021-07-10T13:02:26.086Z</time>
      </trkpt>
      <trkpt lat="46.37642" lon="8.01652">
        <ele>2084</ele>
        <time>2021-07-10T13:02:27.086Z</time>
      </trkpt>
      <trkpt lat="46.37642" lon="8.01651">
        <ele>2083</ele>
        <time>2021-07-10T13:02:28.086Z</time>
      </trkpt>
      <trkpt lat="46.37642" lon="8.01652">
        <ele>2083</ele>
        <time>2021-07-10T13:02:29.085Z</time>
      </trkpt>
      <trkpt lat="46.37642" lon="8.01652">
        <ele>2083</ele>
        <time>2021-07-10T13:02:30.086Z</time>
      </trkpt>
      <trkpt lat="46.37644" lon="8.01647">
        <ele>2081</ele>
        <time>2021-07-10T13:02:31.087Z</time>
      </trkpt>
      <trkpt lat="46.37645" lon="8.01647">
        <ele>2081</ele>
        <time>2021-07-10T13:02:35.131Z</time>
      </trkpt>
      <trkpt lat="46.37645" lon="8.01648">
        <ele>2081</ele>
        <time>2021-07-10T13:02:36.130Z</time>
      </trkpt>
      <trkpt lat="46.37646" lon="8.01648">
        <ele>2081</ele>
        <time>2021-07-10T13:02:37.131Z</time>
      </trkpt>
      <trkpt lat="46.37647" lon="8.01649">
        <ele>2081</ele>
        <time>2021-07-10T13:02:38.131Z</time>
      </trkpt>
      <trkpt lat="46.37648" lon="8.0165">
        <ele>2081</ele>
        <time>2021-07-10T13:02:39.131Z</time>
      </trkpt>
      <trkpt lat="46.37648" lon="8.0165">
        <ele>2081</ele>
        <time>2021-07-10T13:02:40.130Z</time>
      </trkpt>
      <trkpt lat="46.37649" lon="8.01651">
        <ele>2082</ele>
        <time>2021-07-10T13:02:41.130Z</time>
      </trkpt>
      <trkpt lat="46.3765" lon="8.01653">
        <ele>2082</ele>
        <time>2021-07-10T13:02:42.131Z</time>
      </trkpt>
      <trkpt lat="46.37651" lon="8.01654">
        <ele>2082</ele>
        <time>2021-07-10T13:02:43.131Z</time>
      </trkpt>
      <trkpt lat="46.37651" lon="8.01656">
        <ele>2083</ele>
        <time>2021-07-10T13:02:44.130Z</time>
      </trkpt>
      <trkpt lat="46.37652" lon="8.01657">
        <ele>2083</ele>
        <time>2021-07-10T13:02:45.131Z</time>
      </trkpt>
      <trkpt lat="46.37652" lon="8.01659">
        <ele>2083</ele>
        <time>2021-07-10T13:02:46.131Z</time>
      </trkpt>
      <trkpt lat="46.37653" lon="8.01661">
        <ele>2083</ele>
        <time>2021-07-10T13:02:47.130Z</time>
      </trkpt>
      <trkpt lat="46.37653" lon="8.01663">
        <ele>2082</ele>
        <time>2021-07-10T13:02:48.130Z</time>
      </trkpt>
      <trkpt lat="46.37654" lon="8.01665">
        <ele>2082</ele>
        <time>2021-07-10T13:02:49.131Z</time>
      </trkpt>
      <trkpt lat="46.37655" lon="8.01666">
        <ele>2081</ele>
        <time>2021-07-10T13:02:50.130Z</time>
      </trkpt>
      <trkpt lat="46.37656" lon="8.01666">
        <ele>2081</ele>
        <time>2021-07-10T13:02:51.130Z</time>
      </trkpt>
      <trkpt lat="46.37657" lon="8.01667">
        <ele>2080</ele>
        <time>2021-07-10T13:02:52.131Z</time>
      </trkpt>
      <trkpt lat="46.37658" lon="8.01667">
        <ele>2080</ele>
        <time>2021-07-10T13:02:53.130Z</time>
      </trkpt>
      <trkpt lat="46.37658" lon="8.01668">
        <ele>2080</ele>
        <time>2021-07-10T13:02:54.130Z</time>
      </trkpt>
      <trkpt lat="46.37659" lon="8.01668">
        <ele>2080</ele>
        <time>2021-07-10T13:02:55.130Z</time>
      </trkpt>
      <trkpt lat="46.3766" lon="8.01669">
        <ele>2080</ele>
        <time>2021-07-10T13:02:56.131Z</time>
      </trkpt>
      <trkpt lat="46.37661" lon="8.0167">
        <ele>2080</ele>
        <time>2021-07-10T13:02:57.131Z</time>
      </trkpt>
      <trkpt lat="46.37662" lon="8.0167">
        <ele>2080</ele>
        <time>2021-07-10T13:02:58.131Z</time>
      </trkpt>
      <trkpt lat="46.37663" lon="8.01671">
        <ele>2080</ele>
        <time>2021-07-10T13:02:59.131Z</time>
      </trkpt>
      <trkpt lat="46.37664" lon="8.01671">
        <ele>2080</ele>
        <time>2021-07-10T13:03:00.131Z</time>
      </trkpt>
      <trkpt lat="46.37665" lon="8.01672">
        <ele>2080</ele>
        <time>2021-07-10T13:03:01.131Z</time>
      </trkpt>
      <trkpt lat="46.37666" lon="8.01673">
        <ele>2080</ele>
        <time>2021-07-10T13:03:02.130Z</time>
      </trkpt>
      <trkpt lat="46.37667" lon="8.01674">
        <ele>2080</ele>
        <time>2021-07-10T13:03:03.131Z</time>
      </trkpt>
      <trkpt lat="46.37668" lon="8.01675">
        <ele>2080</ele>
        <time>2021-07-10T13:03:04.131Z</time>
      </trkpt>
      <trkpt lat="46.37669" lon="8.01675">
        <ele>2079</ele>
        <time>2021-07-10T13:03:05.130Z</time>
      </trkpt>
      <trkpt lat="46.3767" lon="8.01676">
        <ele>2079</ele>
        <time>2021-07-10T13:03:06.131Z</time>
      </trkpt>
      <trkpt lat="46.37671" lon="8.01677">
        <ele>2079</ele>
        <time>2021-07-10T13:03:07.131Z</time>
      </trkpt>
      <trkpt lat="46.37672" lon="8.01678">
        <ele>2079</ele>
        <time>2021-07-10T13:03:08.130Z</time>
      </trkpt>
      <trkpt lat="46.37673" lon="8.01678">
        <ele>2079</ele>
        <time>2021-07-10T13:03:09.131Z</time>
      </trkpt>
      <trkpt lat="46.37674" lon="8.01677">
        <ele>2078</ele>
        <time>2021-07-10T13:03:10.131Z</time>
      </trkpt>
      <trkpt lat="46.37675" lon="8.01678">
        <ele>2078</ele>
        <time>2021-07-10T13:03:11.131Z</time>
      </trkpt>
      <trkpt lat="46.37676" lon="8.01678">
        <ele>2078</ele>
        <time>2021-07-10T13:03:12.131Z</time>
      </trkpt>
      <trkpt lat="46.37677" lon="8.01679">
        <ele>2078</ele>
        <time>2021-07-10T13:03:13.131Z</time>
      </trkpt>
      <trkpt lat="46.37678" lon="8.01678">
        <ele>2078</ele>
        <time>2021-07-10T13:03:16.229Z</time>
      </trkpt>
      <trkpt lat="46.37679" lon="8.01678">
        <ele>2077</ele>
        <time>2021-07-10T13:03:17.229Z</time>
      </trkpt>
      <trkpt lat="46.3768" lon="8.01679">
        <ele>2077</ele>
        <time>2021-07-10T13:03:18.229Z</time>
      </trkpt>
      <trkpt lat="46.37681" lon="8.01679">
        <ele>2077</ele>
        <time>2021-07-10T13:03:19.229Z</time>
      </trkpt>
      <trkpt lat="46.37682" lon="8.01679">
        <ele>2077</ele>
        <time>2021-07-10T13:03:20.228Z</time>
      </trkpt>
      <trkpt lat="46.37683" lon="8.01679">
        <ele>2077</ele>
        <time>2021-07-10T13:03:21.228Z</time>
      </trkpt>
      <trkpt lat="46.37683" lon="8.01678">
        <ele>2076</ele>
        <time>2021-07-10T13:03:22.229Z</time>
      </trkpt>
      <trkpt lat="46.37684" lon="8.01677">
        <ele>2076</ele>
        <time>2021-07-10T13:03:23.229Z</time>
      </trkpt>
      <trkpt lat="46.37685" lon="8.01676">
        <ele>2076</ele>
        <time>2021-07-10T13:03:24.229Z</time>
      </trkpt>
      <trkpt lat="46.37685" lon="8.01677">
        <ele>2076</ele>
        <time>2021-07-10T13:03:25.228Z</time>
      </trkpt>
      <trkpt lat="46.37686" lon="8.01677">
        <ele>2076</ele>
        <time>2021-07-10T13:03:26.229Z</time>
      </trkpt>
      <trkpt lat="46.37687" lon="8.01676">
        <ele>2076</ele>
        <time>2021-07-10T13:03:27.229Z</time>
      </trkpt>
      <trkpt lat="46.37688" lon="8.01676">
        <ele>2076</ele>
        <time>2021-07-10T13:03:28.228Z</time>
      </trkpt>
      <trkpt lat="46.37689" lon="8.01676">
        <ele>2075</ele>
        <time>2021-07-10T13:03:29.229Z</time>
      </trkpt>
      <trkpt lat="46.37691" lon="8.01674">
        <ele>2075</ele>
        <time>2021-07-10T13:03:30.229Z</time>
      </trkpt>
      <trkpt lat="46.37693" lon="8.01675">
        <ele>2074</ele>
        <time>2021-07-10T13:03:31.229Z</time>
      </trkpt>
      <trkpt lat="46.37694" lon="8.01675">
        <ele>2074</ele>
        <time>2021-07-10T13:03:32.228Z</time>
      </trkpt>
      <trkpt lat="46.37695" lon="8.01675">
        <ele>2074</ele>
        <time>2021-07-10T13:03:33.228Z</time>
      </trkpt>
      <trkpt lat="46.37696" lon="8.01676">
        <ele>2075</ele>
        <time>2021-07-10T13:03:34.229Z</time>
      </trkpt>
      <trkpt lat="46.37697" lon="8.01677">
        <ele>2075</ele>
        <time>2021-07-10T13:03:35.228Z</time>
      </trkpt>
      <trkpt lat="46.37697" lon="8.01678">
        <ele>2075</ele>
        <time>2021-07-10T13:03:36.228Z</time>
      </trkpt>
      <trkpt lat="46.37698" lon="8.01679">
        <ele>2076</ele>
        <time>2021-07-10T13:03:37.228Z</time>
      </trkpt>
      <trkpt lat="46.37699" lon="8.0168">
        <ele>2076</ele>
        <time>2021-07-10T13:03:38.229Z</time>
      </trkpt>
      <trkpt lat="46.377" lon="8.01681">
        <ele>2077</ele>
        <time>2021-07-10T13:03:39.228Z</time>
      </trkpt>
      <trkpt lat="46.37702" lon="8.01682">
        <ele>2077</ele>
        <time>2021-07-10T13:03:40.229Z</time>
      </trkpt>
      <trkpt lat="46.37703" lon="8.01682">
        <ele>2077</ele>
        <time>2021-07-10T13:03:41.229Z</time>
      </trkpt>
      <trkpt lat="46.37704" lon="8.01683">
        <ele>2078</ele>
        <time>2021-07-10T13:03:42.229Z</time>
      </trkpt>
      <trkpt lat="46.37704" lon="8.01683">
        <ele>2077</ele>
        <time>2021-07-10T13:03:43.229Z</time>
      </trkpt>
      <trkpt lat="46.37705" lon="8.01684">
        <ele>2077</ele>
        <time>2021-07-10T13:03:44.229Z</time>
      </trkpt>
      <trkpt lat="46.37705" lon="8.01685">
        <ele>2077</ele>
        <time>2021-07-10T13:03:45.229Z</time>
      </trkpt>
      <trkpt lat="46.37706" lon="8.01687">
        <ele>2077</ele>
        <time>2021-07-10T13:03:46.228Z</time>
      </trkpt>
      <trkpt lat="46.37706" lon="8.01687">
        <ele>2076</ele>
        <time>2021-07-10T13:03:47.229Z</time>
      </trkpt>
      <trkpt lat="46.37706" lon="8.01688">
        <ele>2076</ele>
        <time>2021-07-10T13:03:48.228Z</time>
      </trkpt>
      <trkpt lat="46.37707" lon="8.01689">
        <ele>2076</ele>
        <time>2021-07-10T13:03:49.229Z</time>
      </trkpt>
      <trkpt lat="46.37709" lon="8.01689">
        <ele>2076</ele>
        <time>2021-07-10T13:03:50.228Z</time>
      </trkpt>
      <trkpt lat="46.3771" lon="8.01689">
        <ele>2076</ele>
        <time>2021-07-10T13:03:51.229Z</time>
      </trkpt>
      <trkpt lat="46.37712" lon="8.0169">
        <ele>2076</ele>
        <time>2021-07-10T13:03:52.229Z</time>
      </trkpt>
      <trkpt lat="46.37713" lon="8.0169">
        <ele>2075</ele>
        <time>2021-07-10T13:03:53.229Z</time>
      </trkpt>
      <trkpt lat="46.37714" lon="8.01691">
        <ele>2075</ele>
        <time>2021-07-10T13:03:54.229Z</time>
      </trkpt>
      <trkpt lat="46.37714" lon="8.01692">
        <ele>2075</ele>
        <time>2021-07-10T13:03:55.229Z</time>
      </trkpt>
      <trkpt lat="46.37715" lon="8.01693">
        <ele>2075</ele>
        <time>2021-07-10T13:03:56.229Z</time>
      </trkpt>
      <trkpt lat="46.37716" lon="8.01694">
        <ele>2075</ele>
        <time>2021-07-10T13:03:57.229Z</time>
      </trkpt>
      <trkpt lat="46.37717" lon="8.01694">
        <ele>2075</ele>
        <time>2021-07-10T13:03:58.229Z</time>
      </trkpt>
      <trkpt lat="46.37718" lon="8.01694">
        <ele>2075</ele>
        <time>2021-07-10T13:03:59.228Z</time>
      </trkpt>
      <trkpt lat="46.37719" lon="8.01695">
        <ele>2075</ele>
        <time>2021-07-10T13:04:00.228Z</time>
      </trkpt>
      <trkpt lat="46.3772" lon="8.01695">
        <ele>2075</ele>
        <time>2021-07-10T13:04:01.229Z</time>
      </trkpt>
      <trkpt lat="46.37721" lon="8.01695">
        <ele>2075</ele>
        <time>2021-07-10T13:04:02.229Z</time>
      </trkpt>
      <trkpt lat="46.37722" lon="8.01696">
        <ele>2075</ele>
        <time>2021-07-10T13:04:03.229Z</time>
      </trkpt>
      <trkpt lat="46.37723" lon="8.01697">
        <ele>2075</ele>
        <time>2021-07-10T13:04:04.229Z</time>
      </trkpt>
      <trkpt lat="46.37724" lon="8.01698">
        <ele>2075</ele>
        <time>2021-07-10T13:04:05.229Z</time>
      </trkpt>
      <trkpt lat="46.37725" lon="8.01699">
        <ele>2075</ele>
        <time>2021-07-10T13:04:06.228Z</time>
      </trkpt>
      <trkpt lat="46.37726" lon="8.017">
        <ele>2075</ele>
        <time>2021-07-10T13:04:07.229Z</time>
      </trkpt>
      <trkpt lat="46.37727" lon="8.01701">
        <ele>2075</ele>
        <time>2021-07-10T13:04:08.229Z</time>
      </trkpt>
      <trkpt lat="46.37728" lon="8.01701">
        <ele>2075</ele>
        <time>2021-07-10T13:04:09.229Z</time>
      </trkpt>
      <trkpt lat="46.37729" lon="8.01702">
        <ele>2075</ele>
        <time>2021-07-10T13:04:10.228Z</time>
      </trkpt>
      <trkpt lat="46.3773" lon="8.01702">
        <ele>2075</ele>
        <time>2021-07-10T13:04:11.229Z</time>
      </trkpt>
      <trkpt lat="46.37731" lon="8.01702">
        <ele>2075</ele>
        <time>2021-07-10T13:04:12.228Z</time>
      </trkpt>
      <trkpt lat="46.37732" lon="8.01702">
        <ele>2074</ele>
        <time>2021-07-10T13:04:13.229Z</time>
      </trkpt>
      <trkpt lat="46.37734" lon="8.01702">
        <ele>2073</ele>
        <time>2021-07-10T13:04:14.229Z</time>
      </trkpt>
      <trkpt lat="46.37735" lon="8.01702">
        <ele>2073</ele>
        <time>2021-07-10T13:04:15.229Z</time>
      </trkpt>
      <trkpt lat="46.37736" lon="8.01703">
        <ele>2073</ele>
        <time>2021-07-10T13:04:16.229Z</time>
      </trkpt>
      <trkpt lat="46.37737" lon="8.01704">
        <ele>2073</ele>
        <time>2021-07-10T13:04:17.229Z</time>
      </trkpt>
      <trkpt lat="46.37738" lon="8.01706">
        <ele>2073</ele>
        <time>2021-07-10T13:04:18.228Z</time>
      </trkpt>
      <trkpt lat="46.37739" lon="8.01707">
        <ele>2073</ele>
        <time>2021-07-10T13:04:19.229Z</time>
      </trkpt>
      <trkpt lat="46.3774" lon="8.01707">
        <ele>2073</ele>
        <time>2021-07-10T13:04:20.228Z</time>
      </trkpt>
      <trkpt lat="46.3774" lon="8.01708">
        <ele>2073</ele>
        <time>2021-07-10T13:04:21.229Z</time>
      </trkpt>
      <trkpt lat="46.37741" lon="8.01709">
        <ele>2073</ele>
        <time>2021-07-10T13:04:22.229Z</time>
      </trkpt>
      <trkpt lat="46.37741" lon="8.0171">
        <ele>2073</ele>
        <time>2021-07-10T13:04:23.229Z</time>
      </trkpt>
      <trkpt lat="46.37742" lon="8.01711">
        <ele>2073</ele>
        <time>2021-07-10T13:04:24.229Z</time>
      </trkpt>
      <trkpt lat="46.37742" lon="8.01713">
        <ele>2073</ele>
        <time>2021-07-10T13:04:25.228Z</time>
      </trkpt>
      <trkpt lat="46.37742" lon="8.01714">
        <ele>2073</ele>
        <time>2021-07-10T13:04:26.229Z</time>
      </trkpt>
      <trkpt lat="46.37743" lon="8.01716">
        <ele>2073</ele>
        <time>2021-07-10T13:04:27.229Z</time>
      </trkpt>
      <trkpt lat="46.37743" lon="8.01718">
        <ele>2072</ele>
        <time>2021-07-10T13:04:28.228Z</time>
      </trkpt>
      <trkpt lat="46.37743" lon="8.01719">
        <ele>2072</ele>
        <time>2021-07-10T13:04:29.229Z</time>
      </trkpt>
      <trkpt lat="46.37743" lon="8.01721">
        <ele>2072</ele>
        <time>2021-07-10T13:04:30.229Z</time>
      </trkpt>
      <trkpt lat="46.37743" lon="8.01722">
        <ele>2072</ele>
        <time>2021-07-10T13:04:31.228Z</time>
      </trkpt>
      <trkpt lat="46.37743" lon="8.01724">
        <ele>2073</ele>
        <time>2021-07-10T13:04:32.229Z</time>
      </trkpt>
      <trkpt lat="46.37743" lon="8.01725">
        <ele>2073</ele>
        <time>2021-07-10T13:04:33.229Z</time>
      </trkpt>
      <trkpt lat="46.37743" lon="8.01726">
        <ele>2073</ele>
        <time>2021-07-10T13:04:34.229Z</time>
      </trkpt>
      <trkpt lat="46.37743" lon="8.01728">
        <ele>2073</ele>
        <time>2021-07-10T13:04:35.228Z</time>
      </trkpt>
      <trkpt lat="46.37743" lon="8.01729">
        <ele>2073</ele>
        <time>2021-07-10T13:04:36.229Z</time>
      </trkpt>
      <trkpt lat="46.37742" lon="8.01731">
        <ele>2073</ele>
        <time>2021-07-10T13:04:37.229Z</time>
      </trkpt>
      <trkpt lat="46.37742" lon="8.01732">
        <ele>2073</ele>
        <time>2021-07-10T13:04:38.229Z</time>
      </trkpt>
      <trkpt lat="46.37742" lon="8.01734">
        <ele>2073</ele>
        <time>2021-07-10T13:04:39.229Z</time>
      </trkpt>
      <trkpt lat="46.37742" lon="8.01735">
        <ele>2073</ele>
        <time>2021-07-10T13:04:40.229Z</time>
      </trkpt>
      <trkpt lat="46.37742" lon="8.01736">
        <ele>2072</ele>
        <time>2021-07-10T13:04:41.229Z</time>
      </trkpt>
      <trkpt lat="46.37742" lon="8.01738">
        <ele>2072</ele>
        <time>2021-07-10T13:04:42.228Z</time>
      </trkpt>
      <trkpt lat="46.37742" lon="8.01739">
        <ele>2072</ele>
        <time>2021-07-10T13:04:43.229Z</time>
      </trkpt>
      <trkpt lat="46.37742" lon="8.01741">
        <ele>2072</ele>
        <time>2021-07-10T13:04:44.228Z</time>
      </trkpt>
      <trkpt lat="46.37743" lon="8.01743">
        <ele>2072</ele>
        <time>2021-07-10T13:04:45.229Z</time>
      </trkpt>
      <trkpt lat="46.37743" lon="8.01744">
        <ele>2071</ele>
        <time>2021-07-10T13:04:46.229Z</time>
      </trkpt>
      <trkpt lat="46.37743" lon="8.01746">
        <ele>2071</ele>
        <time>2021-07-10T13:04:47.229Z</time>
      </trkpt>
      <trkpt lat="46.37744" lon="8.01748">
        <ele>2071</ele>
        <time>2021-07-10T13:04:48.229Z</time>
      </trkpt>
      <trkpt lat="46.37744" lon="8.01749">
        <ele>2071</ele>
        <time>2021-07-10T13:04:49.229Z</time>
      </trkpt>
      <trkpt lat="46.37745" lon="8.01751">
        <ele>2071</ele>
        <time>2021-07-10T13:04:50.229Z</time>
      </trkpt>
      <trkpt lat="46.37745" lon="8.01752">
        <ele>2071</ele>
        <time>2021-07-10T13:04:51.229Z</time>
      </trkpt>
      <trkpt lat="46.37746" lon="8.01753">
        <ele>2072</ele>
        <time>2021-07-10T13:04:52.229Z</time>
      </trkpt>
      <trkpt lat="46.37746" lon="8.01755">
        <ele>2072</ele>
        <time>2021-07-10T13:04:53.229Z</time>
      </trkpt>
      <trkpt lat="46.37747" lon="8.01757">
        <ele>2072</ele>
        <time>2021-07-10T13:04:54.229Z</time>
      </trkpt>
      <trkpt lat="46.37747" lon="8.01758">
        <ele>2071</ele>
        <time>2021-07-10T13:04:55.229Z</time>
      </trkpt>
      <trkpt lat="46.37748" lon="8.0176">
        <ele>2071</ele>
        <time>2021-07-10T13:04:56.228Z</time>
      </trkpt>
      <trkpt lat="46.37749" lon="8.01762">
        <ele>2072</ele>
        <time>2021-07-10T13:04:57.229Z</time>
      </trkpt>
      <trkpt lat="46.37749" lon="8.01763">
        <ele>2072</ele>
        <time>2021-07-10T13:04:58.228Z</time>
      </trkpt>
      <trkpt lat="46.3775" lon="8.01764">
        <ele>2072</ele>
        <time>2021-07-10T13:04:59.229Z</time>
      </trkpt>
      <trkpt lat="46.37751" lon="8.01765">
        <ele>2072</ele>
        <time>2021-07-10T13:05:00.229Z</time>
      </trkpt>
      <trkpt lat="46.37752" lon="8.01766">
        <ele>2071</ele>
        <time>2021-07-10T13:05:01.228Z</time>
      </trkpt>
      <trkpt lat="46.37752" lon="8.01767">
        <ele>2071</ele>
        <time>2021-07-10T13:05:05.340Z</time>
      </trkpt>
      <trkpt lat="46.37753" lon="8.01768">
        <ele>2070</ele>
        <time>2021-07-10T13:05:06.341Z</time>
      </trkpt>
      <trkpt lat="46.37754" lon="8.01769">
        <ele>2070</ele>
        <time>2021-07-10T13:05:07.340Z</time>
      </trkpt>
      <trkpt lat="46.37755" lon="8.0177">
        <ele>2070</ele>
        <time>2021-07-10T13:05:08.340Z</time>
      </trkpt>
      <trkpt lat="46.37755" lon="8.0177">
        <ele>2070</ele>
        <time>2021-07-10T13:05:09.340Z</time>
      </trkpt>
      <trkpt lat="46.37756" lon="8.01771">
        <ele>2069</ele>
        <time>2021-07-10T13:05:10.341Z</time>
      </trkpt>
      <trkpt lat="46.37757" lon="8.01772">
        <ele>2069</ele>
        <time>2021-07-10T13:05:11.340Z</time>
      </trkpt>
      <trkpt lat="46.37758" lon="8.01773">
        <ele>2069</ele>
        <time>2021-07-10T13:05:12.340Z</time>
      </trkpt>
      <trkpt lat="46.37759" lon="8.01773">
        <ele>2069</ele>
        <time>2021-07-10T13:05:13.341Z</time>
      </trkpt>
      <trkpt lat="46.3776" lon="8.01774">
        <ele>2068</ele>
        <time>2021-07-10T13:05:14.340Z</time>
      </trkpt>
      <trkpt lat="46.37761" lon="8.01775">
        <ele>2068</ele>
        <time>2021-07-10T13:05:15.340Z</time>
      </trkpt>
      <trkpt lat="46.37762" lon="8.01777">
        <ele>2068</ele>
        <time>2021-07-10T13:05:18.426Z</time>
      </trkpt>
      <trkpt lat="46.37763" lon="8.01778">
        <ele>2068</ele>
        <time>2021-07-10T13:05:19.427Z</time>
      </trkpt>
      <trkpt lat="46.37763" lon="8.01779">
        <ele>2068</ele>
        <time>2021-07-10T13:05:21.195Z</time>
      </trkpt>
      <trkpt lat="46.37764" lon="8.01781">
        <ele>2068</ele>
        <time>2021-07-10T13:05:34.962Z</time>
      </trkpt>
      <trkpt lat="46.37765" lon="8.01782">
        <ele>2069</ele>
        <time>2021-07-10T13:05:35.961Z</time>
      </trkpt>
      <trkpt lat="46.37765" lon="8.01783">
        <ele>2068</ele>
        <time>2021-07-10T13:05:36.962Z</time>
      </trkpt>
      <trkpt lat="46.37766" lon="8.01785">
        <ele>2068</ele>
        <time>2021-07-10T13:05:38.701Z</time>
      </trkpt>
      <trkpt lat="46.37767" lon="8.01786">
        <ele>2068</ele>
        <time>2021-07-10T13:05:39.700Z</time>
      </trkpt>
      <trkpt lat="46.37767" lon="8.01787">
        <ele>2068</ele>
        <time>2021-07-10T13:05:40.700Z</time>
      </trkpt>
      <trkpt lat="46.37768" lon="8.01788">
        <ele>2068</ele>
        <time>2021-07-10T13:05:41.701Z</time>
      </trkpt>
      <trkpt lat="46.37769" lon="8.0179">
        <ele>2068</ele>
        <time>2021-07-10T13:05:42.701Z</time>
      </trkpt>
      <trkpt lat="46.37769" lon="8.01791">
        <ele>2068</ele>
        <time>2021-07-10T13:05:43.701Z</time>
      </trkpt>
      <trkpt lat="46.3777" lon="8.01792">
        <ele>2068</ele>
        <time>2021-07-10T13:05:47.710Z</time>
      </trkpt>
      <trkpt lat="46.37771" lon="8.01793">
        <ele>2067</ele>
        <time>2021-07-10T13:05:48.711Z</time>
      </trkpt>
      <trkpt lat="46.37771" lon="8.01794">
        <ele>2067</ele>
        <time>2021-07-10T13:05:49.710Z</time>
      </trkpt>
      <trkpt lat="46.37772" lon="8.01795">
        <ele>2067</ele>
        <time>2021-07-10T13:05:50.711Z</time>
      </trkpt>
      <trkpt lat="46.37772" lon="8.01796">
        <ele>2066</ele>
        <time>2021-07-10T13:05:57.813Z</time>
      </trkpt>
      <trkpt lat="46.37773" lon="8.01796">
        <ele>2066</ele>
        <time>2021-07-10T13:05:58.813Z</time>
      </trkpt>
      <trkpt lat="46.37772" lon="8.01797">
        <ele>2067</ele>
        <time>2021-07-10T13:06:06.939Z</time>
      </trkpt>
      <trkpt lat="46.37772" lon="8.01796">
        <ele>2067</ele>
        <time>2021-07-10T13:06:07.939Z</time>
      </trkpt>
      <trkpt lat="46.37772" lon="8.01797">
        <ele>2067</ele>
        <time>2021-07-10T13:06:08.939Z</time>
      </trkpt>
      <trkpt lat="46.37772" lon="8.01798">
        <ele>2068</ele>
        <time>2021-07-10T13:06:10.696Z</time>
      </trkpt>
      <trkpt lat="46.37772" lon="8.01798">
        <ele>2068</ele>
        <time>2021-07-10T13:06:11.696Z</time>
      </trkpt>
      <trkpt lat="46.37772" lon="8.01799">
        <ele>2069</ele>
        <time>2021-07-10T13:06:12.697Z</time>
      </trkpt>
      <trkpt lat="46.37772" lon="8.018">
        <ele>2069</ele>
        <time>2021-07-10T13:06:13.696Z</time>
      </trkpt>
      <trkpt lat="46.37772" lon="8.018">
        <ele>2069</ele>
        <time>2021-07-10T13:06:14.696Z</time>
      </trkpt>
      <trkpt lat="46.37773" lon="8.01802">
        <ele>2070</ele>
        <time>2021-07-10T13:06:15.696Z</time>
      </trkpt>
      <trkpt lat="46.37773" lon="8.01804">
        <ele>2070</ele>
        <time>2021-07-10T13:06:16.696Z</time>
      </trkpt>
      <trkpt lat="46.37773" lon="8.01805">
        <ele>2069</ele>
        <time>2021-07-10T13:06:17.697Z</time>
      </trkpt>
      <trkpt lat="46.37773" lon="8.01805">
        <ele>2069</ele>
        <time>2021-07-10T13:06:18.696Z</time>
      </trkpt>
      <trkpt lat="46.37773" lon="8.01806">
        <ele>2069</ele>
        <time>2021-07-10T13:06:19.697Z</time>
      </trkpt>
      <trkpt lat="46.37773" lon="8.01807">
        <ele>2069</ele>
        <time>2021-07-10T13:06:20.697Z</time>
      </trkpt>
      <trkpt lat="46.37772" lon="8.01808">
        <ele>2069</ele>
        <time>2021-07-10T13:06:21.696Z</time>
      </trkpt>
      <trkpt lat="46.37772" lon="8.01809">
        <ele>2070</ele>
        <time>2021-07-10T13:06:22.696Z</time>
      </trkpt>
      <trkpt lat="46.37771" lon="8.01809">
        <ele>2070</ele>
        <time>2021-07-10T13:06:23.696Z</time>
      </trkpt>
      <trkpt lat="46.37771" lon="8.0181">
        <ele>2070</ele>
        <time>2021-07-10T13:06:24.697Z</time>
      </trkpt>
      <trkpt lat="46.37771" lon="8.0181">
        <ele>2069</ele>
        <time>2021-07-10T13:06:25.696Z</time>
      </trkpt>
      <trkpt lat="46.37771" lon="8.01811">
        <ele>2069</ele>
        <time>2021-07-10T13:06:26.696Z</time>
      </trkpt>
      <trkpt lat="46.3777" lon="8.01811">
        <ele>2069</ele>
        <time>2021-07-10T13:06:27.696Z</time>
      </trkpt>
      <trkpt lat="46.37769" lon="8.0181">
        <ele>2066</ele>
        <time>2021-07-10T13:06:28.697Z</time>
      </trkpt>
      <trkpt lat="46.37769" lon="8.0181">
        <ele>2066</ele>
        <time>2021-07-10T13:06:29.697Z</time>
      </trkpt>
      <trkpt lat="46.37768" lon="8.01811">
        <ele>2066</ele>
        <time>2021-07-10T13:06:30.698Z</time>
      </trkpt>
      <trkpt lat="46.37768" lon="8.01811">
        <ele>2066</ele>
        <time>2021-07-10T13:06:31.698Z</time>
      </trkpt>
      <trkpt lat="46.37767" lon="8.01811">
        <ele>2066</ele>
        <time>2021-07-10T13:06:32.698Z</time>
      </trkpt>
      <trkpt lat="46.37767" lon="8.01811">
        <ele>2066</ele>
        <time>2021-07-10T13:06:33.698Z</time>
      </trkpt>
      <trkpt lat="46.37767" lon="8.0181">
        <ele>2066</ele>
        <time>2021-07-10T13:06:34.698Z</time>
      </trkpt>
      <trkpt lat="46.37767" lon="8.0181">
        <ele>2065</ele>
        <time>2021-07-10T13:06:35.697Z</time>
      </trkpt>
      <trkpt lat="46.37765" lon="8.01814">
        <ele>2066</ele>
        <time>2021-07-10T13:06:38.690Z</time>
      </trkpt>
      <trkpt lat="46.37765" lon="8.01815">
        <ele>2065</ele>
        <time>2021-07-10T13:06:39.690Z</time>
      </trkpt>
      <trkpt lat="46.37764" lon="8.01815">
        <ele>2065</ele>
        <time>2021-07-10T13:06:40.689Z</time>
      </trkpt>
      <trkpt lat="46.37763" lon="8.01815">
        <ele>2064</ele>
        <time>2021-07-10T13:06:41.690Z</time>
      </trkpt>
      <trkpt lat="46.37762" lon="8.01815">
        <ele>2064</ele>
        <time>2021-07-10T13:06:42.690Z</time>
      </trkpt>
      <trkpt lat="46.37762" lon="8.01816">
        <ele>2063</ele>
        <time>2021-07-10T13:06:43.690Z</time>
      </trkpt>
      <trkpt lat="46.37762" lon="8.01817">
        <ele>2063</ele>
        <time>2021-07-10T13:06:44.689Z</time>
      </trkpt>
      <trkpt lat="46.37761" lon="8.01817">
        <ele>2063</ele>
        <time>2021-07-10T13:06:46.822Z</time>
      </trkpt>
      <trkpt lat="46.37761" lon="8.01818">
        <ele>2063</ele>
        <time>2021-07-10T13:06:47.822Z</time>
      </trkpt>
      <trkpt lat="46.3776" lon="8.01819">
        <ele>2062</ele>
        <time>2021-07-10T13:06:48.821Z</time>
      </trkpt>
      <trkpt lat="46.3776" lon="8.0182">
        <ele>2062</ele>
        <time>2021-07-10T13:06:49.822Z</time>
      </trkpt>
      <trkpt lat="46.37759" lon="8.01821">
        <ele>2062</ele>
        <time>2021-07-10T13:06:50.821Z</time>
      </trkpt>
      <trkpt lat="46.37759" lon="8.01822">
        <ele>2061</ele>
        <time>2021-07-10T13:06:51.821Z</time>
      </trkpt>
      <trkpt lat="46.37758" lon="8.01823">
        <ele>2061</ele>
        <time>2021-07-10T13:06:52.822Z</time>
      </trkpt>
      <trkpt lat="46.37758" lon="8.01824">
        <ele>2061</ele>
        <time>2021-07-10T13:06:53.821Z</time>
      </trkpt>
      <trkpt lat="46.37757" lon="8.01825">
        <ele>2061</ele>
        <time>2021-07-10T13:06:54.822Z</time>
      </trkpt>
      <trkpt lat="46.37757" lon="8.01826">
        <ele>2061</ele>
        <time>2021-07-10T13:06:55.822Z</time>
      </trkpt>
      <trkpt lat="46.37756" lon="8.01827">
        <ele>2061</ele>
        <time>2021-07-10T13:06:56.822Z</time>
      </trkpt>
      <trkpt lat="46.37756" lon="8.01827">
        <ele>2061</ele>
        <time>2021-07-10T13:06:57.822Z</time>
      </trkpt>
      <trkpt lat="46.37755" lon="8.01828">
        <ele>2061</ele>
        <time>2021-07-10T13:06:59.815Z</time>
      </trkpt>
      <trkpt lat="46.37755" lon="8.01829">
        <ele>2061</ele>
        <time>2021-07-10T13:07:02.568Z</time>
      </trkpt>
      <trkpt lat="46.37755" lon="8.0183">
        <ele>2061</ele>
        <time>2021-07-10T13:07:03.569Z</time>
      </trkpt>
      <trkpt lat="46.37754" lon="8.01832">
        <ele>2061</ele>
        <time>2021-07-10T13:07:04.569Z</time>
      </trkpt>
      <trkpt lat="46.37754" lon="8.01833">
        <ele>2061</ele>
        <time>2021-07-10T13:07:05.569Z</time>
      </trkpt>
      <trkpt lat="46.37754" lon="8.01834">
        <ele>2061</ele>
        <time>2021-07-10T13:07:06.569Z</time>
      </trkpt>
      <trkpt lat="46.37753" lon="8.01835">
        <ele>2062</ele>
        <time>2021-07-10T13:07:07.569Z</time>
      </trkpt>
      <trkpt lat="46.37753" lon="8.01835">
        <ele>2062</ele>
        <time>2021-07-10T13:07:08.568Z</time>
      </trkpt>
      <trkpt lat="46.37752" lon="8.01836">
        <ele>2062</ele>
        <time>2021-07-10T13:07:09.568Z</time>
      </trkpt>
      <trkpt lat="46.37752" lon="8.01837">
        <ele>2063</ele>
        <time>2021-07-10T13:07:10.568Z</time>
      </trkpt>
      <trkpt lat="46.37751" lon="8.01837">
        <ele>2063</ele>
        <time>2021-07-10T13:07:11.569Z</time>
      </trkpt>
      <trkpt lat="46.3775" lon="8.01838">
        <ele>2063</ele>
        <time>2021-07-10T13:07:12.569Z</time>
      </trkpt>
      <trkpt lat="46.3775" lon="8.01839">
        <ele>2063</ele>
        <time>2021-07-10T13:07:13.568Z</time>
      </trkpt>
      <trkpt lat="46.37749" lon="8.0184">
        <ele>2063</ele>
        <time>2021-07-10T13:07:14.569Z</time>
      </trkpt>
      <trkpt lat="46.37748" lon="8.01841">
        <ele>2063</ele>
        <time>2021-07-10T13:07:15.568Z</time>
      </trkpt>
      <trkpt lat="46.37748" lon="8.01842">
        <ele>2063</ele>
        <time>2021-07-10T13:07:16.569Z</time>
      </trkpt>
      <trkpt lat="46.37747" lon="8.01842">
        <ele>2063</ele>
        <time>2021-07-10T13:07:17.569Z</time>
      </trkpt>
      <trkpt lat="46.37746" lon="8.01842">
        <ele>2063</ele>
        <time>2021-07-10T13:07:18.569Z</time>
      </trkpt>
      <trkpt lat="46.37745" lon="8.01842">
        <ele>2062</ele>
        <time>2021-07-10T13:07:19.568Z</time>
      </trkpt>
      <trkpt lat="46.37744" lon="8.01842">
        <ele>2062</ele>
        <time>2021-07-10T13:07:20.568Z</time>
      </trkpt>
      <trkpt lat="46.37743" lon="8.01842">
        <ele>2061</ele>
        <time>2021-07-10T13:07:21.569Z</time>
      </trkpt>
      <trkpt lat="46.37742" lon="8.01842">
        <ele>2061</ele>
        <time>2021-07-10T13:07:22.569Z</time>
      </trkpt>
      <trkpt lat="46.37741" lon="8.01842">
        <ele>2060</ele>
        <time>2021-07-10T13:07:23.568Z</time>
      </trkpt>
      <trkpt lat="46.3774" lon="8.01843">
        <ele>2060</ele>
        <time>2021-07-10T13:07:24.568Z</time>
      </trkpt>
      <trkpt lat="46.3774" lon="8.01843">
        <ele>2060</ele>
        <time>2021-07-10T13:07:25.568Z</time>
      </trkpt>
      <trkpt lat="46.37739" lon="8.01845">
        <ele>2060</ele>
        <time>2021-07-10T13:07:26.569Z</time>
      </trkpt>
      <trkpt lat="46.37738" lon="8.01846">
        <ele>2060</ele>
        <time>2021-07-10T13:07:27.569Z</time>
      </trkpt>
      <trkpt lat="46.37738" lon="8.01847">
        <ele>2060</ele>
        <time>2021-07-10T13:07:28.568Z</time>
      </trkpt>
      <trkpt lat="46.37737" lon="8.01848">
        <ele>2059</ele>
        <time>2021-07-10T13:07:29.569Z</time>
      </trkpt>
      <trkpt lat="46.37737" lon="8.01849">
        <ele>2059</ele>
        <time>2021-07-10T13:07:30.569Z</time>
      </trkpt>
      <trkpt lat="46.37737" lon="8.0185">
        <ele>2058</ele>
        <time>2021-07-10T13:07:31.569Z</time>
      </trkpt>
      <trkpt lat="46.37736" lon="8.01851">
        <ele>2058</ele>
        <time>2021-07-10T13:07:32.568Z</time>
      </trkpt>
      <trkpt lat="46.37736" lon="8.01852">
        <ele>2058</ele>
        <time>2021-07-10T13:07:33.568Z</time>
      </trkpt>
      <trkpt lat="46.37736" lon="8.01853">
        <ele>2058</ele>
        <time>2021-07-10T13:07:34.569Z</time>
      </trkpt>
      <trkpt lat="46.37736" lon="8.01854">
        <ele>2058</ele>
        <time>2021-07-10T13:07:35.569Z</time>
      </trkpt>
      <trkpt lat="46.37735" lon="8.01855">
        <ele>2057</ele>
        <time>2021-07-10T13:07:36.568Z</time>
      </trkpt>
      <trkpt lat="46.37735" lon="8.01856">
        <ele>2057</ele>
        <time>2021-07-10T13:07:37.569Z</time>
      </trkpt>
      <trkpt lat="46.37734" lon="8.01856">
        <ele>2057</ele>
        <time>2021-07-10T13:07:38.569Z</time>
      </trkpt>
      <trkpt lat="46.37734" lon="8.01858">
        <ele>2057</ele>
        <time>2021-07-10T13:07:39.568Z</time>
      </trkpt>
      <trkpt lat="46.37733" lon="8.01859">
        <ele>2057</ele>
        <time>2021-07-10T13:07:40.569Z</time>
      </trkpt>
      <trkpt lat="46.37732" lon="8.0186">
        <ele>2056</ele>
        <time>2021-07-10T13:07:41.569Z</time>
      </trkpt>
      <trkpt lat="46.37732" lon="8.01861">
        <ele>2056</ele>
        <time>2021-07-10T13:07:42.568Z</time>
      </trkpt>
      <trkpt lat="46.37732" lon="8.01862">
        <ele>2056</ele>
        <time>2021-07-10T13:07:43.569Z</time>
      </trkpt>
      <trkpt lat="46.37731" lon="8.01863">
        <ele>2056</ele>
        <time>2021-07-10T13:07:44.569Z</time>
      </trkpt>
      <trkpt lat="46.37731" lon="8.01865">
        <ele>2056</ele>
        <time>2021-07-10T13:07:45.568Z</time>
      </trkpt>
      <trkpt lat="46.37731" lon="8.01867">
        <ele>2057</ele>
        <time>2021-07-10T13:07:46.569Z</time>
      </trkpt>
      <trkpt lat="46.37731" lon="8.01868">
        <ele>2057</ele>
        <time>2021-07-10T13:07:47.568Z</time>
      </trkpt>
      <trkpt lat="46.37731" lon="8.0187">
        <ele>2057</ele>
        <time>2021-07-10T13:07:48.568Z</time>
      </trkpt>
      <trkpt lat="46.37731" lon="8.01871">
        <ele>2057</ele>
        <time>2021-07-10T13:07:49.569Z</time>
      </trkpt>
      <trkpt lat="46.3773" lon="8.01872">
        <ele>2057</ele>
        <time>2021-07-10T13:07:50.569Z</time>
      </trkpt>
      <trkpt lat="46.3773" lon="8.01873">
        <ele>2057</ele>
        <time>2021-07-10T13:07:51.569Z</time>
      </trkpt>
      <trkpt lat="46.3773" lon="8.01874">
        <ele>2057</ele>
        <time>2021-07-10T13:07:52.569Z</time>
      </trkpt>
      <trkpt lat="46.3773" lon="8.01875">
        <ele>2056</ele>
        <time>2021-07-10T13:07:53.569Z</time>
      </trkpt>
      <trkpt lat="46.3773" lon="8.01875">
        <ele>2056</ele>
        <time>2021-07-10T13:07:54.569Z</time>
      </trkpt>
      <trkpt lat="46.37731" lon="8.01876">
        <ele>2055</ele>
        <time>2021-07-10T13:07:55.568Z</time>
      </trkpt>
      <trkpt lat="46.37731" lon="8.01876">
        <ele>2055</ele>
        <time>2021-07-10T13:07:56.568Z</time>
      </trkpt>
      <trkpt lat="46.37731" lon="8.01877">
        <ele>2055</ele>
        <time>2021-07-10T13:07:57.568Z</time>
      </trkpt>
      <trkpt lat="46.37731" lon="8.01878">
        <ele>2054</ele>
        <time>2021-07-10T13:07:58.569Z</time>
      </trkpt>
      <trkpt lat="46.37731" lon="8.0188">
        <ele>2054</ele>
        <time>2021-07-10T13:07:59.569Z</time>
      </trkpt>
      <trkpt lat="46.37731" lon="8.01881">
        <ele>2053</ele>
        <time>2021-07-10T13:08:00.569Z</time>
      </trkpt>
      <trkpt lat="46.37731" lon="8.01883">
        <ele>2053</ele>
        <time>2021-07-10T13:08:01.569Z</time>
      </trkpt>
      <trkpt lat="46.37731" lon="8.01884">
        <ele>2052</ele>
        <time>2021-07-10T13:08:02.568Z</time>
      </trkpt>
      <trkpt lat="46.37731" lon="8.01885">
        <ele>2052</ele>
        <time>2021-07-10T13:08:03.569Z</time>
      </trkpt>
      <trkpt lat="46.37731" lon="8.01886">
        <ele>2051</ele>
        <time>2021-07-10T13:08:04.569Z</time>
      </trkpt>
      <trkpt lat="46.37731" lon="8.01888">
        <ele>2051</ele>
        <time>2021-07-10T13:08:05.569Z</time>
      </trkpt>
      <trkpt lat="46.37732" lon="8.01889">
        <ele>2051</ele>
        <time>2021-07-10T13:08:06.569Z</time>
      </trkpt>
      <trkpt lat="46.37732" lon="8.01891">
        <ele>2051</ele>
        <time>2021-07-10T13:08:07.568Z</time>
      </trkpt>
      <trkpt lat="46.37732" lon="8.01893">
        <ele>2051</ele>
        <time>2021-07-10T13:08:08.568Z</time>
      </trkpt>
      <trkpt lat="46.37732" lon="8.01894">
        <ele>2051</ele>
        <time>2021-07-10T13:08:09.569Z</time>
      </trkpt>
      <trkpt lat="46.37732" lon="8.01897">
        <ele>2051</ele>
        <time>2021-07-10T13:08:10.568Z</time>
      </trkpt>
      <trkpt lat="46.37733" lon="8.01899">
        <ele>2050</ele>
        <time>2021-07-10T13:08:11.568Z</time>
      </trkpt>
      <trkpt lat="46.37733" lon="8.019">
        <ele>2050</ele>
        <time>2021-07-10T13:08:12.568Z</time>
      </trkpt>
      <trkpt lat="46.37734" lon="8.01901">
        <ele>2050</ele>
        <time>2021-07-10T13:08:13.569Z</time>
      </trkpt>
      <trkpt lat="46.37735" lon="8.01901">
        <ele>2050</ele>
        <time>2021-07-10T13:08:14.568Z</time>
      </trkpt>
      <trkpt lat="46.37737" lon="8.01901">
        <ele>2049</ele>
        <time>2021-07-10T13:08:15.568Z</time>
      </trkpt>
      <trkpt lat="46.37738" lon="8.01901">
        <ele>2049</ele>
        <time>2021-07-10T13:08:16.568Z</time>
      </trkpt>
      <trkpt lat="46.37738" lon="8.01901">
        <ele>2048</ele>
        <time>2021-07-10T13:08:17.568Z</time>
      </trkpt>
      <trkpt lat="46.37739" lon="8.01901">
        <ele>2048</ele>
        <time>2021-07-10T13:08:18.568Z</time>
      </trkpt>
      <trkpt lat="46.3774" lon="8.01901">
        <ele>2048</ele>
        <time>2021-07-10T13:08:19.568Z</time>
      </trkpt>
      <trkpt lat="46.3774" lon="8.01902">
        <ele>2047</ele>
        <time>2021-07-10T13:08:20.568Z</time>
      </trkpt>
      <trkpt lat="46.37741" lon="8.01902">
        <ele>2047</ele>
        <time>2021-07-10T13:08:21.568Z</time>
      </trkpt>
      <trkpt lat="46.37742" lon="8.01903">
        <ele>2047</ele>
        <time>2021-07-10T13:08:22.568Z</time>
      </trkpt>
      <trkpt lat="46.37743" lon="8.01904">
        <ele>2046</ele>
        <time>2021-07-10T13:08:23.569Z</time>
      </trkpt>
      <trkpt lat="46.37744" lon="8.01905">
        <ele>2047</ele>
        <time>2021-07-10T13:08:24.569Z</time>
      </trkpt>
      <trkpt lat="46.37744" lon="8.01906">
        <ele>2047</ele>
        <time>2021-07-10T13:08:25.568Z</time>
      </trkpt>
      <trkpt lat="46.37745" lon="8.01907">
        <ele>2047</ele>
        <time>2021-07-10T13:08:26.569Z</time>
      </trkpt>
      <trkpt lat="46.37746" lon="8.01908">
        <ele>2047</ele>
        <time>2021-07-10T13:08:27.568Z</time>
      </trkpt>
      <trkpt lat="46.37747" lon="8.01909">
        <ele>2047</ele>
        <time>2021-07-10T13:08:28.568Z</time>
      </trkpt>
      <trkpt lat="46.37748" lon="8.0191">
        <ele>2047</ele>
        <time>2021-07-10T13:08:29.569Z</time>
      </trkpt>
      <trkpt lat="46.37748" lon="8.01912">
        <ele>2047</ele>
        <time>2021-07-10T13:08:30.569Z</time>
      </trkpt>
      <trkpt lat="46.37749" lon="8.01913">
        <ele>2047</ele>
        <time>2021-07-10T13:08:31.568Z</time>
      </trkpt>
      <trkpt lat="46.3775" lon="8.01915">
        <ele>2046</ele>
        <time>2021-07-10T13:08:32.569Z</time>
      </trkpt>
      <trkpt lat="46.37751" lon="8.01915">
        <ele>2046</ele>
        <time>2021-07-10T13:08:33.569Z</time>
      </trkpt>
      <trkpt lat="46.37752" lon="8.01916">
        <ele>2046</ele>
        <time>2021-07-10T13:08:34.569Z</time>
      </trkpt>
      <trkpt lat="46.37753" lon="8.01916">
        <ele>2045</ele>
        <time>2021-07-10T13:08:35.569Z</time>
      </trkpt>
      <trkpt lat="46.37754" lon="8.01916">
        <ele>2045</ele>
        <time>2021-07-10T13:08:36.568Z</time>
      </trkpt>
      <trkpt lat="46.37755" lon="8.01915">
        <ele>2045</ele>
        <time>2021-07-10T13:08:37.568Z</time>
      </trkpt>
      <trkpt lat="46.37756" lon="8.01915">
        <ele>2044</ele>
        <time>2021-07-10T13:08:38.569Z</time>
      </trkpt>
      <trkpt lat="46.37757" lon="8.01916">
        <ele>2044</ele>
        <time>2021-07-10T13:08:39.569Z</time>
      </trkpt>
      <trkpt lat="46.37758" lon="8.01917">
        <ele>2045</ele>
        <time>2021-07-10T13:08:40.568Z</time>
      </trkpt>
      <trkpt lat="46.37758" lon="8.01918">
        <ele>2045</ele>
        <time>2021-07-10T13:08:41.569Z</time>
      </trkpt>
      <trkpt lat="46.37759" lon="8.01919">
        <ele>2044</ele>
        <time>2021-07-10T13:08:42.568Z</time>
      </trkpt>
      <trkpt lat="46.3776" lon="8.01921">
        <ele>2044</ele>
        <time>2021-07-10T13:08:43.569Z</time>
      </trkpt>
      <trkpt lat="46.3776" lon="8.01923">
        <ele>2044</ele>
        <time>2021-07-10T13:08:44.569Z</time>
      </trkpt>
      <trkpt lat="46.37761" lon="8.01924">
        <ele>2044</ele>
        <time>2021-07-10T13:08:45.568Z</time>
      </trkpt>
      <trkpt lat="46.37761" lon="8.01926">
        <ele>2044</ele>
        <time>2021-07-10T13:08:46.568Z</time>
      </trkpt>
      <trkpt lat="46.37762" lon="8.01928">
        <ele>2043</ele>
        <time>2021-07-10T13:08:47.569Z</time>
      </trkpt>
      <trkpt lat="46.37762" lon="8.0193">
        <ele>2043</ele>
        <time>2021-07-10T13:08:48.569Z</time>
      </trkpt>
      <trkpt lat="46.37763" lon="8.01931">
        <ele>2043</ele>
        <time>2021-07-10T13:08:49.569Z</time>
      </trkpt>
      <trkpt lat="46.37764" lon="8.01933">
        <ele>2043</ele>
        <time>2021-07-10T13:08:50.568Z</time>
      </trkpt>
      <trkpt lat="46.37765" lon="8.01934">
        <ele>2043</ele>
        <time>2021-07-10T13:08:51.568Z</time>
      </trkpt>
      <trkpt lat="46.37765" lon="8.01936">
        <ele>2043</ele>
        <time>2021-07-10T13:08:52.569Z</time>
      </trkpt>
      <trkpt lat="46.37766" lon="8.01938">
        <ele>2043</ele>
        <time>2021-07-10T13:08:53.569Z</time>
      </trkpt>
      <trkpt lat="46.37767" lon="8.01939">
        <ele>2043</ele>
        <time>2021-07-10T13:08:54.568Z</time>
      </trkpt>
      <trkpt lat="46.37767" lon="8.01941">
        <ele>2042</ele>
        <time>2021-07-10T13:08:55.568Z</time>
      </trkpt>
      <trkpt lat="46.37768" lon="8.01943">
        <ele>2042</ele>
        <time>2021-07-10T13:08:56.568Z</time>
      </trkpt>
      <trkpt lat="46.37768" lon="8.01945">
        <ele>2042</ele>
        <time>2021-07-10T13:08:57.569Z</time>
      </trkpt>
      <trkpt lat="46.37769" lon="8.01947">
        <ele>2042</ele>
        <time>2021-07-10T13:08:58.569Z</time>
      </trkpt>
      <trkpt lat="46.37769" lon="8.01949">
        <ele>2042</ele>
        <time>2021-07-10T13:08:59.569Z</time>
      </trkpt>
      <trkpt lat="46.37769" lon="8.0195">
        <ele>2042</ele>
        <time>2021-07-10T13:09:00.569Z</time>
      </trkpt>
      <trkpt lat="46.37769" lon="8.01952">
        <ele>2042</ele>
        <time>2021-07-10T13:09:01.569Z</time>
      </trkpt>
      <trkpt lat="46.3777" lon="8.01953">
        <ele>2042</ele>
        <time>2021-07-10T13:09:02.569Z</time>
      </trkpt>
      <trkpt lat="46.3777" lon="8.01954">
        <ele>2042</ele>
        <time>2021-07-10T13:09:03.569Z</time>
      </trkpt>
      <trkpt lat="46.37771" lon="8.01956">
        <ele>2041</ele>
        <time>2021-07-10T13:09:04.568Z</time>
      </trkpt>
      <trkpt lat="46.37771" lon="8.01957">
        <ele>2041</ele>
        <time>2021-07-10T13:09:05.569Z</time>
      </trkpt>
      <trkpt lat="46.37772" lon="8.01958">
        <ele>2041</ele>
        <time>2021-07-10T13:09:06.569Z</time>
      </trkpt>
      <trkpt lat="46.37773" lon="8.01959">
        <ele>2041</ele>
        <time>2021-07-10T13:09:07.569Z</time>
      </trkpt>
      <trkpt lat="46.37774" lon="8.0196">
        <ele>2040</ele>
        <time>2021-07-10T13:09:08.569Z</time>
      </trkpt>
      <trkpt lat="46.37774" lon="8.0196">
        <ele>2040</ele>
        <time>2021-07-10T13:09:09.569Z</time>
      </trkpt>
      <trkpt lat="46.37775" lon="8.0196">
        <ele>2039</ele>
        <time>2021-07-10T13:09:10.568Z</time>
      </trkpt>
      <trkpt lat="46.37776" lon="8.01961">
        <ele>2039</ele>
        <time>2021-07-10T13:09:11.568Z</time>
      </trkpt>
      <trkpt lat="46.37777" lon="8.01962">
        <ele>2038</ele>
        <time>2021-07-10T13:09:12.569Z</time>
      </trkpt>
      <trkpt lat="46.37778" lon="8.01963">
        <ele>2037</ele>
        <time>2021-07-10T13:09:13.569Z</time>
      </trkpt>
      <trkpt lat="46.37779" lon="8.01964">
        <ele>2037</ele>
        <time>2021-07-10T13:09:14.568Z</time>
      </trkpt>
      <trkpt lat="46.3778" lon="8.01965">
        <ele>2037</ele>
        <time>2021-07-10T13:09:15.569Z</time>
      </trkpt>
      <trkpt lat="46.37781" lon="8.01966">
        <ele>2037</ele>
        <time>2021-07-10T13:09:16.568Z</time>
      </trkpt>
      <trkpt lat="46.37781" lon="8.01967">
        <ele>2036</ele>
        <time>2021-07-10T13:09:17.568Z</time>
      </trkpt>
      <trkpt lat="46.37782" lon="8.01968">
        <ele>2036</ele>
        <time>2021-07-10T13:09:18.569Z</time>
      </trkpt>
      <trkpt lat="46.37782" lon="8.01969">
        <ele>2036</ele>
        <time>2021-07-10T13:09:19.568Z</time>
      </trkpt>
      <trkpt lat="46.37783" lon="8.0197">
        <ele>2036</ele>
        <time>2021-07-10T13:09:20.569Z</time>
      </trkpt>
      <trkpt lat="46.37783" lon="8.01971">
        <ele>2035</ele>
        <time>2021-07-10T13:09:21.568Z</time>
      </trkpt>
      <trkpt lat="46.37784" lon="8.01972">
        <ele>2035</ele>
        <time>2021-07-10T13:09:22.569Z</time>
      </trkpt>
      <trkpt lat="46.37784" lon="8.01974">
        <ele>2034</ele>
        <time>2021-07-10T13:09:23.569Z</time>
      </trkpt>
      <trkpt lat="46.37784" lon="8.01975">
        <ele>2034</ele>
        <time>2021-07-10T13:09:24.569Z</time>
      </trkpt>
      <trkpt lat="46.37784" lon="8.01977">
        <ele>2034</ele>
        <time>2021-07-10T13:09:25.568Z</time>
      </trkpt>
      <trkpt lat="46.37784" lon="8.01978">
        <ele>2034</ele>
        <time>2021-07-10T13:09:26.569Z</time>
      </trkpt>
      <trkpt lat="46.37785" lon="8.01979">
        <ele>2034</ele>
        <time>2021-07-10T13:09:27.569Z</time>
      </trkpt>
      <trkpt lat="46.37786" lon="8.01979">
        <ele>2034</ele>
        <time>2021-07-10T13:09:28.569Z</time>
      </trkpt>
      <trkpt lat="46.37787" lon="8.0198">
        <ele>2034</ele>
        <time>2021-07-10T13:09:29.568Z</time>
      </trkpt>
      <trkpt lat="46.37787" lon="8.01981">
        <ele>2034</ele>
        <time>2021-07-10T13:09:30.569Z</time>
      </trkpt>
      <trkpt lat="46.37788" lon="8.01981">
        <ele>2033</ele>
        <time>2021-07-10T13:09:31.568Z</time>
      </trkpt>
      <trkpt lat="46.37789" lon="8.01982">
        <ele>2033</ele>
        <time>2021-07-10T13:09:32.569Z</time>
      </trkpt>
      <trkpt lat="46.37789" lon="8.01984">
        <ele>2033</ele>
        <time>2021-07-10T13:09:33.569Z</time>
      </trkpt>
      <trkpt lat="46.3779" lon="8.01985">
        <ele>2033</ele>
        <time>2021-07-10T13:09:34.568Z</time>
      </trkpt>
      <trkpt lat="46.3779" lon="8.01987">
        <ele>2033</ele>
        <time>2021-07-10T13:09:35.569Z</time>
      </trkpt>
      <trkpt lat="46.37791" lon="8.01988">
        <ele>2032</ele>
        <time>2021-07-10T13:09:36.568Z</time>
      </trkpt>
      <trkpt lat="46.37791" lon="8.0199">
        <ele>2032</ele>
        <time>2021-07-10T13:09:37.568Z</time>
      </trkpt>
      <trkpt lat="46.37792" lon="8.01991">
        <ele>2032</ele>
        <time>2021-07-10T13:09:38.568Z</time>
      </trkpt>
      <trkpt lat="46.37793" lon="8.01993">
        <ele>2032</ele>
        <time>2021-07-10T13:09:39.569Z</time>
      </trkpt>
      <trkpt lat="46.37793" lon="8.01995">
        <ele>2031</ele>
        <time>2021-07-10T13:09:40.568Z</time>
      </trkpt>
      <trkpt lat="46.37794" lon="8.01997">
        <ele>2031</ele>
        <time>2021-07-10T13:09:41.568Z</time>
      </trkpt>
      <trkpt lat="46.37794" lon="8.01999">
        <ele>2030</ele>
        <time>2021-07-10T13:09:42.569Z</time>
      </trkpt>
      <trkpt lat="46.37794" lon="8.02">
        <ele>2030</ele>
        <time>2021-07-10T13:09:43.568Z</time>
      </trkpt>
      <trkpt lat="46.37795" lon="8.02001">
        <ele>2030</ele>
        <time>2021-07-10T13:09:44.569Z</time>
      </trkpt>
      <trkpt lat="46.37795" lon="8.02003">
        <ele>2030</ele>
        <time>2021-07-10T13:09:45.568Z</time>
      </trkpt>
      <trkpt lat="46.37796" lon="8.02005">
        <ele>2031</ele>
        <time>2021-07-10T13:09:46.569Z</time>
      </trkpt>
      <trkpt lat="46.37796" lon="8.02006">
        <ele>2031</ele>
        <time>2021-07-10T13:09:47.569Z</time>
      </trkpt>
      <trkpt lat="46.37797" lon="8.02007">
        <ele>2031</ele>
        <time>2021-07-10T13:09:48.569Z</time>
      </trkpt>
      <trkpt lat="46.37798" lon="8.02008">
        <ele>2031</ele>
        <time>2021-07-10T13:09:49.568Z</time>
      </trkpt>
      <trkpt lat="46.37798" lon="8.02009">
        <ele>2031</ele>
        <time>2021-07-10T13:09:50.568Z</time>
      </trkpt>
      <trkpt lat="46.37799" lon="8.0201">
        <ele>2031</ele>
        <time>2021-07-10T13:09:51.569Z</time>
      </trkpt>
      <trkpt lat="46.378" lon="8.02012">
        <ele>2031</ele>
        <time>2021-07-10T13:09:52.569Z</time>
      </trkpt>
      <trkpt lat="46.378" lon="8.02013">
        <ele>2032</ele>
        <time>2021-07-10T13:09:53.568Z</time>
      </trkpt>
      <trkpt lat="46.37801" lon="8.02014">
        <ele>2032</ele>
        <time>2021-07-10T13:09:54.569Z</time>
      </trkpt>
      <trkpt lat="46.37801" lon="8.02016">
        <ele>2031</ele>
        <time>2021-07-10T13:09:55.569Z</time>
      </trkpt>
      <trkpt lat="46.37802" lon="8.02017">
        <ele>2031</ele>
        <time>2021-07-10T13:09:56.569Z</time>
      </trkpt>
      <trkpt lat="46.37802" lon="8.02019">
        <ele>2031</ele>
        <time>2021-07-10T13:09:57.569Z</time>
      </trkpt>
      <trkpt lat="46.37803" lon="8.02021">
        <ele>2031</ele>
        <time>2021-07-10T13:09:58.568Z</time>
      </trkpt>
      <trkpt lat="46.37804" lon="8.02022">
        <ele>2030</ele>
        <time>2021-07-10T13:09:59.568Z</time>
      </trkpt>
      <trkpt lat="46.37804" lon="8.02024">
        <ele>2030</ele>
        <time>2021-07-10T13:10:00.569Z</time>
      </trkpt>
      <trkpt lat="46.37805" lon="8.02025">
        <ele>2030</ele>
        <time>2021-07-10T13:10:01.569Z</time>
      </trkpt>
      <trkpt lat="46.37806" lon="8.02026">
        <ele>2029</ele>
        <time>2021-07-10T13:10:02.569Z</time>
      </trkpt>
      <trkpt lat="46.37807" lon="8.02027">
        <ele>2029</ele>
        <time>2021-07-10T13:10:03.568Z</time>
      </trkpt>
      <trkpt lat="46.37808" lon="8.02028">
        <ele>2029</ele>
        <time>2021-07-10T13:10:04.569Z</time>
      </trkpt>
      <trkpt lat="46.37808" lon="8.02029">
        <ele>2028</ele>
        <time>2021-07-10T13:10:05.569Z</time>
      </trkpt>
      <trkpt lat="46.37809" lon="8.0203">
        <ele>2028</ele>
        <time>2021-07-10T13:10:06.569Z</time>
      </trkpt>
      <trkpt lat="46.3781" lon="8.02031">
        <ele>2028</ele>
        <time>2021-07-10T13:10:07.568Z</time>
      </trkpt>
      <trkpt lat="46.37811" lon="8.02032">
        <ele>2029</ele>
        <time>2021-07-10T13:10:08.569Z</time>
      </trkpt>
      <trkpt lat="46.37812" lon="8.02034">
        <ele>2029</ele>
        <time>2021-07-10T13:10:09.568Z</time>
      </trkpt>
      <trkpt lat="46.37812" lon="8.02035">
        <ele>2029</ele>
        <time>2021-07-10T13:10:10.568Z</time>
      </trkpt>
      <trkpt lat="46.37813" lon="8.02037">
        <ele>2029</ele>
        <time>2021-07-10T13:10:11.569Z</time>
      </trkpt>
      <trkpt lat="46.37814" lon="8.02038">
        <ele>2029</ele>
        <time>2021-07-10T13:10:12.569Z</time>
      </trkpt>
      <trkpt lat="46.37815" lon="8.02039">
        <ele>2029</ele>
        <time>2021-07-10T13:10:13.568Z</time>
      </trkpt>
      <trkpt lat="46.37815" lon="8.0204">
        <ele>2030</ele>
        <time>2021-07-10T13:10:14.569Z</time>
      </trkpt>
      <trkpt lat="46.37816" lon="8.02042">
        <ele>2030</ele>
        <time>2021-07-10T13:10:15.569Z</time>
      </trkpt>
      <trkpt lat="46.37817" lon="8.02043">
        <ele>2030</ele>
        <time>2021-07-10T13:10:16.569Z</time>
      </trkpt>
      <trkpt lat="46.37818" lon="8.02044">
        <ele>2030</ele>
        <time>2021-07-10T13:10:17.569Z</time>
      </trkpt>
      <trkpt lat="46.37819" lon="8.02044">
        <ele>2030</ele>
        <time>2021-07-10T13:10:18.568Z</time>
      </trkpt>
      <trkpt lat="46.37819" lon="8.02045">
        <ele>2030</ele>
        <time>2021-07-10T13:10:19.568Z</time>
      </trkpt>
      <trkpt lat="46.3782" lon="8.02047">
        <ele>2030</ele>
        <time>2021-07-10T13:10:20.568Z</time>
      </trkpt>
      <trkpt lat="46.37821" lon="8.02048">
        <ele>2029</ele>
        <time>2021-07-10T13:10:21.569Z</time>
      </trkpt>
      <trkpt lat="46.37821" lon="8.02049">
        <ele>2029</ele>
        <time>2021-07-10T13:10:22.568Z</time>
      </trkpt>
      <trkpt lat="46.37822" lon="8.0205">
        <ele>2029</ele>
        <time>2021-07-10T13:10:23.569Z</time>
      </trkpt>
      <trkpt lat="46.37823" lon="8.02051">
        <ele>2029</ele>
        <time>2021-07-10T13:10:24.568Z</time>
      </trkpt>
      <trkpt lat="46.37824" lon="8.02052">
        <ele>2029</ele>
        <time>2021-07-10T13:10:25.569Z</time>
      </trkpt>
      <trkpt lat="46.37825" lon="8.02053">
        <ele>2029</ele>
        <time>2021-07-10T13:10:26.569Z</time>
      </trkpt>
      <trkpt lat="46.37826" lon="8.02054">
        <ele>2029</ele>
        <time>2021-07-10T13:10:27.569Z</time>
      </trkpt>
      <trkpt lat="46.37827" lon="8.02055">
        <ele>2028</ele>
        <time>2021-07-10T13:10:28.569Z</time>
      </trkpt>
      <trkpt lat="46.37828" lon="8.02056">
        <ele>2028</ele>
        <time>2021-07-10T13:10:29.569Z</time>
      </trkpt>
      <trkpt lat="46.37828" lon="8.02058">
        <ele>2028</ele>
        <time>2021-07-10T13:10:30.568Z</time>
      </trkpt>
      <trkpt lat="46.37829" lon="8.02059">
        <ele>2028</ele>
        <time>2021-07-10T13:10:31.569Z</time>
      </trkpt>
      <trkpt lat="46.3783" lon="8.0206">
        <ele>2028</ele>
        <time>2021-07-10T13:10:32.569Z</time>
      </trkpt>
      <trkpt lat="46.37831" lon="8.02062">
        <ele>2028</ele>
        <time>2021-07-10T13:10:33.569Z</time>
      </trkpt>
      <trkpt lat="46.37832" lon="8.02063">
        <ele>2028</ele>
        <time>2021-07-10T13:10:34.568Z</time>
      </trkpt>
      <trkpt lat="46.37833" lon="8.02064">
        <ele>2027</ele>
        <time>2021-07-10T13:10:35.569Z</time>
      </trkpt>
      <trkpt lat="46.37833" lon="8.02065">
        <ele>2027</ele>
        <time>2021-07-10T13:10:36.568Z</time>
      </trkpt>
      <trkpt lat="46.37834" lon="8.02066">
        <ele>2028</ele>
        <time>2021-07-10T13:10:37.569Z</time>
      </trkpt>
      <trkpt lat="46.37835" lon="8.02067">
        <ele>2027</ele>
        <time>2021-07-10T13:10:38.568Z</time>
      </trkpt>
      <trkpt lat="46.37836" lon="8.02067">
        <ele>2027</ele>
        <time>2021-07-10T13:10:39.569Z</time>
      </trkpt>
      <trkpt lat="46.37837" lon="8.02068">
        <ele>2027</ele>
        <time>2021-07-10T13:10:40.568Z</time>
      </trkpt>
      <trkpt lat="46.37838" lon="8.02069">
        <ele>2026</ele>
        <time>2021-07-10T13:10:41.569Z</time>
      </trkpt>
      <trkpt lat="46.37839" lon="8.0207">
        <ele>2025</ele>
        <time>2021-07-10T13:10:42.569Z</time>
      </trkpt>
      <trkpt lat="46.37839" lon="8.02071">
        <ele>2025</ele>
        <time>2021-07-10T13:10:43.569Z</time>
      </trkpt>
      <trkpt lat="46.3784" lon="8.02072">
        <ele>2024</ele>
        <time>2021-07-10T13:10:44.568Z</time>
      </trkpt>
      <trkpt lat="46.37841" lon="8.02073">
        <ele>2024</ele>
        <time>2021-07-10T13:10:45.569Z</time>
      </trkpt>
      <trkpt lat="46.37842" lon="8.02074">
        <ele>2023</ele>
        <time>2021-07-10T13:10:46.569Z</time>
      </trkpt>
      <trkpt lat="46.37843" lon="8.02075">
        <ele>2023</ele>
        <time>2021-07-10T13:10:47.569Z</time>
      </trkpt>
      <trkpt lat="46.37844" lon="8.02077">
        <ele>2023</ele>
        <time>2021-07-10T13:10:48.569Z</time>
      </trkpt>
      <trkpt lat="46.37845" lon="8.02078">
        <ele>2023</ele>
        <time>2021-07-10T13:10:49.569Z</time>
      </trkpt>
      <trkpt lat="46.37845" lon="8.0208">
        <ele>2023</ele>
        <time>2021-07-10T13:10:50.569Z</time>
      </trkpt>
      <trkpt lat="46.37846" lon="8.02081">
        <ele>2023</ele>
        <time>2021-07-10T13:10:51.568Z</time>
      </trkpt>
      <trkpt lat="46.37846" lon="8.02083">
        <ele>2023</ele>
        <time>2021-07-10T13:10:52.569Z</time>
      </trkpt>
      <trkpt lat="46.37847" lon="8.02085">
        <ele>2024</ele>
        <time>2021-07-10T13:10:53.568Z</time>
      </trkpt>
      <trkpt lat="46.37848" lon="8.02086">
        <ele>2024</ele>
        <time>2021-07-10T13:10:54.569Z</time>
      </trkpt>
      <trkpt lat="46.37848" lon="8.02088">
        <ele>2024</ele>
        <time>2021-07-10T13:10:55.569Z</time>
      </trkpt>
      <trkpt lat="46.37849" lon="8.02089">
        <ele>2024</ele>
        <time>2021-07-10T13:10:56.568Z</time>
      </trkpt>
      <trkpt lat="46.3785" lon="8.0209">
        <ele>2024</ele>
        <time>2021-07-10T13:10:57.568Z</time>
      </trkpt>
      <trkpt lat="46.3785" lon="8.02092">
        <ele>2024</ele>
        <time>2021-07-10T13:10:58.569Z</time>
      </trkpt>
      <trkpt lat="46.37851" lon="8.02093">
        <ele>2024</ele>
        <time>2021-07-10T13:10:59.568Z</time>
      </trkpt>
      <trkpt lat="46.37851" lon="8.02094">
        <ele>2024</ele>
        <time>2021-07-10T13:11:00.568Z</time>
      </trkpt>
      <trkpt lat="46.37851" lon="8.02096">
        <ele>2024</ele>
        <time>2021-07-10T13:11:01.568Z</time>
      </trkpt>
      <trkpt lat="46.37851" lon="8.02097">
        <ele>2024</ele>
        <time>2021-07-10T13:11:02.568Z</time>
      </trkpt>
      <trkpt lat="46.37851" lon="8.02099">
        <ele>2024</ele>
        <time>2021-07-10T13:11:03.569Z</time>
      </trkpt>
      <trkpt lat="46.37851" lon="8.02101">
        <ele>2024</ele>
        <time>2021-07-10T13:11:04.568Z</time>
      </trkpt>
      <trkpt lat="46.37851" lon="8.02103">
        <ele>2025</ele>
        <time>2021-07-10T13:11:05.569Z</time>
      </trkpt>
      <trkpt lat="46.37851" lon="8.02104">
        <ele>2025</ele>
        <time>2021-07-10T13:11:06.568Z</time>
      </trkpt>
      <trkpt lat="46.37851" lon="8.02106">
        <ele>2025</ele>
        <time>2021-07-10T13:11:07.568Z</time>
      </trkpt>
      <trkpt lat="46.37851" lon="8.02108">
        <ele>2024</ele>
        <time>2021-07-10T13:11:08.568Z</time>
      </trkpt>
      <trkpt lat="46.37851" lon="8.02109">
        <ele>2024</ele>
        <time>2021-07-10T13:11:09.568Z</time>
      </trkpt>
      <trkpt lat="46.37851" lon="8.02111">
        <ele>2024</ele>
        <time>2021-07-10T13:11:10.568Z</time>
      </trkpt>
      <trkpt lat="46.37851" lon="8.02114">
        <ele>2023</ele>
        <time>2021-07-10T13:11:11.568Z</time>
      </trkpt>
      <trkpt lat="46.37851" lon="8.02116">
        <ele>2023</ele>
        <time>2021-07-10T13:11:12.568Z</time>
      </trkpt>
      <trkpt lat="46.37851" lon="8.02119">
        <ele>2023</ele>
        <time>2021-07-10T13:11:13.569Z</time>
      </trkpt>
      <trkpt lat="46.3785" lon="8.02121">
        <ele>2022</ele>
        <time>2021-07-10T13:11:14.568Z</time>
      </trkpt>
      <trkpt lat="46.3785" lon="8.02122">
        <ele>2022</ele>
        <time>2021-07-10T13:11:15.569Z</time>
      </trkpt>
      <trkpt lat="46.3785" lon="8.02124">
        <ele>2022</ele>
        <time>2021-07-10T13:11:16.568Z</time>
      </trkpt>
      <trkpt lat="46.3785" lon="8.02125">
        <ele>2022</ele>
        <time>2021-07-10T13:11:17.569Z</time>
      </trkpt>
      <trkpt lat="46.3785" lon="8.02127">
        <ele>2022</ele>
        <time>2021-07-10T13:11:18.569Z</time>
      </trkpt>
      <trkpt lat="46.3785" lon="8.02129">
        <ele>2022</ele>
        <time>2021-07-10T13:11:19.568Z</time>
      </trkpt>
      <trkpt lat="46.3785" lon="8.0213">
        <ele>2022</ele>
        <time>2021-07-10T13:11:20.569Z</time>
      </trkpt>
      <trkpt lat="46.3785" lon="8.02132">
        <ele>2022</ele>
        <time>2021-07-10T13:11:21.568Z</time>
      </trkpt>
      <trkpt lat="46.3785" lon="8.02133">
        <ele>2022</ele>
        <time>2021-07-10T13:11:22.568Z</time>
      </trkpt>
      <trkpt lat="46.37851" lon="8.02133">
        <ele>2022</ele>
        <time>2021-07-10T13:11:23.569Z</time>
      </trkpt>
      <trkpt lat="46.37851" lon="8.02133">
        <ele>2021</ele>
        <time>2021-07-10T13:11:24.569Z</time>
      </trkpt>
      <trkpt lat="46.37851" lon="8.02134">
        <ele>2021</ele>
        <time>2021-07-10T13:11:25.568Z</time>
      </trkpt>
      <trkpt lat="46.3785" lon="8.02135">
        <ele>2020</ele>
        <time>2021-07-10T13:11:26.568Z</time>
      </trkpt>
      <trkpt lat="46.3785" lon="8.02137">
        <ele>2020</ele>
        <time>2021-07-10T13:11:27.569Z</time>
      </trkpt>
      <trkpt lat="46.3785" lon="8.02138">
        <ele>2020</ele>
        <time>2021-07-10T13:11:28.568Z</time>
      </trkpt>
      <trkpt lat="46.3785" lon="8.0214">
        <ele>2020</ele>
        <time>2021-07-10T13:11:29.569Z</time>
      </trkpt>
      <trkpt lat="46.3785" lon="8.02142">
        <ele>2020</ele>
        <time>2021-07-10T13:11:30.568Z</time>
      </trkpt>
      <trkpt lat="46.3785" lon="8.02144">
        <ele>2020</ele>
        <time>2021-07-10T13:11:31.568Z</time>
      </trkpt>
      <trkpt lat="46.3785" lon="8.02146">
        <ele>2021</ele>
        <time>2021-07-10T13:11:32.568Z</time>
      </trkpt>
      <trkpt lat="46.37851" lon="8.02148">
        <ele>2021</ele>
        <time>2021-07-10T13:11:33.568Z</time>
      </trkpt>
      <trkpt lat="46.37851" lon="8.02149">
        <ele>2020</ele>
        <time>2021-07-10T13:11:34.568Z</time>
      </trkpt>
      <trkpt lat="46.37852" lon="8.02151">
        <ele>2020</ele>
        <time>2021-07-10T13:11:35.568Z</time>
      </trkpt>
      <trkpt lat="46.37852" lon="8.02153">
        <ele>2020</ele>
        <time>2021-07-10T13:11:36.568Z</time>
      </trkpt>
      <trkpt lat="46.37853" lon="8.02154">
        <ele>2020</ele>
        <time>2021-07-10T13:11:37.568Z</time>
      </trkpt>
      <trkpt lat="46.37853" lon="8.02156">
        <ele>2020</ele>
        <time>2021-07-10T13:11:38.568Z</time>
      </trkpt>
      <trkpt lat="46.37854" lon="8.02158">
        <ele>2020</ele>
        <time>2021-07-10T13:11:39.568Z</time>
      </trkpt>
      <trkpt lat="46.37854" lon="8.02159">
        <ele>2020</ele>
        <time>2021-07-10T13:11:40.568Z</time>
      </trkpt>
      <trkpt lat="46.37854" lon="8.0216">
        <ele>2020</ele>
        <time>2021-07-10T13:11:41.568Z</time>
      </trkpt>
      <trkpt lat="46.37855" lon="8.02161">
        <ele>2020</ele>
        <time>2021-07-10T13:11:42.569Z</time>
      </trkpt>
      <trkpt lat="46.37855" lon="8.02162">
        <ele>2020</ele>
        <time>2021-07-10T13:11:43.568Z</time>
      </trkpt>
      <trkpt lat="46.37855" lon="8.02162">
        <ele>2021</ele>
        <time>2021-07-10T13:11:44.568Z</time>
      </trkpt>
      <trkpt lat="46.37857" lon="8.0216">
        <ele>2023</ele>
        <time>2021-07-10T13:11:45.569Z</time>
      </trkpt>
      <trkpt lat="46.37857" lon="8.0216">
        <ele>2023</ele>
        <time>2021-07-10T13:11:46.569Z</time>
      </trkpt>
      <trkpt lat="46.37857" lon="8.0216">
        <ele>2023</ele>
        <time>2021-07-10T13:11:47.569Z</time>
      </trkpt>
      <trkpt lat="46.37857" lon="8.02161">
        <ele>2022</ele>
        <time>2021-07-10T13:11:48.569Z</time>
      </trkpt>
      <trkpt lat="46.37857" lon="8.02161">
        <ele>2022</ele>
        <time>2021-07-10T13:11:49.569Z</time>
      </trkpt>
      <trkpt lat="46.37856" lon="8.02161">
        <ele>2022</ele>
        <time>2021-07-10T13:11:50.569Z</time>
      </trkpt>
      <trkpt lat="46.37854" lon="8.0216">
        <ele>2021</ele>
        <time>2021-07-10T13:11:51.568Z</time>
      </trkpt>
      <trkpt lat="46.37853" lon="8.0216">
        <ele>2021</ele>
        <time>2021-07-10T13:11:52.568Z</time>
      </trkpt>
      <trkpt lat="46.37853" lon="8.0216">
        <ele>2020</ele>
        <time>2021-07-10T13:11:53.569Z</time>
      </trkpt>
      <trkpt lat="46.37853" lon="8.0216">
        <ele>2020</ele>
        <time>2021-07-10T13:11:54.569Z</time>
      </trkpt>
      <trkpt lat="46.37853" lon="8.0216">
        <ele>2019</ele>
        <time>2021-07-10T13:11:55.569Z</time>
      </trkpt>
      <trkpt lat="46.37854" lon="8.02161">
        <ele>2018</ele>
        <time>2021-07-10T13:11:56.568Z</time>
      </trkpt>
      <trkpt lat="46.37854" lon="8.02161">
        <ele>2018</ele>
        <time>2021-07-10T13:11:57.569Z</time>
      </trkpt>
      <trkpt lat="46.37855" lon="8.02159">
        <ele>2016</ele>
        <time>2021-07-10T13:11:58.568Z</time>
      </trkpt>
      <trkpt lat="46.37855" lon="8.0216">
        <ele>2015</ele>
        <time>2021-07-10T13:11:59.568Z</time>
      </trkpt>
      <trkpt lat="46.37855" lon="8.02159">
        <ele>2014</ele>
        <time>2021-07-10T13:12:00.568Z</time>
      </trkpt>
      <trkpt lat="46.37855" lon="8.02162">
        <ele>2016</ele>
        <time>2021-07-10T13:12:01.569Z</time>
      </trkpt>
      <trkpt lat="46.37856" lon="8.02163">
        <ele>2017</ele>
        <time>2021-07-10T13:12:02.569Z</time>
      </trkpt>
      <trkpt lat="46.37857" lon="8.02163">
        <ele>2018</ele>
        <time>2021-07-10T13:12:03.568Z</time>
      </trkpt>
      <trkpt lat="46.37856" lon="8.02164">
        <ele>2023</ele>
        <time>2021-07-10T13:12:04.568Z</time>
      </trkpt>
      <trkpt lat="46.37857" lon="8.02166">
        <ele>2024</ele>
        <time>2021-07-10T13:12:05.569Z</time>
      </trkpt>
      <trkpt lat="46.37857" lon="8.02166">
        <ele>2024</ele>
        <time>2021-07-10T13:12:06.569Z</time>
      </trkpt>
      <trkpt lat="46.37857" lon="8.02166">
        <ele>2024</ele>
        <time>2021-07-10T13:12:07.570Z</time>
      </trkpt>
      <trkpt lat="46.37857" lon="8.02166">
        <ele>2023</ele>
        <time>2021-07-10T13:12:08.569Z</time>
      </trkpt>
      <trkpt lat="46.37856" lon="8.02166">
        <ele>2023</ele>
        <time>2021-07-10T13:12:09.569Z</time>
      </trkpt>
      <trkpt lat="46.37853" lon="8.02164">
        <ele>2016</ele>
        <time>2021-07-10T13:12:10.569Z</time>
      </trkpt>
      <trkpt lat="46.37853" lon="8.02164">
        <ele>2015</ele>
        <time>2021-07-10T13:12:11.569Z</time>
      </trkpt>
      <trkpt lat="46.37852" lon="8.02165">
        <ele>2015</ele>
        <time>2021-07-10T13:12:12.570Z</time>
      </trkpt>
      <trkpt lat="46.37852" lon="8.02165">
        <ele>2015</ele>
        <time>2021-07-10T13:12:13.570Z</time>
      </trkpt>
      <trkpt lat="46.3785" lon="8.02165">
        <ele>2015</ele>
        <time>2021-07-10T13:12:14.570Z</time>
      </trkpt>
      <trkpt lat="46.3785" lon="8.02165">
        <ele>2015</ele>
        <time>2021-07-10T13:12:15.570Z</time>
      </trkpt>
      <trkpt lat="46.37848" lon="8.02163">
        <ele>2015</ele>
        <time>2021-07-10T13:12:16.570Z</time>
      </trkpt>
      <trkpt lat="46.37848" lon="8.02161">
        <ele>2015</ele>
        <time>2021-07-10T13:12:17.570Z</time>
      </trkpt>
      <trkpt lat="46.37847" lon="8.0216">
        <ele>2016</ele>
        <time>2021-07-10T13:12:18.569Z</time>
      </trkpt>
      <trkpt lat="46.37846" lon="8.0216">
        <ele>2016</ele>
        <time>2021-07-10T13:12:19.570Z</time>
      </trkpt>
      <trkpt lat="46.37846" lon="8.02159">
        <ele>2016</ele>
        <time>2021-07-10T13:12:20.570Z</time>
      </trkpt>
      <trkpt lat="46.37847" lon="8.02159">
        <ele>2017</ele>
        <time>2021-07-10T13:12:21.569Z</time>
      </trkpt>
      <trkpt lat="46.37847" lon="8.0216">
        <ele>2017</ele>
        <time>2021-07-10T13:12:22.569Z</time>
      </trkpt>
      <trkpt lat="46.37847" lon="8.02162">
        <ele>2017</ele>
        <time>2021-07-10T13:12:23.570Z</time>
      </trkpt>
      <trkpt lat="46.37848" lon="8.02163">
        <ele>2017</ele>
        <time>2021-07-10T13:12:24.569Z</time>
      </trkpt>
      <trkpt lat="46.37849" lon="8.02166">
        <ele>2017</ele>
        <time>2021-07-10T13:12:25.570Z</time>
      </trkpt>
      <trkpt lat="46.3785" lon="8.02168">
        <ele>2017</ele>
        <time>2021-07-10T13:12:26.569Z</time>
      </trkpt>
      <trkpt lat="46.37851" lon="8.0217">
        <ele>2017</ele>
        <time>2021-07-10T13:12:27.569Z</time>
      </trkpt>
      <trkpt lat="46.37852" lon="8.02173">
        <ele>2017</ele>
        <time>2021-07-10T13:12:28.570Z</time>
      </trkpt>
      <trkpt lat="46.37853" lon="8.02175">
        <ele>2017</ele>
        <time>2021-07-10T13:12:29.570Z</time>
      </trkpt>
      <trkpt lat="46.37853" lon="8.02178">
        <ele>2017</ele>
        <time>2021-07-10T13:12:30.569Z</time>
      </trkpt>
      <trkpt lat="46.37854" lon="8.0218">
        <ele>2017</ele>
        <time>2021-07-10T13:12:31.570Z</time>
      </trkpt>
      <trkpt lat="46.37854" lon="8.02181">
        <ele>2017</ele>
        <time>2021-07-10T13:12:32.569Z</time>
      </trkpt>
      <trkpt lat="46.37855" lon="8.02183">
        <ele>2017</ele>
        <time>2021-07-10T13:12:33.570Z</time>
      </trkpt>
      <trkpt lat="46.37855" lon="8.02185">
        <ele>2017</ele>
        <time>2021-07-10T13:12:34.570Z</time>
      </trkpt>
      <trkpt lat="46.37855" lon="8.02187">
        <ele>2017</ele>
        <time>2021-07-10T13:12:35.570Z</time>
      </trkpt>
      <trkpt lat="46.37855" lon="8.02189">
        <ele>2017</ele>
        <time>2021-07-10T13:12:36.570Z</time>
      </trkpt>
      <trkpt lat="46.37856" lon="8.02191">
        <ele>2018</ele>
        <time>2021-07-10T13:12:37.569Z</time>
      </trkpt>
      <trkpt lat="46.37856" lon="8.02192">
        <ele>2018</ele>
        <time>2021-07-10T13:12:38.569Z</time>
      </trkpt>
      <trkpt lat="46.37856" lon="8.02194">
        <ele>2018</ele>
        <time>2021-07-10T13:12:39.570Z</time>
      </trkpt>
      <trkpt lat="46.37857" lon="8.02195">
        <ele>2018</ele>
        <time>2021-07-10T13:12:40.569Z</time>
      </trkpt>
      <trkpt lat="46.37857" lon="8.02197">
        <ele>2018</ele>
        <time>2021-07-10T13:12:51.689Z</time>
      </trkpt>
      <trkpt lat="46.37857" lon="8.02198">
        <ele>2018</ele>
        <time>2021-07-10T13:12:52.690Z</time>
      </trkpt>
      <trkpt lat="46.37858" lon="8.022">
        <ele>2017</ele>
        <time>2021-07-10T13:12:53.690Z</time>
      </trkpt>
      <trkpt lat="46.37858" lon="8.02201">
        <ele>2016</ele>
        <time>2021-07-10T13:12:59.715Z</time>
      </trkpt>
      <trkpt lat="46.37859" lon="8.02203">
        <ele>2015</ele>
        <time>2021-07-10T13:13:00.714Z</time>
      </trkpt>
      <trkpt lat="46.3786" lon="8.02205">
        <ele>2014</ele>
        <time>2021-07-10T13:13:01.715Z</time>
      </trkpt>
      <trkpt lat="46.37861" lon="8.02207">
        <ele>2013</ele>
        <time>2021-07-10T13:13:02.715Z</time>
      </trkpt>
      <trkpt lat="46.37861" lon="8.02208">
        <ele>2012</ele>
        <time>2021-07-10T13:13:03.714Z</time>
      </trkpt>
      <trkpt lat="46.37862" lon="8.0221">
        <ele>2012</ele>
        <time>2021-07-10T13:13:05.839Z</time>
      </trkpt>
      <trkpt lat="46.37862" lon="8.02212">
        <ele>2012</ele>
        <time>2021-07-10T13:13:06.838Z</time>
      </trkpt>
      <trkpt lat="46.37863" lon="8.02213">
        <ele>2011</ele>
        <time>2021-07-10T13:13:07.839Z</time>
      </trkpt>
      <trkpt lat="46.37863" lon="8.02215">
        <ele>2011</ele>
        <time>2021-07-10T13:13:08.838Z</time>
      </trkpt>
      <trkpt lat="46.37863" lon="8.02217">
        <ele>2011</ele>
        <time>2021-07-10T13:13:09.838Z</time>
      </trkpt>
      <trkpt lat="46.37864" lon="8.02219">
        <ele>2011</ele>
        <time>2021-07-10T13:13:10.838Z</time>
      </trkpt>
      <trkpt lat="46.37864" lon="8.0222">
        <ele>2011</ele>
        <time>2021-07-10T13:13:11.838Z</time>
      </trkpt>
      <trkpt lat="46.37864" lon="8.02221">
        <ele>2011</ele>
        <time>2021-07-10T13:13:12.839Z</time>
      </trkpt>
      <trkpt lat="46.37863" lon="8.02224">
        <ele>2011</ele>
        <time>2021-07-10T13:13:13.839Z</time>
      </trkpt>
      <trkpt lat="46.37864" lon="8.02226">
        <ele>2011</ele>
        <time>2021-07-10T13:13:14.839Z</time>
      </trkpt>
      <trkpt lat="46.37865" lon="8.02228">
        <ele>2011</ele>
        <time>2021-07-10T13:13:15.838Z</time>
      </trkpt>
      <trkpt lat="46.37865" lon="8.0223">
        <ele>2011</ele>
        <time>2021-07-10T13:13:16.838Z</time>
      </trkpt>
      <trkpt lat="46.37867" lon="8.02231">
        <ele>2011</ele>
        <time>2021-07-10T13:13:17.838Z</time>
      </trkpt>
      <trkpt lat="46.37868" lon="8.02232">
        <ele>2012</ele>
        <time>2021-07-10T13:13:18.839Z</time>
      </trkpt>
      <trkpt lat="46.3787" lon="8.02234">
        <ele>2012</ele>
        <time>2021-07-10T13:13:19.838Z</time>
      </trkpt>
      <trkpt lat="46.37871" lon="8.02237">
        <ele>2012</ele>
        <time>2021-07-10T13:13:20.839Z</time>
      </trkpt>
      <trkpt lat="46.37872" lon="8.02238">
        <ele>2013</ele>
        <time>2021-07-10T13:13:21.839Z</time>
      </trkpt>
      <trkpt lat="46.37873" lon="8.02239">
        <ele>2013</ele>
        <time>2021-07-10T13:13:22.839Z</time>
      </trkpt>
      <trkpt lat="46.37873" lon="8.0224">
        <ele>2013</ele>
        <time>2021-07-10T13:13:23.839Z</time>
      </trkpt>
      <trkpt lat="46.37872" lon="8.02242">
        <ele>2013</ele>
        <time>2021-07-10T13:13:24.839Z</time>
      </trkpt>
      <trkpt lat="46.37872" lon="8.02244">
        <ele>2014</ele>
        <time>2021-07-10T13:13:25.839Z</time>
      </trkpt>
      <trkpt lat="46.37872" lon="8.02246">
        <ele>2014</ele>
        <time>2021-07-10T13:13:26.838Z</time>
      </trkpt>
      <trkpt lat="46.37871" lon="8.02248">
        <ele>2014</ele>
        <time>2021-07-10T13:13:27.839Z</time>
      </trkpt>
      <trkpt lat="46.37872" lon="8.02249">
        <ele>2015</ele>
        <time>2021-07-10T13:13:28.839Z</time>
      </trkpt>
      <trkpt lat="46.37872" lon="8.02249">
        <ele>2015</ele>
        <time>2021-07-10T13:13:29.838Z</time>
      </trkpt>
      <trkpt lat="46.37872" lon="8.0225">
        <ele>2014</ele>
        <time>2021-07-10T13:13:30.839Z</time>
      </trkpt>
      <trkpt lat="46.37872" lon="8.02252">
        <ele>2014</ele>
        <time>2021-07-10T13:13:31.838Z</time>
      </trkpt>
      <trkpt lat="46.37873" lon="8.02253">
        <ele>2014</ele>
        <time>2021-07-10T13:13:32.839Z</time>
      </trkpt>
      <trkpt lat="46.37873" lon="8.02254">
        <ele>2013</ele>
        <time>2021-07-10T13:13:33.839Z</time>
      </trkpt>
      <trkpt lat="46.37873" lon="8.02255">
        <ele>2013</ele>
        <time>2021-07-10T13:13:34.839Z</time>
      </trkpt>
      <trkpt lat="46.37874" lon="8.02256">
        <ele>2013</ele>
        <time>2021-07-10T13:13:35.838Z</time>
      </trkpt>
      <trkpt lat="46.37874" lon="8.02258">
        <ele>2013</ele>
        <time>2021-07-10T13:13:36.838Z</time>
      </trkpt>
      <trkpt lat="46.37874" lon="8.02259">
        <ele>2013</ele>
        <time>2021-07-10T13:13:37.838Z</time>
      </trkpt>
      <trkpt lat="46.37875" lon="8.02261">
        <ele>2013</ele>
        <time>2021-07-10T13:13:38.839Z</time>
      </trkpt>
      <trkpt lat="46.37875" lon="8.02263">
        <ele>2013</ele>
        <time>2021-07-10T13:13:39.839Z</time>
      </trkpt>
      <trkpt lat="46.37875" lon="8.02264">
        <ele>2013</ele>
        <time>2021-07-10T13:13:40.838Z</time>
      </trkpt>
      <trkpt lat="46.37876" lon="8.02266">
        <ele>2013</ele>
        <time>2021-07-10T13:13:41.839Z</time>
      </trkpt>
      <trkpt lat="46.37876" lon="8.02268">
        <ele>2013</ele>
        <time>2021-07-10T13:13:42.838Z</time>
      </trkpt>
      <trkpt lat="46.37876" lon="8.02269">
        <ele>2014</ele>
        <time>2021-07-10T13:13:43.839Z</time>
      </trkpt>
      <trkpt lat="46.37877" lon="8.0227">
        <ele>2014</ele>
        <time>2021-07-10T13:13:44.838Z</time>
      </trkpt>
      <trkpt lat="46.37877" lon="8.02271">
        <ele>2014</ele>
        <time>2021-07-10T13:13:45.838Z</time>
      </trkpt>
      <trkpt lat="46.37877" lon="8.02272">
        <ele>2014</ele>
        <time>2021-07-10T13:13:46.839Z</time>
      </trkpt>
      <trkpt lat="46.37877" lon="8.02274">
        <ele>2014</ele>
        <time>2021-07-10T13:13:47.839Z</time>
      </trkpt>
      <trkpt lat="46.37877" lon="8.02275">
        <ele>2015</ele>
        <time>2021-07-10T13:13:48.839Z</time>
      </trkpt>
      <trkpt lat="46.37877" lon="8.02277">
        <ele>2015</ele>
        <time>2021-07-10T13:13:49.839Z</time>
      </trkpt>
      <trkpt lat="46.37877" lon="8.02279">
        <ele>2015</ele>
        <time>2021-07-10T13:13:50.839Z</time>
      </trkpt>
      <trkpt lat="46.37878" lon="8.02281">
        <ele>2015</ele>
        <time>2021-07-10T13:13:51.838Z</time>
      </trkpt>
      <trkpt lat="46.37878" lon="8.02282">
        <ele>2015</ele>
        <time>2021-07-10T13:13:52.839Z</time>
      </trkpt>
      <trkpt lat="46.37878" lon="8.02283">
        <ele>2014</ele>
        <time>2021-07-10T13:13:53.839Z</time>
      </trkpt>
      <trkpt lat="46.37878" lon="8.02283">
        <ele>2014</ele>
        <time>2021-07-10T13:13:54.839Z</time>
      </trkpt>
      <trkpt lat="46.37879" lon="8.02283">
        <ele>2013</ele>
        <time>2021-07-10T13:13:55.839Z</time>
      </trkpt>
      <trkpt lat="46.37871" lon="8.02284">
        <ele>2009</ele>
        <time>2021-07-10T13:13:56.840Z</time>
      </trkpt>
      <trkpt lat="46.3787" lon="8.02283">
        <ele>2009</ele>
        <time>2021-07-10T13:13:57.839Z</time>
      </trkpt>
      <trkpt lat="46.3787" lon="8.02283">
        <ele>2009</ele>
        <time>2021-07-10T13:13:58.839Z</time>
      </trkpt>
      <trkpt lat="46.3787" lon="8.02282">
        <ele>2009</ele>
        <time>2021-07-10T13:13:59.839Z</time>
      </trkpt>
      <trkpt lat="46.3787" lon="8.02281">
        <ele>2009</ele>
        <time>2021-07-10T13:14:00.839Z</time>
      </trkpt>
      <trkpt lat="46.37869" lon="8.0228">
        <ele>2010</ele>
        <time>2021-07-10T13:14:01.839Z</time>
      </trkpt>
      <trkpt lat="46.37867" lon="8.02279">
        <ele>2010</ele>
        <time>2021-07-10T13:14:02.839Z</time>
      </trkpt>
      <trkpt lat="46.37867" lon="8.02279">
        <ele>2010</ele>
        <time>2021-07-10T13:14:03.839Z</time>
      </trkpt>
      <trkpt lat="46.37866" lon="8.0228">
        <ele>2010</ele>
        <time>2021-07-10T13:14:04.839Z</time>
      </trkpt>
      <trkpt lat="46.37867" lon="8.02281">
        <ele>2010</ele>
        <time>2021-07-10T13:14:05.839Z</time>
      </trkpt>
      <trkpt lat="46.37868" lon="8.02283">
        <ele>2010</ele>
        <time>2021-07-10T13:14:06.839Z</time>
      </trkpt>
      <trkpt lat="46.37869" lon="8.02285">
        <ele>2011</ele>
        <time>2021-07-10T13:14:07.839Z</time>
      </trkpt>
      <trkpt lat="46.37869" lon="8.02287">
        <ele>2011</ele>
        <time>2021-07-10T13:14:08.839Z</time>
      </trkpt>
      <trkpt lat="46.37869" lon="8.02289">
        <ele>2012</ele>
        <time>2021-07-10T13:14:09.839Z</time>
      </trkpt>
      <trkpt lat="46.37869" lon="8.02291">
        <ele>2012</ele>
        <time>2021-07-10T13:14:10.840Z</time>
      </trkpt>
      <trkpt lat="46.37869" lon="8.02293">
        <ele>2012</ele>
        <time>2021-07-10T13:14:11.839Z</time>
      </trkpt>
      <trkpt lat="46.37869" lon="8.02295">
        <ele>2012</ele>
        <time>2021-07-10T13:14:12.840Z</time>
      </trkpt>
      <trkpt lat="46.37869" lon="8.02296">
        <ele>2013</ele>
        <time>2021-07-10T13:14:13.839Z</time>
      </trkpt>
      <trkpt lat="46.37868" lon="8.02296">
        <ele>2013</ele>
        <time>2021-07-10T13:14:14.840Z</time>
      </trkpt>
      <trkpt lat="46.37868" lon="8.02296">
        <ele>2013</ele>
        <time>2021-07-10T13:14:15.840Z</time>
      </trkpt>
      <trkpt lat="46.37867" lon="8.02295">
        <ele>2013</ele>
        <time>2021-07-10T13:14:16.839Z</time>
      </trkpt>
      <trkpt lat="46.37867" lon="8.02294">
        <ele>2012</ele>
        <time>2021-07-10T13:14:17.839Z</time>
      </trkpt>
      <trkpt lat="46.37867" lon="8.02294">
        <ele>2012</ele>
        <time>2021-07-10T13:14:18.839Z</time>
      </trkpt>
      <trkpt lat="46.37867" lon="8.02293">
        <ele>2012</ele>
        <time>2021-07-10T13:14:19.839Z</time>
      </trkpt>
      <trkpt lat="46.37867" lon="8.02294">
        <ele>2012</ele>
        <time>2021-07-10T13:14:20.840Z</time>
      </trkpt>
      <trkpt lat="46.37867" lon="8.02295">
        <ele>2012</ele>
        <time>2021-07-10T13:14:21.839Z</time>
      </trkpt>
      <trkpt lat="46.37867" lon="8.02295">
        <ele>2013</ele>
        <time>2021-07-10T13:14:22.839Z</time>
      </trkpt>
      <trkpt lat="46.37868" lon="8.02295">
        <ele>2013</ele>
        <time>2021-07-10T13:14:23.839Z</time>
      </trkpt>
      <trkpt lat="46.37868" lon="8.02295">
        <ele>2013</ele>
        <time>2021-07-10T13:14:24.840Z</time>
      </trkpt>
      <trkpt lat="46.37868" lon="8.02294">
        <ele>2013</ele>
        <time>2021-07-10T13:14:25.839Z</time>
      </trkpt>
      <trkpt lat="46.37869" lon="8.02294">
        <ele>2013</ele>
        <time>2021-07-10T13:14:26.839Z</time>
      </trkpt>
      <trkpt lat="46.37871" lon="8.02291">
        <ele>2014</ele>
        <time>2021-07-10T13:14:27.840Z</time>
      </trkpt>
      <trkpt lat="46.37871" lon="8.02289">
        <ele>2015</ele>
        <time>2021-07-10T13:14:28.840Z</time>
      </trkpt>
      <trkpt lat="46.37871" lon="8.02291">
        <ele>2015</ele>
        <time>2021-07-10T13:14:29.840Z</time>
      </trkpt>
      <trkpt lat="46.37871" lon="8.02292">
        <ele>2016</ele>
        <time>2021-07-10T13:14:30.840Z</time>
      </trkpt>
      <trkpt lat="46.37871" lon="8.02294">
        <ele>2016</ele>
        <time>2021-07-10T13:14:31.839Z</time>
      </trkpt>
      <trkpt lat="46.37871" lon="8.02295">
        <ele>2016</ele>
        <time>2021-07-10T13:14:32.840Z</time>
      </trkpt>
      <trkpt lat="46.37871" lon="8.02297">
        <ele>2016</ele>
        <time>2021-07-10T13:14:33.840Z</time>
      </trkpt>
      <trkpt lat="46.37871" lon="8.02298">
        <ele>2016</ele>
        <time>2021-07-10T13:14:34.840Z</time>
      </trkpt>
      <trkpt lat="46.37871" lon="8.02299">
        <ele>2017</ele>
        <time>2021-07-10T13:14:35.839Z</time>
      </trkpt>
      <trkpt lat="46.3787" lon="8.02301">
        <ele>2017</ele>
        <time>2021-07-10T13:14:36.840Z</time>
      </trkpt>
      <trkpt lat="46.3787" lon="8.02302">
        <ele>2017</ele>
        <time>2021-07-10T13:14:37.840Z</time>
      </trkpt>
      <trkpt lat="46.37869" lon="8.02304">
        <ele>2017</ele>
        <time>2021-07-10T13:14:38.840Z</time>
      </trkpt>
      <trkpt lat="46.37869" lon="8.02306">
        <ele>2017</ele>
        <time>2021-07-10T13:14:39.840Z</time>
      </trkpt>
      <trkpt lat="46.37868" lon="8.02309">
        <ele>2017</ele>
        <time>2021-07-10T13:14:40.840Z</time>
      </trkpt>
      <trkpt lat="46.37868" lon="8.02311">
        <ele>2017</ele>
        <time>2021-07-10T13:14:41.839Z</time>
      </trkpt>
      <trkpt lat="46.37868" lon="8.02313">
        <ele>2017</ele>
        <time>2021-07-10T13:14:42.839Z</time>
      </trkpt>
      <trkpt lat="46.37868" lon="8.02315">
        <ele>2016</ele>
        <time>2021-07-10T13:14:43.839Z</time>
      </trkpt>
      <trkpt lat="46.37867" lon="8.02316">
        <ele>2016</ele>
        <time>2021-07-10T13:14:44.839Z</time>
      </trkpt>
      <trkpt lat="46.37867" lon="8.02317">
        <ele>2015</ele>
        <time>2021-07-10T13:14:45.839Z</time>
      </trkpt>
      <trkpt lat="46.37866" lon="8.02319">
        <ele>2014</ele>
        <time>2021-07-10T13:14:46.839Z</time>
      </trkpt>
      <trkpt lat="46.37866" lon="8.0232">
        <ele>2014</ele>
        <time>2021-07-10T13:14:47.840Z</time>
      </trkpt>
      <trkpt lat="46.37866" lon="8.02321">
        <ele>2013</ele>
        <time>2021-07-10T13:14:48.839Z</time>
      </trkpt>
      <trkpt lat="46.37865" lon="8.02323">
        <ele>2013</ele>
        <time>2021-07-10T13:14:49.840Z</time>
      </trkpt>
      <trkpt lat="46.37865" lon="8.02325">
        <ele>2012</ele>
        <time>2021-07-10T13:14:50.840Z</time>
      </trkpt>
      <trkpt lat="46.37865" lon="8.02326">
        <ele>2012</ele>
        <time>2021-07-10T13:14:51.840Z</time>
      </trkpt>
      <trkpt lat="46.37865" lon="8.02327">
        <ele>2012</ele>
        <time>2021-07-10T13:14:52.840Z</time>
      </trkpt>
      <trkpt lat="46.37865" lon="8.02328">
        <ele>2011</ele>
        <time>2021-07-10T13:14:53.840Z</time>
      </trkpt>
      <trkpt lat="46.37865" lon="8.02329">
        <ele>2011</ele>
        <time>2021-07-10T13:14:54.839Z</time>
      </trkpt>
      <trkpt lat="46.37864" lon="8.0233">
        <ele>2011</ele>
        <time>2021-07-10T13:14:55.840Z</time>
      </trkpt>
      <trkpt lat="46.37864" lon="8.02331">
        <ele>2010</ele>
        <time>2021-07-10T13:14:56.839Z</time>
      </trkpt>
      <trkpt lat="46.37864" lon="8.02333">
        <ele>2010</ele>
        <time>2021-07-10T13:14:57.840Z</time>
      </trkpt>
      <trkpt lat="46.37864" lon="8.02335">
        <ele>2010</ele>
        <time>2021-07-10T13:14:58.839Z</time>
      </trkpt>
      <trkpt lat="46.37864" lon="8.02337">
        <ele>2010</ele>
        <time>2021-07-10T13:14:59.840Z</time>
      </trkpt>
      <trkpt lat="46.37864" lon="8.02339">
        <ele>2010</ele>
        <time>2021-07-10T13:15:00.840Z</time>
      </trkpt>
      <trkpt lat="46.37863" lon="8.0234">
        <ele>2010</ele>
        <time>2021-07-10T13:15:01.840Z</time>
      </trkpt>
      <trkpt lat="46.37863" lon="8.02342">
        <ele>2010</ele>
        <time>2021-07-10T13:15:02.840Z</time>
      </trkpt>
      <trkpt lat="46.37863" lon="8.02343">
        <ele>2011</ele>
        <time>2021-07-10T13:15:03.840Z</time>
      </trkpt>
      <trkpt lat="46.37862" lon="8.02344">
        <ele>2011</ele>
        <time>2021-07-10T13:15:04.840Z</time>
      </trkpt>
      <trkpt lat="46.37862" lon="8.02346">
        <ele>2010</ele>
        <time>2021-07-10T13:15:05.839Z</time>
      </trkpt>
      <trkpt lat="46.37862" lon="8.02347">
        <ele>2010</ele>
        <time>2021-07-10T13:15:06.839Z</time>
      </trkpt>
      <trkpt lat="46.37862" lon="8.02349">
        <ele>2010</ele>
        <time>2021-07-10T13:15:07.840Z</time>
      </trkpt>
      <trkpt lat="46.37862" lon="8.0235">
        <ele>2010</ele>
        <time>2021-07-10T13:15:08.840Z</time>
      </trkpt>
      <trkpt lat="46.37862" lon="8.02351">
        <ele>2010</ele>
        <time>2021-07-10T13:15:09.840Z</time>
      </trkpt>
      <trkpt lat="46.37862" lon="8.02351">
        <ele>2011</ele>
        <time>2021-07-10T13:15:10.840Z</time>
      </trkpt>
      <trkpt lat="46.37862" lon="8.02351">
        <ele>2011</ele>
        <time>2021-07-10T13:15:11.839Z</time>
      </trkpt>
      <trkpt lat="46.37856" lon="8.02353">
        <ele>2004</ele>
        <time>2021-07-10T13:15:12.840Z</time>
      </trkpt>
      <trkpt lat="46.37855" lon="8.02353">
        <ele>2003</ele>
        <time>2021-07-10T13:15:13.840Z</time>
      </trkpt>
      <trkpt lat="46.37855" lon="8.02353">
        <ele>2003</ele>
        <time>2021-07-10T13:15:14.840Z</time>
      </trkpt>
      <trkpt lat="46.37855" lon="8.02353">
        <ele>2002</ele>
        <time>2021-07-10T13:15:15.839Z</time>
      </trkpt>
      <trkpt lat="46.37855" lon="8.02354">
        <ele>2002</ele>
        <time>2021-07-10T13:15:16.840Z</time>
      </trkpt>
      <trkpt lat="46.37859" lon="8.0235">
        <ele>2006</ele>
        <time>2021-07-10T13:15:17.839Z</time>
      </trkpt>
      <trkpt lat="46.37859" lon="8.02349">
        <ele>2005</ele>
        <time>2021-07-10T13:15:18.839Z</time>
      </trkpt>
      <trkpt lat="46.37859" lon="8.0235">
        <ele>2005</ele>
        <time>2021-07-10T13:15:19.840Z</time>
      </trkpt>
      <trkpt lat="46.3786" lon="8.0235">
        <ele>2006</ele>
        <time>2021-07-10T13:15:20.841Z</time>
      </trkpt>
      <trkpt lat="46.37858" lon="8.02349">
        <ele>2007</ele>
        <time>2021-07-10T13:15:21.841Z</time>
      </trkpt>
      <trkpt lat="46.37858" lon="8.02349">
        <ele>2007</ele>
        <time>2021-07-10T13:15:22.841Z</time>
      </trkpt>
      <trkpt lat="46.37858" lon="8.0235">
        <ele>2007</ele>
        <time>2021-07-10T13:15:23.840Z</time>
      </trkpt>
      <trkpt lat="46.37858" lon="8.02351">
        <ele>2008</ele>
        <time>2021-07-10T13:15:24.840Z</time>
      </trkpt>
      <trkpt lat="46.37858" lon="8.02351">
        <ele>2008</ele>
        <time>2021-07-10T13:15:25.841Z</time>
      </trkpt>
      <trkpt lat="46.37859" lon="8.02352">
        <ele>2007</ele>
        <time>2021-07-10T13:15:26.842Z</time>
      </trkpt>
      <trkpt lat="46.37858" lon="8.02352">
        <ele>2007</ele>
        <time>2021-07-10T13:15:27.841Z</time>
      </trkpt>
      <trkpt lat="46.37858" lon="8.02352">
        <ele>2007</ele>
        <time>2021-07-10T13:15:28.842Z</time>
      </trkpt>
      <trkpt lat="46.37858" lon="8.02352">
        <ele>2008</ele>
        <time>2021-07-10T13:15:29.842Z</time>
      </trkpt>
      <trkpt lat="46.3786" lon="8.02353">
        <ele>2009</ele>
        <time>2021-07-10T13:15:30.843Z</time>
      </trkpt>
      <trkpt lat="46.3786" lon="8.02353">
        <ele>2009</ele>
        <time>2021-07-10T13:15:31.843Z</time>
      </trkpt>
      <trkpt lat="46.37859" lon="8.02353">
        <ele>2009</ele>
        <time>2021-07-10T13:15:32.842Z</time>
      </trkpt>
      <trkpt lat="46.3786" lon="8.02353">
        <ele>2008</ele>
        <time>2021-07-10T13:15:33.843Z</time>
      </trkpt>
      <trkpt lat="46.3786" lon="8.02352">
        <ele>2008</ele>
        <time>2021-07-10T13:15:34.843Z</time>
      </trkpt>
      <trkpt lat="46.37864" lon="8.02352">
        <ele>2016</ele>
        <time>2021-07-10T13:15:35.843Z</time>
      </trkpt>
      <trkpt lat="46.37864" lon="8.02353">
        <ele>2016</ele>
        <time>2021-07-10T13:15:36.843Z</time>
      </trkpt>
      <trkpt lat="46.37864" lon="8.02355">
        <ele>2016</ele>
        <time>2021-07-10T13:15:37.842Z</time>
      </trkpt>
      <trkpt lat="46.37864" lon="8.02356">
        <ele>2017</ele>
        <time>2021-07-10T13:15:38.842Z</time>
      </trkpt>
      <trkpt lat="46.37865" lon="8.02358">
        <ele>2017</ele>
        <time>2021-07-10T13:15:39.843Z</time>
      </trkpt>
      <trkpt lat="46.37864" lon="8.0236">
        <ele>2017</ele>
        <time>2021-07-10T13:15:40.843Z</time>
      </trkpt>
      <trkpt lat="46.37865" lon="8.02361">
        <ele>2017</ele>
        <time>2021-07-10T13:15:41.843Z</time>
      </trkpt>
      <trkpt lat="46.37866" lon="8.02363">
        <ele>2017</ele>
        <time>2021-07-10T13:15:42.842Z</time>
      </trkpt>
      <trkpt lat="46.37867" lon="8.02364">
        <ele>2017</ele>
        <time>2021-07-10T13:15:43.843Z</time>
      </trkpt>
      <trkpt lat="46.37868" lon="8.02366">
        <ele>2017</ele>
        <time>2021-07-10T13:15:44.842Z</time>
      </trkpt>
      <trkpt lat="46.37868" lon="8.02367">
        <ele>2017</ele>
        <time>2021-07-10T13:15:45.843Z</time>
      </trkpt>
      <trkpt lat="46.37868" lon="8.02369">
        <ele>2016</ele>
        <time>2021-07-10T13:15:46.843Z</time>
      </trkpt>
      <trkpt lat="46.37868" lon="8.02371">
        <ele>2016</ele>
        <time>2021-07-10T13:15:47.843Z</time>
      </trkpt>
      <trkpt lat="46.37869" lon="8.02373">
        <ele>2016</ele>
        <time>2021-07-10T13:15:48.843Z</time>
      </trkpt>
      <trkpt lat="46.37869" lon="8.02375">
        <ele>2016</ele>
        <time>2021-07-10T13:15:49.843Z</time>
      </trkpt>
      <trkpt lat="46.37869" lon="8.02376">
        <ele>2015</ele>
        <time>2021-07-10T13:15:50.842Z</time>
      </trkpt>
      <trkpt lat="46.3787" lon="8.02377">
        <ele>2015</ele>
        <time>2021-07-10T13:15:51.843Z</time>
      </trkpt>
      <trkpt lat="46.3787" lon="8.02379">
        <ele>2015</ele>
        <time>2021-07-10T13:15:52.843Z</time>
      </trkpt>
      <trkpt lat="46.3787" lon="8.0238">
        <ele>2014</ele>
        <time>2021-07-10T13:15:53.843Z</time>
      </trkpt>
      <trkpt lat="46.37871" lon="8.02381">
        <ele>2014</ele>
        <time>2021-07-10T13:15:54.843Z</time>
      </trkpt>
      <trkpt lat="46.37871" lon="8.02383">
        <ele>2014</ele>
        <time>2021-07-10T13:15:55.843Z</time>
      </trkpt>
      <trkpt lat="46.37871" lon="8.02384">
        <ele>2013</ele>
        <time>2021-07-10T13:15:56.843Z</time>
      </trkpt>
      <trkpt lat="46.37872" lon="8.02385">
        <ele>2013</ele>
        <time>2021-07-10T13:15:57.843Z</time>
      </trkpt>
      <trkpt lat="46.37873" lon="8.02386">
        <ele>2013</ele>
        <time>2021-07-10T13:15:58.843Z</time>
      </trkpt>
      <trkpt lat="46.37874" lon="8.02387">
        <ele>2012</ele>
        <time>2021-07-10T13:15:59.843Z</time>
      </trkpt>
      <trkpt lat="46.37874" lon="8.02388">
        <ele>2012</ele>
        <time>2021-07-10T13:16:00.842Z</time>
      </trkpt>
      <trkpt lat="46.37875" lon="8.0239">
        <ele>2012</ele>
        <time>2021-07-10T13:16:01.843Z</time>
      </trkpt>
      <trkpt lat="46.37876" lon="8.02392">
        <ele>2012</ele>
        <time>2021-07-10T13:16:02.843Z</time>
      </trkpt>
      <trkpt lat="46.37876" lon="8.02394">
        <ele>2012</ele>
        <time>2021-07-10T13:16:03.842Z</time>
      </trkpt>
      <trkpt lat="46.37876" lon="8.02396">
        <ele>2011</ele>
        <time>2021-07-10T13:16:04.842Z</time>
      </trkpt>
      <trkpt lat="46.37876" lon="8.02398">
        <ele>2010</ele>
        <time>2021-07-10T13:16:05.843Z</time>
      </trkpt>
      <trkpt lat="46.37876" lon="8.024">
        <ele>2010</ele>
        <time>2021-07-10T13:16:06.843Z</time>
      </trkpt>
      <trkpt lat="46.37877" lon="8.02403">
        <ele>2010</ele>
        <time>2021-07-10T13:16:07.842Z</time>
      </trkpt>
      <trkpt lat="46.37877" lon="8.02405">
        <ele>2010</ele>
        <time>2021-07-10T13:16:08.843Z</time>
      </trkpt>
      <trkpt lat="46.37877" lon="8.02408">
        <ele>2010</ele>
        <time>2021-07-10T13:16:09.843Z</time>
      </trkpt>
      <trkpt lat="46.37878" lon="8.02409">
        <ele>2010</ele>
        <time>2021-07-10T13:16:10.842Z</time>
      </trkpt>
      <trkpt lat="46.37878" lon="8.02411">
        <ele>2009</ele>
        <time>2021-07-10T13:16:11.842Z</time>
      </trkpt>
      <trkpt lat="46.37879" lon="8.02413">
        <ele>2010</ele>
        <time>2021-07-10T13:16:12.843Z</time>
      </trkpt>
      <trkpt lat="46.37879" lon="8.02414">
        <ele>2009</ele>
        <time>2021-07-10T13:16:13.842Z</time>
      </trkpt>
      <trkpt lat="46.37878" lon="8.02416">
        <ele>2009</ele>
        <time>2021-07-10T13:16:14.843Z</time>
      </trkpt>
      <trkpt lat="46.37879" lon="8.02418">
        <ele>2009</ele>
        <time>2021-07-10T13:16:15.843Z</time>
      </trkpt>
      <trkpt lat="46.37882" lon="8.02419">
        <ele>2009</ele>
        <time>2021-07-10T13:16:16.843Z</time>
      </trkpt>
      <trkpt lat="46.37882" lon="8.02421">
        <ele>2009</ele>
        <time>2021-07-10T13:16:17.843Z</time>
      </trkpt>
      <trkpt lat="46.37888" lon="8.02423">
        <ele>2009</ele>
        <time>2021-07-10T13:16:18.842Z</time>
      </trkpt>
      <trkpt lat="46.37888" lon="8.02425">
        <ele>2008</ele>
        <time>2021-07-10T13:16:19.843Z</time>
      </trkpt>
      <trkpt lat="46.37888" lon="8.02428">
        <ele>2008</ele>
        <time>2021-07-10T13:16:20.843Z</time>
      </trkpt>
      <trkpt lat="46.37888" lon="8.02429">
        <ele>2008</ele>
        <time>2021-07-10T13:16:21.843Z</time>
      </trkpt>
      <trkpt lat="46.37888" lon="8.0243">
        <ele>2007</ele>
        <time>2021-07-10T13:16:22.842Z</time>
      </trkpt>
      <trkpt lat="46.37888" lon="8.02431">
        <ele>2006</ele>
        <time>2021-07-10T13:16:23.843Z</time>
      </trkpt>
      <trkpt lat="46.37887" lon="8.02433">
        <ele>2006</ele>
        <time>2021-07-10T13:16:24.843Z</time>
      </trkpt>
      <trkpt lat="46.37887" lon="8.02434">
        <ele>2005</ele>
        <time>2021-07-10T13:16:25.843Z</time>
      </trkpt>
      <trkpt lat="46.37887" lon="8.02436">
        <ele>2004</ele>
        <time>2021-07-10T13:16:26.842Z</time>
      </trkpt>
      <trkpt lat="46.37888" lon="8.02438">
        <ele>2004</ele>
        <time>2021-07-10T13:16:27.842Z</time>
      </trkpt>
      <trkpt lat="46.37888" lon="8.0244">
        <ele>2004</ele>
        <time>2021-07-10T13:16:28.843Z</time>
      </trkpt>
      <trkpt lat="46.37888" lon="8.02442">
        <ele>2004</ele>
        <time>2021-07-10T13:16:29.843Z</time>
      </trkpt>
      <trkpt lat="46.37888" lon="8.02444">
        <ele>2003</ele>
        <time>2021-07-10T13:16:30.843Z</time>
      </trkpt>
      <trkpt lat="46.37888" lon="8.02446">
        <ele>2003</ele>
        <time>2021-07-10T13:16:31.843Z</time>
      </trkpt>
      <trkpt lat="46.37888" lon="8.02448">
        <ele>2002</ele>
        <time>2021-07-10T13:16:32.843Z</time>
      </trkpt>
      <trkpt lat="46.37888" lon="8.0245">
        <ele>2002</ele>
        <time>2021-07-10T13:16:33.842Z</time>
      </trkpt>
      <trkpt lat="46.37889" lon="8.02451">
        <ele>2002</ele>
        <time>2021-07-10T13:16:34.843Z</time>
      </trkpt>
      <trkpt lat="46.37889" lon="8.02454">
        <ele>2001</ele>
        <time>2021-07-10T13:16:35.842Z</time>
      </trkpt>
      <trkpt lat="46.37889" lon="8.02456">
        <ele>2001</ele>
        <time>2021-07-10T13:16:36.842Z</time>
      </trkpt>
      <trkpt lat="46.37889" lon="8.02458">
        <ele>2001</ele>
        <time>2021-07-10T13:16:37.843Z</time>
      </trkpt>
      <trkpt lat="46.37889" lon="8.0246">
        <ele>2000</ele>
        <time>2021-07-10T13:16:38.843Z</time>
      </trkpt>
      <trkpt lat="46.37889" lon="8.02462">
        <ele>2000</ele>
        <time>2021-07-10T13:16:39.842Z</time>
      </trkpt>
      <trkpt lat="46.37889" lon="8.02464">
        <ele>2000</ele>
        <time>2021-07-10T13:16:40.843Z</time>
      </trkpt>
      <trkpt lat="46.37889" lon="8.02465">
        <ele>1999</ele>
        <time>2021-07-10T13:16:41.843Z</time>
      </trkpt>
      <trkpt lat="46.3789" lon="8.02467">
        <ele>1999</ele>
        <time>2021-07-10T13:16:42.843Z</time>
      </trkpt>
      <trkpt lat="46.3789" lon="8.02468">
        <ele>1998</ele>
        <time>2021-07-10T13:16:43.842Z</time>
      </trkpt>
      <trkpt lat="46.3789" lon="8.02468">
        <ele>1998</ele>
        <time>2021-07-10T13:16:44.842Z</time>
      </trkpt>
      <trkpt lat="46.3789" lon="8.02469">
        <ele>1998</ele>
        <time>2021-07-10T13:16:45.842Z</time>
      </trkpt>
      <trkpt lat="46.3789" lon="8.0247">
        <ele>1998</ele>
        <time>2021-07-10T13:16:46.843Z</time>
      </trkpt>
      <trkpt lat="46.3789" lon="8.02472">
        <ele>1998</ele>
        <time>2021-07-10T13:16:50.864Z</time>
      </trkpt>
      <trkpt lat="46.37891" lon="8.02473">
        <ele>1998</ele>
        <time>2021-07-10T13:16:51.863Z</time>
      </trkpt>
      <trkpt lat="46.37891" lon="8.02474">
        <ele>1998</ele>
        <time>2021-07-10T13:16:52.864Z</time>
      </trkpt>
      <trkpt lat="46.37891" lon="8.02476">
        <ele>1998</ele>
        <time>2021-07-10T13:16:53.864Z</time>
      </trkpt>
      <trkpt lat="46.37891" lon="8.02478">
        <ele>1998</ele>
        <time>2021-07-10T13:16:54.864Z</time>
      </trkpt>
      <trkpt lat="46.37891" lon="8.0248">
        <ele>1998</ele>
        <time>2021-07-10T13:16:56.949Z</time>
      </trkpt>
      <trkpt lat="46.37891" lon="8.02481">
        <ele>1998</ele>
        <time>2021-07-10T13:16:57.950Z</time>
      </trkpt>
      <trkpt lat="46.37891" lon="8.02483">
        <ele>1998</ele>
        <time>2021-07-10T13:17:09.698Z</time>
      </trkpt>
      <trkpt lat="46.37891" lon="8.02485">
        <ele>1999</ele>
        <time>2021-07-10T13:17:10.698Z</time>
      </trkpt>
      <trkpt lat="46.37892" lon="8.02487">
        <ele>1999</ele>
        <time>2021-07-10T13:17:11.698Z</time>
      </trkpt>
      <trkpt lat="46.37892" lon="8.0249">
        <ele>1999</ele>
        <time>2021-07-10T13:17:12.698Z</time>
      </trkpt>
      <trkpt lat="46.37892" lon="8.02491">
        <ele>1999</ele>
        <time>2021-07-10T13:17:13.697Z</time>
      </trkpt>
      <trkpt lat="46.37892" lon="8.02492">
        <ele>1999</ele>
        <time>2021-07-10T13:17:14.697Z</time>
      </trkpt>
      <trkpt lat="46.37893" lon="8.02493">
        <ele>2000</ele>
        <time>2021-07-10T13:17:15.697Z</time>
      </trkpt>
      <trkpt lat="46.37893" lon="8.02494">
        <ele>2000</ele>
        <time>2021-07-10T13:17:16.698Z</time>
      </trkpt>
      <trkpt lat="46.37893" lon="8.02495">
        <ele>2000</ele>
        <time>2021-07-10T13:17:17.697Z</time>
      </trkpt>
      <trkpt lat="46.37893" lon="8.02496">
        <ele>2000</ele>
        <time>2021-07-10T13:17:18.698Z</time>
      </trkpt>
      <trkpt lat="46.37893" lon="8.02497">
        <ele>2000</ele>
        <time>2021-07-10T13:17:19.698Z</time>
      </trkpt>
      <trkpt lat="46.37893" lon="8.02498">
        <ele>2001</ele>
        <time>2021-07-10T13:17:20.697Z</time>
      </trkpt>
      <trkpt lat="46.37893" lon="8.02499">
        <ele>2001</ele>
        <time>2021-07-10T13:17:21.697Z</time>
      </trkpt>
      <trkpt lat="46.37894" lon="8.025">
        <ele>2001</ele>
        <time>2021-07-10T13:17:22.697Z</time>
      </trkpt>
      <trkpt lat="46.37894" lon="8.02502">
        <ele>2001</ele>
        <time>2021-07-10T13:17:23.698Z</time>
      </trkpt>
      <trkpt lat="46.37894" lon="8.02504">
        <ele>2001</ele>
        <time>2021-07-10T13:17:24.698Z</time>
      </trkpt>
      <trkpt lat="46.37894" lon="8.02505">
        <ele>2001</ele>
        <time>2021-07-10T13:17:25.698Z</time>
      </trkpt>
      <trkpt lat="46.37895" lon="8.02506">
        <ele>2000</ele>
        <time>2021-07-10T13:17:26.698Z</time>
      </trkpt>
      <trkpt lat="46.37895" lon="8.02508">
        <ele>2000</ele>
        <time>2021-07-10T13:17:27.697Z</time>
      </trkpt>
      <trkpt lat="46.37896" lon="8.02509">
        <ele>1999</ele>
        <time>2021-07-10T13:17:28.697Z</time>
      </trkpt>
      <trkpt lat="46.37896" lon="8.0251">
        <ele>1999</ele>
        <time>2021-07-10T13:17:29.697Z</time>
      </trkpt>
      <trkpt lat="46.37897" lon="8.02512">
        <ele>1999</ele>
        <time>2021-07-10T13:17:30.697Z</time>
      </trkpt>
      <trkpt lat="46.37897" lon="8.02513">
        <ele>1998</ele>
        <time>2021-07-10T13:17:31.698Z</time>
      </trkpt>
      <trkpt lat="46.37898" lon="8.02515">
        <ele>1998</ele>
        <time>2021-07-10T13:17:35.821Z</time>
      </trkpt>
      <trkpt lat="46.37898" lon="8.02517">
        <ele>1998</ele>
        <time>2021-07-10T13:17:36.821Z</time>
      </trkpt>
      <trkpt lat="46.37899" lon="8.02518">
        <ele>1998</ele>
        <time>2021-07-10T13:17:37.820Z</time>
      </trkpt>
      <trkpt lat="46.37899" lon="8.02519">
        <ele>1998</ele>
        <time>2021-07-10T13:17:38.820Z</time>
      </trkpt>
      <trkpt lat="46.37899" lon="8.0252">
        <ele>1999</ele>
        <time>2021-07-10T13:17:39.820Z</time>
      </trkpt>
      <trkpt lat="46.379" lon="8.02521">
        <ele>1999</ele>
        <time>2021-07-10T13:17:40.820Z</time>
      </trkpt>
      <trkpt lat="46.379" lon="8.02522">
        <ele>1999</ele>
        <time>2021-07-10T13:17:41.820Z</time>
      </trkpt>
      <trkpt lat="46.379" lon="8.02523">
        <ele>1999</ele>
        <time>2021-07-10T13:17:42.820Z</time>
      </trkpt>
      <trkpt lat="46.379" lon="8.02523">
        <ele>1999</ele>
        <time>2021-07-10T13:17:43.820Z</time>
      </trkpt>
      <trkpt lat="46.37901" lon="8.02523">
        <ele>2000</ele>
        <time>2021-07-10T13:17:44.820Z</time>
      </trkpt>
      <trkpt lat="46.37901" lon="8.02523">
        <ele>2000</ele>
        <time>2021-07-10T13:17:45.821Z</time>
      </trkpt>
      <trkpt lat="46.37901" lon="8.02523">
        <ele>1999</ele>
        <time>2021-07-10T13:17:46.820Z</time>
      </trkpt>
      <trkpt lat="46.37901" lon="8.02524">
        <ele>1999</ele>
        <time>2021-07-10T13:17:47.820Z</time>
      </trkpt>
      <trkpt lat="46.37901" lon="8.02525">
        <ele>2000</ele>
        <time>2021-07-10T13:17:48.820Z</time>
      </trkpt>
      <trkpt lat="46.37902" lon="8.02527">
        <ele>2000</ele>
        <time>2021-07-10T13:17:49.821Z</time>
      </trkpt>
      <trkpt lat="46.37902" lon="8.02528">
        <ele>2000</ele>
        <time>2021-07-10T13:17:50.820Z</time>
      </trkpt>
      <trkpt lat="46.37903" lon="8.02529">
        <ele>2000</ele>
        <time>2021-07-10T13:17:51.821Z</time>
      </trkpt>
      <trkpt lat="46.37904" lon="8.0253">
        <ele>2000</ele>
        <time>2021-07-10T13:17:52.821Z</time>
      </trkpt>
      <trkpt lat="46.37904" lon="8.02532">
        <ele>2001</ele>
        <time>2021-07-10T13:17:53.821Z</time>
      </trkpt>
      <trkpt lat="46.37905" lon="8.02533">
        <ele>2002</ele>
        <time>2021-07-10T13:17:54.821Z</time>
      </trkpt>
      <trkpt lat="46.37905" lon="8.02534">
        <ele>2002</ele>
        <time>2021-07-10T13:17:55.821Z</time>
      </trkpt>
      <trkpt lat="46.37906" lon="8.02535">
        <ele>2002</ele>
        <time>2021-07-10T13:17:56.821Z</time>
      </trkpt>
      <trkpt lat="46.37907" lon="8.02536">
        <ele>2002</ele>
        <time>2021-07-10T13:17:57.821Z</time>
      </trkpt>
      <trkpt lat="46.37907" lon="8.02537">
        <ele>2002</ele>
        <time>2021-07-10T13:17:58.820Z</time>
      </trkpt>
      <trkpt lat="46.37908" lon="8.02538">
        <ele>2002</ele>
        <time>2021-07-10T13:17:59.821Z</time>
      </trkpt>
      <trkpt lat="46.3791" lon="8.02538">
        <ele>2001</ele>
        <time>2021-07-10T13:18:00.821Z</time>
      </trkpt>
      <trkpt lat="46.37911" lon="8.02539">
        <ele>2001</ele>
        <time>2021-07-10T13:18:01.821Z</time>
      </trkpt>
      <trkpt lat="46.37913" lon="8.0254">
        <ele>2001</ele>
        <time>2021-07-10T13:18:02.821Z</time>
      </trkpt>
      <trkpt lat="46.37914" lon="8.02541">
        <ele>2001</ele>
        <time>2021-07-10T13:18:03.821Z</time>
      </trkpt>
      <trkpt lat="46.37916" lon="8.02542">
        <ele>2001</ele>
        <time>2021-07-10T13:18:04.821Z</time>
      </trkpt>
      <trkpt lat="46.37917" lon="8.02543">
        <ele>2001</ele>
        <time>2021-07-10T13:18:05.820Z</time>
      </trkpt>
      <trkpt lat="46.37918" lon="8.02544">
        <ele>2001</ele>
        <time>2021-07-10T13:18:06.821Z</time>
      </trkpt>
      <trkpt lat="46.37919" lon="8.02545">
        <ele>2001</ele>
        <time>2021-07-10T13:18:07.821Z</time>
      </trkpt>
      <trkpt lat="46.3792" lon="8.02546">
        <ele>2001</ele>
        <time>2021-07-10T13:18:19.941Z</time>
      </trkpt>
      <trkpt lat="46.37921" lon="8.02547">
        <ele>2002</ele>
        <time>2021-07-10T13:18:20.940Z</time>
      </trkpt>
      <trkpt lat="46.37922" lon="8.02548">
        <ele>2002</ele>
        <time>2021-07-10T13:18:21.940Z</time>
      </trkpt>
      <trkpt lat="46.37923" lon="8.02549">
        <ele>2003</ele>
        <time>2021-07-10T13:18:22.941Z</time>
      </trkpt>
      <trkpt lat="46.37924" lon="8.02551">
        <ele>2003</ele>
        <time>2021-07-10T13:18:23.940Z</time>
      </trkpt>
      <trkpt lat="46.37925" lon="8.02552">
        <ele>2003</ele>
        <time>2021-07-10T13:18:24.941Z</time>
      </trkpt>
      <trkpt lat="46.37926" lon="8.02553">
        <ele>2003</ele>
        <time>2021-07-10T13:18:25.941Z</time>
      </trkpt>
      <trkpt lat="46.37927" lon="8.02555">
        <ele>2003</ele>
        <time>2021-07-10T13:18:26.940Z</time>
      </trkpt>
      <trkpt lat="46.37927" lon="8.02556">
        <ele>2003</ele>
        <time>2021-07-10T13:18:27.940Z</time>
      </trkpt>
      <trkpt lat="46.37928" lon="8.02557">
        <ele>2003</ele>
        <time>2021-07-10T13:18:28.941Z</time>
      </trkpt>
      <trkpt lat="46.37929" lon="8.02559">
        <ele>2002</ele>
        <time>2021-07-10T13:18:29.941Z</time>
      </trkpt>
      <trkpt lat="46.3793" lon="8.0256">
        <ele>2002</ele>
        <time>2021-07-10T13:18:30.941Z</time>
      </trkpt>
      <trkpt lat="46.37931" lon="8.02561">
        <ele>2003</ele>
        <time>2021-07-10T13:18:31.941Z</time>
      </trkpt>
      <trkpt lat="46.37932" lon="8.02563">
        <ele>2003</ele>
        <time>2021-07-10T13:18:32.940Z</time>
      </trkpt>
      <trkpt lat="46.37933" lon="8.02564">
        <ele>2003</ele>
        <time>2021-07-10T13:18:36.968Z</time>
      </trkpt>
      <trkpt lat="46.37934" lon="8.02565">
        <ele>2004</ele>
        <time>2021-07-10T13:18:37.969Z</time>
      </trkpt>
      <trkpt lat="46.37935" lon="8.02566">
        <ele>2004</ele>
        <time>2021-07-10T13:18:38.969Z</time>
      </trkpt>
      <trkpt lat="46.37936" lon="8.02566">
        <ele>2003</ele>
        <time>2021-07-10T13:19:05.715Z</time>
      </trkpt>
      <trkpt lat="46.37937" lon="8.02567">
        <ele>2003</ele>
        <time>2021-07-10T13:19:06.715Z</time>
      </trkpt>
      <trkpt lat="46.37938" lon="8.02568">
        <ele>2003</ele>
        <time>2021-07-10T13:19:07.715Z</time>
      </trkpt>
      <trkpt lat="46.37939" lon="8.02569">
        <ele>2003</ele>
        <time>2021-07-10T13:19:08.715Z</time>
      </trkpt>
      <trkpt lat="46.3794" lon="8.0257">
        <ele>2002</ele>
        <time>2021-07-10T13:19:09.714Z</time>
      </trkpt>
      <trkpt lat="46.37941" lon="8.02571">
        <ele>2002</ele>
        <time>2021-07-10T13:19:17.693Z</time>
      </trkpt>
      <trkpt lat="46.37942" lon="8.02572">
        <ele>2002</ele>
        <time>2021-07-10T13:19:18.693Z</time>
      </trkpt>
      <trkpt lat="46.37942" lon="8.02574">
        <ele>2002</ele>
        <time>2021-07-10T13:19:24.446Z</time>
      </trkpt>
      <trkpt lat="46.37943" lon="8.02576">
        <ele>2002</ele>
        <time>2021-07-10T13:19:25.446Z</time>
      </trkpt>
      <trkpt lat="46.37944" lon="8.02577">
        <ele>2002</ele>
        <time>2021-07-10T13:19:31.199Z</time>
      </trkpt>
      <trkpt lat="46.37944" lon="8.02579">
        <ele>2003</ele>
        <time>2021-07-10T13:19:38.071Z</time>
      </trkpt>
      <trkpt lat="46.37945" lon="8.0258">
        <ele>2003</ele>
        <time>2021-07-10T13:19:39.071Z</time>
      </trkpt>
      <trkpt lat="46.37946" lon="8.02582">
        <ele>2002</ele>
        <time>2021-07-10T13:19:40.070Z</time>
      </trkpt>
      <trkpt lat="46.37946" lon="8.02584">
        <ele>2002</ele>
        <time>2021-07-10T13:19:41.071Z</time>
      </trkpt>
      <trkpt lat="46.37947" lon="8.02586">
        <ele>2002</ele>
        <time>2021-07-10T13:19:51.190Z</time>
      </trkpt>
      <trkpt lat="46.37947" lon="8.02587">
        <ele>2002</ele>
        <time>2021-07-10T13:19:52.190Z</time>
      </trkpt>
      <trkpt lat="46.37948" lon="8.02589">
        <ele>2001</ele>
        <time>2021-07-10T13:19:53.191Z</time>
      </trkpt>
      <trkpt lat="46.37948" lon="8.0259">
        <ele>2001</ele>
        <time>2021-07-10T13:20:32.197Z</time>
      </trkpt>
      <trkpt lat="46.37949" lon="8.02592">
        <ele>2001</ele>
        <time>2021-07-10T13:20:33.197Z</time>
      </trkpt>
      <trkpt lat="46.3795" lon="8.02593">
        <ele>2001</ele>
        <time>2021-07-10T13:20:34.197Z</time>
      </trkpt>
      <trkpt lat="46.3795" lon="8.02595">
        <ele>2002</ele>
        <time>2021-07-10T13:20:35.196Z</time>
      </trkpt>
      <trkpt lat="46.37951" lon="8.02596">
        <ele>2002</ele>
        <time>2021-07-10T13:20:36.197Z</time>
      </trkpt>
      <trkpt lat="46.37952" lon="8.02597">
        <ele>2001</ele>
        <time>2021-07-10T13:20:37.197Z</time>
      </trkpt>
      <trkpt lat="46.37953" lon="8.02598">
        <ele>2001</ele>
        <time>2021-07-10T13:20:38.197Z</time>
      </trkpt>
      <trkpt lat="46.37953" lon="8.02599">
        <ele>2001</ele>
        <time>2021-07-10T13:20:39.197Z</time>
      </trkpt>
      <trkpt lat="46.37954" lon="8.02601">
        <ele>2001</ele>
        <time>2021-07-10T13:20:54.343Z</time>
      </trkpt>
      <trkpt lat="46.37955" lon="8.02603">
        <ele>2001</ele>
        <time>2021-07-10T13:21:17.224Z</time>
      </trkpt>
      <trkpt lat="46.37956" lon="8.02604">
        <ele>2001</ele>
        <time>2021-07-10T13:21:32.985Z</time>
      </trkpt>
      <trkpt lat="46.37957" lon="8.02606">
        <ele>2001</ele>
        <time>2021-07-10T13:21:33.986Z</time>
      </trkpt>
      <trkpt lat="46.37957" lon="8.02607">
        <ele>2001</ele>
        <time>2021-07-10T13:21:34.986Z</time>
      </trkpt>
      <trkpt lat="46.37958" lon="8.02608">
        <ele>2001</ele>
        <time>2021-07-10T13:21:35.986Z</time>
      </trkpt>
      <trkpt lat="46.37958" lon="8.02609">
        <ele>2001</ele>
        <time>2021-07-10T13:21:36.985Z</time>
      </trkpt>
      <trkpt lat="46.37959" lon="8.0261">
        <ele>2001</ele>
        <time>2021-07-10T13:21:37.985Z</time>
      </trkpt>
      <trkpt lat="46.37959" lon="8.0261">
        <ele>2000</ele>
        <time>2021-07-10T13:21:38.986Z</time>
      </trkpt>
      <trkpt lat="46.37959" lon="8.0261">
        <ele>2000</ele>
        <time>2021-07-10T13:21:39.986Z</time>
      </trkpt>
      <trkpt lat="46.37959" lon="8.0261">
        <ele>2000</ele>
        <time>2021-07-10T13:21:40.986Z</time>
      </trkpt>
      <trkpt lat="46.37958" lon="8.0261">
        <ele>2000</ele>
        <time>2021-07-10T13:21:41.986Z</time>
      </trkpt>
      <trkpt lat="46.37959" lon="8.02612">
        <ele>2000</ele>
        <time>2021-07-10T13:21:42.985Z</time>
      </trkpt>
      <trkpt lat="46.37959" lon="8.02613">
        <ele>2000</ele>
        <time>2021-07-10T13:21:43.985Z</time>
      </trkpt>
      <trkpt lat="46.3796" lon="8.02614">
        <ele>2001</ele>
        <time>2021-07-10T13:21:44.985Z</time>
      </trkpt>
      <trkpt lat="46.37961" lon="8.02616">
        <ele>2001</ele>
        <time>2021-07-10T13:21:45.986Z</time>
      </trkpt>
      <trkpt lat="46.37961" lon="8.02617">
        <ele>2001</ele>
        <time>2021-07-10T13:21:46.985Z</time>
      </trkpt>
      <trkpt lat="46.37962" lon="8.02618">
        <ele>2001</ele>
        <time>2021-07-10T13:21:47.986Z</time>
      </trkpt>
      <trkpt lat="46.37963" lon="8.0262">
        <ele>2001</ele>
        <time>2021-07-10T13:21:48.985Z</time>
      </trkpt>
      <trkpt lat="46.37964" lon="8.02621">
        <ele>2001</ele>
        <time>2021-07-10T13:21:49.986Z</time>
      </trkpt>
      <trkpt lat="46.37965" lon="8.02623">
        <ele>2001</ele>
        <time>2021-07-10T13:21:50.985Z</time>
      </trkpt>
      <trkpt lat="46.37966" lon="8.02624">
        <ele>2001</ele>
        <time>2021-07-10T13:21:51.986Z</time>
      </trkpt>
      <trkpt lat="46.37967" lon="8.02624">
        <ele>2001</ele>
        <time>2021-07-10T13:21:52.985Z</time>
      </trkpt>
      <trkpt lat="46.37968" lon="8.02625">
        <ele>2000</ele>
        <time>2021-07-10T13:21:53.986Z</time>
      </trkpt>
      <trkpt lat="46.37969" lon="8.02625">
        <ele>2001</ele>
        <time>2021-07-10T13:21:54.985Z</time>
      </trkpt>
      <trkpt lat="46.3797" lon="8.02626">
        <ele>2001</ele>
        <time>2021-07-10T13:21:55.986Z</time>
      </trkpt>
      <trkpt lat="46.37971" lon="8.02627">
        <ele>2001</ele>
        <time>2021-07-10T13:21:56.986Z</time>
      </trkpt>
      <trkpt lat="46.37972" lon="8.02628">
        <ele>2002</ele>
        <time>2021-07-10T13:21:57.986Z</time>
      </trkpt>
      <trkpt lat="46.37973" lon="8.02629">
        <ele>2002</ele>
        <time>2021-07-10T13:21:58.985Z</time>
      </trkpt>
      <trkpt lat="46.37974" lon="8.0263">
        <ele>2002</ele>
        <time>2021-07-10T13:21:59.985Z</time>
      </trkpt>
      <trkpt lat="46.37974" lon="8.02632">
        <ele>2002</ele>
        <time>2021-07-10T13:22:00.986Z</time>
      </trkpt>
      <trkpt lat="46.37975" lon="8.02634">
        <ele>2003</ele>
        <time>2021-07-10T13:22:01.986Z</time>
      </trkpt>
      <trkpt lat="46.37976" lon="8.02635">
        <ele>2003</ele>
        <time>2021-07-10T13:22:02.986Z</time>
      </trkpt>
      <trkpt lat="46.37977" lon="8.02637">
        <ele>2003</ele>
        <time>2021-07-10T13:22:03.986Z</time>
      </trkpt>
      <trkpt lat="46.37978" lon="8.02639">
        <ele>2003</ele>
        <time>2021-07-10T13:22:04.985Z</time>
      </trkpt>
      <trkpt lat="46.37978" lon="8.02641">
        <ele>2003</ele>
        <time>2021-07-10T13:22:05.986Z</time>
      </trkpt>
      <trkpt lat="46.37979" lon="8.02642">
        <ele>2003</ele>
        <time>2021-07-10T13:22:10.088Z</time>
      </trkpt>
      <trkpt lat="46.37979" lon="8.02644">
        <ele>2003</ele>
        <time>2021-07-10T13:22:11.087Z</time>
      </trkpt>
      <trkpt lat="46.3798" lon="8.02645">
        <ele>2003</ele>
        <time>2021-07-10T13:22:12.088Z</time>
      </trkpt>
      <trkpt lat="46.37981" lon="8.02647">
        <ele>2003</ele>
        <time>2021-07-10T13:22:13.088Z</time>
      </trkpt>
      <trkpt lat="46.37982" lon="8.02648">
        <ele>2003</ele>
        <time>2021-07-10T13:22:14.088Z</time>
      </trkpt>
      <trkpt lat="46.37982" lon="8.0265">
        <ele>2003</ele>
        <time>2021-07-10T13:22:15.088Z</time>
      </trkpt>
      <trkpt lat="46.37983" lon="8.02651">
        <ele>2003</ele>
        <time>2021-07-10T13:22:16.088Z</time>
      </trkpt>
      <trkpt lat="46.37984" lon="8.02652">
        <ele>2002</ele>
        <time>2021-07-10T13:22:17.088Z</time>
      </trkpt>
      <trkpt lat="46.37984" lon="8.02654">
        <ele>2002</ele>
        <time>2021-07-10T13:22:18.088Z</time>
      </trkpt>
      <trkpt lat="46.37985" lon="8.02657">
        <ele>2002</ele>
        <time>2021-07-10T13:22:19.087Z</time>
      </trkpt>
      <trkpt lat="46.37985" lon="8.02658">
        <ele>2002</ele>
        <time>2021-07-10T13:22:20.088Z</time>
      </trkpt>
      <trkpt lat="46.37986" lon="8.0266">
        <ele>2002</ele>
        <time>2021-07-10T13:22:21.088Z</time>
      </trkpt>
      <trkpt lat="46.37986" lon="8.02661">
        <ele>2002</ele>
        <time>2021-07-10T13:22:28.197Z</time>
      </trkpt>
      <trkpt lat="46.37987" lon="8.02663">
        <ele>2002</ele>
        <time>2021-07-10T13:22:29.197Z</time>
      </trkpt>
      <trkpt lat="46.37987" lon="8.02664">
        <ele>2002</ele>
        <time>2021-07-10T13:22:30.196Z</time>
      </trkpt>
      <trkpt lat="46.37988" lon="8.02666">
        <ele>2002</ele>
        <time>2021-07-10T13:22:31.197Z</time>
      </trkpt>
      <trkpt lat="46.37989" lon="8.02667">
        <ele>2002</ele>
        <time>2021-07-10T13:22:37.193Z</time>
      </trkpt>
      <trkpt lat="46.37989" lon="8.02668">
        <ele>2002</ele>
        <time>2021-07-10T13:22:38.193Z</time>
      </trkpt>
      <trkpt lat="46.3799" lon="8.02669">
        <ele>2002</ele>
        <time>2021-07-10T13:22:39.193Z</time>
      </trkpt>
      <trkpt lat="46.37991" lon="8.0267">
        <ele>2001</ele>
        <time>2021-07-10T13:22:40.192Z</time>
      </trkpt>
      <trkpt lat="46.37992" lon="8.02671">
        <ele>2001</ele>
        <time>2021-07-10T13:22:41.192Z</time>
      </trkpt>
      <trkpt lat="46.37992" lon="8.02673">
        <ele>2001</ele>
        <time>2021-07-10T13:22:42.193Z</time>
      </trkpt>
      <trkpt lat="46.37993" lon="8.02674">
        <ele>2001</ele>
        <time>2021-07-10T13:22:43.193Z</time>
      </trkpt>
      <trkpt lat="46.37993" lon="8.02674">
        <ele>2000</ele>
        <time>2021-07-10T13:22:44.193Z</time>
      </trkpt>
      <trkpt lat="46.37993" lon="8.02674">
        <ele>2000</ele>
        <time>2021-07-10T13:23:47.337Z</time>
      </trkpt>
      <trkpt lat="46.37993" lon="8.02679">
        <ele>1998</ele>
        <time>2021-07-10T13:23:48.340Z</time>
      </trkpt>
      <trkpt lat="46.37993" lon="8.02679">
        <ele>1998</ele>
        <time>2021-07-10T13:23:49.340Z</time>
      </trkpt>
      <trkpt lat="46.37993" lon="8.0268">
        <ele>1998</ele>
        <time>2021-07-10T13:23:50.339Z</time>
      </trkpt>
      <trkpt lat="46.37993" lon="8.0268">
        <ele>1998</ele>
        <time>2021-07-10T13:23:56.445Z</time>
      </trkpt>
      <trkpt lat="46.37993" lon="8.0268">
        <ele>1998</ele>
        <time>2021-07-10T13:23:57.446Z</time>
      </trkpt>
      <trkpt lat="46.37994" lon="8.02681">
        <ele>1998</ele>
        <time>2021-07-10T13:23:58.447Z</time>
      </trkpt>
      <trkpt lat="46.37994" lon="8.02682">
        <ele>1998</ele>
        <time>2021-07-10T13:23:59.446Z</time>
      </trkpt>
      <trkpt lat="46.37995" lon="8.02683">
        <ele>1998</ele>
        <time>2021-07-10T13:24:00.447Z</time>
      </trkpt>
      <trkpt lat="46.37995" lon="8.02683">
        <ele>1998</ele>
        <time>2021-07-10T13:24:02.568Z</time>
      </trkpt>
      <trkpt lat="46.37996" lon="8.02683">
        <ele>1998</ele>
        <time>2021-07-10T13:24:03.568Z</time>
      </trkpt>
      <trkpt lat="46.37997" lon="8.02684">
        <ele>1998</ele>
        <time>2021-07-10T13:24:04.567Z</time>
      </trkpt>
      <trkpt lat="46.37997" lon="8.02685">
        <ele>1998</ele>
        <time>2021-07-10T13:24:05.568Z</time>
      </trkpt>
      <trkpt lat="46.37998" lon="8.02685">
        <ele>1998</ele>
        <time>2021-07-10T13:24:06.568Z</time>
      </trkpt>
      <trkpt lat="46.37998" lon="8.02686">
        <ele>1998</ele>
        <time>2021-07-10T13:24:07.568Z</time>
      </trkpt>
      <trkpt lat="46.37999" lon="8.02686">
        <ele>1997</ele>
        <time>2021-07-10T13:24:08.567Z</time>
      </trkpt>
      <trkpt lat="46.37999" lon="8.02687">
        <ele>1997</ele>
        <time>2021-07-10T13:24:09.568Z</time>
      </trkpt>
      <trkpt lat="46.37999" lon="8.02688">
        <ele>1997</ele>
        <time>2021-07-10T13:24:10.568Z</time>
      </trkpt>
      <trkpt lat="46.38" lon="8.02689">
        <ele>1997</ele>
        <time>2021-07-10T13:24:11.567Z</time>
      </trkpt>
      <trkpt lat="46.38" lon="8.0269">
        <ele>1997</ele>
        <time>2021-07-10T13:24:12.568Z</time>
      </trkpt>
      <trkpt lat="46.38001" lon="8.02691">
        <ele>1998</ele>
        <time>2021-07-10T13:24:13.568Z</time>
      </trkpt>
      <trkpt lat="46.38001" lon="8.02691">
        <ele>1998</ele>
        <time>2021-07-10T13:24:14.568Z</time>
      </trkpt>
      <trkpt lat="46.38002" lon="8.02691">
        <ele>1998</ele>
        <time>2021-07-10T13:24:15.568Z</time>
      </trkpt>
      <trkpt lat="46.38002" lon="8.02691">
        <ele>1997</ele>
        <time>2021-07-10T13:24:16.568Z</time>
      </trkpt>
      <trkpt lat="46.38003" lon="8.0269">
        <ele>1997</ele>
        <time>2021-07-10T13:24:17.568Z</time>
      </trkpt>
      <trkpt lat="46.38003" lon="8.02691">
        <ele>1997</ele>
        <time>2021-07-10T13:24:18.567Z</time>
      </trkpt>
      <trkpt lat="46.38003" lon="8.02691">
        <ele>1997</ele>
        <time>2021-07-10T13:24:19.567Z</time>
      </trkpt>
      <trkpt lat="46.38002" lon="8.02691">
        <ele>1997</ele>
        <time>2021-07-10T13:24:20.568Z</time>
      </trkpt>
      <trkpt lat="46.38" lon="8.0269">
        <ele>1998</ele>
        <time>2021-07-10T13:24:21.568Z</time>
      </trkpt>
      <trkpt lat="46.38" lon="8.02697">
        <ele>1999</ele>
        <time>2021-07-10T13:24:22.570Z</time>
      </trkpt>
      <trkpt lat="46.38" lon="8.02698">
        <ele>1999</ele>
        <time>2021-07-10T13:24:23.570Z</time>
      </trkpt>
      <trkpt lat="46.38001" lon="8.02699">
        <ele>1998</ele>
        <time>2021-07-10T13:24:24.569Z</time>
      </trkpt>
      <trkpt lat="46.38001" lon="8.02699">
        <ele>1998</ele>
        <time>2021-07-10T13:24:25.570Z</time>
      </trkpt>
      <trkpt lat="46.38001" lon="8.02699">
        <ele>1998</ele>
        <time>2021-07-10T13:24:26.569Z</time>
      </trkpt>
      <trkpt lat="46.38002" lon="8.027">
        <ele>1997</ele>
        <time>2021-07-10T13:24:27.570Z</time>
      </trkpt>
      <trkpt lat="46.38002" lon="8.027">
        <ele>1997</ele>
        <time>2021-07-10T13:24:28.570Z</time>
      </trkpt>
      <trkpt lat="46.38002" lon="8.027">
        <ele>1997</ele>
        <time>2021-07-10T13:24:35.713Z</time>
      </trkpt>
      <trkpt lat="46.38002" lon="8.02699">
        <ele>1996</ele>
        <time>2021-07-10T13:24:36.714Z</time>
      </trkpt>
      <trkpt lat="46.38004" lon="8.02702">
        <ele>1996</ele>
        <time>2021-07-10T13:24:37.714Z</time>
      </trkpt>
      <trkpt lat="46.38005" lon="8.02703">
        <ele>1996</ele>
        <time>2021-07-10T13:24:38.714Z</time>
      </trkpt>
      <trkpt lat="46.38006" lon="8.02704">
        <ele>1996</ele>
        <time>2021-07-10T13:24:39.714Z</time>
      </trkpt>
      <trkpt lat="46.38007" lon="8.02705">
        <ele>1996</ele>
        <time>2021-07-10T13:24:40.714Z</time>
      </trkpt>
      <trkpt lat="46.38007" lon="8.02706">
        <ele>1995</ele>
        <time>2021-07-10T13:24:41.713Z</time>
      </trkpt>
      <trkpt lat="46.38008" lon="8.02707">
        <ele>1995</ele>
        <time>2021-07-10T13:24:42.714Z</time>
      </trkpt>
      <trkpt lat="46.38009" lon="8.02708">
        <ele>1994</ele>
        <time>2021-07-10T13:24:43.714Z</time>
      </trkpt>
      <trkpt lat="46.38009" lon="8.02709">
        <ele>1994</ele>
        <time>2021-07-10T13:24:44.714Z</time>
      </trkpt>
      <trkpt lat="46.3801" lon="8.02711">
        <ele>1994</ele>
        <time>2021-07-10T13:24:45.713Z</time>
      </trkpt>
      <trkpt lat="46.3801" lon="8.02712">
        <ele>1994</ele>
        <time>2021-07-10T13:24:46.713Z</time>
      </trkpt>
      <trkpt lat="46.38011" lon="8.02713">
        <ele>1994</ele>
        <time>2021-07-10T13:24:47.713Z</time>
      </trkpt>
      <trkpt lat="46.38011" lon="8.02714">
        <ele>1993</ele>
        <time>2021-07-10T13:24:48.714Z</time>
      </trkpt>
      <trkpt lat="46.38011" lon="8.02716">
        <ele>1993</ele>
        <time>2021-07-10T13:24:49.713Z</time>
      </trkpt>
      <trkpt lat="46.38012" lon="8.02717">
        <ele>1993</ele>
        <time>2021-07-10T13:24:50.713Z</time>
      </trkpt>
      <trkpt lat="46.38012" lon="8.02719">
        <ele>1993</ele>
        <time>2021-07-10T13:24:51.714Z</time>
      </trkpt>
      <trkpt lat="46.38013" lon="8.0272">
        <ele>1992</ele>
        <time>2021-07-10T13:24:52.713Z</time>
      </trkpt>
      <trkpt lat="46.38013" lon="8.02721">
        <ele>1992</ele>
        <time>2021-07-10T13:24:53.714Z</time>
      </trkpt>
      <trkpt lat="46.38013" lon="8.02722">
        <ele>1992</ele>
        <time>2021-07-10T13:24:54.713Z</time>
      </trkpt>
      <trkpt lat="46.38014" lon="8.02723">
        <ele>1993</ele>
        <time>2021-07-10T13:24:55.713Z</time>
      </trkpt>
      <trkpt lat="46.38014" lon="8.02724">
        <ele>1993</ele>
        <time>2021-07-10T13:24:56.714Z</time>
      </trkpt>
      <trkpt lat="46.38014" lon="8.02723">
        <ele>1993</ele>
        <time>2021-07-10T13:24:57.714Z</time>
      </trkpt>
      <trkpt lat="46.38014" lon="8.02724">
        <ele>1993</ele>
        <time>2021-07-10T13:24:58.714Z</time>
      </trkpt>
      <trkpt lat="46.38014" lon="8.02724">
        <ele>1993</ele>
        <time>2021-07-10T13:24:59.713Z</time>
      </trkpt>
      <trkpt lat="46.38015" lon="8.02721">
        <ele>1991</ele>
        <time>2021-07-10T13:25:08.855Z</time>
      </trkpt>
      <trkpt lat="46.38014" lon="8.02721">
        <ele>1990</ele>
        <time>2021-07-10T13:25:09.854Z</time>
      </trkpt>
      <trkpt lat="46.38014" lon="8.02721">
        <ele>1990</ele>
        <time>2021-07-10T13:25:10.854Z</time>
      </trkpt>
      <trkpt lat="46.38014" lon="8.02722">
        <ele>1990</ele>
        <time>2021-07-10T13:25:11.855Z</time>
      </trkpt>
      <trkpt lat="46.38013" lon="8.02724">
        <ele>1990</ele>
        <time>2021-07-10T13:25:12.854Z</time>
      </trkpt>
      <trkpt lat="46.38014" lon="8.02725">
        <ele>1990</ele>
        <time>2021-07-10T13:25:13.855Z</time>
      </trkpt>
      <trkpt lat="46.38014" lon="8.02726">
        <ele>1990</ele>
        <time>2021-07-10T13:25:14.855Z</time>
      </trkpt>
      <trkpt lat="46.38015" lon="8.02727">
        <ele>1990</ele>
        <time>2021-07-10T13:25:15.855Z</time>
      </trkpt>
      <trkpt lat="46.38016" lon="8.02728">
        <ele>1990</ele>
        <time>2021-07-10T13:25:16.854Z</time>
      </trkpt>
      <trkpt lat="46.38017" lon="8.02729">
        <ele>1990</ele>
        <time>2021-07-10T13:25:17.855Z</time>
      </trkpt>
      <trkpt lat="46.38018" lon="8.0273">
        <ele>1990</ele>
        <time>2021-07-10T13:25:18.855Z</time>
      </trkpt>
      <trkpt lat="46.38019" lon="8.02731">
        <ele>1990</ele>
        <time>2021-07-10T13:25:19.854Z</time>
      </trkpt>
      <trkpt lat="46.3802" lon="8.02732">
        <ele>1990</ele>
        <time>2021-07-10T13:25:20.855Z</time>
      </trkpt>
      <trkpt lat="46.38021" lon="8.02733">
        <ele>1990</ele>
        <time>2021-07-10T13:25:21.855Z</time>
      </trkpt>
      <trkpt lat="46.38021" lon="8.02734">
        <ele>1989</ele>
        <time>2021-07-10T13:25:22.855Z</time>
      </trkpt>
      <trkpt lat="46.38022" lon="8.02735">
        <ele>1989</ele>
        <time>2021-07-10T13:25:23.855Z</time>
      </trkpt>
      <trkpt lat="46.38022" lon="8.02736">
        <ele>1989</ele>
        <time>2021-07-10T13:25:24.855Z</time>
      </trkpt>
      <trkpt lat="46.38023" lon="8.02736">
        <ele>1989</ele>
        <time>2021-07-10T13:25:27.949Z</time>
      </trkpt>
      <trkpt lat="46.38023" lon="8.02738">
        <ele>1989</ele>
        <time>2021-07-10T13:25:28.949Z</time>
      </trkpt>
      <trkpt lat="46.38024" lon="8.02739">
        <ele>1989</ele>
        <time>2021-07-10T13:25:29.949Z</time>
      </trkpt>
      <trkpt lat="46.38024" lon="8.0274">
        <ele>1989</ele>
        <time>2021-07-10T13:25:30.948Z</time>
      </trkpt>
      <trkpt lat="46.38024" lon="8.0274">
        <ele>1989</ele>
        <time>2021-07-10T13:25:31.948Z</time>
      </trkpt>
      <trkpt lat="46.38024" lon="8.02741">
        <ele>1989</ele>
        <time>2021-07-10T13:25:32.948Z</time>
      </trkpt>
      <trkpt lat="46.38024" lon="8.02742">
        <ele>1989</ele>
        <time>2021-07-10T13:25:33.949Z</time>
      </trkpt>
      <trkpt lat="46.38025" lon="8.02743">
        <ele>1989</ele>
        <time>2021-07-10T13:25:34.948Z</time>
      </trkpt>
      <trkpt lat="46.38025" lon="8.02744">
        <ele>1989</ele>
        <time>2021-07-10T13:25:35.949Z</time>
      </trkpt>
      <trkpt lat="46.38026" lon="8.02745">
        <ele>1989</ele>
        <time>2021-07-10T13:25:36.949Z</time>
      </trkpt>
      <trkpt lat="46.38026" lon="8.02746">
        <ele>1989</ele>
        <time>2021-07-10T13:25:37.949Z</time>
      </trkpt>
      <trkpt lat="46.38027" lon="8.02747">
        <ele>1989</ele>
        <time>2021-07-10T13:25:38.949Z</time>
      </trkpt>
      <trkpt lat="46.38027" lon="8.02748">
        <ele>1989</ele>
        <time>2021-07-10T13:25:39.948Z</time>
      </trkpt>
      <trkpt lat="46.38028" lon="8.02749">
        <ele>1989</ele>
        <time>2021-07-10T13:25:40.948Z</time>
      </trkpt>
      <trkpt lat="46.38028" lon="8.0275">
        <ele>1989</ele>
        <time>2021-07-10T13:25:41.949Z</time>
      </trkpt>
      <trkpt lat="46.38029" lon="8.02751">
        <ele>1990</ele>
        <time>2021-07-10T13:25:42.949Z</time>
      </trkpt>
      <trkpt lat="46.3803" lon="8.02752">
        <ele>1990</ele>
        <time>2021-07-10T13:25:43.948Z</time>
      </trkpt>
      <trkpt lat="46.38031" lon="8.02753">
        <ele>1990</ele>
        <time>2021-07-10T13:25:44.948Z</time>
      </trkpt>
      <trkpt lat="46.38031" lon="8.02753">
        <ele>1990</ele>
        <time>2021-07-10T13:25:45.949Z</time>
      </trkpt>
      <trkpt lat="46.38031" lon="8.02754">
        <ele>1990</ele>
        <time>2021-07-10T13:25:46.949Z</time>
      </trkpt>
      <trkpt lat="46.38032" lon="8.02755">
        <ele>1990</ele>
        <time>2021-07-10T13:25:47.949Z</time>
      </trkpt>
      <trkpt lat="46.38032" lon="8.02756">
        <ele>1990</ele>
        <time>2021-07-10T13:25:48.949Z</time>
      </trkpt>
      <trkpt lat="46.38032" lon="8.02756">
        <ele>1990</ele>
        <time>2021-07-10T13:25:49.949Z</time>
      </trkpt>
      <trkpt lat="46.38032" lon="8.02757">
        <ele>1989</ele>
        <time>2021-07-10T13:25:50.948Z</time>
      </trkpt>
      <trkpt lat="46.38033" lon="8.02758">
        <ele>1988</ele>
        <time>2021-07-10T13:25:51.949Z</time>
      </trkpt>
      <trkpt lat="46.38033" lon="8.02759">
        <ele>1988</ele>
        <time>2021-07-10T13:25:52.948Z</time>
      </trkpt>
      <trkpt lat="46.38034" lon="8.0276">
        <ele>1988</ele>
        <time>2021-07-10T13:25:53.949Z</time>
      </trkpt>
      <trkpt lat="46.38034" lon="8.0276">
        <ele>1988</ele>
        <time>2021-07-10T13:25:54.949Z</time>
      </trkpt>
      <trkpt lat="46.38035" lon="8.02761">
        <ele>1987</ele>
        <time>2021-07-10T13:25:55.949Z</time>
      </trkpt>
      <trkpt lat="46.38035" lon="8.02761">
        <ele>1987</ele>
        <time>2021-07-10T13:25:56.949Z</time>
      </trkpt>
      <trkpt lat="46.38035" lon="8.02761">
        <ele>1987</ele>
        <time>2021-07-10T13:25:57.948Z</time>
      </trkpt>
      <trkpt lat="46.38036" lon="8.02762">
        <ele>1987</ele>
        <time>2021-07-10T13:26:15.100Z</time>
      </trkpt>
      <trkpt lat="46.38037" lon="8.02762">
        <ele>1987</ele>
        <time>2021-07-10T13:26:16.101Z</time>
      </trkpt>
      <trkpt lat="46.38038" lon="8.02763">
        <ele>1987</ele>
        <time>2021-07-10T13:26:23.854Z</time>
      </trkpt>
      <trkpt lat="46.38039" lon="8.02764">
        <ele>1987</ele>
        <time>2021-07-10T13:26:24.854Z</time>
      </trkpt>
      <trkpt lat="46.3804" lon="8.02765">
        <ele>1987</ele>
        <time>2021-07-10T13:26:25.855Z</time>
      </trkpt>
      <trkpt lat="46.3804" lon="8.02766">
        <ele>1987</ele>
        <time>2021-07-10T13:26:26.854Z</time>
      </trkpt>
      <trkpt lat="46.38041" lon="8.02767">
        <ele>1987</ele>
        <time>2021-07-10T13:26:27.855Z</time>
      </trkpt>
      <trkpt lat="46.38042" lon="8.02767">
        <ele>1986</ele>
        <time>2021-07-10T13:26:28.854Z</time>
      </trkpt>
      <trkpt lat="46.38044" lon="8.02766">
        <ele>1985</ele>
        <time>2021-07-10T13:26:29.854Z</time>
      </trkpt>
      <trkpt lat="46.38045" lon="8.02766">
        <ele>1985</ele>
        <time>2021-07-10T13:26:30.855Z</time>
      </trkpt>
      <trkpt lat="46.38046" lon="8.02766">
        <ele>1984</ele>
        <time>2021-07-10T13:26:31.855Z</time>
      </trkpt>
      <trkpt lat="46.38047" lon="8.02768">
        <ele>1984</ele>
        <time>2021-07-10T13:26:32.855Z</time>
      </trkpt>
      <trkpt lat="46.38048" lon="8.02769">
        <ele>1984</ele>
        <time>2021-07-10T13:26:33.855Z</time>
      </trkpt>
      <trkpt lat="46.38048" lon="8.02771">
        <ele>1984</ele>
        <time>2021-07-10T13:26:34.855Z</time>
      </trkpt>
      <trkpt lat="46.38049" lon="8.02772">
        <ele>1983</ele>
        <time>2021-07-10T13:26:35.855Z</time>
      </trkpt>
      <trkpt lat="46.3805" lon="8.02774">
        <ele>1983</ele>
        <time>2021-07-10T13:26:36.855Z</time>
      </trkpt>
      <trkpt lat="46.38051" lon="8.02776">
        <ele>1983</ele>
        <time>2021-07-10T13:26:37.855Z</time>
      </trkpt>
      <trkpt lat="46.38052" lon="8.02777">
        <ele>1983</ele>
        <time>2021-07-10T13:26:38.855Z</time>
      </trkpt>
      <trkpt lat="46.38052" lon="8.02778">
        <ele>1983</ele>
        <time>2021-07-10T13:26:39.855Z</time>
      </trkpt>
      <trkpt lat="46.38053" lon="8.02779">
        <ele>1982</ele>
        <time>2021-07-10T13:26:40.855Z</time>
      </trkpt>
      <trkpt lat="46.38054" lon="8.0278">
        <ele>1982</ele>
        <time>2021-07-10T13:26:41.854Z</time>
      </trkpt>
      <trkpt lat="46.38054" lon="8.02781">
        <ele>1982</ele>
        <time>2021-07-10T13:26:42.854Z</time>
      </trkpt>
      <trkpt lat="46.38055" lon="8.02783">
        <ele>1982</ele>
        <time>2021-07-10T13:26:43.855Z</time>
      </trkpt>
      <trkpt lat="46.38055" lon="8.02784">
        <ele>1982</ele>
        <time>2021-07-10T13:26:44.855Z</time>
      </trkpt>
      <trkpt lat="46.38055" lon="8.02785">
        <ele>1982</ele>
        <time>2021-07-10T13:26:45.855Z</time>
      </trkpt>
      <trkpt lat="46.38056" lon="8.02786">
        <ele>1982</ele>
        <time>2021-07-10T13:26:46.854Z</time>
      </trkpt>
      <trkpt lat="46.38056" lon="8.02788">
        <ele>1982</ele>
        <time>2021-07-10T13:26:47.854Z</time>
      </trkpt>
      <trkpt lat="46.38056" lon="8.0279">
        <ele>1982</ele>
        <time>2021-07-10T13:26:48.855Z</time>
      </trkpt>
      <trkpt lat="46.38057" lon="8.02791">
        <ele>1982</ele>
        <time>2021-07-10T13:26:49.855Z</time>
      </trkpt>
      <trkpt lat="46.38057" lon="8.02792">
        <ele>1982</ele>
        <time>2021-07-10T13:26:50.854Z</time>
      </trkpt>
      <trkpt lat="46.38058" lon="8.02793">
        <ele>1982</ele>
        <time>2021-07-10T13:26:51.855Z</time>
      </trkpt>
      <trkpt lat="46.38058" lon="8.02795">
        <ele>1982</ele>
        <time>2021-07-10T13:26:52.855Z</time>
      </trkpt>
      <trkpt lat="46.38059" lon="8.02796">
        <ele>1982</ele>
        <time>2021-07-10T13:26:53.855Z</time>
      </trkpt>
      <trkpt lat="46.38059" lon="8.02798">
        <ele>1983</ele>
        <time>2021-07-10T13:26:54.855Z</time>
      </trkpt>
      <trkpt lat="46.38059" lon="8.028">
        <ele>1983</ele>
        <time>2021-07-10T13:26:55.854Z</time>
      </trkpt>
      <trkpt lat="46.3806" lon="8.02802">
        <ele>1983</ele>
        <time>2021-07-10T13:26:56.855Z</time>
      </trkpt>
      <trkpt lat="46.3806" lon="8.02804">
        <ele>1983</ele>
        <time>2021-07-10T13:26:57.854Z</time>
      </trkpt>
      <trkpt lat="46.3806" lon="8.02806">
        <ele>1983</ele>
        <time>2021-07-10T13:26:58.855Z</time>
      </trkpt>
      <trkpt lat="46.3806" lon="8.02807">
        <ele>1983</ele>
        <time>2021-07-10T13:26:59.854Z</time>
      </trkpt>
      <trkpt lat="46.3806" lon="8.02808">
        <ele>1983</ele>
        <time>2021-07-10T13:27:00.854Z</time>
      </trkpt>
      <trkpt lat="46.38061" lon="8.02809">
        <ele>1983</ele>
        <time>2021-07-10T13:27:01.855Z</time>
      </trkpt>
      <trkpt lat="46.38061" lon="8.02811">
        <ele>1982</ele>
        <time>2021-07-10T13:27:02.854Z</time>
      </trkpt>
      <trkpt lat="46.38062" lon="8.02812">
        <ele>1983</ele>
        <time>2021-07-10T13:27:03.855Z</time>
      </trkpt>
      <trkpt lat="46.38062" lon="8.02814">
        <ele>1983</ele>
        <time>2021-07-10T13:27:04.855Z</time>
      </trkpt>
      <trkpt lat="46.38063" lon="8.02816">
        <ele>1984</ele>
        <time>2021-07-10T13:27:05.855Z</time>
      </trkpt>
      <trkpt lat="46.38063" lon="8.02818">
        <ele>1984</ele>
        <time>2021-07-10T13:27:07.978Z</time>
      </trkpt>
      <trkpt lat="46.38064" lon="8.0282">
        <ele>1984</ele>
        <time>2021-07-10T13:27:08.977Z</time>
      </trkpt>
      <trkpt lat="46.38064" lon="8.02822">
        <ele>1985</ele>
        <time>2021-07-10T13:27:09.978Z</time>
      </trkpt>
      <trkpt lat="46.38065" lon="8.02823">
        <ele>1985</ele>
        <time>2021-07-10T13:27:16.100Z</time>
      </trkpt>
      <trkpt lat="46.38065" lon="8.02824">
        <ele>1985</ele>
        <time>2021-07-10T13:27:17.100Z</time>
      </trkpt>
      <trkpt lat="46.38066" lon="8.02826">
        <ele>1985</ele>
        <time>2021-07-10T13:27:18.805Z</time>
      </trkpt>
      <trkpt lat="46.38066" lon="8.02828">
        <ele>1985</ele>
        <time>2021-07-10T13:27:19.805Z</time>
      </trkpt>
      <trkpt lat="46.38066" lon="8.02829">
        <ele>1985</ele>
        <time>2021-07-10T13:27:20.805Z</time>
      </trkpt>
      <trkpt lat="46.38066" lon="8.0283">
        <ele>1985</ele>
        <time>2021-07-10T13:27:26.820Z</time>
      </trkpt>
      <trkpt lat="46.38067" lon="8.02832">
        <ele>1985</ele>
        <time>2021-07-10T13:27:27.820Z</time>
      </trkpt>
      <trkpt lat="46.38067" lon="8.02832">
        <ele>1985</ele>
        <time>2021-07-10T13:28:01.566Z</time>
      </trkpt>
      <trkpt lat="46.38068" lon="8.02833">
        <ele>1985</ele>
        <time>2021-07-10T13:28:02.567Z</time>
      </trkpt>
      <trkpt lat="46.38068" lon="8.02833">
        <ele>1985</ele>
        <time>2021-07-10T13:28:03.567Z</time>
      </trkpt>
      <trkpt lat="46.38069" lon="8.02834">
        <ele>1985</ele>
        <time>2021-07-10T13:28:14.702Z</time>
      </trkpt>
      <trkpt lat="46.3807" lon="8.02835">
        <ele>1985</ele>
        <time>2021-07-10T13:28:15.703Z</time>
      </trkpt>
      <trkpt lat="46.3807" lon="8.02835">
        <ele>1985</ele>
        <time>2021-07-10T13:28:16.703Z</time>
      </trkpt>
      <trkpt lat="46.38071" lon="8.02836">
        <ele>1984</ele>
        <time>2021-07-10T13:28:17.702Z</time>
      </trkpt>
      <trkpt lat="46.38072" lon="8.02837">
        <ele>1984</ele>
        <time>2021-07-10T13:28:18.702Z</time>
      </trkpt>
      <trkpt lat="46.38073" lon="8.02838">
        <ele>1984</ele>
        <time>2021-07-10T13:28:57.707Z</time>
      </trkpt>
      <trkpt lat="46.38073" lon="8.02839">
        <ele>1984</ele>
        <time>2021-07-10T13:28:58.707Z</time>
      </trkpt>
      <trkpt lat="46.38074" lon="8.0284">
        <ele>1984</ele>
        <time>2021-07-10T13:29:00.449Z</time>
      </trkpt>
      <trkpt lat="46.38075" lon="8.02841">
        <ele>1984</ele>
        <time>2021-07-10T13:29:01.449Z</time>
      </trkpt>
      <trkpt lat="46.38075" lon="8.02842">
        <ele>1984</ele>
        <time>2021-07-10T13:29:02.449Z</time>
      </trkpt>
      <trkpt lat="46.38076" lon="8.02843">
        <ele>1984</ele>
        <time>2021-07-10T13:29:03.449Z</time>
      </trkpt>
      <trkpt lat="46.38077" lon="8.02845">
        <ele>1984</ele>
        <time>2021-07-10T13:29:04.450Z</time>
      </trkpt>
      <trkpt lat="46.38077" lon="8.02846">
        <ele>1984</ele>
        <time>2021-07-10T13:29:09.444Z</time>
      </trkpt>
      <trkpt lat="46.38078" lon="8.02847">
        <ele>1984</ele>
        <time>2021-07-10T13:29:10.444Z</time>
      </trkpt>
      <trkpt lat="46.38079" lon="8.02849">
        <ele>1984</ele>
        <time>2021-07-10T13:29:11.445Z</time>
      </trkpt>
      <trkpt lat="46.3808" lon="8.0285">
        <ele>1984</ele>
        <time>2021-07-10T13:29:12.445Z</time>
      </trkpt>
      <trkpt lat="46.38081" lon="8.02851">
        <ele>1984</ele>
        <time>2021-07-10T13:29:13.445Z</time>
      </trkpt>
      <trkpt lat="46.38081" lon="8.02852">
        <ele>1984</ele>
        <time>2021-07-10T13:29:33.456Z</time>
      </trkpt>
      <trkpt lat="46.38082" lon="8.02852">
        <ele>1984</ele>
        <time>2021-07-10T13:29:34.455Z</time>
      </trkpt>
      <trkpt lat="46.38083" lon="8.02853">
        <ele>1984</ele>
        <time>2021-07-10T13:29:46.209Z</time>
      </trkpt>
      <trkpt lat="46.38084" lon="8.02853">
        <ele>1984</ele>
        <time>2021-07-10T13:29:47.209Z</time>
      </trkpt>
      <trkpt lat="46.38085" lon="8.02853">
        <ele>1984</ele>
        <time>2021-07-10T13:30:13.956Z</time>
      </trkpt>
      <trkpt lat="46.38085" lon="8.02854">
        <ele>1983</ele>
        <time>2021-07-10T13:30:14.957Z</time>
      </trkpt>
      <trkpt lat="46.38086" lon="8.02855">
        <ele>1983</ele>
        <time>2021-07-10T13:30:15.956Z</time>
      </trkpt>
      <trkpt lat="46.38086" lon="8.02856">
        <ele>1983</ele>
        <time>2021-07-10T13:30:16.956Z</time>
      </trkpt>
      <trkpt lat="46.38086" lon="8.02857">
        <ele>1983</ele>
        <time>2021-07-10T13:30:17.957Z</time>
      </trkpt>
      <trkpt lat="46.38086" lon="8.02858">
        <ele>1983</ele>
        <time>2021-07-10T13:30:18.957Z</time>
      </trkpt>
      <trkpt lat="46.38086" lon="8.02859">
        <ele>1983</ele>
        <time>2021-07-10T13:30:19.957Z</time>
      </trkpt>
      <trkpt lat="46.38086" lon="8.0286">
        <ele>1983</ele>
        <time>2021-07-10T13:30:27.943Z</time>
      </trkpt>
      <trkpt lat="46.38086" lon="8.02861">
        <ele>1983</ele>
        <time>2021-07-10T13:30:28.943Z</time>
      </trkpt>
      <trkpt lat="46.38086" lon="8.02862">
        <ele>1983</ele>
        <time>2021-07-10T13:30:40.729Z</time>
      </trkpt>
      <trkpt lat="46.38086" lon="8.02863">
        <ele>1983</ele>
        <time>2021-07-10T13:31:05.456Z</time>
      </trkpt>
      <trkpt lat="46.38086" lon="8.02864">
        <ele>1983</ele>
        <time>2021-07-10T13:31:15.213Z</time>
      </trkpt>
      <trkpt lat="46.38086" lon="8.02866">
        <ele>1983</ele>
        <time>2021-07-10T13:31:19.072Z</time>
      </trkpt>
      <trkpt lat="46.38086" lon="8.02868">
        <ele>1983</ele>
        <time>2021-07-10T13:31:20.072Z</time>
      </trkpt>
      <trkpt lat="46.38086" lon="8.02869">
        <ele>1983</ele>
        <time>2021-07-10T13:31:44.839Z</time>
      </trkpt>
      <trkpt lat="46.38086" lon="8.02871">
        <ele>1983</ele>
        <time>2021-07-10T13:31:45.838Z</time>
      </trkpt>
      <trkpt lat="46.38086" lon="8.02872">
        <ele>1984</ele>
        <time>2021-07-10T13:31:46.838Z</time>
      </trkpt>
      <trkpt lat="46.38086" lon="8.02874">
        <ele>1984</ele>
        <time>2021-07-10T13:31:47.838Z</time>
      </trkpt>
      <trkpt lat="46.38086" lon="8.02875">
        <ele>1983</ele>
        <time>2021-07-10T13:31:48.838Z</time>
      </trkpt>
      <trkpt lat="46.38086" lon="8.02877">
        <ele>1983</ele>
        <time>2021-07-10T13:31:49.838Z</time>
      </trkpt>
      <trkpt lat="46.38087" lon="8.02879">
        <ele>1983</ele>
        <time>2021-07-10T13:31:50.838Z</time>
      </trkpt>
      <trkpt lat="46.38087" lon="8.0288">
        <ele>1983</ele>
        <time>2021-07-10T13:31:51.839Z</time>
      </trkpt>
      <trkpt lat="46.38087" lon="8.02882">
        <ele>1984</ele>
        <time>2021-07-10T13:31:52.839Z</time>
      </trkpt>
      <trkpt lat="46.38088" lon="8.02883">
        <ele>1984</ele>
        <time>2021-07-10T13:32:23.970Z</time>
      </trkpt>
      <trkpt lat="46.38088" lon="8.02885">
        <ele>1983</ele>
        <time>2021-07-10T13:32:24.971Z</time>
      </trkpt>
      <trkpt lat="46.38089" lon="8.02886">
        <ele>1984</ele>
        <time>2021-07-10T13:32:25.970Z</time>
      </trkpt>
      <trkpt lat="46.38089" lon="8.02887">
        <ele>1984</ele>
        <time>2021-07-10T13:32:32.721Z</time>
      </trkpt>
      <trkpt lat="46.38089" lon="8.02888">
        <ele>1984</ele>
        <time>2021-07-10T13:32:33.722Z</time>
      </trkpt>
      <trkpt lat="46.38089" lon="8.02888">
        <ele>1983</ele>
        <time>2021-07-10T13:32:34.722Z</time>
      </trkpt>
      <trkpt lat="46.38089" lon="8.02889">
        <ele>1983</ele>
        <time>2021-07-10T13:32:44.818Z</time>
      </trkpt>
      <trkpt lat="46.38089" lon="8.0289">
        <ele>1983</ele>
        <time>2021-07-10T13:32:45.818Z</time>
      </trkpt>
      <trkpt lat="46.38089" lon="8.02891">
        <ele>1984</ele>
        <time>2021-07-10T13:32:57.614Z</time>
      </trkpt>
      <trkpt lat="46.38089" lon="8.02892">
        <ele>1983</ele>
        <time>2021-07-10T13:33:06.440Z</time>
      </trkpt>
      <trkpt lat="46.38089" lon="8.02893">
        <ele>1983</ele>
        <time>2021-07-10T13:33:07.439Z</time>
      </trkpt>
      <trkpt lat="46.38089" lon="8.02895">
        <ele>1983</ele>
        <time>2021-07-10T13:33:08.440Z</time>
      </trkpt>
      <trkpt lat="46.38089" lon="8.02896">
        <ele>1983</ele>
        <time>2021-07-10T13:33:22.611Z</time>
      </trkpt>
      <trkpt lat="46.38089" lon="8.02897">
        <ele>1983</ele>
        <time>2021-07-10T13:33:23.611Z</time>
      </trkpt>
      <trkpt lat="46.38089" lon="8.02898">
        <ele>1983</ele>
        <time>2021-07-10T13:33:24.610Z</time>
      </trkpt>
      <trkpt lat="46.38089" lon="8.029">
        <ele>1983</ele>
        <time>2021-07-10T13:33:25.611Z</time>
      </trkpt>
      <trkpt lat="46.3809" lon="8.02901">
        <ele>1982</ele>
        <time>2021-07-10T13:33:26.611Z</time>
      </trkpt>
      <trkpt lat="46.3809" lon="8.02903">
        <ele>1982</ele>
        <time>2021-07-10T13:33:27.610Z</time>
      </trkpt>
      <trkpt lat="46.3809" lon="8.02904">
        <ele>1981</ele>
        <time>2021-07-10T13:33:34.690Z</time>
      </trkpt>
      <trkpt lat="46.38091" lon="8.02905">
        <ele>1981</ele>
        <time>2021-07-10T13:33:50.438Z</time>
      </trkpt>
      <trkpt lat="46.38091" lon="8.02906">
        <ele>1981</ele>
        <time>2021-07-10T13:33:51.437Z</time>
      </trkpt>
      <trkpt lat="46.38091" lon="8.02907">
        <ele>1981</ele>
        <time>2021-07-10T13:34:02.215Z</time>
      </trkpt>
      <trkpt lat="46.38092" lon="8.02908">
        <ele>1980</ele>
        <time>2021-07-10T13:34:03.216Z</time>
      </trkpt>
      <trkpt lat="46.38092" lon="8.02909">
        <ele>1980</ele>
        <time>2021-07-10T13:34:26.065Z</time>
      </trkpt>
      <trkpt lat="46.38093" lon="8.0291">
        <ele>1979</ele>
        <time>2021-07-10T13:34:27.064Z</time>
      </trkpt>
      <trkpt lat="46.38093" lon="8.02911">
        <ele>1979</ele>
        <time>2021-07-10T13:34:28.065Z</time>
      </trkpt>
      <trkpt lat="46.38094" lon="8.02913">
        <ele>1979</ele>
        <time>2021-07-10T13:34:40.838Z</time>
      </trkpt>
      <trkpt lat="46.38094" lon="8.02914">
        <ele>1979</ele>
        <time>2021-07-10T13:34:41.837Z</time>
      </trkpt>
      <trkpt lat="46.38095" lon="8.02914">
        <ele>1979</ele>
        <time>2021-07-10T13:34:42.837Z</time>
      </trkpt>
      <trkpt lat="46.38096" lon="8.02915">
        <ele>1979</ele>
        <time>2021-07-10T13:34:43.837Z</time>
      </trkpt>
      <trkpt lat="46.38097" lon="8.02916">
        <ele>1979</ele>
        <time>2021-07-10T13:34:44.837Z</time>
      </trkpt>
      <trkpt lat="46.38098" lon="8.02917">
        <ele>1979</ele>
        <time>2021-07-10T13:34:45.838Z</time>
      </trkpt>
      <trkpt lat="46.38098" lon="8.02918">
        <ele>1980</ele>
        <time>2021-07-10T13:34:46.838Z</time>
      </trkpt>
      <trkpt lat="46.38098" lon="8.02918">
        <ele>1980</ele>
        <time>2021-07-10T13:34:53.962Z</time>
      </trkpt>
      <trkpt lat="46.38099" lon="8.02918">
        <ele>1980</ele>
        <time>2021-07-10T13:34:54.961Z</time>
      </trkpt>
      <trkpt lat="46.38099" lon="8.02919">
        <ele>1980</ele>
        <time>2021-07-10T13:34:55.961Z</time>
      </trkpt>
      <trkpt lat="46.38099" lon="8.0292">
        <ele>1980</ele>
        <time>2021-07-10T13:35:13.687Z</time>
      </trkpt>
      <trkpt lat="46.38099" lon="8.02921">
        <ele>1980</ele>
        <time>2021-07-10T13:35:14.687Z</time>
      </trkpt>
      <trkpt lat="46.38099" lon="8.02922">
        <ele>1980</ele>
        <time>2021-07-10T13:35:15.686Z</time>
      </trkpt>
      <trkpt lat="46.381" lon="8.02924">
        <ele>1980</ele>
        <time>2021-07-10T13:35:38.814Z</time>
      </trkpt>
      <trkpt lat="46.381" lon="8.02925">
        <ele>1980</ele>
        <time>2021-07-10T13:35:46.566Z</time>
      </trkpt>
      <trkpt lat="46.38101" lon="8.02926">
        <ele>1979</ele>
        <time>2021-07-10T13:35:47.566Z</time>
      </trkpt>
      <trkpt lat="46.38101" lon="8.02927">
        <ele>1979</ele>
        <time>2021-07-10T13:35:58.361Z</time>
      </trkpt>
      <trkpt lat="46.38102" lon="8.02929">
        <ele>1978</ele>
        <time>2021-07-10T13:35:59.361Z</time>
      </trkpt>
      <trkpt lat="46.38103" lon="8.0293">
        <ele>1978</ele>
        <time>2021-07-10T13:36:00.361Z</time>
      </trkpt>
      <trkpt lat="46.38103" lon="8.02931">
        <ele>1978</ele>
        <time>2021-07-10T13:36:01.360Z</time>
      </trkpt>
      <trkpt lat="46.38104" lon="8.02932">
        <ele>1978</ele>
        <time>2021-07-10T13:36:09.437Z</time>
      </trkpt>
      <trkpt lat="46.38104" lon="8.02933">
        <ele>1978</ele>
        <time>2021-07-10T13:36:10.438Z</time>
      </trkpt>
      <trkpt lat="46.38104" lon="8.02935">
        <ele>1977</ele>
        <time>2021-07-10T13:36:11.438Z</time>
      </trkpt>
      <trkpt lat="46.38105" lon="8.02936">
        <ele>1977</ele>
        <time>2021-07-10T13:36:12.438Z</time>
      </trkpt>
      <trkpt lat="46.38105" lon="8.02938">
        <ele>1976</ele>
        <time>2021-07-10T13:36:13.438Z</time>
      </trkpt>
      <trkpt lat="46.38106" lon="8.02939">
        <ele>1976</ele>
        <time>2021-07-10T13:36:14.438Z</time>
      </trkpt>
      <trkpt lat="46.38107" lon="8.0294">
        <ele>1976</ele>
        <time>2021-07-10T13:36:15.438Z</time>
      </trkpt>
      <trkpt lat="46.38107" lon="8.02942">
        <ele>1976</ele>
        <time>2021-07-10T13:36:16.438Z</time>
      </trkpt>
      <trkpt lat="46.38107" lon="8.02943">
        <ele>1975</ele>
        <time>2021-07-10T13:36:17.438Z</time>
      </trkpt>
      <trkpt lat="46.38108" lon="8.02944">
        <ele>1975</ele>
        <time>2021-07-10T13:36:18.438Z</time>
      </trkpt>
      <trkpt lat="46.38108" lon="8.02945">
        <ele>1975</ele>
        <time>2021-07-10T13:36:19.437Z</time>
      </trkpt>
      <trkpt lat="46.38108" lon="8.02946">
        <ele>1976</ele>
        <time>2021-07-10T13:36:20.438Z</time>
      </trkpt>
      <trkpt lat="46.38109" lon="8.02948">
        <ele>1976</ele>
        <time>2021-07-10T13:36:21.438Z</time>
      </trkpt>
      <trkpt lat="46.3811" lon="8.02949">
        <ele>1976</ele>
        <time>2021-07-10T13:36:46.438Z</time>
      </trkpt>
      <trkpt lat="46.38111" lon="8.02949">
        <ele>1976</ele>
        <time>2021-07-10T13:36:47.438Z</time>
      </trkpt>
      <trkpt lat="46.38111" lon="8.0295">
        <ele>1976</ele>
        <time>2021-07-10T13:36:48.438Z</time>
      </trkpt>
      <trkpt lat="46.38112" lon="8.02952">
        <ele>1976</ele>
        <time>2021-07-10T13:36:49.438Z</time>
      </trkpt>
      <trkpt lat="46.38112" lon="8.02953">
        <ele>1977</ele>
        <time>2021-07-10T13:37:03.579Z</time>
      </trkpt>
      <trkpt lat="46.38113" lon="8.02953">
        <ele>1977</ele>
        <time>2021-07-10T13:37:04.579Z</time>
      </trkpt>
      <trkpt lat="46.38112" lon="8.02955">
        <ele>1977</ele>
        <time>2021-07-10T13:37:05.579Z</time>
      </trkpt>
      <trkpt lat="46.38113" lon="8.02956">
        <ele>1977</ele>
        <time>2021-07-10T13:37:06.578Z</time>
      </trkpt>
      <trkpt lat="46.38113" lon="8.02958">
        <ele>1978</ele>
        <time>2021-07-10T13:37:07.579Z</time>
      </trkpt>
      <trkpt lat="46.38112" lon="8.02959">
        <ele>1978</ele>
        <time>2021-07-10T13:37:08.579Z</time>
      </trkpt>
      <trkpt lat="46.38112" lon="8.02961">
        <ele>1978</ele>
        <time>2021-07-10T13:37:10.696Z</time>
      </trkpt>
      <trkpt lat="46.38113" lon="8.02961">
        <ele>1978</ele>
        <time>2021-07-10T13:37:11.696Z</time>
      </trkpt>
      <trkpt lat="46.38114" lon="8.02962">
        <ele>1978</ele>
        <time>2021-07-10T13:37:12.695Z</time>
      </trkpt>
      <trkpt lat="46.38115" lon="8.02963">
        <ele>1977</ele>
        <time>2021-07-10T13:37:31.690Z</time>
      </trkpt>
      <trkpt lat="46.38115" lon="8.02964">
        <ele>1977</ele>
        <time>2021-07-10T13:37:32.690Z</time>
      </trkpt>
      <trkpt lat="46.38116" lon="8.02965">
        <ele>1977</ele>
        <time>2021-07-10T13:37:58.563Z</time>
      </trkpt>
      <trkpt lat="46.38117" lon="8.02966">
        <ele>1977</ele>
        <time>2021-07-10T13:37:59.562Z</time>
      </trkpt>
      <trkpt lat="46.38118" lon="8.02967">
        <ele>1977</ele>
        <time>2021-07-10T13:38:00.563Z</time>
      </trkpt>
      <trkpt lat="46.38118" lon="8.02968">
        <ele>1977</ele>
        <time>2021-07-10T13:38:01.563Z</time>
      </trkpt>
      <trkpt lat="46.38119" lon="8.0297">
        <ele>1977</ele>
        <time>2021-07-10T13:38:02.563Z</time>
      </trkpt>
      <trkpt lat="46.3812" lon="8.02972">
        <ele>1977</ele>
        <time>2021-07-10T13:38:15.713Z</time>
      </trkpt>
      <trkpt lat="46.38121" lon="8.02973">
        <ele>1977</ele>
        <time>2021-07-10T13:38:16.714Z</time>
      </trkpt>
      <trkpt lat="46.38121" lon="8.02974">
        <ele>1977</ele>
        <time>2021-07-10T13:38:17.713Z</time>
      </trkpt>
      <trkpt lat="46.38122" lon="8.02975">
        <ele>1976</ele>
        <time>2021-07-10T13:38:18.714Z</time>
      </trkpt>
      <trkpt lat="46.38122" lon="8.02976">
        <ele>1977</ele>
        <time>2021-07-10T13:38:19.713Z</time>
      </trkpt>
      <trkpt lat="46.38123" lon="8.02976">
        <ele>1977</ele>
        <time>2021-07-10T13:38:20.713Z</time>
      </trkpt>
      <trkpt lat="46.38124" lon="8.02975">
        <ele>1975</ele>
        <time>2021-07-10T13:38:34.828Z</time>
      </trkpt>
      <trkpt lat="46.38125" lon="8.02976">
        <ele>1975</ele>
        <time>2021-07-10T13:38:35.829Z</time>
      </trkpt>
      <trkpt lat="46.38126" lon="8.02977">
        <ele>1975</ele>
        <time>2021-07-10T13:38:44.568Z</time>
      </trkpt>
      <trkpt lat="46.38128" lon="8.02978">
        <ele>1974</ele>
        <time>2021-07-10T13:38:45.569Z</time>
      </trkpt>
      <trkpt lat="46.38128" lon="8.02978">
        <ele>1974</ele>
        <time>2021-07-10T13:39:38.315Z</time>
      </trkpt>
      <trkpt lat="46.38129" lon="8.02979">
        <ele>1974</ele>
        <time>2021-07-10T13:39:39.315Z</time>
      </trkpt>
      <trkpt lat="46.38129" lon="8.0298">
        <ele>1975</ele>
        <time>2021-07-10T13:40:41.090Z</time>
      </trkpt>
      <trkpt lat="46.3813" lon="8.02981">
        <ele>1975</ele>
        <time>2021-07-10T13:40:42.090Z</time>
      </trkpt>
      <trkpt lat="46.38132" lon="8.02982">
        <ele>1975</ele>
        <time>2021-07-10T13:41:28.970Z</time>
      </trkpt>
      <trkpt lat="46.38133" lon="8.02983">
        <ele>1975</ele>
        <time>2021-07-10T13:41:29.970Z</time>
      </trkpt>
      <trkpt lat="46.38134" lon="8.02984">
        <ele>1975</ele>
        <time>2021-07-10T13:42:55.069Z</time>
      </trkpt>
      <trkpt lat="46.38135" lon="8.02985">
        <ele>1975</ele>
        <time>2021-07-10T13:42:56.069Z</time>
      </trkpt>
      <trkpt lat="46.38136" lon="8.02985">
        <ele>1974</ele>
        <time>2021-07-10T13:43:05.983Z</time>
      </trkpt>
      <trkpt lat="46.38137" lon="8.02986">
        <ele>1974</ele>
        <time>2021-07-10T13:43:30.816Z</time>
      </trkpt>
      <trkpt lat="46.38138" lon="8.02987">
        <ele>1975</ele>
        <time>2021-07-10T13:43:31.816Z</time>
      </trkpt>
      <trkpt lat="46.38138" lon="8.02988">
        <ele>1974</ele>
        <time>2021-07-10T13:43:32.815Z</time>
      </trkpt>
      <trkpt lat="46.38139" lon="8.02989">
        <ele>1974</ele>
        <time>2021-07-10T13:43:33.816Z</time>
      </trkpt>
      <trkpt lat="46.3814" lon="8.0299">
        <ele>1974</ele>
        <time>2021-07-10T13:44:24.819Z</time>
      </trkpt>
      <trkpt lat="46.38142" lon="8.02991">
        <ele>1974</ele>
        <time>2021-07-10T13:44:25.819Z</time>
      </trkpt>
      <trkpt lat="46.38143" lon="8.02992">
        <ele>1974</ele>
        <time>2021-07-10T13:44:26.819Z</time>
      </trkpt>
      <trkpt lat="46.38144" lon="8.02993">
        <ele>1973</ele>
        <time>2021-07-10T13:44:27.819Z</time>
      </trkpt>
      <trkpt lat="46.38144" lon="8.02994">
        <ele>1973</ele>
        <time>2021-07-10T13:44:28.818Z</time>
      </trkpt>
      <trkpt lat="46.38145" lon="8.02995">
        <ele>1974</ele>
        <time>2021-07-10T13:44:29.819Z</time>
      </trkpt>
      <trkpt lat="46.38146" lon="8.02996">
        <ele>1974</ele>
        <time>2021-07-10T13:44:30.819Z</time>
      </trkpt>
      <trkpt lat="46.38146" lon="8.02997">
        <ele>1975</ele>
        <time>2021-07-10T13:44:31.819Z</time>
      </trkpt>
      <trkpt lat="46.38147" lon="8.02998">
        <ele>1975</ele>
        <time>2021-07-10T13:45:13.819Z</time>
      </trkpt>
      <trkpt lat="46.38147" lon="8.03">
        <ele>1975</ele>
        <time>2021-07-10T13:45:14.819Z</time>
      </trkpt>
      <trkpt lat="46.38148" lon="8.03001">
        <ele>1975</ele>
        <time>2021-07-10T13:45:16.675Z</time>
      </trkpt>
      <trkpt lat="46.38149" lon="8.03003">
        <ele>1975</ele>
        <time>2021-07-10T13:45:17.675Z</time>
      </trkpt>
      <trkpt lat="46.38149" lon="8.03004">
        <ele>1975</ele>
        <time>2021-07-10T13:45:19.427Z</time>
      </trkpt>
      <trkpt lat="46.3815" lon="8.03005">
        <ele>1975</ele>
        <time>2021-07-10T13:45:20.427Z</time>
      </trkpt>
      <trkpt lat="46.3815" lon="8.03006">
        <ele>1975</ele>
        <time>2021-07-10T13:45:21.427Z</time>
      </trkpt>
      <trkpt lat="46.38151" lon="8.03008">
        <ele>1975</ele>
        <time>2021-07-10T13:45:22.427Z</time>
      </trkpt>
      <trkpt lat="46.38151" lon="8.03009">
        <ele>1975</ele>
        <time>2021-07-10T13:45:23.426Z</time>
      </trkpt>
      <trkpt lat="46.38152" lon="8.0301">
        <ele>1975</ele>
        <time>2021-07-10T13:45:24.426Z</time>
      </trkpt>
      <trkpt lat="46.38152" lon="8.03011">
        <ele>1975</ele>
        <time>2021-07-10T13:45:31.442Z</time>
      </trkpt>
      <trkpt lat="46.38153" lon="8.03012">
        <ele>1975</ele>
        <time>2021-07-10T13:45:32.441Z</time>
      </trkpt>
      <trkpt lat="46.38153" lon="8.03013">
        <ele>1976</ele>
        <time>2021-07-10T13:45:42.314Z</time>
      </trkpt>
      <trkpt lat="46.38153" lon="8.03015">
        <ele>1976</ele>
        <time>2021-07-10T13:45:43.315Z</time>
      </trkpt>
      <trkpt lat="46.38154" lon="8.03016">
        <ele>1976</ele>
        <time>2021-07-10T13:45:45.187Z</time>
      </trkpt>
      <trkpt lat="46.38155" lon="8.03017">
        <ele>1976</ele>
        <time>2021-07-10T13:46:25.064Z</time>
      </trkpt>
      <trkpt lat="46.38155" lon="8.03018">
        <ele>1976</ele>
        <time>2021-07-10T13:46:26.064Z</time>
      </trkpt>
      <trkpt lat="46.38156" lon="8.03019">
        <ele>1976</ele>
        <time>2021-07-10T13:46:27.064Z</time>
      </trkpt>
      <trkpt lat="46.38156" lon="8.03021">
        <ele>1976</ele>
        <time>2021-07-10T13:47:32.082Z</time>
      </trkpt>
      <trkpt lat="46.38156" lon="8.03023">
        <ele>1976</ele>
        <time>2021-07-10T13:47:33.082Z</time>
      </trkpt>
      <trkpt lat="46.38156" lon="8.03025">
        <ele>1976</ele>
        <time>2021-07-10T13:48:01.812Z</time>
      </trkpt>
      <trkpt lat="46.38156" lon="8.03026">
        <ele>1976</ele>
        <time>2021-07-10T13:48:07.564Z</time>
      </trkpt>
      <trkpt lat="46.38155" lon="8.03028">
        <ele>1976</ele>
        <time>2021-07-10T13:48:08.564Z</time>
      </trkpt>
      <trkpt lat="46.38155" lon="8.03029">
        <ele>1976</ele>
        <time>2021-07-10T13:48:09.564Z</time>
      </trkpt>
      <trkpt lat="46.38155" lon="8.03031">
        <ele>1976</ele>
        <time>2021-07-10T13:48:10.564Z</time>
      </trkpt>
      <trkpt lat="46.38156" lon="8.03032">
        <ele>1976</ele>
        <time>2021-07-10T13:48:18.573Z</time>
      </trkpt>
      <trkpt lat="46.38156" lon="8.03034">
        <ele>1975</ele>
        <time>2021-07-10T13:48:19.572Z</time>
      </trkpt>
      <trkpt lat="46.38156" lon="8.03036">
        <ele>1975</ele>
        <time>2021-07-10T13:48:28.334Z</time>
      </trkpt>
      <trkpt lat="46.38156" lon="8.03038">
        <ele>1975</ele>
        <time>2021-07-10T13:48:29.334Z</time>
      </trkpt>
      <trkpt lat="46.38156" lon="8.0304">
        <ele>1975</ele>
        <time>2021-07-10T13:48:30.334Z</time>
      </trkpt>
      <trkpt lat="46.38156" lon="8.03043">
        <ele>1975</ele>
        <time>2021-07-10T13:48:32.335Z</time>
      </trkpt>
      <trkpt lat="46.38156" lon="8.03045">
        <ele>1975</ele>
        <time>2021-07-10T13:48:33.335Z</time>
      </trkpt>
      <trkpt lat="46.38157" lon="8.03047">
        <ele>1975</ele>
        <time>2021-07-10T13:48:34.336Z</time>
      </trkpt>
      <trkpt lat="46.38156" lon="8.03049">
        <ele>1975</ele>
        <time>2021-07-10T13:48:49.439Z</time>
      </trkpt>
      <trkpt lat="46.38156" lon="8.0305">
        <ele>1975</ele>
        <time>2021-07-10T13:48:50.440Z</time>
      </trkpt>
      <trkpt lat="46.38157" lon="8.03052">
        <ele>1975</ele>
        <time>2021-07-10T13:48:52.292Z</time>
      </trkpt>
      <trkpt lat="46.38157" lon="8.03053">
        <ele>1975</ele>
        <time>2021-07-10T13:48:55.051Z</time>
      </trkpt>
      <trkpt lat="46.38157" lon="8.03055">
        <ele>1975</ele>
        <time>2021-07-10T13:48:56.051Z</time>
      </trkpt>
      <trkpt lat="46.38157" lon="8.03056">
        <ele>1975</ele>
        <time>2021-07-10T13:48:57.050Z</time>
      </trkpt>
      <trkpt lat="46.38158" lon="8.03057">
        <ele>1975</ele>
        <time>2021-07-10T13:49:25.857Z</time>
      </trkpt>
      <trkpt lat="46.38158" lon="8.03059">
        <ele>1976</ele>
        <time>2021-07-10T13:49:26.857Z</time>
      </trkpt>
      <trkpt lat="46.38158" lon="8.03061">
        <ele>1976</ele>
        <time>2021-07-10T13:51:03.740Z</time>
      </trkpt>
      <trkpt lat="46.38158" lon="8.03062">
        <ele>1976</ele>
        <time>2021-07-10T13:51:04.739Z</time>
      </trkpt>
      <trkpt lat="46.38158" lon="8.03062">
        <ele>1976</ele>
        <time>2021-07-10T13:51:05.739Z</time>
      </trkpt>
      <trkpt lat="46.38158" lon="8.03063">
        <ele>1976</ele>
        <time>2021-07-10T13:51:36.858Z</time>
      </trkpt>
      <trkpt lat="46.38158" lon="8.03064">
        <ele>1976</ele>
        <time>2021-07-10T13:51:37.857Z</time>
      </trkpt>
      <trkpt lat="46.38158" lon="8.03065">
        <ele>1976</ele>
        <time>2021-07-10T13:55:05.712Z</time>
      </trkpt>
      <trkpt lat="46.38159" lon="8.03067">
        <ele>1976</ele>
        <time>2021-07-10T13:55:06.712Z</time>
      </trkpt>
      <trkpt lat="46.38159" lon="8.03068">
        <ele>1976</ele>
        <time>2021-07-10T13:55:14.445Z</time>
      </trkpt>
      <trkpt lat="46.3816" lon="8.0307">
        <ele>1976</ele>
        <time>2021-07-10T13:55:15.446Z</time>
      </trkpt>
      <trkpt lat="46.3816" lon="8.03071">
        <ele>1976</ele>
        <time>2021-07-10T13:55:17.317Z</time>
      </trkpt>
      <trkpt lat="46.38161" lon="8.03073">
        <ele>1975</ele>
        <time>2021-07-10T13:55:18.317Z</time>
      </trkpt>
      <trkpt lat="46.38161" lon="8.03074">
        <ele>1975</ele>
        <time>2021-07-10T13:55:19.317Z</time>
      </trkpt>
      <trkpt lat="46.38162" lon="8.03075">
        <ele>1975</ele>
        <time>2021-07-10T13:55:20.317Z</time>
      </trkpt>
      <trkpt lat="46.38162" lon="8.03077">
        <ele>1975</ele>
        <time>2021-07-10T13:55:51.323Z</time>
      </trkpt>
      <trkpt lat="46.38163" lon="8.03078">
        <ele>1974</ele>
        <time>2021-07-10T13:55:52.323Z</time>
      </trkpt>
      <trkpt lat="46.38163" lon="8.03079">
        <ele>1974</ele>
        <time>2021-07-10T13:55:53.323Z</time>
      </trkpt>
      <trkpt lat="46.38163" lon="8.03081">
        <ele>1974</ele>
        <time>2021-07-10T13:55:54.324Z</time>
      </trkpt>
      <trkpt lat="46.38164" lon="8.03082">
        <ele>1974</ele>
        <time>2021-07-10T13:55:55.323Z</time>
      </trkpt>
      <trkpt lat="46.38164" lon="8.03083">
        <ele>1974</ele>
        <time>2021-07-10T13:55:56.323Z</time>
      </trkpt>
      <trkpt lat="46.38164" lon="8.03085">
        <ele>1974</ele>
        <time>2021-07-10T13:55:57.323Z</time>
      </trkpt>
      <trkpt lat="46.38164" lon="8.03086">
        <ele>1974</ele>
        <time>2021-07-10T13:56:09.318Z</time>
      </trkpt>
      <trkpt lat="46.38164" lon="8.03088">
        <ele>1974</ele>
        <time>2021-07-10T13:56:10.318Z</time>
      </trkpt>
      <trkpt lat="46.38165" lon="8.03089">
        <ele>1974</ele>
        <time>2021-07-10T13:56:11.318Z</time>
      </trkpt>
      <trkpt lat="46.38165" lon="8.03091">
        <ele>1975</ele>
        <time>2021-07-10T13:56:12.319Z</time>
      </trkpt>
      <trkpt lat="46.38165" lon="8.03092">
        <ele>1975</ele>
        <time>2021-07-10T13:56:21.324Z</time>
      </trkpt>
      <trkpt lat="46.38165" lon="8.03094">
        <ele>1975</ele>
        <time>2021-07-10T13:56:39.067Z</time>
      </trkpt>
      <trkpt lat="46.38165" lon="8.03095">
        <ele>1975</ele>
        <time>2021-07-10T13:56:40.067Z</time>
      </trkpt>
      <trkpt lat="46.38165" lon="8.03096">
        <ele>1975</ele>
        <time>2021-07-10T13:56:41.067Z</time>
      </trkpt>
      <trkpt lat="46.38164" lon="8.03098">
        <ele>1975</ele>
        <time>2021-07-10T13:56:57.089Z</time>
      </trkpt>
      <trkpt lat="46.38164" lon="8.03099">
        <ele>1975</ele>
        <time>2021-07-10T13:56:58.089Z</time>
      </trkpt>
      <trkpt lat="46.38164" lon="8.03101">
        <ele>1975</ele>
        <time>2021-07-10T13:56:59.089Z</time>
      </trkpt>
      <trkpt lat="46.38164" lon="8.03102">
        <ele>1975</ele>
        <time>2021-07-10T13:57:31.232Z</time>
      </trkpt>
      <trkpt lat="46.38164" lon="8.03103">
        <ele>1975</ele>
        <time>2021-07-10T13:57:55.066Z</time>
      </trkpt>
      <trkpt lat="46.38164" lon="8.03104">
        <ele>1975</ele>
        <time>2021-07-10T13:57:56.065Z</time>
      </trkpt>
      <trkpt lat="46.38163" lon="8.03106">
        <ele>1975</ele>
        <time>2021-07-10T13:57:57.066Z</time>
      </trkpt>
      <trkpt lat="46.38163" lon="8.03107">
        <ele>1975</ele>
        <time>2021-07-10T13:57:58.065Z</time>
      </trkpt>
      <trkpt lat="46.38164" lon="8.03108">
        <ele>1975</ele>
        <time>2021-07-10T13:57:59.066Z</time>
      </trkpt>
      <trkpt lat="46.38164" lon="8.0311">
        <ele>1975</ele>
        <time>2021-07-10T13:58:00.066Z</time>
      </trkpt>
      <trkpt lat="46.38165" lon="8.03111">
        <ele>1975</ele>
        <time>2021-07-10T13:58:01.066Z</time>
      </trkpt>
      <trkpt lat="46.38165" lon="8.03112">
        <ele>1975</ele>
        <time>2021-07-10T13:58:02.066Z</time>
      </trkpt>
      <trkpt lat="46.38165" lon="8.03114">
        <ele>1975</ele>
        <time>2021-07-10T13:58:03.066Z</time>
      </trkpt>
      <trkpt lat="46.38165" lon="8.03115">
        <ele>1975</ele>
        <time>2021-07-10T13:58:04.066Z</time>
      </trkpt>
      <trkpt lat="46.38165" lon="8.03116">
        <ele>1975</ele>
        <time>2021-07-10T13:58:16.080Z</time>
      </trkpt>
      <trkpt lat="46.38165" lon="8.03117">
        <ele>1975</ele>
        <time>2021-07-10T13:58:17.081Z</time>
      </trkpt>
      <trkpt lat="46.38165" lon="8.03119">
        <ele>1975</ele>
        <time>2021-07-10T13:58:18.081Z</time>
      </trkpt>
      <trkpt lat="46.38165" lon="8.0312">
        <ele>1975</ele>
        <time>2021-07-10T13:58:19.080Z</time>
      </trkpt>
      <trkpt lat="46.38164" lon="8.03121">
        <ele>1975</ele>
        <time>2021-07-10T13:58:20.081Z</time>
      </trkpt>
      <trkpt lat="46.38164" lon="8.03122">
        <ele>1975</ele>
        <time>2021-07-10T13:58:21.080Z</time>
      </trkpt>
      <trkpt lat="46.38164" lon="8.03123">
        <ele>1975</ele>
        <time>2021-07-10T13:58:22.081Z</time>
      </trkpt>
      <trkpt lat="46.38164" lon="8.03124">
        <ele>1976</ele>
        <time>2021-07-10T13:58:35.187Z</time>
      </trkpt>
      <trkpt lat="46.38164" lon="8.03125">
        <ele>1976</ele>
        <time>2021-07-10T13:58:36.187Z</time>
      </trkpt>
      <trkpt lat="46.38164" lon="8.03125">
        <ele>1976</ele>
        <time>2021-07-10T13:58:37.188Z</time>
      </trkpt>
      <trkpt lat="46.38164" lon="8.03126">
        <ele>1976</ele>
        <time>2021-07-10T13:58:59.220Z</time>
      </trkpt>
      <trkpt lat="46.38163" lon="8.03127">
        <ele>1976</ele>
        <time>2021-07-10T13:59:00.221Z</time>
      </trkpt>
      <trkpt lat="46.38163" lon="8.03128">
        <ele>1976</ele>
        <time>2021-07-10T13:59:01.220Z</time>
      </trkpt>
      <trkpt lat="46.38163" lon="8.03129">
        <ele>1976</ele>
        <time>2021-07-10T13:59:23.936Z</time>
      </trkpt>
      <trkpt lat="46.38162" lon="8.03129">
        <ele>1976</ele>
        <time>2021-07-10T13:59:24.936Z</time>
      </trkpt>
      <trkpt lat="46.38162" lon="8.0313">
        <ele>1977</ele>
        <time>2021-07-10T13:59:25.936Z</time>
      </trkpt>
      <trkpt lat="46.38162" lon="8.03131">
        <ele>1977</ele>
        <time>2021-07-10T13:59:31.060Z</time>
      </trkpt>
      <trkpt lat="46.38161" lon="8.03132">
        <ele>1977</ele>
        <time>2021-07-10T13:59:32.060Z</time>
      </trkpt>
      <trkpt lat="46.38161" lon="8.03134">
        <ele>1976</ele>
        <time>2021-07-10T13:59:33.060Z</time>
      </trkpt>
      <trkpt lat="46.38161" lon="8.03135">
        <ele>1976</ele>
        <time>2021-07-10T13:59:34.060Z</time>
      </trkpt>
      <trkpt lat="46.3816" lon="8.03137">
        <ele>1976</ele>
        <time>2021-07-10T13:59:35.060Z</time>
      </trkpt>
      <trkpt lat="46.3816" lon="8.03138">
        <ele>1976</ele>
        <time>2021-07-10T13:59:44.076Z</time>
      </trkpt>
      <trkpt lat="46.38159" lon="8.0314">
        <ele>1977</ele>
        <time>2021-07-10T13:59:45.076Z</time>
      </trkpt>
      <trkpt lat="46.38158" lon="8.03142">
        <ele>1977</ele>
        <time>2021-07-10T13:59:46.076Z</time>
      </trkpt>
      <trkpt lat="46.38157" lon="8.03143">
        <ele>1977</ele>
        <time>2021-07-10T13:59:52.930Z</time>
      </trkpt>
      <trkpt lat="46.38157" lon="8.03145">
        <ele>1977</ele>
        <time>2021-07-10T13:59:55.659Z</time>
      </trkpt>
      <trkpt lat="46.38157" lon="8.03146">
        <ele>1978</ele>
        <time>2021-07-10T14:00:08.450Z</time>
      </trkpt>
      <trkpt lat="46.38156" lon="8.03147">
        <ele>1978</ele>
        <time>2021-07-10T14:00:09.449Z</time>
      </trkpt>
      <trkpt lat="46.38155" lon="8.03149">
        <ele>1978</ele>
        <time>2021-07-10T14:00:10.449Z</time>
      </trkpt>
      <trkpt lat="46.38155" lon="8.0315">
        <ele>1979</ele>
        <time>2021-07-10T14:00:11.450Z</time>
      </trkpt>
      <trkpt lat="46.38154" lon="8.03152">
        <ele>1980</ele>
        <time>2021-07-10T14:00:12.449Z</time>
      </trkpt>
      <trkpt lat="46.38154" lon="8.03153">
        <ele>1981</ele>
        <time>2021-07-10T14:00:13.450Z</time>
      </trkpt>
      <trkpt lat="46.38154" lon="8.03154">
        <ele>1982</ele>
        <time>2021-07-10T14:00:24.553Z</time>
      </trkpt>
      <trkpt lat="46.38154" lon="8.03155">
        <ele>1982</ele>
        <time>2021-07-10T14:00:25.553Z</time>
      </trkpt>
      <trkpt lat="46.38153" lon="8.03156">
        <ele>1983</ele>
        <time>2021-07-10T14:00:26.553Z</time>
      </trkpt>
      <trkpt lat="46.38153" lon="8.03157">
        <ele>1983</ele>
        <time>2021-07-10T14:00:31.576Z</time>
      </trkpt>
      <trkpt lat="46.38153" lon="8.03159">
        <ele>1983</ele>
        <time>2021-07-10T14:00:44.305Z</time>
      </trkpt>
      <trkpt lat="46.38152" lon="8.0316">
        <ele>1984</ele>
        <time>2021-07-10T14:00:45.305Z</time>
      </trkpt>
      <trkpt lat="46.38152" lon="8.03161">
        <ele>1984</ele>
        <time>2021-07-10T14:00:46.305Z</time>
      </trkpt>
      <trkpt lat="46.38152" lon="8.03163">
        <ele>1984</ele>
        <time>2021-07-10T14:00:47.305Z</time>
      </trkpt>
      <trkpt lat="46.38152" lon="8.03164">
        <ele>1985</ele>
        <time>2021-07-10T14:01:02.431Z</time>
      </trkpt>
      <trkpt lat="46.38152" lon="8.03166">
        <ele>1985</ele>
        <time>2021-07-10T14:01:03.431Z</time>
      </trkpt>
      <trkpt lat="46.38153" lon="8.03167">
        <ele>1985</ele>
        <time>2021-07-10T14:01:04.431Z</time>
      </trkpt>
      <trkpt lat="46.38153" lon="8.03168">
        <ele>1985</ele>
        <time>2021-07-10T14:01:05.431Z</time>
      </trkpt>
      <trkpt lat="46.38153" lon="8.0317">
        <ele>1985</ele>
        <time>2021-07-10T14:01:06.430Z</time>
      </trkpt>
      <trkpt lat="46.38153" lon="8.03171">
        <ele>1986</ele>
        <time>2021-07-10T14:01:07.430Z</time>
      </trkpt>
      <trkpt lat="46.38154" lon="8.03173">
        <ele>1986</ele>
        <time>2021-07-10T14:01:08.431Z</time>
      </trkpt>
      <trkpt lat="46.38154" lon="8.03174">
        <ele>1985</ele>
        <time>2021-07-10T14:01:09.430Z</time>
      </trkpt>
      <trkpt lat="46.38154" lon="8.03175">
        <ele>1985</ele>
        <time>2021-07-10T14:01:10.431Z</time>
      </trkpt>
      <trkpt lat="46.38154" lon="8.03177">
        <ele>1985</ele>
        <time>2021-07-10T14:01:11.431Z</time>
      </trkpt>
      <trkpt lat="46.38155" lon="8.03178">
        <ele>1985</ele>
        <time>2021-07-10T14:01:12.430Z</time>
      </trkpt>
      <trkpt lat="46.38155" lon="8.0318">
        <ele>1985</ele>
        <time>2021-07-10T14:01:13.431Z</time>
      </trkpt>
      <trkpt lat="46.38155" lon="8.03181">
        <ele>1985</ele>
        <time>2021-07-10T14:01:14.431Z</time>
      </trkpt>
      <trkpt lat="46.38156" lon="8.03182">
        <ele>1985</ele>
        <time>2021-07-10T14:01:15.431Z</time>
      </trkpt>
      <trkpt lat="46.38156" lon="8.03183">
        <ele>1985</ele>
        <time>2021-07-10T14:01:16.430Z</time>
      </trkpt>
      <trkpt lat="46.38157" lon="8.03184">
        <ele>1985</ele>
        <time>2021-07-10T14:01:17.431Z</time>
      </trkpt>
      <trkpt lat="46.38158" lon="8.03185">
        <ele>1984</ele>
        <time>2021-07-10T14:01:18.431Z</time>
      </trkpt>
      <trkpt lat="46.38158" lon="8.03186">
        <ele>1983</ele>
        <time>2021-07-10T14:01:19.430Z</time>
      </trkpt>
      <trkpt lat="46.38159" lon="8.03187">
        <ele>1983</ele>
        <time>2021-07-10T14:01:20.431Z</time>
      </trkpt>
      <trkpt lat="46.38159" lon="8.03189">
        <ele>1983</ele>
        <time>2021-07-10T14:01:21.430Z</time>
      </trkpt>
      <trkpt lat="46.3816" lon="8.0319">
        <ele>1983</ele>
        <time>2021-07-10T14:01:22.430Z</time>
      </trkpt>
      <trkpt lat="46.3816" lon="8.03191">
        <ele>1983</ele>
        <time>2021-07-10T14:01:23.430Z</time>
      </trkpt>
      <trkpt lat="46.3816" lon="8.03192">
        <ele>1983</ele>
        <time>2021-07-10T14:01:24.431Z</time>
      </trkpt>
      <trkpt lat="46.38161" lon="8.03193">
        <ele>1983</ele>
        <time>2021-07-10T14:01:25.430Z</time>
      </trkpt>
      <trkpt lat="46.38161" lon="8.03194">
        <ele>1983</ele>
        <time>2021-07-10T14:01:26.430Z</time>
      </trkpt>
      <trkpt lat="46.38161" lon="8.03195">
        <ele>1983</ele>
        <time>2021-07-10T14:01:27.431Z</time>
      </trkpt>
      <trkpt lat="46.38161" lon="8.03197">
        <ele>1983</ele>
        <time>2021-07-10T14:01:28.431Z</time>
      </trkpt>
      <trkpt lat="46.38161" lon="8.03198">
        <ele>1983</ele>
        <time>2021-07-10T14:01:29.431Z</time>
      </trkpt>
      <trkpt lat="46.38161" lon="8.03199">
        <ele>1983</ele>
        <time>2021-07-10T14:01:30.431Z</time>
      </trkpt>
      <trkpt lat="46.38161" lon="8.03201">
        <ele>1983</ele>
        <time>2021-07-10T14:01:31.430Z</time>
      </trkpt>
      <trkpt lat="46.3816" lon="8.03202">
        <ele>1983</ele>
        <time>2021-07-10T14:01:32.431Z</time>
      </trkpt>
      <trkpt lat="46.3816" lon="8.03203">
        <ele>1983</ele>
        <time>2021-07-10T14:01:33.431Z</time>
      </trkpt>
      <trkpt lat="46.3816" lon="8.03204">
        <ele>1983</ele>
        <time>2021-07-10T14:01:34.431Z</time>
      </trkpt>
      <trkpt lat="46.3816" lon="8.03206">
        <ele>1984</ele>
        <time>2021-07-10T14:01:35.431Z</time>
      </trkpt>
      <trkpt lat="46.3816" lon="8.03208">
        <ele>1984</ele>
        <time>2021-07-10T14:01:36.431Z</time>
      </trkpt>
      <trkpt lat="46.38161" lon="8.03209">
        <ele>1984</ele>
        <time>2021-07-10T14:01:37.431Z</time>
      </trkpt>
      <trkpt lat="46.38161" lon="8.03211">
        <ele>1984</ele>
        <time>2021-07-10T14:01:38.430Z</time>
      </trkpt>
      <trkpt lat="46.38162" lon="8.03212">
        <ele>1985</ele>
        <time>2021-07-10T14:01:39.431Z</time>
      </trkpt>
      <trkpt lat="46.38162" lon="8.03213">
        <ele>1985</ele>
        <time>2021-07-10T14:01:40.431Z</time>
      </trkpt>
      <trkpt lat="46.38163" lon="8.03214">
        <ele>1986</ele>
        <time>2021-07-10T14:01:41.431Z</time>
      </trkpt>
      <trkpt lat="46.38163" lon="8.03217">
        <ele>1986</ele>
        <time>2021-07-10T14:01:42.430Z</time>
      </trkpt>
      <trkpt lat="46.38164" lon="8.03218">
        <ele>1986</ele>
        <time>2021-07-10T14:01:43.431Z</time>
      </trkpt>
      <trkpt lat="46.38165" lon="8.03219">
        <ele>1986</ele>
        <time>2021-07-10T14:01:44.431Z</time>
      </trkpt>
      <trkpt lat="46.38165" lon="8.03221">
        <ele>1986</ele>
        <time>2021-07-10T14:01:45.430Z</time>
      </trkpt>
      <trkpt lat="46.38166" lon="8.03222">
        <ele>1986</ele>
        <time>2021-07-10T14:01:46.430Z</time>
      </trkpt>
      <trkpt lat="46.38166" lon="8.03223">
        <ele>1986</ele>
        <time>2021-07-10T14:01:47.430Z</time>
      </trkpt>
      <trkpt lat="46.38167" lon="8.03224">
        <ele>1986</ele>
        <time>2021-07-10T14:01:48.431Z</time>
      </trkpt>
      <trkpt lat="46.38167" lon="8.03224">
        <ele>1985</ele>
        <time>2021-07-10T14:01:49.431Z</time>
      </trkpt>
      <trkpt lat="46.38168" lon="8.03224">
        <ele>1985</ele>
        <time>2021-07-10T14:01:50.431Z</time>
      </trkpt>
      <trkpt lat="46.38168" lon="8.03225">
        <ele>1985</ele>
        <time>2021-07-10T14:01:51.430Z</time>
      </trkpt>
      <trkpt lat="46.38168" lon="8.03226">
        <ele>1984</ele>
        <time>2021-07-10T14:01:52.430Z</time>
      </trkpt>
      <trkpt lat="46.38168" lon="8.03227">
        <ele>1984</ele>
        <time>2021-07-10T14:01:53.431Z</time>
      </trkpt>
      <trkpt lat="46.38168" lon="8.03228">
        <ele>1984</ele>
        <time>2021-07-10T14:01:54.431Z</time>
      </trkpt>
      <trkpt lat="46.38168" lon="8.03229">
        <ele>1984</ele>
        <time>2021-07-10T14:01:55.430Z</time>
      </trkpt>
      <trkpt lat="46.38168" lon="8.0323">
        <ele>1984</ele>
        <time>2021-07-10T14:01:56.430Z</time>
      </trkpt>
      <trkpt lat="46.38168" lon="8.03231">
        <ele>1984</ele>
        <time>2021-07-10T14:01:57.430Z</time>
      </trkpt>
      <trkpt lat="46.38168" lon="8.03233">
        <ele>1983</ele>
        <time>2021-07-10T14:01:58.430Z</time>
      </trkpt>
      <trkpt lat="46.38168" lon="8.03234">
        <ele>1983</ele>
        <time>2021-07-10T14:01:59.430Z</time>
      </trkpt>
      <trkpt lat="46.38168" lon="8.03236">
        <ele>1983</ele>
        <time>2021-07-10T14:02:00.431Z</time>
      </trkpt>
      <trkpt lat="46.38168" lon="8.03237">
        <ele>1983</ele>
        <time>2021-07-10T14:02:01.431Z</time>
      </trkpt>
      <trkpt lat="46.38168" lon="8.03239">
        <ele>1983</ele>
        <time>2021-07-10T14:02:02.430Z</time>
      </trkpt>
      <trkpt lat="46.38168" lon="8.0324">
        <ele>1983</ele>
        <time>2021-07-10T14:02:03.431Z</time>
      </trkpt>
      <trkpt lat="46.38168" lon="8.0324">
        <ele>1983</ele>
        <time>2021-07-10T14:02:04.431Z</time>
      </trkpt>
      <trkpt lat="46.38168" lon="8.03241">
        <ele>1983</ele>
        <time>2021-07-10T14:02:05.431Z</time>
      </trkpt>
      <trkpt lat="46.38168" lon="8.03242">
        <ele>1984</ele>
        <time>2021-07-10T14:02:06.431Z</time>
      </trkpt>
      <trkpt lat="46.38169" lon="8.03244">
        <ele>1984</ele>
        <time>2021-07-10T14:02:07.430Z</time>
      </trkpt>
      <trkpt lat="46.38169" lon="8.03245">
        <ele>1984</ele>
        <time>2021-07-10T14:02:08.430Z</time>
      </trkpt>
      <trkpt lat="46.38169" lon="8.03247">
        <ele>1983</ele>
        <time>2021-07-10T14:02:09.431Z</time>
      </trkpt>
      <trkpt lat="46.38168" lon="8.03248">
        <ele>1983</ele>
        <time>2021-07-10T14:02:10.431Z</time>
      </trkpt>
      <trkpt lat="46.38168" lon="8.03249">
        <ele>1983</ele>
        <time>2021-07-10T14:02:11.431Z</time>
      </trkpt>
      <trkpt lat="46.38168" lon="8.0325">
        <ele>1983</ele>
        <time>2021-07-10T14:02:12.431Z</time>
      </trkpt>
      <trkpt lat="46.38168" lon="8.03252">
        <ele>1983</ele>
        <time>2021-07-10T14:02:13.431Z</time>
      </trkpt>
      <trkpt lat="46.38168" lon="8.03253">
        <ele>1983</ele>
        <time>2021-07-10T14:02:14.430Z</time>
      </trkpt>
      <trkpt lat="46.38169" lon="8.03255">
        <ele>1983</ele>
        <time>2021-07-10T14:02:15.430Z</time>
      </trkpt>
      <trkpt lat="46.38169" lon="8.03256">
        <ele>1984</ele>
        <time>2021-07-10T14:02:16.430Z</time>
      </trkpt>
      <trkpt lat="46.38169" lon="8.03258">
        <ele>1984</ele>
        <time>2021-07-10T14:02:17.431Z</time>
      </trkpt>
      <trkpt lat="46.38169" lon="8.0326">
        <ele>1984</ele>
        <time>2021-07-10T14:02:18.430Z</time>
      </trkpt>
      <trkpt lat="46.38169" lon="8.03262">
        <ele>1985</ele>
        <time>2021-07-10T14:02:19.431Z</time>
      </trkpt>
      <trkpt lat="46.38168" lon="8.03264">
        <ele>1985</ele>
        <time>2021-07-10T14:02:20.431Z</time>
      </trkpt>
      <trkpt lat="46.38168" lon="8.03266">
        <ele>1985</ele>
        <time>2021-07-10T14:02:21.430Z</time>
      </trkpt>
      <trkpt lat="46.38168" lon="8.03268">
        <ele>1984</ele>
        <time>2021-07-10T14:02:22.431Z</time>
      </trkpt>
      <trkpt lat="46.38169" lon="8.0327">
        <ele>1984</ele>
        <time>2021-07-10T14:02:23.431Z</time>
      </trkpt>
      <trkpt lat="46.38169" lon="8.03271">
        <ele>1983</ele>
        <time>2021-07-10T14:02:24.431Z</time>
      </trkpt>
      <trkpt lat="46.3817" lon="8.03272">
        <ele>1983</ele>
        <time>2021-07-10T14:02:25.431Z</time>
      </trkpt>
      <trkpt lat="46.3817" lon="8.03273">
        <ele>1983</ele>
        <time>2021-07-10T14:02:26.431Z</time>
      </trkpt>
      <trkpt lat="46.3817" lon="8.03274">
        <ele>1983</ele>
        <time>2021-07-10T14:02:27.431Z</time>
      </trkpt>
      <trkpt lat="46.38171" lon="8.03275">
        <ele>1983</ele>
        <time>2021-07-10T14:02:28.430Z</time>
      </trkpt>
      <trkpt lat="46.38171" lon="8.03277">
        <ele>1983</ele>
        <time>2021-07-10T14:02:29.431Z</time>
      </trkpt>
      <trkpt lat="46.38171" lon="8.03279">
        <ele>1982</ele>
        <time>2021-07-10T14:02:30.431Z</time>
      </trkpt>
      <trkpt lat="46.38171" lon="8.03282">
        <ele>1982</ele>
        <time>2021-07-10T14:02:31.430Z</time>
      </trkpt>
      <trkpt lat="46.38171" lon="8.03284">
        <ele>1982</ele>
        <time>2021-07-10T14:02:32.431Z</time>
      </trkpt>
      <trkpt lat="46.38171" lon="8.03286">
        <ele>1982</ele>
        <time>2021-07-10T14:02:33.431Z</time>
      </trkpt>
      <trkpt lat="46.38171" lon="8.03288">
        <ele>1982</ele>
        <time>2021-07-10T14:02:40.432Z</time>
      </trkpt>
      <trkpt lat="46.38171" lon="8.03289">
        <ele>1982</ele>
        <time>2021-07-10T14:02:41.432Z</time>
      </trkpt>
      <trkpt lat="46.38172" lon="8.0329">
        <ele>1982</ele>
        <time>2021-07-10T14:02:42.432Z</time>
      </trkpt>
      <trkpt lat="46.38172" lon="8.03292">
        <ele>1982</ele>
        <time>2021-07-10T14:02:43.432Z</time>
      </trkpt>
      <trkpt lat="46.38172" lon="8.03293">
        <ele>1982</ele>
        <time>2021-07-10T14:02:44.432Z</time>
      </trkpt>
      <trkpt lat="46.38173" lon="8.03295">
        <ele>1982</ele>
        <time>2021-07-10T14:02:45.432Z</time>
      </trkpt>
      <trkpt lat="46.38173" lon="8.03296">
        <ele>1983</ele>
        <time>2021-07-10T14:02:46.432Z</time>
      </trkpt>
      <trkpt lat="46.38174" lon="8.03298">
        <ele>1983</ele>
        <time>2021-07-10T14:02:47.432Z</time>
      </trkpt>
      <trkpt lat="46.38174" lon="8.03299">
        <ele>1983</ele>
        <time>2021-07-10T14:02:48.432Z</time>
      </trkpt>
      <trkpt lat="46.38174" lon="8.03301">
        <ele>1983</ele>
        <time>2021-07-10T14:02:49.432Z</time>
      </trkpt>
      <trkpt lat="46.38174" lon="8.03303">
        <ele>1982</ele>
        <time>2021-07-10T14:02:50.432Z</time>
      </trkpt>
      <trkpt lat="46.38175" lon="8.03305">
        <ele>1982</ele>
        <time>2021-07-10T14:02:51.432Z</time>
      </trkpt>
      <trkpt lat="46.38175" lon="8.03306">
        <ele>1982</ele>
        <time>2021-07-10T14:02:52.432Z</time>
      </trkpt>
      <trkpt lat="46.38176" lon="8.03308">
        <ele>1982</ele>
        <time>2021-07-10T14:02:53.432Z</time>
      </trkpt>
      <trkpt lat="46.38176" lon="8.03309">
        <ele>1982</ele>
        <time>2021-07-10T14:02:54.432Z</time>
      </trkpt>
      <trkpt lat="46.38176" lon="8.0331">
        <ele>1983</ele>
        <time>2021-07-10T14:02:55.431Z</time>
      </trkpt>
      <trkpt lat="46.38175" lon="8.0331">
        <ele>1983</ele>
        <time>2021-07-10T14:02:56.431Z</time>
      </trkpt>
      <trkpt lat="46.38175" lon="8.03311">
        <ele>1983</ele>
        <time>2021-07-10T14:02:57.432Z</time>
      </trkpt>
      <trkpt lat="46.38175" lon="8.03313">
        <ele>1983</ele>
        <time>2021-07-10T14:02:58.431Z</time>
      </trkpt>
      <trkpt lat="46.38175" lon="8.03314">
        <ele>1983</ele>
        <time>2021-07-10T14:02:59.432Z</time>
      </trkpt>
      <trkpt lat="46.38175" lon="8.03316">
        <ele>1983</ele>
        <time>2021-07-10T14:03:00.432Z</time>
      </trkpt>
      <trkpt lat="46.38175" lon="8.03317">
        <ele>1983</ele>
        <time>2021-07-10T14:03:01.432Z</time>
      </trkpt>
      <trkpt lat="46.38176" lon="8.0332">
        <ele>1983</ele>
        <time>2021-07-10T14:03:02.431Z</time>
      </trkpt>
      <trkpt lat="46.38176" lon="8.03322">
        <ele>1983</ele>
        <time>2021-07-10T14:03:03.432Z</time>
      </trkpt>
      <trkpt lat="46.38177" lon="8.03323">
        <ele>1982</ele>
        <time>2021-07-10T14:03:04.432Z</time>
      </trkpt>
      <trkpt lat="46.38177" lon="8.03325">
        <ele>1982</ele>
        <time>2021-07-10T14:03:05.432Z</time>
      </trkpt>
      <trkpt lat="46.38178" lon="8.03327">
        <ele>1982</ele>
        <time>2021-07-10T14:03:06.432Z</time>
      </trkpt>
      <trkpt lat="46.38178" lon="8.03328">
        <ele>1982</ele>
        <time>2021-07-10T14:03:07.432Z</time>
      </trkpt>
      <trkpt lat="46.38179" lon="8.0333">
        <ele>1982</ele>
        <time>2021-07-10T14:03:08.431Z</time>
      </trkpt>
      <trkpt lat="46.3818" lon="8.03332">
        <ele>1981</ele>
        <time>2021-07-10T14:03:09.432Z</time>
      </trkpt>
      <trkpt lat="46.38181" lon="8.03333">
        <ele>1981</ele>
        <time>2021-07-10T14:03:10.432Z</time>
      </trkpt>
      <trkpt lat="46.38181" lon="8.03335">
        <ele>1981</ele>
        <time>2021-07-10T14:03:11.431Z</time>
      </trkpt>
      <trkpt lat="46.38182" lon="8.03336">
        <ele>1980</ele>
        <time>2021-07-10T14:03:12.432Z</time>
      </trkpt>
      <trkpt lat="46.38183" lon="8.03336">
        <ele>1980</ele>
        <time>2021-07-10T14:03:13.432Z</time>
      </trkpt>
      <trkpt lat="46.38184" lon="8.03338">
        <ele>1980</ele>
        <time>2021-07-10T14:03:14.432Z</time>
      </trkpt>
      <trkpt lat="46.38184" lon="8.0334">
        <ele>1980</ele>
        <time>2021-07-10T14:03:15.432Z</time>
      </trkpt>
      <trkpt lat="46.38185" lon="8.03341">
        <ele>1980</ele>
        <time>2021-07-10T14:03:16.431Z</time>
      </trkpt>
      <trkpt lat="46.38186" lon="8.03342">
        <ele>1981</ele>
        <time>2021-07-10T14:03:17.431Z</time>
      </trkpt>
      <trkpt lat="46.38186" lon="8.03343">
        <ele>1981</ele>
        <time>2021-07-10T14:03:18.431Z</time>
      </trkpt>
      <trkpt lat="46.38187" lon="8.03344">
        <ele>1982</ele>
        <time>2021-07-10T14:03:19.431Z</time>
      </trkpt>
      <trkpt lat="46.38188" lon="8.03345">
        <ele>1982</ele>
        <time>2021-07-10T14:03:20.432Z</time>
      </trkpt>
      <trkpt lat="46.38189" lon="8.03346">
        <ele>1981</ele>
        <time>2021-07-10T14:03:21.431Z</time>
      </trkpt>
      <trkpt lat="46.38189" lon="8.03347">
        <ele>1981</ele>
        <time>2021-07-10T14:03:22.431Z</time>
      </trkpt>
      <trkpt lat="46.3819" lon="8.03347">
        <ele>1981</ele>
        <time>2021-07-10T14:03:23.431Z</time>
      </trkpt>
      <trkpt lat="46.3819" lon="8.03348">
        <ele>1982</ele>
        <time>2021-07-10T14:03:24.432Z</time>
      </trkpt>
      <trkpt lat="46.38191" lon="8.03348">
        <ele>1982</ele>
        <time>2021-07-10T14:03:25.431Z</time>
      </trkpt>
      <trkpt lat="46.38191" lon="8.03349">
        <ele>1983</ele>
        <time>2021-07-10T14:03:26.431Z</time>
      </trkpt>
      <trkpt lat="46.38192" lon="8.0335">
        <ele>1982</ele>
        <time>2021-07-10T14:03:27.431Z</time>
      </trkpt>
      <trkpt lat="46.38192" lon="8.0335">
        <ele>1982</ele>
        <time>2021-07-10T14:03:28.432Z</time>
      </trkpt>
      <trkpt lat="46.38193" lon="8.0335">
        <ele>1982</ele>
        <time>2021-07-10T14:03:29.432Z</time>
      </trkpt>
      <trkpt lat="46.38193" lon="8.0335">
        <ele>1981</ele>
        <time>2021-07-10T14:03:30.431Z</time>
      </trkpt>
      <trkpt lat="46.38193" lon="8.03349">
        <ele>1981</ele>
        <time>2021-07-10T14:03:31.432Z</time>
      </trkpt>
      <trkpt lat="46.38191" lon="8.03351">
        <ele>1980</ele>
        <time>2021-07-10T14:03:32.432Z</time>
      </trkpt>
      <trkpt lat="46.38191" lon="8.0335">
        <ele>1980</ele>
        <time>2021-07-10T14:03:33.431Z</time>
      </trkpt>
      <trkpt lat="46.38191" lon="8.03351">
        <ele>1980</ele>
        <time>2021-07-10T14:03:34.431Z</time>
      </trkpt>
      <trkpt lat="46.38192" lon="8.03354">
        <ele>1981</ele>
        <time>2021-07-10T14:03:35.432Z</time>
      </trkpt>
      <trkpt lat="46.38193" lon="8.03355">
        <ele>1981</ele>
        <time>2021-07-10T14:03:36.432Z</time>
      </trkpt>
      <trkpt lat="46.38193" lon="8.03355">
        <ele>1981</ele>
        <time>2021-07-10T14:03:37.431Z</time>
      </trkpt>
      <trkpt lat="46.38194" lon="8.03356">
        <ele>1982</ele>
        <time>2021-07-10T14:03:38.431Z</time>
      </trkpt>
      <trkpt lat="46.38194" lon="8.03356">
        <ele>1982</ele>
        <time>2021-07-10T14:03:39.431Z</time>
      </trkpt>
      <trkpt lat="46.38195" lon="8.03357">
        <ele>1983</ele>
        <time>2021-07-10T14:03:40.431Z</time>
      </trkpt>
      <trkpt lat="46.38196" lon="8.03358">
        <ele>1983</ele>
        <time>2021-07-10T14:03:41.432Z</time>
      </trkpt>
      <trkpt lat="46.38197" lon="8.03358">
        <ele>1984</ele>
        <time>2021-07-10T14:03:42.432Z</time>
      </trkpt>
      <trkpt lat="46.38198" lon="8.03359">
        <ele>1984</ele>
        <time>2021-07-10T14:03:51.556Z</time>
      </trkpt>
      <trkpt lat="46.38199" lon="8.03359">
        <ele>1984</ele>
        <time>2021-07-10T14:03:52.556Z</time>
      </trkpt>
      <trkpt lat="46.38199" lon="8.0336">
        <ele>1984</ele>
        <time>2021-07-10T14:03:53.555Z</time>
      </trkpt>
      <trkpt lat="46.382" lon="8.0336">
        <ele>1984</ele>
        <time>2021-07-10T14:03:54.556Z</time>
      </trkpt>
      <trkpt lat="46.38201" lon="8.03361">
        <ele>1984</ele>
        <time>2021-07-10T14:03:55.555Z</time>
      </trkpt>
      <trkpt lat="46.38202" lon="8.03362">
        <ele>1985</ele>
        <time>2021-07-10T14:03:56.555Z</time>
      </trkpt>
      <trkpt lat="46.38203" lon="8.03362">
        <ele>1985</ele>
        <time>2021-07-10T14:03:57.555Z</time>
      </trkpt>
      <trkpt lat="46.38204" lon="8.03363">
        <ele>1985</ele>
        <time>2021-07-10T14:03:58.556Z</time>
      </trkpt>
      <trkpt lat="46.38204" lon="8.03364">
        <ele>1985</ele>
        <time>2021-07-10T14:03:59.556Z</time>
      </trkpt>
      <trkpt lat="46.38205" lon="8.03366">
        <ele>1985</ele>
        <time>2021-07-10T14:04:00.555Z</time>
      </trkpt>
      <trkpt lat="46.38206" lon="8.03368">
        <ele>1985</ele>
        <time>2021-07-10T14:04:01.555Z</time>
      </trkpt>
      <trkpt lat="46.38207" lon="8.03369">
        <ele>1985</ele>
        <time>2021-07-10T14:04:02.556Z</time>
      </trkpt>
      <trkpt lat="46.38208" lon="8.03369">
        <ele>1984</ele>
        <time>2021-07-10T14:04:03.556Z</time>
      </trkpt>
      <trkpt lat="46.38209" lon="8.0337">
        <ele>1984</ele>
        <time>2021-07-10T14:04:04.555Z</time>
      </trkpt>
      <trkpt lat="46.3821" lon="8.0337">
        <ele>1983</ele>
        <time>2021-07-10T14:04:05.556Z</time>
      </trkpt>
      <trkpt lat="46.3821" lon="8.03371">
        <ele>1983</ele>
        <time>2021-07-10T14:04:06.556Z</time>
      </trkpt>
      <trkpt lat="46.38211" lon="8.03371">
        <ele>1983</ele>
        <time>2021-07-10T14:04:07.556Z</time>
      </trkpt>
      <trkpt lat="46.38211" lon="8.03372">
        <ele>1983</ele>
        <time>2021-07-10T14:04:08.555Z</time>
      </trkpt>
      <trkpt lat="46.38212" lon="8.03373">
        <ele>1983</ele>
        <time>2021-07-10T14:04:09.556Z</time>
      </trkpt>
      <trkpt lat="46.38212" lon="8.03373">
        <ele>1984</ele>
        <time>2021-07-10T14:04:10.556Z</time>
      </trkpt>
      <trkpt lat="46.38213" lon="8.03373">
        <ele>1984</ele>
        <time>2021-07-10T14:04:11.555Z</time>
      </trkpt>
      <trkpt lat="46.38214" lon="8.03374">
        <ele>1985</ele>
        <time>2021-07-10T14:04:12.556Z</time>
      </trkpt>
      <trkpt lat="46.38215" lon="8.03374">
        <ele>1985</ele>
        <time>2021-07-10T14:04:13.555Z</time>
      </trkpt>
      <trkpt lat="46.38216" lon="8.03375">
        <ele>1985</ele>
        <time>2021-07-10T14:04:14.556Z</time>
      </trkpt>
      <trkpt lat="46.38217" lon="8.03375">
        <ele>1984</ele>
        <time>2021-07-10T14:04:15.556Z</time>
      </trkpt>
      <trkpt lat="46.38218" lon="8.03376">
        <ele>1984</ele>
        <time>2021-07-10T14:04:16.556Z</time>
      </trkpt>
      <trkpt lat="46.38219" lon="8.03377">
        <ele>1984</ele>
        <time>2021-07-10T14:04:17.555Z</time>
      </trkpt>
      <trkpt lat="46.3822" lon="8.03378">
        <ele>1984</ele>
        <time>2021-07-10T14:04:18.555Z</time>
      </trkpt>
      <trkpt lat="46.38221" lon="8.03378">
        <ele>1984</ele>
        <time>2021-07-10T14:04:19.556Z</time>
      </trkpt>
      <trkpt lat="46.38222" lon="8.0338">
        <ele>1984</ele>
        <time>2021-07-10T14:04:20.555Z</time>
      </trkpt>
      <trkpt lat="46.38223" lon="8.03381">
        <ele>1984</ele>
        <time>2021-07-10T14:04:21.556Z</time>
      </trkpt>
      <trkpt lat="46.38224" lon="8.03382">
        <ele>1985</ele>
        <time>2021-07-10T14:04:22.556Z</time>
      </trkpt>
      <trkpt lat="46.38225" lon="8.03383">
        <ele>1985</ele>
        <time>2021-07-10T14:04:23.556Z</time>
      </trkpt>
      <trkpt lat="46.38226" lon="8.03385">
        <ele>1985</ele>
        <time>2021-07-10T14:04:24.555Z</time>
      </trkpt>
      <trkpt lat="46.38227" lon="8.03386">
        <ele>1985</ele>
        <time>2021-07-10T14:04:25.556Z</time>
      </trkpt>
      <trkpt lat="46.38228" lon="8.03387">
        <ele>1985</ele>
        <time>2021-07-10T14:04:34.559Z</time>
      </trkpt>
      <trkpt lat="46.38229" lon="8.03387">
        <ele>1985</ele>
        <time>2021-07-10T14:04:35.558Z</time>
      </trkpt>
      <trkpt lat="46.3823" lon="8.03388">
        <ele>1985</ele>
        <time>2021-07-10T14:04:36.559Z</time>
      </trkpt>
      <trkpt lat="46.3823" lon="8.03389">
        <ele>1985</ele>
        <time>2021-07-10T14:04:37.559Z</time>
      </trkpt>
      <trkpt lat="46.38231" lon="8.0339">
        <ele>1984</ele>
        <time>2021-07-10T14:04:38.558Z</time>
      </trkpt>
      <trkpt lat="46.38232" lon="8.03392">
        <ele>1984</ele>
        <time>2021-07-10T14:04:39.559Z</time>
      </trkpt>
      <trkpt lat="46.38233" lon="8.03393">
        <ele>1984</ele>
        <time>2021-07-10T14:04:57.675Z</time>
      </trkpt>
      <trkpt lat="46.38233" lon="8.03395">
        <ele>1984</ele>
        <time>2021-07-10T14:04:58.674Z</time>
      </trkpt>
      <trkpt lat="46.38234" lon="8.03397">
        <ele>1984</ele>
        <time>2021-07-10T14:04:59.674Z</time>
      </trkpt>
      <trkpt lat="46.38235" lon="8.03398">
        <ele>1984</ele>
        <time>2021-07-10T14:05:00.674Z</time>
      </trkpt>
      <trkpt lat="46.38235" lon="8.03399">
        <ele>1984</ele>
        <time>2021-07-10T14:05:01.675Z</time>
      </trkpt>
      <trkpt lat="46.38236" lon="8.034">
        <ele>1984</ele>
        <time>2021-07-10T14:05:10.801Z</time>
      </trkpt>
      <trkpt lat="46.38236" lon="8.03401">
        <ele>1984</ele>
        <time>2021-07-10T14:05:24.595Z</time>
      </trkpt>
      <trkpt lat="46.38237" lon="8.03401">
        <ele>1984</ele>
        <time>2021-07-10T14:05:35.445Z</time>
      </trkpt>
      <trkpt lat="46.38238" lon="8.03402">
        <ele>1984</ele>
        <time>2021-07-10T14:05:36.445Z</time>
      </trkpt>
      <trkpt lat="46.38238" lon="8.03404">
        <ele>1984</ele>
        <time>2021-07-10T14:05:37.445Z</time>
      </trkpt>
      <trkpt lat="46.38239" lon="8.03405">
        <ele>1984</ele>
        <time>2021-07-10T14:05:38.445Z</time>
      </trkpt>
      <trkpt lat="46.38239" lon="8.03406">
        <ele>1984</ele>
        <time>2021-07-10T14:05:39.445Z</time>
      </trkpt>
      <trkpt lat="46.3824" lon="8.03406">
        <ele>1984</ele>
        <time>2021-07-10T14:05:40.445Z</time>
      </trkpt>
      <trkpt lat="46.3824" lon="8.03407">
        <ele>1984</ele>
        <time>2021-07-10T14:05:41.445Z</time>
      </trkpt>
      <trkpt lat="46.3824" lon="8.03409">
        <ele>1984</ele>
        <time>2021-07-10T14:05:45.552Z</time>
      </trkpt>
      <trkpt lat="46.3824" lon="8.0341">
        <ele>1984</ele>
        <time>2021-07-10T14:05:46.553Z</time>
      </trkpt>
      <trkpt lat="46.38241" lon="8.03411">
        <ele>1985</ele>
        <time>2021-07-10T14:05:47.552Z</time>
      </trkpt>
      <trkpt lat="46.38241" lon="8.03412">
        <ele>1984</ele>
        <time>2021-07-10T14:05:48.552Z</time>
      </trkpt>
      <trkpt lat="46.38242" lon="8.03414">
        <ele>1984</ele>
        <time>2021-07-10T14:05:51.573Z</time>
      </trkpt>
      <trkpt lat="46.38243" lon="8.03415">
        <ele>1984</ele>
        <time>2021-07-10T14:05:52.573Z</time>
      </trkpt>
      <trkpt lat="46.38244" lon="8.03416">
        <ele>1983</ele>
        <time>2021-07-10T14:05:53.573Z</time>
      </trkpt>
      <trkpt lat="46.38245" lon="8.03417">
        <ele>1983</ele>
        <time>2021-07-10T14:05:54.572Z</time>
      </trkpt>
      <trkpt lat="46.38245" lon="8.03419">
        <ele>1983</ele>
        <time>2021-07-10T14:05:55.573Z</time>
      </trkpt>
      <trkpt lat="46.38246" lon="8.0342">
        <ele>1983</ele>
        <time>2021-07-10T14:05:56.572Z</time>
      </trkpt>
      <trkpt lat="46.38247" lon="8.03422">
        <ele>1983</ele>
        <time>2021-07-10T14:05:59.679Z</time>
      </trkpt>
      <trkpt lat="46.38248" lon="8.03424">
        <ele>1983</ele>
        <time>2021-07-10T14:06:00.679Z</time>
      </trkpt>
      <trkpt lat="46.38248" lon="8.03426">
        <ele>1982</ele>
        <time>2021-07-10T14:06:15.443Z</time>
      </trkpt>
      <trkpt lat="46.38249" lon="8.03427">
        <ele>1982</ele>
        <time>2021-07-10T14:06:16.443Z</time>
      </trkpt>
      <trkpt lat="46.38249" lon="8.03429">
        <ele>1982</ele>
        <time>2021-07-10T14:06:17.444Z</time>
      </trkpt>
      <trkpt lat="46.38249" lon="8.03431">
        <ele>1981</ele>
        <time>2021-07-10T14:06:18.444Z</time>
      </trkpt>
      <trkpt lat="46.38249" lon="8.03433">
        <ele>1981</ele>
        <time>2021-07-10T14:06:20.552Z</time>
      </trkpt>
      <trkpt lat="46.38249" lon="8.03435">
        <ele>1981</ele>
        <time>2021-07-10T14:06:21.553Z</time>
      </trkpt>
      <trkpt lat="46.3825" lon="8.03437">
        <ele>1981</ele>
        <time>2021-07-10T14:06:23.283Z</time>
      </trkpt>
      <trkpt lat="46.3825" lon="8.03439">
        <ele>1981</ele>
        <time>2021-07-10T14:06:24.283Z</time>
      </trkpt>
      <trkpt lat="46.38251" lon="8.0344">
        <ele>1980</ele>
        <time>2021-07-10T14:06:25.284Z</time>
      </trkpt>
      <trkpt lat="46.38251" lon="8.03442">
        <ele>1980</ele>
        <time>2021-07-10T14:06:26.284Z</time>
      </trkpt>
      <trkpt lat="46.38252" lon="8.03443">
        <ele>1980</ele>
        <time>2021-07-10T14:06:27.283Z</time>
      </trkpt>
      <trkpt lat="46.38252" lon="8.03445">
        <ele>1980</ele>
        <time>2021-07-10T14:06:28.284Z</time>
      </trkpt>
      <trkpt lat="46.38253" lon="8.03446">
        <ele>1980</ele>
        <time>2021-07-10T14:06:29.284Z</time>
      </trkpt>
      <trkpt lat="46.38253" lon="8.03447">
        <ele>1980</ele>
        <time>2021-07-10T14:06:40.319Z</time>
      </trkpt>
      <trkpt lat="46.38254" lon="8.03448">
        <ele>1980</ele>
        <time>2021-07-10T14:06:41.320Z</time>
      </trkpt>
      <trkpt lat="46.38254" lon="8.03448">
        <ele>1980</ele>
        <time>2021-07-10T14:06:50.171Z</time>
      </trkpt>
      <trkpt lat="46.38254" lon="8.03449">
        <ele>1980</ele>
        <time>2021-07-10T14:06:51.172Z</time>
      </trkpt>
      <trkpt lat="46.38255" lon="8.0345">
        <ele>1980</ele>
        <time>2021-07-10T14:06:52.172Z</time>
      </trkpt>
      <trkpt lat="46.38256" lon="8.03449">
        <ele>1979</ele>
        <time>2021-07-10T14:07:21.171Z</time>
      </trkpt>
      <trkpt lat="46.38256" lon="8.0345">
        <ele>1978</ele>
        <time>2021-07-10T14:07:22.170Z</time>
      </trkpt>
      <trkpt lat="46.38256" lon="8.03451">
        <ele>1978</ele>
        <time>2021-07-10T14:07:23.171Z</time>
      </trkpt>
      <trkpt lat="46.38256" lon="8.03451">
        <ele>1977</ele>
        <time>2021-07-10T14:07:36.170Z</time>
      </trkpt>
      <trkpt lat="46.38256" lon="8.03451">
        <ele>1976</ele>
        <time>2021-07-10T14:07:37.170Z</time>
      </trkpt>
      <trkpt lat="46.38256" lon="8.03452">
        <ele>1975</ele>
        <time>2021-07-10T14:07:40.041Z</time>
      </trkpt>
      <trkpt lat="46.38256" lon="8.03452">
        <ele>1975</ele>
        <time>2021-07-10T14:07:41.041Z</time>
      </trkpt>
      <trkpt lat="46.38256" lon="8.03453">
        <ele>1974</ele>
        <time>2021-07-10T14:07:42.041Z</time>
      </trkpt>
      <trkpt lat="46.38256" lon="8.03455">
        <ele>1974</ele>
        <time>2021-07-10T14:07:43.041Z</time>
      </trkpt>
      <trkpt lat="46.38255" lon="8.03457">
        <ele>1973</ele>
        <time>2021-07-10T14:07:44.040Z</time>
      </trkpt>
      <trkpt lat="46.38255" lon="8.03458">
        <ele>1973</ele>
        <time>2021-07-10T14:07:45.040Z</time>
      </trkpt>
      <trkpt lat="46.38255" lon="8.0346">
        <ele>1973</ele>
        <time>2021-07-10T14:07:54.069Z</time>
      </trkpt>
      <trkpt lat="46.38255" lon="8.03461">
        <ele>1973</ele>
        <time>2021-07-10T14:07:55.069Z</time>
      </trkpt>
      <trkpt lat="46.38255" lon="8.03463">
        <ele>1973</ele>
        <time>2021-07-10T14:07:56.068Z</time>
      </trkpt>
      <trkpt lat="46.38255" lon="8.03464">
        <ele>1973</ele>
        <time>2021-07-10T14:07:57.069Z</time>
      </trkpt>
      <trkpt lat="46.38254" lon="8.03465">
        <ele>1973</ele>
        <time>2021-07-10T14:07:58.069Z</time>
      </trkpt>
      <trkpt lat="46.38254" lon="8.03467">
        <ele>1973</ele>
        <time>2021-07-10T14:07:59.069Z</time>
      </trkpt>
      <trkpt lat="46.38254" lon="8.03468">
        <ele>1973</ele>
        <time>2021-07-10T14:08:00.069Z</time>
      </trkpt>
      <trkpt lat="46.38254" lon="8.0347">
        <ele>1973</ele>
        <time>2021-07-10T14:08:01.069Z</time>
      </trkpt>
      <trkpt lat="46.38254" lon="8.03472">
        <ele>1973</ele>
        <time>2021-07-10T14:08:02.069Z</time>
      </trkpt>
      <trkpt lat="46.38254" lon="8.03473">
        <ele>1973</ele>
        <time>2021-07-10T14:08:03.069Z</time>
      </trkpt>
      <trkpt lat="46.38253" lon="8.03474">
        <ele>1973</ele>
        <time>2021-07-10T14:08:04.068Z</time>
      </trkpt>
      <trkpt lat="46.38253" lon="8.03474">
        <ele>1973</ele>
        <time>2021-07-10T14:08:05.069Z</time>
      </trkpt>
      <trkpt lat="46.38253" lon="8.03475">
        <ele>1973</ele>
        <time>2021-07-10T14:08:06.068Z</time>
      </trkpt>
      <trkpt lat="46.38252" lon="8.03475">
        <ele>1973</ele>
        <time>2021-07-10T14:08:07.068Z</time>
      </trkpt>
      <trkpt lat="46.38251" lon="8.03475">
        <ele>1972</ele>
        <time>2021-07-10T14:08:08.069Z</time>
      </trkpt>
      <trkpt lat="46.38251" lon="8.03476">
        <ele>1971</ele>
        <time>2021-07-10T14:08:09.068Z</time>
      </trkpt>
      <trkpt lat="46.3825" lon="8.03475">
        <ele>1971</ele>
        <time>2021-07-10T14:08:32.187Z</time>
      </trkpt>
      <trkpt lat="46.3825" lon="8.03476">
        <ele>1972</ele>
        <time>2021-07-10T14:08:50.066Z</time>
      </trkpt>
      <trkpt lat="46.3825" lon="8.03477">
        <ele>1972</ele>
        <time>2021-07-10T14:08:51.067Z</time>
      </trkpt>
      <trkpt lat="46.38249" lon="8.03478">
        <ele>1972</ele>
        <time>2021-07-10T14:08:52.067Z</time>
      </trkpt>
      <trkpt lat="46.38249" lon="8.03478">
        <ele>1972</ele>
        <time>2021-07-10T14:08:58.924Z</time>
      </trkpt>
      <trkpt lat="46.38249" lon="8.03479">
        <ele>1972</ele>
        <time>2021-07-10T14:08:59.923Z</time>
      </trkpt>
      <trkpt lat="46.3825" lon="8.03479">
        <ele>1972</ele>
        <time>2021-07-10T14:09:19.819Z</time>
      </trkpt>
      <trkpt lat="46.3825" lon="8.03479">
        <ele>1973</ele>
        <time>2021-07-10T14:09:20.819Z</time>
      </trkpt>
      <trkpt lat="46.3825" lon="8.0348">
        <ele>1972</ele>
        <time>2021-07-10T14:09:21.819Z</time>
      </trkpt>
      <trkpt lat="46.3825" lon="8.03481">
        <ele>1972</ele>
        <time>2021-07-10T14:09:27.911Z</time>
      </trkpt>
      <trkpt lat="46.3825" lon="8.03482">
        <ele>1972</ele>
        <time>2021-07-10T14:09:28.912Z</time>
      </trkpt>
      <trkpt lat="46.3825" lon="8.03483">
        <ele>1972</ele>
        <time>2021-07-10T14:09:53.689Z</time>
      </trkpt>
      <trkpt lat="46.3825" lon="8.03484">
        <ele>1972</ele>
        <time>2021-07-10T14:09:55.544Z</time>
      </trkpt>
      <trkpt lat="46.3825" lon="8.03485">
        <ele>1972</ele>
        <time>2021-07-10T14:09:56.545Z</time>
      </trkpt>
      <trkpt lat="46.38249" lon="8.03487">
        <ele>1972</ele>
        <time>2021-07-10T14:10:39.294Z</time>
      </trkpt>
      <trkpt lat="46.3825" lon="8.03488">
        <ele>1972</ele>
        <time>2021-07-10T14:10:40.294Z</time>
      </trkpt>
      <trkpt lat="46.3825" lon="8.03489">
        <ele>1972</ele>
        <time>2021-07-10T14:11:13.160Z</time>
      </trkpt>
      <trkpt lat="46.3825" lon="8.03491">
        <ele>1971</ele>
        <time>2021-07-10T14:11:14.161Z</time>
      </trkpt>
      <trkpt lat="46.3825" lon="8.03492">
        <ele>1970</ele>
        <time>2021-07-10T14:11:15.160Z</time>
      </trkpt>
      <trkpt lat="46.38249" lon="8.03494">
        <ele>1970</ele>
        <time>2021-07-10T14:11:21.286Z</time>
      </trkpt>
      <trkpt lat="46.38249" lon="8.03495">
        <ele>1969</ele>
        <time>2021-07-10T14:11:22.286Z</time>
      </trkpt>
      <trkpt lat="46.38249" lon="8.03497">
        <ele>1969</ele>
        <time>2021-07-10T14:11:23.286Z</time>
      </trkpt>
      <trkpt lat="46.38249" lon="8.03498">
        <ele>1969</ele>
        <time>2021-07-10T14:11:24.286Z</time>
      </trkpt>
      <trkpt lat="46.38248" lon="8.035">
        <ele>1969</ele>
        <time>2021-07-10T14:11:25.287Z</time>
      </trkpt>
      <trkpt lat="46.38248" lon="8.03501">
        <ele>1968</ele>
        <time>2021-07-10T14:11:26.286Z</time>
      </trkpt>
      <trkpt lat="46.38247" lon="8.03502">
        <ele>1968</ele>
        <time>2021-07-10T14:11:27.286Z</time>
      </trkpt>
      <trkpt lat="46.38247" lon="8.03504">
        <ele>1968</ele>
        <time>2021-07-10T14:11:28.286Z</time>
      </trkpt>
      <trkpt lat="46.38247" lon="8.03505">
        <ele>1967</ele>
        <time>2021-07-10T14:11:29.286Z</time>
      </trkpt>
      <trkpt lat="46.38246" lon="8.03507">
        <ele>1967</ele>
        <time>2021-07-10T14:11:30.287Z</time>
      </trkpt>
      <trkpt lat="46.38246" lon="8.03508">
        <ele>1968</ele>
        <time>2021-07-10T14:11:31.286Z</time>
      </trkpt>
      <trkpt lat="46.38246" lon="8.03509">
        <ele>1968</ele>
        <time>2021-07-10T14:11:32.287Z</time>
      </trkpt>
      <trkpt lat="46.38246" lon="8.03511">
        <ele>1968</ele>
        <time>2021-07-10T14:11:33.286Z</time>
      </trkpt>
      <trkpt lat="46.38246" lon="8.03512">
        <ele>1968</ele>
        <time>2021-07-10T14:11:34.287Z</time>
      </trkpt>
      <trkpt lat="46.38246" lon="8.03514">
        <ele>1968</ele>
        <time>2021-07-10T14:11:35.287Z</time>
      </trkpt>
      <trkpt lat="46.38246" lon="8.03515">
        <ele>1969</ele>
        <time>2021-07-10T14:11:36.287Z</time>
      </trkpt>
      <trkpt lat="46.38246" lon="8.03516">
        <ele>1969</ele>
        <time>2021-07-10T14:11:37.287Z</time>
      </trkpt>
      <trkpt lat="46.38246" lon="8.03518">
        <ele>1969</ele>
        <time>2021-07-10T14:11:38.286Z</time>
      </trkpt>
      <trkpt lat="46.38246" lon="8.03519">
        <ele>1968</ele>
        <time>2021-07-10T14:11:39.287Z</time>
      </trkpt>
      <trkpt lat="46.38246" lon="8.0352">
        <ele>1968</ele>
        <time>2021-07-10T14:11:40.287Z</time>
      </trkpt>
      <trkpt lat="46.38246" lon="8.03521">
        <ele>1968</ele>
        <time>2021-07-10T14:11:41.286Z</time>
      </trkpt>
      <trkpt lat="46.38246" lon="8.03522">
        <ele>1968</ele>
        <time>2021-07-10T14:11:42.287Z</time>
      </trkpt>
      <trkpt lat="46.38246" lon="8.03524">
        <ele>1967</ele>
        <time>2021-07-10T14:11:43.287Z</time>
      </trkpt>
      <trkpt lat="46.38246" lon="8.03525">
        <ele>1967</ele>
        <time>2021-07-10T14:11:44.287Z</time>
      </trkpt>
      <trkpt lat="46.38246" lon="8.03526">
        <ele>1967</ele>
        <time>2021-07-10T14:11:45.287Z</time>
      </trkpt>
      <trkpt lat="46.38246" lon="8.03527">
        <ele>1967</ele>
        <time>2021-07-10T14:11:46.287Z</time>
      </trkpt>
      <trkpt lat="46.38246" lon="8.03528">
        <ele>1967</ele>
        <time>2021-07-10T14:11:47.287Z</time>
      </trkpt>
      <trkpt lat="46.38246" lon="8.03528">
        <ele>1966</ele>
        <time>2021-07-10T14:11:48.287Z</time>
      </trkpt>
      <trkpt lat="46.38246" lon="8.03529">
        <ele>1966</ele>
        <time>2021-07-10T14:11:49.287Z</time>
      </trkpt>
      <trkpt lat="46.38247" lon="8.03529">
        <ele>1967</ele>
        <time>2021-07-10T14:11:50.286Z</time>
      </trkpt>
      <trkpt lat="46.38246" lon="8.0353">
        <ele>1966</ele>
        <time>2021-07-10T14:11:51.287Z</time>
      </trkpt>
      <trkpt lat="46.38246" lon="8.03531">
        <ele>1966</ele>
        <time>2021-07-10T14:12:21.290Z</time>
      </trkpt>
      <trkpt lat="46.38247" lon="8.03532">
        <ele>1965</ele>
        <time>2021-07-10T14:12:22.291Z</time>
      </trkpt>
      <trkpt lat="46.38247" lon="8.03533">
        <ele>1965</ele>
        <time>2021-07-10T14:12:48.172Z</time>
      </trkpt>
      <trkpt lat="46.38247" lon="8.03534">
        <ele>1965</ele>
        <time>2021-07-10T14:12:49.172Z</time>
      </trkpt>
      <trkpt lat="46.38247" lon="8.03535">
        <ele>1966</ele>
        <time>2021-07-10T14:12:50.904Z</time>
      </trkpt>
      <trkpt lat="46.38247" lon="8.03536">
        <ele>1966</ele>
        <time>2021-07-10T14:12:51.905Z</time>
      </trkpt>
      <trkpt lat="46.38247" lon="8.03538">
        <ele>1966</ele>
        <time>2021-07-10T14:12:52.904Z</time>
      </trkpt>
      <trkpt lat="46.38248" lon="8.03539">
        <ele>1966</ele>
        <time>2021-07-10T14:12:53.904Z</time>
      </trkpt>
      <trkpt lat="46.38248" lon="8.0354">
        <ele>1965</ele>
        <time>2021-07-10T14:12:54.904Z</time>
      </trkpt>
      <trkpt lat="46.3825" lon="8.03542">
        <ele>1964</ele>
        <time>2021-07-10T14:13:15.927Z</time>
      </trkpt>
      <trkpt lat="46.3825" lon="8.03544">
        <ele>1964</ele>
        <time>2021-07-10T14:13:16.927Z</time>
      </trkpt>
      <trkpt lat="46.3825" lon="8.03544">
        <ele>1963</ele>
        <time>2021-07-10T14:13:17.928Z</time>
      </trkpt>
      <trkpt lat="46.38249" lon="8.03545">
        <ele>1963</ele>
        <time>2021-07-10T14:13:18.928Z</time>
      </trkpt>
      <trkpt lat="46.38249" lon="8.03547">
        <ele>1963</ele>
        <time>2021-07-10T14:13:19.928Z</time>
      </trkpt>
      <trkpt lat="46.38249" lon="8.03549">
        <ele>1963</ele>
        <time>2021-07-10T14:13:20.928Z</time>
      </trkpt>
      <trkpt lat="46.3825" lon="8.03551">
        <ele>1963</ele>
        <time>2021-07-10T14:13:26.060Z</time>
      </trkpt>
      <trkpt lat="46.38251" lon="8.03552">
        <ele>1963</ele>
        <time>2021-07-10T14:13:27.061Z</time>
      </trkpt>
      <trkpt lat="46.38251" lon="8.03554">
        <ele>1963</ele>
        <time>2021-07-10T14:13:28.790Z</time>
      </trkpt>
      <trkpt lat="46.38252" lon="8.03557">
        <ele>1962</ele>
        <time>2021-07-10T14:13:29.790Z</time>
      </trkpt>
      <trkpt lat="46.38252" lon="8.03558">
        <ele>1962</ele>
        <time>2021-07-10T14:13:30.789Z</time>
      </trkpt>
      <trkpt lat="46.38253" lon="8.0356">
        <ele>1962</ele>
        <time>2021-07-10T14:13:31.789Z</time>
      </trkpt>
      <trkpt lat="46.38253" lon="8.03561">
        <ele>1961</ele>
        <time>2021-07-10T14:13:32.790Z</time>
      </trkpt>
      <trkpt lat="46.38254" lon="8.03562">
        <ele>1961</ele>
        <time>2021-07-10T14:13:33.789Z</time>
      </trkpt>
      <trkpt lat="46.38255" lon="8.03564">
        <ele>1960</ele>
        <time>2021-07-10T14:13:34.789Z</time>
      </trkpt>
      <trkpt lat="46.38256" lon="8.03565">
        <ele>1960</ele>
        <time>2021-07-10T14:13:35.789Z</time>
      </trkpt>
      <trkpt lat="46.38257" lon="8.03567">
        <ele>1959</ele>
        <time>2021-07-10T14:13:36.790Z</time>
      </trkpt>
      <trkpt lat="46.38258" lon="8.03568">
        <ele>1958</ele>
        <time>2021-07-10T14:13:37.790Z</time>
      </trkpt>
      <trkpt lat="46.38258" lon="8.03569">
        <ele>1958</ele>
        <time>2021-07-10T14:13:38.789Z</time>
      </trkpt>
      <trkpt lat="46.38259" lon="8.0357">
        <ele>1957</ele>
        <time>2021-07-10T14:13:39.790Z</time>
      </trkpt>
      <trkpt lat="46.3826" lon="8.03572">
        <ele>1957</ele>
        <time>2021-07-10T14:13:40.790Z</time>
      </trkpt>
      <trkpt lat="46.38261" lon="8.03574">
        <ele>1957</ele>
        <time>2021-07-10T14:13:41.790Z</time>
      </trkpt>
      <trkpt lat="46.38262" lon="8.03576">
        <ele>1957</ele>
        <time>2021-07-10T14:13:42.790Z</time>
      </trkpt>
      <trkpt lat="46.38263" lon="8.03578">
        <ele>1957</ele>
        <time>2021-07-10T14:13:43.790Z</time>
      </trkpt>
      <trkpt lat="46.38264" lon="8.0358">
        <ele>1957</ele>
        <time>2021-07-10T14:13:44.790Z</time>
      </trkpt>
      <trkpt lat="46.38265" lon="8.03583">
        <ele>1957</ele>
        <time>2021-07-10T14:13:45.790Z</time>
      </trkpt>
      <trkpt lat="46.38266" lon="8.03584">
        <ele>1957</ele>
        <time>2021-07-10T14:13:46.790Z</time>
      </trkpt>
      <trkpt lat="46.38266" lon="8.03586">
        <ele>1957</ele>
        <time>2021-07-10T14:13:47.789Z</time>
      </trkpt>
      <trkpt lat="46.38267" lon="8.03588">
        <ele>1957</ele>
        <time>2021-07-10T14:13:48.789Z</time>
      </trkpt>
      <trkpt lat="46.38267" lon="8.0359">
        <ele>1957</ele>
        <time>2021-07-10T14:13:49.789Z</time>
      </trkpt>
      <trkpt lat="46.38268" lon="8.03592">
        <ele>1957</ele>
        <time>2021-07-10T14:13:50.790Z</time>
      </trkpt>
      <trkpt lat="46.38268" lon="8.03594">
        <ele>1958</ele>
        <time>2021-07-10T14:13:51.789Z</time>
      </trkpt>
      <trkpt lat="46.38268" lon="8.03596">
        <ele>1958</ele>
        <time>2021-07-10T14:13:52.790Z</time>
      </trkpt>
      <trkpt lat="46.38269" lon="8.03598">
        <ele>1957</ele>
        <time>2021-07-10T14:13:53.790Z</time>
      </trkpt>
      <trkpt lat="46.38269" lon="8.03601">
        <ele>1957</ele>
        <time>2021-07-10T14:13:54.790Z</time>
      </trkpt>
      <trkpt lat="46.3827" lon="8.03603">
        <ele>1957</ele>
        <time>2021-07-10T14:13:55.789Z</time>
      </trkpt>
      <trkpt lat="46.3827" lon="8.03604">
        <ele>1956</ele>
        <time>2021-07-10T14:13:56.789Z</time>
      </trkpt>
      <trkpt lat="46.3827" lon="8.03606">
        <ele>1956</ele>
        <time>2021-07-10T14:13:57.789Z</time>
      </trkpt>
      <trkpt lat="46.38269" lon="8.03608">
        <ele>1957</ele>
        <time>2021-07-10T14:13:58.790Z</time>
      </trkpt>
      <trkpt lat="46.38269" lon="8.03609">
        <ele>1957</ele>
        <time>2021-07-10T14:13:59.790Z</time>
      </trkpt>
      <trkpt lat="46.38269" lon="8.03611">
        <ele>1957</ele>
        <time>2021-07-10T14:14:00.790Z</time>
      </trkpt>
      <trkpt lat="46.38268" lon="8.03612">
        <ele>1957</ele>
        <time>2021-07-10T14:14:01.789Z</time>
      </trkpt>
      <trkpt lat="46.38268" lon="8.03613">
        <ele>1957</ele>
        <time>2021-07-10T14:14:02.790Z</time>
      </trkpt>
      <trkpt lat="46.38267" lon="8.03614">
        <ele>1957</ele>
        <time>2021-07-10T14:14:03.790Z</time>
      </trkpt>
      <trkpt lat="46.38266" lon="8.03615">
        <ele>1957</ele>
        <time>2021-07-10T14:14:04.790Z</time>
      </trkpt>
      <trkpt lat="46.38266" lon="8.03617">
        <ele>1956</ele>
        <time>2021-07-10T14:14:05.790Z</time>
      </trkpt>
      <trkpt lat="46.38265" lon="8.03618">
        <ele>1956</ele>
        <time>2021-07-10T14:14:06.789Z</time>
      </trkpt>
      <trkpt lat="46.38264" lon="8.0362">
        <ele>1956</ele>
        <time>2021-07-10T14:14:07.790Z</time>
      </trkpt>
      <trkpt lat="46.38263" lon="8.03621">
        <ele>1956</ele>
        <time>2021-07-10T14:14:08.790Z</time>
      </trkpt>
      <trkpt lat="46.38261" lon="8.03622">
        <ele>1956</ele>
        <time>2021-07-10T14:14:09.790Z</time>
      </trkpt>
      <trkpt lat="46.3826" lon="8.03623">
        <ele>1956</ele>
        <time>2021-07-10T14:14:10.790Z</time>
      </trkpt>
      <trkpt lat="46.38259" lon="8.03624">
        <ele>1955</ele>
        <time>2021-07-10T14:14:11.790Z</time>
      </trkpt>
      <trkpt lat="46.38258" lon="8.03625">
        <ele>1955</ele>
        <time>2021-07-10T14:14:12.790Z</time>
      </trkpt>
      <trkpt lat="46.38257" lon="8.03627">
        <ele>1954</ele>
        <time>2021-07-10T14:14:13.790Z</time>
      </trkpt>
      <trkpt lat="46.38257" lon="8.03629">
        <ele>1954</ele>
        <time>2021-07-10T14:14:14.790Z</time>
      </trkpt>
      <trkpt lat="46.38256" lon="8.0363">
        <ele>1954</ele>
        <time>2021-07-10T14:14:15.789Z</time>
      </trkpt>
      <trkpt lat="46.38255" lon="8.03632">
        <ele>1953</ele>
        <time>2021-07-10T14:14:16.789Z</time>
      </trkpt>
      <trkpt lat="46.38255" lon="8.03634">
        <ele>1953</ele>
        <time>2021-07-10T14:14:17.789Z</time>
      </trkpt>
      <trkpt lat="46.38254" lon="8.03635">
        <ele>1953</ele>
        <time>2021-07-10T14:14:18.789Z</time>
      </trkpt>
      <trkpt lat="46.38254" lon="8.03637">
        <ele>1953</ele>
        <time>2021-07-10T14:14:19.790Z</time>
      </trkpt>
      <trkpt lat="46.38253" lon="8.03639">
        <ele>1953</ele>
        <time>2021-07-10T14:14:20.790Z</time>
      </trkpt>
      <trkpt lat="46.38253" lon="8.03641">
        <ele>1953</ele>
        <time>2021-07-10T14:14:21.790Z</time>
      </trkpt>
      <trkpt lat="46.38253" lon="8.03642">
        <ele>1953</ele>
        <time>2021-07-10T14:14:22.790Z</time>
      </trkpt>
      <trkpt lat="46.38252" lon="8.03644">
        <ele>1953</ele>
        <time>2021-07-10T14:14:23.790Z</time>
      </trkpt>
      <trkpt lat="46.38252" lon="8.03647">
        <ele>1953</ele>
        <time>2021-07-10T14:14:24.790Z</time>
      </trkpt>
      <trkpt lat="46.38251" lon="8.03649">
        <ele>1953</ele>
        <time>2021-07-10T14:14:25.790Z</time>
      </trkpt>
      <trkpt lat="46.38251" lon="8.03651">
        <ele>1953</ele>
        <time>2021-07-10T14:14:26.790Z</time>
      </trkpt>
      <trkpt lat="46.3825" lon="8.03652">
        <ele>1953</ele>
        <time>2021-07-10T14:14:27.790Z</time>
      </trkpt>
      <trkpt lat="46.3825" lon="8.03654">
        <ele>1953</ele>
        <time>2021-07-10T14:14:28.790Z</time>
      </trkpt>
      <trkpt lat="46.38249" lon="8.03656">
        <ele>1953</ele>
        <time>2021-07-10T14:14:29.789Z</time>
      </trkpt>
      <trkpt lat="46.38249" lon="8.03657">
        <ele>1953</ele>
        <time>2021-07-10T14:14:30.789Z</time>
      </trkpt>
      <trkpt lat="46.38249" lon="8.03659">
        <ele>1953</ele>
        <time>2021-07-10T14:14:31.790Z</time>
      </trkpt>
      <trkpt lat="46.38248" lon="8.0366">
        <ele>1953</ele>
        <time>2021-07-10T14:14:32.790Z</time>
      </trkpt>
      <trkpt lat="46.38248" lon="8.03662">
        <ele>1953</ele>
        <time>2021-07-10T14:14:33.790Z</time>
      </trkpt>
      <trkpt lat="46.38248" lon="8.03664">
        <ele>1953</ele>
        <time>2021-07-10T14:14:34.790Z</time>
      </trkpt>
      <trkpt lat="46.38247" lon="8.03666">
        <ele>1953</ele>
        <time>2021-07-10T14:14:35.790Z</time>
      </trkpt>
      <trkpt lat="46.38247" lon="8.03667">
        <ele>1953</ele>
        <time>2021-07-10T14:14:36.790Z</time>
      </trkpt>
      <trkpt lat="46.38247" lon="8.03669">
        <ele>1953</ele>
        <time>2021-07-10T14:14:37.789Z</time>
      </trkpt>
      <trkpt lat="46.38246" lon="8.03672">
        <ele>1954</ele>
        <time>2021-07-10T14:14:38.790Z</time>
      </trkpt>
      <trkpt lat="46.38246" lon="8.03674">
        <ele>1954</ele>
        <time>2021-07-10T14:14:39.790Z</time>
      </trkpt>
      <trkpt lat="46.38246" lon="8.03676">
        <ele>1954</ele>
        <time>2021-07-10T14:14:40.790Z</time>
      </trkpt>
      <trkpt lat="46.38246" lon="8.03678">
        <ele>1954</ele>
        <time>2021-07-10T14:14:41.789Z</time>
      </trkpt>
      <trkpt lat="46.38246" lon="8.0368">
        <ele>1954</ele>
        <time>2021-07-10T14:14:42.790Z</time>
      </trkpt>
      <trkpt lat="46.38246" lon="8.03682">
        <ele>1954</ele>
        <time>2021-07-10T14:14:43.790Z</time>
      </trkpt>
      <trkpt lat="46.38246" lon="8.03684">
        <ele>1954</ele>
        <time>2021-07-10T14:14:44.790Z</time>
      </trkpt>
      <trkpt lat="46.38246" lon="8.03686">
        <ele>1954</ele>
        <time>2021-07-10T14:14:45.789Z</time>
      </trkpt>
      <trkpt lat="46.38247" lon="8.03689">
        <ele>1954</ele>
        <time>2021-07-10T14:14:47.797Z</time>
      </trkpt>
      <trkpt lat="46.38247" lon="8.0369">
        <ele>1954</ele>
        <time>2021-07-10T14:14:48.797Z</time>
      </trkpt>
      <trkpt lat="46.38248" lon="8.03692">
        <ele>1954</ele>
        <time>2021-07-10T14:14:49.797Z</time>
      </trkpt>
      <trkpt lat="46.38248" lon="8.03694">
        <ele>1954</ele>
        <time>2021-07-10T14:14:50.797Z</time>
      </trkpt>
      <trkpt lat="46.38248" lon="8.03695">
        <ele>1954</ele>
        <time>2021-07-10T14:14:51.797Z</time>
      </trkpt>
      <trkpt lat="46.38249" lon="8.03696">
        <ele>1955</ele>
        <time>2021-07-10T14:14:55.939Z</time>
      </trkpt>
      <trkpt lat="46.38249" lon="8.03698">
        <ele>1955</ele>
        <time>2021-07-10T14:14:56.938Z</time>
      </trkpt>
      <trkpt lat="46.3825" lon="8.03699">
        <ele>1955</ele>
        <time>2021-07-10T14:14:57.938Z</time>
      </trkpt>
      <trkpt lat="46.3825" lon="8.037">
        <ele>1955</ele>
        <time>2021-07-10T14:14:58.939Z</time>
      </trkpt>
      <trkpt lat="46.38251" lon="8.037">
        <ele>1955</ele>
        <time>2021-07-10T14:14:59.938Z</time>
      </trkpt>
      <trkpt lat="46.38251" lon="8.03701">
        <ele>1955</ele>
        <time>2021-07-10T14:15:00.938Z</time>
      </trkpt>
      <trkpt lat="46.38252" lon="8.037">
        <ele>1955</ele>
        <time>2021-07-10T14:15:01.939Z</time>
      </trkpt>
      <trkpt lat="46.38252" lon="8.037">
        <ele>1955</ele>
        <time>2021-07-10T14:15:02.939Z</time>
      </trkpt>
      <trkpt lat="46.38248" lon="8.03698">
        <ele>1960</ele>
        <time>2021-07-10T14:15:03.939Z</time>
      </trkpt>
      <trkpt lat="46.38248" lon="8.03698">
        <ele>1961</ele>
        <time>2021-07-10T14:15:04.939Z</time>
      </trkpt>
      <trkpt lat="46.38248" lon="8.03697">
        <ele>1962</ele>
        <time>2021-07-10T14:15:05.938Z</time>
      </trkpt>
      <trkpt lat="46.38248" lon="8.03697">
        <ele>1962</ele>
        <time>2021-07-10T14:15:06.939Z</time>
      </trkpt>
      <trkpt lat="46.38248" lon="8.03697">
        <ele>1963</ele>
        <time>2021-07-10T14:15:07.938Z</time>
      </trkpt>
      <trkpt lat="46.38248" lon="8.03697">
        <ele>1964</ele>
        <time>2021-07-10T14:15:08.939Z</time>
      </trkpt>
      <trkpt lat="46.38246" lon="8.03702">
        <ele>1967</ele>
        <time>2021-07-10T14:15:09.938Z</time>
      </trkpt>
      <trkpt lat="46.38245" lon="8.03701">
        <ele>1967</ele>
        <time>2021-07-10T14:15:10.939Z</time>
      </trkpt>
      <trkpt lat="46.38245" lon="8.037">
        <ele>1967</ele>
        <time>2021-07-10T14:15:11.938Z</time>
      </trkpt>
      <trkpt lat="46.38245" lon="8.03698">
        <ele>1967</ele>
        <time>2021-07-10T14:15:12.940Z</time>
      </trkpt>
      <trkpt lat="46.38246" lon="8.03698">
        <ele>1966</ele>
        <time>2021-07-10T14:15:13.940Z</time>
      </trkpt>
      <trkpt lat="46.38247" lon="8.03699">
        <ele>1966</ele>
        <time>2021-07-10T14:15:14.939Z</time>
      </trkpt>
      <trkpt lat="46.38248" lon="8.037">
        <ele>1965</ele>
        <time>2021-07-10T14:15:15.940Z</time>
      </trkpt>
      <trkpt lat="46.38249" lon="8.03701">
        <ele>1965</ele>
        <time>2021-07-10T14:15:16.940Z</time>
      </trkpt>
      <trkpt lat="46.3825" lon="8.03702">
        <ele>1965</ele>
        <time>2021-07-10T14:15:17.939Z</time>
      </trkpt>
      <trkpt lat="46.3825" lon="8.03703">
        <ele>1965</ele>
        <time>2021-07-10T14:15:18.939Z</time>
      </trkpt>
      <trkpt lat="46.38251" lon="8.03704">
        <ele>1965</ele>
        <time>2021-07-10T14:15:19.939Z</time>
      </trkpt>
      <trkpt lat="46.38251" lon="8.03705">
        <ele>1964</ele>
        <time>2021-07-10T14:15:20.940Z</time>
      </trkpt>
      <trkpt lat="46.38252" lon="8.03706">
        <ele>1964</ele>
        <time>2021-07-10T14:15:21.940Z</time>
      </trkpt>
      <trkpt lat="46.38252" lon="8.03708">
        <ele>1964</ele>
        <time>2021-07-10T14:15:22.939Z</time>
      </trkpt>
      <trkpt lat="46.38252" lon="8.03709">
        <ele>1964</ele>
        <time>2021-07-10T14:15:23.940Z</time>
      </trkpt>
      <trkpt lat="46.38253" lon="8.0371">
        <ele>1964</ele>
        <time>2021-07-10T14:15:24.940Z</time>
      </trkpt>
      <trkpt lat="46.38253" lon="8.03711">
        <ele>1964</ele>
        <time>2021-07-10T14:15:25.940Z</time>
      </trkpt>
      <trkpt lat="46.38254" lon="8.03713">
        <ele>1964</ele>
        <time>2021-07-10T14:15:26.940Z</time>
      </trkpt>
      <trkpt lat="46.38254" lon="8.03715">
        <ele>1964</ele>
        <time>2021-07-10T14:15:27.939Z</time>
      </trkpt>
      <trkpt lat="46.38255" lon="8.03716">
        <ele>1963</ele>
        <time>2021-07-10T14:15:28.939Z</time>
      </trkpt>
      <trkpt lat="46.38256" lon="8.03718">
        <ele>1963</ele>
        <time>2021-07-10T14:15:29.940Z</time>
      </trkpt>
      <trkpt lat="46.38257" lon="8.0372">
        <ele>1962</ele>
        <time>2021-07-10T14:15:30.939Z</time>
      </trkpt>
      <trkpt lat="46.38257" lon="8.03721">
        <ele>1961</ele>
        <time>2021-07-10T14:15:31.940Z</time>
      </trkpt>
      <trkpt lat="46.38258" lon="8.03723">
        <ele>1960</ele>
        <time>2021-07-10T14:15:32.940Z</time>
      </trkpt>
      <trkpt lat="46.38259" lon="8.03724">
        <ele>1960</ele>
        <time>2021-07-10T14:15:33.940Z</time>
      </trkpt>
      <trkpt lat="46.38259" lon="8.03725">
        <ele>1960</ele>
        <time>2021-07-10T14:15:34.940Z</time>
      </trkpt>
      <trkpt lat="46.3826" lon="8.03727">
        <ele>1959</ele>
        <time>2021-07-10T14:15:35.940Z</time>
      </trkpt>
      <trkpt lat="46.3826" lon="8.03728">
        <ele>1959</ele>
        <time>2021-07-10T14:15:36.940Z</time>
      </trkpt>
      <trkpt lat="46.38261" lon="8.0373">
        <ele>1960</ele>
        <time>2021-07-10T14:15:37.939Z</time>
      </trkpt>
      <trkpt lat="46.38262" lon="8.03732">
        <ele>1960</ele>
        <time>2021-07-10T14:15:38.940Z</time>
      </trkpt>
      <trkpt lat="46.38262" lon="8.03734">
        <ele>1960</ele>
        <time>2021-07-10T14:15:39.940Z</time>
      </trkpt>
      <trkpt lat="46.38263" lon="8.03736">
        <ele>1960</ele>
        <time>2021-07-10T14:15:40.940Z</time>
      </trkpt>
      <trkpt lat="46.38264" lon="8.03737">
        <ele>1960</ele>
        <time>2021-07-10T14:15:41.939Z</time>
      </trkpt>
      <trkpt lat="46.38264" lon="8.03739">
        <ele>1960</ele>
        <time>2021-07-10T14:15:42.940Z</time>
      </trkpt>
      <trkpt lat="46.38265" lon="8.0374">
        <ele>1960</ele>
        <time>2021-07-10T14:15:43.940Z</time>
      </trkpt>
      <trkpt lat="46.38265" lon="8.03741">
        <ele>1960</ele>
        <time>2021-07-10T14:15:44.940Z</time>
      </trkpt>
      <trkpt lat="46.38266" lon="8.03743">
        <ele>1960</ele>
        <time>2021-07-10T14:15:45.940Z</time>
      </trkpt>
      <trkpt lat="46.38267" lon="8.03744">
        <ele>1960</ele>
        <time>2021-07-10T14:15:46.940Z</time>
      </trkpt>
      <trkpt lat="46.38267" lon="8.03746">
        <ele>1960</ele>
        <time>2021-07-10T14:15:47.939Z</time>
      </trkpt>
      <trkpt lat="46.38268" lon="8.03748">
        <ele>1960</ele>
        <time>2021-07-10T14:15:48.940Z</time>
      </trkpt>
      <trkpt lat="46.38269" lon="8.03749">
        <ele>1960</ele>
        <time>2021-07-10T14:15:49.940Z</time>
      </trkpt>
      <trkpt lat="46.38269" lon="8.0375">
        <ele>1960</ele>
        <time>2021-07-10T14:15:50.939Z</time>
      </trkpt>
      <trkpt lat="46.3827" lon="8.03752">
        <ele>1959</ele>
        <time>2021-07-10T14:15:51.940Z</time>
      </trkpt>
      <trkpt lat="46.38271" lon="8.03753">
        <ele>1959</ele>
        <time>2021-07-10T14:15:52.939Z</time>
      </trkpt>
      <trkpt lat="46.38271" lon="8.03754">
        <ele>1959</ele>
        <time>2021-07-10T14:15:53.940Z</time>
      </trkpt>
      <trkpt lat="46.38272" lon="8.03755">
        <ele>1959</ele>
        <time>2021-07-10T14:15:54.939Z</time>
      </trkpt>
      <trkpt lat="46.38273" lon="8.03756">
        <ele>1959</ele>
        <time>2021-07-10T14:15:55.940Z</time>
      </trkpt>
      <trkpt lat="46.38274" lon="8.03757">
        <ele>1960</ele>
        <time>2021-07-10T14:15:56.940Z</time>
      </trkpt>
      <trkpt lat="46.38275" lon="8.03758">
        <ele>1960</ele>
        <time>2021-07-10T14:15:57.940Z</time>
      </trkpt>
      <trkpt lat="46.38276" lon="8.0376">
        <ele>1960</ele>
        <time>2021-07-10T14:15:58.940Z</time>
      </trkpt>
      <trkpt lat="46.38277" lon="8.03761">
        <ele>1960</ele>
        <time>2021-07-10T14:15:59.940Z</time>
      </trkpt>
      <trkpt lat="46.38277" lon="8.03763">
        <ele>1960</ele>
        <time>2021-07-10T14:16:00.940Z</time>
      </trkpt>
      <trkpt lat="46.38278" lon="8.03765">
        <ele>1960</ele>
        <time>2021-07-10T14:16:01.939Z</time>
      </trkpt>
      <trkpt lat="46.38278" lon="8.03767">
        <ele>1960</ele>
        <time>2021-07-10T14:16:02.940Z</time>
      </trkpt>
      <trkpt lat="46.38279" lon="8.03768">
        <ele>1960</ele>
        <time>2021-07-10T14:16:03.939Z</time>
      </trkpt>
      <trkpt lat="46.3828" lon="8.03769">
        <ele>1960</ele>
        <time>2021-07-10T14:16:04.940Z</time>
      </trkpt>
      <trkpt lat="46.38281" lon="8.0377">
        <ele>1960</ele>
        <time>2021-07-10T14:16:17.068Z</time>
      </trkpt>
      <trkpt lat="46.38281" lon="8.03771">
        <ele>1960</ele>
        <time>2021-07-10T14:16:18.068Z</time>
      </trkpt>
      <trkpt lat="46.38282" lon="8.03773">
        <ele>1960</ele>
        <time>2021-07-10T14:16:22.917Z</time>
      </trkpt>
      <trkpt lat="46.38283" lon="8.03775">
        <ele>1960</ele>
        <time>2021-07-10T14:16:23.918Z</time>
      </trkpt>
      <trkpt lat="46.38284" lon="8.03776">
        <ele>1960</ele>
        <time>2021-07-10T14:16:28.660Z</time>
      </trkpt>
      <trkpt lat="46.38285" lon="8.03777">
        <ele>1959</ele>
        <time>2021-07-10T14:16:29.660Z</time>
      </trkpt>
      <trkpt lat="46.38285" lon="8.03779">
        <ele>1959</ele>
        <time>2021-07-10T14:16:30.660Z</time>
      </trkpt>
      <trkpt lat="46.38286" lon="8.0378">
        <ele>1960</ele>
        <time>2021-07-10T14:16:31.660Z</time>
      </trkpt>
      <trkpt lat="46.38287" lon="8.03782">
        <ele>1960</ele>
        <time>2021-07-10T14:16:32.660Z</time>
      </trkpt>
      <trkpt lat="46.38288" lon="8.03783">
        <ele>1960</ele>
        <time>2021-07-10T14:16:33.661Z</time>
      </trkpt>
      <trkpt lat="46.38289" lon="8.03784">
        <ele>1960</ele>
        <time>2021-07-10T14:16:34.660Z</time>
      </trkpt>
      <trkpt lat="46.3829" lon="8.03785">
        <ele>1960</ele>
        <time>2021-07-10T14:16:35.660Z</time>
      </trkpt>
      <trkpt lat="46.38291" lon="8.03787">
        <ele>1960</ele>
        <time>2021-07-10T14:16:36.661Z</time>
      </trkpt>
      <trkpt lat="46.38291" lon="8.03788">
        <ele>1960</ele>
        <time>2021-07-10T14:16:37.660Z</time>
      </trkpt>
      <trkpt lat="46.38292" lon="8.03789">
        <ele>1960</ele>
        <time>2021-07-10T14:16:38.661Z</time>
      </trkpt>
      <trkpt lat="46.38293" lon="8.0379">
        <ele>1960</ele>
        <time>2021-07-10T14:16:39.661Z</time>
      </trkpt>
      <trkpt lat="46.38294" lon="8.03792">
        <ele>1960</ele>
        <time>2021-07-10T14:16:40.660Z</time>
      </trkpt>
      <trkpt lat="46.38295" lon="8.03793">
        <ele>1960</ele>
        <time>2021-07-10T14:16:41.661Z</time>
      </trkpt>
      <trkpt lat="46.38296" lon="8.03795">
        <ele>1959</ele>
        <time>2021-07-10T14:16:42.660Z</time>
      </trkpt>
      <trkpt lat="46.38297" lon="8.03796">
        <ele>1959</ele>
        <time>2021-07-10T14:16:43.660Z</time>
      </trkpt>
      <trkpt lat="46.38297" lon="8.03798">
        <ele>1959</ele>
        <time>2021-07-10T14:16:44.661Z</time>
      </trkpt>
      <trkpt lat="46.38298" lon="8.038">
        <ele>1959</ele>
        <time>2021-07-10T14:16:45.661Z</time>
      </trkpt>
      <trkpt lat="46.38299" lon="8.03801">
        <ele>1959</ele>
        <time>2021-07-10T14:16:51.691Z</time>
      </trkpt>
      <trkpt lat="46.383" lon="8.03802">
        <ele>1960</ele>
        <time>2021-07-10T14:16:52.691Z</time>
      </trkpt>
      <trkpt lat="46.383" lon="8.03802">
        <ele>1960</ele>
        <time>2021-07-10T14:16:53.690Z</time>
      </trkpt>
      <trkpt lat="46.38301" lon="8.03804">
        <ele>1960</ele>
        <time>2021-07-10T14:16:54.690Z</time>
      </trkpt>
      <trkpt lat="46.38302" lon="8.03806">
        <ele>1960</ele>
        <time>2021-07-10T14:16:55.691Z</time>
      </trkpt>
      <trkpt lat="46.38302" lon="8.03808">
        <ele>1960</ele>
        <time>2021-07-10T14:16:56.691Z</time>
      </trkpt>
      <trkpt lat="46.38303" lon="8.0381">
        <ele>1960</ele>
        <time>2021-07-10T14:16:57.690Z</time>
      </trkpt>
      <trkpt lat="46.38304" lon="8.0381">
        <ele>1960</ele>
        <time>2021-07-10T14:16:58.691Z</time>
      </trkpt>
      <trkpt lat="46.38304" lon="8.03811">
        <ele>1960</ele>
        <time>2021-07-10T14:16:59.690Z</time>
      </trkpt>
      <trkpt lat="46.38305" lon="8.03813">
        <ele>1961</ele>
        <time>2021-07-10T14:17:00.691Z</time>
      </trkpt>
      <trkpt lat="46.38306" lon="8.03815">
        <ele>1961</ele>
        <time>2021-07-10T14:17:01.690Z</time>
      </trkpt>
      <trkpt lat="46.38306" lon="8.03816">
        <ele>1961</ele>
        <time>2021-07-10T14:17:02.691Z</time>
      </trkpt>
      <trkpt lat="46.38307" lon="8.03817">
        <ele>1960</ele>
        <time>2021-07-10T14:17:03.691Z</time>
      </trkpt>
      <trkpt lat="46.38308" lon="8.03818">
        <ele>1960</ele>
        <time>2021-07-10T14:17:04.690Z</time>
      </trkpt>
      <trkpt lat="46.38308" lon="8.0382">
        <ele>1960</ele>
        <time>2021-07-10T14:17:05.691Z</time>
      </trkpt>
      <trkpt lat="46.38309" lon="8.03821">
        <ele>1960</ele>
        <time>2021-07-10T14:17:06.690Z</time>
      </trkpt>
      <trkpt lat="46.38309" lon="8.03823">
        <ele>1960</ele>
        <time>2021-07-10T14:17:07.690Z</time>
      </trkpt>
      <trkpt lat="46.3831" lon="8.03824">
        <ele>1960</ele>
        <time>2021-07-10T14:17:08.690Z</time>
      </trkpt>
      <trkpt lat="46.3831" lon="8.03825">
        <ele>1960</ele>
        <time>2021-07-10T14:17:09.691Z</time>
      </trkpt>
      <trkpt lat="46.38311" lon="8.03827">
        <ele>1960</ele>
        <time>2021-07-10T14:17:10.690Z</time>
      </trkpt>
      <trkpt lat="46.38311" lon="8.03829">
        <ele>1960</ele>
        <time>2021-07-10T14:17:11.691Z</time>
      </trkpt>
      <trkpt lat="46.38312" lon="8.0383">
        <ele>1960</ele>
        <time>2021-07-10T14:17:12.691Z</time>
      </trkpt>
      <trkpt lat="46.38312" lon="8.03831">
        <ele>1960</ele>
        <time>2021-07-10T14:17:13.691Z</time>
      </trkpt>
      <trkpt lat="46.38313" lon="8.03834">
        <ele>1960</ele>
        <time>2021-07-10T14:17:14.690Z</time>
      </trkpt>
      <trkpt lat="46.38313" lon="8.03835">
        <ele>1960</ele>
        <time>2021-07-10T14:17:15.691Z</time>
      </trkpt>
      <trkpt lat="46.38314" lon="8.03837">
        <ele>1960</ele>
        <time>2021-07-10T14:17:16.691Z</time>
      </trkpt>
      <trkpt lat="46.38314" lon="8.03838">
        <ele>1960</ele>
        <time>2021-07-10T14:17:17.691Z</time>
      </trkpt>
      <trkpt lat="46.38314" lon="8.0384">
        <ele>1960</ele>
        <time>2021-07-10T14:17:18.690Z</time>
      </trkpt>
      <trkpt lat="46.38315" lon="8.03841">
        <ele>1960</ele>
        <time>2021-07-10T14:17:19.691Z</time>
      </trkpt>
      <trkpt lat="46.38315" lon="8.03843">
        <ele>1960</ele>
        <time>2021-07-10T14:17:20.691Z</time>
      </trkpt>
      <trkpt lat="46.38315" lon="8.03844">
        <ele>1961</ele>
        <time>2021-07-10T14:17:21.691Z</time>
      </trkpt>
      <trkpt lat="46.38316" lon="8.03846">
        <ele>1961</ele>
        <time>2021-07-10T14:17:22.691Z</time>
      </trkpt>
      <trkpt lat="46.38316" lon="8.03847">
        <ele>1961</ele>
        <time>2021-07-10T14:17:23.691Z</time>
      </trkpt>
      <trkpt lat="46.38317" lon="8.03848">
        <ele>1961</ele>
        <time>2021-07-10T14:17:24.691Z</time>
      </trkpt>
      <trkpt lat="46.38318" lon="8.0385">
        <ele>1962</ele>
        <time>2021-07-10T14:17:25.691Z</time>
      </trkpt>
      <trkpt lat="46.38318" lon="8.0385">
        <ele>1962</ele>
        <time>2021-07-10T14:17:26.691Z</time>
      </trkpt>
      <trkpt lat="46.38318" lon="8.03851">
        <ele>1962</ele>
        <time>2021-07-10T14:17:27.691Z</time>
      </trkpt>
      <trkpt lat="46.38319" lon="8.03852">
        <ele>1961</ele>
        <time>2021-07-10T14:17:28.691Z</time>
      </trkpt>
      <trkpt lat="46.38319" lon="8.03852">
        <ele>1961</ele>
        <time>2021-07-10T14:17:29.691Z</time>
      </trkpt>
      <trkpt lat="46.38319" lon="8.03854">
        <ele>1961</ele>
        <time>2021-07-10T14:17:30.690Z</time>
      </trkpt>
      <trkpt lat="46.3832" lon="8.03855">
        <ele>1961</ele>
        <time>2021-07-10T14:17:31.691Z</time>
      </trkpt>
      <trkpt lat="46.3832" lon="8.03856">
        <ele>1961</ele>
        <time>2021-07-10T14:17:32.691Z</time>
      </trkpt>
      <trkpt lat="46.38321" lon="8.03856">
        <ele>1961</ele>
        <time>2021-07-10T14:17:33.691Z</time>
      </trkpt>
      <trkpt lat="46.38322" lon="8.03857">
        <ele>1962</ele>
        <time>2021-07-10T14:17:34.690Z</time>
      </trkpt>
      <trkpt lat="46.38322" lon="8.03858">
        <ele>1963</ele>
        <time>2021-07-10T14:17:35.690Z</time>
      </trkpt>
      <trkpt lat="46.38322" lon="8.03859">
        <ele>1963</ele>
        <time>2021-07-10T14:17:36.691Z</time>
      </trkpt>
      <trkpt lat="46.38323" lon="8.03861">
        <ele>1963</ele>
        <time>2021-07-10T14:17:37.690Z</time>
      </trkpt>
      <trkpt lat="46.38323" lon="8.03862">
        <ele>1964</ele>
        <time>2021-07-10T14:17:38.690Z</time>
      </trkpt>
      <trkpt lat="46.38323" lon="8.03863">
        <ele>1964</ele>
        <time>2021-07-10T14:17:39.690Z</time>
      </trkpt>
      <trkpt lat="46.38323" lon="8.03865">
        <ele>1965</ele>
        <time>2021-07-10T14:17:40.690Z</time>
      </trkpt>
      <trkpt lat="46.38324" lon="8.03867">
        <ele>1965</ele>
        <time>2021-07-10T14:17:41.691Z</time>
      </trkpt>
      <trkpt lat="46.38325" lon="8.03869">
        <ele>1965</ele>
        <time>2021-07-10T14:17:42.690Z</time>
      </trkpt>
      <trkpt lat="46.38325" lon="8.0387">
        <ele>1965</ele>
        <time>2021-07-10T14:17:43.690Z</time>
      </trkpt>
      <trkpt lat="46.38326" lon="8.03872">
        <ele>1965</ele>
        <time>2021-07-10T14:17:44.690Z</time>
      </trkpt>
      <trkpt lat="46.38327" lon="8.03873">
        <ele>1965</ele>
        <time>2021-07-10T14:17:45.691Z</time>
      </trkpt>
      <trkpt lat="46.38327" lon="8.03875">
        <ele>1965</ele>
        <time>2021-07-10T14:17:46.690Z</time>
      </trkpt>
      <trkpt lat="46.38328" lon="8.03877">
        <ele>1965</ele>
        <time>2021-07-10T14:17:47.691Z</time>
      </trkpt>
      <trkpt lat="46.38328" lon="8.03878">
        <ele>1965</ele>
        <time>2021-07-10T14:17:48.691Z</time>
      </trkpt>
      <trkpt lat="46.38329" lon="8.0388">
        <ele>1965</ele>
        <time>2021-07-10T14:17:49.691Z</time>
      </trkpt>
      <trkpt lat="46.38329" lon="8.03881">
        <ele>1965</ele>
        <time>2021-07-10T14:17:50.690Z</time>
      </trkpt>
      <trkpt lat="46.3833" lon="8.03882">
        <ele>1965</ele>
        <time>2021-07-10T14:17:51.690Z</time>
      </trkpt>
      <trkpt lat="46.38331" lon="8.03884">
        <ele>1965</ele>
        <time>2021-07-10T14:17:57.690Z</time>
      </trkpt>
      <trkpt lat="46.38331" lon="8.03886">
        <ele>1966</ele>
        <time>2021-07-10T14:17:58.690Z</time>
      </trkpt>
      <trkpt lat="46.38331" lon="8.03888">
        <ele>1966</ele>
        <time>2021-07-10T14:17:59.691Z</time>
      </trkpt>
      <trkpt lat="46.38331" lon="8.0389">
        <ele>1967</ele>
        <time>2021-07-10T14:18:00.691Z</time>
      </trkpt>
      <trkpt lat="46.38331" lon="8.03891">
        <ele>1967</ele>
        <time>2021-07-10T14:18:01.691Z</time>
      </trkpt>
      <trkpt lat="46.38332" lon="8.03892">
        <ele>1968</ele>
        <time>2021-07-10T14:18:02.691Z</time>
      </trkpt>
      <trkpt lat="46.38333" lon="8.03893">
        <ele>1968</ele>
        <time>2021-07-10T14:18:03.691Z</time>
      </trkpt>
      <trkpt lat="46.38333" lon="8.03895">
        <ele>1969</ele>
        <time>2021-07-10T14:18:04.691Z</time>
      </trkpt>
      <trkpt lat="46.38334" lon="8.03896">
        <ele>1969</ele>
        <time>2021-07-10T14:18:05.691Z</time>
      </trkpt>
      <trkpt lat="46.38334" lon="8.03898">
        <ele>1970</ele>
        <time>2021-07-10T14:18:06.690Z</time>
      </trkpt>
      <trkpt lat="46.38335" lon="8.03899">
        <ele>1970</ele>
        <time>2021-07-10T14:18:07.691Z</time>
      </trkpt>
      <trkpt lat="46.38335" lon="8.03901">
        <ele>1971</ele>
        <time>2021-07-10T14:18:08.691Z</time>
      </trkpt>
      <trkpt lat="46.38336" lon="8.03902">
        <ele>1972</ele>
        <time>2021-07-10T14:18:09.691Z</time>
      </trkpt>
      <trkpt lat="46.38336" lon="8.03904">
        <ele>1972</ele>
        <time>2021-07-10T14:18:10.690Z</time>
      </trkpt>
      <trkpt lat="46.38336" lon="8.03905">
        <ele>1973</ele>
        <time>2021-07-10T14:18:11.691Z</time>
      </trkpt>
      <trkpt lat="46.38337" lon="8.03907">
        <ele>1974</ele>
        <time>2021-07-10T14:18:12.691Z</time>
      </trkpt>
      <trkpt lat="46.38338" lon="8.03908">
        <ele>1974</ele>
        <time>2021-07-10T14:18:13.691Z</time>
      </trkpt>
      <trkpt lat="46.38338" lon="8.0391">
        <ele>1975</ele>
        <time>2021-07-10T14:18:14.691Z</time>
      </trkpt>
      <trkpt lat="46.38339" lon="8.03911">
        <ele>1975</ele>
        <time>2021-07-10T14:18:15.691Z</time>
      </trkpt>
      <trkpt lat="46.38339" lon="8.03913">
        <ele>1975</ele>
        <time>2021-07-10T14:18:16.691Z</time>
      </trkpt>
      <trkpt lat="46.3834" lon="8.03914">
        <ele>1976</ele>
        <time>2021-07-10T14:18:17.691Z</time>
      </trkpt>
      <trkpt lat="46.3834" lon="8.03915">
        <ele>1976</ele>
        <time>2021-07-10T14:18:18.690Z</time>
      </trkpt>
      <trkpt lat="46.38341" lon="8.03917">
        <ele>1976</ele>
        <time>2021-07-10T14:18:19.690Z</time>
      </trkpt>
      <trkpt lat="46.38341" lon="8.03918">
        <ele>1976</ele>
        <time>2021-07-10T14:18:20.690Z</time>
      </trkpt>
      <trkpt lat="46.38342" lon="8.03919">
        <ele>1977</ele>
        <time>2021-07-10T14:18:21.691Z</time>
      </trkpt>
      <trkpt lat="46.38343" lon="8.03921">
        <ele>1977</ele>
        <time>2021-07-10T14:18:22.691Z</time>
      </trkpt>
      <trkpt lat="46.38343" lon="8.03922">
        <ele>1978</ele>
        <time>2021-07-10T14:18:23.691Z</time>
      </trkpt>
      <trkpt lat="46.38344" lon="8.03923">
        <ele>1979</ele>
        <time>2021-07-10T14:18:24.690Z</time>
      </trkpt>
      <trkpt lat="46.38344" lon="8.03924">
        <ele>1979</ele>
        <time>2021-07-10T14:18:25.690Z</time>
      </trkpt>
      <trkpt lat="46.38345" lon="8.03926">
        <ele>1980</ele>
        <time>2021-07-10T14:18:26.691Z</time>
      </trkpt>
      <trkpt lat="46.38345" lon="8.03927">
        <ele>1980</ele>
        <time>2021-07-10T14:18:27.690Z</time>
      </trkpt>
      <trkpt lat="46.38346" lon="8.03928">
        <ele>1981</ele>
        <time>2021-07-10T14:18:28.690Z</time>
      </trkpt>
      <trkpt lat="46.38346" lon="8.03929">
        <ele>1982</ele>
        <time>2021-07-10T14:18:29.691Z</time>
      </trkpt>
      <trkpt lat="46.38347" lon="8.0393">
        <ele>1982</ele>
        <time>2021-07-10T14:18:30.690Z</time>
      </trkpt>
      <trkpt lat="46.38347" lon="8.03931">
        <ele>1982</ele>
        <time>2021-07-10T14:18:31.691Z</time>
      </trkpt>
      <trkpt lat="46.38348" lon="8.03932">
        <ele>1982</ele>
        <time>2021-07-10T14:18:32.691Z</time>
      </trkpt>
      <trkpt lat="46.38348" lon="8.03934">
        <ele>1982</ele>
        <time>2021-07-10T14:18:33.690Z</time>
      </trkpt>
      <trkpt lat="46.38348" lon="8.03935">
        <ele>1982</ele>
        <time>2021-07-10T14:18:34.691Z</time>
      </trkpt>
      <trkpt lat="46.38348" lon="8.03937">
        <ele>1983</ele>
        <time>2021-07-10T14:18:35.691Z</time>
      </trkpt>
      <trkpt lat="46.38348" lon="8.03938">
        <ele>1983</ele>
        <time>2021-07-10T14:18:36.691Z</time>
      </trkpt>
      <trkpt lat="46.38349" lon="8.0394">
        <ele>1983</ele>
        <time>2021-07-10T14:18:37.690Z</time>
      </trkpt>
      <trkpt lat="46.3835" lon="8.03941">
        <ele>1983</ele>
        <time>2021-07-10T14:18:38.690Z</time>
      </trkpt>
      <trkpt lat="46.38351" lon="8.03943">
        <ele>1983</ele>
        <time>2021-07-10T14:18:39.690Z</time>
      </trkpt>
      <trkpt lat="46.38352" lon="8.03944">
        <ele>1983</ele>
        <time>2021-07-10T14:18:40.691Z</time>
      </trkpt>
      <trkpt lat="46.38353" lon="8.03946">
        <ele>1983</ele>
        <time>2021-07-10T14:18:41.690Z</time>
      </trkpt>
      <trkpt lat="46.38353" lon="8.03947">
        <ele>1983</ele>
        <time>2021-07-10T14:18:42.690Z</time>
      </trkpt>
      <trkpt lat="46.38353" lon="8.03949">
        <ele>1984</ele>
        <time>2021-07-10T14:18:43.691Z</time>
      </trkpt>
      <trkpt lat="46.38354" lon="8.0395">
        <ele>1984</ele>
        <time>2021-07-10T14:18:44.691Z</time>
      </trkpt>
      <trkpt lat="46.38354" lon="8.03951">
        <ele>1984</ele>
        <time>2021-07-10T14:18:45.691Z</time>
      </trkpt>
      <trkpt lat="46.38355" lon="8.03952">
        <ele>1985</ele>
        <time>2021-07-10T14:18:46.691Z</time>
      </trkpt>
      <trkpt lat="46.38355" lon="8.03954">
        <ele>1985</ele>
        <time>2021-07-10T14:18:47.691Z</time>
      </trkpt>
      <trkpt lat="46.38356" lon="8.03955">
        <ele>1986</ele>
        <time>2021-07-10T14:18:48.691Z</time>
      </trkpt>
      <trkpt lat="46.38357" lon="8.03957">
        <ele>1986</ele>
        <time>2021-07-10T14:18:49.691Z</time>
      </trkpt>
      <trkpt lat="46.38358" lon="8.03958">
        <ele>1986</ele>
        <time>2021-07-10T14:18:50.690Z</time>
      </trkpt>
      <trkpt lat="46.38359" lon="8.03959">
        <ele>1986</ele>
        <time>2021-07-10T14:18:51.691Z</time>
      </trkpt>
      <trkpt lat="46.3836" lon="8.0396">
        <ele>1986</ele>
        <time>2021-07-10T14:18:53.799Z</time>
      </trkpt>
      <trkpt lat="46.38361" lon="8.03961">
        <ele>1987</ele>
        <time>2021-07-10T14:18:54.799Z</time>
      </trkpt>
      <trkpt lat="46.38361" lon="8.03962">
        <ele>1987</ele>
        <time>2021-07-10T14:18:55.799Z</time>
      </trkpt>
      <trkpt lat="46.38362" lon="8.03963">
        <ele>1987</ele>
        <time>2021-07-10T14:18:56.799Z</time>
      </trkpt>
      <trkpt lat="46.38363" lon="8.03964">
        <ele>1986</ele>
        <time>2021-07-10T14:18:57.799Z</time>
      </trkpt>
      <trkpt lat="46.38364" lon="8.03965">
        <ele>1986</ele>
        <time>2021-07-10T14:18:58.799Z</time>
      </trkpt>
      <trkpt lat="46.38364" lon="8.03965">
        <ele>1986</ele>
        <time>2021-07-10T14:18:59.799Z</time>
      </trkpt>
      <trkpt lat="46.38365" lon="8.03966">
        <ele>1986</ele>
        <time>2021-07-10T14:19:00.798Z</time>
      </trkpt>
      <trkpt lat="46.38366" lon="8.03967">
        <ele>1985</ele>
        <time>2021-07-10T14:19:01.799Z</time>
      </trkpt>
      <trkpt lat="46.38367" lon="8.03968">
        <ele>1985</ele>
        <time>2021-07-10T14:19:02.799Z</time>
      </trkpt>
      <trkpt lat="46.38368" lon="8.0397">
        <ele>1985</ele>
        <time>2021-07-10T14:19:03.798Z</time>
      </trkpt>
      <trkpt lat="46.38369" lon="8.03971">
        <ele>1985</ele>
        <time>2021-07-10T14:19:04.799Z</time>
      </trkpt>
      <trkpt lat="46.3837" lon="8.03972">
        <ele>1985</ele>
        <time>2021-07-10T14:19:05.799Z</time>
      </trkpt>
      <trkpt lat="46.38371" lon="8.03973">
        <ele>1985</ele>
        <time>2021-07-10T14:19:06.798Z</time>
      </trkpt>
      <trkpt lat="46.38372" lon="8.03974">
        <ele>1984</ele>
        <time>2021-07-10T14:19:07.799Z</time>
      </trkpt>
      <trkpt lat="46.38373" lon="8.03975">
        <ele>1984</ele>
        <time>2021-07-10T14:19:08.798Z</time>
      </trkpt>
      <trkpt lat="46.38373" lon="8.03977">
        <ele>1984</ele>
        <time>2021-07-10T14:19:09.799Z</time>
      </trkpt>
      <trkpt lat="46.38374" lon="8.03978">
        <ele>1984</ele>
        <time>2021-07-10T14:19:10.799Z</time>
      </trkpt>
      <trkpt lat="46.38375" lon="8.0398">
        <ele>1985</ele>
        <time>2021-07-10T14:19:11.799Z</time>
      </trkpt>
      <trkpt lat="46.38376" lon="8.03981">
        <ele>1985</ele>
        <time>2021-07-10T14:19:12.798Z</time>
      </trkpt>
      <trkpt lat="46.38377" lon="8.03982">
        <ele>1986</ele>
        <time>2021-07-10T14:19:13.798Z</time>
      </trkpt>
      <trkpt lat="46.38378" lon="8.03984">
        <ele>1986</ele>
        <time>2021-07-10T14:19:14.798Z</time>
      </trkpt>
      <trkpt lat="46.38379" lon="8.03985">
        <ele>1986</ele>
        <time>2021-07-10T14:19:15.799Z</time>
      </trkpt>
      <trkpt lat="46.3838" lon="8.03986">
        <ele>1986</ele>
        <time>2021-07-10T14:19:16.799Z</time>
      </trkpt>
      <trkpt lat="46.3838" lon="8.03988">
        <ele>1987</ele>
        <time>2021-07-10T14:19:17.799Z</time>
      </trkpt>
      <trkpt lat="46.38381" lon="8.03989">
        <ele>1987</ele>
        <time>2021-07-10T14:19:18.798Z</time>
      </trkpt>
      <trkpt lat="46.38381" lon="8.0399">
        <ele>1987</ele>
        <time>2021-07-10T14:19:19.799Z</time>
      </trkpt>
      <trkpt lat="46.38382" lon="8.03991">
        <ele>1987</ele>
        <time>2021-07-10T14:19:20.798Z</time>
      </trkpt>
      <trkpt lat="46.38383" lon="8.03993">
        <ele>1988</ele>
        <time>2021-07-10T14:19:21.798Z</time>
      </trkpt>
      <trkpt lat="46.38384" lon="8.03994">
        <ele>1988</ele>
        <time>2021-07-10T14:19:22.798Z</time>
      </trkpt>
      <trkpt lat="46.38384" lon="8.03995">
        <ele>1988</ele>
        <time>2021-07-10T14:19:23.799Z</time>
      </trkpt>
      <trkpt lat="46.38385" lon="8.03997">
        <ele>1989</ele>
        <time>2021-07-10T14:19:24.799Z</time>
      </trkpt>
      <trkpt lat="46.38385" lon="8.03999">
        <ele>1989</ele>
        <time>2021-07-10T14:19:25.798Z</time>
      </trkpt>
      <trkpt lat="46.38386" lon="8.04">
        <ele>1989</ele>
        <time>2021-07-10T14:19:26.798Z</time>
      </trkpt>
      <trkpt lat="46.38387" lon="8.04001">
        <ele>1990</ele>
        <time>2021-07-10T14:19:27.799Z</time>
      </trkpt>
      <trkpt lat="46.38387" lon="8.04002">
        <ele>1990</ele>
        <time>2021-07-10T14:19:28.799Z</time>
      </trkpt>
      <trkpt lat="46.38388" lon="8.04003">
        <ele>1990</ele>
        <time>2021-07-10T14:19:29.799Z</time>
      </trkpt>
      <trkpt lat="46.38389" lon="8.04005">
        <ele>1991</ele>
        <time>2021-07-10T14:19:30.798Z</time>
      </trkpt>
      <trkpt lat="46.3839" lon="8.04007">
        <ele>1991</ele>
        <time>2021-07-10T14:19:43.914Z</time>
      </trkpt>
      <trkpt lat="46.3839" lon="8.04008">
        <ele>1991</ele>
        <time>2021-07-10T14:19:44.915Z</time>
      </trkpt>
      <trkpt lat="46.38391" lon="8.0401">
        <ele>1992</ele>
        <time>2021-07-10T14:19:45.915Z</time>
      </trkpt>
      <trkpt lat="46.38393" lon="8.04011">
        <ele>1992</ele>
        <time>2021-07-10T14:19:46.915Z</time>
      </trkpt>
      <trkpt lat="46.38395" lon="8.04013">
        <ele>1992</ele>
        <time>2021-07-10T14:19:47.915Z</time>
      </trkpt>
      <trkpt lat="46.38396" lon="8.04014">
        <ele>1992</ele>
        <time>2021-07-10T14:19:48.915Z</time>
      </trkpt>
      <trkpt lat="46.38397" lon="8.04014">
        <ele>1993</ele>
        <time>2021-07-10T14:19:49.914Z</time>
      </trkpt>
      <trkpt lat="46.38398" lon="8.04016">
        <ele>1993</ele>
        <time>2021-07-10T14:19:50.915Z</time>
      </trkpt>
      <trkpt lat="46.38398" lon="8.04018">
        <ele>1993</ele>
        <time>2021-07-10T14:19:51.914Z</time>
      </trkpt>
      <trkpt lat="46.38399" lon="8.0402">
        <ele>1994</ele>
        <time>2021-07-10T14:19:52.914Z</time>
      </trkpt>
      <trkpt lat="46.384" lon="8.04023">
        <ele>1994</ele>
        <time>2021-07-10T14:19:53.915Z</time>
      </trkpt>
      <trkpt lat="46.384" lon="8.04025">
        <ele>1994</ele>
        <time>2021-07-10T14:19:54.914Z</time>
      </trkpt>
      <trkpt lat="46.38401" lon="8.04026">
        <ele>1993</ele>
        <time>2021-07-10T14:19:55.915Z</time>
      </trkpt>
      <trkpt lat="46.38403" lon="8.04027">
        <ele>1993</ele>
        <time>2021-07-10T14:19:56.914Z</time>
      </trkpt>
      <trkpt lat="46.38404" lon="8.04029">
        <ele>1993</ele>
        <time>2021-07-10T14:19:57.914Z</time>
      </trkpt>
      <trkpt lat="46.38405" lon="8.0403">
        <ele>1993</ele>
        <time>2021-07-10T14:19:58.915Z</time>
      </trkpt>
      <trkpt lat="46.38406" lon="8.04031">
        <ele>1993</ele>
        <time>2021-07-10T14:19:59.914Z</time>
      </trkpt>
      <trkpt lat="46.38407" lon="8.04033">
        <ele>1994</ele>
        <time>2021-07-10T14:20:00.915Z</time>
      </trkpt>
      <trkpt lat="46.38408" lon="8.04035">
        <ele>1994</ele>
        <time>2021-07-10T14:20:01.915Z</time>
      </trkpt>
      <trkpt lat="46.38408" lon="8.04036">
        <ele>1994</ele>
        <time>2021-07-10T14:20:02.914Z</time>
      </trkpt>
      <trkpt lat="46.38409" lon="8.04038">
        <ele>1993</ele>
        <time>2021-07-10T14:20:03.915Z</time>
      </trkpt>
      <trkpt lat="46.3841" lon="8.0404">
        <ele>1993</ele>
        <time>2021-07-10T14:20:04.914Z</time>
      </trkpt>
      <trkpt lat="46.38411" lon="8.04041">
        <ele>1993</ele>
        <time>2021-07-10T14:20:05.914Z</time>
      </trkpt>
      <trkpt lat="46.38411" lon="8.04043">
        <ele>1993</ele>
        <time>2021-07-10T14:20:06.914Z</time>
      </trkpt>
      <trkpt lat="46.38412" lon="8.04044">
        <ele>1993</ele>
        <time>2021-07-10T14:20:07.915Z</time>
      </trkpt>
      <trkpt lat="46.38413" lon="8.04046">
        <ele>1993</ele>
        <time>2021-07-10T14:20:08.915Z</time>
      </trkpt>
      <trkpt lat="46.38413" lon="8.04047">
        <ele>1993</ele>
        <time>2021-07-10T14:20:09.915Z</time>
      </trkpt>
      <trkpt lat="46.38414" lon="8.04049">
        <ele>1993</ele>
        <time>2021-07-10T14:20:10.915Z</time>
      </trkpt>
      <trkpt lat="46.38414" lon="8.0405">
        <ele>1993</ele>
        <time>2021-07-10T14:20:11.915Z</time>
      </trkpt>
      <trkpt lat="46.38415" lon="8.04052">
        <ele>1993</ele>
        <time>2021-07-10T14:20:12.915Z</time>
      </trkpt>
      <trkpt lat="46.38415" lon="8.04053">
        <ele>1992</ele>
        <time>2021-07-10T14:20:13.914Z</time>
      </trkpt>
      <trkpt lat="46.38415" lon="8.04055">
        <ele>1992</ele>
        <time>2021-07-10T14:20:14.915Z</time>
      </trkpt>
      <trkpt lat="46.38415" lon="8.04056">
        <ele>1992</ele>
        <time>2021-07-10T14:20:15.914Z</time>
      </trkpt>
      <trkpt lat="46.38415" lon="8.04058">
        <ele>1993</ele>
        <time>2021-07-10T14:20:16.915Z</time>
      </trkpt>
      <trkpt lat="46.38415" lon="8.0406">
        <ele>1993</ele>
        <time>2021-07-10T14:20:17.914Z</time>
      </trkpt>
      <trkpt lat="46.38416" lon="8.04062">
        <ele>1993</ele>
        <time>2021-07-10T14:20:18.914Z</time>
      </trkpt>
      <trkpt lat="46.38416" lon="8.04064">
        <ele>1994</ele>
        <time>2021-07-10T14:20:19.915Z</time>
      </trkpt>
      <trkpt lat="46.38416" lon="8.04065">
        <ele>1994</ele>
        <time>2021-07-10T14:20:20.915Z</time>
      </trkpt>
      <trkpt lat="46.38416" lon="8.04067">
        <ele>1993</ele>
        <time>2021-07-10T14:20:21.915Z</time>
      </trkpt>
      <trkpt lat="46.38416" lon="8.04069">
        <ele>1993</ele>
        <time>2021-07-10T14:20:22.915Z</time>
      </trkpt>
      <trkpt lat="46.38416" lon="8.04071">
        <ele>1993</ele>
        <time>2021-07-10T14:20:23.915Z</time>
      </trkpt>
      <trkpt lat="46.38416" lon="8.04073">
        <ele>1993</ele>
        <time>2021-07-10T14:20:24.915Z</time>
      </trkpt>
      <trkpt lat="46.38416" lon="8.04074">
        <ele>1992</ele>
        <time>2021-07-10T14:20:25.914Z</time>
      </trkpt>
      <trkpt lat="46.38416" lon="8.04076">
        <ele>1992</ele>
        <time>2021-07-10T14:20:26.915Z</time>
      </trkpt>
      <trkpt lat="46.38417" lon="8.04077">
        <ele>1992</ele>
        <time>2021-07-10T14:20:27.915Z</time>
      </trkpt>
      <trkpt lat="46.38417" lon="8.04079">
        <ele>1991</ele>
        <time>2021-07-10T14:20:28.914Z</time>
      </trkpt>
      <trkpt lat="46.38418" lon="8.04081">
        <ele>1991</ele>
        <time>2021-07-10T14:20:29.914Z</time>
      </trkpt>
      <trkpt lat="46.38418" lon="8.04083">
        <ele>1991</ele>
        <time>2021-07-10T14:20:30.914Z</time>
      </trkpt>
      <trkpt lat="46.38418" lon="8.04085">
        <ele>1991</ele>
        <time>2021-07-10T14:20:31.915Z</time>
      </trkpt>
      <trkpt lat="46.38418" lon="8.04087">
        <ele>1991</ele>
        <time>2021-07-10T14:20:32.915Z</time>
      </trkpt>
      <trkpt lat="46.38419" lon="8.04089">
        <ele>1991</ele>
        <time>2021-07-10T14:20:33.915Z</time>
      </trkpt>
      <trkpt lat="46.38419" lon="8.04091">
        <ele>1991</ele>
        <time>2021-07-10T14:20:34.914Z</time>
      </trkpt>
      <trkpt lat="46.38419" lon="8.04093">
        <ele>1991</ele>
        <time>2021-07-10T14:20:35.914Z</time>
      </trkpt>
      <trkpt lat="46.38419" lon="8.04095">
        <ele>1991</ele>
        <time>2021-07-10T14:20:36.915Z</time>
      </trkpt>
      <trkpt lat="46.38419" lon="8.04097">
        <ele>1991</ele>
        <time>2021-07-10T14:20:37.914Z</time>
      </trkpt>
      <trkpt lat="46.3842" lon="8.04098">
        <ele>1992</ele>
        <time>2021-07-10T14:20:38.915Z</time>
      </trkpt>
      <trkpt lat="46.3842" lon="8.04099">
        <ele>1992</ele>
        <time>2021-07-10T14:20:39.915Z</time>
      </trkpt>
      <trkpt lat="46.38421" lon="8.04101">
        <ele>1993</ele>
        <time>2021-07-10T14:20:40.914Z</time>
      </trkpt>
      <trkpt lat="46.38421" lon="8.04102">
        <ele>1993</ele>
        <time>2021-07-10T14:20:41.915Z</time>
      </trkpt>
      <trkpt lat="46.38421" lon="8.04104">
        <ele>1993</ele>
        <time>2021-07-10T14:20:42.914Z</time>
      </trkpt>
      <trkpt lat="46.38422" lon="8.04106">
        <ele>1994</ele>
        <time>2021-07-10T14:20:43.914Z</time>
      </trkpt>
      <trkpt lat="46.38422" lon="8.04108">
        <ele>1994</ele>
        <time>2021-07-10T14:20:44.915Z</time>
      </trkpt>
      <trkpt lat="46.38423" lon="8.0411">
        <ele>1994</ele>
        <time>2021-07-10T14:20:45.914Z</time>
      </trkpt>
      <trkpt lat="46.38423" lon="8.04112">
        <ele>1994</ele>
        <time>2021-07-10T14:20:46.914Z</time>
      </trkpt>
      <trkpt lat="46.38424" lon="8.04114">
        <ele>1994</ele>
        <time>2021-07-10T14:20:47.914Z</time>
      </trkpt>
      <trkpt lat="46.38424" lon="8.04116">
        <ele>1994</ele>
        <time>2021-07-10T14:20:48.915Z</time>
      </trkpt>
      <trkpt lat="46.38425" lon="8.04118">
        <ele>1994</ele>
        <time>2021-07-10T14:20:49.915Z</time>
      </trkpt>
      <trkpt lat="46.38426" lon="8.0412">
        <ele>1994</ele>
        <time>2021-07-10T14:20:50.914Z</time>
      </trkpt>
      <trkpt lat="46.38426" lon="8.04122">
        <ele>1994</ele>
        <time>2021-07-10T14:20:51.914Z</time>
      </trkpt>
      <trkpt lat="46.38427" lon="8.04124">
        <ele>1994</ele>
        <time>2021-07-10T14:20:52.915Z</time>
      </trkpt>
      <trkpt lat="46.38427" lon="8.04126">
        <ele>1994</ele>
        <time>2021-07-10T14:20:53.915Z</time>
      </trkpt>
      <trkpt lat="46.38427" lon="8.04128">
        <ele>1994</ele>
        <time>2021-07-10T14:20:54.915Z</time>
      </trkpt>
      <trkpt lat="46.38427" lon="8.04129">
        <ele>1995</ele>
        <time>2021-07-10T14:20:55.915Z</time>
      </trkpt>
      <trkpt lat="46.38428" lon="8.04131">
        <ele>1995</ele>
        <time>2021-07-10T14:20:56.915Z</time>
      </trkpt>
      <trkpt lat="46.38428" lon="8.04133">
        <ele>1995</ele>
        <time>2021-07-10T14:20:57.915Z</time>
      </trkpt>
      <trkpt lat="46.38429" lon="8.04134">
        <ele>1995</ele>
        <time>2021-07-10T14:20:58.915Z</time>
      </trkpt>
      <trkpt lat="46.38429" lon="8.04136">
        <ele>1995</ele>
        <time>2021-07-10T14:20:59.915Z</time>
      </trkpt>
      <trkpt lat="46.3843" lon="8.04138">
        <ele>1994</ele>
        <time>2021-07-10T14:21:00.915Z</time>
      </trkpt>
      <trkpt lat="46.38431" lon="8.04139">
        <ele>1994</ele>
        <time>2021-07-10T14:21:01.914Z</time>
      </trkpt>
      <trkpt lat="46.38431" lon="8.04141">
        <ele>1993</ele>
        <time>2021-07-10T14:21:02.914Z</time>
      </trkpt>
      <trkpt lat="46.38432" lon="8.04143">
        <ele>1993</ele>
        <time>2021-07-10T14:21:03.915Z</time>
      </trkpt>
      <trkpt lat="46.38433" lon="8.04145">
        <ele>1992</ele>
        <time>2021-07-10T14:21:04.914Z</time>
      </trkpt>
      <trkpt lat="46.38433" lon="8.04147">
        <ele>1992</ele>
        <time>2021-07-10T14:21:05.914Z</time>
      </trkpt>
      <trkpt lat="46.38434" lon="8.04149">
        <ele>1992</ele>
        <time>2021-07-10T14:21:06.914Z</time>
      </trkpt>
      <trkpt lat="46.38434" lon="8.04151">
        <ele>1992</ele>
        <time>2021-07-10T14:21:07.915Z</time>
      </trkpt>
      <trkpt lat="46.38435" lon="8.04153">
        <ele>1992</ele>
        <time>2021-07-10T14:21:08.914Z</time>
      </trkpt>
      <trkpt lat="46.38436" lon="8.04155">
        <ele>1992</ele>
        <time>2021-07-10T14:21:09.914Z</time>
      </trkpt>
      <trkpt lat="46.38437" lon="8.04157">
        <ele>1992</ele>
        <time>2021-07-10T14:21:10.914Z</time>
      </trkpt>
      <trkpt lat="46.38437" lon="8.04159">
        <ele>1992</ele>
        <time>2021-07-10T14:21:11.914Z</time>
      </trkpt>
      <trkpt lat="46.38437" lon="8.04161">
        <ele>1993</ele>
        <time>2021-07-10T14:21:12.914Z</time>
      </trkpt>
      <trkpt lat="46.38437" lon="8.04162">
        <ele>1993</ele>
        <time>2021-07-10T14:21:13.914Z</time>
      </trkpt>
      <trkpt lat="46.38437" lon="8.04164">
        <ele>1993</ele>
        <time>2021-07-10T14:21:14.914Z</time>
      </trkpt>
      <trkpt lat="46.38437" lon="8.04166">
        <ele>1993</ele>
        <time>2021-07-10T14:21:15.915Z</time>
      </trkpt>
      <trkpt lat="46.38438" lon="8.04168">
        <ele>1992</ele>
        <time>2021-07-10T14:21:16.915Z</time>
      </trkpt>
      <trkpt lat="46.38439" lon="8.0417">
        <ele>1991</ele>
        <time>2021-07-10T14:21:17.915Z</time>
      </trkpt>
      <trkpt lat="46.38439" lon="8.04172">
        <ele>1991</ele>
        <time>2021-07-10T14:21:18.915Z</time>
      </trkpt>
      <trkpt lat="46.3844" lon="8.04173">
        <ele>1990</ele>
        <time>2021-07-10T14:21:19.914Z</time>
      </trkpt>
      <trkpt lat="46.38441" lon="8.04175">
        <ele>1990</ele>
        <time>2021-07-10T14:21:20.915Z</time>
      </trkpt>
      <trkpt lat="46.38441" lon="8.04176">
        <ele>1990</ele>
        <time>2021-07-10T14:21:21.915Z</time>
      </trkpt>
      <trkpt lat="46.38442" lon="8.04178">
        <ele>1990</ele>
        <time>2021-07-10T14:21:22.915Z</time>
      </trkpt>
      <trkpt lat="46.38443" lon="8.04181">
        <ele>1990</ele>
        <time>2021-07-10T14:21:23.914Z</time>
      </trkpt>
      <trkpt lat="46.38443" lon="8.04183">
        <ele>1990</ele>
        <time>2021-07-10T14:21:24.914Z</time>
      </trkpt>
      <trkpt lat="46.38444" lon="8.04184">
        <ele>1990</ele>
        <time>2021-07-10T14:21:25.915Z</time>
      </trkpt>
      <trkpt lat="46.38445" lon="8.04186">
        <ele>1989</ele>
        <time>2021-07-10T14:21:26.915Z</time>
      </trkpt>
      <trkpt lat="46.38446" lon="8.04188">
        <ele>1989</ele>
        <time>2021-07-10T14:21:27.914Z</time>
      </trkpt>
      <trkpt lat="46.38447" lon="8.0419">
        <ele>1989</ele>
        <time>2021-07-10T14:21:28.915Z</time>
      </trkpt>
      <trkpt lat="46.38447" lon="8.04191">
        <ele>1989</ele>
        <time>2021-07-10T14:21:29.914Z</time>
      </trkpt>
      <trkpt lat="46.38448" lon="8.04193">
        <ele>1989</ele>
        <time>2021-07-10T14:21:30.915Z</time>
      </trkpt>
      <trkpt lat="46.38449" lon="8.04195">
        <ele>1989</ele>
        <time>2021-07-10T14:21:31.914Z</time>
      </trkpt>
      <trkpt lat="46.38449" lon="8.04197">
        <ele>1989</ele>
        <time>2021-07-10T14:21:32.915Z</time>
      </trkpt>
      <trkpt lat="46.38449" lon="8.04199">
        <ele>1989</ele>
        <time>2021-07-10T14:21:33.914Z</time>
      </trkpt>
      <trkpt lat="46.38449" lon="8.042">
        <ele>1989</ele>
        <time>2021-07-10T14:21:34.915Z</time>
      </trkpt>
      <trkpt lat="46.38449" lon="8.04202">
        <ele>1990</ele>
        <time>2021-07-10T14:21:35.915Z</time>
      </trkpt>
      <trkpt lat="46.38449" lon="8.04204">
        <ele>1990</ele>
        <time>2021-07-10T14:21:36.915Z</time>
      </trkpt>
      <trkpt lat="46.38449" lon="8.04205">
        <ele>1990</ele>
        <time>2021-07-10T14:21:37.915Z</time>
      </trkpt>
      <trkpt lat="46.38449" lon="8.04207">
        <ele>1990</ele>
        <time>2021-07-10T14:21:38.915Z</time>
      </trkpt>
      <trkpt lat="46.3845" lon="8.04208">
        <ele>1990</ele>
        <time>2021-07-10T14:21:39.914Z</time>
      </trkpt>
      <trkpt lat="46.3845" lon="8.0421">
        <ele>1990</ele>
        <time>2021-07-10T14:21:40.915Z</time>
      </trkpt>
      <trkpt lat="46.3845" lon="8.04212">
        <ele>1990</ele>
        <time>2021-07-10T14:21:41.915Z</time>
      </trkpt>
      <trkpt lat="46.38451" lon="8.04214">
        <ele>1990</ele>
        <time>2021-07-10T14:21:42.915Z</time>
      </trkpt>
      <trkpt lat="46.38452" lon="8.04215">
        <ele>1990</ele>
        <time>2021-07-10T14:21:43.915Z</time>
      </trkpt>
      <trkpt lat="46.38453" lon="8.04217">
        <ele>1990</ele>
        <time>2021-07-10T14:21:44.915Z</time>
      </trkpt>
      <trkpt lat="46.38454" lon="8.04218">
        <ele>1990</ele>
        <time>2021-07-10T14:21:45.915Z</time>
      </trkpt>
      <trkpt lat="46.38454" lon="8.04219">
        <ele>1990</ele>
        <time>2021-07-10T14:21:46.914Z</time>
      </trkpt>
      <trkpt lat="46.38455" lon="8.04221">
        <ele>1991</ele>
        <time>2021-07-10T14:21:47.915Z</time>
      </trkpt>
      <trkpt lat="46.38456" lon="8.04222">
        <ele>1991</ele>
        <time>2021-07-10T14:21:48.914Z</time>
      </trkpt>
      <trkpt lat="46.38456" lon="8.04225">
        <ele>1992</ele>
        <time>2021-07-10T14:21:49.914Z</time>
      </trkpt>
      <trkpt lat="46.38457" lon="8.04227">
        <ele>1992</ele>
        <time>2021-07-10T14:21:50.914Z</time>
      </trkpt>
      <trkpt lat="46.38457" lon="8.04229">
        <ele>1993</ele>
        <time>2021-07-10T14:21:51.914Z</time>
      </trkpt>
      <trkpt lat="46.38458" lon="8.04231">
        <ele>1993</ele>
        <time>2021-07-10T14:21:52.914Z</time>
      </trkpt>
      <trkpt lat="46.38458" lon="8.04233">
        <ele>1994</ele>
        <time>2021-07-10T14:21:53.914Z</time>
      </trkpt>
      <trkpt lat="46.38458" lon="8.04234">
        <ele>1994</ele>
        <time>2021-07-10T14:21:54.915Z</time>
      </trkpt>
      <trkpt lat="46.38459" lon="8.04236">
        <ele>1994</ele>
        <time>2021-07-10T14:21:55.914Z</time>
      </trkpt>
      <trkpt lat="46.3846" lon="8.04237">
        <ele>1995</ele>
        <time>2021-07-10T14:21:56.915Z</time>
      </trkpt>
      <trkpt lat="46.3846" lon="8.04239">
        <ele>1995</ele>
        <time>2021-07-10T14:21:57.915Z</time>
      </trkpt>
      <trkpt lat="46.38461" lon="8.0424">
        <ele>1995</ele>
        <time>2021-07-10T14:21:58.914Z</time>
      </trkpt>
      <trkpt lat="46.38462" lon="8.04242">
        <ele>1995</ele>
        <time>2021-07-10T14:21:59.914Z</time>
      </trkpt>
      <trkpt lat="46.38462" lon="8.04243">
        <ele>1995</ele>
        <time>2021-07-10T14:22:00.915Z</time>
      </trkpt>
      <trkpt lat="46.38463" lon="8.04245">
        <ele>1995</ele>
        <time>2021-07-10T14:22:01.915Z</time>
      </trkpt>
      <trkpt lat="46.38463" lon="8.04246">
        <ele>1995</ele>
        <time>2021-07-10T14:22:02.915Z</time>
      </trkpt>
      <trkpt lat="46.38464" lon="8.04248">
        <ele>1995</ele>
        <time>2021-07-10T14:22:03.915Z</time>
      </trkpt>
      <trkpt lat="46.38464" lon="8.0425">
        <ele>1995</ele>
        <time>2021-07-10T14:22:04.915Z</time>
      </trkpt>
      <trkpt lat="46.38465" lon="8.04251">
        <ele>1995</ele>
        <time>2021-07-10T14:22:05.914Z</time>
      </trkpt>
      <trkpt lat="46.38466" lon="8.04253">
        <ele>1996</ele>
        <time>2021-07-10T14:22:06.915Z</time>
      </trkpt>
      <trkpt lat="46.38466" lon="8.04255">
        <ele>1996</ele>
        <time>2021-07-10T14:22:07.915Z</time>
      </trkpt>
      <trkpt lat="46.38467" lon="8.04257">
        <ele>1997</ele>
        <time>2021-07-10T14:22:08.915Z</time>
      </trkpt>
      <trkpt lat="46.38467" lon="8.04259">
        <ele>1998</ele>
        <time>2021-07-10T14:22:09.915Z</time>
      </trkpt>
      <trkpt lat="46.38468" lon="8.04261">
        <ele>1998</ele>
        <time>2021-07-10T14:22:10.915Z</time>
      </trkpt>
      <trkpt lat="46.38469" lon="8.04263">
        <ele>1998</ele>
        <time>2021-07-10T14:22:11.915Z</time>
      </trkpt>
      <trkpt lat="46.38469" lon="8.04264">
        <ele>1998</ele>
        <time>2021-07-10T14:22:12.915Z</time>
      </trkpt>
      <trkpt lat="46.3847" lon="8.04266">
        <ele>1999</ele>
        <time>2021-07-10T14:22:13.914Z</time>
      </trkpt>
      <trkpt lat="46.3847" lon="8.04267">
        <ele>1999</ele>
        <time>2021-07-10T14:22:14.915Z</time>
      </trkpt>
      <trkpt lat="46.38471" lon="8.04269">
        <ele>1999</ele>
        <time>2021-07-10T14:22:15.914Z</time>
      </trkpt>
      <trkpt lat="46.38471" lon="8.0427">
        <ele>1999</ele>
        <time>2021-07-10T14:22:16.915Z</time>
      </trkpt>
      <trkpt lat="46.38472" lon="8.04271">
        <ele>1999</ele>
        <time>2021-07-10T14:22:17.915Z</time>
      </trkpt>
      <trkpt lat="46.38473" lon="8.04272">
        <ele>1999</ele>
        <time>2021-07-10T14:22:18.915Z</time>
      </trkpt>
      <trkpt lat="46.38474" lon="8.04274">
        <ele>1998</ele>
        <time>2021-07-10T14:22:19.915Z</time>
      </trkpt>
      <trkpt lat="46.38475" lon="8.04275">
        <ele>1998</ele>
        <time>2021-07-10T14:22:20.914Z</time>
      </trkpt>
      <trkpt lat="46.38475" lon="8.04277">
        <ele>1998</ele>
        <time>2021-07-10T14:22:21.915Z</time>
      </trkpt>
      <trkpt lat="46.38476" lon="8.04279">
        <ele>1998</ele>
        <time>2021-07-10T14:22:22.914Z</time>
      </trkpt>
      <trkpt lat="46.38476" lon="8.04281">
        <ele>1998</ele>
        <time>2021-07-10T14:22:23.915Z</time>
      </trkpt>
      <trkpt lat="46.38477" lon="8.04283">
        <ele>1998</ele>
        <time>2021-07-10T14:22:24.915Z</time>
      </trkpt>
      <trkpt lat="46.38478" lon="8.04285">
        <ele>1998</ele>
        <time>2021-07-10T14:22:25.915Z</time>
      </trkpt>
      <trkpt lat="46.38479" lon="8.04287">
        <ele>1998</ele>
        <time>2021-07-10T14:22:26.915Z</time>
      </trkpt>
      <trkpt lat="46.38479" lon="8.04289">
        <ele>1998</ele>
        <time>2021-07-10T14:22:27.914Z</time>
      </trkpt>
      <trkpt lat="46.3848" lon="8.04291">
        <ele>1999</ele>
        <time>2021-07-10T14:22:28.915Z</time>
      </trkpt>
      <trkpt lat="46.38481" lon="8.04293">
        <ele>1999</ele>
        <time>2021-07-10T14:22:29.915Z</time>
      </trkpt>
      <trkpt lat="46.38482" lon="8.04295">
        <ele>2000</ele>
        <time>2021-07-10T14:22:30.915Z</time>
      </trkpt>
      <trkpt lat="46.38483" lon="8.04297">
        <ele>1999</ele>
        <time>2021-07-10T14:22:31.915Z</time>
      </trkpt>
      <trkpt lat="46.38483" lon="8.04299">
        <ele>1999</ele>
        <time>2021-07-10T14:22:32.914Z</time>
      </trkpt>
      <trkpt lat="46.38484" lon="8.04301">
        <ele>1999</ele>
        <time>2021-07-10T14:22:33.915Z</time>
      </trkpt>
      <trkpt lat="46.38485" lon="8.04302">
        <ele>1999</ele>
        <time>2021-07-10T14:22:34.914Z</time>
      </trkpt>
      <trkpt lat="46.38485" lon="8.04303">
        <ele>1998</ele>
        <time>2021-07-10T14:22:35.915Z</time>
      </trkpt>
      <trkpt lat="46.38486" lon="8.04304">
        <ele>1999</ele>
        <time>2021-07-10T14:22:36.915Z</time>
      </trkpt>
      <trkpt lat="46.38486" lon="8.04306">
        <ele>1999</ele>
        <time>2021-07-10T14:22:37.915Z</time>
      </trkpt>
      <trkpt lat="46.38487" lon="8.04307">
        <ele>1999</ele>
        <time>2021-07-10T14:22:38.915Z</time>
      </trkpt>
      <trkpt lat="46.38488" lon="8.04308">
        <ele>1999</ele>
        <time>2021-07-10T14:22:39.915Z</time>
      </trkpt>
      <trkpt lat="46.38488" lon="8.0431">
        <ele>1999</ele>
        <time>2021-07-10T14:22:40.914Z</time>
      </trkpt>
      <trkpt lat="46.38489" lon="8.04311">
        <ele>1999</ele>
        <time>2021-07-10T14:22:41.915Z</time>
      </trkpt>
      <trkpt lat="46.38489" lon="8.04313">
        <ele>1999</ele>
        <time>2021-07-10T14:22:42.915Z</time>
      </trkpt>
      <trkpt lat="46.38489" lon="8.04315">
        <ele>2000</ele>
        <time>2021-07-10T14:22:43.914Z</time>
      </trkpt>
      <trkpt lat="46.38489" lon="8.04317">
        <ele>2000</ele>
        <time>2021-07-10T14:22:44.914Z</time>
      </trkpt>
      <trkpt lat="46.38489" lon="8.04318">
        <ele>2001</ele>
        <time>2021-07-10T14:22:45.915Z</time>
      </trkpt>
      <trkpt lat="46.3849" lon="8.0432">
        <ele>2001</ele>
        <time>2021-07-10T14:22:46.915Z</time>
      </trkpt>
      <trkpt lat="46.3849" lon="8.04321">
        <ele>2001</ele>
        <time>2021-07-10T14:22:47.914Z</time>
      </trkpt>
      <trkpt lat="46.38491" lon="8.04323">
        <ele>2001</ele>
        <time>2021-07-10T14:22:48.915Z</time>
      </trkpt>
      <trkpt lat="46.38491" lon="8.04324">
        <ele>2001</ele>
        <time>2021-07-10T14:22:49.914Z</time>
      </trkpt>
      <trkpt lat="46.38492" lon="8.04326">
        <ele>2001</ele>
        <time>2021-07-10T14:22:50.915Z</time>
      </trkpt>
      <trkpt lat="46.38493" lon="8.04327">
        <ele>2001</ele>
        <time>2021-07-10T14:22:51.915Z</time>
      </trkpt>
      <trkpt lat="46.38493" lon="8.04328">
        <ele>2001</ele>
        <time>2021-07-10T14:22:52.914Z</time>
      </trkpt>
      <trkpt lat="46.38494" lon="8.0433">
        <ele>2001</ele>
        <time>2021-07-10T14:22:53.914Z</time>
      </trkpt>
      <trkpt lat="46.38495" lon="8.04331">
        <ele>2001</ele>
        <time>2021-07-10T14:22:54.914Z</time>
      </trkpt>
      <trkpt lat="46.38495" lon="8.04333">
        <ele>2001</ele>
        <time>2021-07-10T14:22:55.915Z</time>
      </trkpt>
      <trkpt lat="46.38495" lon="8.04335">
        <ele>2001</ele>
        <time>2021-07-10T14:22:56.915Z</time>
      </trkpt>
      <trkpt lat="46.38496" lon="8.04336">
        <ele>2002</ele>
        <time>2021-07-10T14:22:57.915Z</time>
      </trkpt>
      <trkpt lat="46.38496" lon="8.04338">
        <ele>2002</ele>
        <time>2021-07-10T14:22:58.915Z</time>
      </trkpt>
      <trkpt lat="46.38496" lon="8.04339">
        <ele>2002</ele>
        <time>2021-07-10T14:22:59.915Z</time>
      </trkpt>
      <trkpt lat="46.38497" lon="8.04341">
        <ele>2002</ele>
        <time>2021-07-10T14:23:00.915Z</time>
      </trkpt>
      <trkpt lat="46.38498" lon="8.04342">
        <ele>2002</ele>
        <time>2021-07-10T14:23:01.914Z</time>
      </trkpt>
      <trkpt lat="46.38499" lon="8.04344">
        <ele>2002</ele>
        <time>2021-07-10T14:23:02.914Z</time>
      </trkpt>
      <trkpt lat="46.38499" lon="8.04346">
        <ele>2002</ele>
        <time>2021-07-10T14:23:03.915Z</time>
      </trkpt>
      <trkpt lat="46.38499" lon="8.04347">
        <ele>2002</ele>
        <time>2021-07-10T14:23:04.915Z</time>
      </trkpt>
      <trkpt lat="46.38499" lon="8.04349">
        <ele>2002</ele>
        <time>2021-07-10T14:23:05.914Z</time>
      </trkpt>
      <trkpt lat="46.385" lon="8.04351">
        <ele>2002</ele>
        <time>2021-07-10T14:23:06.915Z</time>
      </trkpt>
      <trkpt lat="46.385" lon="8.04352">
        <ele>2002</ele>
        <time>2021-07-10T14:23:07.914Z</time>
      </trkpt>
      <trkpt lat="46.38501" lon="8.04354">
        <ele>2002</ele>
        <time>2021-07-10T14:23:08.915Z</time>
      </trkpt>
      <trkpt lat="46.38501" lon="8.04356">
        <ele>2002</ele>
        <time>2021-07-10T14:23:09.915Z</time>
      </trkpt>
      <trkpt lat="46.38502" lon="8.04357">
        <ele>2002</ele>
        <time>2021-07-10T14:23:10.915Z</time>
      </trkpt>
      <trkpt lat="46.38502" lon="8.04359">
        <ele>2002</ele>
        <time>2021-07-10T14:23:11.915Z</time>
      </trkpt>
      <trkpt lat="46.38502" lon="8.04361">
        <ele>2002</ele>
        <time>2021-07-10T14:23:12.915Z</time>
      </trkpt>
      <trkpt lat="46.38502" lon="8.04362">
        <ele>2003</ele>
        <time>2021-07-10T14:23:13.914Z</time>
      </trkpt>
      <trkpt lat="46.38502" lon="8.04364">
        <ele>2003</ele>
        <time>2021-07-10T14:23:14.915Z</time>
      </trkpt>
      <trkpt lat="46.38503" lon="8.04366">
        <ele>2003</ele>
        <time>2021-07-10T14:23:15.915Z</time>
      </trkpt>
      <trkpt lat="46.38503" lon="8.04368">
        <ele>2002</ele>
        <time>2021-07-10T14:23:16.915Z</time>
      </trkpt>
      <trkpt lat="46.38503" lon="8.0437">
        <ele>2002</ele>
        <time>2021-07-10T14:23:17.915Z</time>
      </trkpt>
      <trkpt lat="46.38503" lon="8.04372">
        <ele>2001</ele>
        <time>2021-07-10T14:23:18.915Z</time>
      </trkpt>
      <trkpt lat="46.38503" lon="8.04374">
        <ele>2001</ele>
        <time>2021-07-10T14:23:19.915Z</time>
      </trkpt>
      <trkpt lat="46.38503" lon="8.04376">
        <ele>2001</ele>
        <time>2021-07-10T14:23:20.914Z</time>
      </trkpt>
      <trkpt lat="46.38504" lon="8.04378">
        <ele>2001</ele>
        <time>2021-07-10T14:23:21.915Z</time>
      </trkpt>
      <trkpt lat="46.38504" lon="8.04379">
        <ele>2002</ele>
        <time>2021-07-10T14:23:22.915Z</time>
      </trkpt>
      <trkpt lat="46.38504" lon="8.04381">
        <ele>2002</ele>
        <time>2021-07-10T14:23:23.915Z</time>
      </trkpt>
      <trkpt lat="46.38505" lon="8.04383">
        <ele>2003</ele>
        <time>2021-07-10T14:23:24.914Z</time>
      </trkpt>
      <trkpt lat="46.38505" lon="8.04385">
        <ele>2003</ele>
        <time>2021-07-10T14:23:25.914Z</time>
      </trkpt>
      <trkpt lat="46.38506" lon="8.04386">
        <ele>2004</ele>
        <time>2021-07-10T14:23:26.915Z</time>
      </trkpt>
      <trkpt lat="46.38506" lon="8.04388">
        <ele>2004</ele>
        <time>2021-07-10T14:23:27.915Z</time>
      </trkpt>
      <trkpt lat="46.38506" lon="8.04389">
        <ele>2004</ele>
        <time>2021-07-10T14:23:28.915Z</time>
      </trkpt>
      <trkpt lat="46.38507" lon="8.04391">
        <ele>2004</ele>
        <time>2021-07-10T14:23:29.915Z</time>
      </trkpt>
      <trkpt lat="46.38507" lon="8.04392">
        <ele>2004</ele>
        <time>2021-07-10T14:23:30.915Z</time>
      </trkpt>
      <trkpt lat="46.38507" lon="8.04393">
        <ele>2005</ele>
        <time>2021-07-10T14:23:31.915Z</time>
      </trkpt>
      <trkpt lat="46.38508" lon="8.04395">
        <ele>2005</ele>
        <time>2021-07-10T14:23:32.915Z</time>
      </trkpt>
      <trkpt lat="46.38508" lon="8.04396">
        <ele>2005</ele>
        <time>2021-07-10T14:23:33.915Z</time>
      </trkpt>
      <trkpt lat="46.38508" lon="8.04398">
        <ele>2005</ele>
        <time>2021-07-10T14:23:34.914Z</time>
      </trkpt>
      <trkpt lat="46.38508" lon="8.044">
        <ele>2005</ele>
        <time>2021-07-10T14:23:35.914Z</time>
      </trkpt>
      <trkpt lat="46.38508" lon="8.04402">
        <ele>2005</ele>
        <time>2021-07-10T14:23:36.914Z</time>
      </trkpt>
      <trkpt lat="46.38508" lon="8.04404">
        <ele>2005</ele>
        <time>2021-07-10T14:23:37.915Z</time>
      </trkpt>
      <trkpt lat="46.38509" lon="8.04406">
        <ele>2005</ele>
        <time>2021-07-10T14:23:38.915Z</time>
      </trkpt>
      <trkpt lat="46.38509" lon="8.04408">
        <ele>2006</ele>
        <time>2021-07-10T14:23:39.915Z</time>
      </trkpt>
      <trkpt lat="46.38509" lon="8.04409">
        <ele>2006</ele>
        <time>2021-07-10T14:23:40.915Z</time>
      </trkpt>
      <trkpt lat="46.38509" lon="8.04411">
        <ele>2007</ele>
        <time>2021-07-10T14:23:41.915Z</time>
      </trkpt>
      <trkpt lat="46.38509" lon="8.04412">
        <ele>2007</ele>
        <time>2021-07-10T14:23:42.915Z</time>
      </trkpt>
      <trkpt lat="46.38509" lon="8.04413">
        <ele>2007</ele>
        <time>2021-07-10T14:23:43.915Z</time>
      </trkpt>
      <trkpt lat="46.38508" lon="8.04414">
        <ele>2008</ele>
        <time>2021-07-10T14:23:44.914Z</time>
      </trkpt>
      <trkpt lat="46.38509" lon="8.04416">
        <ele>2008</ele>
        <time>2021-07-10T14:23:45.915Z</time>
      </trkpt>
      <trkpt lat="46.38509" lon="8.04418">
        <ele>2009</ele>
        <time>2021-07-10T14:23:46.915Z</time>
      </trkpt>
      <trkpt lat="46.38509" lon="8.04419">
        <ele>2009</ele>
        <time>2021-07-10T14:23:47.914Z</time>
      </trkpt>
      <trkpt lat="46.3851" lon="8.04421">
        <ele>2009</ele>
        <time>2021-07-10T14:23:48.914Z</time>
      </trkpt>
      <trkpt lat="46.3851" lon="8.04422">
        <ele>2010</ele>
        <time>2021-07-10T14:23:49.914Z</time>
      </trkpt>
      <trkpt lat="46.38511" lon="8.04424">
        <ele>2010</ele>
        <time>2021-07-10T14:23:50.915Z</time>
      </trkpt>
      <trkpt lat="46.38511" lon="8.04425">
        <ele>2011</ele>
        <time>2021-07-10T14:23:51.915Z</time>
      </trkpt>
      <trkpt lat="46.38511" lon="8.04427">
        <ele>2011</ele>
        <time>2021-07-10T14:23:52.915Z</time>
      </trkpt>
      <trkpt lat="46.38512" lon="8.04429">
        <ele>2012</ele>
        <time>2021-07-10T14:23:53.915Z</time>
      </trkpt>
      <trkpt lat="46.38512" lon="8.04431">
        <ele>2012</ele>
        <time>2021-07-10T14:23:54.915Z</time>
      </trkpt>
      <trkpt lat="46.38513" lon="8.04433">
        <ele>2012</ele>
        <time>2021-07-10T14:23:55.914Z</time>
      </trkpt>
      <trkpt lat="46.38513" lon="8.04434">
        <ele>2012</ele>
        <time>2021-07-10T14:23:56.915Z</time>
      </trkpt>
      <trkpt lat="46.38513" lon="8.04436">
        <ele>2012</ele>
        <time>2021-07-10T14:23:57.915Z</time>
      </trkpt>
      <trkpt lat="46.38513" lon="8.04438">
        <ele>2011</ele>
        <time>2021-07-10T14:23:58.914Z</time>
      </trkpt>
      <trkpt lat="46.38514" lon="8.04439">
        <ele>2011</ele>
        <time>2021-07-10T14:23:59.914Z</time>
      </trkpt>
      <trkpt lat="46.38514" lon="8.04441">
        <ele>2011</ele>
        <time>2021-07-10T14:24:00.914Z</time>
      </trkpt>
      <trkpt lat="46.38514" lon="8.04442">
        <ele>2011</ele>
        <time>2021-07-10T14:24:01.915Z</time>
      </trkpt>
      <trkpt lat="46.38515" lon="8.04444">
        <ele>2011</ele>
        <time>2021-07-10T14:24:02.914Z</time>
      </trkpt>
      <trkpt lat="46.38515" lon="8.04445">
        <ele>2011</ele>
        <time>2021-07-10T14:24:03.914Z</time>
      </trkpt>
      <trkpt lat="46.38516" lon="8.04447">
        <ele>2011</ele>
        <time>2021-07-10T14:24:04.914Z</time>
      </trkpt>
      <trkpt lat="46.38516" lon="8.04448">
        <ele>2012</ele>
        <time>2021-07-10T14:24:05.914Z</time>
      </trkpt>
      <trkpt lat="46.38516" lon="8.04451">
        <ele>2013</ele>
        <time>2021-07-10T14:24:06.915Z</time>
      </trkpt>
      <trkpt lat="46.38517" lon="8.04452">
        <ele>2013</ele>
        <time>2021-07-10T14:24:12.930Z</time>
      </trkpt>
      <trkpt lat="46.38517" lon="8.04453">
        <ele>2013</ele>
        <time>2021-07-10T14:24:13.931Z</time>
      </trkpt>
      <trkpt lat="46.38518" lon="8.04455">
        <ele>2013</ele>
        <time>2021-07-10T14:24:14.931Z</time>
      </trkpt>
      <trkpt lat="46.38519" lon="8.04456">
        <ele>2013</ele>
        <time>2021-07-10T14:24:15.931Z</time>
      </trkpt>
      <trkpt lat="46.38519" lon="8.04458">
        <ele>2013</ele>
        <time>2021-07-10T14:24:16.931Z</time>
      </trkpt>
      <trkpt lat="46.3852" lon="8.04459">
        <ele>2013</ele>
        <time>2021-07-10T14:24:17.930Z</time>
      </trkpt>
      <trkpt lat="46.3852" lon="8.0446">
        <ele>2013</ele>
        <time>2021-07-10T14:24:18.931Z</time>
      </trkpt>
      <trkpt lat="46.3852" lon="8.04461">
        <ele>2013</ele>
        <time>2021-07-10T14:24:19.931Z</time>
      </trkpt>
      <trkpt lat="46.3852" lon="8.04462">
        <ele>2013</ele>
        <time>2021-07-10T14:24:20.930Z</time>
      </trkpt>
      <trkpt lat="46.3852" lon="8.04463">
        <ele>2013</ele>
        <time>2021-07-10T14:24:21.930Z</time>
      </trkpt>
      <trkpt lat="46.38521" lon="8.04464">
        <ele>2013</ele>
        <time>2021-07-10T14:24:22.931Z</time>
      </trkpt>
      <trkpt lat="46.38521" lon="8.04465">
        <ele>2014</ele>
        <time>2021-07-10T14:24:23.930Z</time>
      </trkpt>
      <trkpt lat="46.38521" lon="8.04467">
        <ele>2014</ele>
        <time>2021-07-10T14:24:24.931Z</time>
      </trkpt>
      <trkpt lat="46.38521" lon="8.04469">
        <ele>2015</ele>
        <time>2021-07-10T14:24:25.931Z</time>
      </trkpt>
      <trkpt lat="46.38522" lon="8.04471">
        <ele>2015</ele>
        <time>2021-07-10T14:24:26.930Z</time>
      </trkpt>
      <trkpt lat="46.38522" lon="8.04472">
        <ele>2016</ele>
        <time>2021-07-10T14:24:27.930Z</time>
      </trkpt>
      <trkpt lat="46.38523" lon="8.04474">
        <ele>2016</ele>
        <time>2021-07-10T14:24:28.931Z</time>
      </trkpt>
      <trkpt lat="46.38523" lon="8.04475">
        <ele>2017</ele>
        <time>2021-07-10T14:24:29.931Z</time>
      </trkpt>
      <trkpt lat="46.38524" lon="8.04477">
        <ele>2017</ele>
        <time>2021-07-10T14:24:30.930Z</time>
      </trkpt>
      <trkpt lat="46.38524" lon="8.04479">
        <ele>2018</ele>
        <time>2021-07-10T14:24:31.930Z</time>
      </trkpt>
      <trkpt lat="46.38524" lon="8.0448">
        <ele>2018</ele>
        <time>2021-07-10T14:24:32.931Z</time>
      </trkpt>
      <trkpt lat="46.38525" lon="8.04481">
        <ele>2019</ele>
        <time>2021-07-10T14:24:33.930Z</time>
      </trkpt>
      <trkpt lat="46.38525" lon="8.04483">
        <ele>2020</ele>
        <time>2021-07-10T14:24:34.931Z</time>
      </trkpt>
      <trkpt lat="46.38526" lon="8.04484">
        <ele>2020</ele>
        <time>2021-07-10T14:24:35.930Z</time>
      </trkpt>
      <trkpt lat="46.38526" lon="8.04486">
        <ele>2021</ele>
        <time>2021-07-10T14:24:36.930Z</time>
      </trkpt>
      <trkpt lat="46.38526" lon="8.04488">
        <ele>2021</ele>
        <time>2021-07-10T14:24:37.931Z</time>
      </trkpt>
      <trkpt lat="46.38526" lon="8.04489">
        <ele>2021</ele>
        <time>2021-07-10T14:24:38.931Z</time>
      </trkpt>
      <trkpt lat="46.38526" lon="8.04491">
        <ele>2022</ele>
        <time>2021-07-10T14:24:39.930Z</time>
      </trkpt>
      <trkpt lat="46.38526" lon="8.04492">
        <ele>2023</ele>
        <time>2021-07-10T14:24:40.931Z</time>
      </trkpt>
      <trkpt lat="46.38526" lon="8.04492">
        <ele>2024</ele>
        <time>2021-07-10T14:24:41.931Z</time>
      </trkpt>
      <trkpt lat="46.38526" lon="8.04494">
        <ele>2024</ele>
        <time>2021-07-10T14:24:42.931Z</time>
      </trkpt>
      <trkpt lat="46.38527" lon="8.04495">
        <ele>2025</ele>
        <time>2021-07-10T14:24:43.931Z</time>
      </trkpt>
      <trkpt lat="46.38527" lon="8.04497">
        <ele>2025</ele>
        <time>2021-07-10T14:24:44.930Z</time>
      </trkpt>
      <trkpt lat="46.38527" lon="8.04499">
        <ele>2026</ele>
        <time>2021-07-10T14:24:45.931Z</time>
      </trkpt>
      <trkpt lat="46.38527" lon="8.04501">
        <ele>2026</ele>
        <time>2021-07-10T14:24:46.930Z</time>
      </trkpt>
      <trkpt lat="46.38528" lon="8.04503">
        <ele>2026</ele>
        <time>2021-07-10T14:24:47.931Z</time>
      </trkpt>
      <trkpt lat="46.38528" lon="8.04504">
        <ele>2026</ele>
        <time>2021-07-10T14:24:48.931Z</time>
      </trkpt>
      <trkpt lat="46.38529" lon="8.04505">
        <ele>2027</ele>
        <time>2021-07-10T14:24:49.931Z</time>
      </trkpt>
      <trkpt lat="46.3853" lon="8.04507">
        <ele>2027</ele>
        <time>2021-07-10T14:24:50.931Z</time>
      </trkpt>
      <trkpt lat="46.3853" lon="8.04508">
        <ele>2027</ele>
        <time>2021-07-10T14:24:51.931Z</time>
      </trkpt>
      <trkpt lat="46.38532" lon="8.0451">
        <ele>2027</ele>
        <time>2021-07-10T14:24:52.930Z</time>
      </trkpt>
      <trkpt lat="46.38532" lon="8.04513">
        <ele>2027</ele>
        <time>2021-07-10T14:25:46.921Z</time>
      </trkpt>
      <trkpt lat="46.38533" lon="8.04515">
        <ele>2027</ele>
        <time>2021-07-10T14:25:47.922Z</time>
      </trkpt>
      <trkpt lat="46.38533" lon="8.04517">
        <ele>2027</ele>
        <time>2021-07-10T14:25:48.921Z</time>
      </trkpt>
      <trkpt lat="46.38533" lon="8.04518">
        <ele>2027</ele>
        <time>2021-07-10T14:25:49.921Z</time>
      </trkpt>
      <trkpt lat="46.38533" lon="8.0452">
        <ele>2027</ele>
        <time>2021-07-10T14:25:50.922Z</time>
      </trkpt>
      <trkpt lat="46.38534" lon="8.04521">
        <ele>2027</ele>
        <time>2021-07-10T14:25:51.921Z</time>
      </trkpt>
      <trkpt lat="46.38534" lon="8.04523">
        <ele>2028</ele>
        <time>2021-07-10T14:25:52.922Z</time>
      </trkpt>
      <trkpt lat="46.38534" lon="8.04524">
        <ele>2028</ele>
        <time>2021-07-10T14:25:53.922Z</time>
      </trkpt>
      <trkpt lat="46.38535" lon="8.04525">
        <ele>2028</ele>
        <time>2021-07-10T14:25:54.922Z</time>
      </trkpt>
      <trkpt lat="46.38536" lon="8.04526">
        <ele>2028</ele>
        <time>2021-07-10T14:25:55.922Z</time>
      </trkpt>
      <trkpt lat="46.38536" lon="8.04527">
        <ele>2029</ele>
        <time>2021-07-10T14:25:56.921Z</time>
      </trkpt>
      <trkpt lat="46.38536" lon="8.04528">
        <ele>2029</ele>
        <time>2021-07-10T14:25:57.922Z</time>
      </trkpt>
      <trkpt lat="46.38537" lon="8.0453">
        <ele>2029</ele>
        <time>2021-07-10T14:25:58.922Z</time>
      </trkpt>
      <trkpt lat="46.38537" lon="8.04531">
        <ele>2030</ele>
        <time>2021-07-10T14:25:59.922Z</time>
      </trkpt>
      <trkpt lat="46.38538" lon="8.04533">
        <ele>2030</ele>
        <time>2021-07-10T14:26:00.921Z</time>
      </trkpt>
      <trkpt lat="46.38538" lon="8.04535">
        <ele>2031</ele>
        <time>2021-07-10T14:26:01.922Z</time>
      </trkpt>
      <trkpt lat="46.3854" lon="8.04538">
        <ele>2031</ele>
        <time>2021-07-10T14:26:02.922Z</time>
      </trkpt>
      <trkpt lat="46.38541" lon="8.0454">
        <ele>2031</ele>
        <time>2021-07-10T14:26:03.921Z</time>
      </trkpt>
      <trkpt lat="46.38541" lon="8.04541">
        <ele>2031</ele>
        <time>2021-07-10T14:26:04.921Z</time>
      </trkpt>
      <trkpt lat="46.38542" lon="8.04543">
        <ele>2031</ele>
        <time>2021-07-10T14:26:05.921Z</time>
      </trkpt>
      <trkpt lat="46.38542" lon="8.04545">
        <ele>2031</ele>
        <time>2021-07-10T14:26:06.921Z</time>
      </trkpt>
      <trkpt lat="46.38542" lon="8.04547">
        <ele>2031</ele>
        <time>2021-07-10T14:26:07.921Z</time>
      </trkpt>
      <trkpt lat="46.38542" lon="8.04548">
        <ele>2030</ele>
        <time>2021-07-10T14:26:08.922Z</time>
      </trkpt>
      <trkpt lat="46.38542" lon="8.04549">
        <ele>2030</ele>
        <time>2021-07-10T14:26:09.921Z</time>
      </trkpt>
      <trkpt lat="46.38543" lon="8.04551">
        <ele>2030</ele>
        <time>2021-07-10T14:26:10.921Z</time>
      </trkpt>
      <trkpt lat="46.38543" lon="8.04552">
        <ele>2030</ele>
        <time>2021-07-10T14:26:11.922Z</time>
      </trkpt>
      <trkpt lat="46.38543" lon="8.04554">
        <ele>2030</ele>
        <time>2021-07-10T14:26:12.922Z</time>
      </trkpt>
      <trkpt lat="46.38543" lon="8.04555">
        <ele>2030</ele>
        <time>2021-07-10T14:26:13.921Z</time>
      </trkpt>
      <trkpt lat="46.38543" lon="8.04556">
        <ele>2031</ele>
        <time>2021-07-10T14:26:14.922Z</time>
      </trkpt>
      <trkpt lat="46.38543" lon="8.04558">
        <ele>2031</ele>
        <time>2021-07-10T14:26:15.921Z</time>
      </trkpt>
      <trkpt lat="46.38544" lon="8.04559">
        <ele>2031</ele>
        <time>2021-07-10T14:26:16.922Z</time>
      </trkpt>
      <trkpt lat="46.38544" lon="8.0456">
        <ele>2032</ele>
        <time>2021-07-10T14:26:17.922Z</time>
      </trkpt>
      <trkpt lat="46.38544" lon="8.04562">
        <ele>2032</ele>
        <time>2021-07-10T14:26:18.922Z</time>
      </trkpt>
      <trkpt lat="46.38545" lon="8.04564">
        <ele>2032</ele>
        <time>2021-07-10T14:26:19.921Z</time>
      </trkpt>
      <trkpt lat="46.38546" lon="8.04566">
        <ele>2032</ele>
        <time>2021-07-10T14:26:20.922Z</time>
      </trkpt>
      <trkpt lat="46.38546" lon="8.04567">
        <ele>2033</ele>
        <time>2021-07-10T14:26:21.921Z</time>
      </trkpt>
      <trkpt lat="46.38547" lon="8.04569">
        <ele>2033</ele>
        <time>2021-07-10T14:26:22.922Z</time>
      </trkpt>
      <trkpt lat="46.38547" lon="8.04569">
        <ele>2033</ele>
        <time>2021-07-10T14:26:23.922Z</time>
      </trkpt>
      <trkpt lat="46.38547" lon="8.04571">
        <ele>2033</ele>
        <time>2021-07-10T14:26:24.922Z</time>
      </trkpt>
      <trkpt lat="46.38548" lon="8.04572">
        <ele>2033</ele>
        <time>2021-07-10T14:26:25.921Z</time>
      </trkpt>
      <trkpt lat="46.38549" lon="8.04574">
        <ele>2033</ele>
        <time>2021-07-10T14:26:26.922Z</time>
      </trkpt>
      <trkpt lat="46.38549" lon="8.04575">
        <ele>2033</ele>
        <time>2021-07-10T14:26:27.922Z</time>
      </trkpt>
      <trkpt lat="46.3855" lon="8.04576">
        <ele>2033</ele>
        <time>2021-07-10T14:26:28.921Z</time>
      </trkpt>
      <trkpt lat="46.3855" lon="8.04578">
        <ele>2033</ele>
        <time>2021-07-10T14:26:29.921Z</time>
      </trkpt>
      <trkpt lat="46.38551" lon="8.04579">
        <ele>2034</ele>
        <time>2021-07-10T14:26:30.922Z</time>
      </trkpt>
      <trkpt lat="46.38551" lon="8.04581">
        <ele>2034</ele>
        <time>2021-07-10T14:26:31.921Z</time>
      </trkpt>
      <trkpt lat="46.38551" lon="8.04583">
        <ele>2034</ele>
        <time>2021-07-10T14:26:32.921Z</time>
      </trkpt>
      <trkpt lat="46.38551" lon="8.04585">
        <ele>2034</ele>
        <time>2021-07-10T14:26:33.922Z</time>
      </trkpt>
      <trkpt lat="46.38551" lon="8.04587">
        <ele>2034</ele>
        <time>2021-07-10T14:26:34.922Z</time>
      </trkpt>
      <trkpt lat="46.38552" lon="8.04589">
        <ele>2034</ele>
        <time>2021-07-10T14:26:35.922Z</time>
      </trkpt>
      <trkpt lat="46.38552" lon="8.0459">
        <ele>2034</ele>
        <time>2021-07-10T14:26:36.922Z</time>
      </trkpt>
      <trkpt lat="46.38553" lon="8.04592">
        <ele>2034</ele>
        <time>2021-07-10T14:26:37.922Z</time>
      </trkpt>
      <trkpt lat="46.38554" lon="8.04594">
        <ele>2034</ele>
        <time>2021-07-10T14:26:38.922Z</time>
      </trkpt>
      <trkpt lat="46.38554" lon="8.04596">
        <ele>2034</ele>
        <time>2021-07-10T14:26:39.921Z</time>
      </trkpt>
      <trkpt lat="46.38554" lon="8.04597">
        <ele>2034</ele>
        <time>2021-07-10T14:26:40.922Z</time>
      </trkpt>
      <trkpt lat="46.38554" lon="8.04599">
        <ele>2033</ele>
        <time>2021-07-10T14:26:41.922Z</time>
      </trkpt>
      <trkpt lat="46.38555" lon="8.046">
        <ele>2033</ele>
        <time>2021-07-10T14:26:42.922Z</time>
      </trkpt>
      <trkpt lat="46.38555" lon="8.04603">
        <ele>2033</ele>
        <time>2021-07-10T14:26:43.922Z</time>
      </trkpt>
      <trkpt lat="46.38555" lon="8.04605">
        <ele>2033</ele>
        <time>2021-07-10T14:26:44.922Z</time>
      </trkpt>
      <trkpt lat="46.38555" lon="8.04606">
        <ele>2033</ele>
        <time>2021-07-10T14:26:45.922Z</time>
      </trkpt>
      <trkpt lat="46.38555" lon="8.04607">
        <ele>2033</ele>
        <time>2021-07-10T14:26:46.921Z</time>
      </trkpt>
      <trkpt lat="46.38554" lon="8.04608">
        <ele>2034</ele>
        <time>2021-07-10T14:26:47.922Z</time>
      </trkpt>
      <trkpt lat="46.38554" lon="8.04609">
        <ele>2034</ele>
        <time>2021-07-10T14:26:48.922Z</time>
      </trkpt>
      <trkpt lat="46.38554" lon="8.0461">
        <ele>2034</ele>
        <time>2021-07-10T14:26:49.922Z</time>
      </trkpt>
      <trkpt lat="46.38555" lon="8.04611">
        <ele>2034</ele>
        <time>2021-07-10T14:26:50.922Z</time>
      </trkpt>
      <trkpt lat="46.38555" lon="8.04612">
        <ele>2034</ele>
        <time>2021-07-10T14:26:51.922Z</time>
      </trkpt>
      <trkpt lat="46.38555" lon="8.04614">
        <ele>2034</ele>
        <time>2021-07-10T14:26:52.921Z</time>
      </trkpt>
      <trkpt lat="46.38554" lon="8.04616">
        <ele>2033</ele>
        <time>2021-07-10T14:26:53.922Z</time>
      </trkpt>
      <trkpt lat="46.38554" lon="8.04618">
        <ele>2033</ele>
        <time>2021-07-10T14:26:54.922Z</time>
      </trkpt>
      <trkpt lat="46.38554" lon="8.04619">
        <ele>2033</ele>
        <time>2021-07-10T14:26:55.922Z</time>
      </trkpt>
      <trkpt lat="46.38554" lon="8.04621">
        <ele>2033</ele>
        <time>2021-07-10T14:26:56.922Z</time>
      </trkpt>
      <trkpt lat="46.38553" lon="8.04624">
        <ele>2033</ele>
        <time>2021-07-10T14:26:57.922Z</time>
      </trkpt>
      <trkpt lat="46.38553" lon="8.04626">
        <ele>2033</ele>
        <time>2021-07-10T14:26:58.921Z</time>
      </trkpt>
      <trkpt lat="46.38554" lon="8.04627">
        <ele>2033</ele>
        <time>2021-07-10T14:26:59.922Z</time>
      </trkpt>
      <trkpt lat="46.38554" lon="8.04628">
        <ele>2033</ele>
        <time>2021-07-10T14:27:00.922Z</time>
      </trkpt>
      <trkpt lat="46.38554" lon="8.0463">
        <ele>2033</ele>
        <time>2021-07-10T14:27:01.921Z</time>
      </trkpt>
      <trkpt lat="46.38555" lon="8.04632">
        <ele>2033</ele>
        <time>2021-07-10T14:27:02.922Z</time>
      </trkpt>
      <trkpt lat="46.38555" lon="8.04634">
        <ele>2033</ele>
        <time>2021-07-10T14:27:03.921Z</time>
      </trkpt>
      <trkpt lat="46.38555" lon="8.04636">
        <ele>2033</ele>
        <time>2021-07-10T14:27:04.921Z</time>
      </trkpt>
      <trkpt lat="46.38556" lon="8.04637">
        <ele>2033</ele>
        <time>2021-07-10T14:27:05.922Z</time>
      </trkpt>
      <trkpt lat="46.38556" lon="8.04639">
        <ele>2033</ele>
        <time>2021-07-10T14:27:06.922Z</time>
      </trkpt>
      <trkpt lat="46.38557" lon="8.04641">
        <ele>2034</ele>
        <time>2021-07-10T14:27:07.922Z</time>
      </trkpt>
      <trkpt lat="46.38557" lon="8.04642">
        <ele>2034</ele>
        <time>2021-07-10T14:27:08.921Z</time>
      </trkpt>
      <trkpt lat="46.38557" lon="8.04642">
        <ele>2034</ele>
        <time>2021-07-10T14:27:09.922Z</time>
      </trkpt>
      <trkpt lat="46.38557" lon="8.04644">
        <ele>2034</ele>
        <time>2021-07-10T14:27:10.922Z</time>
      </trkpt>
      <trkpt lat="46.38557" lon="8.04646">
        <ele>2035</ele>
        <time>2021-07-10T14:27:11.922Z</time>
      </trkpt>
      <trkpt lat="46.38556" lon="8.0465">
        <ele>2035</ele>
        <time>2021-07-10T14:27:12.922Z</time>
      </trkpt>
      <trkpt lat="46.38556" lon="8.04652">
        <ele>2035</ele>
        <time>2021-07-10T14:27:13.921Z</time>
      </trkpt>
      <trkpt lat="46.38557" lon="8.04653">
        <ele>2035</ele>
        <time>2021-07-10T14:27:14.922Z</time>
      </trkpt>
      <trkpt lat="46.38557" lon="8.04655">
        <ele>2035</ele>
        <time>2021-07-10T14:27:15.922Z</time>
      </trkpt>
      <trkpt lat="46.38558" lon="8.04656">
        <ele>2035</ele>
        <time>2021-07-10T14:27:16.921Z</time>
      </trkpt>
      <trkpt lat="46.38559" lon="8.04657">
        <ele>2034</ele>
        <time>2021-07-10T14:27:17.921Z</time>
      </trkpt>
      <trkpt lat="46.38559" lon="8.04659">
        <ele>2034</ele>
        <time>2021-07-10T14:27:18.922Z</time>
      </trkpt>
      <trkpt lat="46.3856" lon="8.0466">
        <ele>2034</ele>
        <time>2021-07-10T14:27:19.922Z</time>
      </trkpt>
      <trkpt lat="46.3856" lon="8.04661">
        <ele>2035</ele>
        <time>2021-07-10T14:27:20.922Z</time>
      </trkpt>
      <trkpt lat="46.38561" lon="8.04662">
        <ele>2034</ele>
        <time>2021-07-10T14:27:21.921Z</time>
      </trkpt>
      <trkpt lat="46.38561" lon="8.04664">
        <ele>2034</ele>
        <time>2021-07-10T14:27:22.922Z</time>
      </trkpt>
      <trkpt lat="46.38562" lon="8.04665">
        <ele>2034</ele>
        <time>2021-07-10T14:27:23.921Z</time>
      </trkpt>
      <trkpt lat="46.38562" lon="8.04667">
        <ele>2033</ele>
        <time>2021-07-10T14:27:24.921Z</time>
      </trkpt>
      <trkpt lat="46.38563" lon="8.04669">
        <ele>2033</ele>
        <time>2021-07-10T14:27:25.922Z</time>
      </trkpt>
      <trkpt lat="46.38563" lon="8.04671">
        <ele>2033</ele>
        <time>2021-07-10T14:27:26.921Z</time>
      </trkpt>
      <trkpt lat="46.38563" lon="8.04673">
        <ele>2033</ele>
        <time>2021-07-10T14:27:27.921Z</time>
      </trkpt>
      <trkpt lat="46.38564" lon="8.04675">
        <ele>2032</ele>
        <time>2021-07-10T14:27:28.921Z</time>
      </trkpt>
      <trkpt lat="46.38564" lon="8.04677">
        <ele>2032</ele>
        <time>2021-07-10T14:27:29.921Z</time>
      </trkpt>
      <trkpt lat="46.38564" lon="8.04679">
        <ele>2032</ele>
        <time>2021-07-10T14:27:30.921Z</time>
      </trkpt>
      <trkpt lat="46.38565" lon="8.04681">
        <ele>2032</ele>
        <time>2021-07-10T14:27:31.921Z</time>
      </trkpt>
      <trkpt lat="46.38566" lon="8.04682">
        <ele>2032</ele>
        <time>2021-07-10T14:27:32.921Z</time>
      </trkpt>
      <trkpt lat="46.38566" lon="8.04684">
        <ele>2033</ele>
        <time>2021-07-10T14:27:33.921Z</time>
      </trkpt>
      <trkpt lat="46.38566" lon="8.04685">
        <ele>2033</ele>
        <time>2021-07-10T14:27:34.921Z</time>
      </trkpt>
      <trkpt lat="46.38567" lon="8.04687">
        <ele>2033</ele>
        <time>2021-07-10T14:27:35.921Z</time>
      </trkpt>
      <trkpt lat="46.38568" lon="8.04688">
        <ele>2034</ele>
        <time>2021-07-10T14:27:36.922Z</time>
      </trkpt>
      <trkpt lat="46.38569" lon="8.0469">
        <ele>2033</ele>
        <time>2021-07-10T14:27:37.921Z</time>
      </trkpt>
      <trkpt lat="46.38569" lon="8.04691">
        <ele>2033</ele>
        <time>2021-07-10T14:27:38.922Z</time>
      </trkpt>
      <trkpt lat="46.38569" lon="8.04693">
        <ele>2033</ele>
        <time>2021-07-10T14:27:39.921Z</time>
      </trkpt>
      <trkpt lat="46.3857" lon="8.04694">
        <ele>2032</ele>
        <time>2021-07-10T14:27:40.922Z</time>
      </trkpt>
      <trkpt lat="46.3857" lon="8.04695">
        <ele>2032</ele>
        <time>2021-07-10T14:27:41.921Z</time>
      </trkpt>
      <trkpt lat="46.3857" lon="8.04696">
        <ele>2032</ele>
        <time>2021-07-10T14:27:42.921Z</time>
      </trkpt>
      <trkpt lat="46.38571" lon="8.04697">
        <ele>2033</ele>
        <time>2021-07-10T14:27:43.921Z</time>
      </trkpt>
      <trkpt lat="46.38571" lon="8.04699">
        <ele>2033</ele>
        <time>2021-07-10T14:27:44.922Z</time>
      </trkpt>
      <trkpt lat="46.38572" lon="8.047">
        <ele>2033</ele>
        <time>2021-07-10T14:27:45.922Z</time>
      </trkpt>
      <trkpt lat="46.38572" lon="8.04702">
        <ele>2032</ele>
        <time>2021-07-10T14:27:46.922Z</time>
      </trkpt>
      <trkpt lat="46.38572" lon="8.04704">
        <ele>2032</ele>
        <time>2021-07-10T14:27:47.921Z</time>
      </trkpt>
      <trkpt lat="46.38573" lon="8.04705">
        <ele>2031</ele>
        <time>2021-07-10T14:27:48.921Z</time>
      </trkpt>
      <trkpt lat="46.38574" lon="8.04706">
        <ele>2031</ele>
        <time>2021-07-10T14:27:49.921Z</time>
      </trkpt>
      <trkpt lat="46.38574" lon="8.04707">
        <ele>2031</ele>
        <time>2021-07-10T14:27:50.921Z</time>
      </trkpt>
      <trkpt lat="46.38575" lon="8.04708">
        <ele>2031</ele>
        <time>2021-07-10T14:27:51.921Z</time>
      </trkpt>
      <trkpt lat="46.38575" lon="8.04709">
        <ele>2030</ele>
        <time>2021-07-10T14:27:52.921Z</time>
      </trkpt>
      <trkpt lat="46.38575" lon="8.04711">
        <ele>2030</ele>
        <time>2021-07-10T14:27:53.921Z</time>
      </trkpt>
      <trkpt lat="46.38576" lon="8.04712">
        <ele>2030</ele>
        <time>2021-07-10T14:28:16.916Z</time>
      </trkpt>
      <trkpt lat="46.38576" lon="8.04713">
        <ele>2030</ele>
        <time>2021-07-10T14:28:17.917Z</time>
      </trkpt>
      <trkpt lat="46.38576" lon="8.04715">
        <ele>2030</ele>
        <time>2021-07-10T14:28:18.917Z</time>
      </trkpt>
      <trkpt lat="46.38576" lon="8.04716">
        <ele>2030</ele>
        <time>2021-07-10T14:28:19.916Z</time>
      </trkpt>
      <trkpt lat="46.38576" lon="8.04718">
        <ele>2030</ele>
        <time>2021-07-10T14:28:20.917Z</time>
      </trkpt>
      <trkpt lat="46.38576" lon="8.0472">
        <ele>2030</ele>
        <time>2021-07-10T14:28:21.917Z</time>
      </trkpt>
      <trkpt lat="46.38576" lon="8.04721">
        <ele>2030</ele>
        <time>2021-07-10T14:28:22.917Z</time>
      </trkpt>
      <trkpt lat="46.38575" lon="8.04722">
        <ele>2030</ele>
        <time>2021-07-10T14:28:23.916Z</time>
      </trkpt>
      <trkpt lat="46.38575" lon="8.04723">
        <ele>2030</ele>
        <time>2021-07-10T14:28:24.917Z</time>
      </trkpt>
      <trkpt lat="46.38575" lon="8.04724">
        <ele>2029</ele>
        <time>2021-07-10T14:28:25.916Z</time>
      </trkpt>
      <trkpt lat="46.38574" lon="8.04726">
        <ele>2029</ele>
        <time>2021-07-10T14:28:26.916Z</time>
      </trkpt>
      <trkpt lat="46.38574" lon="8.04727">
        <ele>2030</ele>
        <time>2021-07-10T14:28:27.916Z</time>
      </trkpt>
      <trkpt lat="46.38574" lon="8.04728">
        <ele>2030</ele>
        <time>2021-07-10T14:28:28.916Z</time>
      </trkpt>
      <trkpt lat="46.38573" lon="8.0473">
        <ele>2029</ele>
        <time>2021-07-10T14:28:29.916Z</time>
      </trkpt>
      <trkpt lat="46.38573" lon="8.04731">
        <ele>2029</ele>
        <time>2021-07-10T14:28:43.066Z</time>
      </trkpt>
      <trkpt lat="46.38572" lon="8.04732">
        <ele>2029</ele>
        <time>2021-07-10T14:28:44.066Z</time>
      </trkpt>
      <trkpt lat="46.38572" lon="8.04734">
        <ele>2030</ele>
        <time>2021-07-10T14:28:45.066Z</time>
      </trkpt>
      <trkpt lat="46.38572" lon="8.04735">
        <ele>2030</ele>
        <time>2021-07-10T14:28:46.065Z</time>
      </trkpt>
      <trkpt lat="46.38573" lon="8.04736">
        <ele>2031</ele>
        <time>2021-07-10T14:28:47.065Z</time>
      </trkpt>
      <trkpt lat="46.38573" lon="8.04737">
        <ele>2032</ele>
        <time>2021-07-10T14:28:48.065Z</time>
      </trkpt>
      <trkpt lat="46.38573" lon="8.04739">
        <ele>2032</ele>
        <time>2021-07-10T14:28:49.066Z</time>
      </trkpt>
      <trkpt lat="46.38573" lon="8.04741">
        <ele>2032</ele>
        <time>2021-07-10T14:28:50.066Z</time>
      </trkpt>
      <trkpt lat="46.38573" lon="8.04742">
        <ele>2032</ele>
        <time>2021-07-10T14:28:51.066Z</time>
      </trkpt>
      <trkpt lat="46.38573" lon="8.04744">
        <ele>2032</ele>
        <time>2021-07-10T14:28:52.065Z</time>
      </trkpt>
      <trkpt lat="46.38574" lon="8.04745">
        <ele>2032</ele>
        <time>2021-07-10T14:28:53.066Z</time>
      </trkpt>
      <trkpt lat="46.38574" lon="8.04747">
        <ele>2032</ele>
        <time>2021-07-10T14:28:54.065Z</time>
      </trkpt>
      <trkpt lat="46.38574" lon="8.04748">
        <ele>2032</ele>
        <time>2021-07-10T14:28:55.066Z</time>
      </trkpt>
      <trkpt lat="46.38574" lon="8.04749">
        <ele>2032</ele>
        <time>2021-07-10T14:28:56.065Z</time>
      </trkpt>
      <trkpt lat="46.38575" lon="8.0475">
        <ele>2033</ele>
        <time>2021-07-10T14:28:57.065Z</time>
      </trkpt>
      <trkpt lat="46.38575" lon="8.04752">
        <ele>2033</ele>
        <time>2021-07-10T14:28:58.065Z</time>
      </trkpt>
      <trkpt lat="46.38576" lon="8.04753">
        <ele>2034</ele>
        <time>2021-07-10T14:28:59.065Z</time>
      </trkpt>
      <trkpt lat="46.38576" lon="8.04755">
        <ele>2034</ele>
        <time>2021-07-10T14:29:00.066Z</time>
      </trkpt>
      <trkpt lat="46.38576" lon="8.04756">
        <ele>2035</ele>
        <time>2021-07-10T14:29:01.066Z</time>
      </trkpt>
      <trkpt lat="46.38576" lon="8.04758">
        <ele>2036</ele>
        <time>2021-07-10T14:29:02.065Z</time>
      </trkpt>
      <trkpt lat="46.38576" lon="8.04759">
        <ele>2036</ele>
        <time>2021-07-10T14:29:03.066Z</time>
      </trkpt>
      <trkpt lat="46.38576" lon="8.04761">
        <ele>2036</ele>
        <time>2021-07-10T14:29:04.065Z</time>
      </trkpt>
      <trkpt lat="46.38576" lon="8.04762">
        <ele>2037</ele>
        <time>2021-07-10T14:29:05.066Z</time>
      </trkpt>
      <trkpt lat="46.38577" lon="8.04764">
        <ele>2037</ele>
        <time>2021-07-10T14:29:06.065Z</time>
      </trkpt>
      <trkpt lat="46.38577" lon="8.04766">
        <ele>2037</ele>
        <time>2021-07-10T14:29:07.065Z</time>
      </trkpt>
      <trkpt lat="46.38578" lon="8.04768">
        <ele>2037</ele>
        <time>2021-07-10T14:29:08.065Z</time>
      </trkpt>
      <trkpt lat="46.38578" lon="8.04769">
        <ele>2037</ele>
        <time>2021-07-10T14:29:09.066Z</time>
      </trkpt>
      <trkpt lat="46.38578" lon="8.04771">
        <ele>2037</ele>
        <time>2021-07-10T14:29:10.066Z</time>
      </trkpt>
      <trkpt lat="46.38578" lon="8.04772">
        <ele>2037</ele>
        <time>2021-07-10T14:29:11.066Z</time>
      </trkpt>
      <trkpt lat="46.38578" lon="8.04773">
        <ele>2038</ele>
        <time>2021-07-10T14:29:12.065Z</time>
      </trkpt>
      <trkpt lat="46.38579" lon="8.04775">
        <ele>2038</ele>
        <time>2021-07-10T14:29:13.065Z</time>
      </trkpt>
      <trkpt lat="46.38579" lon="8.04776">
        <ele>2038</ele>
        <time>2021-07-10T14:29:14.065Z</time>
      </trkpt>
      <trkpt lat="46.3858" lon="8.04778">
        <ele>2038</ele>
        <time>2021-07-10T14:29:15.066Z</time>
      </trkpt>
      <trkpt lat="46.3858" lon="8.0478">
        <ele>2038</ele>
        <time>2021-07-10T14:29:24.192Z</time>
      </trkpt>
      <trkpt lat="46.3858" lon="8.04782">
        <ele>2038</ele>
        <time>2021-07-10T14:29:25.191Z</time>
      </trkpt>
      <trkpt lat="46.3858" lon="8.04785">
        <ele>2039</ele>
        <time>2021-07-10T14:29:26.192Z</time>
      </trkpt>
      <trkpt lat="46.3858" lon="8.04787">
        <ele>2039</ele>
        <time>2021-07-10T14:29:27.192Z</time>
      </trkpt>
      <trkpt lat="46.38581" lon="8.04788">
        <ele>2039</ele>
        <time>2021-07-10T14:29:28.192Z</time>
      </trkpt>
      <trkpt lat="46.38581" lon="8.0479">
        <ele>2040</ele>
        <time>2021-07-10T14:29:29.191Z</time>
      </trkpt>
      <trkpt lat="46.38581" lon="8.04791">
        <ele>2040</ele>
        <time>2021-07-10T14:29:30.191Z</time>
      </trkpt>
      <trkpt lat="46.38582" lon="8.04793">
        <ele>2040</ele>
        <time>2021-07-10T14:29:31.191Z</time>
      </trkpt>
      <trkpt lat="46.38582" lon="8.04794">
        <ele>2041</ele>
        <time>2021-07-10T14:29:32.191Z</time>
      </trkpt>
      <trkpt lat="46.38582" lon="8.04796">
        <ele>2041</ele>
        <time>2021-07-10T14:29:33.191Z</time>
      </trkpt>
      <trkpt lat="46.38582" lon="8.04798">
        <ele>2042</ele>
        <time>2021-07-10T14:29:34.191Z</time>
      </trkpt>
      <trkpt lat="46.38583" lon="8.04799">
        <ele>2042</ele>
        <time>2021-07-10T14:29:35.192Z</time>
      </trkpt>
      <trkpt lat="46.38584" lon="8.04801">
        <ele>2042</ele>
        <time>2021-07-10T14:29:36.191Z</time>
      </trkpt>
      <trkpt lat="46.38585" lon="8.04802">
        <ele>2042</ele>
        <time>2021-07-10T14:29:37.191Z</time>
      </trkpt>
      <trkpt lat="46.38585" lon="8.04804">
        <ele>2042</ele>
        <time>2021-07-10T14:29:38.191Z</time>
      </trkpt>
      <trkpt lat="46.38585" lon="8.04806">
        <ele>2042</ele>
        <time>2021-07-10T14:29:39.191Z</time>
      </trkpt>
      <trkpt lat="46.38585" lon="8.04808">
        <ele>2042</ele>
        <time>2021-07-10T14:29:40.192Z</time>
      </trkpt>
      <trkpt lat="46.38586" lon="8.04809">
        <ele>2043</ele>
        <time>2021-07-10T14:29:41.191Z</time>
      </trkpt>
      <trkpt lat="46.38586" lon="8.04811">
        <ele>2043</ele>
        <time>2021-07-10T14:29:42.191Z</time>
      </trkpt>
      <trkpt lat="46.38586" lon="8.04812">
        <ele>2043</ele>
        <time>2021-07-10T14:29:43.192Z</time>
      </trkpt>
      <trkpt lat="46.38587" lon="8.04814">
        <ele>2044</ele>
        <time>2021-07-10T14:29:44.192Z</time>
      </trkpt>
      <trkpt lat="46.38587" lon="8.04815">
        <ele>2044</ele>
        <time>2021-07-10T14:29:45.192Z</time>
      </trkpt>
      <trkpt lat="46.38587" lon="8.04817">
        <ele>2044</ele>
        <time>2021-07-10T14:29:46.192Z</time>
      </trkpt>
      <trkpt lat="46.38588" lon="8.04819">
        <ele>2043</ele>
        <time>2021-07-10T14:29:47.191Z</time>
      </trkpt>
      <trkpt lat="46.38589" lon="8.04821">
        <ele>2043</ele>
        <time>2021-07-10T14:29:48.191Z</time>
      </trkpt>
      <trkpt lat="46.38589" lon="8.04823">
        <ele>2043</ele>
        <time>2021-07-10T14:29:49.191Z</time>
      </trkpt>
      <trkpt lat="46.3859" lon="8.04825">
        <ele>2043</ele>
        <time>2021-07-10T14:29:50.191Z</time>
      </trkpt>
      <trkpt lat="46.38591" lon="8.04827">
        <ele>2043</ele>
        <time>2021-07-10T14:29:51.192Z</time>
      </trkpt>
      <trkpt lat="46.38591" lon="8.04829">
        <ele>2043</ele>
        <time>2021-07-10T14:29:52.192Z</time>
      </trkpt>
      <trkpt lat="46.38591" lon="8.04831">
        <ele>2043</ele>
        <time>2021-07-10T14:30:25.325Z</time>
      </trkpt>
      <trkpt lat="46.38592" lon="8.04833">
        <ele>2043</ele>
        <time>2021-07-10T14:30:26.325Z</time>
      </trkpt>
      <trkpt lat="46.38593" lon="8.04834">
        <ele>2043</ele>
        <time>2021-07-10T14:30:27.326Z</time>
      </trkpt>
      <trkpt lat="46.38593" lon="8.04836">
        <ele>2044</ele>
        <time>2021-07-10T14:30:28.325Z</time>
      </trkpt>
      <trkpt lat="46.38594" lon="8.04837">
        <ele>2044</ele>
        <time>2021-07-10T14:30:29.326Z</time>
      </trkpt>
      <trkpt lat="46.38595" lon="8.04838">
        <ele>2045</ele>
        <time>2021-07-10T14:30:30.325Z</time>
      </trkpt>
      <trkpt lat="46.38595" lon="8.0484">
        <ele>2045</ele>
        <time>2021-07-10T14:30:31.325Z</time>
      </trkpt>
      <trkpt lat="46.38596" lon="8.04841">
        <ele>2045</ele>
        <time>2021-07-10T14:30:32.326Z</time>
      </trkpt>
      <trkpt lat="46.38597" lon="8.04842">
        <ele>2046</ele>
        <time>2021-07-10T14:30:33.326Z</time>
      </trkpt>
      <trkpt lat="46.38597" lon="8.04843">
        <ele>2046</ele>
        <time>2021-07-10T14:30:34.326Z</time>
      </trkpt>
      <trkpt lat="46.38598" lon="8.04845">
        <ele>2046</ele>
        <time>2021-07-10T14:30:35.326Z</time>
      </trkpt>
      <trkpt lat="46.38599" lon="8.04846">
        <ele>2046</ele>
        <time>2021-07-10T14:30:36.325Z</time>
      </trkpt>
      <trkpt lat="46.386" lon="8.04848">
        <ele>2047</ele>
        <time>2021-07-10T14:30:37.326Z</time>
      </trkpt>
      <trkpt lat="46.386" lon="8.0485">
        <ele>2047</ele>
        <time>2021-07-10T14:30:38.326Z</time>
      </trkpt>
      <trkpt lat="46.38601" lon="8.04851">
        <ele>2046</ele>
        <time>2021-07-10T14:30:39.325Z</time>
      </trkpt>
      <trkpt lat="46.38601" lon="8.04853">
        <ele>2046</ele>
        <time>2021-07-10T14:30:40.326Z</time>
      </trkpt>
      <trkpt lat="46.38602" lon="8.04854">
        <ele>2046</ele>
        <time>2021-07-10T14:30:41.325Z</time>
      </trkpt>
      <trkpt lat="46.38602" lon="8.04855">
        <ele>2046</ele>
        <time>2021-07-10T14:30:42.326Z</time>
      </trkpt>
      <trkpt lat="46.38603" lon="8.04856">
        <ele>2046</ele>
        <time>2021-07-10T14:30:43.325Z</time>
      </trkpt>
      <trkpt lat="46.38603" lon="8.04858">
        <ele>2046</ele>
        <time>2021-07-10T14:30:44.325Z</time>
      </trkpt>
      <trkpt lat="46.38604" lon="8.04859">
        <ele>2045</ele>
        <time>2021-07-10T14:30:45.325Z</time>
      </trkpt>
      <trkpt lat="46.38605" lon="8.0486">
        <ele>2045</ele>
        <time>2021-07-10T14:30:46.326Z</time>
      </trkpt>
      <trkpt lat="46.38605" lon="8.04861">
        <ele>2046</ele>
        <time>2021-07-10T14:30:47.326Z</time>
      </trkpt>
      <trkpt lat="46.38606" lon="8.04863">
        <ele>2046</ele>
        <time>2021-07-10T14:30:48.326Z</time>
      </trkpt>
      <trkpt lat="46.38606" lon="8.04865">
        <ele>2047</ele>
        <time>2021-07-10T14:30:49.325Z</time>
      </trkpt>
      <trkpt lat="46.38606" lon="8.04866">
        <ele>2048</ele>
        <time>2021-07-10T14:30:50.326Z</time>
      </trkpt>
      <trkpt lat="46.38607" lon="8.04868">
        <ele>2048</ele>
        <time>2021-07-10T14:30:51.326Z</time>
      </trkpt>
      <trkpt lat="46.38607" lon="8.04869">
        <ele>2048</ele>
        <time>2021-07-10T14:30:52.325Z</time>
      </trkpt>
      <trkpt lat="46.38608" lon="8.0487">
        <ele>2048</ele>
        <time>2021-07-10T14:30:53.326Z</time>
      </trkpt>
      <trkpt lat="46.38608" lon="8.04872">
        <ele>2048</ele>
        <time>2021-07-10T14:30:54.326Z</time>
      </trkpt>
      <trkpt lat="46.38608" lon="8.04873">
        <ele>2048</ele>
        <time>2021-07-10T14:30:55.325Z</time>
      </trkpt>
      <trkpt lat="46.38608" lon="8.04874">
        <ele>2048</ele>
        <time>2021-07-10T14:30:56.325Z</time>
      </trkpt>
      <trkpt lat="46.38608" lon="8.04876">
        <ele>2049</ele>
        <time>2021-07-10T14:30:57.325Z</time>
      </trkpt>
      <trkpt lat="46.38609" lon="8.04878">
        <ele>2049</ele>
        <time>2021-07-10T14:30:58.326Z</time>
      </trkpt>
      <trkpt lat="46.38609" lon="8.0488">
        <ele>2048</ele>
        <time>2021-07-10T14:30:59.325Z</time>
      </trkpt>
      <trkpt lat="46.38609" lon="8.04881">
        <ele>2048</ele>
        <time>2021-07-10T14:31:00.326Z</time>
      </trkpt>
      <trkpt lat="46.38609" lon="8.04884">
        <ele>2049</ele>
        <time>2021-07-10T14:31:01.326Z</time>
      </trkpt>
      <trkpt lat="46.38609" lon="8.04886">
        <ele>2049</ele>
        <time>2021-07-10T14:31:02.325Z</time>
      </trkpt>
      <trkpt lat="46.3861" lon="8.04888">
        <ele>2049</ele>
        <time>2021-07-10T14:31:03.326Z</time>
      </trkpt>
      <trkpt lat="46.3861" lon="8.04889">
        <ele>2049</ele>
        <time>2021-07-10T14:31:04.325Z</time>
      </trkpt>
      <trkpt lat="46.3861" lon="8.04891">
        <ele>2049</ele>
        <time>2021-07-10T14:31:05.325Z</time>
      </trkpt>
      <trkpt lat="46.3861" lon="8.04892">
        <ele>2049</ele>
        <time>2021-07-10T14:31:06.326Z</time>
      </trkpt>
      <trkpt lat="46.3861" lon="8.04894">
        <ele>2049</ele>
        <time>2021-07-10T14:31:07.325Z</time>
      </trkpt>
      <trkpt lat="46.3861" lon="8.04895">
        <ele>2050</ele>
        <time>2021-07-10T14:31:08.326Z</time>
      </trkpt>
      <trkpt lat="46.3861" lon="8.04897">
        <ele>2050</ele>
        <time>2021-07-10T14:31:09.325Z</time>
      </trkpt>
      <trkpt lat="46.3861" lon="8.04899">
        <ele>2051</ele>
        <time>2021-07-10T14:31:10.325Z</time>
      </trkpt>
      <trkpt lat="46.38611" lon="8.049">
        <ele>2051</ele>
        <time>2021-07-10T14:31:11.326Z</time>
      </trkpt>
      <trkpt lat="46.38611" lon="8.04902">
        <ele>2051</ele>
        <time>2021-07-10T14:31:12.325Z</time>
      </trkpt>
      <trkpt lat="46.38611" lon="8.04903">
        <ele>2051</ele>
        <time>2021-07-10T14:31:13.326Z</time>
      </trkpt>
      <trkpt lat="46.38611" lon="8.04905">
        <ele>2051</ele>
        <time>2021-07-10T14:31:14.326Z</time>
      </trkpt>
      <trkpt lat="46.38611" lon="8.04906">
        <ele>2051</ele>
        <time>2021-07-10T14:31:15.326Z</time>
      </trkpt>
      <trkpt lat="46.38611" lon="8.04907">
        <ele>2051</ele>
        <time>2021-07-10T14:31:16.325Z</time>
      </trkpt>
      <trkpt lat="46.38611" lon="8.04909">
        <ele>2051</ele>
        <time>2021-07-10T14:31:17.326Z</time>
      </trkpt>
      <trkpt lat="46.38612" lon="8.04911">
        <ele>2051</ele>
        <time>2021-07-10T14:31:18.325Z</time>
      </trkpt>
      <trkpt lat="46.38612" lon="8.04913">
        <ele>2050</ele>
        <time>2021-07-10T14:31:19.326Z</time>
      </trkpt>
      <trkpt lat="46.38612" lon="8.04915">
        <ele>2050</ele>
        <time>2021-07-10T14:31:33.412Z</time>
      </trkpt>
      <trkpt lat="46.38613" lon="8.04917">
        <ele>2049</ele>
        <time>2021-07-10T14:31:37.168Z</time>
      </trkpt>
      <trkpt lat="46.38613" lon="8.04918">
        <ele>2049</ele>
        <time>2021-07-10T14:31:38.167Z</time>
      </trkpt>
      <trkpt lat="46.38613" lon="8.0492">
        <ele>2048</ele>
        <time>2021-07-10T14:31:39.167Z</time>
      </trkpt>
      <trkpt lat="46.38614" lon="8.04922">
        <ele>2048</ele>
        <time>2021-07-10T14:31:40.168Z</time>
      </trkpt>
      <trkpt lat="46.38614" lon="8.04924">
        <ele>2048</ele>
        <time>2021-07-10T14:31:41.167Z</time>
      </trkpt>
      <trkpt lat="46.38614" lon="8.04925">
        <ele>2048</ele>
        <time>2021-07-10T14:31:42.167Z</time>
      </trkpt>
      <trkpt lat="46.38613" lon="8.04926">
        <ele>2049</ele>
        <time>2021-07-10T14:31:43.167Z</time>
      </trkpt>
      <trkpt lat="46.38613" lon="8.04928">
        <ele>2049</ele>
        <time>2021-07-10T14:31:44.167Z</time>
      </trkpt>
      <trkpt lat="46.38612" lon="8.04929">
        <ele>2050</ele>
        <time>2021-07-10T14:31:45.167Z</time>
      </trkpt>
      <trkpt lat="46.38611" lon="8.0493">
        <ele>2050</ele>
        <time>2021-07-10T14:31:46.168Z</time>
      </trkpt>
      <trkpt lat="46.38611" lon="8.04932">
        <ele>2051</ele>
        <time>2021-07-10T14:31:47.168Z</time>
      </trkpt>
      <trkpt lat="46.3861" lon="8.04933">
        <ele>2051</ele>
        <time>2021-07-10T14:31:48.168Z</time>
      </trkpt>
      <trkpt lat="46.3861" lon="8.04934">
        <ele>2051</ele>
        <time>2021-07-10T14:31:49.168Z</time>
      </trkpt>
      <trkpt lat="46.3861" lon="8.04936">
        <ele>2051</ele>
        <time>2021-07-10T14:31:50.167Z</time>
      </trkpt>
      <trkpt lat="46.38609" lon="8.04937">
        <ele>2051</ele>
        <time>2021-07-10T14:31:51.168Z</time>
      </trkpt>
      <trkpt lat="46.38609" lon="8.04938">
        <ele>2051</ele>
        <time>2021-07-10T14:31:52.167Z</time>
      </trkpt>
      <trkpt lat="46.38609" lon="8.0494">
        <ele>2051</ele>
        <time>2021-07-10T14:31:53.167Z</time>
      </trkpt>
      <trkpt lat="46.38609" lon="8.04941">
        <ele>2051</ele>
        <time>2021-07-10T14:31:54.168Z</time>
      </trkpt>
      <trkpt lat="46.38609" lon="8.04942">
        <ele>2052</ele>
        <time>2021-07-10T14:31:55.167Z</time>
      </trkpt>
      <trkpt lat="46.38609" lon="8.04943">
        <ele>2053</ele>
        <time>2021-07-10T14:31:56.168Z</time>
      </trkpt>
      <trkpt lat="46.38609" lon="8.04945">
        <ele>2054</ele>
        <time>2021-07-10T14:31:57.168Z</time>
      </trkpt>
      <trkpt lat="46.3861" lon="8.04945">
        <ele>2054</ele>
        <time>2021-07-10T14:31:58.168Z</time>
      </trkpt>
      <trkpt lat="46.3861" lon="8.04945">
        <ele>2055</ele>
        <time>2021-07-10T14:31:59.168Z</time>
      </trkpt>
      <trkpt lat="46.3861" lon="8.04946">
        <ele>2055</ele>
        <time>2021-07-10T14:32:00.167Z</time>
      </trkpt>
      <trkpt lat="46.3861" lon="8.04947">
        <ele>2056</ele>
        <time>2021-07-10T14:32:01.168Z</time>
      </trkpt>
      <trkpt lat="46.3861" lon="8.04948">
        <ele>2056</ele>
        <time>2021-07-10T14:32:02.168Z</time>
      </trkpt>
      <trkpt lat="46.3861" lon="8.04949">
        <ele>2056</ele>
        <time>2021-07-10T14:32:03.167Z</time>
      </trkpt>
      <trkpt lat="46.3861" lon="8.0495">
        <ele>2056</ele>
        <time>2021-07-10T14:32:04.167Z</time>
      </trkpt>
      <trkpt lat="46.3861" lon="8.04951">
        <ele>2057</ele>
        <time>2021-07-10T14:32:05.167Z</time>
      </trkpt>
      <trkpt lat="46.3861" lon="8.04951">
        <ele>2057</ele>
        <time>2021-07-10T14:32:06.167Z</time>
      </trkpt>
      <trkpt lat="46.3861" lon="8.04951">
        <ele>2057</ele>
        <time>2021-07-10T14:32:07.167Z</time>
      </trkpt>
      <trkpt lat="46.38611" lon="8.04952">
        <ele>2057</ele>
        <time>2021-07-10T14:32:08.168Z</time>
      </trkpt>
      <trkpt lat="46.38611" lon="8.04951">
        <ele>2057</ele>
        <time>2021-07-10T14:32:09.168Z</time>
      </trkpt>
      <trkpt lat="46.38611" lon="8.04951">
        <ele>2057</ele>
        <time>2021-07-10T14:32:10.168Z</time>
      </trkpt>
      <trkpt lat="46.38611" lon="8.0495">
        <ele>2057</ele>
        <time>2021-07-10T14:32:11.167Z</time>
      </trkpt>
      <trkpt lat="46.38611" lon="8.04951">
        <ele>2056</ele>
        <time>2021-07-10T14:32:12.168Z</time>
      </trkpt>
      <trkpt lat="46.38612" lon="8.04953">
        <ele>2056</ele>
        <time>2021-07-10T14:32:13.168Z</time>
      </trkpt>
      <trkpt lat="46.38612" lon="8.04954">
        <ele>2056</ele>
        <time>2021-07-10T14:32:14.168Z</time>
      </trkpt>
      <trkpt lat="46.38612" lon="8.04956">
        <ele>2056</ele>
        <time>2021-07-10T14:32:15.167Z</time>
      </trkpt>
      <trkpt lat="46.38613" lon="8.04957">
        <ele>2056</ele>
        <time>2021-07-10T14:32:16.168Z</time>
      </trkpt>
      <trkpt lat="46.38613" lon="8.04958">
        <ele>2056</ele>
        <time>2021-07-10T14:32:17.168Z</time>
      </trkpt>
      <trkpt lat="46.38613" lon="8.04959">
        <ele>2056</ele>
        <time>2021-07-10T14:32:18.167Z</time>
      </trkpt>
      <trkpt lat="46.38614" lon="8.0496">
        <ele>2056</ele>
        <time>2021-07-10T14:32:19.168Z</time>
      </trkpt>
      <trkpt lat="46.38614" lon="8.0496">
        <ele>2055</ele>
        <time>2021-07-10T14:32:20.168Z</time>
      </trkpt>
      <trkpt lat="46.38613" lon="8.0496">
        <ele>2055</ele>
        <time>2021-07-10T14:32:21.168Z</time>
      </trkpt>
      <trkpt lat="46.38613" lon="8.0496">
        <ele>2055</ele>
        <time>2021-07-10T14:32:22.168Z</time>
      </trkpt>
      <trkpt lat="46.38607" lon="8.04949">
        <ele>2063</ele>
        <time>2021-07-10T14:32:23.168Z</time>
      </trkpt>
      <trkpt lat="46.38607" lon="8.0495">
        <ele>2063</ele>
        <time>2021-07-10T14:32:24.168Z</time>
      </trkpt>
      <trkpt lat="46.38607" lon="8.04946">
        <ele>2061</ele>
        <time>2021-07-10T14:32:25.168Z</time>
      </trkpt>
      <trkpt lat="46.38607" lon="8.04945">
        <ele>2061</ele>
        <time>2021-07-10T14:32:26.168Z</time>
      </trkpt>
      <trkpt lat="46.38607" lon="8.04945">
        <ele>2061</ele>
        <time>2021-07-10T14:32:27.167Z</time>
      </trkpt>
      <trkpt lat="46.38608" lon="8.04947">
        <ele>2059</ele>
        <time>2021-07-10T14:32:28.168Z</time>
      </trkpt>
      <trkpt lat="46.38611" lon="8.04951">
        <ele>2061</ele>
        <time>2021-07-10T14:32:29.168Z</time>
      </trkpt>
      <trkpt lat="46.38611" lon="8.0495">
        <ele>2061</ele>
        <time>2021-07-10T14:32:30.167Z</time>
      </trkpt>
      <trkpt lat="46.38612" lon="8.04946">
        <ele>2057</ele>
        <time>2021-07-10T14:32:31.167Z</time>
      </trkpt>
      <trkpt lat="46.38612" lon="8.04946">
        <ele>2056</ele>
        <time>2021-07-10T14:32:32.167Z</time>
      </trkpt>
      <trkpt lat="46.38613" lon="8.04947">
        <ele>2055</ele>
        <time>2021-07-10T14:32:33.167Z</time>
      </trkpt>
      <trkpt lat="46.38613" lon="8.04948">
        <ele>2047</ele>
        <time>2021-07-10T14:32:34.167Z</time>
      </trkpt>
      <trkpt lat="46.38613" lon="8.04948">
        <ele>2048</ele>
        <time>2021-07-10T14:32:35.167Z</time>
      </trkpt>
      <trkpt lat="46.38615" lon="8.04946">
        <ele>2058</ele>
        <time>2021-07-10T14:32:36.168Z</time>
      </trkpt>
      <trkpt lat="46.38615" lon="8.04945">
        <ele>2059</ele>
        <time>2021-07-10T14:32:37.168Z</time>
      </trkpt>
      <trkpt lat="46.38615" lon="8.04946">
        <ele>2060</ele>
        <time>2021-07-10T14:32:38.167Z</time>
      </trkpt>
      <trkpt lat="46.38612" lon="8.04947">
        <ele>2060</ele>
        <time>2021-07-10T14:32:39.168Z</time>
      </trkpt>
      <trkpt lat="46.38612" lon="8.04947">
        <ele>2060</ele>
        <time>2021-07-10T14:32:40.168Z</time>
      </trkpt>
      <trkpt lat="46.38614" lon="8.0495">
        <ele>2061</ele>
        <time>2021-07-10T14:32:41.168Z</time>
      </trkpt>
      <trkpt lat="46.38615" lon="8.0495">
        <ele>2061</ele>
        <time>2021-07-10T14:32:42.168Z</time>
      </trkpt>
      <trkpt lat="46.38615" lon="8.0495">
        <ele>2060</ele>
        <time>2021-07-10T14:32:43.167Z</time>
      </trkpt>
      <trkpt lat="46.38616" lon="8.04949">
        <ele>2059</ele>
        <time>2021-07-10T14:32:44.168Z</time>
      </trkpt>
      <trkpt lat="46.38616" lon="8.04948">
        <ele>2058</ele>
        <time>2021-07-10T14:32:45.168Z</time>
      </trkpt>
      <trkpt lat="46.38615" lon="8.04947">
        <ele>2057</ele>
        <time>2021-07-10T14:32:46.167Z</time>
      </trkpt>
      <trkpt lat="46.38615" lon="8.04947">
        <ele>2056</ele>
        <time>2021-07-10T14:32:47.167Z</time>
      </trkpt>
      <trkpt lat="46.38615" lon="8.04946">
        <ele>2056</ele>
        <time>2021-07-10T14:32:48.168Z</time>
      </trkpt>
      <trkpt lat="46.38615" lon="8.04946">
        <ele>2055</ele>
        <time>2021-07-10T14:32:49.168Z</time>
      </trkpt>
      <trkpt lat="46.38614" lon="8.04945">
        <ele>2054</ele>
        <time>2021-07-10T14:32:50.168Z</time>
      </trkpt>
      <trkpt lat="46.38613" lon="8.04948">
        <ele>2051</ele>
        <time>2021-07-10T14:32:51.168Z</time>
      </trkpt>
      <trkpt lat="46.38614" lon="8.0495">
        <ele>2051</ele>
        <time>2021-07-10T14:32:52.168Z</time>
      </trkpt>
      <trkpt lat="46.38614" lon="8.04952">
        <ele>2050</ele>
        <time>2021-07-10T14:32:53.167Z</time>
      </trkpt>
      <trkpt lat="46.38614" lon="8.04952">
        <ele>2049</ele>
        <time>2021-07-10T14:32:54.168Z</time>
      </trkpt>
      <trkpt lat="46.38614" lon="8.04951">
        <ele>2048</ele>
        <time>2021-07-10T14:32:55.168Z</time>
      </trkpt>
      <trkpt lat="46.38613" lon="8.0495">
        <ele>2049</ele>
        <time>2021-07-10T14:32:56.167Z</time>
      </trkpt>
      <trkpt lat="46.38612" lon="8.0495">
        <ele>2050</ele>
        <time>2021-07-10T14:32:57.168Z</time>
      </trkpt>
      <trkpt lat="46.38612" lon="8.0495">
        <ele>2051</ele>
        <time>2021-07-10T14:32:58.167Z</time>
      </trkpt>
      <trkpt lat="46.38612" lon="8.04948">
        <ele>2051</ele>
        <time>2021-07-10T14:32:59.168Z</time>
      </trkpt>
      <trkpt lat="46.38612" lon="8.04947">
        <ele>2052</ele>
        <time>2021-07-10T14:33:00.167Z</time>
      </trkpt>
      <trkpt lat="46.38612" lon="8.04946">
        <ele>2052</ele>
        <time>2021-07-10T14:33:01.168Z</time>
      </trkpt>
      <trkpt lat="46.38611" lon="8.04945">
        <ele>2052</ele>
        <time>2021-07-10T14:33:02.168Z</time>
      </trkpt>
      <trkpt lat="46.38612" lon="8.04945">
        <ele>2052</ele>
        <time>2021-07-10T14:33:03.168Z</time>
      </trkpt>
      <trkpt lat="46.38613" lon="8.04949">
        <ele>2051</ele>
        <time>2021-07-10T14:33:04.168Z</time>
      </trkpt>
      <trkpt lat="46.38613" lon="8.04949">
        <ele>2051</ele>
        <time>2021-07-10T14:33:05.168Z</time>
      </trkpt>
      <trkpt lat="46.38612" lon="8.04948">
        <ele>2052</ele>
        <time>2021-07-10T14:33:06.170Z</time>
      </trkpt>
      <trkpt lat="46.38611" lon="8.04948">
        <ele>2052</ele>
        <time>2021-07-10T14:33:07.170Z</time>
      </trkpt>
      <trkpt lat="46.38612" lon="8.04947">
        <ele>2052</ele>
        <time>2021-07-10T14:33:08.169Z</time>
      </trkpt>
      <trkpt lat="46.38612" lon="8.04947">
        <ele>2052</ele>
        <time>2021-07-10T14:33:09.170Z</time>
      </trkpt>
      <trkpt lat="46.38612" lon="8.04947">
        <ele>2051</ele>
        <time>2021-07-10T14:33:10.169Z</time>
      </trkpt>
      <trkpt lat="46.38609" lon="8.04942">
        <ele>2052</ele>
        <time>2021-07-10T14:33:11.169Z</time>
      </trkpt>
      <trkpt lat="46.38609" lon="8.04941">
        <ele>2056</ele>
        <time>2021-07-10T14:33:12.170Z</time>
      </trkpt>
      <trkpt lat="46.38609" lon="8.04941">
        <ele>2057</ele>
        <time>2021-07-10T14:33:13.170Z</time>
      </trkpt>
      <trkpt lat="46.38609" lon="8.04941">
        <ele>2057</ele>
        <time>2021-07-10T14:33:14.169Z</time>
      </trkpt>
      <trkpt lat="46.38608" lon="8.04942">
        <ele>2056</ele>
        <time>2021-07-10T14:33:15.170Z</time>
      </trkpt>
      <trkpt lat="46.38607" lon="8.04942">
        <ele>2056</ele>
        <time>2021-07-10T14:33:16.169Z</time>
      </trkpt>
      <trkpt lat="46.38607" lon="8.04943">
        <ele>2056</ele>
        <time>2021-07-10T14:33:17.169Z</time>
      </trkpt>
      <trkpt lat="46.38607" lon="8.04943">
        <ele>2055</ele>
        <time>2021-07-10T14:33:18.169Z</time>
      </trkpt>
      <trkpt lat="46.38606" lon="8.04944">
        <ele>2055</ele>
        <time>2021-07-10T14:33:19.170Z</time>
      </trkpt>
      <trkpt lat="46.38606" lon="8.04944">
        <ele>2055</ele>
        <time>2021-07-10T14:33:20.170Z</time>
      </trkpt>
      <trkpt lat="46.38606" lon="8.04946">
        <ele>2054</ele>
        <time>2021-07-10T14:33:21.170Z</time>
      </trkpt>
      <trkpt lat="46.38605" lon="8.04947">
        <ele>2053</ele>
        <time>2021-07-10T14:33:22.170Z</time>
      </trkpt>
      <trkpt lat="46.38604" lon="8.04948">
        <ele>2053</ele>
        <time>2021-07-10T14:33:23.169Z</time>
      </trkpt>
      <trkpt lat="46.38604" lon="8.04948">
        <ele>2052</ele>
        <time>2021-07-10T14:33:24.170Z</time>
      </trkpt>
      <trkpt lat="46.38603" lon="8.04948">
        <ele>2051</ele>
        <time>2021-07-10T14:33:25.170Z</time>
      </trkpt>
      <trkpt lat="46.38602" lon="8.04948">
        <ele>2051</ele>
        <time>2021-07-10T14:33:26.170Z</time>
      </trkpt>
      <trkpt lat="46.38601" lon="8.04948">
        <ele>2051</ele>
        <time>2021-07-10T14:33:27.169Z</time>
      </trkpt>
      <trkpt lat="46.386" lon="8.04948">
        <ele>2051</ele>
        <time>2021-07-10T14:33:28.169Z</time>
      </trkpt>
      <trkpt lat="46.38599" lon="8.04949">
        <ele>2051</ele>
        <time>2021-07-10T14:33:29.169Z</time>
      </trkpt>
      <trkpt lat="46.38598" lon="8.0495">
        <ele>2050</ele>
        <time>2021-07-10T14:33:30.169Z</time>
      </trkpt>
      <trkpt lat="46.38597" lon="8.04951">
        <ele>2049</ele>
        <time>2021-07-10T14:33:31.170Z</time>
      </trkpt>
      <trkpt lat="46.38596" lon="8.04952">
        <ele>2049</ele>
        <time>2021-07-10T14:33:32.169Z</time>
      </trkpt>
      <trkpt lat="46.38595" lon="8.04952">
        <ele>2049</ele>
        <time>2021-07-10T14:33:33.169Z</time>
      </trkpt>
      <trkpt lat="46.38594" lon="8.04953">
        <ele>2050</ele>
        <time>2021-07-10T14:33:34.169Z</time>
      </trkpt>
      <trkpt lat="46.38593" lon="8.04954">
        <ele>2050</ele>
        <time>2021-07-10T14:33:35.170Z</time>
      </trkpt>
      <trkpt lat="46.38592" lon="8.04955">
        <ele>2051</ele>
        <time>2021-07-10T14:33:36.170Z</time>
      </trkpt>
      <trkpt lat="46.38591" lon="8.04956">
        <ele>2051</ele>
        <time>2021-07-10T14:33:37.170Z</time>
      </trkpt>
      <trkpt lat="46.3859" lon="8.04957">
        <ele>2051</ele>
        <time>2021-07-10T14:33:38.170Z</time>
      </trkpt>
      <trkpt lat="46.38588" lon="8.04957">
        <ele>2051</ele>
        <time>2021-07-10T14:33:39.170Z</time>
      </trkpt>
      <trkpt lat="46.38586" lon="8.04957">
        <ele>2051</ele>
        <time>2021-07-10T14:33:40.170Z</time>
      </trkpt>
      <trkpt lat="46.38585" lon="8.04958">
        <ele>2051</ele>
        <time>2021-07-10T14:33:41.170Z</time>
      </trkpt>
      <trkpt lat="46.38584" lon="8.0496">
        <ele>2051</ele>
        <time>2021-07-10T14:33:42.170Z</time>
      </trkpt>
      <trkpt lat="46.38583" lon="8.04961">
        <ele>2051</ele>
        <time>2021-07-10T14:33:43.170Z</time>
      </trkpt>
      <trkpt lat="46.38582" lon="8.04961">
        <ele>2050</ele>
        <time>2021-07-10T14:33:44.170Z</time>
      </trkpt>
      <trkpt lat="46.38582" lon="8.0496">
        <ele>2050</ele>
        <time>2021-07-10T14:33:45.169Z</time>
      </trkpt>
      <trkpt lat="46.38582" lon="8.04959">
        <ele>2050</ele>
        <time>2021-07-10T14:33:46.169Z</time>
      </trkpt>
      <trkpt lat="46.38582" lon="8.04958">
        <ele>2051</ele>
        <time>2021-07-10T14:33:47.170Z</time>
      </trkpt>
      <trkpt lat="46.38585" lon="8.04954">
        <ele>2052</ele>
        <time>2021-07-10T14:33:48.169Z</time>
      </trkpt>
      <trkpt lat="46.38585" lon="8.04956">
        <ele>2052</ele>
        <time>2021-07-10T14:33:49.170Z</time>
      </trkpt>
      <trkpt lat="46.38584" lon="8.04957">
        <ele>2052</ele>
        <time>2021-07-10T14:33:50.169Z</time>
      </trkpt>
      <trkpt lat="46.38582" lon="8.04957">
        <ele>2053</ele>
        <time>2021-07-10T14:33:51.170Z</time>
      </trkpt>
      <trkpt lat="46.38582" lon="8.04958">
        <ele>2053</ele>
        <time>2021-07-10T14:33:52.170Z</time>
      </trkpt>
      <trkpt lat="46.38581" lon="8.04961">
        <ele>2053</ele>
        <time>2021-07-10T14:33:53.169Z</time>
      </trkpt>
      <trkpt lat="46.38579" lon="8.04963">
        <ele>2054</ele>
        <time>2021-07-10T14:33:54.170Z</time>
      </trkpt>
      <trkpt lat="46.38578" lon="8.04965">
        <ele>2054</ele>
        <time>2021-07-10T14:34:01.301Z</time>
      </trkpt>
      <trkpt lat="46.38578" lon="8.04966">
        <ele>2055</ele>
        <time>2021-07-10T14:34:02.301Z</time>
      </trkpt>
      <trkpt lat="46.38577" lon="8.04966">
        <ele>2055</ele>
        <time>2021-07-10T14:34:03.301Z</time>
      </trkpt>
      <trkpt lat="46.38576" lon="8.04967">
        <ele>2055</ele>
        <time>2021-07-10T14:34:06.404Z</time>
      </trkpt>
      <trkpt lat="46.38575" lon="8.04967">
        <ele>2056</ele>
        <time>2021-07-10T14:34:08.148Z</time>
      </trkpt>
      <trkpt lat="46.38574" lon="8.04967">
        <ele>2056</ele>
        <time>2021-07-10T14:34:09.148Z</time>
      </trkpt>
      <trkpt lat="46.38574" lon="8.04968">
        <ele>2056</ele>
        <time>2021-07-10T14:34:10.147Z</time>
      </trkpt>
      <trkpt lat="46.38574" lon="8.04969">
        <ele>2056</ele>
        <time>2021-07-10T14:34:11.148Z</time>
      </trkpt>
      <trkpt lat="46.38573" lon="8.04969">
        <ele>2056</ele>
        <time>2021-07-10T14:34:12.148Z</time>
      </trkpt>
      <trkpt lat="46.38573" lon="8.0497">
        <ele>2056</ele>
        <time>2021-07-10T14:34:13.147Z</time>
      </trkpt>
      <trkpt lat="46.38571" lon="8.04972">
        <ele>2056</ele>
        <time>2021-07-10T14:34:14.147Z</time>
      </trkpt>
      <trkpt lat="46.38571" lon="8.04974">
        <ele>2056</ele>
        <time>2021-07-10T14:34:15.147Z</time>
      </trkpt>
      <trkpt lat="46.3857" lon="8.04977">
        <ele>2056</ele>
        <time>2021-07-10T14:34:22.168Z</time>
      </trkpt>
      <trkpt lat="46.38569" lon="8.04979">
        <ele>2056</ele>
        <time>2021-07-10T14:34:23.168Z</time>
      </trkpt>
      <trkpt lat="46.38569" lon="8.0498">
        <ele>2056</ele>
        <time>2021-07-10T14:34:24.169Z</time>
      </trkpt>
      <trkpt lat="46.38568" lon="8.04981">
        <ele>2057</ele>
        <time>2021-07-10T14:34:25.168Z</time>
      </trkpt>
      <trkpt lat="46.38568" lon="8.04982">
        <ele>2057</ele>
        <time>2021-07-10T14:34:26.169Z</time>
      </trkpt>
      <trkpt lat="46.38567" lon="8.04983">
        <ele>2058</ele>
        <time>2021-07-10T14:34:27.169Z</time>
      </trkpt>
      <trkpt lat="46.38568" lon="8.04984">
        <ele>2059</ele>
        <time>2021-07-10T14:34:28.169Z</time>
      </trkpt>
      <trkpt lat="46.38568" lon="8.04985">
        <ele>2059</ele>
        <time>2021-07-10T14:34:29.169Z</time>
      </trkpt>
      <trkpt lat="46.38568" lon="8.04987">
        <ele>2060</ele>
        <time>2021-07-10T14:34:35.294Z</time>
      </trkpt>
      <trkpt lat="46.38569" lon="8.04988">
        <ele>2060</ele>
        <time>2021-07-10T14:34:36.294Z</time>
      </trkpt>
      <trkpt lat="46.38569" lon="8.04989">
        <ele>2060</ele>
        <time>2021-07-10T14:34:40.067Z</time>
      </trkpt>
      <trkpt lat="46.38569" lon="8.0499">
        <ele>2060</ele>
        <time>2021-07-10T14:34:41.067Z</time>
      </trkpt>
      <trkpt lat="46.3857" lon="8.04991">
        <ele>2060</ele>
        <time>2021-07-10T14:34:42.066Z</time>
      </trkpt>
      <trkpt lat="46.3857" lon="8.04992">
        <ele>2061</ele>
        <time>2021-07-10T14:34:43.066Z</time>
      </trkpt>
      <trkpt lat="46.3857" lon="8.04993">
        <ele>2061</ele>
        <time>2021-07-10T14:34:44.066Z</time>
      </trkpt>
      <trkpt lat="46.3857" lon="8.04994">
        <ele>2061</ele>
        <time>2021-07-10T14:34:45.067Z</time>
      </trkpt>
      <trkpt lat="46.3857" lon="8.04995">
        <ele>2062</ele>
        <time>2021-07-10T14:34:46.066Z</time>
      </trkpt>
      <trkpt lat="46.3857" lon="8.04997">
        <ele>2062</ele>
        <time>2021-07-10T14:34:47.067Z</time>
      </trkpt>
      <trkpt lat="46.3857" lon="8.04998">
        <ele>2062</ele>
        <time>2021-07-10T14:34:48.067Z</time>
      </trkpt>
      <trkpt lat="46.38569" lon="8.04999">
        <ele>2063</ele>
        <time>2021-07-10T14:34:49.067Z</time>
      </trkpt>
      <trkpt lat="46.38569" lon="8.05">
        <ele>2063</ele>
        <time>2021-07-10T14:34:50.066Z</time>
      </trkpt>
      <trkpt lat="46.38569" lon="8.05002">
        <ele>2063</ele>
        <time>2021-07-10T14:34:51.067Z</time>
      </trkpt>
      <trkpt lat="46.38569" lon="8.05003">
        <ele>2063</ele>
        <time>2021-07-10T14:34:52.067Z</time>
      </trkpt>
      <trkpt lat="46.38569" lon="8.05004">
        <ele>2063</ele>
        <time>2021-07-10T14:35:00.037Z</time>
      </trkpt>
      <trkpt lat="46.38569" lon="8.05006">
        <ele>2064</ele>
        <time>2021-07-10T14:35:01.036Z</time>
      </trkpt>
      <trkpt lat="46.38569" lon="8.05008">
        <ele>2064</ele>
        <time>2021-07-10T14:35:08.809Z</time>
      </trkpt>
      <trkpt lat="46.38568" lon="8.0501">
        <ele>2065</ele>
        <time>2021-07-10T14:35:09.809Z</time>
      </trkpt>
      <trkpt lat="46.38568" lon="8.05012">
        <ele>2065</ele>
        <time>2021-07-10T14:35:10.809Z</time>
      </trkpt>
      <trkpt lat="46.38568" lon="8.05013">
        <ele>2065</ele>
        <time>2021-07-10T14:35:11.809Z</time>
      </trkpt>
      <trkpt lat="46.38568" lon="8.05015">
        <ele>2065</ele>
        <time>2021-07-10T14:35:21.909Z</time>
      </trkpt>
      <trkpt lat="46.38568" lon="8.05017">
        <ele>2065</ele>
        <time>2021-07-10T14:35:22.908Z</time>
      </trkpt>
      <trkpt lat="46.38569" lon="8.05019">
        <ele>2065</ele>
        <time>2021-07-10T14:35:33.034Z</time>
      </trkpt>
      <trkpt lat="46.38569" lon="8.05021">
        <ele>2065</ele>
        <time>2021-07-10T14:35:34.035Z</time>
      </trkpt>
      <trkpt lat="46.38569" lon="8.05022">
        <ele>2066</ele>
        <time>2021-07-10T14:35:35.035Z</time>
      </trkpt>
      <trkpt lat="46.38569" lon="8.05024">
        <ele>2066</ele>
        <time>2021-07-10T14:35:54.052Z</time>
      </trkpt>
      <trkpt lat="46.38569" lon="8.05025">
        <ele>2066</ele>
        <time>2021-07-10T14:35:55.051Z</time>
      </trkpt>
      <trkpt lat="46.3857" lon="8.05027">
        <ele>2067</ele>
        <time>2021-07-10T14:35:56.052Z</time>
      </trkpt>
      <trkpt lat="46.3857" lon="8.05029">
        <ele>2067</ele>
        <time>2021-07-10T14:36:45.787Z</time>
      </trkpt>
      <trkpt lat="46.3857" lon="8.0503">
        <ele>2068</ele>
        <time>2021-07-10T14:36:46.788Z</time>
      </trkpt>
      <trkpt lat="46.38571" lon="8.05031">
        <ele>2068</ele>
        <time>2021-07-10T14:36:47.788Z</time>
      </trkpt>
      <trkpt lat="46.38571" lon="8.05032">
        <ele>2068</ele>
        <time>2021-07-10T14:36:48.788Z</time>
      </trkpt>
      <trkpt lat="46.38572" lon="8.05034">
        <ele>2069</ele>
        <time>2021-07-10T14:36:49.787Z</time>
      </trkpt>
      <trkpt lat="46.38573" lon="8.05035">
        <ele>2069</ele>
        <time>2021-07-10T14:36:50.787Z</time>
      </trkpt>
      <trkpt lat="46.38574" lon="8.05037">
        <ele>2069</ele>
        <time>2021-07-10T14:36:51.788Z</time>
      </trkpt>
      <trkpt lat="46.38574" lon="8.05038">
        <ele>2069</ele>
        <time>2021-07-10T14:36:52.788Z</time>
      </trkpt>
      <trkpt lat="46.38575" lon="8.0504">
        <ele>2068</ele>
        <time>2021-07-10T14:36:53.788Z</time>
      </trkpt>
      <trkpt lat="46.38576" lon="8.05041">
        <ele>2068</ele>
        <time>2021-07-10T14:36:54.787Z</time>
      </trkpt>
      <trkpt lat="46.38577" lon="8.05042">
        <ele>2068</ele>
        <time>2021-07-10T14:36:55.788Z</time>
      </trkpt>
      <trkpt lat="46.38578" lon="8.05043">
        <ele>2068</ele>
        <time>2021-07-10T14:36:56.788Z</time>
      </trkpt>
      <trkpt lat="46.38578" lon="8.05044">
        <ele>2068</ele>
        <time>2021-07-10T14:36:57.788Z</time>
      </trkpt>
      <trkpt lat="46.38579" lon="8.05046">
        <ele>2068</ele>
        <time>2021-07-10T14:36:58.787Z</time>
      </trkpt>
      <trkpt lat="46.38579" lon="8.05047">
        <ele>2068</ele>
        <time>2021-07-10T14:36:59.788Z</time>
      </trkpt>
      <trkpt lat="46.3858" lon="8.05048">
        <ele>2067</ele>
        <time>2021-07-10T14:37:00.788Z</time>
      </trkpt>
      <trkpt lat="46.3858" lon="8.05048">
        <ele>2067</ele>
        <time>2021-07-10T14:37:01.788Z</time>
      </trkpt>
      <trkpt lat="46.38581" lon="8.05048">
        <ele>2067</ele>
        <time>2021-07-10T14:37:02.788Z</time>
      </trkpt>
      <trkpt lat="46.38581" lon="8.05049">
        <ele>2067</ele>
        <time>2021-07-10T14:37:03.788Z</time>
      </trkpt>
      <trkpt lat="46.38582" lon="8.05049">
        <ele>2067</ele>
        <time>2021-07-10T14:37:04.788Z</time>
      </trkpt>
      <trkpt lat="46.38582" lon="8.0505">
        <ele>2067</ele>
        <time>2021-07-10T14:37:05.788Z</time>
      </trkpt>
      <trkpt lat="46.38582" lon="8.0505">
        <ele>2067</ele>
        <time>2021-07-10T14:37:06.788Z</time>
      </trkpt>
      <trkpt lat="46.38582" lon="8.0505">
        <ele>2067</ele>
        <time>2021-07-10T14:37:07.788Z</time>
      </trkpt>
      <trkpt lat="46.38582" lon="8.05049">
        <ele>2067</ele>
        <time>2021-07-10T14:37:08.788Z</time>
      </trkpt>
      <trkpt lat="46.38582" lon="8.05048">
        <ele>2067</ele>
        <time>2021-07-10T14:37:09.787Z</time>
      </trkpt>
      <trkpt lat="46.38583" lon="8.05048">
        <ele>2067</ele>
        <time>2021-07-10T14:37:10.788Z</time>
      </trkpt>
      <trkpt lat="46.38583" lon="8.05047">
        <ele>2067</ele>
        <time>2021-07-10T14:37:11.788Z</time>
      </trkpt>
      <trkpt lat="46.38584" lon="8.05047">
        <ele>2067</ele>
        <time>2021-07-10T14:37:12.788Z</time>
      </trkpt>
      <trkpt lat="46.38585" lon="8.05047">
        <ele>2067</ele>
        <time>2021-07-10T14:37:13.788Z</time>
      </trkpt>
      <trkpt lat="46.38586" lon="8.05047">
        <ele>2067</ele>
        <time>2021-07-10T14:37:14.787Z</time>
      </trkpt>
      <trkpt lat="46.38586" lon="8.05048">
        <ele>2066</ele>
        <time>2021-07-10T14:37:15.788Z</time>
      </trkpt>
      <trkpt lat="46.38586" lon="8.05052">
        <ele>2064</ele>
        <time>2021-07-10T14:37:16.788Z</time>
      </trkpt>
      <trkpt lat="46.38586" lon="8.05053">
        <ele>2063</ele>
        <time>2021-07-10T14:37:17.788Z</time>
      </trkpt>
      <trkpt lat="46.38587" lon="8.05054">
        <ele>2063</ele>
        <time>2021-07-10T14:37:18.788Z</time>
      </trkpt>
      <trkpt lat="46.38587" lon="8.05055">
        <ele>2062</ele>
        <time>2021-07-10T14:37:19.787Z</time>
      </trkpt>
      <trkpt lat="46.38587" lon="8.05056">
        <ele>2062</ele>
        <time>2021-07-10T14:37:20.788Z</time>
      </trkpt>
      <trkpt lat="46.38587" lon="8.05057">
        <ele>2062</ele>
        <time>2021-07-10T14:37:21.788Z</time>
      </trkpt>
      <trkpt lat="46.38587" lon="8.05057">
        <ele>2062</ele>
        <time>2021-07-10T14:37:22.788Z</time>
      </trkpt>
      <trkpt lat="46.38587" lon="8.05058">
        <ele>2063</ele>
        <time>2021-07-10T14:37:23.788Z</time>
      </trkpt>
      <trkpt lat="46.38587" lon="8.0506">
        <ele>2063</ele>
        <time>2021-07-10T14:37:24.787Z</time>
      </trkpt>
      <trkpt lat="46.38587" lon="8.05061">
        <ele>2064</ele>
        <time>2021-07-10T14:37:25.788Z</time>
      </trkpt>
      <trkpt lat="46.38588" lon="8.05063">
        <ele>2064</ele>
        <time>2021-07-10T14:37:26.787Z</time>
      </trkpt>
      <trkpt lat="46.38588" lon="8.05065">
        <ele>2064</ele>
        <time>2021-07-10T14:37:27.787Z</time>
      </trkpt>
      <trkpt lat="46.38588" lon="8.05066">
        <ele>2065</ele>
        <time>2021-07-10T14:37:28.788Z</time>
      </trkpt>
      <trkpt lat="46.38589" lon="8.05068">
        <ele>2065</ele>
        <time>2021-07-10T14:37:29.788Z</time>
      </trkpt>
      <trkpt lat="46.38589" lon="8.05069">
        <ele>2065</ele>
        <time>2021-07-10T14:37:30.787Z</time>
      </trkpt>
      <trkpt lat="46.3859" lon="8.05071">
        <ele>2065</ele>
        <time>2021-07-10T14:37:31.788Z</time>
      </trkpt>
      <trkpt lat="46.3859" lon="8.05072">
        <ele>2065</ele>
        <time>2021-07-10T14:37:32.787Z</time>
      </trkpt>
      <trkpt lat="46.38591" lon="8.05073">
        <ele>2065</ele>
        <time>2021-07-10T14:37:33.788Z</time>
      </trkpt>
      <trkpt lat="46.38592" lon="8.05075">
        <ele>2064</ele>
        <time>2021-07-10T14:37:34.787Z</time>
      </trkpt>
      <trkpt lat="46.38592" lon="8.05077">
        <ele>2064</ele>
        <time>2021-07-10T14:37:35.788Z</time>
      </trkpt>
      <trkpt lat="46.38593" lon="8.05078">
        <ele>2064</ele>
        <time>2021-07-10T14:37:36.788Z</time>
      </trkpt>
      <trkpt lat="46.38593" lon="8.0508">
        <ele>2065</ele>
        <time>2021-07-10T14:37:37.787Z</time>
      </trkpt>
      <trkpt lat="46.38593" lon="8.05081">
        <ele>2065</ele>
        <time>2021-07-10T14:37:38.787Z</time>
      </trkpt>
      <trkpt lat="46.38593" lon="8.05083">
        <ele>2065</ele>
        <time>2021-07-10T14:37:39.787Z</time>
      </trkpt>
      <trkpt lat="46.38593" lon="8.05084">
        <ele>2066</ele>
        <time>2021-07-10T14:37:40.788Z</time>
      </trkpt>
      <trkpt lat="46.38593" lon="8.05085">
        <ele>2066</ele>
        <time>2021-07-10T14:37:41.788Z</time>
      </trkpt>
      <trkpt lat="46.38594" lon="8.05087">
        <ele>2066</ele>
        <time>2021-07-10T14:37:42.787Z</time>
      </trkpt>
      <trkpt lat="46.38594" lon="8.05088">
        <ele>2067</ele>
        <time>2021-07-10T14:37:43.787Z</time>
      </trkpt>
      <trkpt lat="46.38595" lon="8.05089">
        <ele>2067</ele>
        <time>2021-07-10T14:37:44.788Z</time>
      </trkpt>
      <trkpt lat="46.38596" lon="8.05091">
        <ele>2067</ele>
        <time>2021-07-10T14:37:45.788Z</time>
      </trkpt>
      <trkpt lat="46.38596" lon="8.05093">
        <ele>2067</ele>
        <time>2021-07-10T14:37:46.788Z</time>
      </trkpt>
      <trkpt lat="46.38597" lon="8.05095">
        <ele>2067</ele>
        <time>2021-07-10T14:37:47.788Z</time>
      </trkpt>
      <trkpt lat="46.38598" lon="8.05097">
        <ele>2067</ele>
        <time>2021-07-10T14:37:48.787Z</time>
      </trkpt>
      <trkpt lat="46.38598" lon="8.05099">
        <ele>2067</ele>
        <time>2021-07-10T14:37:49.788Z</time>
      </trkpt>
      <trkpt lat="46.38599" lon="8.051">
        <ele>2067</ele>
        <time>2021-07-10T14:37:50.788Z</time>
      </trkpt>
      <trkpt lat="46.386" lon="8.05102">
        <ele>2066</ele>
        <time>2021-07-10T14:37:51.787Z</time>
      </trkpt>
      <trkpt lat="46.386" lon="8.05103">
        <ele>2066</ele>
        <time>2021-07-10T14:37:52.788Z</time>
      </trkpt>
      <trkpt lat="46.38601" lon="8.05105">
        <ele>2066</ele>
        <time>2021-07-10T14:37:53.788Z</time>
      </trkpt>
      <trkpt lat="46.38601" lon="8.05106">
        <ele>2066</ele>
        <time>2021-07-10T14:37:54.788Z</time>
      </trkpt>
      <trkpt lat="46.38602" lon="8.05107">
        <ele>2066</ele>
        <time>2021-07-10T14:37:55.788Z</time>
      </trkpt>
      <trkpt lat="46.38603" lon="8.05108">
        <ele>2066</ele>
        <time>2021-07-10T14:37:56.788Z</time>
      </trkpt>
      <trkpt lat="46.38604" lon="8.0511">
        <ele>2066</ele>
        <time>2021-07-10T14:37:57.787Z</time>
      </trkpt>
      <trkpt lat="46.38605" lon="8.05111">
        <ele>2066</ele>
        <time>2021-07-10T14:37:58.788Z</time>
      </trkpt>
      <trkpt lat="46.38605" lon="8.05112">
        <ele>2066</ele>
        <time>2021-07-10T14:37:59.788Z</time>
      </trkpt>
      <trkpt lat="46.38606" lon="8.05114">
        <ele>2067</ele>
        <time>2021-07-10T14:38:00.787Z</time>
      </trkpt>
      <trkpt lat="46.38606" lon="8.05116">
        <ele>2067</ele>
        <time>2021-07-10T14:38:01.788Z</time>
      </trkpt>
      <trkpt lat="46.38607" lon="8.05118">
        <ele>2066</ele>
        <time>2021-07-10T14:38:02.788Z</time>
      </trkpt>
      <trkpt lat="46.38607" lon="8.0512">
        <ele>2066</ele>
        <time>2021-07-10T14:38:03.787Z</time>
      </trkpt>
      <trkpt lat="46.38608" lon="8.05121">
        <ele>2066</ele>
        <time>2021-07-10T14:38:04.788Z</time>
      </trkpt>
      <trkpt lat="46.38608" lon="8.05123">
        <ele>2066</ele>
        <time>2021-07-10T14:38:05.788Z</time>
      </trkpt>
      <trkpt lat="46.38608" lon="8.05125">
        <ele>2067</ele>
        <time>2021-07-10T14:38:06.788Z</time>
      </trkpt>
      <trkpt lat="46.38609" lon="8.05126">
        <ele>2066</ele>
        <time>2021-07-10T14:38:07.788Z</time>
      </trkpt>
      <trkpt lat="46.38609" lon="8.05128">
        <ele>2066</ele>
        <time>2021-07-10T14:38:08.787Z</time>
      </trkpt>
      <trkpt lat="46.3861" lon="8.0513">
        <ele>2066</ele>
        <time>2021-07-10T14:38:09.788Z</time>
      </trkpt>
      <trkpt lat="46.3861" lon="8.05131">
        <ele>2066</ele>
        <time>2021-07-10T14:38:10.788Z</time>
      </trkpt>
      <trkpt lat="46.38611" lon="8.05132">
        <ele>2065</ele>
        <time>2021-07-10T14:38:11.788Z</time>
      </trkpt>
      <trkpt lat="46.38611" lon="8.05134">
        <ele>2065</ele>
        <time>2021-07-10T14:38:12.787Z</time>
      </trkpt>
      <trkpt lat="46.38611" lon="8.05135">
        <ele>2065</ele>
        <time>2021-07-10T14:38:13.787Z</time>
      </trkpt>
      <trkpt lat="46.38611" lon="8.05137">
        <ele>2065</ele>
        <time>2021-07-10T14:38:14.788Z</time>
      </trkpt>
      <trkpt lat="46.38611" lon="8.05138">
        <ele>2064</ele>
        <time>2021-07-10T14:38:15.788Z</time>
      </trkpt>
      <trkpt lat="46.38611" lon="8.0514">
        <ele>2064</ele>
        <time>2021-07-10T14:38:16.788Z</time>
      </trkpt>
      <trkpt lat="46.38612" lon="8.05141">
        <ele>2063</ele>
        <time>2021-07-10T14:38:17.788Z</time>
      </trkpt>
      <trkpt lat="46.38612" lon="8.05143">
        <ele>2063</ele>
        <time>2021-07-10T14:38:18.788Z</time>
      </trkpt>
      <trkpt lat="46.38613" lon="8.05145">
        <ele>2063</ele>
        <time>2021-07-10T14:38:19.788Z</time>
      </trkpt>
      <trkpt lat="46.38613" lon="8.05147">
        <ele>2063</ele>
        <time>2021-07-10T14:38:20.788Z</time>
      </trkpt>
      <trkpt lat="46.38613" lon="8.05148">
        <ele>2063</ele>
        <time>2021-07-10T14:38:21.787Z</time>
      </trkpt>
      <trkpt lat="46.38614" lon="8.05149">
        <ele>2062</ele>
        <time>2021-07-10T14:38:22.787Z</time>
      </trkpt>
      <trkpt lat="46.38614" lon="8.0515">
        <ele>2062</ele>
        <time>2021-07-10T14:38:23.787Z</time>
      </trkpt>
      <trkpt lat="46.38615" lon="8.05152">
        <ele>2062</ele>
        <time>2021-07-10T14:38:24.788Z</time>
      </trkpt>
      <trkpt lat="46.38615" lon="8.05153">
        <ele>2062</ele>
        <time>2021-07-10T14:38:25.787Z</time>
      </trkpt>
      <trkpt lat="46.38615" lon="8.05155">
        <ele>2062</ele>
        <time>2021-07-10T14:38:26.787Z</time>
      </trkpt>
      <trkpt lat="46.38615" lon="8.05157">
        <ele>2062</ele>
        <time>2021-07-10T14:38:27.787Z</time>
      </trkpt>
      <trkpt lat="46.38615" lon="8.05158">
        <ele>2062</ele>
        <time>2021-07-10T14:38:28.788Z</time>
      </trkpt>
      <trkpt lat="46.38616" lon="8.0516">
        <ele>2061</ele>
        <time>2021-07-10T14:38:29.787Z</time>
      </trkpt>
      <trkpt lat="46.38616" lon="8.05161">
        <ele>2061</ele>
        <time>2021-07-10T14:38:30.787Z</time>
      </trkpt>
      <trkpt lat="46.38617" lon="8.05163">
        <ele>2060</ele>
        <time>2021-07-10T14:38:31.787Z</time>
      </trkpt>
      <trkpt lat="46.38617" lon="8.05164">
        <ele>2060</ele>
        <time>2021-07-10T14:38:32.788Z</time>
      </trkpt>
      <trkpt lat="46.38618" lon="8.05166">
        <ele>2059</ele>
        <time>2021-07-10T14:38:33.788Z</time>
      </trkpt>
      <trkpt lat="46.38618" lon="8.05167">
        <ele>2059</ele>
        <time>2021-07-10T14:38:34.788Z</time>
      </trkpt>
      <trkpt lat="46.38619" lon="8.05169">
        <ele>2058</ele>
        <time>2021-07-10T14:38:35.788Z</time>
      </trkpt>
      <trkpt lat="46.38619" lon="8.05171">
        <ele>2058</ele>
        <time>2021-07-10T14:38:36.787Z</time>
      </trkpt>
      <trkpt lat="46.3862" lon="8.05173">
        <ele>2057</ele>
        <time>2021-07-10T14:38:37.788Z</time>
      </trkpt>
      <trkpt lat="46.3862" lon="8.05174">
        <ele>2056</ele>
        <time>2021-07-10T14:38:38.787Z</time>
      </trkpt>
      <trkpt lat="46.38621" lon="8.05176">
        <ele>2056</ele>
        <time>2021-07-10T14:39:00.948Z</time>
      </trkpt>
      <trkpt lat="46.38622" lon="8.05179">
        <ele>2055</ele>
        <time>2021-07-10T14:39:01.949Z</time>
      </trkpt>
      <trkpt lat="46.38622" lon="8.05181">
        <ele>2054</ele>
        <time>2021-07-10T14:39:02.949Z</time>
      </trkpt>
      <trkpt lat="46.38623" lon="8.05183">
        <ele>2053</ele>
        <time>2021-07-10T14:39:03.949Z</time>
      </trkpt>
      <trkpt lat="46.38623" lon="8.05185">
        <ele>2053</ele>
        <time>2021-07-10T14:39:04.949Z</time>
      </trkpt>
      <trkpt lat="46.38624" lon="8.05187">
        <ele>2052</ele>
        <time>2021-07-10T14:39:05.949Z</time>
      </trkpt>
      <trkpt lat="46.38625" lon="8.05189">
        <ele>2052</ele>
        <time>2021-07-10T14:39:06.949Z</time>
      </trkpt>
      <trkpt lat="46.38625" lon="8.05191">
        <ele>2052</ele>
        <time>2021-07-10T14:39:07.949Z</time>
      </trkpt>
      <trkpt lat="46.38626" lon="8.05193">
        <ele>2052</ele>
        <time>2021-07-10T14:39:08.948Z</time>
      </trkpt>
      <trkpt lat="46.38627" lon="8.05194">
        <ele>2052</ele>
        <time>2021-07-10T14:39:09.949Z</time>
      </trkpt>
      <trkpt lat="46.38627" lon="8.05196">
        <ele>2051</ele>
        <time>2021-07-10T14:39:10.949Z</time>
      </trkpt>
      <trkpt lat="46.38627" lon="8.05197">
        <ele>2050</ele>
        <time>2021-07-10T14:39:11.949Z</time>
      </trkpt>
      <trkpt lat="46.38627" lon="8.05198">
        <ele>2049</ele>
        <time>2021-07-10T14:39:12.949Z</time>
      </trkpt>
      <trkpt lat="46.38627" lon="8.052">
        <ele>2049</ele>
        <time>2021-07-10T14:39:47.938Z</time>
      </trkpt>
      <trkpt lat="46.38627" lon="8.05202">
        <ele>2048</ele>
        <time>2021-07-10T14:39:48.937Z</time>
      </trkpt>
      <trkpt lat="46.38627" lon="8.05203">
        <ele>2048</ele>
        <time>2021-07-10T14:39:49.937Z</time>
      </trkpt>
      <trkpt lat="46.38627" lon="8.05204">
        <ele>2047</ele>
        <time>2021-07-10T14:39:50.938Z</time>
      </trkpt>
      <trkpt lat="46.38628" lon="8.05206">
        <ele>2046</ele>
        <time>2021-07-10T14:39:51.938Z</time>
      </trkpt>
      <trkpt lat="46.38628" lon="8.05209">
        <ele>2045</ele>
        <time>2021-07-10T14:39:52.938Z</time>
      </trkpt>
      <trkpt lat="46.38628" lon="8.0521">
        <ele>2045</ele>
        <time>2021-07-10T14:39:53.938Z</time>
      </trkpt>
      <trkpt lat="46.38628" lon="8.05211">
        <ele>2045</ele>
        <time>2021-07-10T14:39:54.937Z</time>
      </trkpt>
      <trkpt lat="46.38629" lon="8.05213">
        <ele>2045</ele>
        <time>2021-07-10T14:39:55.938Z</time>
      </trkpt>
      <trkpt lat="46.38629" lon="8.05214">
        <ele>2044</ele>
        <time>2021-07-10T14:39:56.938Z</time>
      </trkpt>
      <trkpt lat="46.3863" lon="8.05216">
        <ele>2044</ele>
        <time>2021-07-10T14:39:57.938Z</time>
      </trkpt>
      <trkpt lat="46.3863" lon="8.05218">
        <ele>2044</ele>
        <time>2021-07-10T14:39:58.938Z</time>
      </trkpt>
      <trkpt lat="46.38631" lon="8.05219">
        <ele>2045</ele>
        <time>2021-07-10T14:39:59.938Z</time>
      </trkpt>
      <trkpt lat="46.38631" lon="8.0522">
        <ele>2044</ele>
        <time>2021-07-10T14:40:00.938Z</time>
      </trkpt>
      <trkpt lat="46.38631" lon="8.05222">
        <ele>2044</ele>
        <time>2021-07-10T14:40:01.938Z</time>
      </trkpt>
      <trkpt lat="46.38632" lon="8.05223">
        <ele>2043</ele>
        <time>2021-07-10T14:40:02.938Z</time>
      </trkpt>
      <trkpt lat="46.38632" lon="8.05225">
        <ele>2043</ele>
        <time>2021-07-10T14:40:03.938Z</time>
      </trkpt>
      <trkpt lat="46.38632" lon="8.05227">
        <ele>2042</ele>
        <time>2021-07-10T14:40:04.937Z</time>
      </trkpt>
      <trkpt lat="46.38632" lon="8.0523">
        <ele>2042</ele>
        <time>2021-07-10T14:40:05.938Z</time>
      </trkpt>
      <trkpt lat="46.38632" lon="8.05232">
        <ele>2042</ele>
        <time>2021-07-10T14:40:06.937Z</time>
      </trkpt>
      <trkpt lat="46.38632" lon="8.05233">
        <ele>2042</ele>
        <time>2021-07-10T14:40:07.938Z</time>
      </trkpt>
      <trkpt lat="46.38632" lon="8.05235">
        <ele>2042</ele>
        <time>2021-07-10T14:40:08.938Z</time>
      </trkpt>
      <trkpt lat="46.38633" lon="8.05237">
        <ele>2041</ele>
        <time>2021-07-10T14:40:09.938Z</time>
      </trkpt>
      <trkpt lat="46.38633" lon="8.05238">
        <ele>2041</ele>
        <time>2021-07-10T14:40:10.938Z</time>
      </trkpt>
      <trkpt lat="46.38634" lon="8.0524">
        <ele>2041</ele>
        <time>2021-07-10T14:40:11.938Z</time>
      </trkpt>
      <trkpt lat="46.38634" lon="8.05242">
        <ele>2041</ele>
        <time>2021-07-10T14:40:12.938Z</time>
      </trkpt>
      <trkpt lat="46.38634" lon="8.05243">
        <ele>2040</ele>
        <time>2021-07-10T14:40:13.938Z</time>
      </trkpt>
      <trkpt lat="46.38634" lon="8.05245">
        <ele>2040</ele>
        <time>2021-07-10T14:40:14.937Z</time>
      </trkpt>
      <trkpt lat="46.38634" lon="8.05247">
        <ele>2040</ele>
        <time>2021-07-10T14:40:15.938Z</time>
      </trkpt>
      <trkpt lat="46.38635" lon="8.05248">
        <ele>2040</ele>
        <time>2021-07-10T14:40:16.937Z</time>
      </trkpt>
      <trkpt lat="46.38635" lon="8.0525">
        <ele>2040</ele>
        <time>2021-07-10T14:40:17.938Z</time>
      </trkpt>
      <trkpt lat="46.38635" lon="8.05252">
        <ele>2040</ele>
        <time>2021-07-10T14:40:18.938Z</time>
      </trkpt>
      <trkpt lat="46.38636" lon="8.05254">
        <ele>2040</ele>
        <time>2021-07-10T14:40:19.937Z</time>
      </trkpt>
      <trkpt lat="46.38636" lon="8.05255">
        <ele>2039</ele>
        <time>2021-07-10T14:40:20.938Z</time>
      </trkpt>
      <trkpt lat="46.38636" lon="8.05256">
        <ele>2039</ele>
        <time>2021-07-10T14:40:25.066Z</time>
      </trkpt>
      <trkpt lat="46.38637" lon="8.05257">
        <ele>2039</ele>
        <time>2021-07-10T14:40:26.066Z</time>
      </trkpt>
      <trkpt lat="46.38637" lon="8.05259">
        <ele>2040</ele>
        <time>2021-07-10T14:40:27.066Z</time>
      </trkpt>
      <trkpt lat="46.38637" lon="8.0526">
        <ele>2040</ele>
        <time>2021-07-10T14:40:28.066Z</time>
      </trkpt>
      <trkpt lat="46.38638" lon="8.05262">
        <ele>2040</ele>
        <time>2021-07-10T14:40:29.066Z</time>
      </trkpt>
      <trkpt lat="46.38638" lon="8.05263">
        <ele>2040</ele>
        <time>2021-07-10T14:40:30.066Z</time>
      </trkpt>
      <trkpt lat="46.38638" lon="8.05265">
        <ele>2040</ele>
        <time>2021-07-10T14:40:31.065Z</time>
      </trkpt>
      <trkpt lat="46.38638" lon="8.05266">
        <ele>2040</ele>
        <time>2021-07-10T14:40:32.066Z</time>
      </trkpt>
      <trkpt lat="46.38638" lon="8.05268">
        <ele>2039</ele>
        <time>2021-07-10T14:40:33.066Z</time>
      </trkpt>
      <trkpt lat="46.38638" lon="8.0527">
        <ele>2038</ele>
        <time>2021-07-10T14:40:34.066Z</time>
      </trkpt>
      <trkpt lat="46.38638" lon="8.05272">
        <ele>2038</ele>
        <time>2021-07-10T14:40:35.066Z</time>
      </trkpt>
      <trkpt lat="46.38638" lon="8.05274">
        <ele>2037</ele>
        <time>2021-07-10T14:40:36.065Z</time>
      </trkpt>
      <trkpt lat="46.38637" lon="8.05276">
        <ele>2037</ele>
        <time>2021-07-10T14:40:37.066Z</time>
      </trkpt>
      <trkpt lat="46.38637" lon="8.05278">
        <ele>2036</ele>
        <time>2021-07-10T14:40:38.066Z</time>
      </trkpt>
      <trkpt lat="46.38637" lon="8.0528">
        <ele>2036</ele>
        <time>2021-07-10T14:40:39.065Z</time>
      </trkpt>
      <trkpt lat="46.38637" lon="8.05282">
        <ele>2035</ele>
        <time>2021-07-10T14:40:40.065Z</time>
      </trkpt>
      <trkpt lat="46.38637" lon="8.05284">
        <ele>2035</ele>
        <time>2021-07-10T14:40:41.066Z</time>
      </trkpt>
      <trkpt lat="46.38636" lon="8.05285">
        <ele>2034</ele>
        <time>2021-07-10T14:40:42.066Z</time>
      </trkpt>
      <trkpt lat="46.38636" lon="8.05287">
        <ele>2034</ele>
        <time>2021-07-10T14:40:43.066Z</time>
      </trkpt>
      <trkpt lat="46.38636" lon="8.05289">
        <ele>2034</ele>
        <time>2021-07-10T14:40:44.065Z</time>
      </trkpt>
      <trkpt lat="46.38636" lon="8.05291">
        <ele>2033</ele>
        <time>2021-07-10T14:40:45.066Z</time>
      </trkpt>
      <trkpt lat="46.38636" lon="8.05293">
        <ele>2033</ele>
        <time>2021-07-10T14:40:46.065Z</time>
      </trkpt>
      <trkpt lat="46.38636" lon="8.05294">
        <ele>2033</ele>
        <time>2021-07-10T14:40:47.065Z</time>
      </trkpt>
      <trkpt lat="46.38636" lon="8.05296">
        <ele>2032</ele>
        <time>2021-07-10T14:40:48.066Z</time>
      </trkpt>
      <trkpt lat="46.38636" lon="8.05298">
        <ele>2032</ele>
        <time>2021-07-10T14:40:49.066Z</time>
      </trkpt>
      <trkpt lat="46.38636" lon="8.053">
        <ele>2032</ele>
        <time>2021-07-10T14:40:50.066Z</time>
      </trkpt>
      <trkpt lat="46.38636" lon="8.05302">
        <ele>2032</ele>
        <time>2021-07-10T14:40:51.065Z</time>
      </trkpt>
      <trkpt lat="46.38635" lon="8.05304">
        <ele>2032</ele>
        <time>2021-07-10T14:40:52.065Z</time>
      </trkpt>
      <trkpt lat="46.38635" lon="8.05307">
        <ele>2032</ele>
        <time>2021-07-10T14:40:53.066Z</time>
      </trkpt>
      <trkpt lat="46.38635" lon="8.05309">
        <ele>2032</ele>
        <time>2021-07-10T14:40:54.065Z</time>
      </trkpt>
      <trkpt lat="46.38635" lon="8.05311">
        <ele>2032</ele>
        <time>2021-07-10T14:40:55.065Z</time>
      </trkpt>
      <trkpt lat="46.38635" lon="8.05313">
        <ele>2032</ele>
        <time>2021-07-10T14:40:56.065Z</time>
      </trkpt>
      <trkpt lat="46.38635" lon="8.05316">
        <ele>2032</ele>
        <time>2021-07-10T14:40:57.065Z</time>
      </trkpt>
      <trkpt lat="46.38635" lon="8.05318">
        <ele>2031</ele>
        <time>2021-07-10T14:40:58.065Z</time>
      </trkpt>
      <trkpt lat="46.38635" lon="8.0532">
        <ele>2031</ele>
        <time>2021-07-10T14:41:06.044Z</time>
      </trkpt>
      <trkpt lat="46.38635" lon="8.05321">
        <ele>2030</ele>
        <time>2021-07-10T14:41:07.043Z</time>
      </trkpt>
      <trkpt lat="46.38635" lon="8.05323">
        <ele>2030</ele>
        <time>2021-07-10T14:41:08.043Z</time>
      </trkpt>
      <trkpt lat="46.38635" lon="8.05324">
        <ele>2030</ele>
        <time>2021-07-10T14:41:19.159Z</time>
      </trkpt>
      <trkpt lat="46.38636" lon="8.05326">
        <ele>2030</ele>
        <time>2021-07-10T14:41:20.158Z</time>
      </trkpt>
      <trkpt lat="46.38636" lon="8.05328">
        <ele>2031</ele>
        <time>2021-07-10T14:41:21.159Z</time>
      </trkpt>
      <trkpt lat="46.38637" lon="8.0533">
        <ele>2031</ele>
        <time>2021-07-10T14:41:22.159Z</time>
      </trkpt>
      <trkpt lat="46.38637" lon="8.05332">
        <ele>2031</ele>
        <time>2021-07-10T14:41:23.159Z</time>
      </trkpt>
      <trkpt lat="46.38638" lon="8.05334">
        <ele>2032</ele>
        <time>2021-07-10T14:41:24.159Z</time>
      </trkpt>
      <trkpt lat="46.38639" lon="8.05336">
        <ele>2032</ele>
        <time>2021-07-10T14:41:25.158Z</time>
      </trkpt>
      <trkpt lat="46.38639" lon="8.05338">
        <ele>2032</ele>
        <time>2021-07-10T14:41:26.159Z</time>
      </trkpt>
      <trkpt lat="46.3864" lon="8.0534">
        <ele>2032</ele>
        <time>2021-07-10T14:41:27.159Z</time>
      </trkpt>
      <trkpt lat="46.38641" lon="8.05341">
        <ele>2031</ele>
        <time>2021-07-10T14:41:28.159Z</time>
      </trkpt>
      <trkpt lat="46.38642" lon="8.05342">
        <ele>2031</ele>
        <time>2021-07-10T14:41:29.158Z</time>
      </trkpt>
      <trkpt lat="46.38643" lon="8.05343">
        <ele>2030</ele>
        <time>2021-07-10T14:41:30.158Z</time>
      </trkpt>
      <trkpt lat="46.38643" lon="8.05344">
        <ele>2030</ele>
        <time>2021-07-10T14:41:31.159Z</time>
      </trkpt>
      <trkpt lat="46.38644" lon="8.05345">
        <ele>2030</ele>
        <time>2021-07-10T14:41:32.159Z</time>
      </trkpt>
      <trkpt lat="46.38645" lon="8.05346">
        <ele>2029</ele>
        <time>2021-07-10T14:41:33.159Z</time>
      </trkpt>
      <trkpt lat="46.38645" lon="8.05348">
        <ele>2029</ele>
        <time>2021-07-10T14:41:34.158Z</time>
      </trkpt>
      <trkpt lat="46.38646" lon="8.05349">
        <ele>2030</ele>
        <time>2021-07-10T14:41:35.159Z</time>
      </trkpt>
      <trkpt lat="46.38647" lon="8.05351">
        <ele>2030</ele>
        <time>2021-07-10T14:41:36.159Z</time>
      </trkpt>
      <trkpt lat="46.38648" lon="8.05353">
        <ele>2030</ele>
        <time>2021-07-10T14:41:37.158Z</time>
      </trkpt>
      <trkpt lat="46.38648" lon="8.05355">
        <ele>2030</ele>
        <time>2021-07-10T14:41:38.158Z</time>
      </trkpt>
      <trkpt lat="46.38649" lon="8.05358">
        <ele>2030</ele>
        <time>2021-07-10T14:41:39.158Z</time>
      </trkpt>
      <trkpt lat="46.3865" lon="8.0536">
        <ele>2030</ele>
        <time>2021-07-10T14:41:40.158Z</time>
      </trkpt>
      <trkpt lat="46.38651" lon="8.05362">
        <ele>2030</ele>
        <time>2021-07-10T14:41:41.158Z</time>
      </trkpt>
      <trkpt lat="46.38652" lon="8.05364">
        <ele>2030</ele>
        <time>2021-07-10T14:41:42.158Z</time>
      </trkpt>
      <trkpt lat="46.38653" lon="8.05365">
        <ele>2029</ele>
        <time>2021-07-10T14:41:43.159Z</time>
      </trkpt>
      <trkpt lat="46.38653" lon="8.05367">
        <ele>2029</ele>
        <time>2021-07-10T14:41:44.159Z</time>
      </trkpt>
      <trkpt lat="46.38654" lon="8.05369">
        <ele>2029</ele>
        <time>2021-07-10T14:41:45.158Z</time>
      </trkpt>
      <trkpt lat="46.38654" lon="8.05371">
        <ele>2028</ele>
        <time>2021-07-10T14:41:46.159Z</time>
      </trkpt>
      <trkpt lat="46.38655" lon="8.05373">
        <ele>2029</ele>
        <time>2021-07-10T14:41:47.159Z</time>
      </trkpt>
      <trkpt lat="46.38655" lon="8.05375">
        <ele>2029</ele>
        <time>2021-07-10T14:41:48.159Z</time>
      </trkpt>
      <trkpt lat="46.38655" lon="8.05377">
        <ele>2029</ele>
        <time>2021-07-10T14:41:49.158Z</time>
      </trkpt>
      <trkpt lat="46.38656" lon="8.05378">
        <ele>2029</ele>
        <time>2021-07-10T14:41:50.159Z</time>
      </trkpt>
      <trkpt lat="46.38657" lon="8.0538">
        <ele>2030</ele>
        <time>2021-07-10T14:41:51.159Z</time>
      </trkpt>
      <trkpt lat="46.38657" lon="8.05381">
        <ele>2030</ele>
        <time>2021-07-10T14:41:52.159Z</time>
      </trkpt>
      <trkpt lat="46.38658" lon="8.05383">
        <ele>2031</ele>
        <time>2021-07-10T14:41:53.159Z</time>
      </trkpt>
      <trkpt lat="46.38659" lon="8.05384">
        <ele>2031</ele>
        <time>2021-07-10T14:41:54.159Z</time>
      </trkpt>
      <trkpt lat="46.38659" lon="8.05386">
        <ele>2031</ele>
        <time>2021-07-10T14:41:55.158Z</time>
      </trkpt>
      <trkpt lat="46.3866" lon="8.05387">
        <ele>2031</ele>
        <time>2021-07-10T14:41:56.159Z</time>
      </trkpt>
      <trkpt lat="46.38661" lon="8.05388">
        <ele>2030</ele>
        <time>2021-07-10T14:41:57.158Z</time>
      </trkpt>
      <trkpt lat="46.38661" lon="8.0539">
        <ele>2030</ele>
        <time>2021-07-10T14:41:58.159Z</time>
      </trkpt>
      <trkpt lat="46.38661" lon="8.05392">
        <ele>2030</ele>
        <time>2021-07-10T14:41:59.159Z</time>
      </trkpt>
      <trkpt lat="46.38661" lon="8.05393">
        <ele>2029</ele>
        <time>2021-07-10T14:42:00.159Z</time>
      </trkpt>
      <trkpt lat="46.38662" lon="8.05395">
        <ele>2029</ele>
        <time>2021-07-10T14:42:01.159Z</time>
      </trkpt>
      <trkpt lat="46.38662" lon="8.05395">
        <ele>2029</ele>
        <time>2021-07-10T14:42:02.159Z</time>
      </trkpt>
      <trkpt lat="46.38662" lon="8.05396">
        <ele>2028</ele>
        <time>2021-07-10T14:42:03.158Z</time>
      </trkpt>
      <trkpt lat="46.38663" lon="8.05397">
        <ele>2028</ele>
        <time>2021-07-10T14:42:04.159Z</time>
      </trkpt>
      <trkpt lat="46.38664" lon="8.05398">
        <ele>2028</ele>
        <time>2021-07-10T14:42:05.158Z</time>
      </trkpt>
      <trkpt lat="46.38664" lon="8.05399">
        <ele>2028</ele>
        <time>2021-07-10T14:42:06.159Z</time>
      </trkpt>
      <trkpt lat="46.38664" lon="8.054">
        <ele>2028</ele>
        <time>2021-07-10T14:42:07.159Z</time>
      </trkpt>
      <trkpt lat="46.38664" lon="8.05402">
        <ele>2029</ele>
        <time>2021-07-10T14:42:08.159Z</time>
      </trkpt>
      <trkpt lat="46.38665" lon="8.05403">
        <ele>2029</ele>
        <time>2021-07-10T14:42:09.158Z</time>
      </trkpt>
      <trkpt lat="46.38665" lon="8.05405">
        <ele>2029</ele>
        <time>2021-07-10T14:42:10.159Z</time>
      </trkpt>
      <trkpt lat="46.38665" lon="8.05406">
        <ele>2029</ele>
        <time>2021-07-10T14:42:11.158Z</time>
      </trkpt>
      <trkpt lat="46.38666" lon="8.05408">
        <ele>2029</ele>
        <time>2021-07-10T14:42:12.159Z</time>
      </trkpt>
      <trkpt lat="46.38666" lon="8.0541">
        <ele>2029</ele>
        <time>2021-07-10T14:42:13.158Z</time>
      </trkpt>
      <trkpt lat="46.38667" lon="8.05411">
        <ele>2030</ele>
        <time>2021-07-10T14:42:14.158Z</time>
      </trkpt>
      <trkpt lat="46.38667" lon="8.05413">
        <ele>2029</ele>
        <time>2021-07-10T14:42:15.159Z</time>
      </trkpt>
      <trkpt lat="46.38668" lon="8.05414">
        <ele>2029</ele>
        <time>2021-07-10T14:42:16.158Z</time>
      </trkpt>
      <trkpt lat="46.38668" lon="8.05416">
        <ele>2029</ele>
        <time>2021-07-10T14:42:17.159Z</time>
      </trkpt>
      <trkpt lat="46.38669" lon="8.05418">
        <ele>2029</ele>
        <time>2021-07-10T14:42:18.158Z</time>
      </trkpt>
      <trkpt lat="46.38669" lon="8.0542">
        <ele>2028</ele>
        <time>2021-07-10T14:42:19.159Z</time>
      </trkpt>
      <trkpt lat="46.3867" lon="8.05421">
        <ele>2028</ele>
        <time>2021-07-10T14:42:20.158Z</time>
      </trkpt>
      <trkpt lat="46.38671" lon="8.05423">
        <ele>2027</ele>
        <time>2021-07-10T14:42:21.159Z</time>
      </trkpt>
      <trkpt lat="46.38672" lon="8.05425">
        <ele>2026</ele>
        <time>2021-07-10T14:42:22.159Z</time>
      </trkpt>
      <trkpt lat="46.38672" lon="8.05426">
        <ele>2026</ele>
        <time>2021-07-10T14:42:23.159Z</time>
      </trkpt>
      <trkpt lat="46.38673" lon="8.05427">
        <ele>2025</ele>
        <time>2021-07-10T14:42:24.158Z</time>
      </trkpt>
      <trkpt lat="46.38674" lon="8.05429">
        <ele>2024</ele>
        <time>2021-07-10T14:42:25.159Z</time>
      </trkpt>
      <trkpt lat="46.38675" lon="8.05431">
        <ele>2023</ele>
        <time>2021-07-10T14:42:26.159Z</time>
      </trkpt>
      <trkpt lat="46.38675" lon="8.05433">
        <ele>2023</ele>
        <time>2021-07-10T14:42:27.158Z</time>
      </trkpt>
      <trkpt lat="46.38676" lon="8.05434">
        <ele>2023</ele>
        <time>2021-07-10T14:42:28.158Z</time>
      </trkpt>
      <trkpt lat="46.38677" lon="8.05436">
        <ele>2023</ele>
        <time>2021-07-10T14:42:29.158Z</time>
      </trkpt>
      <trkpt lat="46.38678" lon="8.05438">
        <ele>2023</ele>
        <time>2021-07-10T14:42:30.159Z</time>
      </trkpt>
      <trkpt lat="46.38679" lon="8.05439">
        <ele>2023</ele>
        <time>2021-07-10T14:42:31.159Z</time>
      </trkpt>
      <trkpt lat="46.3868" lon="8.0544">
        <ele>2023</ele>
        <time>2021-07-10T14:42:32.159Z</time>
      </trkpt>
      <trkpt lat="46.38681" lon="8.05442">
        <ele>2023</ele>
        <time>2021-07-10T14:42:33.159Z</time>
      </trkpt>
      <trkpt lat="46.38682" lon="8.05443">
        <ele>2023</ele>
        <time>2021-07-10T14:42:34.159Z</time>
      </trkpt>
      <trkpt lat="46.38683" lon="8.05444">
        <ele>2023</ele>
        <time>2021-07-10T14:42:35.158Z</time>
      </trkpt>
      <trkpt lat="46.38684" lon="8.05445">
        <ele>2023</ele>
        <time>2021-07-10T14:42:36.159Z</time>
      </trkpt>
      <trkpt lat="46.38685" lon="8.05446">
        <ele>2023</ele>
        <time>2021-07-10T14:42:37.158Z</time>
      </trkpt>
      <trkpt lat="46.38685" lon="8.05448">
        <ele>2023</ele>
        <time>2021-07-10T14:42:38.159Z</time>
      </trkpt>
      <trkpt lat="46.38686" lon="8.05449">
        <ele>2023</ele>
        <time>2021-07-10T14:42:39.158Z</time>
      </trkpt>
      <trkpt lat="46.38686" lon="8.05449">
        <ele>2023</ele>
        <time>2021-07-10T14:42:40.159Z</time>
      </trkpt>
      <trkpt lat="46.38686" lon="8.0545">
        <ele>2022</ele>
        <time>2021-07-10T14:42:41.159Z</time>
      </trkpt>
      <trkpt lat="46.38686" lon="8.05452">
        <ele>2022</ele>
        <time>2021-07-10T14:42:42.158Z</time>
      </trkpt>
      <trkpt lat="46.38686" lon="8.05453">
        <ele>2021</ele>
        <time>2021-07-10T14:42:43.159Z</time>
      </trkpt>
      <trkpt lat="46.38687" lon="8.05454">
        <ele>2021</ele>
        <time>2021-07-10T14:42:44.159Z</time>
      </trkpt>
      <trkpt lat="46.38687" lon="8.05456">
        <ele>2020</ele>
        <time>2021-07-10T14:42:45.159Z</time>
      </trkpt>
      <trkpt lat="46.38688" lon="8.05457">
        <ele>2020</ele>
        <time>2021-07-10T14:42:46.159Z</time>
      </trkpt>
      <trkpt lat="46.38688" lon="8.05458">
        <ele>2020</ele>
        <time>2021-07-10T14:42:47.158Z</time>
      </trkpt>
      <trkpt lat="46.38689" lon="8.0546">
        <ele>2020</ele>
        <time>2021-07-10T14:42:48.159Z</time>
      </trkpt>
      <trkpt lat="46.38689" lon="8.0546">
        <ele>2020</ele>
        <time>2021-07-10T14:42:49.159Z</time>
      </trkpt>
      <trkpt lat="46.38689" lon="8.05461">
        <ele>2020</ele>
        <time>2021-07-10T14:42:50.159Z</time>
      </trkpt>
      <trkpt lat="46.38688" lon="8.05462">
        <ele>2020</ele>
        <time>2021-07-10T14:42:51.158Z</time>
      </trkpt>
      <trkpt lat="46.38687" lon="8.05463">
        <ele>2019</ele>
        <time>2021-07-10T14:42:52.159Z</time>
      </trkpt>
      <trkpt lat="46.38687" lon="8.05464">
        <ele>2019</ele>
        <time>2021-07-10T14:42:53.158Z</time>
      </trkpt>
      <trkpt lat="46.38687" lon="8.05466">
        <ele>2019</ele>
        <time>2021-07-10T14:42:54.158Z</time>
      </trkpt>
      <trkpt lat="46.38688" lon="8.05468">
        <ele>2018</ele>
        <time>2021-07-10T14:42:55.159Z</time>
      </trkpt>
      <trkpt lat="46.38689" lon="8.0547">
        <ele>2018</ele>
        <time>2021-07-10T14:42:56.159Z</time>
      </trkpt>
      <trkpt lat="46.38689" lon="8.05471">
        <ele>2018</ele>
        <time>2021-07-10T14:42:57.159Z</time>
      </trkpt>
      <trkpt lat="46.3869" lon="8.05473">
        <ele>2018</ele>
        <time>2021-07-10T14:42:58.159Z</time>
      </trkpt>
      <trkpt lat="46.38691" lon="8.05474">
        <ele>2018</ele>
        <time>2021-07-10T14:42:59.159Z</time>
      </trkpt>
      <trkpt lat="46.38692" lon="8.05475">
        <ele>2018</ele>
        <time>2021-07-10T14:43:00.159Z</time>
      </trkpt>
      <trkpt lat="46.38693" lon="8.05476">
        <ele>2019</ele>
        <time>2021-07-10T14:43:01.158Z</time>
      </trkpt>
      <trkpt lat="46.38692" lon="8.05476">
        <ele>2019</ele>
        <time>2021-07-10T14:43:02.159Z</time>
      </trkpt>
      <trkpt lat="46.38692" lon="8.05476">
        <ele>2018</ele>
        <time>2021-07-10T14:43:03.158Z</time>
      </trkpt>
      <trkpt lat="46.38692" lon="8.05477">
        <ele>2017</ele>
        <time>2021-07-10T14:43:04.159Z</time>
      </trkpt>
      <trkpt lat="46.38691" lon="8.05478">
        <ele>2016</ele>
        <time>2021-07-10T14:43:05.159Z</time>
      </trkpt>
      <trkpt lat="46.3869" lon="8.0548">
        <ele>2015</ele>
        <time>2021-07-10T14:43:06.159Z</time>
      </trkpt>
      <trkpt lat="46.38689" lon="8.0548">
        <ele>2014</ele>
        <time>2021-07-10T14:43:07.159Z</time>
      </trkpt>
      <trkpt lat="46.38688" lon="8.05482">
        <ele>2013</ele>
        <time>2021-07-10T14:43:08.159Z</time>
      </trkpt>
      <trkpt lat="46.38688" lon="8.05483">
        <ele>2012</ele>
        <time>2021-07-10T14:43:09.158Z</time>
      </trkpt>
      <trkpt lat="46.38687" lon="8.05485">
        <ele>2012</ele>
        <time>2021-07-10T14:43:10.159Z</time>
      </trkpt>
      <trkpt lat="46.38688" lon="8.05487">
        <ele>2011</ele>
        <time>2021-07-10T14:43:11.158Z</time>
      </trkpt>
      <trkpt lat="46.38688" lon="8.05489">
        <ele>2011</ele>
        <time>2021-07-10T14:43:12.159Z</time>
      </trkpt>
      <trkpt lat="46.38688" lon="8.0549">
        <ele>2011</ele>
        <time>2021-07-10T14:43:13.159Z</time>
      </trkpt>
      <trkpt lat="46.38688" lon="8.05492">
        <ele>2011</ele>
        <time>2021-07-10T14:43:14.158Z</time>
      </trkpt>
      <trkpt lat="46.38688" lon="8.05493">
        <ele>2011</ele>
        <time>2021-07-10T14:43:15.159Z</time>
      </trkpt>
      <trkpt lat="46.38688" lon="8.05495">
        <ele>2011</ele>
        <time>2021-07-10T14:43:16.159Z</time>
      </trkpt>
      <trkpt lat="46.38687" lon="8.05498">
        <ele>2011</ele>
        <time>2021-07-10T14:43:17.158Z</time>
      </trkpt>
      <trkpt lat="46.38687" lon="8.05501">
        <ele>2011</ele>
        <time>2021-07-10T14:43:18.158Z</time>
      </trkpt>
      <trkpt lat="46.38687" lon="8.05503">
        <ele>2011</ele>
        <time>2021-07-10T14:43:19.159Z</time>
      </trkpt>
      <trkpt lat="46.38687" lon="8.05506">
        <ele>2011</ele>
        <time>2021-07-10T14:43:20.159Z</time>
      </trkpt>
      <trkpt lat="46.38687" lon="8.05508">
        <ele>2011</ele>
        <time>2021-07-10T14:43:21.159Z</time>
      </trkpt>
      <trkpt lat="46.38687" lon="8.0551">
        <ele>2011</ele>
        <time>2021-07-10T14:43:22.159Z</time>
      </trkpt>
      <trkpt lat="46.38688" lon="8.05512">
        <ele>2011</ele>
        <time>2021-07-10T14:43:23.159Z</time>
      </trkpt>
      <trkpt lat="46.38688" lon="8.05513">
        <ele>2011</ele>
        <time>2021-07-10T14:43:24.159Z</time>
      </trkpt>
      <trkpt lat="46.38689" lon="8.05514">
        <ele>2010</ele>
        <time>2021-07-10T14:43:25.158Z</time>
      </trkpt>
      <trkpt lat="46.3869" lon="8.05516">
        <ele>2010</ele>
        <time>2021-07-10T14:43:26.158Z</time>
      </trkpt>
      <trkpt lat="46.3869" lon="8.05517">
        <ele>2009</ele>
        <time>2021-07-10T14:43:27.159Z</time>
      </trkpt>
      <trkpt lat="46.38691" lon="8.05519">
        <ele>2008</ele>
        <time>2021-07-10T14:43:28.158Z</time>
      </trkpt>
      <trkpt lat="46.38692" lon="8.0552">
        <ele>2008</ele>
        <time>2021-07-10T14:43:29.159Z</time>
      </trkpt>
      <trkpt lat="46.38693" lon="8.05522">
        <ele>2008</ele>
        <time>2021-07-10T14:43:30.159Z</time>
      </trkpt>
      <trkpt lat="46.38694" lon="8.05523">
        <ele>2008</ele>
        <time>2021-07-10T14:43:31.158Z</time>
      </trkpt>
      <trkpt lat="46.38695" lon="8.05525">
        <ele>2007</ele>
        <time>2021-07-10T14:43:32.159Z</time>
      </trkpt>
      <trkpt lat="46.38695" lon="8.05526">
        <ele>2007</ele>
        <time>2021-07-10T14:43:33.159Z</time>
      </trkpt>
      <trkpt lat="46.38695" lon="8.05527">
        <ele>2007</ele>
        <time>2021-07-10T14:43:34.159Z</time>
      </trkpt>
      <trkpt lat="46.38696" lon="8.05529">
        <ele>2006</ele>
        <time>2021-07-10T14:43:35.158Z</time>
      </trkpt>
      <trkpt lat="46.38696" lon="8.05531">
        <ele>2005</ele>
        <time>2021-07-10T14:43:36.159Z</time>
      </trkpt>
      <trkpt lat="46.38696" lon="8.05532">
        <ele>2004</ele>
        <time>2021-07-10T14:43:37.158Z</time>
      </trkpt>
      <trkpt lat="46.38696" lon="8.05534">
        <ele>2004</ele>
        <time>2021-07-10T14:43:38.159Z</time>
      </trkpt>
      <trkpt lat="46.38696" lon="8.05536">
        <ele>2003</ele>
        <time>2021-07-10T14:43:39.159Z</time>
      </trkpt>
      <trkpt lat="46.38696" lon="8.05538">
        <ele>2003</ele>
        <time>2021-07-10T14:43:40.159Z</time>
      </trkpt>
      <trkpt lat="46.38696" lon="8.0554">
        <ele>2002</ele>
        <time>2021-07-10T14:43:41.158Z</time>
      </trkpt>
      <trkpt lat="46.38697" lon="8.05542">
        <ele>2002</ele>
        <time>2021-07-10T14:43:42.159Z</time>
      </trkpt>
      <trkpt lat="46.38697" lon="8.05544">
        <ele>2003</ele>
        <time>2021-07-10T14:43:43.158Z</time>
      </trkpt>
      <trkpt lat="46.38697" lon="8.05546">
        <ele>2003</ele>
        <time>2021-07-10T14:43:44.159Z</time>
      </trkpt>
      <trkpt lat="46.38696" lon="8.05548">
        <ele>2003</ele>
        <time>2021-07-10T14:43:45.159Z</time>
      </trkpt>
      <trkpt lat="46.38696" lon="8.0555">
        <ele>2003</ele>
        <time>2021-07-10T14:43:46.159Z</time>
      </trkpt>
      <trkpt lat="46.38696" lon="8.05552">
        <ele>2003</ele>
        <time>2021-07-10T14:43:47.159Z</time>
      </trkpt>
      <trkpt lat="46.38697" lon="8.05554">
        <ele>2003</ele>
        <time>2021-07-10T14:43:48.159Z</time>
      </trkpt>
      <trkpt lat="46.38697" lon="8.05556">
        <ele>2003</ele>
        <time>2021-07-10T14:43:49.158Z</time>
      </trkpt>
      <trkpt lat="46.38697" lon="8.05558">
        <ele>2003</ele>
        <time>2021-07-10T14:43:50.158Z</time>
      </trkpt>
      <trkpt lat="46.38698" lon="8.0556">
        <ele>2002</ele>
        <time>2021-07-10T14:43:51.159Z</time>
      </trkpt>
      <trkpt lat="46.38698" lon="8.05561">
        <ele>2002</ele>
        <time>2021-07-10T14:43:52.158Z</time>
      </trkpt>
      <trkpt lat="46.38699" lon="8.05563">
        <ele>2001</ele>
        <time>2021-07-10T14:43:53.159Z</time>
      </trkpt>
      <trkpt lat="46.38699" lon="8.05564">
        <ele>2001</ele>
        <time>2021-07-10T14:43:54.158Z</time>
      </trkpt>
      <trkpt lat="46.387" lon="8.05565">
        <ele>2001</ele>
        <time>2021-07-10T14:43:55.159Z</time>
      </trkpt>
      <trkpt lat="46.38701" lon="8.05566">
        <ele>2000</ele>
        <time>2021-07-10T14:43:56.159Z</time>
      </trkpt>
      <trkpt lat="46.38703" lon="8.05567">
        <ele>2000</ele>
        <time>2021-07-10T14:43:57.158Z</time>
      </trkpt>
      <trkpt lat="46.38703" lon="8.05569">
        <ele>2001</ele>
        <time>2021-07-10T14:43:58.158Z</time>
      </trkpt>
      <trkpt lat="46.38704" lon="8.0557">
        <ele>2001</ele>
        <time>2021-07-10T14:43:59.159Z</time>
      </trkpt>
      <trkpt lat="46.38705" lon="8.05571">
        <ele>2001</ele>
        <time>2021-07-10T14:44:00.159Z</time>
      </trkpt>
      <trkpt lat="46.38705" lon="8.05573">
        <ele>2002</ele>
        <time>2021-07-10T14:44:01.158Z</time>
      </trkpt>
      <trkpt lat="46.38706" lon="8.05574">
        <ele>2002</ele>
        <time>2021-07-10T14:44:02.159Z</time>
      </trkpt>
      <trkpt lat="46.38707" lon="8.05575">
        <ele>2002</ele>
        <time>2021-07-10T14:44:03.159Z</time>
      </trkpt>
      <trkpt lat="46.38708" lon="8.05577">
        <ele>2002</ele>
        <time>2021-07-10T14:44:04.159Z</time>
      </trkpt>
      <trkpt lat="46.3871" lon="8.05578">
        <ele>2002</ele>
        <time>2021-07-10T14:44:05.158Z</time>
      </trkpt>
      <trkpt lat="46.38711" lon="8.0558">
        <ele>2002</ele>
        <time>2021-07-10T14:44:06.159Z</time>
      </trkpt>
      <trkpt lat="46.38712" lon="8.05581">
        <ele>2002</ele>
        <time>2021-07-10T14:44:07.159Z</time>
      </trkpt>
      <trkpt lat="46.38713" lon="8.05582">
        <ele>2002</ele>
        <time>2021-07-10T14:44:08.159Z</time>
      </trkpt>
      <trkpt lat="46.38714" lon="8.05583">
        <ele>2001</ele>
        <time>2021-07-10T14:44:09.159Z</time>
      </trkpt>
      <trkpt lat="46.38715" lon="8.05585">
        <ele>2001</ele>
        <time>2021-07-10T14:44:10.159Z</time>
      </trkpt>
      <trkpt lat="46.38716" lon="8.05586">
        <ele>2001</ele>
        <time>2021-07-10T14:44:11.159Z</time>
      </trkpt>
      <trkpt lat="46.38717" lon="8.05587">
        <ele>2001</ele>
        <time>2021-07-10T14:44:12.158Z</time>
      </trkpt>
      <trkpt lat="46.38718" lon="8.05589">
        <ele>2002</ele>
        <time>2021-07-10T14:44:13.159Z</time>
      </trkpt>
      <trkpt lat="46.38719" lon="8.0559">
        <ele>2002</ele>
        <time>2021-07-10T14:44:14.159Z</time>
      </trkpt>
      <trkpt lat="46.3872" lon="8.05592">
        <ele>2002</ele>
        <time>2021-07-10T14:44:15.159Z</time>
      </trkpt>
      <trkpt lat="46.38721" lon="8.05593">
        <ele>2001</ele>
        <time>2021-07-10T14:44:16.158Z</time>
      </trkpt>
      <trkpt lat="46.38722" lon="8.05595">
        <ele>2001</ele>
        <time>2021-07-10T14:44:17.158Z</time>
      </trkpt>
      <trkpt lat="46.38723" lon="8.05597">
        <ele>2000</ele>
        <time>2021-07-10T14:44:18.159Z</time>
      </trkpt>
      <trkpt lat="46.38724" lon="8.05598">
        <ele>2000</ele>
        <time>2021-07-10T14:44:19.159Z</time>
      </trkpt>
      <trkpt lat="46.38724" lon="8.056">
        <ele>2000</ele>
        <time>2021-07-10T14:44:20.158Z</time>
      </trkpt>
      <trkpt lat="46.38725" lon="8.05602">
        <ele>2000</ele>
        <time>2021-07-10T14:44:21.158Z</time>
      </trkpt>
      <trkpt lat="46.38726" lon="8.05603">
        <ele>2001</ele>
        <time>2021-07-10T14:44:22.158Z</time>
      </trkpt>
      <trkpt lat="46.38726" lon="8.05605">
        <ele>2001</ele>
        <time>2021-07-10T14:44:23.159Z</time>
      </trkpt>
      <trkpt lat="46.38727" lon="8.05607">
        <ele>2002</ele>
        <time>2021-07-10T14:44:24.158Z</time>
      </trkpt>
      <trkpt lat="46.38727" lon="8.05608">
        <ele>2002</ele>
        <time>2021-07-10T14:44:25.159Z</time>
      </trkpt>
      <trkpt lat="46.38728" lon="8.0561">
        <ele>2003</ele>
        <time>2021-07-10T14:44:26.158Z</time>
      </trkpt>
      <trkpt lat="46.38728" lon="8.05612">
        <ele>2003</ele>
        <time>2021-07-10T14:44:27.158Z</time>
      </trkpt>
      <trkpt lat="46.38729" lon="8.05614">
        <ele>2003</ele>
        <time>2021-07-10T14:44:28.159Z</time>
      </trkpt>
      <trkpt lat="46.38729" lon="8.05615">
        <ele>2004</ele>
        <time>2021-07-10T14:44:29.158Z</time>
      </trkpt>
      <trkpt lat="46.3873" lon="8.05617">
        <ele>2004</ele>
        <time>2021-07-10T14:44:30.158Z</time>
      </trkpt>
      <trkpt lat="46.38731" lon="8.05619">
        <ele>2003</ele>
        <time>2021-07-10T14:44:31.158Z</time>
      </trkpt>
      <trkpt lat="46.38732" lon="8.05621">
        <ele>2003</ele>
        <time>2021-07-10T14:44:32.159Z</time>
      </trkpt>
      <trkpt lat="46.38733" lon="8.05622">
        <ele>2003</ele>
        <time>2021-07-10T14:44:33.158Z</time>
      </trkpt>
      <trkpt lat="46.38734" lon="8.05624">
        <ele>2002</ele>
        <time>2021-07-10T14:44:34.158Z</time>
      </trkpt>
      <trkpt lat="46.38735" lon="8.05626">
        <ele>2002</ele>
        <time>2021-07-10T14:44:35.159Z</time>
      </trkpt>
      <trkpt lat="46.38735" lon="8.05628">
        <ele>2002</ele>
        <time>2021-07-10T14:44:36.159Z</time>
      </trkpt>
      <trkpt lat="46.38735" lon="8.05629">
        <ele>2002</ele>
        <time>2021-07-10T14:44:37.159Z</time>
      </trkpt>
      <trkpt lat="46.38735" lon="8.05631">
        <ele>2002</ele>
        <time>2021-07-10T14:44:38.158Z</time>
      </trkpt>
      <trkpt lat="46.38736" lon="8.05633">
        <ele>2001</ele>
        <time>2021-07-10T14:44:39.158Z</time>
      </trkpt>
      <trkpt lat="46.38737" lon="8.05635">
        <ele>2000</ele>
        <time>2021-07-10T14:44:40.158Z</time>
      </trkpt>
      <trkpt lat="46.38738" lon="8.05636">
        <ele>2000</ele>
        <time>2021-07-10T14:44:41.159Z</time>
      </trkpt>
      <trkpt lat="46.38739" lon="8.05637">
        <ele>1999</ele>
        <time>2021-07-10T14:44:49.183Z</time>
      </trkpt>
      <trkpt lat="46.38739" lon="8.05639">
        <ele>1998</ele>
        <time>2021-07-10T14:44:50.182Z</time>
      </trkpt>
      <trkpt lat="46.3874" lon="8.0564">
        <ele>1998</ele>
        <time>2021-07-10T14:44:59.034Z</time>
      </trkpt>
      <trkpt lat="46.38741" lon="8.05642">
        <ele>1997</ele>
        <time>2021-07-10T14:45:00.034Z</time>
      </trkpt>
      <trkpt lat="46.38742" lon="8.05643">
        <ele>1996</ele>
        <time>2021-07-10T14:45:01.035Z</time>
      </trkpt>
      <trkpt lat="46.38743" lon="8.05645">
        <ele>1996</ele>
        <time>2021-07-10T14:45:02.906Z</time>
      </trkpt>
      <trkpt lat="46.38744" lon="8.05646">
        <ele>1995</ele>
        <time>2021-07-10T14:45:03.907Z</time>
      </trkpt>
      <trkpt lat="46.38745" lon="8.05648">
        <ele>1994</ele>
        <time>2021-07-10T14:45:18.074Z</time>
      </trkpt>
      <trkpt lat="46.38746" lon="8.0565">
        <ele>1994</ele>
        <time>2021-07-10T14:45:19.074Z</time>
      </trkpt>
      <trkpt lat="46.38748" lon="8.05651">
        <ele>1994</ele>
        <time>2021-07-10T14:46:09.911Z</time>
      </trkpt>
      <trkpt lat="46.38749" lon="8.05652">
        <ele>1993</ele>
        <time>2021-07-10T14:46:10.911Z</time>
      </trkpt>
      <trkpt lat="46.38751" lon="8.05654">
        <ele>1993</ele>
        <time>2021-07-10T14:46:11.911Z</time>
      </trkpt>
      <trkpt lat="46.38752" lon="8.05655">
        <ele>1993</ele>
        <time>2021-07-10T14:46:12.910Z</time>
      </trkpt>
      <trkpt lat="46.38753" lon="8.05657">
        <ele>1993</ele>
        <time>2021-07-10T14:46:24.049Z</time>
      </trkpt>
      <trkpt lat="46.38753" lon="8.05659">
        <ele>1992</ele>
        <time>2021-07-10T14:46:25.049Z</time>
      </trkpt>
      <trkpt lat="46.38754" lon="8.05661">
        <ele>1992</ele>
        <time>2021-07-10T14:46:33.932Z</time>
      </trkpt>
      <trkpt lat="46.38755" lon="8.05663">
        <ele>1992</ele>
        <time>2021-07-10T14:46:45.655Z</time>
      </trkpt>
      <trkpt lat="46.38756" lon="8.05665">
        <ele>1991</ele>
        <time>2021-07-10T14:46:46.655Z</time>
      </trkpt>
      <trkpt lat="46.38757" lon="8.05666">
        <ele>1991</ele>
        <time>2021-07-10T14:46:47.655Z</time>
      </trkpt>
      <trkpt lat="46.38758" lon="8.05667">
        <ele>1990</ele>
        <time>2021-07-10T14:46:48.655Z</time>
      </trkpt>
      <trkpt lat="46.38759" lon="8.05669">
        <ele>1989</ele>
        <time>2021-07-10T14:46:49.655Z</time>
      </trkpt>
      <trkpt lat="46.3876" lon="8.05671">
        <ele>1988</ele>
        <time>2021-07-10T14:46:50.655Z</time>
      </trkpt>
      <trkpt lat="46.38761" lon="8.05673">
        <ele>1987</ele>
        <time>2021-07-10T14:46:51.655Z</time>
      </trkpt>
      <trkpt lat="46.38762" lon="8.05675">
        <ele>1986</ele>
        <time>2021-07-10T14:46:52.655Z</time>
      </trkpt>
      <trkpt lat="46.38762" lon="8.05677">
        <ele>1986</ele>
        <time>2021-07-10T14:46:53.655Z</time>
      </trkpt>
      <trkpt lat="46.38763" lon="8.05679">
        <ele>1985</ele>
        <time>2021-07-10T14:46:54.655Z</time>
      </trkpt>
      <trkpt lat="46.38763" lon="8.05681">
        <ele>1985</ele>
        <time>2021-07-10T14:46:55.654Z</time>
      </trkpt>
      <trkpt lat="46.38763" lon="8.05683">
        <ele>1985</ele>
        <time>2021-07-10T14:46:56.654Z</time>
      </trkpt>
      <trkpt lat="46.38764" lon="8.05684">
        <ele>1985</ele>
        <time>2021-07-10T14:46:57.655Z</time>
      </trkpt>
      <trkpt lat="46.38764" lon="8.05686">
        <ele>1984</ele>
        <time>2021-07-10T14:46:58.654Z</time>
      </trkpt>
      <trkpt lat="46.38764" lon="8.05688">
        <ele>1984</ele>
        <time>2021-07-10T14:46:59.654Z</time>
      </trkpt>
      <trkpt lat="46.38765" lon="8.05689">
        <ele>1984</ele>
        <time>2021-07-10T14:47:00.654Z</time>
      </trkpt>
      <trkpt lat="46.38766" lon="8.0569">
        <ele>1983</ele>
        <time>2021-07-10T14:47:01.654Z</time>
      </trkpt>
      <trkpt lat="46.38767" lon="8.05691">
        <ele>1983</ele>
        <time>2021-07-10T14:47:02.654Z</time>
      </trkpt>
      <trkpt lat="46.38768" lon="8.05692">
        <ele>1982</ele>
        <time>2021-07-10T14:47:04.760Z</time>
      </trkpt>
      <trkpt lat="46.38769" lon="8.05693">
        <ele>1982</ele>
        <time>2021-07-10T14:47:05.760Z</time>
      </trkpt>
      <trkpt lat="46.3877" lon="8.05694">
        <ele>1981</ele>
        <time>2021-07-10T14:47:06.760Z</time>
      </trkpt>
      <trkpt lat="46.38771" lon="8.05695">
        <ele>1981</ele>
        <time>2021-07-10T14:47:07.760Z</time>
      </trkpt>
      <trkpt lat="46.38771" lon="8.05696">
        <ele>1980</ele>
        <time>2021-07-10T14:47:08.760Z</time>
      </trkpt>
      <trkpt lat="46.38772" lon="8.05698">
        <ele>1980</ele>
        <time>2021-07-10T14:47:09.759Z</time>
      </trkpt>
      <trkpt lat="46.38773" lon="8.05699">
        <ele>1980</ele>
        <time>2021-07-10T14:47:10.760Z</time>
      </trkpt>
      <trkpt lat="46.38774" lon="8.057">
        <ele>1980</ele>
        <time>2021-07-10T14:47:11.760Z</time>
      </trkpt>
      <trkpt lat="46.38775" lon="8.05701">
        <ele>1979</ele>
        <time>2021-07-10T14:47:12.760Z</time>
      </trkpt>
      <trkpt lat="46.38777" lon="8.05702">
        <ele>1979</ele>
        <time>2021-07-10T14:47:13.759Z</time>
      </trkpt>
      <trkpt lat="46.38778" lon="8.05703">
        <ele>1979</ele>
        <time>2021-07-10T14:47:14.759Z</time>
      </trkpt>
      <trkpt lat="46.3878" lon="8.05704">
        <ele>1979</ele>
        <time>2021-07-10T14:47:15.759Z</time>
      </trkpt>
      <trkpt lat="46.38781" lon="8.05705">
        <ele>1978</ele>
        <time>2021-07-10T14:47:16.760Z</time>
      </trkpt>
      <trkpt lat="46.38782" lon="8.05706">
        <ele>1978</ele>
        <time>2021-07-10T14:47:17.759Z</time>
      </trkpt>
      <trkpt lat="46.38783" lon="8.05708">
        <ele>1978</ele>
        <time>2021-07-10T14:47:18.760Z</time>
      </trkpt>
      <trkpt lat="46.38784" lon="8.0571">
        <ele>1977</ele>
        <time>2021-07-10T14:47:19.760Z</time>
      </trkpt>
      <trkpt lat="46.38785" lon="8.05711">
        <ele>1976</ele>
        <time>2021-07-10T14:47:20.760Z</time>
      </trkpt>
      <trkpt lat="46.38786" lon="8.05713">
        <ele>1976</ele>
        <time>2021-07-10T14:47:21.760Z</time>
      </trkpt>
      <trkpt lat="46.38787" lon="8.05714">
        <ele>1975</ele>
        <time>2021-07-10T14:47:22.760Z</time>
      </trkpt>
      <trkpt lat="46.38788" lon="8.05715">
        <ele>1974</ele>
        <time>2021-07-10T14:47:23.760Z</time>
      </trkpt>
      <trkpt lat="46.38789" lon="8.05716">
        <ele>1974</ele>
        <time>2021-07-10T14:47:24.760Z</time>
      </trkpt>
      <trkpt lat="46.38791" lon="8.05717">
        <ele>1973</ele>
        <time>2021-07-10T14:47:25.760Z</time>
      </trkpt>
      <trkpt lat="46.38791" lon="8.05718">
        <ele>1973</ele>
        <time>2021-07-10T14:47:26.760Z</time>
      </trkpt>
      <trkpt lat="46.38792" lon="8.0572">
        <ele>1972</ele>
        <time>2021-07-10T14:47:27.760Z</time>
      </trkpt>
      <trkpt lat="46.38794" lon="8.05721">
        <ele>1972</ele>
        <time>2021-07-10T14:47:28.760Z</time>
      </trkpt>
      <trkpt lat="46.38795" lon="8.05722">
        <ele>1972</ele>
        <time>2021-07-10T14:47:29.760Z</time>
      </trkpt>
      <trkpt lat="46.38796" lon="8.05723">
        <ele>1971</ele>
        <time>2021-07-10T14:47:30.760Z</time>
      </trkpt>
      <trkpt lat="46.38797" lon="8.05724">
        <ele>1971</ele>
        <time>2021-07-10T14:47:31.760Z</time>
      </trkpt>
      <trkpt lat="46.38799" lon="8.05726">
        <ele>1971</ele>
        <time>2021-07-10T14:47:32.760Z</time>
      </trkpt>
      <trkpt lat="46.388" lon="8.05727">
        <ele>1970</ele>
        <time>2021-07-10T14:47:33.760Z</time>
      </trkpt>
      <trkpt lat="46.38801" lon="8.05728">
        <ele>1970</ele>
        <time>2021-07-10T14:47:34.759Z</time>
      </trkpt>
      <trkpt lat="46.38802" lon="8.05729">
        <ele>1969</ele>
        <time>2021-07-10T14:47:35.759Z</time>
      </trkpt>
      <trkpt lat="46.38803" lon="8.0573">
        <ele>1969</ele>
        <time>2021-07-10T14:47:36.760Z</time>
      </trkpt>
      <trkpt lat="46.38804" lon="8.05732">
        <ele>1968</ele>
        <time>2021-07-10T14:47:37.760Z</time>
      </trkpt>
      <trkpt lat="46.38804" lon="8.05733">
        <ele>1968</ele>
        <time>2021-07-10T14:47:38.760Z</time>
      </trkpt>
      <trkpt lat="46.38805" lon="8.05735">
        <ele>1968</ele>
        <time>2021-07-10T14:47:39.760Z</time>
      </trkpt>
      <trkpt lat="46.38806" lon="8.05737">
        <ele>1967</ele>
        <time>2021-07-10T14:47:40.760Z</time>
      </trkpt>
      <trkpt lat="46.38807" lon="8.05738">
        <ele>1967</ele>
        <time>2021-07-10T14:47:41.760Z</time>
      </trkpt>
      <trkpt lat="46.38807" lon="8.0574">
        <ele>1967</ele>
        <time>2021-07-10T14:47:42.760Z</time>
      </trkpt>
      <trkpt lat="46.38808" lon="8.05741">
        <ele>1967</ele>
        <time>2021-07-10T14:47:43.760Z</time>
      </trkpt>
      <trkpt lat="46.38809" lon="8.05743">
        <ele>1967</ele>
        <time>2021-07-10T14:47:44.759Z</time>
      </trkpt>
      <trkpt lat="46.3881" lon="8.05744">
        <ele>1967</ele>
        <time>2021-07-10T14:47:45.759Z</time>
      </trkpt>
      <trkpt lat="46.3881" lon="8.05746">
        <ele>1967</ele>
        <time>2021-07-10T14:47:46.760Z</time>
      </trkpt>
      <trkpt lat="46.3881" lon="8.05747">
        <ele>1967</ele>
        <time>2021-07-10T14:47:47.760Z</time>
      </trkpt>
      <trkpt lat="46.38811" lon="8.05749">
        <ele>1968</ele>
        <time>2021-07-10T14:47:48.760Z</time>
      </trkpt>
      <trkpt lat="46.38811" lon="8.0575">
        <ele>1968</ele>
        <time>2021-07-10T14:48:01.777Z</time>
      </trkpt>
      <trkpt lat="46.38812" lon="8.05752">
        <ele>1968</ele>
        <time>2021-07-10T14:48:02.777Z</time>
      </trkpt>
      <trkpt lat="46.38812" lon="8.05753">
        <ele>1968</ele>
        <time>2021-07-10T14:48:03.777Z</time>
      </trkpt>
      <trkpt lat="46.38813" lon="8.05755">
        <ele>1968</ele>
        <time>2021-07-10T14:48:04.777Z</time>
      </trkpt>
      <trkpt lat="46.38813" lon="8.05756">
        <ele>1967</ele>
        <time>2021-07-10T14:48:05.777Z</time>
      </trkpt>
      <trkpt lat="46.38814" lon="8.05758">
        <ele>1967</ele>
        <time>2021-07-10T14:48:06.776Z</time>
      </trkpt>
      <trkpt lat="46.38814" lon="8.05759">
        <ele>1966</ele>
        <time>2021-07-10T14:48:07.777Z</time>
      </trkpt>
      <trkpt lat="46.38815" lon="8.05761">
        <ele>1966</ele>
        <time>2021-07-10T14:48:08.777Z</time>
      </trkpt>
      <trkpt lat="46.38815" lon="8.05763">
        <ele>1966</ele>
        <time>2021-07-10T14:48:09.777Z</time>
      </trkpt>
      <trkpt lat="46.38815" lon="8.05764">
        <ele>1966</ele>
        <time>2021-07-10T14:48:10.777Z</time>
      </trkpt>
      <trkpt lat="46.38815" lon="8.05765">
        <ele>1966</ele>
        <time>2021-07-10T14:48:11.777Z</time>
      </trkpt>
      <trkpt lat="46.38815" lon="8.05767">
        <ele>1966</ele>
        <time>2021-07-10T14:48:12.777Z</time>
      </trkpt>
      <trkpt lat="46.38815" lon="8.05769">
        <ele>1966</ele>
        <time>2021-07-10T14:48:13.776Z</time>
      </trkpt>
      <trkpt lat="46.38814" lon="8.05771">
        <ele>1965</ele>
        <time>2021-07-10T14:48:14.777Z</time>
      </trkpt>
      <trkpt lat="46.38814" lon="8.05773">
        <ele>1965</ele>
        <time>2021-07-10T14:48:15.777Z</time>
      </trkpt>
      <trkpt lat="46.38814" lon="8.05775">
        <ele>1965</ele>
        <time>2021-07-10T14:48:16.777Z</time>
      </trkpt>
      <trkpt lat="46.38813" lon="8.05777">
        <ele>1964</ele>
        <time>2021-07-10T14:48:17.776Z</time>
      </trkpt>
      <trkpt lat="46.38812" lon="8.05779">
        <ele>1964</ele>
        <time>2021-07-10T14:48:18.777Z</time>
      </trkpt>
      <trkpt lat="46.38811" lon="8.0578">
        <ele>1964</ele>
        <time>2021-07-10T14:48:19.777Z</time>
      </trkpt>
      <trkpt lat="46.38811" lon="8.05781">
        <ele>1964</ele>
        <time>2021-07-10T14:48:20.777Z</time>
      </trkpt>
      <trkpt lat="46.3881" lon="8.05783">
        <ele>1964</ele>
        <time>2021-07-10T14:48:21.777Z</time>
      </trkpt>
      <trkpt lat="46.38809" lon="8.05784">
        <ele>1963</ele>
        <time>2021-07-10T14:48:22.777Z</time>
      </trkpt>
      <trkpt lat="46.38809" lon="8.05785">
        <ele>1964</ele>
        <time>2021-07-10T14:48:23.777Z</time>
      </trkpt>
      <trkpt lat="46.38808" lon="8.05787">
        <ele>1964</ele>
        <time>2021-07-10T14:48:24.776Z</time>
      </trkpt>
      <trkpt lat="46.38807" lon="8.05788">
        <ele>1964</ele>
        <time>2021-07-10T14:48:25.777Z</time>
      </trkpt>
      <trkpt lat="46.38806" lon="8.05788">
        <ele>1963</ele>
        <time>2021-07-10T14:48:26.777Z</time>
      </trkpt>
      <trkpt lat="46.38805" lon="8.05789">
        <ele>1962</ele>
        <time>2021-07-10T14:48:27.777Z</time>
      </trkpt>
      <trkpt lat="46.38804" lon="8.0579">
        <ele>1962</ele>
        <time>2021-07-10T14:48:28.777Z</time>
      </trkpt>
      <trkpt lat="46.38803" lon="8.0579">
        <ele>1961</ele>
        <time>2021-07-10T14:48:29.777Z</time>
      </trkpt>
      <trkpt lat="46.38802" lon="8.05791">
        <ele>1960</ele>
        <time>2021-07-10T14:48:30.776Z</time>
      </trkpt>
      <trkpt lat="46.38801" lon="8.05793">
        <ele>1960</ele>
        <time>2021-07-10T14:48:31.777Z</time>
      </trkpt>
      <trkpt lat="46.388" lon="8.05793">
        <ele>1959</ele>
        <time>2021-07-10T14:48:32.776Z</time>
      </trkpt>
      <trkpt lat="46.388" lon="8.05794">
        <ele>1958</ele>
        <time>2021-07-10T14:48:33.777Z</time>
      </trkpt>
      <trkpt lat="46.38799" lon="8.05795">
        <ele>1957</ele>
        <time>2021-07-10T14:48:34.776Z</time>
      </trkpt>
      <trkpt lat="46.38798" lon="8.05796">
        <ele>1956</ele>
        <time>2021-07-10T14:48:35.776Z</time>
      </trkpt>
      <trkpt lat="46.38797" lon="8.05797">
        <ele>1955</ele>
        <time>2021-07-10T14:48:36.777Z</time>
      </trkpt>
      <trkpt lat="46.38797" lon="8.05799">
        <ele>1955</ele>
        <time>2021-07-10T14:48:37.777Z</time>
      </trkpt>
      <trkpt lat="46.38796" lon="8.058">
        <ele>1955</ele>
        <time>2021-07-10T14:48:38.776Z</time>
      </trkpt>
      <trkpt lat="46.38795" lon="8.05802">
        <ele>1954</ele>
        <time>2021-07-10T14:48:39.776Z</time>
      </trkpt>
      <trkpt lat="46.38795" lon="8.05803">
        <ele>1953</ele>
        <time>2021-07-10T14:48:40.777Z</time>
      </trkpt>
      <trkpt lat="46.38794" lon="8.05805">
        <ele>1952</ele>
        <time>2021-07-10T14:48:41.776Z</time>
      </trkpt>
      <trkpt lat="46.38794" lon="8.05806">
        <ele>1952</ele>
        <time>2021-07-10T14:48:42.776Z</time>
      </trkpt>
      <trkpt lat="46.38793" lon="8.05807">
        <ele>1951</ele>
        <time>2021-07-10T14:48:43.777Z</time>
      </trkpt>
      <trkpt lat="46.38793" lon="8.05808">
        <ele>1951</ele>
        <time>2021-07-10T14:48:44.777Z</time>
      </trkpt>
      <trkpt lat="46.38792" lon="8.0581">
        <ele>1951</ele>
        <time>2021-07-10T14:48:45.776Z</time>
      </trkpt>
      <trkpt lat="46.38791" lon="8.05811">
        <ele>1952</ele>
        <time>2021-07-10T14:48:46.777Z</time>
      </trkpt>
      <trkpt lat="46.38791" lon="8.05813">
        <ele>1952</ele>
        <time>2021-07-10T14:48:47.777Z</time>
      </trkpt>
      <trkpt lat="46.3879" lon="8.05814">
        <ele>1952</ele>
        <time>2021-07-10T14:48:48.777Z</time>
      </trkpt>
      <trkpt lat="46.38789" lon="8.05815">
        <ele>1952</ele>
        <time>2021-07-10T14:48:49.776Z</time>
      </trkpt>
      <trkpt lat="46.38789" lon="8.05817">
        <ele>1952</ele>
        <time>2021-07-10T14:48:50.777Z</time>
      </trkpt>
      <trkpt lat="46.38788" lon="8.05818">
        <ele>1953</ele>
        <time>2021-07-10T14:48:51.776Z</time>
      </trkpt>
      <trkpt lat="46.38788" lon="8.0582">
        <ele>1953</ele>
        <time>2021-07-10T14:48:52.777Z</time>
      </trkpt>
      <trkpt lat="46.38787" lon="8.05822">
        <ele>1953</ele>
        <time>2021-07-10T14:48:53.776Z</time>
      </trkpt>
      <trkpt lat="46.38787" lon="8.05824">
        <ele>1952</ele>
        <time>2021-07-10T14:48:54.777Z</time>
      </trkpt>
      <trkpt lat="46.38786" lon="8.05825">
        <ele>1952</ele>
        <time>2021-07-10T14:48:55.777Z</time>
      </trkpt>
      <trkpt lat="46.38784" lon="8.05825">
        <ele>1951</ele>
        <time>2021-07-10T14:48:56.776Z</time>
      </trkpt>
      <trkpt lat="46.38783" lon="8.05826">
        <ele>1951</ele>
        <time>2021-07-10T14:48:57.777Z</time>
      </trkpt>
      <trkpt lat="46.38782" lon="8.05826">
        <ele>1951</ele>
        <time>2021-07-10T14:48:58.777Z</time>
      </trkpt>
      <trkpt lat="46.3878" lon="8.05826">
        <ele>1951</ele>
        <time>2021-07-10T14:48:59.776Z</time>
      </trkpt>
      <trkpt lat="46.38779" lon="8.05826">
        <ele>1950</ele>
        <time>2021-07-10T14:49:00.776Z</time>
      </trkpt>
      <trkpt lat="46.38778" lon="8.05826">
        <ele>1950</ele>
        <time>2021-07-10T14:49:01.777Z</time>
      </trkpt>
      <trkpt lat="46.38777" lon="8.05826">
        <ele>1950</ele>
        <time>2021-07-10T14:49:02.777Z</time>
      </trkpt>
      <trkpt lat="46.38776" lon="8.05826">
        <ele>1950</ele>
        <time>2021-07-10T14:49:03.776Z</time>
      </trkpt>
      <trkpt lat="46.38774" lon="8.05826">
        <ele>1950</ele>
        <time>2021-07-10T14:49:04.776Z</time>
      </trkpt>
      <trkpt lat="46.38773" lon="8.05825">
        <ele>1950</ele>
        <time>2021-07-10T14:49:05.776Z</time>
      </trkpt>
      <trkpt lat="46.38772" lon="8.05825">
        <ele>1950</ele>
        <time>2021-07-10T14:49:06.776Z</time>
      </trkpt>
      <trkpt lat="46.38771" lon="8.05825">
        <ele>1951</ele>
        <time>2021-07-10T14:49:07.777Z</time>
      </trkpt>
      <trkpt lat="46.38771" lon="8.05825">
        <ele>1950</ele>
        <time>2021-07-10T14:49:08.777Z</time>
      </trkpt>
      <trkpt lat="46.3877" lon="8.05824">
        <ele>1950</ele>
        <time>2021-07-10T14:49:09.777Z</time>
      </trkpt>
      <trkpt lat="46.38769" lon="8.05824">
        <ele>1950</ele>
        <time>2021-07-10T14:49:10.777Z</time>
      </trkpt>
      <trkpt lat="46.38768" lon="8.05823">
        <ele>1949</ele>
        <time>2021-07-10T14:49:11.777Z</time>
      </trkpt>
      <trkpt lat="46.38767" lon="8.05822">
        <ele>1949</ele>
        <time>2021-07-10T14:49:12.777Z</time>
      </trkpt>
      <trkpt lat="46.38766" lon="8.05821">
        <ele>1949</ele>
        <time>2021-07-10T14:49:13.776Z</time>
      </trkpt>
      <trkpt lat="46.38765" lon="8.0582">
        <ele>1949</ele>
        <time>2021-07-10T14:49:14.777Z</time>
      </trkpt>
      <trkpt lat="46.38764" lon="8.05819">
        <ele>1949</ele>
        <time>2021-07-10T14:49:15.777Z</time>
      </trkpt>
      <trkpt lat="46.38763" lon="8.05818">
        <ele>1949</ele>
        <time>2021-07-10T14:49:16.777Z</time>
      </trkpt>
      <trkpt lat="46.38762" lon="8.05817">
        <ele>1949</ele>
        <time>2021-07-10T14:49:17.777Z</time>
      </trkpt>
      <trkpt lat="46.38761" lon="8.05816">
        <ele>1949</ele>
        <time>2021-07-10T14:49:18.777Z</time>
      </trkpt>
      <trkpt lat="46.38759" lon="8.05816">
        <ele>1948</ele>
        <time>2021-07-10T14:49:19.776Z</time>
      </trkpt>
      <trkpt lat="46.38759" lon="8.05816">
        <ele>1948</ele>
        <time>2021-07-10T14:49:20.776Z</time>
      </trkpt>
      <trkpt lat="46.38758" lon="8.05817">
        <ele>1949</ele>
        <time>2021-07-10T14:49:21.776Z</time>
      </trkpt>
      <trkpt lat="46.38758" lon="8.05819">
        <ele>1949</ele>
        <time>2021-07-10T14:49:22.777Z</time>
      </trkpt>
      <trkpt lat="46.38759" lon="8.0582">
        <ele>1949</ele>
        <time>2021-07-10T14:49:23.776Z</time>
      </trkpt>
      <trkpt lat="46.38759" lon="8.05821">
        <ele>1950</ele>
        <time>2021-07-10T14:49:24.776Z</time>
      </trkpt>
      <trkpt lat="46.3876" lon="8.05822">
        <ele>1950</ele>
        <time>2021-07-10T14:49:25.776Z</time>
      </trkpt>
      <trkpt lat="46.38761" lon="8.05823">
        <ele>1950</ele>
        <time>2021-07-10T14:49:26.777Z</time>
      </trkpt>
      <trkpt lat="46.38762" lon="8.05824">
        <ele>1950</ele>
        <time>2021-07-10T14:49:27.776Z</time>
      </trkpt>
      <trkpt lat="46.38763" lon="8.05825">
        <ele>1951</ele>
        <time>2021-07-10T14:49:28.777Z</time>
      </trkpt>
      <trkpt lat="46.38763" lon="8.05826">
        <ele>1951</ele>
        <time>2021-07-10T14:49:29.776Z</time>
      </trkpt>
      <trkpt lat="46.38764" lon="8.05828">
        <ele>1951</ele>
        <time>2021-07-10T14:49:30.776Z</time>
      </trkpt>
      <trkpt lat="46.38765" lon="8.05828">
        <ele>1952</ele>
        <time>2021-07-10T14:49:31.776Z</time>
      </trkpt>
      <trkpt lat="46.38765" lon="8.0583">
        <ele>1952</ele>
        <time>2021-07-10T14:49:32.777Z</time>
      </trkpt>
      <trkpt lat="46.38766" lon="8.05831">
        <ele>1953</ele>
        <time>2021-07-10T14:49:33.776Z</time>
      </trkpt>
      <trkpt lat="46.38766" lon="8.05832">
        <ele>1953</ele>
        <time>2021-07-10T14:49:34.777Z</time>
      </trkpt>
      <trkpt lat="46.38767" lon="8.05834">
        <ele>1954</ele>
        <time>2021-07-10T14:49:35.777Z</time>
      </trkpt>
      <trkpt lat="46.38768" lon="8.05835">
        <ele>1954</ele>
        <time>2021-07-10T14:49:36.776Z</time>
      </trkpt>
      <trkpt lat="46.38768" lon="8.05835">
        <ele>1954</ele>
        <time>2021-07-10T14:49:37.777Z</time>
      </trkpt>
      <trkpt lat="46.38769" lon="8.05837">
        <ele>1955</ele>
        <time>2021-07-10T14:49:38.776Z</time>
      </trkpt>
      <trkpt lat="46.38769" lon="8.05838">
        <ele>1955</ele>
        <time>2021-07-10T14:49:39.776Z</time>
      </trkpt>
      <trkpt lat="46.3877" lon="8.05838">
        <ele>1955</ele>
        <time>2021-07-10T14:49:40.776Z</time>
      </trkpt>
      <trkpt lat="46.3877" lon="8.05839">
        <ele>1956</ele>
        <time>2021-07-10T14:49:41.777Z</time>
      </trkpt>
      <trkpt lat="46.38769" lon="8.05839">
        <ele>1956</ele>
        <time>2021-07-10T14:49:42.776Z</time>
      </trkpt>
      <trkpt lat="46.38769" lon="8.0584">
        <ele>1955</ele>
        <time>2021-07-10T14:49:43.776Z</time>
      </trkpt>
      <trkpt lat="46.38769" lon="8.0584">
        <ele>1955</ele>
        <time>2021-07-10T14:49:44.776Z</time>
      </trkpt>
      <trkpt lat="46.38769" lon="8.05839">
        <ele>1954</ele>
        <time>2021-07-10T14:49:45.776Z</time>
      </trkpt>
      <trkpt lat="46.38768" lon="8.05838">
        <ele>1954</ele>
        <time>2021-07-10T14:49:46.776Z</time>
      </trkpt>
      <trkpt lat="46.38767" lon="8.05838">
        <ele>1953</ele>
        <time>2021-07-10T14:49:47.777Z</time>
      </trkpt>
      <trkpt lat="46.38767" lon="8.05838">
        <ele>1953</ele>
        <time>2021-07-10T14:49:48.776Z</time>
      </trkpt>
      <trkpt lat="46.38766" lon="8.05836">
        <ele>1953</ele>
        <time>2021-07-10T14:49:49.776Z</time>
      </trkpt>
      <trkpt lat="46.38765" lon="8.05835">
        <ele>1953</ele>
        <time>2021-07-10T14:49:50.776Z</time>
      </trkpt>
      <trkpt lat="46.38764" lon="8.05834">
        <ele>1953</ele>
        <time>2021-07-10T14:49:51.777Z</time>
      </trkpt>
      <trkpt lat="46.38763" lon="8.05834">
        <ele>1953</ele>
        <time>2021-07-10T14:49:52.776Z</time>
      </trkpt>
      <trkpt lat="46.38762" lon="8.05835">
        <ele>1953</ele>
        <time>2021-07-10T14:49:53.777Z</time>
      </trkpt>
      <trkpt lat="46.38761" lon="8.05836">
        <ele>1952</ele>
        <time>2021-07-10T14:49:54.776Z</time>
      </trkpt>
      <trkpt lat="46.3876" lon="8.05839">
        <ele>1952</ele>
        <time>2021-07-10T14:49:55.776Z</time>
      </trkpt>
      <trkpt lat="46.38759" lon="8.0584">
        <ele>1952</ele>
        <time>2021-07-10T14:49:56.776Z</time>
      </trkpt>
      <trkpt lat="46.38759" lon="8.05842">
        <ele>1952</ele>
        <time>2021-07-10T14:49:57.777Z</time>
      </trkpt>
      <trkpt lat="46.38759" lon="8.05844">
        <ele>1951</ele>
        <time>2021-07-10T14:49:58.776Z</time>
      </trkpt>
      <trkpt lat="46.38759" lon="8.05845">
        <ele>1950</ele>
        <time>2021-07-10T14:49:59.776Z</time>
      </trkpt>
      <trkpt lat="46.38759" lon="8.05847">
        <ele>1949</ele>
        <time>2021-07-10T14:50:00.776Z</time>
      </trkpt>
      <trkpt lat="46.38759" lon="8.05848">
        <ele>1948</ele>
        <time>2021-07-10T14:50:01.777Z</time>
      </trkpt>
      <trkpt lat="46.38759" lon="8.0585">
        <ele>1948</ele>
        <time>2021-07-10T14:50:02.777Z</time>
      </trkpt>
      <trkpt lat="46.38759" lon="8.05852">
        <ele>1947</ele>
        <time>2021-07-10T14:50:03.777Z</time>
      </trkpt>
      <trkpt lat="46.38759" lon="8.05854">
        <ele>1946</ele>
        <time>2021-07-10T14:50:04.776Z</time>
      </trkpt>
      <trkpt lat="46.38759" lon="8.05856">
        <ele>1946</ele>
        <time>2021-07-10T14:50:05.776Z</time>
      </trkpt>
      <trkpt lat="46.38759" lon="8.05858">
        <ele>1946</ele>
        <time>2021-07-10T14:50:06.777Z</time>
      </trkpt>
      <trkpt lat="46.3876" lon="8.0586">
        <ele>1945</ele>
        <time>2021-07-10T14:50:07.776Z</time>
      </trkpt>
      <trkpt lat="46.3876" lon="8.05863">
        <ele>1946</ele>
        <time>2021-07-10T14:50:08.777Z</time>
      </trkpt>
      <trkpt lat="46.3876" lon="8.05865">
        <ele>1946</ele>
        <time>2021-07-10T14:50:09.776Z</time>
      </trkpt>
      <trkpt lat="46.3876" lon="8.05867">
        <ele>1946</ele>
        <time>2021-07-10T14:50:10.776Z</time>
      </trkpt>
      <trkpt lat="46.38761" lon="8.05869">
        <ele>1947</ele>
        <time>2021-07-10T14:50:11.777Z</time>
      </trkpt>
      <trkpt lat="46.38761" lon="8.0587">
        <ele>1947</ele>
        <time>2021-07-10T14:50:12.777Z</time>
      </trkpt>
      <trkpt lat="46.38761" lon="8.05872">
        <ele>1948</ele>
        <time>2021-07-10T14:50:13.776Z</time>
      </trkpt>
      <trkpt lat="46.38762" lon="8.05873">
        <ele>1948</ele>
        <time>2021-07-10T14:50:14.776Z</time>
      </trkpt>
      <trkpt lat="46.38762" lon="8.05875">
        <ele>1949</ele>
        <time>2021-07-10T14:50:15.776Z</time>
      </trkpt>
      <trkpt lat="46.38763" lon="8.05876">
        <ele>1949</ele>
        <time>2021-07-10T14:50:16.776Z</time>
      </trkpt>
      <trkpt lat="46.38763" lon="8.05878">
        <ele>1949</ele>
        <time>2021-07-10T14:50:17.776Z</time>
      </trkpt>
      <trkpt lat="46.38764" lon="8.0588">
        <ele>1949</ele>
        <time>2021-07-10T14:50:18.776Z</time>
      </trkpt>
      <trkpt lat="46.38764" lon="8.05881">
        <ele>1950</ele>
        <time>2021-07-10T14:50:19.776Z</time>
      </trkpt>
      <trkpt lat="46.38764" lon="8.05883">
        <ele>1950</ele>
        <time>2021-07-10T14:50:20.776Z</time>
      </trkpt>
      <trkpt lat="46.38764" lon="8.05884">
        <ele>1950</ele>
        <time>2021-07-10T14:50:21.776Z</time>
      </trkpt>
      <trkpt lat="46.38765" lon="8.05886">
        <ele>1951</ele>
        <time>2021-07-10T14:50:22.776Z</time>
      </trkpt>
      <trkpt lat="46.38765" lon="8.05887">
        <ele>1951</ele>
        <time>2021-07-10T14:50:23.776Z</time>
      </trkpt>
      <trkpt lat="46.38766" lon="8.05887">
        <ele>1951</ele>
        <time>2021-07-10T14:50:24.776Z</time>
      </trkpt>
      <trkpt lat="46.38767" lon="8.05889">
        <ele>1951</ele>
        <time>2021-07-10T14:50:25.776Z</time>
      </trkpt>
      <trkpt lat="46.38767" lon="8.05889">
        <ele>1952</ele>
        <time>2021-07-10T14:50:26.777Z</time>
      </trkpt>
      <trkpt lat="46.38768" lon="8.05889">
        <ele>1952</ele>
        <time>2021-07-10T14:50:27.777Z</time>
      </trkpt>
      <trkpt lat="46.38768" lon="8.05889">
        <ele>1952</ele>
        <time>2021-07-10T14:50:28.777Z</time>
      </trkpt>
      <trkpt lat="46.38768" lon="8.0589">
        <ele>1952</ele>
        <time>2021-07-10T14:50:29.776Z</time>
      </trkpt>
      <trkpt lat="46.38768" lon="8.0589">
        <ele>1953</ele>
        <time>2021-07-10T14:50:30.776Z</time>
      </trkpt>
      <trkpt lat="46.38768" lon="8.0589">
        <ele>1953</ele>
        <time>2021-07-10T14:50:32.777Z</time>
      </trkpt>
    </trkseg>
  </trk>
</gpx>